<?xml version="1.0" encoding="UTF-8" standalone="no" ?>
<gpx xmlns="http://www.topografix.com/GPX/1/1" xmlns:xsi="http://www.w3.org/2001/XMLSchema-instance" xsi:schemaLocation="http://www.topografix.com/GPX/1/1 http://www.topografix.com/GPX/1/1/gpx.xsd" version="1.1" creator="VisuGPX - https://www.visugpx.com">
  <metadata>
    <name>24-05-08</name>
    <desc><![CDATA[ADV]]></desc>
  </metadata>
  <trk>
    <name><![CDATA[24-05-08_1]]></name>
    <trkseg>
      <trkpt lat="46.87783" lon="3.09737">
        <ele>188.6</ele>
        <time>2024-05-08T04:57:48Z</time>
      </trkpt>
      <trkpt lat="46.87799" lon="3.09697">
        <ele>186.8</ele>
        <time>2024-05-08T04:57:55Z</time>
      </trkpt>
      <trkpt lat="46.87813" lon="3.09661">
        <ele>186.8</ele>
        <time>2024-05-08T04:58:01Z</time>
      </trkpt>
      <trkpt lat="46.87817" lon="3.0965">
        <ele>186.8</ele>
        <time>2024-05-08T04:58:03Z</time>
      </trkpt>
      <trkpt lat="46.87828" lon="3.09624">
        <ele>186.2</ele>
        <time>2024-05-08T04:58:08Z</time>
      </trkpt>
      <trkpt lat="46.87834" lon="3.09612">
        <ele>185.8</ele>
        <time>2024-05-08T04:58:10Z</time>
      </trkpt>
      <trkpt lat="46.87854" lon="3.09571">
        <ele>184.8</ele>
        <time>2024-05-08T04:58:18Z</time>
      </trkpt>
      <trkpt lat="46.87871" lon="3.09538">
        <ele>183.8</ele>
        <time>2024-05-08T04:58:24Z</time>
      </trkpt>
      <trkpt lat="46.87874" lon="3.09532">
        <ele>183.6</ele>
        <time>2024-05-08T04:58:25Z</time>
      </trkpt>
      <trkpt lat="46.87901" lon="3.09478">
        <ele>183</ele>
        <time>2024-05-08T04:58:34Z</time>
      </trkpt>
      <trkpt lat="46.87904" lon="3.09472">
        <ele>182.8</ele>
        <time>2024-05-08T04:58:35Z</time>
      </trkpt>
      <trkpt lat="46.87907" lon="3.09466">
        <ele>182.8</ele>
        <time>2024-05-08T04:58:36Z</time>
      </trkpt>
      <trkpt lat="46.87931" lon="3.09421">
        <ele>181.6</ele>
        <time>2024-05-08T04:58:43Z</time>
      </trkpt>
      <trkpt lat="46.87958" lon="3.09371">
        <ele>181.2</ele>
        <time>2024-05-08T04:58:50Z</time>
      </trkpt>
      <trkpt lat="46.87973" lon="3.09341">
        <ele>180.6</ele>
        <time>2024-05-08T04:58:54Z</time>
      </trkpt>
      <trkpt lat="46.87989" lon="3.09311">
        <ele>180.2</ele>
        <time>2024-05-08T04:58:58Z</time>
      </trkpt>
      <trkpt lat="46.88005" lon="3.09281">
        <ele>179.6</ele>
        <time>2024-05-08T04:59:02Z</time>
      </trkpt>
      <trkpt lat="46.88013" lon="3.09266">
        <ele>179.4</ele>
        <time>2024-05-08T04:59:04Z</time>
      </trkpt>
      <trkpt lat="46.88037" lon="3.0922">
        <ele>178.6</ele>
        <time>2024-05-08T04:59:10Z</time>
      </trkpt>
      <trkpt lat="46.88069" lon="3.09159">
        <ele>177.6</ele>
        <time>2024-05-08T04:59:18Z</time>
      </trkpt>
      <trkpt lat="46.88073" lon="3.09152">
        <ele>177.6</ele>
        <time>2024-05-08T04:59:19Z</time>
      </trkpt>
      <trkpt lat="46.88097" lon="3.09109">
        <ele>177</ele>
        <time>2024-05-08T04:59:25Z</time>
      </trkpt>
      <trkpt lat="46.88101" lon="3.09104">
        <ele>177</ele>
        <time>2024-05-08T04:59:26Z</time>
      </trkpt>
      <trkpt lat="46.88116" lon="3.0909">
        <ele>176.8</ele>
        <time>2024-05-08T04:59:29Z</time>
      </trkpt>
      <trkpt lat="46.88127" lon="3.09083">
        <ele>176.8</ele>
        <time>2024-05-08T04:59:31Z</time>
      </trkpt>
      <trkpt lat="46.88148" lon="3.09064">
        <ele>176.8</ele>
        <time>2024-05-08T04:59:35Z</time>
      </trkpt>
      <trkpt lat="46.88192" lon="3.09031">
        <ele>176.6</ele>
        <time>2024-05-08T04:59:43Z</time>
      </trkpt>
      <trkpt lat="46.88237" lon="3.09">
        <ele>176.4</ele>
        <time>2024-05-08T04:59:51Z</time>
      </trkpt>
      <trkpt lat="46.88243" lon="3.08996">
        <ele>176.4</ele>
        <time>2024-05-08T04:59:52Z</time>
      </trkpt>
      <trkpt lat="46.88254" lon="3.08989">
        <ele>176.2</ele>
        <time>2024-05-08T04:59:54Z</time>
      </trkpt>
      <trkpt lat="46.88289" lon="3.08969">
        <ele>175.6</ele>
        <time>2024-05-08T05:00:00Z</time>
      </trkpt>
      <trkpt lat="46.88294" lon="3.08964">
        <ele>175.4</ele>
        <time>2024-05-08T05:00:01Z</time>
      </trkpt>
      <trkpt lat="46.88318" lon="3.08932">
        <ele>175</ele>
        <time>2024-05-08T05:00:06Z</time>
      </trkpt>
      <trkpt lat="46.88337" lon="3.08904">
        <ele>175</ele>
        <time>2024-05-08T05:00:10Z</time>
      </trkpt>
      <trkpt lat="46.88347" lon="3.08895">
        <ele>175</ele>
        <time>2024-05-08T05:00:12Z</time>
      </trkpt>
      <trkpt lat="46.88359" lon="3.08888">
        <ele>174.8</ele>
        <time>2024-05-08T05:00:14Z</time>
      </trkpt>
      <trkpt lat="46.88372" lon="3.08885">
        <ele>174.6</ele>
        <time>2024-05-08T05:00:16Z</time>
      </trkpt>
      <trkpt lat="46.88378" lon="3.08884">
        <ele>174.6</ele>
        <time>2024-05-08T05:00:17Z</time>
      </trkpt>
      <trkpt lat="46.88398" lon="3.08884">
        <ele>174.6</ele>
        <time>2024-05-08T05:00:20Z</time>
      </trkpt>
      <trkpt lat="46.88405" lon="3.08884">
        <ele>174.6</ele>
        <time>2024-05-08T05:00:21Z</time>
      </trkpt>
      <trkpt lat="46.88459" lon="3.08881">
        <ele>174.6</ele>
        <time>2024-05-08T05:00:30Z</time>
      </trkpt>
      <trkpt lat="46.88465" lon="3.0888">
        <ele>174.6</ele>
        <time>2024-05-08T05:00:31Z</time>
      </trkpt>
      <trkpt lat="46.88514" lon="3.08868">
        <ele>174.4</ele>
        <time>2024-05-08T05:00:39Z</time>
      </trkpt>
      <trkpt lat="46.88532" lon="3.08862">
        <ele>174.4</ele>
        <time>2024-05-08T05:00:42Z</time>
      </trkpt>
      <trkpt lat="46.88566" lon="3.0884">
        <ele>174.2</ele>
        <time>2024-05-08T05:00:48Z</time>
      </trkpt>
      <trkpt lat="46.88606" lon="3.08806">
        <ele>174.2</ele>
        <time>2024-05-08T05:00:56Z</time>
      </trkpt>
      <trkpt lat="46.88654" lon="3.08766">
        <ele>175</ele>
        <time>2024-05-08T05:01:05Z</time>
      </trkpt>
      <trkpt lat="46.88704" lon="3.0872">
        <ele>174.8</ele>
        <time>2024-05-08T05:01:14Z</time>
      </trkpt>
      <trkpt lat="46.88749" lon="3.08686">
        <ele>174.4</ele>
        <time>2024-05-08T05:01:22Z</time>
      </trkpt>
      <trkpt lat="46.88803" lon="3.08663">
        <ele>174.4</ele>
        <time>2024-05-08T05:01:31Z</time>
      </trkpt>
      <trkpt lat="46.88855" lon="3.08644">
        <ele>174.6</ele>
        <time>2024-05-08T05:01:40Z</time>
      </trkpt>
      <trkpt lat="46.88904" lon="3.08625">
        <ele>174.6</ele>
        <time>2024-05-08T05:01:48Z</time>
      </trkpt>
      <trkpt lat="46.88961" lon="3.08604">
        <ele>174.6</ele>
        <time>2024-05-08T05:01:58Z</time>
      </trkpt>
      <trkpt lat="46.89013" lon="3.08585">
        <ele>175</ele>
        <time>2024-05-08T05:02:07Z</time>
      </trkpt>
      <trkpt lat="46.89019" lon="3.08582">
        <ele>175</ele>
        <time>2024-05-08T05:02:08Z</time>
      </trkpt>
      <trkpt lat="46.89072" lon="3.08562">
        <ele>175.2</ele>
        <time>2024-05-08T05:02:17Z</time>
      </trkpt>
      <trkpt lat="46.89089" lon="3.08553">
        <ele>175.2</ele>
        <time>2024-05-08T05:02:20Z</time>
      </trkpt>
      <trkpt lat="46.891" lon="3.08546">
        <ele>175.2</ele>
        <time>2024-05-08T05:02:22Z</time>
      </trkpt>
      <trkpt lat="46.89125" lon="3.08523">
        <ele>175.4</ele>
        <time>2024-05-08T05:02:27Z</time>
      </trkpt>
      <trkpt lat="46.89171" lon="3.08468">
        <ele>175.8</ele>
        <time>2024-05-08T05:02:37Z</time>
      </trkpt>
      <trkpt lat="46.89195" lon="3.08444">
        <ele>176</ele>
        <time>2024-05-08T05:02:42Z</time>
      </trkpt>
      <trkpt lat="46.89205" lon="3.08436">
        <ele>176</ele>
        <time>2024-05-08T05:02:44Z</time>
      </trkpt>
      <trkpt lat="46.89256" lon="3.08405">
        <ele>176.2</ele>
        <time>2024-05-08T05:02:53Z</time>
      </trkpt>
      <trkpt lat="46.89272" lon="3.08394">
        <ele>176.4</ele>
        <time>2024-05-08T05:02:56Z</time>
      </trkpt>
      <trkpt lat="46.89283" lon="3.08386">
        <ele>176.4</ele>
        <time>2024-05-08T05:02:58Z</time>
      </trkpt>
      <trkpt lat="46.89294" lon="3.08384">
        <ele>176.6</ele>
        <time>2024-05-08T05:03:00Z</time>
      </trkpt>
      <trkpt lat="46.89316" lon="3.08393">
        <ele>176.6</ele>
        <time>2024-05-08T05:03:04Z</time>
      </trkpt>
      <trkpt lat="46.89329" lon="3.084">
        <ele>176.8</ele>
        <time>2024-05-08T05:03:06Z</time>
      </trkpt>
      <trkpt lat="46.8934" lon="3.084">
        <ele>176.6</ele>
        <time>2024-05-08T05:03:08Z</time>
      </trkpt>
      <trkpt lat="46.89352" lon="3.08396">
        <ele>176.6</ele>
        <time>2024-05-08T05:03:10Z</time>
      </trkpt>
      <trkpt lat="46.89357" lon="3.08391">
        <ele>176.6</ele>
        <time>2024-05-08T05:03:11Z</time>
      </trkpt>
      <trkpt lat="46.89362" lon="3.08386">
        <ele>176.6</ele>
        <time>2024-05-08T05:03:12Z</time>
      </trkpt>
      <trkpt lat="46.89378" lon="3.08358">
        <ele>176.6</ele>
        <time>2024-05-08T05:03:16Z</time>
      </trkpt>
      <trkpt lat="46.89406" lon="3.08304">
        <ele>176.6</ele>
        <time>2024-05-08T05:03:24Z</time>
      </trkpt>
      <trkpt lat="46.8941" lon="3.08298">
        <ele>176.6</ele>
        <time>2024-05-08T05:03:25Z</time>
      </trkpt>
      <trkpt lat="46.89414" lon="3.08294">
        <ele>176.6</ele>
        <time>2024-05-08T05:03:26Z</time>
      </trkpt>
      <trkpt lat="46.89428" lon="3.0828">
        <ele>177.2</ele>
        <time>2024-05-08T05:03:29Z</time>
      </trkpt>
      <trkpt lat="46.89433" lon="3.08277">
        <ele>177.4</ele>
        <time>2024-05-08T05:03:30Z</time>
      </trkpt>
      <trkpt lat="46.89444" lon="3.08272">
        <ele>177.6</ele>
        <time>2024-05-08T05:03:32Z</time>
      </trkpt>
      <trkpt lat="46.89486" lon="3.08253">
        <ele>178.6</ele>
        <time>2024-05-08T05:03:40Z</time>
      </trkpt>
      <trkpt lat="46.89498" lon="3.08248">
        <ele>178.6</ele>
        <time>2024-05-08T05:03:42Z</time>
      </trkpt>
      <trkpt lat="46.89529" lon="3.08233">
        <ele>179</ele>
        <time>2024-05-08T05:03:48Z</time>
      </trkpt>
      <trkpt lat="46.89583" lon="3.08213">
        <ele>179.4</ele>
        <time>2024-05-08T05:03:58Z</time>
      </trkpt>
      <trkpt lat="46.896" lon="3.08209">
        <ele>179.8</ele>
        <time>2024-05-08T05:04:01Z</time>
      </trkpt>
      <trkpt lat="46.89631" lon="3.08203">
        <ele>180</ele>
        <time>2024-05-08T05:04:07Z</time>
      </trkpt>
      <trkpt lat="46.89659" lon="3.08198">
        <ele>180.4</ele>
        <time>2024-05-08T05:04:12Z</time>
      </trkpt>
      <trkpt lat="46.89672" lon="3.08196">
        <ele>180.6</ele>
        <time>2024-05-08T05:04:15Z</time>
      </trkpt>
      <trkpt lat="46.89677" lon="3.08195">
        <ele>180.6</ele>
        <time>2024-05-08T05:04:16Z</time>
      </trkpt>
      <trkpt lat="46.89699" lon="3.08191">
        <ele>181.8</ele>
        <time>2024-05-08T05:04:21Z</time>
      </trkpt>
      <trkpt lat="46.89711" lon="3.08188">
        <ele>182</ele>
        <time>2024-05-08T05:04:24Z</time>
      </trkpt>
      <trkpt lat="46.89728" lon="3.08178">
        <ele>183</ele>
        <time>2024-05-08T05:04:29Z</time>
      </trkpt>
      <trkpt lat="46.89731" lon="3.08175">
        <ele>183.2</ele>
        <time>2024-05-08T05:04:30Z</time>
      </trkpt>
      <trkpt lat="46.8974" lon="3.08166">
        <ele>184</ele>
        <time>2024-05-08T05:04:33Z</time>
      </trkpt>
      <trkpt lat="46.89748" lon="3.08155">
        <ele>185.4</ele>
        <time>2024-05-08T05:04:36Z</time>
      </trkpt>
      <trkpt lat="46.89755" lon="3.08144">
        <ele>186.4</ele>
        <time>2024-05-08T05:04:39Z</time>
      </trkpt>
      <trkpt lat="46.89758" lon="3.0814">
        <ele>186.4</ele>
        <time>2024-05-08T05:04:40Z</time>
      </trkpt>
      <trkpt lat="46.89768" lon="3.08118">
        <ele>187.6</ele>
        <time>2024-05-08T05:04:45Z</time>
      </trkpt>
      <trkpt lat="46.8977" lon="3.08113">
        <ele>187.8</ele>
        <time>2024-05-08T05:04:46Z</time>
      </trkpt>
      <trkpt lat="46.89778" lon="3.08094">
        <ele>188.6</ele>
        <time>2024-05-08T05:04:50Z</time>
      </trkpt>
      <trkpt lat="46.89789" lon="3.08077">
        <ele>189.4</ele>
        <time>2024-05-08T05:04:54Z</time>
      </trkpt>
      <trkpt lat="46.89794" lon="3.08068">
        <ele>190</ele>
        <time>2024-05-08T05:04:56Z</time>
      </trkpt>
      <trkpt lat="46.89807" lon="3.08048">
        <ele>191</ele>
        <time>2024-05-08T05:05:01Z</time>
      </trkpt>
      <trkpt lat="46.8981" lon="3.08044">
        <ele>191.2</ele>
        <time>2024-05-08T05:05:02Z</time>
      </trkpt>
      <trkpt lat="46.89839" lon="3.08012">
        <ele>192</ele>
        <time>2024-05-08T05:05:10Z</time>
      </trkpt>
      <trkpt lat="46.89843" lon="3.08007">
        <ele>192</ele>
        <time>2024-05-08T05:05:11Z</time>
      </trkpt>
      <trkpt lat="46.89874" lon="3.07975">
        <ele>192</ele>
        <time>2024-05-08T05:05:17Z</time>
      </trkpt>
      <trkpt lat="46.89909" lon="3.07952">
        <ele>190.8</ele>
        <time>2024-05-08T05:05:23Z</time>
      </trkpt>
      <trkpt lat="46.89966" lon="3.07931">
        <ele>190</ele>
        <time>2024-05-08T05:05:32Z</time>
      </trkpt>
      <trkpt lat="46.89978" lon="3.07927">
        <ele>189.8</ele>
        <time>2024-05-08T05:05:34Z</time>
      </trkpt>
      <trkpt lat="46.90016" lon="3.07911">
        <ele>189.6</ele>
        <time>2024-05-08T05:05:40Z</time>
      </trkpt>
      <trkpt lat="46.90033" lon="3.07901">
        <ele>189.4</ele>
        <time>2024-05-08T05:05:43Z</time>
      </trkpt>
      <trkpt lat="46.90041" lon="3.07894">
        <ele>189.2</ele>
        <time>2024-05-08T05:05:45Z</time>
      </trkpt>
      <trkpt lat="46.90058" lon="3.0788">
        <ele>188.6</ele>
        <time>2024-05-08T05:05:49Z</time>
      </trkpt>
      <trkpt lat="46.90064" lon="3.07877">
        <ele>188.8</ele>
        <time>2024-05-08T05:05:50Z</time>
      </trkpt>
      <trkpt lat="46.9007" lon="3.07875">
        <ele>188.8</ele>
        <time>2024-05-08T05:05:51Z</time>
      </trkpt>
      <trkpt lat="46.90076" lon="3.07873">
        <ele>188.6</ele>
        <time>2024-05-08T05:05:52Z</time>
      </trkpt>
      <trkpt lat="46.90088" lon="3.07871">
        <ele>188.6</ele>
        <time>2024-05-08T05:05:54Z</time>
      </trkpt>
      <trkpt lat="46.901" lon="3.07871">
        <ele>188.4</ele>
        <time>2024-05-08T05:05:56Z</time>
      </trkpt>
      <trkpt lat="46.90143" lon="3.07875">
        <ele>188.2</ele>
        <time>2024-05-08T05:06:03Z</time>
      </trkpt>
      <trkpt lat="46.90195" lon="3.07888">
        <ele>188.6</ele>
        <time>2024-05-08T05:06:12Z</time>
      </trkpt>
      <trkpt lat="46.90233" lon="3.07905">
        <ele>189.8</ele>
        <time>2024-05-08T05:06:20Z</time>
      </trkpt>
      <trkpt lat="46.90278" lon="3.07925">
        <ele>191</ele>
        <time>2024-05-08T05:06:30Z</time>
      </trkpt>
      <trkpt lat="46.90308" lon="3.07936">
        <ele>192</ele>
        <time>2024-05-08T05:06:37Z</time>
      </trkpt>
      <trkpt lat="46.90321" lon="3.0794">
        <ele>192.8</ele>
        <time>2024-05-08T05:06:40Z</time>
      </trkpt>
      <trkpt lat="46.90329" lon="3.07944">
        <ele>193.2</ele>
        <time>2024-05-08T05:06:42Z</time>
      </trkpt>
      <trkpt lat="46.90344" lon="3.07951">
        <ele>194.2</ele>
        <time>2024-05-08T05:06:46Z</time>
      </trkpt>
      <trkpt lat="46.90349" lon="3.07953">
        <ele>194.4</ele>
        <time>2024-05-08T05:06:47Z</time>
      </trkpt>
      <trkpt lat="46.90353" lon="3.07954">
        <ele>194.6</ele>
        <time>2024-05-08T05:06:48Z</time>
      </trkpt>
      <trkpt lat="46.90361" lon="3.07957">
        <ele>195.2</ele>
        <time>2024-05-08T05:06:50Z</time>
      </trkpt>
      <trkpt lat="46.90381" lon="3.07962">
        <ele>196.4</ele>
        <time>2024-05-08T05:06:55Z</time>
      </trkpt>
      <trkpt lat="46.90388" lon="3.07964">
        <ele>197</ele>
        <time>2024-05-08T05:06:57Z</time>
      </trkpt>
      <trkpt lat="46.90397" lon="3.07966">
        <ele>197.4</ele>
        <time>2024-05-08T05:06:59Z</time>
      </trkpt>
      <trkpt lat="46.90419" lon="3.07974">
        <ele>198.4</ele>
        <time>2024-05-08T05:07:04Z</time>
      </trkpt>
      <trkpt lat="46.90424" lon="3.07975">
        <ele>198.8</ele>
        <time>2024-05-08T05:07:05Z</time>
      </trkpt>
      <trkpt lat="46.90429" lon="3.07978">
        <ele>198.8</ele>
        <time>2024-05-08T05:07:06Z</time>
      </trkpt>
      <trkpt lat="46.90448" lon="3.07984">
        <ele>199.2</ele>
        <time>2024-05-08T05:07:10Z</time>
      </trkpt>
      <trkpt lat="46.90489" lon="3.07999">
        <ele>199.4</ele>
        <time>2024-05-08T05:07:18Z</time>
      </trkpt>
      <trkpt lat="46.90545" lon="3.08022">
        <ele>199.6</ele>
        <time>2024-05-08T05:07:28Z</time>
      </trkpt>
      <trkpt lat="46.90598" lon="3.0804">
        <ele>199.6</ele>
        <time>2024-05-08T05:07:37Z</time>
      </trkpt>
      <trkpt lat="46.90634" lon="3.08042">
        <ele>199.4</ele>
        <time>2024-05-08T05:07:43Z</time>
      </trkpt>
      <trkpt lat="46.90675" lon="3.08044">
        <ele>199.6</ele>
        <time>2024-05-08T05:07:50Z</time>
      </trkpt>
      <trkpt lat="46.9068" lon="3.08044">
        <ele>199.6</ele>
        <time>2024-05-08T05:07:51Z</time>
      </trkpt>
      <trkpt lat="46.90713" lon="3.08049">
        <ele>199.8</ele>
        <time>2024-05-08T05:07:56Z</time>
      </trkpt>
      <trkpt lat="46.90761" lon="3.08057">
        <ele>200.4</ele>
        <time>2024-05-08T05:08:04Z</time>
      </trkpt>
      <trkpt lat="46.90773" lon="3.08058">
        <ele>200.4</ele>
        <time>2024-05-08T05:08:06Z</time>
      </trkpt>
      <trkpt lat="46.90795" lon="3.08059">
        <ele>200.6</ele>
        <time>2024-05-08T05:08:10Z</time>
      </trkpt>
      <trkpt lat="46.90832" lon="3.0806">
        <ele>200.8</ele>
        <time>2024-05-08T05:08:16Z</time>
      </trkpt>
      <trkpt lat="46.90847" lon="3.0806">
        <ele>201.2</ele>
        <time>2024-05-08T05:08:19Z</time>
      </trkpt>
      <trkpt lat="46.90859" lon="3.08062">
        <ele>201.4</ele>
        <time>2024-05-08T05:08:21Z</time>
      </trkpt>
      <trkpt lat="46.90865" lon="3.08062">
        <ele>201.6</ele>
        <time>2024-05-08T05:08:22Z</time>
      </trkpt>
      <trkpt lat="46.90907" lon="3.08064">
        <ele>202.2</ele>
        <time>2024-05-08T05:08:29Z</time>
      </trkpt>
      <trkpt lat="46.90955" lon="3.08065">
        <ele>202.2</ele>
        <time>2024-05-08T05:08:37Z</time>
      </trkpt>
      <trkpt lat="46.91004" lon="3.0806">
        <ele>202.6</ele>
        <time>2024-05-08T05:08:44Z</time>
      </trkpt>
      <trkpt lat="46.91043" lon="3.08051">
        <ele>202.8</ele>
        <time>2024-05-08T05:08:51Z</time>
      </trkpt>
      <trkpt lat="46.91079" lon="3.08042">
        <ele>202.8</ele>
        <time>2024-05-08T05:08:56Z</time>
      </trkpt>
      <trkpt lat="46.91125" lon="3.08034">
        <ele>202.4</ele>
        <time>2024-05-08T05:09:03Z</time>
      </trkpt>
      <trkpt lat="46.91184" lon="3.08019">
        <ele>201.8</ele>
        <time>2024-05-08T05:09:12Z</time>
      </trkpt>
      <trkpt lat="46.91191" lon="3.08019">
        <ele>201.8</ele>
        <time>2024-05-08T05:09:13Z</time>
      </trkpt>
      <trkpt lat="46.91203" lon="3.08019">
        <ele>201.8</ele>
        <time>2024-05-08T05:09:15Z</time>
      </trkpt>
      <trkpt lat="46.91222" lon="3.0802">
        <ele>201.4</ele>
        <time>2024-05-08T05:09:18Z</time>
      </trkpt>
      <trkpt lat="46.91249" lon="3.08022">
        <ele>201.4</ele>
        <time>2024-05-08T05:09:22Z</time>
      </trkpt>
      <trkpt lat="46.91284" lon="3.08026">
        <ele>201.4</ele>
        <time>2024-05-08T05:09:28Z</time>
      </trkpt>
      <trkpt lat="46.9132" lon="3.08032">
        <ele>201.2</ele>
        <time>2024-05-08T05:09:34Z</time>
      </trkpt>
      <trkpt lat="46.91343" lon="3.0804">
        <ele>201.2</ele>
        <time>2024-05-08T05:09:38Z</time>
      </trkpt>
      <trkpt lat="46.91388" lon="3.08054">
        <ele>200.8</ele>
        <time>2024-05-08T05:09:45Z</time>
      </trkpt>
      <trkpt lat="46.91435" lon="3.08067">
        <ele>200.2</ele>
        <time>2024-05-08T05:09:52Z</time>
      </trkpt>
      <trkpt lat="46.91449" lon="3.08072">
        <ele>200.2</ele>
        <time>2024-05-08T05:09:54Z</time>
      </trkpt>
      <trkpt lat="46.91502" lon="3.08094">
        <ele>200</ele>
        <time>2024-05-08T05:10:02Z</time>
      </trkpt>
      <trkpt lat="46.91556" lon="3.08115">
        <ele>199.4</ele>
        <time>2024-05-08T05:10:10Z</time>
      </trkpt>
      <trkpt lat="46.9157" lon="3.0812">
        <ele>199.2</ele>
        <time>2024-05-08T05:10:12Z</time>
      </trkpt>
      <trkpt lat="46.91617" lon="3.08138">
        <ele>198.8</ele>
        <time>2024-05-08T05:10:19Z</time>
      </trkpt>
      <trkpt lat="46.91675" lon="3.08154">
        <ele>198.6</ele>
        <time>2024-05-08T05:10:28Z</time>
      </trkpt>
      <trkpt lat="46.91723" lon="3.08165">
        <ele>198.2</ele>
        <time>2024-05-08T05:10:36Z</time>
      </trkpt>
      <trkpt lat="46.91769" lon="3.08169">
        <ele>198.2</ele>
        <time>2024-05-08T05:10:44Z</time>
      </trkpt>
      <trkpt lat="46.91784" lon="3.0817">
        <ele>198</ele>
        <time>2024-05-08T05:10:46Z</time>
      </trkpt>
      <trkpt lat="46.91824" lon="3.08169">
        <ele>197.2</ele>
        <time>2024-05-08T05:10:52Z</time>
      </trkpt>
      <trkpt lat="46.91845" lon="3.08169">
        <ele>197</ele>
        <time>2024-05-08T05:10:55Z</time>
      </trkpt>
      <trkpt lat="46.91893" lon="3.08167">
        <ele>196.4</ele>
        <time>2024-05-08T05:11:02Z</time>
      </trkpt>
      <trkpt lat="46.91926" lon="3.08167">
        <ele>196.6</ele>
        <time>2024-05-08T05:11:08Z</time>
      </trkpt>
      <trkpt lat="46.91954" lon="3.08168">
        <ele>197.6</ele>
        <time>2024-05-08T05:11:14Z</time>
      </trkpt>
      <trkpt lat="46.91961" lon="3.08168">
        <ele>198</ele>
        <time>2024-05-08T05:11:16Z</time>
      </trkpt>
      <trkpt lat="46.91977" lon="3.08169">
        <ele>199.2</ele>
        <time>2024-05-08T05:11:20Z</time>
      </trkpt>
      <trkpt lat="46.91981" lon="3.08169">
        <ele>199.4</ele>
        <time>2024-05-08T05:11:21Z</time>
      </trkpt>
      <trkpt lat="46.91989" lon="3.08172">
        <ele>200.2</ele>
        <time>2024-05-08T05:11:23Z</time>
      </trkpt>
      <trkpt lat="46.92005" lon="3.08179">
        <ele>201.6</ele>
        <time>2024-05-08T05:11:28Z</time>
      </trkpt>
      <trkpt lat="46.92008" lon="3.08181">
        <ele>201.8</ele>
        <time>2024-05-08T05:11:29Z</time>
      </trkpt>
      <trkpt lat="46.92018" lon="3.08187">
        <ele>202.6</ele>
        <time>2024-05-08T05:11:32Z</time>
      </trkpt>
      <trkpt lat="46.92031" lon="3.08198">
        <ele>203.8</ele>
        <time>2024-05-08T05:11:36Z</time>
      </trkpt>
      <trkpt lat="46.92034" lon="3.082">
        <ele>204</ele>
        <time>2024-05-08T05:11:37Z</time>
      </trkpt>
      <trkpt lat="46.92042" lon="3.08208">
        <ele>205</ele>
        <time>2024-05-08T05:11:40Z</time>
      </trkpt>
      <trkpt lat="46.92055" lon="3.0822">
        <ele>206</ele>
        <time>2024-05-08T05:11:44Z</time>
      </trkpt>
      <trkpt lat="46.92061" lon="3.08225">
        <ele>206.8</ele>
        <time>2024-05-08T05:11:46Z</time>
      </trkpt>
      <trkpt lat="46.92064" lon="3.08229">
        <ele>207.2</ele>
        <time>2024-05-08T05:11:47Z</time>
      </trkpt>
      <trkpt lat="46.92079" lon="3.08245">
        <ele>208.6</ele>
        <time>2024-05-08T05:11:52Z</time>
      </trkpt>
      <trkpt lat="46.92088" lon="3.08255">
        <ele>209.6</ele>
        <time>2024-05-08T05:11:55Z</time>
      </trkpt>
      <trkpt lat="46.9209" lon="3.08257">
        <ele>209.8</ele>
        <time>2024-05-08T05:11:56Z</time>
      </trkpt>
      <trkpt lat="46.92101" lon="3.08269">
        <ele>210.8</ele>
        <time>2024-05-08T05:11:59Z</time>
      </trkpt>
      <trkpt lat="46.92115" lon="3.08287">
        <ele>211.8</ele>
        <time>2024-05-08T05:12:04Z</time>
      </trkpt>
      <trkpt lat="46.92117" lon="3.08289">
        <ele>212</ele>
        <time>2024-05-08T05:12:05Z</time>
      </trkpt>
      <trkpt lat="46.92125" lon="3.08298">
        <ele>212.8</ele>
        <time>2024-05-08T05:12:08Z</time>
      </trkpt>
      <trkpt lat="46.92137" lon="3.08313">
        <ele>214</ele>
        <time>2024-05-08T05:12:12Z</time>
      </trkpt>
      <trkpt lat="46.92142" lon="3.08319">
        <ele>214.6</ele>
        <time>2024-05-08T05:12:14Z</time>
      </trkpt>
      <trkpt lat="46.9215" lon="3.08329">
        <ele>215.2</ele>
        <time>2024-05-08T05:12:17Z</time>
      </trkpt>
      <trkpt lat="46.92164" lon="3.08345">
        <ele>216.4</ele>
        <time>2024-05-08T05:12:22Z</time>
      </trkpt>
      <trkpt lat="46.92178" lon="3.08359">
        <ele>217.6</ele>
        <time>2024-05-08T05:12:27Z</time>
      </trkpt>
      <trkpt lat="46.92187" lon="3.08367">
        <ele>218.2</ele>
        <time>2024-05-08T05:12:30Z</time>
      </trkpt>
      <trkpt lat="46.92193" lon="3.08373">
        <ele>218.8</ele>
        <time>2024-05-08T05:12:32Z</time>
      </trkpt>
      <trkpt lat="46.92206" lon="3.08383">
        <ele>220</ele>
        <time>2024-05-08T05:12:36Z</time>
      </trkpt>
      <trkpt lat="46.92213" lon="3.08387">
        <ele>220.4</ele>
        <time>2024-05-08T05:12:38Z</time>
      </trkpt>
      <trkpt lat="46.92219" lon="3.08391">
        <ele>221</ele>
        <time>2024-05-08T05:12:40Z</time>
      </trkpt>
      <trkpt lat="46.9224" lon="3.08403">
        <ele>222.2</ele>
        <time>2024-05-08T05:12:46Z</time>
      </trkpt>
      <trkpt lat="46.92258" lon="3.08411">
        <ele>223.6</ele>
        <time>2024-05-08T05:12:51Z</time>
      </trkpt>
      <trkpt lat="46.92271" lon="3.08415">
        <ele>224.2</ele>
        <time>2024-05-08T05:12:55Z</time>
      </trkpt>
      <trkpt lat="46.92274" lon="3.08416">
        <ele>224.6</ele>
        <time>2024-05-08T05:12:56Z</time>
      </trkpt>
      <trkpt lat="46.92295" lon="3.08422">
        <ele>225.6</ele>
        <time>2024-05-08T05:13:01Z</time>
      </trkpt>
      <trkpt lat="46.92299" lon="3.08423">
        <ele>225.6</ele>
        <time>2024-05-08T05:13:02Z</time>
      </trkpt>
      <trkpt lat="46.92327" lon="3.08429">
        <ele>226.2</ele>
        <time>2024-05-08T05:13:08Z</time>
      </trkpt>
      <trkpt lat="46.92357" lon="3.08435">
        <ele>226</ele>
        <time>2024-05-08T05:13:13Z</time>
      </trkpt>
      <trkpt lat="46.92398" lon="3.08443">
        <ele>225.2</ele>
        <time>2024-05-08T05:13:20Z</time>
      </trkpt>
      <trkpt lat="46.92429" lon="3.08448">
        <ele>224.6</ele>
        <time>2024-05-08T05:13:25Z</time>
      </trkpt>
      <trkpt lat="46.92454" lon="3.08454">
        <ele>224.4</ele>
        <time>2024-05-08T05:13:29Z</time>
      </trkpt>
      <trkpt lat="46.92466" lon="3.08456">
        <ele>224.4</ele>
        <time>2024-05-08T05:13:31Z</time>
      </trkpt>
      <trkpt lat="46.92517" lon="3.08467">
        <ele>223.6</ele>
        <time>2024-05-08T05:13:39Z</time>
      </trkpt>
      <trkpt lat="46.92538" lon="3.08473">
        <ele>223.4</ele>
        <time>2024-05-08T05:13:42Z</time>
      </trkpt>
      <trkpt lat="46.92583" lon="3.08485">
        <ele>222.6</ele>
        <time>2024-05-08T05:13:49Z</time>
      </trkpt>
      <trkpt lat="46.92589" lon="3.08487">
        <ele>222.4</ele>
        <time>2024-05-08T05:13:50Z</time>
      </trkpt>
      <trkpt lat="46.92646" lon="3.08505">
        <ele>221.4</ele>
        <time>2024-05-08T05:13:59Z</time>
      </trkpt>
      <trkpt lat="46.92652" lon="3.08506">
        <ele>221.2</ele>
        <time>2024-05-08T05:14:00Z</time>
      </trkpt>
      <trkpt lat="46.9271" lon="3.08525">
        <ele>220.4</ele>
        <time>2024-05-08T05:14:09Z</time>
      </trkpt>
      <trkpt lat="46.92715" lon="3.08527">
        <ele>220.4</ele>
        <time>2024-05-08T05:14:10Z</time>
      </trkpt>
      <trkpt lat="46.92735" lon="3.08534">
        <ele>220.2</ele>
        <time>2024-05-08T05:14:13Z</time>
      </trkpt>
      <trkpt lat="46.92778" lon="3.08548">
        <ele>219.8</ele>
        <time>2024-05-08T05:14:20Z</time>
      </trkpt>
      <trkpt lat="46.92824" lon="3.08564">
        <ele>219</ele>
        <time>2024-05-08T05:14:27Z</time>
      </trkpt>
      <trkpt lat="46.92848" lon="3.08572">
        <ele>218.8</ele>
        <time>2024-05-08T05:14:31Z</time>
      </trkpt>
      <trkpt lat="46.92887" lon="3.08585">
        <ele>218</ele>
        <time>2024-05-08T05:14:37Z</time>
      </trkpt>
      <trkpt lat="46.92908" lon="3.08591">
        <ele>217.8</ele>
        <time>2024-05-08T05:14:40Z</time>
      </trkpt>
      <trkpt lat="46.9296" lon="3.08607">
        <ele>217.2</ele>
        <time>2024-05-08T05:14:48Z</time>
      </trkpt>
      <trkpt lat="46.92967" lon="3.08608">
        <ele>217</ele>
        <time>2024-05-08T05:14:49Z</time>
      </trkpt>
      <trkpt lat="46.9301" lon="3.08617">
        <ele>216.2</ele>
        <time>2024-05-08T05:14:55Z</time>
      </trkpt>
      <trkpt lat="46.93017" lon="3.08619">
        <ele>216</ele>
        <time>2024-05-08T05:14:56Z</time>
      </trkpt>
      <trkpt lat="46.93053" lon="3.08629">
        <ele>214.8</ele>
        <time>2024-05-08T05:15:01Z</time>
      </trkpt>
      <trkpt lat="46.93068" lon="3.08636">
        <ele>214.6</ele>
        <time>2024-05-08T05:15:03Z</time>
      </trkpt>
      <trkpt lat="46.93091" lon="3.08643">
        <ele>213.8</ele>
        <time>2024-05-08T05:15:06Z</time>
      </trkpt>
      <trkpt lat="46.93121" lon="3.08654">
        <ele>213</ele>
        <time>2024-05-08T05:15:10Z</time>
      </trkpt>
      <trkpt lat="46.93128" lon="3.08656">
        <ele>212.8</ele>
        <time>2024-05-08T05:15:11Z</time>
      </trkpt>
      <trkpt lat="46.93168" lon="3.08669">
        <ele>211.6</ele>
        <time>2024-05-08T05:15:16Z</time>
      </trkpt>
      <trkpt lat="46.93199" lon="3.0868">
        <ele>211</ele>
        <time>2024-05-08T05:15:20Z</time>
      </trkpt>
      <trkpt lat="46.93207" lon="3.08683">
        <ele>210.6</ele>
        <time>2024-05-08T05:15:21Z</time>
      </trkpt>
      <trkpt lat="46.93263" lon="3.08695">
        <ele>209.4</ele>
        <time>2024-05-08T05:15:28Z</time>
      </trkpt>
      <trkpt lat="46.93304" lon="3.08698">
        <ele>208.2</ele>
        <time>2024-05-08T05:15:33Z</time>
      </trkpt>
      <trkpt lat="46.93335" lon="3.08701">
        <ele>207</ele>
        <time>2024-05-08T05:15:37Z</time>
      </trkpt>
      <trkpt lat="46.93345" lon="3.08702">
        <ele>206.8</ele>
        <time>2024-05-08T05:15:38Z</time>
      </trkpt>
      <trkpt lat="46.93367" lon="3.08704">
        <ele>206</ele>
        <time>2024-05-08T05:15:41Z</time>
      </trkpt>
      <trkpt lat="46.93407" lon="3.08712">
        <ele>205</ele>
        <time>2024-05-08T05:15:46Z</time>
      </trkpt>
      <trkpt lat="46.93413" lon="3.08714">
        <ele>205</ele>
        <time>2024-05-08T05:15:47Z</time>
      </trkpt>
      <trkpt lat="46.93442" lon="3.08734">
        <ele>204.2</ele>
        <time>2024-05-08T05:15:51Z</time>
      </trkpt>
      <trkpt lat="46.93459" lon="3.08754">
        <ele>203.8</ele>
        <time>2024-05-08T05:15:54Z</time>
      </trkpt>
      <trkpt lat="46.93465" lon="3.08763">
        <ele>203.6</ele>
        <time>2024-05-08T05:15:55Z</time>
      </trkpt>
      <trkpt lat="46.9347" lon="3.08771">
        <ele>203.4</ele>
        <time>2024-05-08T05:15:56Z</time>
      </trkpt>
      <trkpt lat="46.93479" lon="3.08785">
        <ele>202.6</ele>
        <time>2024-05-08T05:15:58Z</time>
      </trkpt>
      <trkpt lat="46.93491" lon="3.08793">
        <ele>201.6</ele>
        <time>2024-05-08T05:16:00Z</time>
      </trkpt>
      <trkpt lat="46.935" lon="3.08794">
        <ele>201.2</ele>
        <time>2024-05-08T05:16:01Z</time>
      </trkpt>
      <trkpt lat="46.93521" lon="3.08792">
        <ele>200.6</ele>
        <time>2024-05-08T05:16:04Z</time>
      </trkpt>
      <trkpt lat="46.93535" lon="3.08791">
        <ele>200</ele>
        <time>2024-05-08T05:16:06Z</time>
      </trkpt>
      <trkpt lat="46.93585" lon="3.08785">
        <ele>199</ele>
        <time>2024-05-08T05:16:13Z</time>
      </trkpt>
      <trkpt lat="46.93591" lon="3.08783">
        <ele>199</ele>
        <time>2024-05-08T05:16:14Z</time>
      </trkpt>
      <trkpt lat="46.93649" lon="3.08769">
        <ele>198.2</ele>
        <time>2024-05-08T05:16:22Z</time>
      </trkpt>
      <trkpt lat="46.93657" lon="3.08767">
        <ele>198.2</ele>
        <time>2024-05-08T05:16:23Z</time>
      </trkpt>
      <trkpt lat="46.93671" lon="3.08764">
        <ele>197.8</ele>
        <time>2024-05-08T05:16:25Z</time>
      </trkpt>
      <trkpt lat="46.93714" lon="3.08744">
        <ele>196.8</ele>
        <time>2024-05-08T05:16:31Z</time>
      </trkpt>
      <trkpt lat="46.93741" lon="3.08727">
        <ele>195.8</ele>
        <time>2024-05-08T05:16:35Z</time>
      </trkpt>
      <trkpt lat="46.93768" lon="3.0871">
        <ele>195</ele>
        <time>2024-05-08T05:16:39Z</time>
      </trkpt>
      <trkpt lat="46.93783" lon="3.087">
        <ele>194.6</ele>
        <time>2024-05-08T05:16:41Z</time>
      </trkpt>
      <trkpt lat="46.93824" lon="3.08672">
        <ele>193.6</ele>
        <time>2024-05-08T05:16:47Z</time>
      </trkpt>
      <trkpt lat="46.93836" lon="3.08664">
        <ele>193.4</ele>
        <time>2024-05-08T05:16:49Z</time>
      </trkpt>
      <trkpt lat="46.93886" lon="3.0862">
        <ele>192.6</ele>
        <time>2024-05-08T05:16:57Z</time>
      </trkpt>
      <trkpt lat="46.93942" lon="3.08585">
        <ele>191.8</ele>
        <time>2024-05-08T05:17:05Z</time>
      </trkpt>
      <trkpt lat="46.93955" lon="3.08579">
        <ele>191.4</ele>
        <time>2024-05-08T05:17:07Z</time>
      </trkpt>
      <trkpt lat="46.93965" lon="3.08576">
        <ele>191.2</ele>
        <time>2024-05-08T05:17:08Z</time>
      </trkpt>
      <trkpt lat="46.9398" lon="3.08575">
        <ele>190.8</ele>
        <time>2024-05-08T05:17:10Z</time>
      </trkpt>
      <trkpt lat="46.93994" lon="3.08578">
        <ele>190.4</ele>
        <time>2024-05-08T05:17:12Z</time>
      </trkpt>
      <trkpt lat="46.94026" lon="3.08587">
        <ele>189.4</ele>
        <time>2024-05-08T05:17:16Z</time>
      </trkpt>
      <trkpt lat="46.94034" lon="3.08588">
        <ele>189.2</ele>
        <time>2024-05-08T05:17:17Z</time>
      </trkpt>
      <trkpt lat="46.94075" lon="3.08587">
        <ele>188</ele>
        <time>2024-05-08T05:17:22Z</time>
      </trkpt>
      <trkpt lat="46.94112" lon="3.08581">
        <ele>186.8</ele>
        <time>2024-05-08T05:17:27Z</time>
      </trkpt>
      <trkpt lat="46.94126" lon="3.0858">
        <ele>186.6</ele>
        <time>2024-05-08T05:17:29Z</time>
      </trkpt>
      <trkpt lat="46.94163" lon="3.08586">
        <ele>185.8</ele>
        <time>2024-05-08T05:17:34Z</time>
      </trkpt>
      <trkpt lat="46.94187" lon="3.08587">
        <ele>185.4</ele>
        <time>2024-05-08T05:17:37Z</time>
      </trkpt>
      <trkpt lat="46.94201" lon="3.08583">
        <ele>185</ele>
        <time>2024-05-08T05:17:39Z</time>
      </trkpt>
      <trkpt lat="46.94208" lon="3.08579">
        <ele>184.8</ele>
        <time>2024-05-08T05:17:40Z</time>
      </trkpt>
      <trkpt lat="46.94216" lon="3.08575">
        <ele>184.4</ele>
        <time>2024-05-08T05:17:41Z</time>
      </trkpt>
      <trkpt lat="46.94229" lon="3.08565">
        <ele>183.8</ele>
        <time>2024-05-08T05:17:43Z</time>
      </trkpt>
      <trkpt lat="46.94235" lon="3.08558">
        <ele>183.6</ele>
        <time>2024-05-08T05:17:44Z</time>
      </trkpt>
      <trkpt lat="46.94246" lon="3.08539">
        <ele>183.4</ele>
        <time>2024-05-08T05:17:46Z</time>
      </trkpt>
      <trkpt lat="46.94248" lon="3.0853">
        <ele>182.8</ele>
        <time>2024-05-08T05:17:47Z</time>
      </trkpt>
      <trkpt lat="46.94252" lon="3.08519">
        <ele>182.4</ele>
        <time>2024-05-08T05:17:48Z</time>
      </trkpt>
      <trkpt lat="46.94261" lon="3.08483">
        <ele>181.4</ele>
        <time>2024-05-08T05:17:51Z</time>
      </trkpt>
      <trkpt lat="46.94265" lon="3.08475">
        <ele>181</ele>
        <time>2024-05-08T05:17:52Z</time>
      </trkpt>
      <trkpt lat="46.9427" lon="3.08465">
        <ele>180.8</ele>
        <time>2024-05-08T05:17:53Z</time>
      </trkpt>
      <trkpt lat="46.94283" lon="3.08452">
        <ele>180.2</ele>
        <time>2024-05-08T05:17:55Z</time>
      </trkpt>
      <trkpt lat="46.94292" lon="3.08447">
        <ele>179.6</ele>
        <time>2024-05-08T05:17:56Z</time>
      </trkpt>
      <trkpt lat="46.94298" lon="3.08446">
        <ele>179.2</ele>
        <time>2024-05-08T05:17:57Z</time>
      </trkpt>
      <trkpt lat="46.9432" lon="3.08445">
        <ele>178.6</ele>
        <time>2024-05-08T05:18:00Z</time>
      </trkpt>
      <trkpt lat="46.94325" lon="3.08446">
        <ele>178.4</ele>
        <time>2024-05-08T05:18:01Z</time>
      </trkpt>
      <trkpt lat="46.94343" lon="3.08446">
        <ele>178.2</ele>
        <time>2024-05-08T05:18:04Z</time>
      </trkpt>
      <trkpt lat="46.94349" lon="3.08443">
        <ele>178.2</ele>
        <time>2024-05-08T05:18:05Z</time>
      </trkpt>
      <trkpt lat="46.94351" lon="3.08438">
        <ele>178</ele>
        <time>2024-05-08T05:18:06Z</time>
      </trkpt>
      <trkpt lat="46.94351" lon="3.08422">
        <ele>177.8</ele>
        <time>2024-05-08T05:18:08Z</time>
      </trkpt>
      <trkpt lat="46.94349" lon="3.08406">
        <ele>177.8</ele>
        <time>2024-05-08T05:18:10Z</time>
      </trkpt>
      <trkpt lat="46.94344" lon="3.08369">
        <ele>177.6</ele>
        <time>2024-05-08T05:18:14Z</time>
      </trkpt>
      <trkpt lat="46.94341" lon="3.0835">
        <ele>177.4</ele>
        <time>2024-05-08T05:18:16Z</time>
      </trkpt>
      <trkpt lat="46.94331" lon="3.08316">
        <ele>177.2</ele>
        <time>2024-05-08T05:18:19Z</time>
      </trkpt>
      <trkpt lat="46.94312" lon="3.08279">
        <ele>176.4</ele>
        <time>2024-05-08T05:18:23Z</time>
      </trkpt>
      <trkpt lat="46.94309" lon="3.08272">
        <ele>176.4</ele>
        <time>2024-05-08T05:18:24Z</time>
      </trkpt>
      <trkpt lat="46.94274" lon="3.08202">
        <ele>176</ele>
        <time>2024-05-08T05:18:32Z</time>
      </trkpt>
      <trkpt lat="46.94251" lon="3.08153">
        <ele>176</ele>
        <time>2024-05-08T05:18:38Z</time>
      </trkpt>
      <trkpt lat="46.94222" lon="3.08092">
        <ele>176</ele>
        <time>2024-05-08T05:18:45Z</time>
      </trkpt>
      <trkpt lat="46.94215" lon="3.08076">
        <ele>176</ele>
        <time>2024-05-08T05:18:47Z</time>
      </trkpt>
      <trkpt lat="46.94203" lon="3.0804">
        <ele>176</ele>
        <time>2024-05-08T05:18:51Z</time>
      </trkpt>
      <trkpt lat="46.94178" lon="3.07987">
        <ele>176</ele>
        <time>2024-05-08T05:18:58Z</time>
      </trkpt>
      <trkpt lat="46.9417" lon="3.0797">
        <ele>176</ele>
        <time>2024-05-08T05:19:00Z</time>
      </trkpt>
      <trkpt lat="46.94166" lon="3.07954">
        <ele>176</ele>
        <time>2024-05-08T05:19:02Z</time>
      </trkpt>
      <trkpt lat="46.94166" lon="3.07933">
        <ele>176.2</ele>
        <time>2024-05-08T05:19:04Z</time>
      </trkpt>
      <trkpt lat="46.94168" lon="3.07925">
        <ele>176.2</ele>
        <time>2024-05-08T05:19:05Z</time>
      </trkpt>
      <trkpt lat="46.9417" lon="3.07918">
        <ele>176.4</ele>
        <time>2024-05-08T05:19:06Z</time>
      </trkpt>
      <trkpt lat="46.94179" lon="3.07903">
        <ele>176.4</ele>
        <time>2024-05-08T05:19:08Z</time>
      </trkpt>
      <trkpt lat="46.94191" lon="3.07888">
        <ele>176.6</ele>
        <time>2024-05-08T05:19:11Z</time>
      </trkpt>
      <trkpt lat="46.94196" lon="3.07885">
        <ele>176.6</ele>
        <time>2024-05-08T05:19:12Z</time>
      </trkpt>
      <trkpt lat="46.94201" lon="3.07883">
        <ele>176.8</ele>
        <time>2024-05-08T05:19:13Z</time>
      </trkpt>
      <trkpt lat="46.94214" lon="3.07883">
        <ele>177</ele>
        <time>2024-05-08T05:19:16Z</time>
      </trkpt>
      <trkpt lat="46.94219" lon="3.07885">
        <ele>177.2</ele>
        <time>2024-05-08T05:19:17Z</time>
      </trkpt>
      <trkpt lat="46.94222" lon="3.07888">
        <ele>177.6</ele>
        <time>2024-05-08T05:19:18Z</time>
      </trkpt>
      <trkpt lat="46.94225" lon="3.07891">
        <ele>178</ele>
        <time>2024-05-08T05:19:19Z</time>
      </trkpt>
      <trkpt lat="46.94233" lon="3.079">
        <ele>179</ele>
        <time>2024-05-08T05:19:22Z</time>
      </trkpt>
      <trkpt lat="46.94237" lon="3.07903">
        <ele>179.2</ele>
        <time>2024-05-08T05:19:23Z</time>
      </trkpt>
      <trkpt lat="46.9424" lon="3.07902">
        <ele>179.2</ele>
        <time>2024-05-08T05:19:24Z</time>
      </trkpt>
      <trkpt lat="46.94242" lon="3.07899">
        <ele>179.2</ele>
        <time>2024-05-08T05:19:25Z</time>
      </trkpt>
      <trkpt lat="46.94246" lon="3.07888">
        <ele>179.2</ele>
        <time>2024-05-08T05:19:27Z</time>
      </trkpt>
      <trkpt lat="46.94255" lon="3.07864">
        <ele>179</ele>
        <time>2024-05-08T05:19:30Z</time>
      </trkpt>
      <trkpt lat="46.94267" lon="3.07835">
        <ele>177.8</ele>
        <time>2024-05-08T05:19:33Z</time>
      </trkpt>
      <trkpt lat="46.94279" lon="3.0781">
        <ele>177</ele>
        <time>2024-05-08T05:19:36Z</time>
      </trkpt>
      <trkpt lat="46.94282" lon="3.07802">
        <ele>176.6</ele>
        <time>2024-05-08T05:19:37Z</time>
      </trkpt>
      <trkpt lat="46.94297" lon="3.07772">
        <ele>176</ele>
        <time>2024-05-08T05:19:41Z</time>
      </trkpt>
      <trkpt lat="46.94306" lon="3.07752">
        <ele>175.8</ele>
        <time>2024-05-08T05:19:44Z</time>
      </trkpt>
      <trkpt lat="46.9431" lon="3.07744">
        <ele>175.8</ele>
        <time>2024-05-08T05:19:45Z</time>
      </trkpt>
      <trkpt lat="46.94316" lon="3.07731">
        <ele>175.8</ele>
        <time>2024-05-08T05:19:47Z</time>
      </trkpt>
      <trkpt lat="46.94321" lon="3.0772">
        <ele>175.8</ele>
        <time>2024-05-08T05:19:49Z</time>
      </trkpt>
      <trkpt lat="46.94337" lon="3.07684">
        <ele>175.8</ele>
        <time>2024-05-08T05:19:54Z</time>
      </trkpt>
      <trkpt lat="46.94341" lon="3.07677">
        <ele>176</ele>
        <time>2024-05-08T05:19:55Z</time>
      </trkpt>
      <trkpt lat="46.94353" lon="3.0765">
        <ele>176</ele>
        <time>2024-05-08T05:19:59Z</time>
      </trkpt>
      <trkpt lat="46.94358" lon="3.07638">
        <ele>176</ele>
        <time>2024-05-08T05:20:01Z</time>
      </trkpt>
      <trkpt lat="46.94361" lon="3.07631">
        <ele>176</ele>
        <time>2024-05-08T05:20:02Z</time>
      </trkpt>
      <trkpt lat="46.94368" lon="3.07616">
        <ele>176</ele>
        <time>2024-05-08T05:20:04Z</time>
      </trkpt>
      <trkpt lat="46.944" lon="3.0756">
        <ele>176</ele>
        <time>2024-05-08T05:20:11Z</time>
      </trkpt>
      <trkpt lat="46.94406" lon="3.07542">
        <ele>176</ele>
        <time>2024-05-08T05:20:13Z</time>
      </trkpt>
      <trkpt lat="46.94423" lon="3.0751">
        <ele>176.2</ele>
        <time>2024-05-08T05:20:17Z</time>
      </trkpt>
      <trkpt lat="46.94437" lon="3.07487">
        <ele>176.2</ele>
        <time>2024-05-08T05:20:21Z</time>
      </trkpt>
      <trkpt lat="46.94442" lon="3.0748">
        <ele>176</ele>
        <time>2024-05-08T05:20:23Z</time>
      </trkpt>
      <trkpt lat="46.94445" lon="3.07478">
        <ele>175.8</ele>
        <time>2024-05-08T05:20:27Z</time>
      </trkpt>
      <trkpt lat="46.94445" lon="3.07476">
        <ele>175.6</ele>
        <time>2024-05-08T05:20:29Z</time>
      </trkpt>
      <trkpt lat="46.94445" lon="3.07476">
        <ele>175.6</ele>
        <time>2024-05-08T05:20:32Z</time>
      </trkpt>
      <trkpt lat="46.94446" lon="3.07467">
        <ele>175.8</ele>
        <time>2024-05-08T05:24:02Z</time>
      </trkpt>
      <trkpt lat="46.94448" lon="3.07459">
        <ele>175.8</ele>
        <time>2024-05-08T05:24:04Z</time>
      </trkpt>
      <trkpt lat="46.94457" lon="3.07428">
        <ele>175.8</ele>
        <time>2024-05-08T05:24:10Z</time>
      </trkpt>
      <trkpt lat="46.94472" lon="3.07394">
        <ele>175.6</ele>
        <time>2024-05-08T05:24:16Z</time>
      </trkpt>
      <trkpt lat="46.94476" lon="3.07384">
        <ele>175.6</ele>
        <time>2024-05-08T05:24:18Z</time>
      </trkpt>
      <trkpt lat="46.94491" lon="3.07354">
        <ele>175.8</ele>
        <time>2024-05-08T05:24:23Z</time>
      </trkpt>
      <trkpt lat="46.94522" lon="3.07292">
        <ele>176</ele>
        <time>2024-05-08T05:24:33Z</time>
      </trkpt>
      <trkpt lat="46.94553" lon="3.07232">
        <ele>175.8</ele>
        <time>2024-05-08T05:24:43Z</time>
      </trkpt>
      <trkpt lat="46.94584" lon="3.07168">
        <ele>175.8</ele>
        <time>2024-05-08T05:24:53Z</time>
      </trkpt>
      <trkpt lat="46.94591" lon="3.07155">
        <ele>176</ele>
        <time>2024-05-08T05:24:55Z</time>
      </trkpt>
      <trkpt lat="46.94623" lon="3.07091">
        <ele>176</ele>
        <time>2024-05-08T05:25:05Z</time>
      </trkpt>
      <trkpt lat="46.94629" lon="3.0708">
        <ele>175.8</ele>
        <time>2024-05-08T05:25:07Z</time>
      </trkpt>
      <trkpt lat="46.94637" lon="3.07063">
        <ele>175.8</ele>
        <time>2024-05-08T05:25:11Z</time>
      </trkpt>
      <trkpt lat="46.94639" lon="3.07061">
        <ele>175.8</ele>
        <time>2024-05-08T05:25:12Z</time>
      </trkpt>
      <trkpt lat="46.9465" lon="3.07042">
        <ele>175.6</ele>
        <time>2024-05-08T05:25:17Z</time>
      </trkpt>
      <trkpt lat="46.94663" lon="3.07017">
        <ele>175.4</ele>
        <time>2024-05-08T05:25:22Z</time>
      </trkpt>
      <trkpt lat="46.94672" lon="3.06999">
        <ele>175.4</ele>
        <time>2024-05-08T05:25:26Z</time>
      </trkpt>
      <trkpt lat="46.94677" lon="3.06987">
        <ele>175.4</ele>
        <time>2024-05-08T05:25:29Z</time>
      </trkpt>
      <trkpt lat="46.94685" lon="3.06969">
        <ele>175</ele>
        <time>2024-05-08T05:25:34Z</time>
      </trkpt>
      <trkpt lat="46.94689" lon="3.0696">
        <ele>174.4</ele>
        <time>2024-05-08T05:25:37Z</time>
      </trkpt>
      <trkpt lat="46.94691" lon="3.06958">
        <ele>173.8</ele>
        <time>2024-05-08T05:25:38Z</time>
      </trkpt>
      <trkpt lat="46.94692" lon="3.06957">
        <ele>173.4</ele>
        <time>2024-05-08T05:25:39Z</time>
      </trkpt>
      <trkpt lat="46.94696" lon="3.06956">
        <ele>172.6</ele>
        <time>2024-05-08T05:25:41Z</time>
      </trkpt>
      <trkpt lat="46.94704" lon="3.06948">
        <ele>171.8</ele>
        <time>2024-05-08T05:25:45Z</time>
      </trkpt>
      <trkpt lat="46.94706" lon="3.06945">
        <ele>171.4</ele>
        <time>2024-05-08T05:25:46Z</time>
      </trkpt>
      <trkpt lat="46.94716" lon="3.06924">
        <ele>171.2</ele>
        <time>2024-05-08T05:25:50Z</time>
      </trkpt>
      <trkpt lat="46.94719" lon="3.06918">
        <ele>171</ele>
        <time>2024-05-08T05:25:51Z</time>
      </trkpt>
      <trkpt lat="46.94726" lon="3.06904">
        <ele>170.4</ele>
        <time>2024-05-08T05:25:53Z</time>
      </trkpt>
      <trkpt lat="46.94738" lon="3.0688">
        <ele>169.8</ele>
        <time>2024-05-08T05:25:56Z</time>
      </trkpt>
      <trkpt lat="46.94747" lon="3.06863">
        <ele>169.4</ele>
        <time>2024-05-08T05:25:58Z</time>
      </trkpt>
      <trkpt lat="46.94768" lon="3.0682">
        <ele>168</ele>
        <time>2024-05-08T05:26:03Z</time>
      </trkpt>
      <trkpt lat="46.94772" lon="3.06812">
        <ele>168</ele>
        <time>2024-05-08T05:26:04Z</time>
      </trkpt>
      <trkpt lat="46.94808" lon="3.06739">
        <ele>168</ele>
        <time>2024-05-08T05:26:13Z</time>
      </trkpt>
      <trkpt lat="46.94834" lon="3.06684">
        <ele>167.8</ele>
        <time>2024-05-08T05:26:20Z</time>
      </trkpt>
      <trkpt lat="46.94867" lon="3.06611">
        <ele>167.8</ele>
        <time>2024-05-08T05:26:30Z</time>
      </trkpt>
      <trkpt lat="46.94871" lon="3.06602">
        <ele>167.8</ele>
        <time>2024-05-08T05:26:31Z</time>
      </trkpt>
      <trkpt lat="46.94898" lon="3.06547">
        <ele>168</ele>
        <time>2024-05-08T05:26:39Z</time>
      </trkpt>
      <trkpt lat="46.94925" lon="3.06493">
        <ele>167.8</ele>
        <time>2024-05-08T05:26:46Z</time>
      </trkpt>
      <trkpt lat="46.94958" lon="3.06425">
        <ele>167.6</ele>
        <time>2024-05-08T05:26:54Z</time>
      </trkpt>
      <trkpt lat="46.94961" lon="3.06418">
        <ele>167.6</ele>
        <time>2024-05-08T05:26:55Z</time>
      </trkpt>
      <trkpt lat="46.94993" lon="3.06348">
        <ele>167.6</ele>
        <time>2024-05-08T05:27:04Z</time>
      </trkpt>
      <trkpt lat="46.94997" lon="3.06339">
        <ele>167.6</ele>
        <time>2024-05-08T05:27:05Z</time>
      </trkpt>
      <trkpt lat="46.95029" lon="3.06273">
        <ele>167.6</ele>
        <time>2024-05-08T05:27:14Z</time>
      </trkpt>
      <trkpt lat="46.95033" lon="3.06266">
        <ele>167.6</ele>
        <time>2024-05-08T05:27:15Z</time>
      </trkpt>
      <trkpt lat="46.95039" lon="3.06251">
        <ele>167.6</ele>
        <time>2024-05-08T05:27:17Z</time>
      </trkpt>
      <trkpt lat="46.95046" lon="3.06236">
        <ele>167.6</ele>
        <time>2024-05-08T05:27:19Z</time>
      </trkpt>
      <trkpt lat="46.95049" lon="3.06228">
        <ele>167.6</ele>
        <time>2024-05-08T05:27:20Z</time>
      </trkpt>
      <trkpt lat="46.95052" lon="3.0622">
        <ele>167.8</ele>
        <time>2024-05-08T05:27:21Z</time>
      </trkpt>
      <trkpt lat="46.9506" lon="3.06198">
        <ele>167.6</ele>
        <time>2024-05-08T05:27:24Z</time>
      </trkpt>
      <trkpt lat="46.95064" lon="3.06189">
        <ele>167.6</ele>
        <time>2024-05-08T05:27:25Z</time>
      </trkpt>
      <trkpt lat="46.95099" lon="3.06121">
        <ele>167.6</ele>
        <time>2024-05-08T05:27:34Z</time>
      </trkpt>
      <trkpt lat="46.95116" lon="3.06088">
        <ele>167.4</ele>
        <time>2024-05-08T05:27:39Z</time>
      </trkpt>
      <trkpt lat="46.95148" lon="3.06029">
        <ele>167.4</ele>
        <time>2024-05-08T05:27:46Z</time>
      </trkpt>
      <trkpt lat="46.95165" lon="3.06004">
        <ele>168.4</ele>
        <time>2024-05-08T05:27:50Z</time>
      </trkpt>
      <trkpt lat="46.9517" lon="3.05996">
        <ele>167.8</ele>
        <time>2024-05-08T05:27:52Z</time>
      </trkpt>
      <trkpt lat="46.95179" lon="3.05983">
        <ele>168.2</ele>
        <time>2024-05-08T05:27:56Z</time>
      </trkpt>
      <trkpt lat="46.95179" lon="3.05979">
        <ele>168.6</ele>
        <time>2024-05-08T05:27:57Z</time>
      </trkpt>
      <trkpt lat="46.95177" lon="3.05976">
        <ele>169</ele>
        <time>2024-05-08T05:27:58Z</time>
      </trkpt>
      <trkpt lat="46.95175" lon="3.05973">
        <ele>169.4</ele>
        <time>2024-05-08T05:27:59Z</time>
      </trkpt>
      <trkpt lat="46.95172" lon="3.05968">
        <ele>170</ele>
        <time>2024-05-08T05:28:02Z</time>
      </trkpt>
      <trkpt lat="46.95157" lon="3.05951">
        <ele>170.4</ele>
        <time>2024-05-08T05:28:06Z</time>
      </trkpt>
      <trkpt lat="46.95146" lon="3.05932">
        <ele>170.4</ele>
        <time>2024-05-08T05:28:11Z</time>
      </trkpt>
      <trkpt lat="46.95145" lon="3.0592">
        <ele>170.4</ele>
        <time>2024-05-08T05:28:16Z</time>
      </trkpt>
      <trkpt lat="46.95144" lon="3.059">
        <ele>170.4</ele>
        <time>2024-05-08T05:28:22Z</time>
      </trkpt>
      <trkpt lat="46.95144" lon="3.059">
        <ele>170.6</ele>
        <time>2024-05-08T05:28:23Z</time>
      </trkpt>
      <trkpt lat="46.95142" lon="3.05892">
        <ele>170.4</ele>
        <time>2024-05-08T05:28:39Z</time>
      </trkpt>
      <trkpt lat="46.95138" lon="3.05893">
        <ele>170.2</ele>
        <time>2024-05-08T05:28:42Z</time>
      </trkpt>
      <trkpt lat="46.9513" lon="3.05893">
        <ele>169.2</ele>
        <time>2024-05-08T05:28:49Z</time>
      </trkpt>
      <trkpt lat="46.95126" lon="3.05894">
        <ele>168.6</ele>
        <time>2024-05-08T05:28:52Z</time>
      </trkpt>
      <trkpt lat="46.95123" lon="3.05894">
        <ele>168.2</ele>
        <time>2024-05-08T05:28:54Z</time>
      </trkpt>
      <trkpt lat="46.9512" lon="3.05896">
        <ele>167.4</ele>
        <time>2024-05-08T05:28:59Z</time>
      </trkpt>
      <trkpt lat="46.9512" lon="3.05896">
        <ele>167.2</ele>
        <time>2024-05-08T05:29:00Z</time>
      </trkpt>
      <trkpt lat="46.95134" lon="3.05893">
        <ele>167.2</ele>
        <time>2024-05-08T05:29:10Z</time>
      </trkpt>
      <trkpt lat="46.95136" lon="3.05893">
        <ele>167.2</ele>
        <time>2024-05-08T05:29:12Z</time>
      </trkpt>
      <trkpt lat="46.95148" lon="3.05891">
        <ele>168.4</ele>
        <time>2024-05-08T05:29:20Z</time>
      </trkpt>
      <trkpt lat="46.95153" lon="3.05894">
        <ele>168.8</ele>
        <time>2024-05-08T05:29:24Z</time>
      </trkpt>
      <trkpt lat="46.95154" lon="3.05897">
        <ele>169.2</ele>
        <time>2024-05-08T05:29:26Z</time>
      </trkpt>
      <trkpt lat="46.95155" lon="3.05911">
        <ele>170.2</ele>
        <time>2024-05-08T05:29:33Z</time>
      </trkpt>
      <trkpt lat="46.95155" lon="3.05913">
        <ele>170.4</ele>
        <time>2024-05-08T05:29:34Z</time>
      </trkpt>
      <trkpt lat="46.95155" lon="3.05934">
        <ele>170.8</ele>
        <time>2024-05-08T05:29:46Z</time>
      </trkpt>
      <trkpt lat="46.95155" lon="3.05936">
        <ele>170.8</ele>
        <time>2024-05-08T05:29:47Z</time>
      </trkpt>
      <trkpt lat="46.95156" lon="3.05936">
        <ele>170.8</ele>
        <time>2024-05-08T05:29:49Z</time>
      </trkpt>
      <trkpt lat="46.95159" lon="3.05942">
        <ele>170.6</ele>
        <time>2024-05-08T05:29:55Z</time>
      </trkpt>
      <trkpt lat="46.9517" lon="3.05956">
        <ele>170.4</ele>
        <time>2024-05-08T05:30:00Z</time>
      </trkpt>
      <trkpt lat="46.95184" lon="3.05972">
        <ele>170.2</ele>
        <time>2024-05-08T05:30:05Z</time>
      </trkpt>
      <trkpt lat="46.95191" lon="3.05978">
        <ele>170.4</ele>
        <time>2024-05-08T05:30:08Z</time>
      </trkpt>
      <trkpt lat="46.95196" lon="3.05976">
        <ele>170.4</ele>
        <time>2024-05-08T05:30:10Z</time>
      </trkpt>
      <trkpt lat="46.95209" lon="3.05959">
        <ele>170.4</ele>
        <time>2024-05-08T05:30:15Z</time>
      </trkpt>
      <trkpt lat="46.95223" lon="3.0595">
        <ele>169</ele>
        <time>2024-05-08T05:30:19Z</time>
      </trkpt>
      <trkpt lat="46.95234" lon="3.05946">
        <ele>168.2</ele>
        <time>2024-05-08T05:30:22Z</time>
      </trkpt>
      <trkpt lat="46.95241" lon="3.05943">
        <ele>167.8</ele>
        <time>2024-05-08T05:30:24Z</time>
      </trkpt>
      <trkpt lat="46.95245" lon="3.05942">
        <ele>167.8</ele>
        <time>2024-05-08T05:30:26Z</time>
      </trkpt>
      <trkpt lat="46.95276" lon="3.05938">
        <ele>167.4</ele>
        <time>2024-05-08T05:30:33Z</time>
      </trkpt>
      <trkpt lat="46.95303" lon="3.05933">
        <ele>167.4</ele>
        <time>2024-05-08T05:30:41Z</time>
      </trkpt>
      <trkpt lat="46.95316" lon="3.0593">
        <ele>167.4</ele>
        <time>2024-05-08T05:30:45Z</time>
      </trkpt>
      <trkpt lat="46.95328" lon="3.05926">
        <ele>167.6</ele>
        <time>2024-05-08T05:30:48Z</time>
      </trkpt>
      <trkpt lat="46.95337" lon="3.05926">
        <ele>167.4</ele>
        <time>2024-05-08T05:30:50Z</time>
      </trkpt>
      <trkpt lat="46.95369" lon="3.05921">
        <ele>167.6</ele>
        <time>2024-05-08T05:30:58Z</time>
      </trkpt>
      <trkpt lat="46.95378" lon="3.0592">
        <ele>167.6</ele>
        <time>2024-05-08T05:31:00Z</time>
      </trkpt>
      <trkpt lat="46.95404" lon="3.05915">
        <ele>167.6</ele>
        <time>2024-05-08T05:31:05Z</time>
      </trkpt>
      <trkpt lat="46.95456" lon="3.0591">
        <ele>167.6</ele>
        <time>2024-05-08T05:31:15Z</time>
      </trkpt>
      <trkpt lat="46.9546" lon="3.05911">
        <ele>167.6</ele>
        <time>2024-05-08T05:31:16Z</time>
      </trkpt>
      <trkpt lat="46.95468" lon="3.05911">
        <ele>167.6</ele>
        <time>2024-05-08T05:31:18Z</time>
      </trkpt>
      <trkpt lat="46.95485" lon="3.05909">
        <ele>167.4</ele>
        <time>2024-05-08T05:31:22Z</time>
      </trkpt>
      <trkpt lat="46.95494" lon="3.05908">
        <ele>167.4</ele>
        <time>2024-05-08T05:31:24Z</time>
      </trkpt>
      <trkpt lat="46.95505" lon="3.05906">
        <ele>167.4</ele>
        <time>2024-05-08T05:31:27Z</time>
      </trkpt>
      <trkpt lat="46.95517" lon="3.059">
        <ele>168</ele>
        <time>2024-05-08T05:31:32Z</time>
      </trkpt>
      <trkpt lat="46.95516" lon="3.05889">
        <ele>168.8</ele>
        <time>2024-05-08T05:31:35Z</time>
      </trkpt>
      <trkpt lat="46.95516" lon="3.0588">
        <ele>169</ele>
        <time>2024-05-08T05:31:37Z</time>
      </trkpt>
      <trkpt lat="46.95513" lon="3.05854">
        <ele>169.4</ele>
        <time>2024-05-08T05:31:41Z</time>
      </trkpt>
      <trkpt lat="46.95513" lon="3.05806">
        <ele>169.4</ele>
        <time>2024-05-08T05:31:46Z</time>
      </trkpt>
      <trkpt lat="46.9551" lon="3.05747">
        <ele>168.4</ele>
        <time>2024-05-08T05:31:53Z</time>
      </trkpt>
      <trkpt lat="46.95508" lon="3.05692">
        <ele>168.4</ele>
        <time>2024-05-08T05:32:00Z</time>
      </trkpt>
      <trkpt lat="46.95505" lon="3.05646">
        <ele>170</ele>
        <time>2024-05-08T05:32:07Z</time>
      </trkpt>
      <trkpt lat="46.95504" lon="3.05628">
        <ele>170.6</ele>
        <time>2024-05-08T05:32:10Z</time>
      </trkpt>
      <trkpt lat="46.95503" lon="3.05616">
        <ele>171.2</ele>
        <time>2024-05-08T05:32:12Z</time>
      </trkpt>
      <trkpt lat="46.95503" lon="3.05611">
        <ele>171.4</ele>
        <time>2024-05-08T05:32:13Z</time>
      </trkpt>
      <trkpt lat="46.95502" lon="3.05587">
        <ele>172.2</ele>
        <time>2024-05-08T05:32:17Z</time>
      </trkpt>
      <trkpt lat="46.95501" lon="3.05567">
        <ele>173.2</ele>
        <time>2024-05-08T05:32:21Z</time>
      </trkpt>
      <trkpt lat="46.95497" lon="3.05555">
        <ele>174.4</ele>
        <time>2024-05-08T05:32:24Z</time>
      </trkpt>
      <trkpt lat="46.95497" lon="3.0555">
        <ele>174.6</ele>
        <time>2024-05-08T05:32:25Z</time>
      </trkpt>
      <trkpt lat="46.95504" lon="3.05535">
        <ele>175.8</ele>
        <time>2024-05-08T05:32:28Z</time>
      </trkpt>
      <trkpt lat="46.95507" lon="3.05531">
        <ele>176</ele>
        <time>2024-05-08T05:32:29Z</time>
      </trkpt>
      <trkpt lat="46.95512" lon="3.05528">
        <ele>176.2</ele>
        <time>2024-05-08T05:32:30Z</time>
      </trkpt>
      <trkpt lat="46.9553" lon="3.05521">
        <ele>176.6</ele>
        <time>2024-05-08T05:32:34Z</time>
      </trkpt>
      <trkpt lat="46.95534" lon="3.0552">
        <ele>176.8</ele>
        <time>2024-05-08T05:32:35Z</time>
      </trkpt>
      <trkpt lat="46.95568" lon="3.05508">
        <ele>177.8</ele>
        <time>2024-05-08T05:32:43Z</time>
      </trkpt>
      <trkpt lat="46.95572" lon="3.05506">
        <ele>178</ele>
        <time>2024-05-08T05:32:44Z</time>
      </trkpt>
      <trkpt lat="46.95597" lon="3.05494">
        <ele>179</ele>
        <time>2024-05-08T05:32:50Z</time>
      </trkpt>
      <trkpt lat="46.95601" lon="3.05492">
        <ele>179.2</ele>
        <time>2024-05-08T05:32:51Z</time>
      </trkpt>
      <trkpt lat="46.95609" lon="3.05486">
        <ele>179.2</ele>
        <time>2024-05-08T05:32:53Z</time>
      </trkpt>
      <trkpt lat="46.95624" lon="3.05474">
        <ele>179.8</ele>
        <time>2024-05-08T05:32:57Z</time>
      </trkpt>
      <trkpt lat="46.95636" lon="3.05465">
        <ele>180</ele>
        <time>2024-05-08T05:33:00Z</time>
      </trkpt>
      <trkpt lat="46.95651" lon="3.05451">
        <ele>180.2</ele>
        <time>2024-05-08T05:33:04Z</time>
      </trkpt>
      <trkpt lat="46.9567" lon="3.05434">
        <ele>181</ele>
        <time>2024-05-08T05:33:09Z</time>
      </trkpt>
      <trkpt lat="46.95689" lon="3.05418">
        <ele>181.6</ele>
        <time>2024-05-08T05:33:14Z</time>
      </trkpt>
      <trkpt lat="46.95701" lon="3.05408">
        <ele>182.2</ele>
        <time>2024-05-08T05:33:17Z</time>
      </trkpt>
      <trkpt lat="46.95722" lon="3.05392">
        <ele>183</ele>
        <time>2024-05-08T05:33:22Z</time>
      </trkpt>
      <trkpt lat="46.95727" lon="3.0539">
        <ele>183</ele>
        <time>2024-05-08T05:33:23Z</time>
      </trkpt>
      <trkpt lat="46.95738" lon="3.05387">
        <ele>183.2</ele>
        <time>2024-05-08T05:33:25Z</time>
      </trkpt>
      <trkpt lat="46.95749" lon="3.05387">
        <ele>183.2</ele>
        <time>2024-05-08T05:33:27Z</time>
      </trkpt>
      <trkpt lat="46.95788" lon="3.05389">
        <ele>182.8</ele>
        <time>2024-05-08T05:33:33Z</time>
      </trkpt>
      <trkpt lat="46.95816" lon="3.05386">
        <ele>182.4</ele>
        <time>2024-05-08T05:33:37Z</time>
      </trkpt>
      <trkpt lat="46.95823" lon="3.05384">
        <ele>182.2</ele>
        <time>2024-05-08T05:33:38Z</time>
      </trkpt>
      <trkpt lat="46.9583" lon="3.0538">
        <ele>182</ele>
        <time>2024-05-08T05:33:39Z</time>
      </trkpt>
      <trkpt lat="46.95854" lon="3.05363">
        <ele>181.6</ele>
        <time>2024-05-08T05:33:43Z</time>
      </trkpt>
      <trkpt lat="46.95893" lon="3.05336">
        <ele>181.4</ele>
        <time>2024-05-08T05:33:50Z</time>
      </trkpt>
      <trkpt lat="46.95898" lon="3.05334">
        <ele>181.4</ele>
        <time>2024-05-08T05:33:51Z</time>
      </trkpt>
      <trkpt lat="46.9592" lon="3.05328">
        <ele>182.2</ele>
        <time>2024-05-08T05:33:55Z</time>
      </trkpt>
      <trkpt lat="46.95925" lon="3.05328">
        <ele>182.2</ele>
        <time>2024-05-08T05:33:56Z</time>
      </trkpt>
      <trkpt lat="46.95935" lon="3.05327">
        <ele>182.6</ele>
        <time>2024-05-08T05:33:58Z</time>
      </trkpt>
      <trkpt lat="46.9594" lon="3.05325">
        <ele>182.8</ele>
        <time>2024-05-08T05:33:59Z</time>
      </trkpt>
      <trkpt lat="46.95944" lon="3.05321">
        <ele>183</ele>
        <time>2024-05-08T05:34:00Z</time>
      </trkpt>
      <trkpt lat="46.95976" lon="3.05307">
        <ele>184</ele>
        <time>2024-05-08T05:34:06Z</time>
      </trkpt>
      <trkpt lat="46.96017" lon="3.05287">
        <ele>184.2</ele>
        <time>2024-05-08T05:34:13Z</time>
      </trkpt>
      <trkpt lat="46.96055" lon="3.0527">
        <ele>183.8</ele>
        <time>2024-05-08T05:34:20Z</time>
      </trkpt>
      <trkpt lat="46.96102" lon="3.05247">
        <ele>182.8</ele>
        <time>2024-05-08T05:34:26Z</time>
      </trkpt>
      <trkpt lat="46.96114" lon="3.05241">
        <ele>182.4</ele>
        <time>2024-05-08T05:34:28Z</time>
      </trkpt>
      <trkpt lat="46.96163" lon="3.05219">
        <ele>182.2</ele>
        <time>2024-05-08T05:34:36Z</time>
      </trkpt>
      <trkpt lat="46.96197" lon="3.05206">
        <ele>182.4</ele>
        <time>2024-05-08T05:34:42Z</time>
      </trkpt>
      <trkpt lat="46.96221" lon="3.05198">
        <ele>183.2</ele>
        <time>2024-05-08T05:34:46Z</time>
      </trkpt>
      <trkpt lat="46.96237" lon="3.05193">
        <ele>183.4</ele>
        <time>2024-05-08T05:34:49Z</time>
      </trkpt>
      <trkpt lat="46.96249" lon="3.05188">
        <ele>183.6</ele>
        <time>2024-05-08T05:34:51Z</time>
      </trkpt>
      <trkpt lat="46.9626" lon="3.0518">
        <ele>183.6</ele>
        <time>2024-05-08T05:34:53Z</time>
      </trkpt>
      <trkpt lat="46.96265" lon="3.05174">
        <ele>183.6</ele>
        <time>2024-05-08T05:34:54Z</time>
      </trkpt>
      <trkpt lat="46.96281" lon="3.05161">
        <ele>183.2</ele>
        <time>2024-05-08T05:34:57Z</time>
      </trkpt>
      <trkpt lat="46.96289" lon="3.05158">
        <ele>183.2</ele>
        <time>2024-05-08T05:34:59Z</time>
      </trkpt>
      <trkpt lat="46.96339" lon="3.05147">
        <ele>183</ele>
        <time>2024-05-08T05:35:06Z</time>
      </trkpt>
      <trkpt lat="46.96365" lon="3.05135">
        <ele>182.8</ele>
        <time>2024-05-08T05:35:10Z</time>
      </trkpt>
      <trkpt lat="46.96378" lon="3.05127">
        <ele>182.6</ele>
        <time>2024-05-08T05:35:12Z</time>
      </trkpt>
      <trkpt lat="46.96428" lon="3.05099">
        <ele>182.6</ele>
        <time>2024-05-08T05:35:20Z</time>
      </trkpt>
      <trkpt lat="46.96435" lon="3.05096">
        <ele>182.6</ele>
        <time>2024-05-08T05:35:21Z</time>
      </trkpt>
      <trkpt lat="46.96464" lon="3.05086">
        <ele>182.8</ele>
        <time>2024-05-08T05:35:27Z</time>
      </trkpt>
      <trkpt lat="46.96491" lon="3.05076">
        <ele>182.8</ele>
        <time>2024-05-08T05:35:31Z</time>
      </trkpt>
      <trkpt lat="46.96508" lon="3.0507">
        <ele>183</ele>
        <time>2024-05-08T05:35:34Z</time>
      </trkpt>
      <trkpt lat="46.96551" lon="3.0506">
        <ele>183.2</ele>
        <time>2024-05-08T05:35:41Z</time>
      </trkpt>
      <trkpt lat="46.96601" lon="3.05045">
        <ele>183</ele>
        <time>2024-05-08T05:35:49Z</time>
      </trkpt>
      <trkpt lat="46.96645" lon="3.0502">
        <ele>182.6</ele>
        <time>2024-05-08T05:35:56Z</time>
      </trkpt>
      <trkpt lat="46.96673" lon="3.04982">
        <ele>182.4</ele>
        <time>2024-05-08T05:36:02Z</time>
      </trkpt>
      <trkpt lat="46.96702" lon="3.04938">
        <ele>183</ele>
        <time>2024-05-08T05:36:09Z</time>
      </trkpt>
      <trkpt lat="46.96735" lon="3.04891">
        <ele>183.4</ele>
        <time>2024-05-08T05:36:17Z</time>
      </trkpt>
      <trkpt lat="46.96744" lon="3.04883">
        <ele>183.6</ele>
        <time>2024-05-08T05:36:19Z</time>
      </trkpt>
      <trkpt lat="46.96754" lon="3.04877">
        <ele>184</ele>
        <time>2024-05-08T05:36:21Z</time>
      </trkpt>
      <trkpt lat="46.96776" lon="3.04871">
        <ele>184.6</ele>
        <time>2024-05-08T05:36:25Z</time>
      </trkpt>
      <trkpt lat="46.96782" lon="3.0487">
        <ele>184.8</ele>
        <time>2024-05-08T05:36:26Z</time>
      </trkpt>
      <trkpt lat="46.96815" lon="3.04862">
        <ele>184.8</ele>
        <time>2024-05-08T05:36:31Z</time>
      </trkpt>
      <trkpt lat="46.96846" lon="3.04853">
        <ele>184.2</ele>
        <time>2024-05-08T05:36:35Z</time>
      </trkpt>
      <trkpt lat="46.96874" lon="3.04845">
        <ele>183.6</ele>
        <time>2024-05-08T05:36:38Z</time>
      </trkpt>
      <trkpt lat="46.96894" lon="3.04839">
        <ele>182.4</ele>
        <time>2024-05-08T05:36:40Z</time>
      </trkpt>
      <trkpt lat="46.96907" lon="3.04835">
        <ele>181.4</ele>
        <time>2024-05-08T05:36:41Z</time>
      </trkpt>
      <trkpt lat="46.96915" lon="3.04832">
        <ele>181</ele>
        <time>2024-05-08T05:36:42Z</time>
      </trkpt>
      <trkpt lat="46.96939" lon="3.04824">
        <ele>179.4</ele>
        <time>2024-05-08T05:36:44Z</time>
      </trkpt>
      <trkpt lat="46.96961" lon="3.04816">
        <ele>178.2</ele>
        <time>2024-05-08T05:36:46Z</time>
      </trkpt>
      <trkpt lat="46.96984" lon="3.04808">
        <ele>176.6</ele>
        <time>2024-05-08T05:36:48Z</time>
      </trkpt>
      <trkpt lat="46.97002" lon="3.04802">
        <ele>175</ele>
        <time>2024-05-08T05:36:50Z</time>
      </trkpt>
      <trkpt lat="46.97029" lon="3.04793">
        <ele>173.8</ele>
        <time>2024-05-08T05:36:53Z</time>
      </trkpt>
      <trkpt lat="46.97091" lon="3.0478">
        <ele>173</ele>
        <time>2024-05-08T05:37:00Z</time>
      </trkpt>
      <trkpt lat="46.97116" lon="3.04778">
        <ele>172.8</ele>
        <time>2024-05-08T05:37:03Z</time>
      </trkpt>
      <trkpt lat="46.97145" lon="3.04773">
        <ele>172.6</ele>
        <time>2024-05-08T05:37:07Z</time>
      </trkpt>
      <trkpt lat="46.97162" lon="3.04769">
        <ele>172.6</ele>
        <time>2024-05-08T05:37:10Z</time>
      </trkpt>
      <trkpt lat="46.97166" lon="3.04766">
        <ele>172.6</ele>
        <time>2024-05-08T05:37:11Z</time>
      </trkpt>
      <trkpt lat="46.97177" lon="3.0476">
        <ele>174.2</ele>
        <time>2024-05-08T05:37:14Z</time>
      </trkpt>
      <trkpt lat="46.97184" lon="3.04756">
        <ele>175.2</ele>
        <time>2024-05-08T05:37:16Z</time>
      </trkpt>
      <trkpt lat="46.97197" lon="3.04748">
        <ele>176.4</ele>
        <time>2024-05-08T05:37:20Z</time>
      </trkpt>
      <trkpt lat="46.97213" lon="3.04737">
        <ele>177.6</ele>
        <time>2024-05-08T05:37:25Z</time>
      </trkpt>
      <trkpt lat="46.97216" lon="3.04734">
        <ele>178</ele>
        <time>2024-05-08T05:37:26Z</time>
      </trkpt>
      <trkpt lat="46.97229" lon="3.04725">
        <ele>178.8</ele>
        <time>2024-05-08T05:37:30Z</time>
      </trkpt>
      <trkpt lat="46.97238" lon="3.04717">
        <ele>179.8</ele>
        <time>2024-05-08T05:37:33Z</time>
      </trkpt>
      <trkpt lat="46.97251" lon="3.04702">
        <ele>181</ele>
        <time>2024-05-08T05:37:38Z</time>
      </trkpt>
      <trkpt lat="46.97256" lon="3.04694">
        <ele>181.6</ele>
        <time>2024-05-08T05:37:40Z</time>
      </trkpt>
      <trkpt lat="46.97259" lon="3.04689">
        <ele>182</ele>
        <time>2024-05-08T05:37:42Z</time>
      </trkpt>
      <trkpt lat="46.9727" lon="3.04677">
        <ele>183.2</ele>
        <time>2024-05-08T05:37:46Z</time>
      </trkpt>
      <trkpt lat="46.97279" lon="3.04669">
        <ele>184.4</ele>
        <time>2024-05-08T05:37:49Z</time>
      </trkpt>
      <trkpt lat="46.97289" lon="3.0466">
        <ele>185.4</ele>
        <time>2024-05-08T05:37:53Z</time>
      </trkpt>
      <trkpt lat="46.97296" lon="3.04654">
        <ele>186.4</ele>
        <time>2024-05-08T05:37:55Z</time>
      </trkpt>
      <trkpt lat="46.97299" lon="3.04651">
        <ele>186.8</ele>
        <time>2024-05-08T05:37:56Z</time>
      </trkpt>
      <trkpt lat="46.97308" lon="3.04642">
        <ele>187.8</ele>
        <time>2024-05-08T05:37:59Z</time>
      </trkpt>
      <trkpt lat="46.97316" lon="3.04631">
        <ele>188.6</ele>
        <time>2024-05-08T05:38:02Z</time>
      </trkpt>
      <trkpt lat="46.97322" lon="3.04622">
        <ele>189</ele>
        <time>2024-05-08T05:38:04Z</time>
      </trkpt>
      <trkpt lat="46.97331" lon="3.04603">
        <ele>189.8</ele>
        <time>2024-05-08T05:38:08Z</time>
      </trkpt>
      <trkpt lat="46.97336" lon="3.04592">
        <ele>190.2</ele>
        <time>2024-05-08T05:38:10Z</time>
      </trkpt>
      <trkpt lat="46.97346" lon="3.04563">
        <ele>191</ele>
        <time>2024-05-08T05:38:15Z</time>
      </trkpt>
      <trkpt lat="46.97354" lon="3.04538">
        <ele>191.2</ele>
        <time>2024-05-08T05:38:19Z</time>
      </trkpt>
      <trkpt lat="46.97365" lon="3.04504">
        <ele>191.6</ele>
        <time>2024-05-08T05:38:24Z</time>
      </trkpt>
      <trkpt lat="46.97389" lon="3.04462">
        <ele>192.2</ele>
        <time>2024-05-08T05:38:31Z</time>
      </trkpt>
      <trkpt lat="46.97408" lon="3.04432">
        <ele>192.2</ele>
        <time>2024-05-08T05:38:36Z</time>
      </trkpt>
      <trkpt lat="46.97423" lon="3.04407">
        <ele>192.2</ele>
        <time>2024-05-08T05:38:40Z</time>
      </trkpt>
      <trkpt lat="46.97456" lon="3.04369">
        <ele>192</ele>
        <time>2024-05-08T05:38:47Z</time>
      </trkpt>
      <trkpt lat="46.97486" lon="3.04359">
        <ele>192</ele>
        <time>2024-05-08T05:38:52Z</time>
      </trkpt>
      <trkpt lat="46.97522" lon="3.04357">
        <ele>192</ele>
        <time>2024-05-08T05:38:58Z</time>
      </trkpt>
      <trkpt lat="46.97557" lon="3.04369">
        <ele>192.2</ele>
        <time>2024-05-08T05:39:04Z</time>
      </trkpt>
      <trkpt lat="46.97584" lon="3.04389">
        <ele>192.8</ele>
        <time>2024-05-08T05:39:09Z</time>
      </trkpt>
      <trkpt lat="46.97616" lon="3.04421">
        <ele>193.2</ele>
        <time>2024-05-08T05:39:15Z</time>
      </trkpt>
      <trkpt lat="46.97633" lon="3.04434">
        <ele>193.4</ele>
        <time>2024-05-08T05:39:18Z</time>
      </trkpt>
      <trkpt lat="46.97657" lon="3.04451">
        <ele>193.2</ele>
        <time>2024-05-08T05:39:22Z</time>
      </trkpt>
      <trkpt lat="46.97709" lon="3.04484">
        <ele>192.8</ele>
        <time>2024-05-08T05:39:30Z</time>
      </trkpt>
      <trkpt lat="46.9775" lon="3.04503">
        <ele>192.2</ele>
        <time>2024-05-08T05:39:36Z</time>
      </trkpt>
      <trkpt lat="46.97757" lon="3.04506">
        <ele>192.2</ele>
        <time>2024-05-08T05:39:37Z</time>
      </trkpt>
      <trkpt lat="46.97816" lon="3.0453">
        <ele>191.8</ele>
        <time>2024-05-08T05:39:45Z</time>
      </trkpt>
      <trkpt lat="46.97831" lon="3.04536">
        <ele>191.6</ele>
        <time>2024-05-08T05:39:47Z</time>
      </trkpt>
      <trkpt lat="46.97839" lon="3.04538">
        <ele>191.2</ele>
        <time>2024-05-08T05:39:48Z</time>
      </trkpt>
      <trkpt lat="46.97879" lon="3.04548">
        <ele>190.6</ele>
        <time>2024-05-08T05:39:53Z</time>
      </trkpt>
      <trkpt lat="46.97904" lon="3.04552">
        <ele>190.2</ele>
        <time>2024-05-08T05:39:56Z</time>
      </trkpt>
      <trkpt lat="46.9794" lon="3.04552">
        <ele>189</ele>
        <time>2024-05-08T05:40:00Z</time>
      </trkpt>
      <trkpt lat="46.97968" lon="3.04548">
        <ele>188</ele>
        <time>2024-05-08T05:40:03Z</time>
      </trkpt>
      <trkpt lat="46.97988" lon="3.04544">
        <ele>187.2</ele>
        <time>2024-05-08T05:40:05Z</time>
      </trkpt>
      <trkpt lat="46.97997" lon="3.04541">
        <ele>186.8</ele>
        <time>2024-05-08T05:40:06Z</time>
      </trkpt>
      <trkpt lat="46.98024" lon="3.04533">
        <ele>185.6</ele>
        <time>2024-05-08T05:40:09Z</time>
      </trkpt>
      <trkpt lat="46.98051" lon="3.04523">
        <ele>184.2</ele>
        <time>2024-05-08T05:40:12Z</time>
      </trkpt>
      <trkpt lat="46.98066" lon="3.04517">
        <ele>183.8</ele>
        <time>2024-05-08T05:40:14Z</time>
      </trkpt>
      <trkpt lat="46.98094" lon="3.04507">
        <ele>183.2</ele>
        <time>2024-05-08T05:40:17Z</time>
      </trkpt>
      <trkpt lat="46.98139" lon="3.04492">
        <ele>182</ele>
        <time>2024-05-08T05:40:22Z</time>
      </trkpt>
      <trkpt lat="46.98176" lon="3.04479">
        <ele>180.6</ele>
        <time>2024-05-08T05:40:26Z</time>
      </trkpt>
      <trkpt lat="46.98196" lon="3.04472">
        <ele>180</ele>
        <time>2024-05-08T05:40:28Z</time>
      </trkpt>
      <trkpt lat="46.98205" lon="3.04469">
        <ele>179.4</ele>
        <time>2024-05-08T05:40:29Z</time>
      </trkpt>
      <trkpt lat="46.9823" lon="3.0446">
        <ele>178.4</ele>
        <time>2024-05-08T05:40:32Z</time>
      </trkpt>
      <trkpt lat="46.98249" lon="3.04458">
        <ele>178</ele>
        <time>2024-05-08T05:40:34Z</time>
      </trkpt>
      <trkpt lat="46.98277" lon="3.0447">
        <ele>177.8</ele>
        <time>2024-05-08T05:40:38Z</time>
      </trkpt>
      <trkpt lat="46.98283" lon="3.04474">
        <ele>177.8</ele>
        <time>2024-05-08T05:40:39Z</time>
      </trkpt>
      <trkpt lat="46.98299" lon="3.04491">
        <ele>178.4</ele>
        <time>2024-05-08T05:40:42Z</time>
      </trkpt>
      <trkpt lat="46.98324" lon="3.04534">
        <ele>179.4</ele>
        <time>2024-05-08T05:40:48Z</time>
      </trkpt>
      <trkpt lat="46.98332" lon="3.04547">
        <ele>179.6</ele>
        <time>2024-05-08T05:40:50Z</time>
      </trkpt>
      <trkpt lat="46.98344" lon="3.04561">
        <ele>180</ele>
        <time>2024-05-08T05:40:52Z</time>
      </trkpt>
      <trkpt lat="46.98356" lon="3.04571">
        <ele>179.6</ele>
        <time>2024-05-08T05:40:54Z</time>
      </trkpt>
      <trkpt lat="46.98361" lon="3.04575">
        <ele>179.6</ele>
        <time>2024-05-08T05:40:55Z</time>
      </trkpt>
      <trkpt lat="46.98392" lon="3.04587">
        <ele>179.4</ele>
        <time>2024-05-08T05:40:59Z</time>
      </trkpt>
      <trkpt lat="46.98432" lon="3.04593">
        <ele>178</ele>
        <time>2024-05-08T05:41:04Z</time>
      </trkpt>
      <trkpt lat="46.98457" lon="3.04597">
        <ele>177.2</ele>
        <time>2024-05-08T05:41:07Z</time>
      </trkpt>
      <trkpt lat="46.98464" lon="3.04598">
        <ele>177</ele>
        <time>2024-05-08T05:41:08Z</time>
      </trkpt>
      <trkpt lat="46.9849" lon="3.04601">
        <ele>177</ele>
        <time>2024-05-08T05:41:12Z</time>
      </trkpt>
      <trkpt lat="46.98526" lon="3.04606">
        <ele>177.8</ele>
        <time>2024-05-08T05:41:18Z</time>
      </trkpt>
      <trkpt lat="46.98533" lon="3.04607">
        <ele>178</ele>
        <time>2024-05-08T05:41:19Z</time>
      </trkpt>
      <trkpt lat="46.98577" lon="3.04614">
        <ele>179</ele>
        <time>2024-05-08T05:41:26Z</time>
      </trkpt>
      <trkpt lat="46.98636" lon="3.04625">
        <ele>179</ele>
        <time>2024-05-08T05:41:35Z</time>
      </trkpt>
      <trkpt lat="46.98656" lon="3.04628">
        <ele>179</ele>
        <time>2024-05-08T05:41:38Z</time>
      </trkpt>
      <trkpt lat="46.98718" lon="3.04639">
        <ele>178.2</ele>
        <time>2024-05-08T05:41:47Z</time>
      </trkpt>
      <trkpt lat="46.98726" lon="3.0464">
        <ele>178</ele>
        <time>2024-05-08T05:41:48Z</time>
      </trkpt>
      <trkpt lat="46.98785" lon="3.0465">
        <ele>177.4</ele>
        <time>2024-05-08T05:41:56Z</time>
      </trkpt>
      <trkpt lat="46.98792" lon="3.04652">
        <ele>177.2</ele>
        <time>2024-05-08T05:41:57Z</time>
      </trkpt>
      <trkpt lat="46.98799" lon="3.04652">
        <ele>176.8</ele>
        <time>2024-05-08T05:41:58Z</time>
      </trkpt>
      <trkpt lat="46.98858" lon="3.04662">
        <ele>176</ele>
        <time>2024-05-08T05:42:06Z</time>
      </trkpt>
      <trkpt lat="46.98865" lon="3.04663">
        <ele>175.8</ele>
        <time>2024-05-08T05:42:07Z</time>
      </trkpt>
      <trkpt lat="46.98873" lon="3.04664">
        <ele>175.8</ele>
        <time>2024-05-08T05:42:08Z</time>
      </trkpt>
      <trkpt lat="46.9893" lon="3.04673">
        <ele>175.4</ele>
        <time>2024-05-08T05:42:15Z</time>
      </trkpt>
      <trkpt lat="46.98945" lon="3.04676">
        <ele>174.8</ele>
        <time>2024-05-08T05:42:17Z</time>
      </trkpt>
      <trkpt lat="46.98994" lon="3.04683">
        <ele>173.6</ele>
        <time>2024-05-08T05:42:23Z</time>
      </trkpt>
      <trkpt lat="46.9901" lon="3.04685">
        <ele>173.2</ele>
        <time>2024-05-08T05:42:25Z</time>
      </trkpt>
      <trkpt lat="46.99051" lon="3.04692">
        <ele>173.2</ele>
        <time>2024-05-08T05:42:31Z</time>
      </trkpt>
      <trkpt lat="46.99108" lon="3.04701">
        <ele>174.2</ele>
        <time>2024-05-08T05:42:40Z</time>
      </trkpt>
      <trkpt lat="46.99164" lon="3.04709">
        <ele>174.2</ele>
        <time>2024-05-08T05:42:48Z</time>
      </trkpt>
      <trkpt lat="46.99223" lon="3.04719">
        <ele>173.6</ele>
        <time>2024-05-08T05:42:57Z</time>
      </trkpt>
      <trkpt lat="46.99236" lon="3.04721">
        <ele>173.6</ele>
        <time>2024-05-08T05:42:59Z</time>
      </trkpt>
      <trkpt lat="46.99268" lon="3.04727">
        <ele>173.8</ele>
        <time>2024-05-08T05:43:04Z</time>
      </trkpt>
      <trkpt lat="46.9928" lon="3.04728">
        <ele>173.8</ele>
        <time>2024-05-08T05:43:06Z</time>
      </trkpt>
      <trkpt lat="46.99314" lon="3.04735">
        <ele>174.6</ele>
        <time>2024-05-08T05:43:12Z</time>
      </trkpt>
      <trkpt lat="46.99326" lon="3.04735">
        <ele>174.8</ele>
        <time>2024-05-08T05:43:14Z</time>
      </trkpt>
      <trkpt lat="46.99347" lon="3.04735">
        <ele>175.4</ele>
        <time>2024-05-08T05:43:18Z</time>
      </trkpt>
      <trkpt lat="46.99354" lon="3.04733">
        <ele>175.6</ele>
        <time>2024-05-08T05:43:19Z</time>
      </trkpt>
      <trkpt lat="46.99363" lon="3.04729">
        <ele>175.8</ele>
        <time>2024-05-08T05:43:21Z</time>
      </trkpt>
      <trkpt lat="46.99369" lon="3.04726">
        <ele>175.8</ele>
        <time>2024-05-08T05:43:22Z</time>
      </trkpt>
      <trkpt lat="46.99381" lon="3.04719">
        <ele>176</ele>
        <time>2024-05-08T05:43:24Z</time>
      </trkpt>
      <trkpt lat="46.99396" lon="3.04706">
        <ele>176.2</ele>
        <time>2024-05-08T05:43:27Z</time>
      </trkpt>
      <trkpt lat="46.99437" lon="3.04658">
        <ele>176.4</ele>
        <time>2024-05-08T05:43:35Z</time>
      </trkpt>
      <trkpt lat="46.99482" lon="3.04605">
        <ele>176</ele>
        <time>2024-05-08T05:43:44Z</time>
      </trkpt>
      <trkpt lat="46.99494" lon="3.04591">
        <ele>176</ele>
        <time>2024-05-08T05:43:46Z</time>
      </trkpt>
      <trkpt lat="46.9954" lon="3.04537">
        <ele>175.8</ele>
        <time>2024-05-08T05:43:55Z</time>
      </trkpt>
      <trkpt lat="46.99554" lon="3.04519">
        <ele>175.6</ele>
        <time>2024-05-08T05:43:58Z</time>
      </trkpt>
      <trkpt lat="46.99598" lon="3.04468">
        <ele>175.6</ele>
        <time>2024-05-08T05:44:07Z</time>
      </trkpt>
      <trkpt lat="46.99608" lon="3.04456">
        <ele>175.4</ele>
        <time>2024-05-08T05:44:09Z</time>
      </trkpt>
      <trkpt lat="46.99641" lon="3.04415">
        <ele>175.6</ele>
        <time>2024-05-08T05:44:16Z</time>
      </trkpt>
      <trkpt lat="46.99668" lon="3.04368">
        <ele>175.2</ele>
        <time>2024-05-08T05:44:22Z</time>
      </trkpt>
      <trkpt lat="46.99686" lon="3.04333">
        <ele>174.6</ele>
        <time>2024-05-08T05:44:26Z</time>
      </trkpt>
      <trkpt lat="46.99701" lon="3.04303">
        <ele>174.2</ele>
        <time>2024-05-08T05:44:29Z</time>
      </trkpt>
      <trkpt lat="46.99721" lon="3.04267">
        <ele>173.6</ele>
        <time>2024-05-08T05:44:33Z</time>
      </trkpt>
      <trkpt lat="46.9973" lon="3.04251">
        <ele>173.4</ele>
        <time>2024-05-08T05:44:35Z</time>
      </trkpt>
      <trkpt lat="46.99758" lon="3.04207">
        <ele>173.2</ele>
        <time>2024-05-08T05:44:41Z</time>
      </trkpt>
      <trkpt lat="46.9979" lon="3.04175">
        <ele>174</ele>
        <time>2024-05-08T05:44:47Z</time>
      </trkpt>
      <trkpt lat="46.99819" lon="3.04154">
        <ele>174.6</ele>
        <time>2024-05-08T05:44:52Z</time>
      </trkpt>
      <trkpt lat="46.99868" lon="3.04118">
        <ele>175</ele>
        <time>2024-05-08T05:45:01Z</time>
      </trkpt>
      <trkpt lat="46.99908" lon="3.0409">
        <ele>175.2</ele>
        <time>2024-05-08T05:45:08Z</time>
      </trkpt>
      <trkpt lat="46.9996" lon="3.04054">
        <ele>175</ele>
        <time>2024-05-08T05:45:17Z</time>
      </trkpt>
      <trkpt lat="46.99966" lon="3.04049">
        <ele>175</ele>
        <time>2024-05-08T05:45:18Z</time>
      </trkpt>
      <trkpt lat="47.00017" lon="3.04012">
        <ele>175</ele>
        <time>2024-05-08T05:45:27Z</time>
      </trkpt>
      <trkpt lat="47.00049" lon="3.03988">
        <ele>175.6</ele>
        <time>2024-05-08T05:45:33Z</time>
      </trkpt>
      <trkpt lat="47.0006" lon="3.0398">
        <ele>176</ele>
        <time>2024-05-08T05:45:35Z</time>
      </trkpt>
      <trkpt lat="47.00098" lon="3.03952">
        <ele>176.2</ele>
        <time>2024-05-08T05:45:42Z</time>
      </trkpt>
      <trkpt lat="47.00147" lon="3.03916">
        <ele>176.6</ele>
        <time>2024-05-08T05:45:51Z</time>
      </trkpt>
      <trkpt lat="47.00157" lon="3.03909">
        <ele>176.6</ele>
        <time>2024-05-08T05:45:53Z</time>
      </trkpt>
      <trkpt lat="47.00163" lon="3.03905">
        <ele>176.6</ele>
        <time>2024-05-08T05:45:54Z</time>
      </trkpt>
      <trkpt lat="47.00175" lon="3.039">
        <ele>176.8</ele>
        <time>2024-05-08T05:45:56Z</time>
      </trkpt>
      <trkpt lat="47.00194" lon="3.03895">
        <ele>177</ele>
        <time>2024-05-08T05:45:59Z</time>
      </trkpt>
      <trkpt lat="47.00244" lon="3.03882">
        <ele>176.4</ele>
        <time>2024-05-08T05:46:07Z</time>
      </trkpt>
      <trkpt lat="47.00295" lon="3.03859">
        <ele>176</ele>
        <time>2024-05-08T05:46:15Z</time>
      </trkpt>
      <trkpt lat="47.00349" lon="3.03834">
        <ele>175.6</ele>
        <time>2024-05-08T05:46:23Z</time>
      </trkpt>
      <trkpt lat="47.00362" lon="3.03829">
        <ele>175.6</ele>
        <time>2024-05-08T05:46:25Z</time>
      </trkpt>
      <trkpt lat="47.0037" lon="3.03828">
        <ele>175.4</ele>
        <time>2024-05-08T05:46:26Z</time>
      </trkpt>
      <trkpt lat="47.0041" lon="3.03827">
        <ele>174.8</ele>
        <time>2024-05-08T05:46:31Z</time>
      </trkpt>
      <trkpt lat="47.00426" lon="3.03829">
        <ele>174.4</ele>
        <time>2024-05-08T05:46:33Z</time>
      </trkpt>
      <trkpt lat="47.00458" lon="3.03834">
        <ele>173</ele>
        <time>2024-05-08T05:46:37Z</time>
      </trkpt>
      <trkpt lat="47.00472" lon="3.03836">
        <ele>172.6</ele>
        <time>2024-05-08T05:46:39Z</time>
      </trkpt>
      <trkpt lat="47.00504" lon="3.0384">
        <ele>172.8</ele>
        <time>2024-05-08T05:46:44Z</time>
      </trkpt>
      <trkpt lat="47.00527" lon="3.03843">
        <ele>174.2</ele>
        <time>2024-05-08T05:46:48Z</time>
      </trkpt>
      <trkpt lat="47.00538" lon="3.03846">
        <ele>175</ele>
        <time>2024-05-08T05:46:50Z</time>
      </trkpt>
      <trkpt lat="47.00555" lon="3.03848">
        <ele>175.6</ele>
        <time>2024-05-08T05:46:53Z</time>
      </trkpt>
      <trkpt lat="47.00566" lon="3.03849">
        <ele>175.8</ele>
        <time>2024-05-08T05:46:55Z</time>
      </trkpt>
      <trkpt lat="47.0059" lon="3.03848">
        <ele>176</ele>
        <time>2024-05-08T05:46:59Z</time>
      </trkpt>
      <trkpt lat="47.00607" lon="3.03844">
        <ele>176.2</ele>
        <time>2024-05-08T05:47:02Z</time>
      </trkpt>
      <trkpt lat="47.0065" lon="3.03829">
        <ele>176.4</ele>
        <time>2024-05-08T05:47:09Z</time>
      </trkpt>
      <trkpt lat="47.00681" lon="3.03812">
        <ele>176.4</ele>
        <time>2024-05-08T05:47:14Z</time>
      </trkpt>
      <trkpt lat="47.00692" lon="3.03804">
        <ele>176.4</ele>
        <time>2024-05-08T05:47:16Z</time>
      </trkpt>
      <trkpt lat="47.007" lon="3.03798">
        <ele>176.2</ele>
        <time>2024-05-08T05:47:17Z</time>
      </trkpt>
      <trkpt lat="47.00716" lon="3.0378">
        <ele>176.2</ele>
        <time>2024-05-08T05:47:20Z</time>
      </trkpt>
      <trkpt lat="47.00744" lon="3.03754">
        <ele>176.2</ele>
        <time>2024-05-08T05:47:25Z</time>
      </trkpt>
      <trkpt lat="47.00757" lon="3.03747">
        <ele>176.2</ele>
        <time>2024-05-08T05:47:27Z</time>
      </trkpt>
      <trkpt lat="47.00785" lon="3.03744">
        <ele>175.6</ele>
        <time>2024-05-08T05:47:31Z</time>
      </trkpt>
      <trkpt lat="47.00792" lon="3.03745">
        <ele>175.6</ele>
        <time>2024-05-08T05:47:32Z</time>
      </trkpt>
      <trkpt lat="47.00851" lon="3.03746">
        <ele>175</ele>
        <time>2024-05-08T05:47:40Z</time>
      </trkpt>
      <trkpt lat="47.00858" lon="3.03746">
        <ele>175</ele>
        <time>2024-05-08T05:47:41Z</time>
      </trkpt>
      <trkpt lat="47.00915" lon="3.03747">
        <ele>174.4</ele>
        <time>2024-05-08T05:47:49Z</time>
      </trkpt>
      <trkpt lat="47.00942" lon="3.03747">
        <ele>174.4</ele>
        <time>2024-05-08T05:47:53Z</time>
      </trkpt>
      <trkpt lat="47.00999" lon="3.03748">
        <ele>174.8</ele>
        <time>2024-05-08T05:48:02Z</time>
      </trkpt>
      <trkpt lat="47.01056" lon="3.03749">
        <ele>174.8</ele>
        <time>2024-05-08T05:48:11Z</time>
      </trkpt>
      <trkpt lat="47.01062" lon="3.03749">
        <ele>174.8</ele>
        <time>2024-05-08T05:48:12Z</time>
      </trkpt>
      <trkpt lat="47.01117" lon="3.03749">
        <ele>174.4</ele>
        <time>2024-05-08T05:48:20Z</time>
      </trkpt>
      <trkpt lat="47.01125" lon="3.03749">
        <ele>174</ele>
        <time>2024-05-08T05:48:21Z</time>
      </trkpt>
      <trkpt lat="47.01154" lon="3.03752">
        <ele>173.4</ele>
        <time>2024-05-08T05:48:25Z</time>
      </trkpt>
      <trkpt lat="47.01161" lon="3.03756">
        <ele>173.2</ele>
        <time>2024-05-08T05:48:26Z</time>
      </trkpt>
      <trkpt lat="47.01167" lon="3.0376">
        <ele>173</ele>
        <time>2024-05-08T05:48:27Z</time>
      </trkpt>
      <trkpt lat="47.01173" lon="3.03763">
        <ele>172.8</ele>
        <time>2024-05-08T05:48:28Z</time>
      </trkpt>
      <trkpt lat="47.01187" lon="3.03763">
        <ele>172.4</ele>
        <time>2024-05-08T05:48:30Z</time>
      </trkpt>
      <trkpt lat="47.01216" lon="3.03755">
        <ele>172</ele>
        <time>2024-05-08T05:48:34Z</time>
      </trkpt>
      <trkpt lat="47.01223" lon="3.03754">
        <ele>171.8</ele>
        <time>2024-05-08T05:48:35Z</time>
      </trkpt>
      <trkpt lat="47.0126" lon="3.03752">
        <ele>170.8</ele>
        <time>2024-05-08T05:48:40Z</time>
      </trkpt>
      <trkpt lat="47.01292" lon="3.0375">
        <ele>170.6</ele>
        <time>2024-05-08T05:48:44Z</time>
      </trkpt>
      <trkpt lat="47.01309" lon="3.03745">
        <ele>169.8</ele>
        <time>2024-05-08T05:48:46Z</time>
      </trkpt>
      <trkpt lat="47.01317" lon="3.03741">
        <ele>169.6</ele>
        <time>2024-05-08T05:48:47Z</time>
      </trkpt>
      <trkpt lat="47.01325" lon="3.03735">
        <ele>169.4</ele>
        <time>2024-05-08T05:48:48Z</time>
      </trkpt>
      <trkpt lat="47.0135" lon="3.03717">
        <ele>168.4</ele>
        <time>2024-05-08T05:48:51Z</time>
      </trkpt>
      <trkpt lat="47.01373" lon="3.03696">
        <ele>167.6</ele>
        <time>2024-05-08T05:48:54Z</time>
      </trkpt>
      <trkpt lat="47.01381" lon="3.0369">
        <ele>167</ele>
        <time>2024-05-08T05:48:55Z</time>
      </trkpt>
      <trkpt lat="47.0141" lon="3.03667">
        <ele>166</ele>
        <time>2024-05-08T05:48:59Z</time>
      </trkpt>
      <trkpt lat="47.01418" lon="3.03662">
        <ele>165.8</ele>
        <time>2024-05-08T05:49:00Z</time>
      </trkpt>
      <trkpt lat="47.01444" lon="3.03649">
        <ele>165.8</ele>
        <time>2024-05-08T05:49:04Z</time>
      </trkpt>
      <trkpt lat="47.0145" lon="3.03646">
        <ele>166</ele>
        <time>2024-05-08T05:49:05Z</time>
      </trkpt>
      <trkpt lat="47.0147" lon="3.03637">
        <ele>167</ele>
        <time>2024-05-08T05:49:09Z</time>
      </trkpt>
      <trkpt lat="47.01483" lon="3.03631">
        <ele>168.4</ele>
        <time>2024-05-08T05:49:12Z</time>
      </trkpt>
      <trkpt lat="47.01494" lon="3.03623">
        <ele>169.8</ele>
        <time>2024-05-08T05:49:15Z</time>
      </trkpt>
      <trkpt lat="47.01506" lon="3.03613">
        <ele>171</ele>
        <time>2024-05-08T05:49:18Z</time>
      </trkpt>
      <trkpt lat="47.01525" lon="3.03597">
        <ele>172.2</ele>
        <time>2024-05-08T05:49:22Z</time>
      </trkpt>
      <trkpt lat="47.01562" lon="3.03566">
        <ele>172.6</ele>
        <time>2024-05-08T05:49:29Z</time>
      </trkpt>
      <trkpt lat="47.01609" lon="3.03526">
        <ele>172</ele>
        <time>2024-05-08T05:49:36Z</time>
      </trkpt>
      <trkpt lat="47.01633" lon="3.03507">
        <ele>171.2</ele>
        <time>2024-05-08T05:49:39Z</time>
      </trkpt>
      <trkpt lat="47.01658" lon="3.03485">
        <ele>169.8</ele>
        <time>2024-05-08T05:49:42Z</time>
      </trkpt>
      <trkpt lat="47.01682" lon="3.03465">
        <ele>168.2</ele>
        <time>2024-05-08T05:49:45Z</time>
      </trkpt>
      <trkpt lat="47.01712" lon="3.0344">
        <ele>167</ele>
        <time>2024-05-08T05:49:49Z</time>
      </trkpt>
      <trkpt lat="47.01749" lon="3.03409">
        <ele>167.2</ele>
        <time>2024-05-08T05:49:55Z</time>
      </trkpt>
      <trkpt lat="47.01775" lon="3.03389">
        <ele>168.4</ele>
        <time>2024-05-08T05:50:00Z</time>
      </trkpt>
      <trkpt lat="47.0178" lon="3.03386">
        <ele>168.6</ele>
        <time>2024-05-08T05:50:01Z</time>
      </trkpt>
      <trkpt lat="47.01798" lon="3.0337">
        <ele>169.8</ele>
        <time>2024-05-08T05:50:05Z</time>
      </trkpt>
      <trkpt lat="47.01816" lon="3.03353">
        <ele>170.6</ele>
        <time>2024-05-08T05:50:09Z</time>
      </trkpt>
      <trkpt lat="47.01825" lon="3.03344">
        <ele>170.8</ele>
        <time>2024-05-08T05:50:11Z</time>
      </trkpt>
      <trkpt lat="47.01847" lon="3.03324">
        <ele>172.2</ele>
        <time>2024-05-08T05:50:16Z</time>
      </trkpt>
      <trkpt lat="47.01857" lon="3.03317">
        <ele>172.6</ele>
        <time>2024-05-08T05:50:18Z</time>
      </trkpt>
      <trkpt lat="47.01871" lon="3.03306">
        <ele>173.2</ele>
        <time>2024-05-08T05:50:21Z</time>
      </trkpt>
      <trkpt lat="47.01899" lon="3.03285">
        <ele>174.2</ele>
        <time>2024-05-08T05:50:27Z</time>
      </trkpt>
      <trkpt lat="47.01937" lon="3.03251">
        <ele>175.2</ele>
        <time>2024-05-08T05:50:35Z</time>
      </trkpt>
      <trkpt lat="47.01947" lon="3.03243">
        <ele>175.4</ele>
        <time>2024-05-08T05:50:37Z</time>
      </trkpt>
      <trkpt lat="47.01987" lon="3.03209">
        <ele>175.6</ele>
        <time>2024-05-08T05:50:45Z</time>
      </trkpt>
      <trkpt lat="47.02032" lon="3.03172">
        <ele>176.2</ele>
        <time>2024-05-08T05:50:54Z</time>
      </trkpt>
      <trkpt lat="47.02072" lon="3.0314">
        <ele>176.2</ele>
        <time>2024-05-08T05:51:01Z</time>
      </trkpt>
      <trkpt lat="47.02103" lon="3.03123">
        <ele>176.2</ele>
        <time>2024-05-08T05:51:05Z</time>
      </trkpt>
      <trkpt lat="47.02112" lon="3.03121">
        <ele>176</ele>
        <time>2024-05-08T05:51:06Z</time>
      </trkpt>
      <trkpt lat="47.02133" lon="3.0312">
        <ele>175.4</ele>
        <time>2024-05-08T05:51:08Z</time>
      </trkpt>
      <trkpt lat="47.02154" lon="3.03122">
        <ele>174.2</ele>
        <time>2024-05-08T05:51:10Z</time>
      </trkpt>
      <trkpt lat="47.02175" lon="3.03126">
        <ele>173</ele>
        <time>2024-05-08T05:51:12Z</time>
      </trkpt>
      <trkpt lat="47.02184" lon="3.03129">
        <ele>171.8</ele>
        <time>2024-05-08T05:51:13Z</time>
      </trkpt>
      <trkpt lat="47.02201" lon="3.03133">
        <ele>170.8</ele>
        <time>2024-05-08T05:51:15Z</time>
      </trkpt>
      <trkpt lat="47.02216" lon="3.03137">
        <ele>170.6</ele>
        <time>2024-05-08T05:51:17Z</time>
      </trkpt>
      <trkpt lat="47.02241" lon="3.03143">
        <ele>171</ele>
        <time>2024-05-08T05:51:21Z</time>
      </trkpt>
      <trkpt lat="47.02256" lon="3.03148">
        <ele>171.8</ele>
        <time>2024-05-08T05:51:24Z</time>
      </trkpt>
      <trkpt lat="47.02266" lon="3.03151">
        <ele>173</ele>
        <time>2024-05-08T05:51:26Z</time>
      </trkpt>
      <trkpt lat="47.02271" lon="3.03152">
        <ele>173.4</ele>
        <time>2024-05-08T05:51:27Z</time>
      </trkpt>
      <trkpt lat="47.02281" lon="3.03154">
        <ele>174.2</ele>
        <time>2024-05-08T05:51:29Z</time>
      </trkpt>
      <trkpt lat="47.02292" lon="3.03155">
        <ele>175.2</ele>
        <time>2024-05-08T05:51:31Z</time>
      </trkpt>
      <trkpt lat="47.02303" lon="3.03155">
        <ele>175.6</ele>
        <time>2024-05-08T05:51:33Z</time>
      </trkpt>
      <trkpt lat="47.02315" lon="3.03155">
        <ele>176</ele>
        <time>2024-05-08T05:51:35Z</time>
      </trkpt>
      <trkpt lat="47.02356" lon="3.0315">
        <ele>176</ele>
        <time>2024-05-08T05:51:41Z</time>
      </trkpt>
      <trkpt lat="47.02412" lon="3.03146">
        <ele>174.8</ele>
        <time>2024-05-08T05:51:49Z</time>
      </trkpt>
      <trkpt lat="47.02426" lon="3.03145">
        <ele>174.6</ele>
        <time>2024-05-08T05:51:51Z</time>
      </trkpt>
      <trkpt lat="47.02439" lon="3.03144">
        <ele>174.2</ele>
        <time>2024-05-08T05:51:53Z</time>
      </trkpt>
      <trkpt lat="47.02456" lon="3.03146">
        <ele>173.2</ele>
        <time>2024-05-08T05:51:56Z</time>
      </trkpt>
      <trkpt lat="47.02461" lon="3.03149">
        <ele>173</ele>
        <time>2024-05-08T05:51:57Z</time>
      </trkpt>
      <trkpt lat="47.02465" lon="3.03149">
        <ele>172.8</ele>
        <time>2024-05-08T05:51:58Z</time>
      </trkpt>
      <trkpt lat="47.0247" lon="3.03146">
        <ele>172.6</ele>
        <time>2024-05-08T05:51:59Z</time>
      </trkpt>
      <trkpt lat="47.02474" lon="3.03143">
        <ele>172.4</ele>
        <time>2024-05-08T05:52:00Z</time>
      </trkpt>
      <trkpt lat="47.02484" lon="3.0314">
        <ele>172.4</ele>
        <time>2024-05-08T05:52:02Z</time>
      </trkpt>
      <trkpt lat="47.02489" lon="3.03139">
        <ele>172.4</ele>
        <time>2024-05-08T05:52:03Z</time>
      </trkpt>
      <trkpt lat="47.02518" lon="3.0314">
        <ele>172.6</ele>
        <time>2024-05-08T05:52:09Z</time>
      </trkpt>
      <trkpt lat="47.02523" lon="3.03142">
        <ele>172.8</ele>
        <time>2024-05-08T05:52:10Z</time>
      </trkpt>
      <trkpt lat="47.02534" lon="3.03146">
        <ele>173.2</ele>
        <time>2024-05-08T05:52:12Z</time>
      </trkpt>
      <trkpt lat="47.02549" lon="3.0315">
        <ele>174.2</ele>
        <time>2024-05-08T05:52:15Z</time>
      </trkpt>
      <trkpt lat="47.02554" lon="3.03151">
        <ele>174.4</ele>
        <time>2024-05-08T05:52:16Z</time>
      </trkpt>
      <trkpt lat="47.02587" lon="3.03163">
        <ele>175.4</ele>
        <time>2024-05-08T05:52:22Z</time>
      </trkpt>
      <trkpt lat="47.02592" lon="3.03164">
        <ele>175.6</ele>
        <time>2024-05-08T05:52:23Z</time>
      </trkpt>
      <trkpt lat="47.02637" lon="3.03178">
        <ele>175.4</ele>
        <time>2024-05-08T05:52:30Z</time>
      </trkpt>
      <trkpt lat="47.02674" lon="3.03186">
        <ele>174.2</ele>
        <time>2024-05-08T05:52:35Z</time>
      </trkpt>
      <trkpt lat="47.02682" lon="3.03185">
        <ele>174</ele>
        <time>2024-05-08T05:52:36Z</time>
      </trkpt>
      <trkpt lat="47.02698" lon="3.03181">
        <ele>173.4</ele>
        <time>2024-05-08T05:52:38Z</time>
      </trkpt>
      <trkpt lat="47.02713" lon="3.03172">
        <ele>173.2</ele>
        <time>2024-05-08T05:52:40Z</time>
      </trkpt>
      <trkpt lat="47.0272" lon="3.03166">
        <ele>172.8</ele>
        <time>2024-05-08T05:52:41Z</time>
      </trkpt>
      <trkpt lat="47.02733" lon="3.0315">
        <ele>172.2</ele>
        <time>2024-05-08T05:52:43Z</time>
      </trkpt>
      <trkpt lat="47.02739" lon="3.03141">
        <ele>171.6</ele>
        <time>2024-05-08T05:52:44Z</time>
      </trkpt>
      <trkpt lat="47.02756" lon="3.03114">
        <ele>170.2</ele>
        <time>2024-05-08T05:52:47Z</time>
      </trkpt>
      <trkpt lat="47.02767" lon="3.03097">
        <ele>169.6</ele>
        <time>2024-05-08T05:52:49Z</time>
      </trkpt>
      <trkpt lat="47.02773" lon="3.0309">
        <ele>169.2</ele>
        <time>2024-05-08T05:52:50Z</time>
      </trkpt>
      <trkpt lat="47.02778" lon="3.03082">
        <ele>169</ele>
        <time>2024-05-08T05:52:51Z</time>
      </trkpt>
      <trkpt lat="47.02798" lon="3.03054">
        <ele>168.4</ele>
        <time>2024-05-08T05:52:55Z</time>
      </trkpt>
      <trkpt lat="47.02821" lon="3.03018">
        <ele>169</ele>
        <time>2024-05-08T05:53:01Z</time>
      </trkpt>
      <trkpt lat="47.02835" lon="3.02996">
        <ele>170.2</ele>
        <time>2024-05-08T05:53:05Z</time>
      </trkpt>
      <trkpt lat="47.02849" lon="3.02972">
        <ele>171.2</ele>
        <time>2024-05-08T05:53:09Z</time>
      </trkpt>
      <trkpt lat="47.02869" lon="3.02943">
        <ele>172.4</ele>
        <time>2024-05-08T05:53:14Z</time>
      </trkpt>
      <trkpt lat="47.02881" lon="3.02927">
        <ele>173</ele>
        <time>2024-05-08T05:53:17Z</time>
      </trkpt>
      <trkpt lat="47.02897" lon="3.02903">
        <ele>173.4</ele>
        <time>2024-05-08T05:53:21Z</time>
      </trkpt>
      <trkpt lat="47.02917" lon="3.02873">
        <ele>173.8</ele>
        <time>2024-05-08T05:53:26Z</time>
      </trkpt>
      <trkpt lat="47.02936" lon="3.02842">
        <ele>174.4</ele>
        <time>2024-05-08T05:53:31Z</time>
      </trkpt>
      <trkpt lat="47.02944" lon="3.0283">
        <ele>174.6</ele>
        <time>2024-05-08T05:53:33Z</time>
      </trkpt>
      <trkpt lat="47.0297" lon="3.02793">
        <ele>175.4</ele>
        <time>2024-05-08T05:53:40Z</time>
      </trkpt>
      <trkpt lat="47.02975" lon="3.02786">
        <ele>175.6</ele>
        <time>2024-05-08T05:53:41Z</time>
      </trkpt>
      <trkpt lat="47.02988" lon="3.02769">
        <ele>175.8</ele>
        <time>2024-05-08T05:53:44Z</time>
      </trkpt>
      <trkpt lat="47.02996" lon="3.02757">
        <ele>175.8</ele>
        <time>2024-05-08T05:53:46Z</time>
      </trkpt>
      <trkpt lat="47.03014" lon="3.02725">
        <ele>176</ele>
        <time>2024-05-08T05:53:51Z</time>
      </trkpt>
      <trkpt lat="47.03044" lon="3.02684">
        <ele>176.4</ele>
        <time>2024-05-08T05:53:58Z</time>
      </trkpt>
      <trkpt lat="47.0308" lon="3.02632">
        <ele>177.2</ele>
        <time>2024-05-08T05:54:07Z</time>
      </trkpt>
      <trkpt lat="47.03091" lon="3.02615">
        <ele>177.6</ele>
        <time>2024-05-08T05:54:10Z</time>
      </trkpt>
      <trkpt lat="47.03113" lon="3.02582">
        <ele>178.2</ele>
        <time>2024-05-08T05:54:16Z</time>
      </trkpt>
      <trkpt lat="47.0312" lon="3.02571">
        <ele>178.6</ele>
        <time>2024-05-08T05:54:18Z</time>
      </trkpt>
      <trkpt lat="47.03134" lon="3.02547">
        <ele>179</ele>
        <time>2024-05-08T05:54:22Z</time>
      </trkpt>
      <trkpt lat="47.03159" lon="3.02511">
        <ele>179.2</ele>
        <time>2024-05-08T05:54:28Z</time>
      </trkpt>
      <trkpt lat="47.03163" lon="3.02505">
        <ele>179.2</ele>
        <time>2024-05-08T05:54:29Z</time>
      </trkpt>
      <trkpt lat="47.0319" lon="3.02466">
        <ele>179</ele>
        <time>2024-05-08T05:54:35Z</time>
      </trkpt>
      <trkpt lat="47.0323" lon="3.02407">
        <ele>178.6</ele>
        <time>2024-05-08T05:54:44Z</time>
      </trkpt>
      <trkpt lat="47.03239" lon="3.02393">
        <ele>178.6</ele>
        <time>2024-05-08T05:54:46Z</time>
      </trkpt>
      <trkpt lat="47.03253" lon="3.02366">
        <ele>179</ele>
        <time>2024-05-08T05:54:50Z</time>
      </trkpt>
      <trkpt lat="47.03259" lon="3.02351">
        <ele>179.2</ele>
        <time>2024-05-08T05:54:52Z</time>
      </trkpt>
      <trkpt lat="47.03267" lon="3.02326">
        <ele>179.6</ele>
        <time>2024-05-08T05:54:55Z</time>
      </trkpt>
      <trkpt lat="47.03272" lon="3.0231">
        <ele>179.6</ele>
        <time>2024-05-08T05:54:57Z</time>
      </trkpt>
      <trkpt lat="47.03283" lon="3.02268">
        <ele>179.8</ele>
        <time>2024-05-08T05:55:02Z</time>
      </trkpt>
      <trkpt lat="47.03291" lon="3.02243">
        <ele>179.8</ele>
        <time>2024-05-08T05:55:05Z</time>
      </trkpt>
      <trkpt lat="47.03295" lon="3.02227">
        <ele>179.8</ele>
        <time>2024-05-08T05:55:07Z</time>
      </trkpt>
      <trkpt lat="47.03305" lon="3.0219">
        <ele>180</ele>
        <time>2024-05-08T05:55:12Z</time>
      </trkpt>
      <trkpt lat="47.03311" lon="3.02169">
        <ele>180.2</ele>
        <time>2024-05-08T05:55:15Z</time>
      </trkpt>
      <trkpt lat="47.03316" lon="3.02156">
        <ele>180.6</ele>
        <time>2024-05-08T05:55:17Z</time>
      </trkpt>
      <trkpt lat="47.03321" lon="3.02141">
        <ele>180.6</ele>
        <time>2024-05-08T05:55:19Z</time>
      </trkpt>
      <trkpt lat="47.03326" lon="3.02126">
        <ele>180.8</ele>
        <time>2024-05-08T05:55:21Z</time>
      </trkpt>
      <trkpt lat="47.03328" lon="3.02118">
        <ele>181</ele>
        <time>2024-05-08T05:55:22Z</time>
      </trkpt>
      <trkpt lat="47.03331" lon="3.0211">
        <ele>181</ele>
        <time>2024-05-08T05:55:23Z</time>
      </trkpt>
      <trkpt lat="47.03335" lon="3.02095">
        <ele>181.2</ele>
        <time>2024-05-08T05:55:25Z</time>
      </trkpt>
      <trkpt lat="47.03339" lon="3.02078">
        <ele>181.4</ele>
        <time>2024-05-08T05:55:27Z</time>
      </trkpt>
      <trkpt lat="47.03341" lon="3.02069">
        <ele>181.6</ele>
        <time>2024-05-08T05:55:28Z</time>
      </trkpt>
      <trkpt lat="47.03343" lon="3.02058">
        <ele>181.6</ele>
        <time>2024-05-08T05:55:29Z</time>
      </trkpt>
      <trkpt lat="47.0335" lon="3.02043">
        <ele>181.8</ele>
        <time>2024-05-08T05:55:31Z</time>
      </trkpt>
      <trkpt lat="47.03352" lon="3.02032">
        <ele>181.8</ele>
        <time>2024-05-08T05:55:32Z</time>
      </trkpt>
      <trkpt lat="47.03357" lon="3.02015">
        <ele>182.2</ele>
        <time>2024-05-08T05:55:34Z</time>
      </trkpt>
      <trkpt lat="47.03364" lon="3.01989">
        <ele>182.4</ele>
        <time>2024-05-08T05:55:37Z</time>
      </trkpt>
      <trkpt lat="47.03366" lon="3.01973">
        <ele>182.6</ele>
        <time>2024-05-08T05:55:39Z</time>
      </trkpt>
      <trkpt lat="47.03371" lon="3.01956">
        <ele>183</ele>
        <time>2024-05-08T05:55:41Z</time>
      </trkpt>
      <trkpt lat="47.03376" lon="3.01948">
        <ele>183</ele>
        <time>2024-05-08T05:55:42Z</time>
      </trkpt>
      <trkpt lat="47.03379" lon="3.0194">
        <ele>183.2</ele>
        <time>2024-05-08T05:55:43Z</time>
      </trkpt>
      <trkpt lat="47.03384" lon="3.01913">
        <ele>183.6</ele>
        <time>2024-05-08T05:55:46Z</time>
      </trkpt>
      <trkpt lat="47.03388" lon="3.01898">
        <ele>183.8</ele>
        <time>2024-05-08T05:55:48Z</time>
      </trkpt>
      <trkpt lat="47.034" lon="3.01862">
        <ele>184</ele>
        <time>2024-05-08T05:55:52Z</time>
      </trkpt>
      <trkpt lat="47.03422" lon="3.01785">
        <ele>184.2</ele>
        <time>2024-05-08T05:56:02Z</time>
      </trkpt>
      <trkpt lat="47.03431" lon="3.01754">
        <ele>184.6</ele>
        <time>2024-05-08T05:56:06Z</time>
      </trkpt>
      <trkpt lat="47.03438" lon="3.01731">
        <ele>184.8</ele>
        <time>2024-05-08T05:56:09Z</time>
      </trkpt>
      <trkpt lat="47.0344" lon="3.01723">
        <ele>184.8</ele>
        <time>2024-05-08T05:56:10Z</time>
      </trkpt>
      <trkpt lat="47.03456" lon="3.01663">
        <ele>185</ele>
        <time>2024-05-08T05:56:17Z</time>
      </trkpt>
      <trkpt lat="47.03462" lon="3.01639">
        <ele>185.2</ele>
        <time>2024-05-08T05:56:20Z</time>
      </trkpt>
      <trkpt lat="47.03467" lon="3.01623">
        <ele>185.4</ele>
        <time>2024-05-08T05:56:22Z</time>
      </trkpt>
      <trkpt lat="47.03468" lon="3.01615">
        <ele>185.4</ele>
        <time>2024-05-08T05:56:23Z</time>
      </trkpt>
      <trkpt lat="47.0347" lon="3.01607">
        <ele>185.6</ele>
        <time>2024-05-08T05:56:24Z</time>
      </trkpt>
      <trkpt lat="47.03475" lon="3.0159">
        <ele>185.8</ele>
        <time>2024-05-08T05:56:26Z</time>
      </trkpt>
      <trkpt lat="47.0348" lon="3.01574">
        <ele>186</ele>
        <time>2024-05-08T05:56:28Z</time>
      </trkpt>
      <trkpt lat="47.03492" lon="3.01534">
        <ele>186.4</ele>
        <time>2024-05-08T05:56:33Z</time>
      </trkpt>
      <trkpt lat="47.03498" lon="3.01509">
        <ele>186.8</ele>
        <time>2024-05-08T05:56:36Z</time>
      </trkpt>
      <trkpt lat="47.03503" lon="3.01483">
        <ele>187</ele>
        <time>2024-05-08T05:56:39Z</time>
      </trkpt>
      <trkpt lat="47.03507" lon="3.01467">
        <ele>187.2</ele>
        <time>2024-05-08T05:56:41Z</time>
      </trkpt>
      <trkpt lat="47.03512" lon="3.01452">
        <ele>187.4</ele>
        <time>2024-05-08T05:56:43Z</time>
      </trkpt>
      <trkpt lat="47.0352" lon="3.01424">
        <ele>187.4</ele>
        <time>2024-05-08T05:56:46Z</time>
      </trkpt>
      <trkpt lat="47.03535" lon="3.01368">
        <ele>187.2</ele>
        <time>2024-05-08T05:56:52Z</time>
      </trkpt>
      <trkpt lat="47.03551" lon="3.01313">
        <ele>186.4</ele>
        <time>2024-05-08T05:56:57Z</time>
      </trkpt>
      <trkpt lat="47.03564" lon="3.01266">
        <ele>185.4</ele>
        <time>2024-05-08T05:57:01Z</time>
      </trkpt>
      <trkpt lat="47.03574" lon="3.01228">
        <ele>184.6</ele>
        <time>2024-05-08T05:57:04Z</time>
      </trkpt>
      <trkpt lat="47.03577" lon="3.01216">
        <ele>184.2</ele>
        <time>2024-05-08T05:57:05Z</time>
      </trkpt>
      <trkpt lat="47.03591" lon="3.01164">
        <ele>183</ele>
        <time>2024-05-08T05:57:09Z</time>
      </trkpt>
      <trkpt lat="47.03598" lon="3.01141">
        <ele>182</ele>
        <time>2024-05-08T05:57:11Z</time>
      </trkpt>
      <trkpt lat="47.03602" lon="3.01126">
        <ele>181.4</ele>
        <time>2024-05-08T05:57:12Z</time>
      </trkpt>
      <trkpt lat="47.03618" lon="3.01068">
        <ele>180.6</ele>
        <time>2024-05-08T05:57:17Z</time>
      </trkpt>
      <trkpt lat="47.03632" lon="3.01022">
        <ele>180.8</ele>
        <time>2024-05-08T05:57:22Z</time>
      </trkpt>
      <trkpt lat="47.03647" lon="3.00967">
        <ele>182.4</ele>
        <time>2024-05-08T05:57:29Z</time>
      </trkpt>
      <trkpt lat="47.03649" lon="3.0096">
        <ele>182.6</ele>
        <time>2024-05-08T05:57:30Z</time>
      </trkpt>
      <trkpt lat="47.03653" lon="3.00945">
        <ele>183.4</ele>
        <time>2024-05-08T05:57:32Z</time>
      </trkpt>
      <trkpt lat="47.03657" lon="3.00931">
        <ele>184.2</ele>
        <time>2024-05-08T05:57:34Z</time>
      </trkpt>
      <trkpt lat="47.03661" lon="3.00917">
        <ele>184.8</ele>
        <time>2024-05-08T05:57:36Z</time>
      </trkpt>
      <trkpt lat="47.0367" lon="3.00889">
        <ele>186</ele>
        <time>2024-05-08T05:57:40Z</time>
      </trkpt>
      <trkpt lat="47.03672" lon="3.00882">
        <ele>186.2</ele>
        <time>2024-05-08T05:57:41Z</time>
      </trkpt>
      <trkpt lat="47.03681" lon="3.00853">
        <ele>187</ele>
        <time>2024-05-08T05:57:45Z</time>
      </trkpt>
      <trkpt lat="47.03687" lon="3.0083">
        <ele>187.8</ele>
        <time>2024-05-08T05:57:48Z</time>
      </trkpt>
      <trkpt lat="47.03689" lon="3.00822">
        <ele>188.2</ele>
        <time>2024-05-08T05:57:49Z</time>
      </trkpt>
      <trkpt lat="47.03703" lon="3.00775">
        <ele>189.2</ele>
        <time>2024-05-08T05:57:55Z</time>
      </trkpt>
      <trkpt lat="47.03724" lon="3.00705">
        <ele>189.6</ele>
        <time>2024-05-08T05:58:04Z</time>
      </trkpt>
      <trkpt lat="47.03735" lon="3.00666">
        <ele>190.2</ele>
        <time>2024-05-08T05:58:09Z</time>
      </trkpt>
      <trkpt lat="47.03746" lon="3.00628">
        <ele>190.8</ele>
        <time>2024-05-08T05:58:14Z</time>
      </trkpt>
      <trkpt lat="47.03755" lon="3.00595">
        <ele>191.2</ele>
        <time>2024-05-08T05:58:18Z</time>
      </trkpt>
      <trkpt lat="47.03765" lon="3.00562">
        <ele>191.6</ele>
        <time>2024-05-08T05:58:22Z</time>
      </trkpt>
      <trkpt lat="47.03782" lon="3.00503">
        <ele>192</ele>
        <time>2024-05-08T05:58:29Z</time>
      </trkpt>
      <trkpt lat="47.03798" lon="3.00443">
        <ele>192</ele>
        <time>2024-05-08T05:58:36Z</time>
      </trkpt>
      <trkpt lat="47.03811" lon="3.004">
        <ele>192</ele>
        <time>2024-05-08T05:58:41Z</time>
      </trkpt>
      <trkpt lat="47.03817" lon="3.00375">
        <ele>192.2</ele>
        <time>2024-05-08T05:58:44Z</time>
      </trkpt>
      <trkpt lat="47.03838" lon="3.00299">
        <ele>192.4</ele>
        <time>2024-05-08T05:58:53Z</time>
      </trkpt>
      <trkpt lat="47.03859" lon="3.00222">
        <ele>192.6</ele>
        <time>2024-05-08T05:59:02Z</time>
      </trkpt>
      <trkpt lat="47.03861" lon="3.00213">
        <ele>192.6</ele>
        <time>2024-05-08T05:59:03Z</time>
      </trkpt>
      <trkpt lat="47.03882" lon="3.00138">
        <ele>192.8</ele>
        <time>2024-05-08T05:59:12Z</time>
      </trkpt>
      <trkpt lat="47.03887" lon="3.00122">
        <ele>192.8</ele>
        <time>2024-05-08T05:59:14Z</time>
      </trkpt>
      <trkpt lat="47.03898" lon="3.00079">
        <ele>193</ele>
        <time>2024-05-08T05:59:19Z</time>
      </trkpt>
      <trkpt lat="47.03918" lon="3.00009">
        <ele>193.2</ele>
        <time>2024-05-08T05:59:27Z</time>
      </trkpt>
      <trkpt lat="47.03939" lon="2.99934">
        <ele>192.8</ele>
        <time>2024-05-08T05:59:35Z</time>
      </trkpt>
      <trkpt lat="47.03942" lon="2.99924">
        <ele>192.8</ele>
        <time>2024-05-08T05:59:36Z</time>
      </trkpt>
      <trkpt lat="47.03965" lon="2.99843">
        <ele>192.6</ele>
        <time>2024-05-08T05:59:45Z</time>
      </trkpt>
      <trkpt lat="47.03968" lon="2.99834">
        <ele>192.6</ele>
        <time>2024-05-08T05:59:46Z</time>
      </trkpt>
      <trkpt lat="47.03987" lon="2.99767">
        <ele>192.8</ele>
        <time>2024-05-08T05:59:53Z</time>
      </trkpt>
      <trkpt lat="47.04008" lon="2.99692">
        <ele>192.8</ele>
        <time>2024-05-08T06:00:01Z</time>
      </trkpt>
      <trkpt lat="47.04011" lon="2.99681">
        <ele>192.8</ele>
        <time>2024-05-08T06:00:02Z</time>
      </trkpt>
      <trkpt lat="47.04033" lon="2.99599">
        <ele>191.6</ele>
        <time>2024-05-08T06:00:10Z</time>
      </trkpt>
      <trkpt lat="47.04036" lon="2.99588">
        <ele>191.4</ele>
        <time>2024-05-08T06:00:11Z</time>
      </trkpt>
      <trkpt lat="47.04045" lon="2.99555">
        <ele>190.6</ele>
        <time>2024-05-08T06:00:14Z</time>
      </trkpt>
      <trkpt lat="47.04057" lon="2.99508">
        <ele>189.4</ele>
        <time>2024-05-08T06:00:18Z</time>
      </trkpt>
      <trkpt lat="47.0406" lon="2.99496">
        <ele>189</ele>
        <time>2024-05-08T06:00:19Z</time>
      </trkpt>
      <trkpt lat="47.04067" lon="2.99471">
        <ele>188</ele>
        <time>2024-05-08T06:00:21Z</time>
      </trkpt>
      <trkpt lat="47.04078" lon="2.99433">
        <ele>186.6</ele>
        <time>2024-05-08T06:00:24Z</time>
      </trkpt>
      <trkpt lat="47.04081" lon="2.9942">
        <ele>186.4</ele>
        <time>2024-05-08T06:00:25Z</time>
      </trkpt>
      <trkpt lat="47.04085" lon="2.99407">
        <ele>185.6</ele>
        <time>2024-05-08T06:00:26Z</time>
      </trkpt>
      <trkpt lat="47.04089" lon="2.99394">
        <ele>184.8</ele>
        <time>2024-05-08T06:00:27Z</time>
      </trkpt>
      <trkpt lat="47.04094" lon="2.99382">
        <ele>184.4</ele>
        <time>2024-05-08T06:00:28Z</time>
      </trkpt>
      <trkpt lat="47.041" lon="2.99371">
        <ele>183.8</ele>
        <time>2024-05-08T06:00:29Z</time>
      </trkpt>
      <trkpt lat="47.04113" lon="2.99351">
        <ele>182.8</ele>
        <time>2024-05-08T06:00:31Z</time>
      </trkpt>
      <trkpt lat="47.04128" lon="2.99336">
        <ele>182</ele>
        <time>2024-05-08T06:00:33Z</time>
      </trkpt>
      <trkpt lat="47.04136" lon="2.99328">
        <ele>181.4</ele>
        <time>2024-05-08T06:00:34Z</time>
      </trkpt>
      <trkpt lat="47.04159" lon="2.99307">
        <ele>180</ele>
        <time>2024-05-08T06:00:37Z</time>
      </trkpt>
      <trkpt lat="47.04183" lon="2.99286">
        <ele>179.2</ele>
        <time>2024-05-08T06:00:40Z</time>
      </trkpt>
      <trkpt lat="47.0419" lon="2.99279">
        <ele>178.6</ele>
        <time>2024-05-08T06:00:41Z</time>
      </trkpt>
      <trkpt lat="47.04197" lon="2.99272">
        <ele>178.2</ele>
        <time>2024-05-08T06:00:42Z</time>
      </trkpt>
      <trkpt lat="47.0421" lon="2.99255">
        <ele>177.2</ele>
        <time>2024-05-08T06:00:44Z</time>
      </trkpt>
      <trkpt lat="47.04216" lon="2.99245">
        <ele>177</ele>
        <time>2024-05-08T06:00:45Z</time>
      </trkpt>
      <trkpt lat="47.04227" lon="2.99226">
        <ele>176.2</ele>
        <time>2024-05-08T06:00:47Z</time>
      </trkpt>
      <trkpt lat="47.04248" lon="2.99186">
        <ele>175</ele>
        <time>2024-05-08T06:00:51Z</time>
      </trkpt>
      <trkpt lat="47.04258" lon="2.99167">
        <ele>174.6</ele>
        <time>2024-05-08T06:00:53Z</time>
      </trkpt>
      <trkpt lat="47.04268" lon="2.99147">
        <ele>174</ele>
        <time>2024-05-08T06:00:55Z</time>
      </trkpt>
      <trkpt lat="47.04278" lon="2.99128">
        <ele>173.4</ele>
        <time>2024-05-08T06:00:57Z</time>
      </trkpt>
      <trkpt lat="47.04285" lon="2.99121">
        <ele>173</ele>
        <time>2024-05-08T06:00:58Z</time>
      </trkpt>
      <trkpt lat="47.04293" lon="2.99117">
        <ele>172.8</ele>
        <time>2024-05-08T06:00:59Z</time>
      </trkpt>
      <trkpt lat="47.04301" lon="2.99115">
        <ele>172.6</ele>
        <time>2024-05-08T06:01:00Z</time>
      </trkpt>
      <trkpt lat="47.0431" lon="2.99118">
        <ele>172.4</ele>
        <time>2024-05-08T06:01:01Z</time>
      </trkpt>
      <trkpt lat="47.04325" lon="2.99129">
        <ele>171.2</ele>
        <time>2024-05-08T06:01:03Z</time>
      </trkpt>
      <trkpt lat="47.04348" lon="2.99148">
        <ele>169.8</ele>
        <time>2024-05-08T06:01:06Z</time>
      </trkpt>
      <trkpt lat="47.04355" lon="2.99151">
        <ele>169.6</ele>
        <time>2024-05-08T06:01:07Z</time>
      </trkpt>
      <trkpt lat="47.04363" lon="2.99153">
        <ele>169</ele>
        <time>2024-05-08T06:01:08Z</time>
      </trkpt>
      <trkpt lat="47.04372" lon="2.99152">
        <ele>168.6</ele>
        <time>2024-05-08T06:01:09Z</time>
      </trkpt>
      <trkpt lat="47.04387" lon="2.99144">
        <ele>168</ele>
        <time>2024-05-08T06:01:11Z</time>
      </trkpt>
      <trkpt lat="47.044" lon="2.99128">
        <ele>166.8</ele>
        <time>2024-05-08T06:01:13Z</time>
      </trkpt>
      <trkpt lat="47.04411" lon="2.99112">
        <ele>166</ele>
        <time>2024-05-08T06:01:15Z</time>
      </trkpt>
      <trkpt lat="47.04417" lon="2.99103">
        <ele>165.2</ele>
        <time>2024-05-08T06:01:16Z</time>
      </trkpt>
      <trkpt lat="47.04439" lon="2.99071">
        <ele>164.2</ele>
        <time>2024-05-08T06:01:20Z</time>
      </trkpt>
      <trkpt lat="47.04449" lon="2.99055">
        <ele>164</ele>
        <time>2024-05-08T06:01:22Z</time>
      </trkpt>
      <trkpt lat="47.04454" lon="2.99048">
        <ele>163.8</ele>
        <time>2024-05-08T06:01:23Z</time>
      </trkpt>
      <trkpt lat="47.04475" lon="2.99017">
        <ele>163.2</ele>
        <time>2024-05-08T06:01:27Z</time>
      </trkpt>
      <trkpt lat="47.04495" lon="2.98988">
        <ele>162.8</ele>
        <time>2024-05-08T06:01:31Z</time>
      </trkpt>
      <trkpt lat="47.04523" lon="2.98949">
        <ele>162.8</ele>
        <time>2024-05-08T06:01:37Z</time>
      </trkpt>
      <trkpt lat="47.04531" lon="2.9894">
        <ele>162.6</ele>
        <time>2024-05-08T06:01:39Z</time>
      </trkpt>
      <trkpt lat="47.04538" lon="2.9894">
        <ele>162.4</ele>
        <time>2024-05-08T06:01:41Z</time>
      </trkpt>
      <trkpt lat="47.04554" lon="2.98956">
        <ele>162.2</ele>
        <time>2024-05-08T06:01:45Z</time>
      </trkpt>
      <trkpt lat="47.04558" lon="2.9896">
        <ele>162.2</ele>
        <time>2024-05-08T06:01:46Z</time>
      </trkpt>
      <trkpt lat="47.04573" lon="2.98972">
        <ele>162.2</ele>
        <time>2024-05-08T06:01:49Z</time>
      </trkpt>
      <trkpt lat="47.04579" lon="2.98977">
        <ele>162.2</ele>
        <time>2024-05-08T06:01:50Z</time>
      </trkpt>
      <trkpt lat="47.04619" lon="2.99006">
        <ele>162.2</ele>
        <time>2024-05-08T06:01:57Z</time>
      </trkpt>
      <trkpt lat="47.04647" lon="2.99042">
        <ele>162.4</ele>
        <time>2024-05-08T06:02:03Z</time>
      </trkpt>
      <trkpt lat="47.0469" lon="2.991">
        <ele>162.4</ele>
        <time>2024-05-08T06:02:12Z</time>
      </trkpt>
      <trkpt lat="47.04695" lon="2.99107">
        <ele>162.4</ele>
        <time>2024-05-08T06:02:13Z</time>
      </trkpt>
      <trkpt lat="47.04729" lon="2.99153">
        <ele>162.2</ele>
        <time>2024-05-08T06:02:20Z</time>
      </trkpt>
      <trkpt lat="47.04735" lon="2.99156">
        <ele>162</ele>
        <time>2024-05-08T06:02:21Z</time>
      </trkpt>
      <trkpt lat="47.04741" lon="2.99156">
        <ele>162</ele>
        <time>2024-05-08T06:02:22Z</time>
      </trkpt>
      <trkpt lat="47.04752" lon="2.99149">
        <ele>161.8</ele>
        <time>2024-05-08T06:02:24Z</time>
      </trkpt>
      <trkpt lat="47.04779" lon="2.99112">
        <ele>162</ele>
        <time>2024-05-08T06:02:30Z</time>
      </trkpt>
      <trkpt lat="47.04788" lon="2.99099">
        <ele>162.2</ele>
        <time>2024-05-08T06:02:32Z</time>
      </trkpt>
      <trkpt lat="47.04795" lon="2.99087">
        <ele>162.4</ele>
        <time>2024-05-08T06:02:34Z</time>
      </trkpt>
      <trkpt lat="47.04799" lon="2.99081">
        <ele>162.6</ele>
        <time>2024-05-08T06:02:35Z</time>
      </trkpt>
      <trkpt lat="47.04829" lon="2.99042">
        <ele>163.2</ele>
        <time>2024-05-08T06:02:42Z</time>
      </trkpt>
      <trkpt lat="47.04866" lon="2.99009">
        <ele>163.6</ele>
        <time>2024-05-08T06:02:49Z</time>
      </trkpt>
      <trkpt lat="47.04901" lon="2.98993">
        <ele>164</ele>
        <time>2024-05-08T06:02:55Z</time>
      </trkpt>
      <trkpt lat="47.04936" lon="2.98979">
        <ele>164.2</ele>
        <time>2024-05-08T06:03:01Z</time>
      </trkpt>
      <trkpt lat="47.04966" lon="2.98967">
        <ele>164.6</ele>
        <time>2024-05-08T06:03:06Z</time>
      </trkpt>
      <trkpt lat="47.05021" lon="2.98944">
        <ele>164.8</ele>
        <time>2024-05-08T06:03:15Z</time>
      </trkpt>
      <trkpt lat="47.05026" lon="2.98942">
        <ele>164.8</ele>
        <time>2024-05-08T06:03:16Z</time>
      </trkpt>
      <trkpt lat="47.05062" lon="2.98927">
        <ele>165.2</ele>
        <time>2024-05-08T06:03:22Z</time>
      </trkpt>
      <trkpt lat="47.05097" lon="2.98912">
        <ele>166</ele>
        <time>2024-05-08T06:03:28Z</time>
      </trkpt>
      <trkpt lat="47.05118" lon="2.98905">
        <ele>166.2</ele>
        <time>2024-05-08T06:03:32Z</time>
      </trkpt>
      <trkpt lat="47.05129" lon="2.989">
        <ele>166.2</ele>
        <time>2024-05-08T06:03:34Z</time>
      </trkpt>
      <trkpt lat="47.05134" lon="2.98898">
        <ele>166.6</ele>
        <time>2024-05-08T06:03:35Z</time>
      </trkpt>
      <trkpt lat="47.0516" lon="2.98887">
        <ele>167.4</ele>
        <time>2024-05-08T06:03:40Z</time>
      </trkpt>
      <trkpt lat="47.05171" lon="2.98883">
        <ele>168</ele>
        <time>2024-05-08T06:03:42Z</time>
      </trkpt>
      <trkpt lat="47.05186" lon="2.98876">
        <ele>168.6</ele>
        <time>2024-05-08T06:03:45Z</time>
      </trkpt>
      <trkpt lat="47.05201" lon="2.98868">
        <ele>169.2</ele>
        <time>2024-05-08T06:03:48Z</time>
      </trkpt>
      <trkpt lat="47.05228" lon="2.98846">
        <ele>169.4</ele>
        <time>2024-05-08T06:03:53Z</time>
      </trkpt>
      <trkpt lat="47.0526" lon="2.98808">
        <ele>169</ele>
        <time>2024-05-08T06:03:59Z</time>
      </trkpt>
      <trkpt lat="47.05288" lon="2.98757">
        <ele>168.6</ele>
        <time>2024-05-08T06:04:06Z</time>
      </trkpt>
      <trkpt lat="47.05312" lon="2.98693">
        <ele>168.6</ele>
        <time>2024-05-08T06:04:14Z</time>
      </trkpt>
      <trkpt lat="47.05333" lon="2.98632">
        <ele>169</ele>
        <time>2024-05-08T06:04:22Z</time>
      </trkpt>
      <trkpt lat="47.05353" lon="2.98588">
        <ele>169.4</ele>
        <time>2024-05-08T06:04:28Z</time>
      </trkpt>
      <trkpt lat="47.05356" lon="2.98581">
        <ele>169.4</ele>
        <time>2024-05-08T06:04:29Z</time>
      </trkpt>
      <trkpt lat="47.05372" lon="2.98547">
        <ele>169.6</ele>
        <time>2024-05-08T06:04:34Z</time>
      </trkpt>
      <trkpt lat="47.05382" lon="2.98523">
        <ele>169.8</ele>
        <time>2024-05-08T06:04:37Z</time>
      </trkpt>
      <trkpt lat="47.05386" lon="2.98516">
        <ele>169.8</ele>
        <time>2024-05-08T06:04:38Z</time>
      </trkpt>
      <trkpt lat="47.05389" lon="2.9851">
        <ele>169.8</ele>
        <time>2024-05-08T06:04:39Z</time>
      </trkpt>
      <trkpt lat="47.05397" lon="2.98495">
        <ele>169.8</ele>
        <time>2024-05-08T06:04:41Z</time>
      </trkpt>
      <trkpt lat="47.05406" lon="2.98481">
        <ele>170</ele>
        <time>2024-05-08T06:04:43Z</time>
      </trkpt>
      <trkpt lat="47.0542" lon="2.98464">
        <ele>170</ele>
        <time>2024-05-08T06:04:46Z</time>
      </trkpt>
      <trkpt lat="47.05431" lon="2.98455">
        <ele>170.2</ele>
        <time>2024-05-08T06:04:48Z</time>
      </trkpt>
      <trkpt lat="47.05477" lon="2.98431">
        <ele>171</ele>
        <time>2024-05-08T06:04:56Z</time>
      </trkpt>
      <trkpt lat="47.05512" lon="2.98416">
        <ele>171.2</ele>
        <time>2024-05-08T06:05:02Z</time>
      </trkpt>
      <trkpt lat="47.0553" lon="2.98409">
        <ele>171.6</ele>
        <time>2024-05-08T06:05:05Z</time>
      </trkpt>
      <trkpt lat="47.05557" lon="2.984">
        <ele>172</ele>
        <time>2024-05-08T06:05:10Z</time>
      </trkpt>
      <trkpt lat="47.05561" lon="2.98399">
        <ele>172.2</ele>
        <time>2024-05-08T06:05:11Z</time>
      </trkpt>
      <trkpt lat="47.05564" lon="2.98397">
        <ele>172.4</ele>
        <time>2024-05-08T06:05:12Z</time>
      </trkpt>
      <trkpt lat="47.05576" lon="2.9839">
        <ele>173</ele>
        <time>2024-05-08T06:05:15Z</time>
      </trkpt>
      <trkpt lat="47.05582" lon="2.98387">
        <ele>173.2</ele>
        <time>2024-05-08T06:05:17Z</time>
      </trkpt>
      <trkpt lat="47.05596" lon="2.98378">
        <ele>173.8</ele>
        <time>2024-05-08T06:05:20Z</time>
      </trkpt>
      <trkpt lat="47.05601" lon="2.98373">
        <ele>174</ele>
        <time>2024-05-08T06:05:21Z</time>
      </trkpt>
      <trkpt lat="47.05611" lon="2.98362">
        <ele>174.2</ele>
        <time>2024-05-08T06:05:23Z</time>
      </trkpt>
      <trkpt lat="47.05619" lon="2.9835">
        <ele>174.6</ele>
        <time>2024-05-08T06:05:25Z</time>
      </trkpt>
      <trkpt lat="47.05622" lon="2.98345">
        <ele>175</ele>
        <time>2024-05-08T06:05:26Z</time>
      </trkpt>
      <trkpt lat="47.0563" lon="2.98331">
        <ele>175.2</ele>
        <time>2024-05-08T06:05:28Z</time>
      </trkpt>
      <trkpt lat="47.05632" lon="2.98325">
        <ele>175.4</ele>
        <time>2024-05-08T06:05:29Z</time>
      </trkpt>
      <trkpt lat="47.05635" lon="2.98319">
        <ele>175.4</ele>
        <time>2024-05-08T06:05:30Z</time>
      </trkpt>
      <trkpt lat="47.05642" lon="2.98308">
        <ele>175.8</ele>
        <time>2024-05-08T06:05:32Z</time>
      </trkpt>
      <trkpt lat="47.05652" lon="2.98288">
        <ele>176.2</ele>
        <time>2024-05-08T06:05:35Z</time>
      </trkpt>
      <trkpt lat="47.05655" lon="2.9828">
        <ele>176.4</ele>
        <time>2024-05-08T06:05:36Z</time>
      </trkpt>
      <trkpt lat="47.05659" lon="2.98272">
        <ele>176.4</ele>
        <time>2024-05-08T06:05:37Z</time>
      </trkpt>
      <trkpt lat="47.05665" lon="2.98259">
        <ele>176.8</ele>
        <time>2024-05-08T06:05:39Z</time>
      </trkpt>
      <trkpt lat="47.05677" lon="2.9824">
        <ele>177.2</ele>
        <time>2024-05-08T06:05:42Z</time>
      </trkpt>
      <trkpt lat="47.05685" lon="2.98228">
        <ele>177.4</ele>
        <time>2024-05-08T06:05:44Z</time>
      </trkpt>
      <trkpt lat="47.05692" lon="2.98218">
        <ele>177.8</ele>
        <time>2024-05-08T06:05:46Z</time>
      </trkpt>
      <trkpt lat="47.05701" lon="2.98206">
        <ele>178</ele>
        <time>2024-05-08T06:05:48Z</time>
      </trkpt>
      <trkpt lat="47.05715" lon="2.98195">
        <ele>178.6</ele>
        <time>2024-05-08T06:05:51Z</time>
      </trkpt>
      <trkpt lat="47.05733" lon="2.98185">
        <ele>179.4</ele>
        <time>2024-05-08T06:05:55Z</time>
      </trkpt>
      <trkpt lat="47.05739" lon="2.98183">
        <ele>179.8</ele>
        <time>2024-05-08T06:05:56Z</time>
      </trkpt>
      <trkpt lat="47.05756" lon="2.9818">
        <ele>180.4</ele>
        <time>2024-05-08T06:06:00Z</time>
      </trkpt>
      <trkpt lat="47.05761" lon="2.98179">
        <ele>180.8</ele>
        <time>2024-05-08T06:06:01Z</time>
      </trkpt>
      <trkpt lat="47.05783" lon="2.98175">
        <ele>181.8</ele>
        <time>2024-05-08T06:06:06Z</time>
      </trkpt>
      <trkpt lat="47.05798" lon="2.98172">
        <ele>183</ele>
        <time>2024-05-08T06:06:10Z</time>
      </trkpt>
      <trkpt lat="47.05807" lon="2.98171">
        <ele>183.4</ele>
        <time>2024-05-08T06:06:12Z</time>
      </trkpt>
      <trkpt lat="47.05814" lon="2.9817">
        <ele>184</ele>
        <time>2024-05-08T06:06:14Z</time>
      </trkpt>
      <trkpt lat="47.0582" lon="2.98169">
        <ele>184.4</ele>
        <time>2024-05-08T06:06:15Z</time>
      </trkpt>
      <trkpt lat="47.05832" lon="2.98168">
        <ele>185</ele>
        <time>2024-05-08T06:06:18Z</time>
      </trkpt>
      <trkpt lat="47.05838" lon="2.98168">
        <ele>185.2</ele>
        <time>2024-05-08T06:06:19Z</time>
      </trkpt>
      <trkpt lat="47.05843" lon="2.98167">
        <ele>185.4</ele>
        <time>2024-05-08T06:06:20Z</time>
      </trkpt>
      <trkpt lat="47.05868" lon="2.98161">
        <ele>185.8</ele>
        <time>2024-05-08T06:06:24Z</time>
      </trkpt>
      <trkpt lat="47.05873" lon="2.9816">
        <ele>186</ele>
        <time>2024-05-08T06:06:25Z</time>
      </trkpt>
      <trkpt lat="47.05896" lon="2.98157">
        <ele>186.6</ele>
        <time>2024-05-08T06:06:29Z</time>
      </trkpt>
      <trkpt lat="47.05902" lon="2.98156">
        <ele>186.6</ele>
        <time>2024-05-08T06:06:30Z</time>
      </trkpt>
      <trkpt lat="47.05919" lon="2.98156">
        <ele>187</ele>
        <time>2024-05-08T06:06:33Z</time>
      </trkpt>
      <trkpt lat="47.0593" lon="2.98154">
        <ele>187.2</ele>
        <time>2024-05-08T06:06:35Z</time>
      </trkpt>
      <trkpt lat="47.05967" lon="2.98147">
        <ele>187.6</ele>
        <time>2024-05-08T06:06:42Z</time>
      </trkpt>
      <trkpt lat="47.05977" lon="2.98145">
        <ele>187.6</ele>
        <time>2024-05-08T06:06:44Z</time>
      </trkpt>
      <trkpt lat="47.05993" lon="2.98144">
        <ele>187.8</ele>
        <time>2024-05-08T06:06:47Z</time>
      </trkpt>
      <trkpt lat="47.06018" lon="2.98141">
        <ele>188</ele>
        <time>2024-05-08T06:06:52Z</time>
      </trkpt>
      <trkpt lat="47.06023" lon="2.9814">
        <ele>188.2</ele>
        <time>2024-05-08T06:06:53Z</time>
      </trkpt>
      <trkpt lat="47.06046" lon="2.98136">
        <ele>188.4</ele>
        <time>2024-05-08T06:06:57Z</time>
      </trkpt>
      <trkpt lat="47.06083" lon="2.98128">
        <ele>188.2</ele>
        <time>2024-05-08T06:07:03Z</time>
      </trkpt>
      <trkpt lat="47.0609" lon="2.98126">
        <ele>188.4</ele>
        <time>2024-05-08T06:07:04Z</time>
      </trkpt>
      <trkpt lat="47.06117" lon="2.98122">
        <ele>188.4</ele>
        <time>2024-05-08T06:07:08Z</time>
      </trkpt>
      <trkpt lat="47.06137" lon="2.98121">
        <ele>188.4</ele>
        <time>2024-05-08T06:07:10Z</time>
      </trkpt>
      <trkpt lat="47.06158" lon="2.98117">
        <ele>188.4</ele>
        <time>2024-05-08T06:07:13Z</time>
      </trkpt>
      <trkpt lat="47.06196" lon="2.9811">
        <ele>188.2</ele>
        <time>2024-05-08T06:07:19Z</time>
      </trkpt>
      <trkpt lat="47.06205" lon="2.98109">
        <ele>188</ele>
        <time>2024-05-08T06:07:20Z</time>
      </trkpt>
      <trkpt lat="47.06232" lon="2.98104">
        <ele>188</ele>
        <time>2024-05-08T06:07:24Z</time>
      </trkpt>
      <trkpt lat="47.06263" lon="2.98101">
        <ele>187.8</ele>
        <time>2024-05-08T06:07:29Z</time>
      </trkpt>
      <trkpt lat="47.06312" lon="2.98096">
        <ele>187.6</ele>
        <time>2024-05-08T06:07:35Z</time>
      </trkpt>
      <trkpt lat="47.06316" lon="2.98096">
        <ele>187.4</ele>
        <time>2024-05-08T06:07:36Z</time>
      </trkpt>
      <trkpt lat="47.06333" lon="2.98092">
        <ele>187.2</ele>
        <time>2024-05-08T06:07:39Z</time>
      </trkpt>
      <trkpt lat="47.06348" lon="2.98087">
        <ele>187.2</ele>
        <time>2024-05-08T06:07:41Z</time>
      </trkpt>
      <trkpt lat="47.0636" lon="2.98078">
        <ele>186.8</ele>
        <time>2024-05-08T06:07:43Z</time>
      </trkpt>
      <trkpt lat="47.06372" lon="2.98065">
        <ele>186.8</ele>
        <time>2024-05-08T06:07:45Z</time>
      </trkpt>
      <trkpt lat="47.06383" lon="2.98049">
        <ele>186.8</ele>
        <time>2024-05-08T06:07:47Z</time>
      </trkpt>
      <trkpt lat="47.06387" lon="2.98042">
        <ele>186.8</ele>
        <time>2024-05-08T06:07:48Z</time>
      </trkpt>
      <trkpt lat="47.06392" lon="2.98034">
        <ele>186.6</ele>
        <time>2024-05-08T06:07:49Z</time>
      </trkpt>
      <trkpt lat="47.06416" lon="2.97997">
        <ele>186.6</ele>
        <time>2024-05-08T06:07:54Z</time>
      </trkpt>
      <trkpt lat="47.06449" lon="2.97949">
        <ele>186.6</ele>
        <time>2024-05-08T06:08:01Z</time>
      </trkpt>
      <trkpt lat="47.06464" lon="2.97931">
        <ele>186.8</ele>
        <time>2024-05-08T06:08:04Z</time>
      </trkpt>
      <trkpt lat="47.06476" lon="2.97909">
        <ele>186.8</ele>
        <time>2024-05-08T06:08:07Z</time>
      </trkpt>
      <trkpt lat="47.06505" lon="2.97859">
        <ele>187</ele>
        <time>2024-05-08T06:08:14Z</time>
      </trkpt>
      <trkpt lat="47.06532" lon="2.97817">
        <ele>187</ele>
        <time>2024-05-08T06:08:20Z</time>
      </trkpt>
      <trkpt lat="47.06562" lon="2.97769">
        <ele>187.4</ele>
        <time>2024-05-08T06:08:27Z</time>
      </trkpt>
      <trkpt lat="47.06596" lon="2.97716">
        <ele>187.8</ele>
        <time>2024-05-08T06:08:35Z</time>
      </trkpt>
      <trkpt lat="47.06623" lon="2.97677">
        <ele>187.6</ele>
        <time>2024-05-08T06:08:41Z</time>
      </trkpt>
      <trkpt lat="47.06651" lon="2.97632">
        <ele>187.4</ele>
        <time>2024-05-08T06:08:47Z</time>
      </trkpt>
      <trkpt lat="47.06656" lon="2.97624">
        <ele>187.2</ele>
        <time>2024-05-08T06:08:48Z</time>
      </trkpt>
      <trkpt lat="47.06689" lon="2.97574">
        <ele>186.2</ele>
        <time>2024-05-08T06:08:54Z</time>
      </trkpt>
      <trkpt lat="47.0672" lon="2.9753">
        <ele>185</ele>
        <time>2024-05-08T06:08:59Z</time>
      </trkpt>
      <trkpt lat="47.06733" lon="2.97513">
        <ele>184.2</ele>
        <time>2024-05-08T06:09:01Z</time>
      </trkpt>
      <trkpt lat="47.06741" lon="2.97504">
        <ele>184</ele>
        <time>2024-05-08T06:09:02Z</time>
      </trkpt>
      <trkpt lat="47.06763" lon="2.97478">
        <ele>182.4</ele>
        <time>2024-05-08T06:09:05Z</time>
      </trkpt>
      <trkpt lat="47.06779" lon="2.97461">
        <ele>181.4</ele>
        <time>2024-05-08T06:09:07Z</time>
      </trkpt>
      <trkpt lat="47.06787" lon="2.97453">
        <ele>181</ele>
        <time>2024-05-08T06:09:08Z</time>
      </trkpt>
      <trkpt lat="47.06809" lon="2.97435">
        <ele>180</ele>
        <time>2024-05-08T06:09:11Z</time>
      </trkpt>
      <trkpt lat="47.06816" lon="2.9743">
        <ele>179.8</ele>
        <time>2024-05-08T06:09:12Z</time>
      </trkpt>
      <trkpt lat="47.06848" lon="2.97411">
        <ele>180.2</ele>
        <time>2024-05-08T06:09:17Z</time>
      </trkpt>
      <trkpt lat="47.06869" lon="2.97397">
        <ele>181</ele>
        <time>2024-05-08T06:09:21Z</time>
      </trkpt>
      <trkpt lat="47.0688" lon="2.97391">
        <ele>181.8</ele>
        <time>2024-05-08T06:09:23Z</time>
      </trkpt>
      <trkpt lat="47.06885" lon="2.97387">
        <ele>182.2</ele>
        <time>2024-05-08T06:09:24Z</time>
      </trkpt>
      <trkpt lat="47.06904" lon="2.97375">
        <ele>183.4</ele>
        <time>2024-05-08T06:09:28Z</time>
      </trkpt>
      <trkpt lat="47.06908" lon="2.97372">
        <ele>183.6</ele>
        <time>2024-05-08T06:09:29Z</time>
      </trkpt>
      <trkpt lat="47.06923" lon="2.97363">
        <ele>184.2</ele>
        <time>2024-05-08T06:09:32Z</time>
      </trkpt>
      <trkpt lat="47.06941" lon="2.97352">
        <ele>184.6</ele>
        <time>2024-05-08T06:09:35Z</time>
      </trkpt>
      <trkpt lat="47.06953" lon="2.97344">
        <ele>184.6</ele>
        <time>2024-05-08T06:09:37Z</time>
      </trkpt>
      <trkpt lat="47.06965" lon="2.97334">
        <ele>184.6</ele>
        <time>2024-05-08T06:09:39Z</time>
      </trkpt>
      <trkpt lat="47.07002" lon="2.97308">
        <ele>184.6</ele>
        <time>2024-05-08T06:09:45Z</time>
      </trkpt>
      <trkpt lat="47.07014" lon="2.973">
        <ele>184.4</ele>
        <time>2024-05-08T06:09:47Z</time>
      </trkpt>
      <trkpt lat="47.07027" lon="2.97287">
        <ele>184.4</ele>
        <time>2024-05-08T06:09:49Z</time>
      </trkpt>
      <trkpt lat="47.07032" lon="2.97279">
        <ele>184.4</ele>
        <time>2024-05-08T06:09:50Z</time>
      </trkpt>
      <trkpt lat="47.07051" lon="2.97252">
        <ele>184.2</ele>
        <time>2024-05-08T06:09:53Z</time>
      </trkpt>
      <trkpt lat="47.07063" lon="2.97234">
        <ele>184</ele>
        <time>2024-05-08T06:09:55Z</time>
      </trkpt>
      <trkpt lat="47.07083" lon="2.97195">
        <ele>183.2</ele>
        <time>2024-05-08T06:09:59Z</time>
      </trkpt>
      <trkpt lat="47.07091" lon="2.97187">
        <ele>183.2</ele>
        <time>2024-05-08T06:10:00Z</time>
      </trkpt>
      <trkpt lat="47.07104" lon="2.97161">
        <ele>182.4</ele>
        <time>2024-05-08T06:10:03Z</time>
      </trkpt>
      <trkpt lat="47.0711" lon="2.9714">
        <ele>182.4</ele>
        <time>2024-05-08T06:10:05Z</time>
      </trkpt>
      <trkpt lat="47.07112" lon="2.97131">
        <ele>182.2</ele>
        <time>2024-05-08T06:10:06Z</time>
      </trkpt>
      <trkpt lat="47.07122" lon="2.97106">
        <ele>182.6</ele>
        <time>2024-05-08T06:10:09Z</time>
      </trkpt>
      <trkpt lat="47.07134" lon="2.97085">
        <ele>182.6</ele>
        <time>2024-05-08T06:10:12Z</time>
      </trkpt>
      <trkpt lat="47.07139" lon="2.97078">
        <ele>182.8</ele>
        <time>2024-05-08T06:10:13Z</time>
      </trkpt>
      <trkpt lat="47.07162" lon="2.9704">
        <ele>183.8</ele>
        <time>2024-05-08T06:10:19Z</time>
      </trkpt>
      <trkpt lat="47.07166" lon="2.97032">
        <ele>184</ele>
        <time>2024-05-08T06:10:20Z</time>
      </trkpt>
      <trkpt lat="47.07172" lon="2.97016">
        <ele>184.2</ele>
        <time>2024-05-08T06:10:22Z</time>
      </trkpt>
      <trkpt lat="47.07181" lon="2.9699">
        <ele>184.2</ele>
        <time>2024-05-08T06:10:25Z</time>
      </trkpt>
      <trkpt lat="47.07184" lon="2.96982">
        <ele>184.2</ele>
        <time>2024-05-08T06:10:26Z</time>
      </trkpt>
      <trkpt lat="47.07188" lon="2.96974">
        <ele>184.2</ele>
        <time>2024-05-08T06:10:27Z</time>
      </trkpt>
      <trkpt lat="47.07193" lon="2.96967">
        <ele>184.2</ele>
        <time>2024-05-08T06:10:28Z</time>
      </trkpt>
      <trkpt lat="47.07202" lon="2.96955">
        <ele>184.2</ele>
        <time>2024-05-08T06:10:30Z</time>
      </trkpt>
      <trkpt lat="47.07212" lon="2.96934">
        <ele>184.4</ele>
        <time>2024-05-08T06:10:33Z</time>
      </trkpt>
      <trkpt lat="47.07216" lon="2.96916">
        <ele>184.4</ele>
        <time>2024-05-08T06:10:35Z</time>
      </trkpt>
      <trkpt lat="47.07229" lon="2.96876">
        <ele>185</ele>
        <time>2024-05-08T06:10:40Z</time>
      </trkpt>
      <trkpt lat="47.07232" lon="2.96869">
        <ele>185.2</ele>
        <time>2024-05-08T06:10:41Z</time>
      </trkpt>
      <trkpt lat="47.07236" lon="2.96862">
        <ele>185.4</ele>
        <time>2024-05-08T06:10:42Z</time>
      </trkpt>
      <trkpt lat="47.07241" lon="2.96846">
        <ele>185.6</ele>
        <time>2024-05-08T06:10:44Z</time>
      </trkpt>
      <trkpt lat="47.07245" lon="2.96838">
        <ele>185.6</ele>
        <time>2024-05-08T06:10:45Z</time>
      </trkpt>
      <trkpt lat="47.0725" lon="2.96832">
        <ele>185.6</ele>
        <time>2024-05-08T06:10:46Z</time>
      </trkpt>
      <trkpt lat="47.07267" lon="2.96803">
        <ele>186.2</ele>
        <time>2024-05-08T06:10:50Z</time>
      </trkpt>
      <trkpt lat="47.07269" lon="2.96795">
        <ele>186.4</ele>
        <time>2024-05-08T06:10:51Z</time>
      </trkpt>
      <trkpt lat="47.07272" lon="2.96787">
        <ele>186.4</ele>
        <time>2024-05-08T06:10:52Z</time>
      </trkpt>
      <trkpt lat="47.07276" lon="2.96779">
        <ele>186.4</ele>
        <time>2024-05-08T06:10:53Z</time>
      </trkpt>
      <trkpt lat="47.0728" lon="2.96771">
        <ele>186.6</ele>
        <time>2024-05-08T06:10:54Z</time>
      </trkpt>
      <trkpt lat="47.07292" lon="2.96746">
        <ele>186.6</ele>
        <time>2024-05-08T06:10:57Z</time>
      </trkpt>
      <trkpt lat="47.073" lon="2.9673">
        <ele>186.8</ele>
        <time>2024-05-08T06:10:59Z</time>
      </trkpt>
      <trkpt lat="47.07302" lon="2.96722">
        <ele>186.6</ele>
        <time>2024-05-08T06:11:00Z</time>
      </trkpt>
      <trkpt lat="47.07306" lon="2.96715">
        <ele>186.6</ele>
        <time>2024-05-08T06:11:01Z</time>
      </trkpt>
      <trkpt lat="47.07309" lon="2.96699">
        <ele>186.6</ele>
        <time>2024-05-08T06:11:03Z</time>
      </trkpt>
      <trkpt lat="47.07318" lon="2.96682">
        <ele>186.8</ele>
        <time>2024-05-08T06:11:05Z</time>
      </trkpt>
      <trkpt lat="47.07334" lon="2.96649">
        <ele>186.8</ele>
        <time>2024-05-08T06:11:09Z</time>
      </trkpt>
      <trkpt lat="47.07341" lon="2.96631">
        <ele>186.8</ele>
        <time>2024-05-08T06:11:11Z</time>
      </trkpt>
      <trkpt lat="47.07362" lon="2.96578">
        <ele>186.6</ele>
        <time>2024-05-08T06:11:17Z</time>
      </trkpt>
      <trkpt lat="47.07387" lon="2.96533">
        <ele>186.6</ele>
        <time>2024-05-08T06:11:23Z</time>
      </trkpt>
      <trkpt lat="47.07399" lon="2.96502">
        <ele>186.8</ele>
        <time>2024-05-08T06:11:27Z</time>
      </trkpt>
      <trkpt lat="47.07406" lon="2.96485">
        <ele>186.8</ele>
        <time>2024-05-08T06:11:29Z</time>
      </trkpt>
      <trkpt lat="47.07418" lon="2.96458">
        <ele>187.2</ele>
        <time>2024-05-08T06:11:32Z</time>
      </trkpt>
      <trkpt lat="47.07421" lon="2.96449">
        <ele>187.2</ele>
        <time>2024-05-08T06:11:33Z</time>
      </trkpt>
      <trkpt lat="47.07445" lon="2.96402">
        <ele>187.2</ele>
        <time>2024-05-08T06:11:39Z</time>
      </trkpt>
      <trkpt lat="47.07454" lon="2.96387">
        <ele>187.2</ele>
        <time>2024-05-08T06:11:41Z</time>
      </trkpt>
      <trkpt lat="47.0747" lon="2.96355">
        <ele>187</ele>
        <time>2024-05-08T06:11:45Z</time>
      </trkpt>
      <trkpt lat="47.07483" lon="2.96332">
        <ele>187</ele>
        <time>2024-05-08T06:11:48Z</time>
      </trkpt>
      <trkpt lat="47.07491" lon="2.96315">
        <ele>186.8</ele>
        <time>2024-05-08T06:11:50Z</time>
      </trkpt>
      <trkpt lat="47.07495" lon="2.96307">
        <ele>186.8</ele>
        <time>2024-05-08T06:11:51Z</time>
      </trkpt>
      <trkpt lat="47.07499" lon="2.96298">
        <ele>186.8</ele>
        <time>2024-05-08T06:11:52Z</time>
      </trkpt>
      <trkpt lat="47.0751" lon="2.96271">
        <ele>186.8</ele>
        <time>2024-05-08T06:11:55Z</time>
      </trkpt>
      <trkpt lat="47.07515" lon="2.96263">
        <ele>186.8</ele>
        <time>2024-05-08T06:11:56Z</time>
      </trkpt>
      <trkpt lat="47.07546" lon="2.96192">
        <ele>186.6</ele>
        <time>2024-05-08T06:12:04Z</time>
      </trkpt>
      <trkpt lat="47.07549" lon="2.96183">
        <ele>186.6</ele>
        <time>2024-05-08T06:12:05Z</time>
      </trkpt>
      <trkpt lat="47.07563" lon="2.96145">
        <ele>186.6</ele>
        <time>2024-05-08T06:12:09Z</time>
      </trkpt>
      <trkpt lat="47.07576" lon="2.96117">
        <ele>186.8</ele>
        <time>2024-05-08T06:12:12Z</time>
      </trkpt>
      <trkpt lat="47.07608" lon="2.9605">
        <ele>186.8</ele>
        <time>2024-05-08T06:12:20Z</time>
      </trkpt>
      <trkpt lat="47.07629" lon="2.96008">
        <ele>186.6</ele>
        <time>2024-05-08T06:12:25Z</time>
      </trkpt>
      <trkpt lat="47.07634" lon="2.96">
        <ele>186.6</ele>
        <time>2024-05-08T06:12:26Z</time>
      </trkpt>
      <trkpt lat="47.07657" lon="2.9596">
        <ele>186.6</ele>
        <time>2024-05-08T06:12:31Z</time>
      </trkpt>
      <trkpt lat="47.07685" lon="2.95912">
        <ele>186.4</ele>
        <time>2024-05-08T06:12:37Z</time>
      </trkpt>
      <trkpt lat="47.07703" lon="2.95882">
        <ele>186.4</ele>
        <time>2024-05-08T06:12:41Z</time>
      </trkpt>
      <trkpt lat="47.07708" lon="2.95874">
        <ele>186.4</ele>
        <time>2024-05-08T06:12:42Z</time>
      </trkpt>
      <trkpt lat="47.07725" lon="2.95843">
        <ele>186.4</ele>
        <time>2024-05-08T06:12:46Z</time>
      </trkpt>
      <trkpt lat="47.07728" lon="2.95834">
        <ele>186.4</ele>
        <time>2024-05-08T06:12:47Z</time>
      </trkpt>
      <trkpt lat="47.07737" lon="2.95787">
        <ele>186.6</ele>
        <time>2024-05-08T06:12:52Z</time>
      </trkpt>
      <trkpt lat="47.07739" lon="2.95755">
        <ele>186.6</ele>
        <time>2024-05-08T06:12:55Z</time>
      </trkpt>
      <trkpt lat="47.07741" lon="2.95746">
        <ele>186.6</ele>
        <time>2024-05-08T06:12:56Z</time>
      </trkpt>
      <trkpt lat="47.07745" lon="2.95713">
        <ele>186.6</ele>
        <time>2024-05-08T06:12:59Z</time>
      </trkpt>
      <trkpt lat="47.0775" lon="2.95688">
        <ele>186.4</ele>
        <time>2024-05-08T06:13:01Z</time>
      </trkpt>
      <trkpt lat="47.0776" lon="2.95619">
        <ele>186</ele>
        <time>2024-05-08T06:13:08Z</time>
      </trkpt>
      <trkpt lat="47.0777" lon="2.95571">
        <ele>185.8</ele>
        <time>2024-05-08T06:13:13Z</time>
      </trkpt>
      <trkpt lat="47.07775" lon="2.95529">
        <ele>185.8</ele>
        <time>2024-05-08T06:13:17Z</time>
      </trkpt>
      <trkpt lat="47.07776" lon="2.95519">
        <ele>185.6</ele>
        <time>2024-05-08T06:13:18Z</time>
      </trkpt>
      <trkpt lat="47.07778" lon="2.9551">
        <ele>185.6</ele>
        <time>2024-05-08T06:13:19Z</time>
      </trkpt>
      <trkpt lat="47.07781" lon="2.9549">
        <ele>185.6</ele>
        <time>2024-05-08T06:13:21Z</time>
      </trkpt>
      <trkpt lat="47.07788" lon="2.95452">
        <ele>185.6</ele>
        <time>2024-05-08T06:13:25Z</time>
      </trkpt>
      <trkpt lat="47.0779" lon="2.95437">
        <ele>185.6</ele>
        <time>2024-05-08T06:13:27Z</time>
      </trkpt>
      <trkpt lat="47.07792" lon="2.95431">
        <ele>185.6</ele>
        <time>2024-05-08T06:13:28Z</time>
      </trkpt>
      <trkpt lat="47.078" lon="2.95405">
        <ele>185.4</ele>
        <time>2024-05-08T06:13:31Z</time>
      </trkpt>
      <trkpt lat="47.07803" lon="2.95394">
        <ele>185.4</ele>
        <time>2024-05-08T06:13:32Z</time>
      </trkpt>
      <trkpt lat="47.07813" lon="2.9535">
        <ele>185.4</ele>
        <time>2024-05-08T06:13:36Z</time>
      </trkpt>
      <trkpt lat="47.07822" lon="2.95317">
        <ele>185.4</ele>
        <time>2024-05-08T06:13:39Z</time>
      </trkpt>
      <trkpt lat="47.07827" lon="2.95296">
        <ele>185.4</ele>
        <time>2024-05-08T06:13:41Z</time>
      </trkpt>
      <trkpt lat="47.07849" lon="2.9522">
        <ele>185.4</ele>
        <time>2024-05-08T06:13:49Z</time>
      </trkpt>
      <trkpt lat="47.07852" lon="2.9521">
        <ele>185.4</ele>
        <time>2024-05-08T06:13:50Z</time>
      </trkpt>
      <trkpt lat="47.07871" lon="2.95143">
        <ele>185.2</ele>
        <time>2024-05-08T06:13:57Z</time>
      </trkpt>
      <trkpt lat="47.07893" lon="2.95067">
        <ele>184.8</ele>
        <time>2024-05-08T06:14:05Z</time>
      </trkpt>
      <trkpt lat="47.07902" lon="2.95039">
        <ele>184.6</ele>
        <time>2024-05-08T06:14:08Z</time>
      </trkpt>
      <trkpt lat="47.07911" lon="2.95008">
        <ele>184.2</ele>
        <time>2024-05-08T06:14:11Z</time>
      </trkpt>
      <trkpt lat="47.07918" lon="2.94986">
        <ele>183.8</ele>
        <time>2024-05-08T06:14:13Z</time>
      </trkpt>
      <trkpt lat="47.07931" lon="2.94953">
        <ele>183.2</ele>
        <time>2024-05-08T06:14:16Z</time>
      </trkpt>
      <trkpt lat="47.07937" lon="2.94943">
        <ele>182.8</ele>
        <time>2024-05-08T06:14:17Z</time>
      </trkpt>
      <trkpt lat="47.07944" lon="2.94933">
        <ele>182.2</ele>
        <time>2024-05-08T06:14:18Z</time>
      </trkpt>
      <trkpt lat="47.07951" lon="2.94925">
        <ele>182</ele>
        <time>2024-05-08T06:14:19Z</time>
      </trkpt>
      <trkpt lat="47.07958" lon="2.94917">
        <ele>181.6</ele>
        <time>2024-05-08T06:14:20Z</time>
      </trkpt>
      <trkpt lat="47.07967" lon="2.94911">
        <ele>181.4</ele>
        <time>2024-05-08T06:14:21Z</time>
      </trkpt>
      <trkpt lat="47.07975" lon="2.94906">
        <ele>181</ele>
        <time>2024-05-08T06:14:22Z</time>
      </trkpt>
      <trkpt lat="47.07984" lon="2.94903">
        <ele>180.6</ele>
        <time>2024-05-08T06:14:23Z</time>
      </trkpt>
      <trkpt lat="47.07994" lon="2.94902">
        <ele>180.2</ele>
        <time>2024-05-08T06:14:24Z</time>
      </trkpt>
      <trkpt lat="47.08002" lon="2.94902">
        <ele>179.8</ele>
        <time>2024-05-08T06:14:25Z</time>
      </trkpt>
      <trkpt lat="47.08012" lon="2.94902">
        <ele>179.4</ele>
        <time>2024-05-08T06:14:26Z</time>
      </trkpt>
      <trkpt lat="47.0803" lon="2.94903">
        <ele>178.4</ele>
        <time>2024-05-08T06:14:28Z</time>
      </trkpt>
      <trkpt lat="47.08055" lon="2.94907">
        <ele>177.8</ele>
        <time>2024-05-08T06:14:31Z</time>
      </trkpt>
      <trkpt lat="47.08073" lon="2.94909">
        <ele>177.2</ele>
        <time>2024-05-08T06:14:33Z</time>
      </trkpt>
      <trkpt lat="47.08126" lon="2.94918">
        <ele>176</ele>
        <time>2024-05-08T06:14:39Z</time>
      </trkpt>
      <trkpt lat="47.08134" lon="2.9492">
        <ele>175.8</ele>
        <time>2024-05-08T06:14:40Z</time>
      </trkpt>
      <trkpt lat="47.08159" lon="2.94924">
        <ele>175</ele>
        <time>2024-05-08T06:14:43Z</time>
      </trkpt>
      <trkpt lat="47.08182" lon="2.94928">
        <ele>174.8</ele>
        <time>2024-05-08T06:14:46Z</time>
      </trkpt>
      <trkpt lat="47.08189" lon="2.94929">
        <ele>174.8</ele>
        <time>2024-05-08T06:14:47Z</time>
      </trkpt>
      <trkpt lat="47.08209" lon="2.94931">
        <ele>174.6</ele>
        <time>2024-05-08T06:14:50Z</time>
      </trkpt>
      <trkpt lat="47.08263" lon="2.94926">
        <ele>174.8</ele>
        <time>2024-05-08T06:14:58Z</time>
      </trkpt>
      <trkpt lat="47.08318" lon="2.9491">
        <ele>175.4</ele>
        <time>2024-05-08T06:15:07Z</time>
      </trkpt>
      <trkpt lat="47.08324" lon="2.94907">
        <ele>175.4</ele>
        <time>2024-05-08T06:15:08Z</time>
      </trkpt>
      <trkpt lat="47.08348" lon="2.94893">
        <ele>175.8</ele>
        <time>2024-05-08T06:15:12Z</time>
      </trkpt>
      <trkpt lat="47.0836" lon="2.94884">
        <ele>176</ele>
        <time>2024-05-08T06:15:14Z</time>
      </trkpt>
      <trkpt lat="47.08389" lon="2.94858">
        <ele>176.2</ele>
        <time>2024-05-08T06:15:19Z</time>
      </trkpt>
      <trkpt lat="47.08427" lon="2.94833">
        <ele>176</ele>
        <time>2024-05-08T06:15:25Z</time>
      </trkpt>
      <trkpt lat="47.08433" lon="2.94831">
        <ele>175.8</ele>
        <time>2024-05-08T06:15:26Z</time>
      </trkpt>
      <trkpt lat="47.0845" lon="2.94828">
        <ele>175.8</ele>
        <time>2024-05-08T06:15:29Z</time>
      </trkpt>
      <trkpt lat="47.0847" lon="2.94828">
        <ele>175.8</ele>
        <time>2024-05-08T06:15:32Z</time>
      </trkpt>
      <trkpt lat="47.08516" lon="2.94827">
        <ele>175.2</ele>
        <time>2024-05-08T06:15:38Z</time>
      </trkpt>
      <trkpt lat="47.08525" lon="2.94824">
        <ele>175</ele>
        <time>2024-05-08T06:15:39Z</time>
      </trkpt>
      <trkpt lat="47.08552" lon="2.94811">
        <ele>174</ele>
        <time>2024-05-08T06:15:43Z</time>
      </trkpt>
      <trkpt lat="47.08559" lon="2.94805">
        <ele>174</ele>
        <time>2024-05-08T06:15:44Z</time>
      </trkpt>
      <trkpt lat="47.08595" lon="2.94774">
        <ele>174</ele>
        <time>2024-05-08T06:15:50Z</time>
      </trkpt>
      <trkpt lat="47.08625" lon="2.94745">
        <ele>174.2</ele>
        <time>2024-05-08T06:15:56Z</time>
      </trkpt>
      <trkpt lat="47.08648" lon="2.94723">
        <ele>175</ele>
        <time>2024-05-08T06:16:01Z</time>
      </trkpt>
      <trkpt lat="47.08653" lon="2.94717">
        <ele>175</ele>
        <time>2024-05-08T06:16:02Z</time>
      </trkpt>
      <trkpt lat="47.0867" lon="2.94699">
        <ele>176.2</ele>
        <time>2024-05-08T06:16:06Z</time>
      </trkpt>
      <trkpt lat="47.08674" lon="2.94694">
        <ele>176.4</ele>
        <time>2024-05-08T06:16:07Z</time>
      </trkpt>
      <trkpt lat="47.08703" lon="2.94657">
        <ele>177.2</ele>
        <time>2024-05-08T06:16:13Z</time>
      </trkpt>
      <trkpt lat="47.08716" lon="2.9464">
        <ele>177.4</ele>
        <time>2024-05-08T06:16:16Z</time>
      </trkpt>
      <trkpt lat="47.08744" lon="2.9461">
        <ele>177.6</ele>
        <time>2024-05-08T06:16:22Z</time>
      </trkpt>
      <trkpt lat="47.08779" lon="2.94583">
        <ele>178.4</ele>
        <time>2024-05-08T06:16:29Z</time>
      </trkpt>
      <trkpt lat="47.08783" lon="2.94579">
        <ele>178.6</ele>
        <time>2024-05-08T06:16:30Z</time>
      </trkpt>
      <trkpt lat="47.08812" lon="2.94555">
        <ele>179.4</ele>
        <time>2024-05-08T06:16:36Z</time>
      </trkpt>
      <trkpt lat="47.08857" lon="2.94507">
        <ele>179.4</ele>
        <time>2024-05-08T06:16:45Z</time>
      </trkpt>
      <trkpt lat="47.08899" lon="2.9447">
        <ele>179</ele>
        <time>2024-05-08T06:16:53Z</time>
      </trkpt>
      <trkpt lat="47.08933" lon="2.94453">
        <ele>178.8</ele>
        <time>2024-05-08T06:16:58Z</time>
      </trkpt>
      <trkpt lat="47.08948" lon="2.94447">
        <ele>178.4</ele>
        <time>2024-05-08T06:17:00Z</time>
      </trkpt>
      <trkpt lat="47.08984" lon="2.94435">
        <ele>177.8</ele>
        <time>2024-05-08T06:17:05Z</time>
      </trkpt>
      <trkpt lat="47.09005" lon="2.94428">
        <ele>177.4</ele>
        <time>2024-05-08T06:17:08Z</time>
      </trkpt>
      <trkpt lat="47.09038" lon="2.94418">
        <ele>176.8</ele>
        <time>2024-05-08T06:17:13Z</time>
      </trkpt>
      <trkpt lat="47.09094" lon="2.94402">
        <ele>176.2</ele>
        <time>2024-05-08T06:17:21Z</time>
      </trkpt>
      <trkpt lat="47.09116" lon="2.94396">
        <ele>176</ele>
        <time>2024-05-08T06:17:24Z</time>
      </trkpt>
      <trkpt lat="47.09139" lon="2.9439">
        <ele>175.2</ele>
        <time>2024-05-08T06:17:27Z</time>
      </trkpt>
      <trkpt lat="47.09178" lon="2.9438">
        <ele>174.2</ele>
        <time>2024-05-08T06:17:32Z</time>
      </trkpt>
      <trkpt lat="47.09183" lon="2.94379">
        <ele>174</ele>
        <time>2024-05-08T06:17:33Z</time>
      </trkpt>
      <trkpt lat="47.09239" lon="2.94364">
        <ele>173.8</ele>
        <time>2024-05-08T06:17:41Z</time>
      </trkpt>
      <trkpt lat="47.09294" lon="2.94351">
        <ele>173.2</ele>
        <time>2024-05-08T06:17:49Z</time>
      </trkpt>
      <trkpt lat="47.09301" lon="2.9435">
        <ele>173.2</ele>
        <time>2024-05-08T06:17:50Z</time>
      </trkpt>
      <trkpt lat="47.09309" lon="2.94348">
        <ele>173</ele>
        <time>2024-05-08T06:17:51Z</time>
      </trkpt>
      <trkpt lat="47.09365" lon="2.94341">
        <ele>172.8</ele>
        <time>2024-05-08T06:17:59Z</time>
      </trkpt>
      <trkpt lat="47.09373" lon="2.94337">
        <ele>172.8</ele>
        <time>2024-05-08T06:18:00Z</time>
      </trkpt>
      <trkpt lat="47.09406" lon="2.94311">
        <ele>172.2</ele>
        <time>2024-05-08T06:18:05Z</time>
      </trkpt>
      <trkpt lat="47.09438" lon="2.94265">
        <ele>171.2</ele>
        <time>2024-05-08T06:18:11Z</time>
      </trkpt>
      <trkpt lat="47.09449" lon="2.9425">
        <ele>171</ele>
        <time>2024-05-08T06:18:13Z</time>
      </trkpt>
      <trkpt lat="47.09473" lon="2.94222">
        <ele>170.8</ele>
        <time>2024-05-08T06:18:17Z</time>
      </trkpt>
      <trkpt lat="47.09505" lon="2.94188">
        <ele>170.6</ele>
        <time>2024-05-08T06:18:23Z</time>
      </trkpt>
      <trkpt lat="47.09557" lon="2.94148">
        <ele>170.6</ele>
        <time>2024-05-08T06:18:31Z</time>
      </trkpt>
      <trkpt lat="47.09605" lon="2.94111">
        <ele>170.8</ele>
        <time>2024-05-08T06:18:39Z</time>
      </trkpt>
      <trkpt lat="47.09612" lon="2.94104">
        <ele>171</ele>
        <time>2024-05-08T06:18:40Z</time>
      </trkpt>
      <trkpt lat="47.09638" lon="2.94061">
        <ele>171.2</ele>
        <time>2024-05-08T06:18:46Z</time>
      </trkpt>
      <trkpt lat="47.09675" lon="2.93997">
        <ele>171.8</ele>
        <time>2024-05-08T06:18:55Z</time>
      </trkpt>
      <trkpt lat="47.09691" lon="2.93972">
        <ele>172</ele>
        <time>2024-05-08T06:18:59Z</time>
      </trkpt>
      <trkpt lat="47.09705" lon="2.93954">
        <ele>172.4</ele>
        <time>2024-05-08T06:19:02Z</time>
      </trkpt>
      <trkpt lat="47.09728" lon="2.93929">
        <ele>173.2</ele>
        <time>2024-05-08T06:19:07Z</time>
      </trkpt>
      <trkpt lat="47.09738" lon="2.93919">
        <ele>173.4</ele>
        <time>2024-05-08T06:19:09Z</time>
      </trkpt>
      <trkpt lat="47.09743" lon="2.93915">
        <ele>173.4</ele>
        <time>2024-05-08T06:19:10Z</time>
      </trkpt>
      <trkpt lat="47.09767" lon="2.93897">
        <ele>174.2</ele>
        <time>2024-05-08T06:19:15Z</time>
      </trkpt>
      <trkpt lat="47.09786" lon="2.9388">
        <ele>174.8</ele>
        <time>2024-05-08T06:19:19Z</time>
      </trkpt>
      <trkpt lat="47.09805" lon="2.93865">
        <ele>175.4</ele>
        <time>2024-05-08T06:19:23Z</time>
      </trkpt>
      <trkpt lat="47.09829" lon="2.93848">
        <ele>175.8</ele>
        <time>2024-05-08T06:19:28Z</time>
      </trkpt>
      <trkpt lat="47.09857" lon="2.93828">
        <ele>176.6</ele>
        <time>2024-05-08T06:19:34Z</time>
      </trkpt>
      <trkpt lat="47.09868" lon="2.9382">
        <ele>176.8</ele>
        <time>2024-05-08T06:19:36Z</time>
      </trkpt>
      <trkpt lat="47.09873" lon="2.93815">
        <ele>177.2</ele>
        <time>2024-05-08T06:19:37Z</time>
      </trkpt>
      <trkpt lat="47.09882" lon="2.93809">
        <ele>177.6</ele>
        <time>2024-05-08T06:19:39Z</time>
      </trkpt>
      <trkpt lat="47.09912" lon="2.93784">
        <ele>178.2</ele>
        <time>2024-05-08T06:19:45Z</time>
      </trkpt>
      <trkpt lat="47.09954" lon="2.93739">
        <ele>178.6</ele>
        <time>2024-05-08T06:19:54Z</time>
      </trkpt>
      <trkpt lat="47.09958" lon="2.93733">
        <ele>178.6</ele>
        <time>2024-05-08T06:19:55Z</time>
      </trkpt>
      <trkpt lat="47.09962" lon="2.93725">
        <ele>178.6</ele>
        <time>2024-05-08T06:19:56Z</time>
      </trkpt>
      <trkpt lat="47.09971" lon="2.93703">
        <ele>178.8</ele>
        <time>2024-05-08T06:19:59Z</time>
      </trkpt>
      <trkpt lat="47.09973" lon="2.93694">
        <ele>178.8</ele>
        <time>2024-05-08T06:20:00Z</time>
      </trkpt>
      <trkpt lat="47.09979" lon="2.93662">
        <ele>179.2</ele>
        <time>2024-05-08T06:20:04Z</time>
      </trkpt>
      <trkpt lat="47.09991" lon="2.9358">
        <ele>179.2</ele>
        <time>2024-05-08T06:20:13Z</time>
      </trkpt>
      <trkpt lat="47.1" lon="2.93516">
        <ele>179</ele>
        <time>2024-05-08T06:20:20Z</time>
      </trkpt>
      <trkpt lat="47.10013" lon="2.93457">
        <ele>178.4</ele>
        <time>2024-05-08T06:20:26Z</time>
      </trkpt>
      <trkpt lat="47.10016" lon="2.93446">
        <ele>178.4</ele>
        <time>2024-05-08T06:20:27Z</time>
      </trkpt>
      <trkpt lat="47.10028" lon="2.93416">
        <ele>177.6</ele>
        <time>2024-05-08T06:20:30Z</time>
      </trkpt>
      <trkpt lat="47.10042" lon="2.93387">
        <ele>176.4</ele>
        <time>2024-05-08T06:20:33Z</time>
      </trkpt>
      <trkpt lat="47.10054" lon="2.93375">
        <ele>175.6</ele>
        <time>2024-05-08T06:20:35Z</time>
      </trkpt>
      <trkpt lat="47.1006" lon="2.93372">
        <ele>174.8</ele>
        <time>2024-05-08T06:20:36Z</time>
      </trkpt>
      <trkpt lat="47.10074" lon="2.93368">
        <ele>173.8</ele>
        <time>2024-05-08T06:20:38Z</time>
      </trkpt>
      <trkpt lat="47.1008" lon="2.93361">
        <ele>173</ele>
        <time>2024-05-08T06:20:39Z</time>
      </trkpt>
      <trkpt lat="47.10083" lon="2.93355">
        <ele>172.8</ele>
        <time>2024-05-08T06:20:40Z</time>
      </trkpt>
      <trkpt lat="47.10089" lon="2.93335">
        <ele>172</ele>
        <time>2024-05-08T06:20:42Z</time>
      </trkpt>
      <trkpt lat="47.10092" lon="2.93326">
        <ele>171.8</ele>
        <time>2024-05-08T06:20:43Z</time>
      </trkpt>
      <trkpt lat="47.10106" lon="2.9327">
        <ele>171.2</ele>
        <time>2024-05-08T06:20:49Z</time>
      </trkpt>
      <trkpt lat="47.10123" lon="2.93199">
        <ele>170.8</ele>
        <time>2024-05-08T06:20:56Z</time>
      </trkpt>
      <trkpt lat="47.1013" lon="2.93178">
        <ele>170.6</ele>
        <time>2024-05-08T06:20:58Z</time>
      </trkpt>
      <trkpt lat="47.10135" lon="2.93155">
        <ele>170.6</ele>
        <time>2024-05-08T06:21:00Z</time>
      </trkpt>
      <trkpt lat="47.10136" lon="2.93135">
        <ele>170.6</ele>
        <time>2024-05-08T06:21:02Z</time>
      </trkpt>
      <trkpt lat="47.10127" lon="2.9309">
        <ele>170.4</ele>
        <time>2024-05-08T06:21:06Z</time>
      </trkpt>
      <trkpt lat="47.10121" lon="2.93076">
        <ele>170.4</ele>
        <time>2024-05-08T06:21:08Z</time>
      </trkpt>
      <trkpt lat="47.10112" lon="2.93061">
        <ele>170.4</ele>
        <time>2024-05-08T06:21:10Z</time>
      </trkpt>
      <trkpt lat="47.10106" lon="2.93054">
        <ele>170.4</ele>
        <time>2024-05-08T06:21:11Z</time>
      </trkpt>
      <trkpt lat="47.10083" lon="2.93032">
        <ele>170.8</ele>
        <time>2024-05-08T06:21:15Z</time>
      </trkpt>
      <trkpt lat="47.10042" lon="2.92992">
        <ele>171</ele>
        <time>2024-05-08T06:21:22Z</time>
      </trkpt>
      <trkpt lat="47.10013" lon="2.9296">
        <ele>170.8</ele>
        <time>2024-05-08T06:21:27Z</time>
      </trkpt>
      <trkpt lat="47.10008" lon="2.92951">
        <ele>171</ele>
        <time>2024-05-08T06:21:28Z</time>
      </trkpt>
      <trkpt lat="47.10006" lon="2.92942">
        <ele>171</ele>
        <time>2024-05-08T06:21:29Z</time>
      </trkpt>
      <trkpt lat="47.10003" lon="2.92924">
        <ele>171</ele>
        <time>2024-05-08T06:21:31Z</time>
      </trkpt>
      <trkpt lat="47.10001" lon="2.92877">
        <ele>171.4</ele>
        <time>2024-05-08T06:21:36Z</time>
      </trkpt>
      <trkpt lat="47.10002" lon="2.92867">
        <ele>171.8</ele>
        <time>2024-05-08T06:21:37Z</time>
      </trkpt>
      <trkpt lat="47.10005" lon="2.92859">
        <ele>172</ele>
        <time>2024-05-08T06:21:38Z</time>
      </trkpt>
      <trkpt lat="47.10011" lon="2.92848">
        <ele>172.4</ele>
        <time>2024-05-08T06:21:40Z</time>
      </trkpt>
      <trkpt lat="47.10022" lon="2.92841">
        <ele>173</ele>
        <time>2024-05-08T06:21:42Z</time>
      </trkpt>
      <trkpt lat="47.10029" lon="2.92838">
        <ele>173.4</ele>
        <time>2024-05-08T06:21:43Z</time>
      </trkpt>
      <trkpt lat="47.10034" lon="2.92836">
        <ele>173.6</ele>
        <time>2024-05-08T06:21:44Z</time>
      </trkpt>
      <trkpt lat="47.10057" lon="2.92828">
        <ele>174.6</ele>
        <time>2024-05-08T06:21:48Z</time>
      </trkpt>
      <trkpt lat="47.10072" lon="2.92821">
        <ele>175.4</ele>
        <time>2024-05-08T06:21:51Z</time>
      </trkpt>
      <trkpt lat="47.10079" lon="2.92819">
        <ele>175.6</ele>
        <time>2024-05-08T06:21:52Z</time>
      </trkpt>
      <trkpt lat="47.10108" lon="2.92805">
        <ele>176.4</ele>
        <time>2024-05-08T06:21:57Z</time>
      </trkpt>
      <trkpt lat="47.10124" lon="2.92798">
        <ele>176.8</ele>
        <time>2024-05-08T06:22:00Z</time>
      </trkpt>
      <trkpt lat="47.10131" lon="2.92794">
        <ele>176.8</ele>
        <time>2024-05-08T06:22:01Z</time>
      </trkpt>
      <trkpt lat="47.1014" lon="2.92785">
        <ele>176.8</ele>
        <time>2024-05-08T06:22:03Z</time>
      </trkpt>
      <trkpt lat="47.10148" lon="2.92771">
        <ele>177</ele>
        <time>2024-05-08T06:22:05Z</time>
      </trkpt>
      <trkpt lat="47.10154" lon="2.92752">
        <ele>177</ele>
        <time>2024-05-08T06:22:07Z</time>
      </trkpt>
      <trkpt lat="47.10155" lon="2.92734">
        <ele>176.8</ele>
        <time>2024-05-08T06:22:09Z</time>
      </trkpt>
      <trkpt lat="47.10153" lon="2.92711">
        <ele>176.6</ele>
        <time>2024-05-08T06:22:11Z</time>
      </trkpt>
      <trkpt lat="47.10152" lon="2.92704">
        <ele>176.6</ele>
        <time>2024-05-08T06:22:12Z</time>
      </trkpt>
      <trkpt lat="47.10143" lon="2.92664">
        <ele>176</ele>
        <time>2024-05-08T06:22:16Z</time>
      </trkpt>
      <trkpt lat="47.10134" lon="2.92622">
        <ele>175.6</ele>
        <time>2024-05-08T06:22:20Z</time>
      </trkpt>
      <trkpt lat="47.10121" lon="2.92572">
        <ele>175</ele>
        <time>2024-05-08T06:22:25Z</time>
      </trkpt>
      <trkpt lat="47.10105" lon="2.92492">
        <ele>174.8</ele>
        <time>2024-05-08T06:22:33Z</time>
      </trkpt>
      <trkpt lat="47.10101" lon="2.92472">
        <ele>174.8</ele>
        <time>2024-05-08T06:22:35Z</time>
      </trkpt>
      <trkpt lat="47.10095" lon="2.92394">
        <ele>174.8</ele>
        <time>2024-05-08T06:22:43Z</time>
      </trkpt>
      <trkpt lat="47.10099" lon="2.92313">
        <ele>174.8</ele>
        <time>2024-05-08T06:22:51Z</time>
      </trkpt>
      <trkpt lat="47.10111" lon="2.92248">
        <ele>174.8</ele>
        <time>2024-05-08T06:22:58Z</time>
      </trkpt>
      <trkpt lat="47.10132" lon="2.92167">
        <ele>175.4</ele>
        <time>2024-05-08T06:23:07Z</time>
      </trkpt>
      <trkpt lat="47.10136" lon="2.92149">
        <ele>175.4</ele>
        <time>2024-05-08T06:23:09Z</time>
      </trkpt>
      <trkpt lat="47.10157" lon="2.92068">
        <ele>175.4</ele>
        <time>2024-05-08T06:23:18Z</time>
      </trkpt>
      <trkpt lat="47.10164" lon="2.92041">
        <ele>175.6</ele>
        <time>2024-05-08T06:23:21Z</time>
      </trkpt>
      <trkpt lat="47.10183" lon="2.91966">
        <ele>176</ele>
        <time>2024-05-08T06:23:29Z</time>
      </trkpt>
      <trkpt lat="47.10188" lon="2.91948">
        <ele>176</ele>
        <time>2024-05-08T06:23:31Z</time>
      </trkpt>
      <trkpt lat="47.10206" lon="2.91896">
        <ele>175.4</ele>
        <time>2024-05-08T06:23:36Z</time>
      </trkpt>
      <trkpt lat="47.10218" lon="2.91864">
        <ele>174.4</ele>
        <time>2024-05-08T06:23:39Z</time>
      </trkpt>
      <trkpt lat="47.10235" lon="2.91822">
        <ele>173.4</ele>
        <time>2024-05-08T06:23:43Z</time>
      </trkpt>
      <trkpt lat="47.10239" lon="2.91812">
        <ele>173</ele>
        <time>2024-05-08T06:23:44Z</time>
      </trkpt>
      <trkpt lat="47.10268" lon="2.91742">
        <ele>172.4</ele>
        <time>2024-05-08T06:23:51Z</time>
      </trkpt>
      <trkpt lat="47.1028" lon="2.91714">
        <ele>172.4</ele>
        <time>2024-05-08T06:23:54Z</time>
      </trkpt>
      <trkpt lat="47.10306" lon="2.9164">
        <ele>173</ele>
        <time>2024-05-08T06:24:02Z</time>
      </trkpt>
      <trkpt lat="47.10329" lon="2.91563">
        <ele>173.2</ele>
        <time>2024-05-08T06:24:10Z</time>
      </trkpt>
      <trkpt lat="47.10334" lon="2.91548">
        <ele>173.2</ele>
        <time>2024-05-08T06:24:12Z</time>
      </trkpt>
      <trkpt lat="47.10344" lon="2.91513">
        <ele>173.4</ele>
        <time>2024-05-08T06:24:16Z</time>
      </trkpt>
      <trkpt lat="47.10357" lon="2.9147">
        <ele>174.2</ele>
        <time>2024-05-08T06:24:21Z</time>
      </trkpt>
      <trkpt lat="47.10359" lon="2.91464">
        <ele>174.4</ele>
        <time>2024-05-08T06:24:22Z</time>
      </trkpt>
      <trkpt lat="47.10377" lon="2.91409">
        <ele>175.2</ele>
        <time>2024-05-08T06:24:29Z</time>
      </trkpt>
      <trkpt lat="47.10384" lon="2.91385">
        <ele>175.6</ele>
        <time>2024-05-08T06:24:32Z</time>
      </trkpt>
      <trkpt lat="47.10393" lon="2.91363">
        <ele>175.8</ele>
        <time>2024-05-08T06:24:35Z</time>
      </trkpt>
      <trkpt lat="47.10422" lon="2.91297">
        <ele>175.8</ele>
        <time>2024-05-08T06:24:44Z</time>
      </trkpt>
      <trkpt lat="47.10443" lon="2.91253">
        <ele>176.4</ele>
        <time>2024-05-08T06:24:50Z</time>
      </trkpt>
      <trkpt lat="47.10456" lon="2.91225">
        <ele>176.6</ele>
        <time>2024-05-08T06:24:54Z</time>
      </trkpt>
      <trkpt lat="47.10479" lon="2.91176">
        <ele>177.4</ele>
        <time>2024-05-08T06:25:01Z</time>
      </trkpt>
      <trkpt lat="47.10483" lon="2.9117">
        <ele>177.4</ele>
        <time>2024-05-08T06:25:02Z</time>
      </trkpt>
      <trkpt lat="47.10487" lon="2.91163">
        <ele>177.4</ele>
        <time>2024-05-08T06:25:03Z</time>
      </trkpt>
      <trkpt lat="47.1049" lon="2.91158">
        <ele>177.6</ele>
        <time>2024-05-08T06:25:04Z</time>
      </trkpt>
      <trkpt lat="47.10502" lon="2.91133">
        <ele>178.4</ele>
        <time>2024-05-08T06:25:08Z</time>
      </trkpt>
      <trkpt lat="47.10505" lon="2.91126">
        <ele>178.4</ele>
        <time>2024-05-08T06:25:09Z</time>
      </trkpt>
      <trkpt lat="47.10508" lon="2.91119">
        <ele>178.6</ele>
        <time>2024-05-08T06:25:10Z</time>
      </trkpt>
      <trkpt lat="47.10518" lon="2.91097">
        <ele>178.8</ele>
        <time>2024-05-08T06:25:13Z</time>
      </trkpt>
      <trkpt lat="47.10537" lon="2.91052">
        <ele>179.4</ele>
        <time>2024-05-08T06:25:19Z</time>
      </trkpt>
      <trkpt lat="47.10544" lon="2.91037">
        <ele>179.6</ele>
        <time>2024-05-08T06:25:21Z</time>
      </trkpt>
      <trkpt lat="47.10561" lon="2.90997">
        <ele>179.6</ele>
        <time>2024-05-08T06:25:26Z</time>
      </trkpt>
      <trkpt lat="47.10564" lon="2.90987">
        <ele>179.6</ele>
        <time>2024-05-08T06:25:27Z</time>
      </trkpt>
      <trkpt lat="47.10578" lon="2.90948">
        <ele>179.2</ele>
        <time>2024-05-08T06:25:31Z</time>
      </trkpt>
      <trkpt lat="47.10603" lon="2.90881">
        <ele>178.4</ele>
        <time>2024-05-08T06:25:37Z</time>
      </trkpt>
      <trkpt lat="47.10615" lon="2.90846">
        <ele>177.4</ele>
        <time>2024-05-08T06:25:40Z</time>
      </trkpt>
      <trkpt lat="47.10628" lon="2.90809">
        <ele>175.6</ele>
        <time>2024-05-08T06:25:43Z</time>
      </trkpt>
      <trkpt lat="47.1064" lon="2.90774">
        <ele>174.2</ele>
        <time>2024-05-08T06:25:46Z</time>
      </trkpt>
      <trkpt lat="47.10648" lon="2.90752">
        <ele>173.6</ele>
        <time>2024-05-08T06:25:48Z</time>
      </trkpt>
      <trkpt lat="47.10662" lon="2.90713">
        <ele>173</ele>
        <time>2024-05-08T06:25:52Z</time>
      </trkpt>
      <trkpt lat="47.10669" lon="2.90696">
        <ele>173</ele>
        <time>2024-05-08T06:25:54Z</time>
      </trkpt>
      <trkpt lat="47.10689" lon="2.90647">
        <ele>173.4</ele>
        <time>2024-05-08T06:26:00Z</time>
      </trkpt>
      <trkpt lat="47.10695" lon="2.90632">
        <ele>173.6</ele>
        <time>2024-05-08T06:26:02Z</time>
      </trkpt>
      <trkpt lat="47.10707" lon="2.906">
        <ele>174</ele>
        <time>2024-05-08T06:26:06Z</time>
      </trkpt>
      <trkpt lat="47.10724" lon="2.90554">
        <ele>174</ele>
        <time>2024-05-08T06:26:11Z</time>
      </trkpt>
      <trkpt lat="47.10727" lon="2.90545">
        <ele>174</ele>
        <time>2024-05-08T06:26:12Z</time>
      </trkpt>
      <trkpt lat="47.10748" lon="2.90481">
        <ele>174</ele>
        <time>2024-05-08T06:26:19Z</time>
      </trkpt>
      <trkpt lat="47.10755" lon="2.90453">
        <ele>174.2</ele>
        <time>2024-05-08T06:26:22Z</time>
      </trkpt>
      <trkpt lat="47.10761" lon="2.90436">
        <ele>174.8</ele>
        <time>2024-05-08T06:26:24Z</time>
      </trkpt>
      <trkpt lat="47.10766" lon="2.90422">
        <ele>175.2</ele>
        <time>2024-05-08T06:26:26Z</time>
      </trkpt>
      <trkpt lat="47.10769" lon="2.90412">
        <ele>175.4</ele>
        <time>2024-05-08T06:26:27Z</time>
      </trkpt>
      <trkpt lat="47.10774" lon="2.90397">
        <ele>175.8</ele>
        <time>2024-05-08T06:26:29Z</time>
      </trkpt>
      <trkpt lat="47.10779" lon="2.90382">
        <ele>176.4</ele>
        <time>2024-05-08T06:26:31Z</time>
      </trkpt>
      <trkpt lat="47.10787" lon="2.90358">
        <ele>177.2</ele>
        <time>2024-05-08T06:26:34Z</time>
      </trkpt>
      <trkpt lat="47.10789" lon="2.9035">
        <ele>177.6</ele>
        <time>2024-05-08T06:26:35Z</time>
      </trkpt>
      <trkpt lat="47.10792" lon="2.90342">
        <ele>177.6</ele>
        <time>2024-05-08T06:26:36Z</time>
      </trkpt>
      <trkpt lat="47.10814" lon="2.90275">
        <ele>178.4</ele>
        <time>2024-05-08T06:26:44Z</time>
      </trkpt>
      <trkpt lat="47.10837" lon="2.90209">
        <ele>178</ele>
        <time>2024-05-08T06:26:51Z</time>
      </trkpt>
      <trkpt lat="47.10864" lon="2.90137">
        <ele>176.6</ele>
        <time>2024-05-08T06:26:58Z</time>
      </trkpt>
      <trkpt lat="47.10869" lon="2.90126">
        <ele>176.2</ele>
        <time>2024-05-08T06:26:59Z</time>
      </trkpt>
      <trkpt lat="47.10882" lon="2.90095">
        <ele>175.4</ele>
        <time>2024-05-08T06:27:02Z</time>
      </trkpt>
      <trkpt lat="47.109" lon="2.90053">
        <ele>173.8</ele>
        <time>2024-05-08T06:27:06Z</time>
      </trkpt>
      <trkpt lat="47.10921" lon="2.90012">
        <ele>172.6</ele>
        <time>2024-05-08T06:27:10Z</time>
      </trkpt>
      <trkpt lat="47.10942" lon="2.89971">
        <ele>171.6</ele>
        <time>2024-05-08T06:27:14Z</time>
      </trkpt>
      <trkpt lat="47.10959" lon="2.8994">
        <ele>171</ele>
        <time>2024-05-08T06:27:17Z</time>
      </trkpt>
      <trkpt lat="47.10971" lon="2.89919">
        <ele>170.4</ele>
        <time>2024-05-08T06:27:19Z</time>
      </trkpt>
      <trkpt lat="47.10999" lon="2.89873">
        <ele>169.2</ele>
        <time>2024-05-08T06:27:24Z</time>
      </trkpt>
      <trkpt lat="47.1104" lon="2.89811">
        <ele>168</ele>
        <time>2024-05-08T06:27:31Z</time>
      </trkpt>
      <trkpt lat="47.11048" lon="2.89801">
        <ele>168</ele>
        <time>2024-05-08T06:27:32Z</time>
      </trkpt>
      <trkpt lat="47.11087" lon="2.89746">
        <ele>167.4</ele>
        <time>2024-05-08T06:27:39Z</time>
      </trkpt>
      <trkpt lat="47.11099" lon="2.89731">
        <ele>167</ele>
        <time>2024-05-08T06:27:41Z</time>
      </trkpt>
      <trkpt lat="47.11136" lon="2.89688">
        <ele>166.2</ele>
        <time>2024-05-08T06:27:47Z</time>
      </trkpt>
      <trkpt lat="47.1116" lon="2.89662">
        <ele>165.8</ele>
        <time>2024-05-08T06:27:51Z</time>
      </trkpt>
      <trkpt lat="47.11178" lon="2.89642">
        <ele>165.8</ele>
        <time>2024-05-08T06:27:54Z</time>
      </trkpt>
      <trkpt lat="47.11227" lon="2.89594">
        <ele>165.8</ele>
        <time>2024-05-08T06:28:02Z</time>
      </trkpt>
      <trkpt lat="47.11233" lon="2.89588">
        <ele>165.8</ele>
        <time>2024-05-08T06:28:03Z</time>
      </trkpt>
      <trkpt lat="47.11279" lon="2.89542">
        <ele>165.8</ele>
        <time>2024-05-08T06:28:11Z</time>
      </trkpt>
      <trkpt lat="47.11284" lon="2.89537">
        <ele>166</ele>
        <time>2024-05-08T06:28:12Z</time>
      </trkpt>
      <trkpt lat="47.11303" lon="2.89519">
        <ele>166</ele>
        <time>2024-05-08T06:28:15Z</time>
      </trkpt>
      <trkpt lat="47.11332" lon="2.89485">
        <ele>166.4</ele>
        <time>2024-05-08T06:28:21Z</time>
      </trkpt>
      <trkpt lat="47.11378" lon="2.89431">
        <ele>166.8</ele>
        <time>2024-05-08T06:28:30Z</time>
      </trkpt>
      <trkpt lat="47.11383" lon="2.89425">
        <ele>166.8</ele>
        <time>2024-05-08T06:28:31Z</time>
      </trkpt>
      <trkpt lat="47.11398" lon="2.89405">
        <ele>167</ele>
        <time>2024-05-08T06:28:34Z</time>
      </trkpt>
      <trkpt lat="47.1143" lon="2.89363">
        <ele>167.2</ele>
        <time>2024-05-08T06:28:41Z</time>
      </trkpt>
      <trkpt lat="47.11465" lon="2.89309">
        <ele>167.4</ele>
        <time>2024-05-08T06:28:49Z</time>
      </trkpt>
      <trkpt lat="47.11502" lon="2.89247">
        <ele>167.4</ele>
        <time>2024-05-08T06:28:58Z</time>
      </trkpt>
      <trkpt lat="47.11506" lon="2.8924">
        <ele>167.6</ele>
        <time>2024-05-08T06:28:59Z</time>
      </trkpt>
      <trkpt lat="47.11534" lon="2.89189">
        <ele>168</ele>
        <time>2024-05-08T06:29:06Z</time>
      </trkpt>
      <trkpt lat="47.11541" lon="2.89175">
        <ele>168</ele>
        <time>2024-05-08T06:29:08Z</time>
      </trkpt>
      <trkpt lat="47.11574" lon="2.89107">
        <ele>168.6</ele>
        <time>2024-05-08T06:29:17Z</time>
      </trkpt>
      <trkpt lat="47.11588" lon="2.89077">
        <ele>168.6</ele>
        <time>2024-05-08T06:29:21Z</time>
      </trkpt>
      <trkpt lat="47.11618" lon="2.89005">
        <ele>169</ele>
        <time>2024-05-08T06:29:30Z</time>
      </trkpt>
      <trkpt lat="47.11623" lon="2.88991">
        <ele>169</ele>
        <time>2024-05-08T06:29:32Z</time>
      </trkpt>
      <trkpt lat="47.11652" lon="2.88919">
        <ele>169.2</ele>
        <time>2024-05-08T06:29:41Z</time>
      </trkpt>
      <trkpt lat="47.11664" lon="2.88887">
        <ele>169.2</ele>
        <time>2024-05-08T06:29:45Z</time>
      </trkpt>
      <trkpt lat="47.11693" lon="2.88815">
        <ele>169.6</ele>
        <time>2024-05-08T06:29:54Z</time>
      </trkpt>
      <trkpt lat="47.11699" lon="2.888">
        <ele>169.8</ele>
        <time>2024-05-08T06:29:56Z</time>
      </trkpt>
      <trkpt lat="47.11712" lon="2.88768">
        <ele>170</ele>
        <time>2024-05-08T06:30:00Z</time>
      </trkpt>
      <trkpt lat="47.11732" lon="2.88716">
        <ele>170.2</ele>
        <time>2024-05-08T06:30:06Z</time>
      </trkpt>
      <trkpt lat="47.11761" lon="2.88647">
        <ele>169.8</ele>
        <time>2024-05-08T06:30:14Z</time>
      </trkpt>
      <trkpt lat="47.11765" lon="2.88638">
        <ele>169.6</ele>
        <time>2024-05-08T06:30:15Z</time>
      </trkpt>
      <trkpt lat="47.11785" lon="2.88595">
        <ele>169</ele>
        <time>2024-05-08T06:30:20Z</time>
      </trkpt>
      <trkpt lat="47.11807" lon="2.8855">
        <ele>168.6</ele>
        <time>2024-05-08T06:30:25Z</time>
      </trkpt>
      <trkpt lat="47.11841" lon="2.88486">
        <ele>168.2</ele>
        <time>2024-05-08T06:30:33Z</time>
      </trkpt>
      <trkpt lat="47.11859" lon="2.88453">
        <ele>168</ele>
        <time>2024-05-08T06:30:37Z</time>
      </trkpt>
      <trkpt lat="47.11899" lon="2.88387">
        <ele>167.2</ele>
        <time>2024-05-08T06:30:45Z</time>
      </trkpt>
      <trkpt lat="47.11914" lon="2.88364">
        <ele>167.2</ele>
        <time>2024-05-08T06:30:48Z</time>
      </trkpt>
      <trkpt lat="47.11957" lon="2.88306">
        <ele>167</ele>
        <time>2024-05-08T06:30:56Z</time>
      </trkpt>
      <trkpt lat="47.11969" lon="2.88291">
        <ele>167</ele>
        <time>2024-05-08T06:30:58Z</time>
      </trkpt>
      <trkpt lat="47.11973" lon="2.88285">
        <ele>167</ele>
        <time>2024-05-08T06:30:59Z</time>
      </trkpt>
      <trkpt lat="47.12017" lon="2.88232">
        <ele>166.6</ele>
        <time>2024-05-08T06:31:07Z</time>
      </trkpt>
      <trkpt lat="47.12029" lon="2.88219">
        <ele>166.4</ele>
        <time>2024-05-08T06:31:09Z</time>
      </trkpt>
      <trkpt lat="47.12076" lon="2.88169">
        <ele>166.4</ele>
        <time>2024-05-08T06:31:17Z</time>
      </trkpt>
      <trkpt lat="47.1208" lon="2.88164">
        <ele>166.4</ele>
        <time>2024-05-08T06:31:18Z</time>
      </trkpt>
      <trkpt lat="47.12129" lon="2.88118">
        <ele>166.4</ele>
        <time>2024-05-08T06:31:26Z</time>
      </trkpt>
      <trkpt lat="47.12151" lon="2.88099">
        <ele>166.4</ele>
        <time>2024-05-08T06:31:30Z</time>
      </trkpt>
      <trkpt lat="47.12204" lon="2.88057">
        <ele>166.4</ele>
        <time>2024-05-08T06:31:39Z</time>
      </trkpt>
      <trkpt lat="47.12216" lon="2.88048">
        <ele>166.2</ele>
        <time>2024-05-08T06:31:41Z</time>
      </trkpt>
      <trkpt lat="47.12264" lon="2.88015">
        <ele>166.2</ele>
        <time>2024-05-08T06:31:49Z</time>
      </trkpt>
      <trkpt lat="47.12318" lon="2.87982">
        <ele>166.4</ele>
        <time>2024-05-08T06:31:58Z</time>
      </trkpt>
      <trkpt lat="47.12324" lon="2.87979">
        <ele>166.6</ele>
        <time>2024-05-08T06:31:59Z</time>
      </trkpt>
      <trkpt lat="47.12371" lon="2.87953">
        <ele>167</ele>
        <time>2024-05-08T06:32:07Z</time>
      </trkpt>
      <trkpt lat="47.12425" lon="2.87929">
        <ele>166.8</ele>
        <time>2024-05-08T06:32:16Z</time>
      </trkpt>
      <trkpt lat="47.12479" lon="2.87909">
        <ele>167</ele>
        <time>2024-05-08T06:32:25Z</time>
      </trkpt>
      <trkpt lat="47.12527" lon="2.87893">
        <ele>167.4</ele>
        <time>2024-05-08T06:32:33Z</time>
      </trkpt>
      <trkpt lat="47.12581" lon="2.87876">
        <ele>168</ele>
        <time>2024-05-08T06:32:42Z</time>
      </trkpt>
      <trkpt lat="47.12599" lon="2.87869">
        <ele>168</ele>
        <time>2024-05-08T06:32:45Z</time>
      </trkpt>
      <trkpt lat="47.1265" lon="2.87852">
        <ele>168.2</ele>
        <time>2024-05-08T06:32:54Z</time>
      </trkpt>
      <trkpt lat="47.12667" lon="2.87847">
        <ele>168.4</ele>
        <time>2024-05-08T06:32:57Z</time>
      </trkpt>
      <trkpt lat="47.12724" lon="2.87828">
        <ele>168.8</ele>
        <time>2024-05-08T06:33:07Z</time>
      </trkpt>
      <trkpt lat="47.12735" lon="2.87825">
        <ele>169</ele>
        <time>2024-05-08T06:33:09Z</time>
      </trkpt>
      <trkpt lat="47.12775" lon="2.87812">
        <ele>169.8</ele>
        <time>2024-05-08T06:33:17Z</time>
      </trkpt>
      <trkpt lat="47.12779" lon="2.8781">
        <ele>170</ele>
        <time>2024-05-08T06:33:18Z</time>
      </trkpt>
      <trkpt lat="47.12805" lon="2.87801">
        <ele>170.8</ele>
        <time>2024-05-08T06:33:24Z</time>
      </trkpt>
      <trkpt lat="47.12809" lon="2.87799">
        <ele>171</ele>
        <time>2024-05-08T06:33:25Z</time>
      </trkpt>
      <trkpt lat="47.12825" lon="2.87795">
        <ele>172.2</ele>
        <time>2024-05-08T06:33:29Z</time>
      </trkpt>
      <trkpt lat="47.12837" lon="2.87791">
        <ele>172.8</ele>
        <time>2024-05-08T06:33:32Z</time>
      </trkpt>
      <trkpt lat="47.12845" lon="2.87789">
        <ele>173.6</ele>
        <time>2024-05-08T06:33:34Z</time>
      </trkpt>
      <trkpt lat="47.12864" lon="2.8778">
        <ele>174.6</ele>
        <time>2024-05-08T06:33:39Z</time>
      </trkpt>
      <trkpt lat="47.12872" lon="2.87777">
        <ele>175.2</ele>
        <time>2024-05-08T06:33:41Z</time>
      </trkpt>
      <trkpt lat="47.12881" lon="2.87773">
        <ele>175.8</ele>
        <time>2024-05-08T06:33:43Z</time>
      </trkpt>
      <trkpt lat="47.12897" lon="2.8777">
        <ele>176.8</ele>
        <time>2024-05-08T06:33:47Z</time>
      </trkpt>
      <trkpt lat="47.12905" lon="2.87768">
        <ele>177.2</ele>
        <time>2024-05-08T06:33:49Z</time>
      </trkpt>
      <trkpt lat="47.12909" lon="2.87767">
        <ele>177.2</ele>
        <time>2024-05-08T06:33:50Z</time>
      </trkpt>
      <trkpt lat="47.12922" lon="2.87762">
        <ele>178.2</ele>
        <time>2024-05-08T06:33:53Z</time>
      </trkpt>
      <trkpt lat="47.12944" lon="2.87755">
        <ele>179.4</ele>
        <time>2024-05-08T06:33:58Z</time>
      </trkpt>
      <trkpt lat="47.12948" lon="2.87753">
        <ele>179.6</ele>
        <time>2024-05-08T06:33:59Z</time>
      </trkpt>
      <trkpt lat="47.12982" lon="2.87742">
        <ele>180.4</ele>
        <time>2024-05-08T06:34:06Z</time>
      </trkpt>
      <trkpt lat="47.13032" lon="2.87726">
        <ele>181</ele>
        <time>2024-05-08T06:34:16Z</time>
      </trkpt>
      <trkpt lat="47.13069" lon="2.87713">
        <ele>181.4</ele>
        <time>2024-05-08T06:34:23Z</time>
      </trkpt>
      <trkpt lat="47.13075" lon="2.87712">
        <ele>181.4</ele>
        <time>2024-05-08T06:34:24Z</time>
      </trkpt>
      <trkpt lat="47.13129" lon="2.87694">
        <ele>182</ele>
        <time>2024-05-08T06:34:34Z</time>
      </trkpt>
      <trkpt lat="47.13138" lon="2.87691">
        <ele>182.2</ele>
        <time>2024-05-08T06:34:36Z</time>
      </trkpt>
      <trkpt lat="47.13143" lon="2.8769">
        <ele>182.4</ele>
        <time>2024-05-08T06:34:37Z</time>
      </trkpt>
      <trkpt lat="47.13165" lon="2.87682">
        <ele>183</ele>
        <time>2024-05-08T06:34:42Z</time>
      </trkpt>
      <trkpt lat="47.13169" lon="2.87681">
        <ele>183.4</ele>
        <time>2024-05-08T06:34:43Z</time>
      </trkpt>
      <trkpt lat="47.13185" lon="2.87675">
        <ele>184.8</ele>
        <time>2024-05-08T06:34:47Z</time>
      </trkpt>
      <trkpt lat="47.13193" lon="2.87673">
        <ele>185.4</ele>
        <time>2024-05-08T06:34:49Z</time>
      </trkpt>
      <trkpt lat="47.13204" lon="2.8767">
        <ele>186.2</ele>
        <time>2024-05-08T06:34:52Z</time>
      </trkpt>
      <trkpt lat="47.13224" lon="2.87664">
        <ele>187.4</ele>
        <time>2024-05-08T06:34:57Z</time>
      </trkpt>
      <trkpt lat="47.13233" lon="2.87661">
        <ele>187.8</ele>
        <time>2024-05-08T06:34:59Z</time>
      </trkpt>
      <trkpt lat="47.13245" lon="2.87656">
        <ele>188.6</ele>
        <time>2024-05-08T06:35:02Z</time>
      </trkpt>
      <trkpt lat="47.13258" lon="2.87651">
        <ele>189.4</ele>
        <time>2024-05-08T06:35:05Z</time>
      </trkpt>
      <trkpt lat="47.13262" lon="2.8765">
        <ele>189.6</ele>
        <time>2024-05-08T06:35:06Z</time>
      </trkpt>
      <trkpt lat="47.13288" lon="2.87641">
        <ele>190.8</ele>
        <time>2024-05-08T06:35:12Z</time>
      </trkpt>
      <trkpt lat="47.1332" lon="2.8763">
        <ele>191.8</ele>
        <time>2024-05-08T06:35:19Z</time>
      </trkpt>
      <trkpt lat="47.13337" lon="2.87626">
        <ele>192.2</ele>
        <time>2024-05-08T06:35:23Z</time>
      </trkpt>
      <trkpt lat="47.13382" lon="2.87616">
        <ele>193</ele>
        <time>2024-05-08T06:35:32Z</time>
      </trkpt>
      <trkpt lat="47.13428" lon="2.87605">
        <ele>194</ele>
        <time>2024-05-08T06:35:41Z</time>
      </trkpt>
      <trkpt lat="47.13433" lon="2.87604">
        <ele>194</ele>
        <time>2024-05-08T06:35:42Z</time>
      </trkpt>
      <trkpt lat="47.13474" lon="2.87591">
        <ele>194</ele>
        <time>2024-05-08T06:35:49Z</time>
      </trkpt>
      <trkpt lat="47.13513" lon="2.87575">
        <ele>194</ele>
        <time>2024-05-08T06:35:55Z</time>
      </trkpt>
      <trkpt lat="47.13555" lon="2.87555">
        <ele>193.8</ele>
        <time>2024-05-08T06:36:02Z</time>
      </trkpt>
      <trkpt lat="47.13606" lon="2.87527">
        <ele>193.4</ele>
        <time>2024-05-08T06:36:10Z</time>
      </trkpt>
      <trkpt lat="47.13613" lon="2.87524">
        <ele>193.4</ele>
        <time>2024-05-08T06:36:11Z</time>
      </trkpt>
      <trkpt lat="47.1367" lon="2.875">
        <ele>193.2</ele>
        <time>2024-05-08T06:36:20Z</time>
      </trkpt>
      <trkpt lat="47.13708" lon="2.87501">
        <ele>193</ele>
        <time>2024-05-08T06:36:26Z</time>
      </trkpt>
      <trkpt lat="47.13722" lon="2.87504">
        <ele>192.8</ele>
        <time>2024-05-08T06:36:28Z</time>
      </trkpt>
      <trkpt lat="47.13767" lon="2.87525">
        <ele>192.2</ele>
        <time>2024-05-08T06:36:35Z</time>
      </trkpt>
      <trkpt lat="47.13787" lon="2.87536">
        <ele>191.8</ele>
        <time>2024-05-08T06:36:38Z</time>
      </trkpt>
      <trkpt lat="47.13816" lon="2.87546">
        <ele>190.8</ele>
        <time>2024-05-08T06:36:42Z</time>
      </trkpt>
      <trkpt lat="47.13823" lon="2.87547">
        <ele>190.6</ele>
        <time>2024-05-08T06:36:43Z</time>
      </trkpt>
      <trkpt lat="47.13854" lon="2.87548">
        <ele>189.6</ele>
        <time>2024-05-08T06:36:47Z</time>
      </trkpt>
      <trkpt lat="47.13861" lon="2.87548">
        <ele>189.2</ele>
        <time>2024-05-08T06:36:48Z</time>
      </trkpt>
      <trkpt lat="47.13891" lon="2.87544">
        <ele>188.4</ele>
        <time>2024-05-08T06:36:52Z</time>
      </trkpt>
      <trkpt lat="47.13926" lon="2.87541">
        <ele>188</ele>
        <time>2024-05-08T06:36:57Z</time>
      </trkpt>
      <trkpt lat="47.13957" lon="2.8754">
        <ele>188.2</ele>
        <time>2024-05-08T06:37:02Z</time>
      </trkpt>
      <trkpt lat="47.13961" lon="2.8754">
        <ele>188.2</ele>
        <time>2024-05-08T06:37:03Z</time>
      </trkpt>
      <trkpt lat="47.13995" lon="2.87538">
        <ele>189.4</ele>
        <time>2024-05-08T06:37:09Z</time>
      </trkpt>
      <trkpt lat="47.14002" lon="2.87537">
        <ele>189.6</ele>
        <time>2024-05-08T06:37:10Z</time>
      </trkpt>
      <trkpt lat="47.14023" lon="2.87533">
        <ele>190.6</ele>
        <time>2024-05-08T06:37:14Z</time>
      </trkpt>
      <trkpt lat="47.14059" lon="2.87526">
        <ele>191</ele>
        <time>2024-05-08T06:37:20Z</time>
      </trkpt>
      <trkpt lat="47.14118" lon="2.87514">
        <ele>191.2</ele>
        <time>2024-05-08T06:37:30Z</time>
      </trkpt>
      <trkpt lat="47.14124" lon="2.87512">
        <ele>191</ele>
        <time>2024-05-08T06:37:31Z</time>
      </trkpt>
      <trkpt lat="47.14171" lon="2.87494">
        <ele>190.8</ele>
        <time>2024-05-08T06:37:39Z</time>
      </trkpt>
      <trkpt lat="47.14225" lon="2.87457">
        <ele>190.4</ele>
        <time>2024-05-08T06:37:48Z</time>
      </trkpt>
      <trkpt lat="47.14263" lon="2.87425">
        <ele>189.4</ele>
        <time>2024-05-08T06:37:54Z</time>
      </trkpt>
      <trkpt lat="47.1427" lon="2.87419">
        <ele>189.2</ele>
        <time>2024-05-08T06:37:55Z</time>
      </trkpt>
      <trkpt lat="47.14294" lon="2.874">
        <ele>188</ele>
        <time>2024-05-08T06:37:58Z</time>
      </trkpt>
      <trkpt lat="47.14307" lon="2.87388">
        <ele>187.4</ele>
        <time>2024-05-08T06:38:00Z</time>
      </trkpt>
      <trkpt lat="47.14315" lon="2.87382">
        <ele>187</ele>
        <time>2024-05-08T06:38:01Z</time>
      </trkpt>
      <trkpt lat="47.14338" lon="2.87362">
        <ele>185.8</ele>
        <time>2024-05-08T06:38:04Z</time>
      </trkpt>
      <trkpt lat="47.1436" lon="2.87345">
        <ele>185.2</ele>
        <time>2024-05-08T06:38:07Z</time>
      </trkpt>
      <trkpt lat="47.14367" lon="2.87339">
        <ele>184.6</ele>
        <time>2024-05-08T06:38:08Z</time>
      </trkpt>
      <trkpt lat="47.14396" lon="2.87319">
        <ele>183.8</ele>
        <time>2024-05-08T06:38:12Z</time>
      </trkpt>
      <trkpt lat="47.14403" lon="2.87316">
        <ele>183.8</ele>
        <time>2024-05-08T06:38:13Z</time>
      </trkpt>
      <trkpt lat="47.14418" lon="2.87314">
        <ele>183.6</ele>
        <time>2024-05-08T06:38:15Z</time>
      </trkpt>
      <trkpt lat="47.14425" lon="2.87315">
        <ele>183.6</ele>
        <time>2024-05-08T06:38:16Z</time>
      </trkpt>
      <trkpt lat="47.14432" lon="2.87318">
        <ele>183.6</ele>
        <time>2024-05-08T06:38:17Z</time>
      </trkpt>
      <trkpt lat="47.14449" lon="2.87328">
        <ele>184</ele>
        <time>2024-05-08T06:38:20Z</time>
      </trkpt>
      <trkpt lat="47.14463" lon="2.87335">
        <ele>184.6</ele>
        <time>2024-05-08T06:38:23Z</time>
      </trkpt>
      <trkpt lat="47.14477" lon="2.87343">
        <ele>185.8</ele>
        <time>2024-05-08T06:38:26Z</time>
      </trkpt>
      <trkpt lat="47.1448" lon="2.87345">
        <ele>186.2</ele>
        <time>2024-05-08T06:38:27Z</time>
      </trkpt>
      <trkpt lat="47.14488" lon="2.87348">
        <ele>186.8</ele>
        <time>2024-05-08T06:38:29Z</time>
      </trkpt>
      <trkpt lat="47.14493" lon="2.8735">
        <ele>187.4</ele>
        <time>2024-05-08T06:38:30Z</time>
      </trkpt>
      <trkpt lat="47.14497" lon="2.87349">
        <ele>187.6</ele>
        <time>2024-05-08T06:38:31Z</time>
      </trkpt>
      <trkpt lat="47.14501" lon="2.87346">
        <ele>187.8</ele>
        <time>2024-05-08T06:38:32Z</time>
      </trkpt>
      <trkpt lat="47.14505" lon="2.87343">
        <ele>188</ele>
        <time>2024-05-08T06:38:33Z</time>
      </trkpt>
      <trkpt lat="47.14513" lon="2.87336">
        <ele>188.4</ele>
        <time>2024-05-08T06:38:35Z</time>
      </trkpt>
      <trkpt lat="47.14539" lon="2.87324">
        <ele>189</ele>
        <time>2024-05-08T06:38:40Z</time>
      </trkpt>
      <trkpt lat="47.14549" lon="2.87319">
        <ele>189</ele>
        <time>2024-05-08T06:38:42Z</time>
      </trkpt>
      <trkpt lat="47.1457" lon="2.87309">
        <ele>189.4</ele>
        <time>2024-05-08T06:38:46Z</time>
      </trkpt>
      <trkpt lat="47.14619" lon="2.8728">
        <ele>190</ele>
        <time>2024-05-08T06:38:55Z</time>
      </trkpt>
      <trkpt lat="47.14624" lon="2.87276">
        <ele>190</ele>
        <time>2024-05-08T06:38:56Z</time>
      </trkpt>
      <trkpt lat="47.14665" lon="2.87245">
        <ele>190.6</ele>
        <time>2024-05-08T06:39:04Z</time>
      </trkpt>
      <trkpt lat="47.14681" lon="2.87233">
        <ele>191.2</ele>
        <time>2024-05-08T06:39:07Z</time>
      </trkpt>
      <trkpt lat="47.14697" lon="2.87214">
        <ele>191.8</ele>
        <time>2024-05-08T06:39:11Z</time>
      </trkpt>
      <trkpt lat="47.147" lon="2.87209">
        <ele>192</ele>
        <time>2024-05-08T06:39:12Z</time>
      </trkpt>
      <trkpt lat="47.14703" lon="2.87204">
        <ele>192.2</ele>
        <time>2024-05-08T06:39:13Z</time>
      </trkpt>
      <trkpt lat="47.14716" lon="2.87178">
        <ele>192.8</ele>
        <time>2024-05-08T06:39:17Z</time>
      </trkpt>
      <trkpt lat="47.14734" lon="2.87135">
        <ele>192.8</ele>
        <time>2024-05-08T06:39:23Z</time>
      </trkpt>
      <trkpt lat="47.14756" lon="2.87084">
        <ele>192.2</ele>
        <time>2024-05-08T06:39:29Z</time>
      </trkpt>
      <trkpt lat="47.14788" lon="2.87034">
        <ele>191.4</ele>
        <time>2024-05-08T06:39:35Z</time>
      </trkpt>
      <trkpt lat="47.14799" lon="2.87022">
        <ele>191</ele>
        <time>2024-05-08T06:39:37Z</time>
      </trkpt>
      <trkpt lat="47.14829" lon="2.86988">
        <ele>190</ele>
        <time>2024-05-08T06:39:42Z</time>
      </trkpt>
      <trkpt lat="47.14841" lon="2.86976">
        <ele>189.6</ele>
        <time>2024-05-08T06:39:44Z</time>
      </trkpt>
      <trkpt lat="47.14879" lon="2.86934">
        <ele>189</ele>
        <time>2024-05-08T06:39:50Z</time>
      </trkpt>
      <trkpt lat="47.14891" lon="2.86917">
        <ele>188.4</ele>
        <time>2024-05-08T06:39:52Z</time>
      </trkpt>
      <trkpt lat="47.14911" lon="2.86886">
        <ele>187.8</ele>
        <time>2024-05-08T06:39:56Z</time>
      </trkpt>
      <trkpt lat="47.14949" lon="2.86831">
        <ele>186.8</ele>
        <time>2024-05-08T06:40:03Z</time>
      </trkpt>
      <trkpt lat="47.14954" lon="2.86823">
        <ele>186.6</ele>
        <time>2024-05-08T06:40:04Z</time>
      </trkpt>
      <trkpt lat="47.14985" lon="2.86766">
        <ele>186</ele>
        <time>2024-05-08T06:40:11Z</time>
      </trkpt>
      <trkpt lat="47.15013" lon="2.86699">
        <ele>186.2</ele>
        <time>2024-05-08T06:40:19Z</time>
      </trkpt>
      <trkpt lat="47.15034" lon="2.86643">
        <ele>187</ele>
        <time>2024-05-08T06:40:26Z</time>
      </trkpt>
      <trkpt lat="47.15047" lon="2.86605">
        <ele>187.8</ele>
        <time>2024-05-08T06:40:31Z</time>
      </trkpt>
      <trkpt lat="47.15054" lon="2.86586">
        <ele>188.2</ele>
        <time>2024-05-08T06:40:34Z</time>
      </trkpt>
      <trkpt lat="47.15057" lon="2.86577">
        <ele>188.4</ele>
        <time>2024-05-08T06:40:35Z</time>
      </trkpt>
      <trkpt lat="47.15064" lon="2.86555">
        <ele>189</ele>
        <time>2024-05-08T06:40:38Z</time>
      </trkpt>
      <trkpt lat="47.15069" lon="2.86543">
        <ele>189.4</ele>
        <time>2024-05-08T06:40:40Z</time>
      </trkpt>
      <trkpt lat="47.15074" lon="2.86533">
        <ele>189.6</ele>
        <time>2024-05-08T06:40:42Z</time>
      </trkpt>
      <trkpt lat="47.15078" lon="2.86527">
        <ele>189.6</ele>
        <time>2024-05-08T06:40:44Z</time>
      </trkpt>
      <trkpt lat="47.15083" lon="2.86508">
        <ele>189.8</ele>
        <time>2024-05-08T06:40:48Z</time>
      </trkpt>
      <trkpt lat="47.15085" lon="2.86485">
        <ele>189.8</ele>
        <time>2024-05-08T06:40:51Z</time>
      </trkpt>
      <trkpt lat="47.15087" lon="2.86475">
        <ele>189.6</ele>
        <time>2024-05-08T06:40:52Z</time>
      </trkpt>
      <trkpt lat="47.15093" lon="2.86421">
        <ele>189.2</ele>
        <time>2024-05-08T06:40:58Z</time>
      </trkpt>
      <trkpt lat="47.151" lon="2.86355">
        <ele>188</ele>
        <time>2024-05-08T06:41:05Z</time>
      </trkpt>
      <trkpt lat="47.15102" lon="2.86345">
        <ele>187.8</ele>
        <time>2024-05-08T06:41:06Z</time>
      </trkpt>
      <trkpt lat="47.15107" lon="2.86302">
        <ele>186.6</ele>
        <time>2024-05-08T06:41:10Z</time>
      </trkpt>
      <trkpt lat="47.15108" lon="2.86291">
        <ele>186.6</ele>
        <time>2024-05-08T06:41:11Z</time>
      </trkpt>
      <trkpt lat="47.15114" lon="2.86243">
        <ele>185.2</ele>
        <time>2024-05-08T06:41:15Z</time>
      </trkpt>
      <trkpt lat="47.15119" lon="2.86197">
        <ele>184</ele>
        <time>2024-05-08T06:41:19Z</time>
      </trkpt>
      <trkpt lat="47.15124" lon="2.86149">
        <ele>182.8</ele>
        <time>2024-05-08T06:41:23Z</time>
      </trkpt>
      <trkpt lat="47.15127" lon="2.86125">
        <ele>181.6</ele>
        <time>2024-05-08T06:41:25Z</time>
      </trkpt>
      <trkpt lat="47.1513" lon="2.86103">
        <ele>181</ele>
        <time>2024-05-08T06:41:27Z</time>
      </trkpt>
      <trkpt lat="47.15132" lon="2.86078">
        <ele>180.6</ele>
        <time>2024-05-08T06:41:29Z</time>
      </trkpt>
      <trkpt lat="47.15135" lon="2.86048">
        <ele>180</ele>
        <time>2024-05-08T06:41:32Z</time>
      </trkpt>
      <trkpt lat="47.15147" lon="2.85966">
        <ele>179.8</ele>
        <time>2024-05-08T06:41:40Z</time>
      </trkpt>
      <trkpt lat="47.1516" lon="2.85883">
        <ele>179.8</ele>
        <time>2024-05-08T06:41:48Z</time>
      </trkpt>
      <trkpt lat="47.15163" lon="2.85863">
        <ele>179.6</ele>
        <time>2024-05-08T06:41:50Z</time>
      </trkpt>
      <trkpt lat="47.15165" lon="2.85853">
        <ele>179.4</ele>
        <time>2024-05-08T06:41:51Z</time>
      </trkpt>
      <trkpt lat="47.15182" lon="2.85776">
        <ele>178.8</ele>
        <time>2024-05-08T06:41:59Z</time>
      </trkpt>
      <trkpt lat="47.15206" lon="2.85707">
        <ele>178.6</ele>
        <time>2024-05-08T06:42:07Z</time>
      </trkpt>
      <trkpt lat="47.15228" lon="2.85643">
        <ele>178.8</ele>
        <time>2024-05-08T06:42:15Z</time>
      </trkpt>
      <trkpt lat="47.15238" lon="2.85619">
        <ele>178.8</ele>
        <time>2024-05-08T06:42:20Z</time>
      </trkpt>
      <trkpt lat="47.1524" lon="2.85616">
        <ele>179</ele>
        <time>2024-05-08T06:42:24Z</time>
      </trkpt>
      <trkpt lat="47.15243" lon="2.85606">
        <ele>180.2</ele>
        <time>2024-05-08T06:48:13Z</time>
      </trkpt>
      <trkpt lat="47.15246" lon="2.856">
        <ele>180.2</ele>
        <time>2024-05-08T06:48:15Z</time>
      </trkpt>
      <trkpt lat="47.15256" lon="2.85573">
        <ele>180.2</ele>
        <time>2024-05-08T06:48:21Z</time>
      </trkpt>
      <trkpt lat="47.15261" lon="2.85563">
        <ele>180.2</ele>
        <time>2024-05-08T06:48:23Z</time>
      </trkpt>
      <trkpt lat="47.15267" lon="2.85548">
        <ele>180.4</ele>
        <time>2024-05-08T06:48:26Z</time>
      </trkpt>
      <trkpt lat="47.15277" lon="2.85525">
        <ele>180.6</ele>
        <time>2024-05-08T06:48:30Z</time>
      </trkpt>
      <trkpt lat="47.15286" lon="2.85502">
        <ele>180.8</ele>
        <time>2024-05-08T06:48:34Z</time>
      </trkpt>
      <trkpt lat="47.15289" lon="2.85496">
        <ele>181</ele>
        <time>2024-05-08T06:48:35Z</time>
      </trkpt>
      <trkpt lat="47.153" lon="2.85467">
        <ele>181.6</ele>
        <time>2024-05-08T06:48:40Z</time>
      </trkpt>
      <trkpt lat="47.15305" lon="2.85454">
        <ele>182</ele>
        <time>2024-05-08T06:48:42Z</time>
      </trkpt>
      <trkpt lat="47.15316" lon="2.85429">
        <ele>182.6</ele>
        <time>2024-05-08T06:48:46Z</time>
      </trkpt>
      <trkpt lat="47.15326" lon="2.85403">
        <ele>183.2</ele>
        <time>2024-05-08T06:48:50Z</time>
      </trkpt>
      <trkpt lat="47.15334" lon="2.85383">
        <ele>183.4</ele>
        <time>2024-05-08T06:48:53Z</time>
      </trkpt>
      <trkpt lat="47.15344" lon="2.85362">
        <ele>183.6</ele>
        <time>2024-05-08T06:48:56Z</time>
      </trkpt>
      <trkpt lat="47.15346" lon="2.85356">
        <ele>183.8</ele>
        <time>2024-05-08T06:48:57Z</time>
      </trkpt>
      <trkpt lat="47.15349" lon="2.85348">
        <ele>184</ele>
        <time>2024-05-08T06:48:58Z</time>
      </trkpt>
      <trkpt lat="47.15361" lon="2.85315">
        <ele>184.4</ele>
        <time>2024-05-08T06:49:02Z</time>
      </trkpt>
      <trkpt lat="47.15388" lon="2.85245">
        <ele>184.6</ele>
        <time>2024-05-08T06:49:11Z</time>
      </trkpt>
      <trkpt lat="47.15417" lon="2.85171">
        <ele>184.4</ele>
        <time>2024-05-08T06:49:20Z</time>
      </trkpt>
      <trkpt lat="47.15444" lon="2.85102">
        <ele>184.4</ele>
        <time>2024-05-08T06:49:29Z</time>
      </trkpt>
      <trkpt lat="47.15473" lon="2.85031">
        <ele>184.6</ele>
        <time>2024-05-08T06:49:38Z</time>
      </trkpt>
      <trkpt lat="47.15476" lon="2.85023">
        <ele>184.6</ele>
        <time>2024-05-08T06:49:39Z</time>
      </trkpt>
      <trkpt lat="47.15506" lon="2.84951">
        <ele>184.8</ele>
        <time>2024-05-08T06:49:48Z</time>
      </trkpt>
      <trkpt lat="47.15519" lon="2.8492">
        <ele>184.8</ele>
        <time>2024-05-08T06:49:52Z</time>
      </trkpt>
      <trkpt lat="47.15535" lon="2.84882">
        <ele>185</ele>
        <time>2024-05-08T06:49:57Z</time>
      </trkpt>
      <trkpt lat="47.1556" lon="2.8482">
        <ele>186</ele>
        <time>2024-05-08T06:50:05Z</time>
      </trkpt>
      <trkpt lat="47.15563" lon="2.84812">
        <ele>186</ele>
        <time>2024-05-08T06:50:06Z</time>
      </trkpt>
      <trkpt lat="47.15594" lon="2.84739">
        <ele>186.2</ele>
        <time>2024-05-08T06:50:15Z</time>
      </trkpt>
      <trkpt lat="47.15597" lon="2.84731">
        <ele>186</ele>
        <time>2024-05-08T06:50:16Z</time>
      </trkpt>
      <trkpt lat="47.15615" lon="2.84687">
        <ele>186</ele>
        <time>2024-05-08T06:50:21Z</time>
      </trkpt>
      <trkpt lat="47.15621" lon="2.84672">
        <ele>185.8</ele>
        <time>2024-05-08T06:50:23Z</time>
      </trkpt>
      <trkpt lat="47.15652" lon="2.84603">
        <ele>185</ele>
        <time>2024-05-08T06:50:31Z</time>
      </trkpt>
      <trkpt lat="47.15661" lon="2.84587">
        <ele>185</ele>
        <time>2024-05-08T06:50:33Z</time>
      </trkpt>
      <trkpt lat="47.15694" lon="2.84544">
        <ele>184</ele>
        <time>2024-05-08T06:50:39Z</time>
      </trkpt>
      <trkpt lat="47.15706" lon="2.84529">
        <ele>183.8</ele>
        <time>2024-05-08T06:50:41Z</time>
      </trkpt>
      <trkpt lat="47.15725" lon="2.84506">
        <ele>183.4</ele>
        <time>2024-05-08T06:50:44Z</time>
      </trkpt>
      <trkpt lat="47.1573" lon="2.84497">
        <ele>183</ele>
        <time>2024-05-08T06:50:45Z</time>
      </trkpt>
      <trkpt lat="47.15735" lon="2.84487">
        <ele>182.8</ele>
        <time>2024-05-08T06:50:46Z</time>
      </trkpt>
      <trkpt lat="47.15753" lon="2.84445">
        <ele>181.4</ele>
        <time>2024-05-08T06:50:50Z</time>
      </trkpt>
      <trkpt lat="47.15759" lon="2.84423">
        <ele>180.4</ele>
        <time>2024-05-08T06:50:52Z</time>
      </trkpt>
      <trkpt lat="47.15768" lon="2.84382">
        <ele>179.2</ele>
        <time>2024-05-08T06:50:55Z</time>
      </trkpt>
      <trkpt lat="47.15775" lon="2.84359">
        <ele>178.4</ele>
        <time>2024-05-08T06:50:57Z</time>
      </trkpt>
      <trkpt lat="47.15785" lon="2.84336">
        <ele>177.6</ele>
        <time>2024-05-08T06:50:59Z</time>
      </trkpt>
      <trkpt lat="47.15802" lon="2.84305">
        <ele>176.4</ele>
        <time>2024-05-08T06:51:02Z</time>
      </trkpt>
      <trkpt lat="47.15819" lon="2.84277">
        <ele>175.6</ele>
        <time>2024-05-08T06:51:05Z</time>
      </trkpt>
      <trkpt lat="47.15825" lon="2.84269">
        <ele>175.4</ele>
        <time>2024-05-08T06:51:06Z</time>
      </trkpt>
      <trkpt lat="47.15851" lon="2.84224">
        <ele>175.2</ele>
        <time>2024-05-08T06:51:11Z</time>
      </trkpt>
      <trkpt lat="47.15889" lon="2.84158">
        <ele>174.8</ele>
        <time>2024-05-08T06:51:19Z</time>
      </trkpt>
      <trkpt lat="47.15919" lon="2.84108">
        <ele>175.2</ele>
        <time>2024-05-08T06:51:26Z</time>
      </trkpt>
      <trkpt lat="47.15957" lon="2.84049">
        <ele>175.8</ele>
        <time>2024-05-08T06:51:35Z</time>
      </trkpt>
      <trkpt lat="47.15965" lon="2.84037">
        <ele>175.8</ele>
        <time>2024-05-08T06:51:37Z</time>
      </trkpt>
      <trkpt lat="47.16007" lon="2.83977">
        <ele>176.2</ele>
        <time>2024-05-08T06:51:46Z</time>
      </trkpt>
      <trkpt lat="47.16027" lon="2.83949">
        <ele>176.2</ele>
        <time>2024-05-08T06:51:50Z</time>
      </trkpt>
      <trkpt lat="47.16041" lon="2.83929">
        <ele>176.2</ele>
        <time>2024-05-08T06:51:53Z</time>
      </trkpt>
      <trkpt lat="47.16056" lon="2.83915">
        <ele>176.2</ele>
        <time>2024-05-08T06:51:56Z</time>
      </trkpt>
      <trkpt lat="47.16106" lon="2.83876">
        <ele>176.2</ele>
        <time>2024-05-08T06:52:05Z</time>
      </trkpt>
      <trkpt lat="47.16138" lon="2.83851">
        <ele>176.4</ele>
        <time>2024-05-08T06:52:11Z</time>
      </trkpt>
      <trkpt lat="47.16166" lon="2.8383">
        <ele>176.8</ele>
        <time>2024-05-08T06:52:16Z</time>
      </trkpt>
      <trkpt lat="47.16201" lon="2.83802">
        <ele>177.4</ele>
        <time>2024-05-08T06:52:23Z</time>
      </trkpt>
      <trkpt lat="47.16222" lon="2.83786">
        <ele>177.8</ele>
        <time>2024-05-08T06:52:27Z</time>
      </trkpt>
      <trkpt lat="47.16248" lon="2.83765">
        <ele>178.4</ele>
        <time>2024-05-08T06:52:33Z</time>
      </trkpt>
      <trkpt lat="47.16252" lon="2.83762">
        <ele>178.6</ele>
        <time>2024-05-08T06:52:34Z</time>
      </trkpt>
      <trkpt lat="47.16276" lon="2.83742">
        <ele>179.4</ele>
        <time>2024-05-08T06:52:40Z</time>
      </trkpt>
      <trkpt lat="47.16284" lon="2.83738">
        <ele>180</ele>
        <time>2024-05-08T06:52:42Z</time>
      </trkpt>
      <trkpt lat="47.16299" lon="2.83728">
        <ele>180.8</ele>
        <time>2024-05-08T06:52:46Z</time>
      </trkpt>
      <trkpt lat="47.1631" lon="2.8372">
        <ele>181.8</ele>
        <time>2024-05-08T06:52:49Z</time>
      </trkpt>
      <trkpt lat="47.1632" lon="2.83713">
        <ele>182.8</ele>
        <time>2024-05-08T06:52:52Z</time>
      </trkpt>
      <trkpt lat="47.16325" lon="2.8371">
        <ele>183</ele>
        <time>2024-05-08T06:52:53Z</time>
      </trkpt>
      <trkpt lat="47.16344" lon="2.83701">
        <ele>184.2</ele>
        <time>2024-05-08T06:52:58Z</time>
      </trkpt>
      <trkpt lat="47.16349" lon="2.83699">
        <ele>184.4</ele>
        <time>2024-05-08T06:52:59Z</time>
      </trkpt>
      <trkpt lat="47.16375" lon="2.83689">
        <ele>185.2</ele>
        <time>2024-05-08T06:53:05Z</time>
      </trkpt>
      <trkpt lat="47.16395" lon="2.8368">
        <ele>185.4</ele>
        <time>2024-05-08T06:53:09Z</time>
      </trkpt>
      <trkpt lat="47.16435" lon="2.83665">
        <ele>185.2</ele>
        <time>2024-05-08T06:53:16Z</time>
      </trkpt>
      <trkpt lat="47.1648" lon="2.83649">
        <ele>184.4</ele>
        <time>2024-05-08T06:53:23Z</time>
      </trkpt>
      <trkpt lat="47.16502" lon="2.83642">
        <ele>184</ele>
        <time>2024-05-08T06:53:26Z</time>
      </trkpt>
      <trkpt lat="47.16528" lon="2.83636">
        <ele>183.2</ele>
        <time>2024-05-08T06:53:30Z</time>
      </trkpt>
      <trkpt lat="47.16542" lon="2.83635">
        <ele>183</ele>
        <time>2024-05-08T06:53:32Z</time>
      </trkpt>
      <trkpt lat="47.16586" lon="2.83635">
        <ele>182.6</ele>
        <time>2024-05-08T06:53:39Z</time>
      </trkpt>
      <trkpt lat="47.16635" lon="2.83631">
        <ele>182.4</ele>
        <time>2024-05-08T06:53:47Z</time>
      </trkpt>
      <trkpt lat="47.16652" lon="2.83627">
        <ele>182.6</ele>
        <time>2024-05-08T06:53:50Z</time>
      </trkpt>
      <trkpt lat="47.16662" lon="2.83624">
        <ele>182.6</ele>
        <time>2024-05-08T06:53:52Z</time>
      </trkpt>
      <trkpt lat="47.16667" lon="2.83622">
        <ele>183</ele>
        <time>2024-05-08T06:53:53Z</time>
      </trkpt>
      <trkpt lat="47.16696" lon="2.83611">
        <ele>184.2</ele>
        <time>2024-05-08T06:53:59Z</time>
      </trkpt>
      <trkpt lat="47.16706" lon="2.83606">
        <ele>184.6</ele>
        <time>2024-05-08T06:54:01Z</time>
      </trkpt>
      <trkpt lat="47.16737" lon="2.83591">
        <ele>185.2</ele>
        <time>2024-05-08T06:54:07Z</time>
      </trkpt>
      <trkpt lat="47.16752" lon="2.83584">
        <ele>185.4</ele>
        <time>2024-05-08T06:54:10Z</time>
      </trkpt>
      <trkpt lat="47.16789" lon="2.83564">
        <ele>185.4</ele>
        <time>2024-05-08T06:54:17Z</time>
      </trkpt>
      <trkpt lat="47.16842" lon="2.83538">
        <ele>185.4</ele>
        <time>2024-05-08T06:54:27Z</time>
      </trkpt>
      <trkpt lat="47.16846" lon="2.83536">
        <ele>185.4</ele>
        <time>2024-05-08T06:54:28Z</time>
      </trkpt>
      <trkpt lat="47.16897" lon="2.83508">
        <ele>185.4</ele>
        <time>2024-05-08T06:54:37Z</time>
      </trkpt>
      <trkpt lat="47.16908" lon="2.83501">
        <ele>185.2</ele>
        <time>2024-05-08T06:54:39Z</time>
      </trkpt>
      <trkpt lat="47.16957" lon="2.83468">
        <ele>184.6</ele>
        <time>2024-05-08T06:54:48Z</time>
      </trkpt>
      <trkpt lat="47.16975" lon="2.83456">
        <ele>184.4</ele>
        <time>2024-05-08T06:54:51Z</time>
      </trkpt>
      <trkpt lat="47.16985" lon="2.83448">
        <ele>184.2</ele>
        <time>2024-05-08T06:54:53Z</time>
      </trkpt>
      <trkpt lat="47.17029" lon="2.83413">
        <ele>184</ele>
        <time>2024-05-08T06:55:01Z</time>
      </trkpt>
      <trkpt lat="47.17076" lon="2.83371">
        <ele>183.6</ele>
        <time>2024-05-08T06:55:10Z</time>
      </trkpt>
      <trkpt lat="47.17081" lon="2.83366">
        <ele>183.6</ele>
        <time>2024-05-08T06:55:11Z</time>
      </trkpt>
      <trkpt lat="47.17127" lon="2.8332">
        <ele>183.8</ele>
        <time>2024-05-08T06:55:20Z</time>
      </trkpt>
      <trkpt lat="47.17171" lon="2.83274">
        <ele>183.2</ele>
        <time>2024-05-08T06:55:28Z</time>
      </trkpt>
      <trkpt lat="47.17181" lon="2.83263">
        <ele>183</ele>
        <time>2024-05-08T06:55:30Z</time>
      </trkpt>
      <trkpt lat="47.17213" lon="2.83227">
        <ele>182.6</ele>
        <time>2024-05-08T06:55:36Z</time>
      </trkpt>
      <trkpt lat="47.17236" lon="2.83204">
        <ele>182</ele>
        <time>2024-05-08T06:55:40Z</time>
      </trkpt>
      <trkpt lat="47.17264" lon="2.83177">
        <ele>181.6</ele>
        <time>2024-05-08T06:55:45Z</time>
      </trkpt>
      <trkpt lat="47.17299" lon="2.83146">
        <ele>181</ele>
        <time>2024-05-08T06:55:51Z</time>
      </trkpt>
      <trkpt lat="47.17322" lon="2.83129">
        <ele>181</ele>
        <time>2024-05-08T06:55:55Z</time>
      </trkpt>
      <trkpt lat="47.1737" lon="2.831">
        <ele>180.8</ele>
        <time>2024-05-08T06:56:03Z</time>
      </trkpt>
      <trkpt lat="47.17419" lon="2.83069">
        <ele>180.4</ele>
        <time>2024-05-08T06:56:12Z</time>
      </trkpt>
      <trkpt lat="47.17452" lon="2.83049">
        <ele>180</ele>
        <time>2024-05-08T06:56:18Z</time>
      </trkpt>
      <trkpt lat="47.17458" lon="2.83045">
        <ele>180</ele>
        <time>2024-05-08T06:56:19Z</time>
      </trkpt>
      <trkpt lat="47.17494" lon="2.83023">
        <ele>179.8</ele>
        <time>2024-05-08T06:56:26Z</time>
      </trkpt>
      <trkpt lat="47.17548" lon="2.82995">
        <ele>180.2</ele>
        <time>2024-05-08T06:56:36Z</time>
      </trkpt>
      <trkpt lat="47.17553" lon="2.82991">
        <ele>180.2</ele>
        <time>2024-05-08T06:56:37Z</time>
      </trkpt>
      <trkpt lat="47.17587" lon="2.8297">
        <ele>180.6</ele>
        <time>2024-05-08T06:56:44Z</time>
      </trkpt>
      <trkpt lat="47.17617" lon="2.8295">
        <ele>181</ele>
        <time>2024-05-08T06:56:50Z</time>
      </trkpt>
      <trkpt lat="47.17647" lon="2.8293">
        <ele>181.6</ele>
        <time>2024-05-08T06:56:56Z</time>
      </trkpt>
      <trkpt lat="47.17671" lon="2.82914">
        <ele>182</ele>
        <time>2024-05-08T06:57:01Z</time>
      </trkpt>
      <trkpt lat="47.17698" lon="2.82901">
        <ele>182.6</ele>
        <time>2024-05-08T06:57:06Z</time>
      </trkpt>
      <trkpt lat="47.1775" lon="2.82877">
        <ele>182.8</ele>
        <time>2024-05-08T06:57:15Z</time>
      </trkpt>
      <trkpt lat="47.17802" lon="2.82851">
        <ele>182.8</ele>
        <time>2024-05-08T06:57:24Z</time>
      </trkpt>
      <trkpt lat="47.17818" lon="2.82841">
        <ele>182.8</ele>
        <time>2024-05-08T06:57:27Z</time>
      </trkpt>
      <trkpt lat="47.17859" lon="2.82801">
        <ele>182.2</ele>
        <time>2024-05-08T06:57:35Z</time>
      </trkpt>
      <trkpt lat="47.17897" lon="2.82754">
        <ele>181.8</ele>
        <time>2024-05-08T06:57:42Z</time>
      </trkpt>
      <trkpt lat="47.17925" lon="2.82716">
        <ele>181</ele>
        <time>2024-05-08T06:57:47Z</time>
      </trkpt>
      <trkpt lat="47.17935" lon="2.82703">
        <ele>180.6</ele>
        <time>2024-05-08T06:57:49Z</time>
      </trkpt>
      <trkpt lat="47.1796" lon="2.82677">
        <ele>179.8</ele>
        <time>2024-05-08T06:57:53Z</time>
      </trkpt>
      <trkpt lat="47.17974" lon="2.82667">
        <ele>179.4</ele>
        <time>2024-05-08T06:57:55Z</time>
      </trkpt>
      <trkpt lat="47.18025" lon="2.82636">
        <ele>179</ele>
        <time>2024-05-08T06:58:03Z</time>
      </trkpt>
      <trkpt lat="47.18032" lon="2.82632">
        <ele>179</ele>
        <time>2024-05-08T06:58:04Z</time>
      </trkpt>
      <trkpt lat="47.1805" lon="2.82621">
        <ele>178.8</ele>
        <time>2024-05-08T06:58:07Z</time>
      </trkpt>
      <trkpt lat="47.18091" lon="2.82597">
        <ele>177.8</ele>
        <time>2024-05-08T06:58:13Z</time>
      </trkpt>
      <trkpt lat="47.18098" lon="2.82594">
        <ele>177.8</ele>
        <time>2024-05-08T06:58:14Z</time>
      </trkpt>
      <trkpt lat="47.18151" lon="2.82566">
        <ele>176.6</ele>
        <time>2024-05-08T06:58:22Z</time>
      </trkpt>
      <trkpt lat="47.1818" lon="2.8255">
        <ele>176</ele>
        <time>2024-05-08T06:58:26Z</time>
      </trkpt>
      <trkpt lat="47.18195" lon="2.82542">
        <ele>175.6</ele>
        <time>2024-05-08T06:58:28Z</time>
      </trkpt>
      <trkpt lat="47.18241" lon="2.82518">
        <ele>174.4</ele>
        <time>2024-05-08T06:58:34Z</time>
      </trkpt>
      <trkpt lat="47.18247" lon="2.82515">
        <ele>173.8</ele>
        <time>2024-05-08T06:58:35Z</time>
      </trkpt>
      <trkpt lat="47.18264" lon="2.82507">
        <ele>173.4</ele>
        <time>2024-05-08T06:58:37Z</time>
      </trkpt>
      <trkpt lat="47.18298" lon="2.82488">
        <ele>172</ele>
        <time>2024-05-08T06:58:41Z</time>
      </trkpt>
      <trkpt lat="47.18316" lon="2.82479">
        <ele>170.8</ele>
        <time>2024-05-08T06:58:43Z</time>
      </trkpt>
      <trkpt lat="47.1835" lon="2.82458">
        <ele>169.6</ele>
        <time>2024-05-08T06:58:47Z</time>
      </trkpt>
      <trkpt lat="47.18363" lon="2.82446">
        <ele>169</ele>
        <time>2024-05-08T06:58:49Z</time>
      </trkpt>
      <trkpt lat="47.18382" lon="2.82422">
        <ele>168.6</ele>
        <time>2024-05-08T06:58:52Z</time>
      </trkpt>
      <trkpt lat="47.18386" lon="2.82416">
        <ele>168.6</ele>
        <time>2024-05-08T06:58:53Z</time>
      </trkpt>
      <trkpt lat="47.18407" lon="2.82385">
        <ele>168.8</ele>
        <time>2024-05-08T06:58:58Z</time>
      </trkpt>
      <trkpt lat="47.18422" lon="2.82361">
        <ele>169.6</ele>
        <time>2024-05-08T06:59:02Z</time>
      </trkpt>
      <trkpt lat="47.1843" lon="2.82348">
        <ele>169.8</ele>
        <time>2024-05-08T06:59:04Z</time>
      </trkpt>
      <trkpt lat="47.1845" lon="2.8232">
        <ele>170.6</ele>
        <time>2024-05-08T06:59:09Z</time>
      </trkpt>
      <trkpt lat="47.18467" lon="2.82292">
        <ele>171.2</ele>
        <time>2024-05-08T06:59:13Z</time>
      </trkpt>
      <trkpt lat="47.18479" lon="2.82274">
        <ele>171.8</ele>
        <time>2024-05-08T06:59:16Z</time>
      </trkpt>
      <trkpt lat="47.185" lon="2.82241">
        <ele>172</ele>
        <time>2024-05-08T06:59:21Z</time>
      </trkpt>
      <trkpt lat="47.18538" lon="2.82185">
        <ele>171.6</ele>
        <time>2024-05-08T06:59:29Z</time>
      </trkpt>
      <trkpt lat="47.18549" lon="2.82174">
        <ele>171.4</ele>
        <time>2024-05-08T06:59:31Z</time>
      </trkpt>
      <trkpt lat="47.18562" lon="2.82167">
        <ele>171</ele>
        <time>2024-05-08T06:59:33Z</time>
      </trkpt>
      <trkpt lat="47.18574" lon="2.82166">
        <ele>170.6</ele>
        <time>2024-05-08T06:59:35Z</time>
      </trkpt>
      <trkpt lat="47.18581" lon="2.82167">
        <ele>170.6</ele>
        <time>2024-05-08T06:59:36Z</time>
      </trkpt>
      <trkpt lat="47.18589" lon="2.82169">
        <ele>170.4</ele>
        <time>2024-05-08T06:59:37Z</time>
      </trkpt>
      <trkpt lat="47.18618" lon="2.82189">
        <ele>170.2</ele>
        <time>2024-05-08T06:59:42Z</time>
      </trkpt>
      <trkpt lat="47.18634" lon="2.822">
        <ele>170</ele>
        <time>2024-05-08T06:59:45Z</time>
      </trkpt>
      <trkpt lat="47.18642" lon="2.82201">
        <ele>169.8</ele>
        <time>2024-05-08T06:59:46Z</time>
      </trkpt>
      <trkpt lat="47.18648" lon="2.82199">
        <ele>169.8</ele>
        <time>2024-05-08T06:59:47Z</time>
      </trkpt>
      <trkpt lat="47.18658" lon="2.82189">
        <ele>169.8</ele>
        <time>2024-05-08T06:59:49Z</time>
      </trkpt>
      <trkpt lat="47.18663" lon="2.8218">
        <ele>169.6</ele>
        <time>2024-05-08T06:59:50Z</time>
      </trkpt>
      <trkpt lat="47.18669" lon="2.82161">
        <ele>169.4</ele>
        <time>2024-05-08T06:59:52Z</time>
      </trkpt>
      <trkpt lat="47.18684" lon="2.82102">
        <ele>168.6</ele>
        <time>2024-05-08T06:59:58Z</time>
      </trkpt>
      <trkpt lat="47.1869" lon="2.82079">
        <ele>168</ele>
        <time>2024-05-08T07:00:00Z</time>
      </trkpt>
      <trkpt lat="47.18706" lon="2.82053">
        <ele>167</ele>
        <time>2024-05-08T07:00:03Z</time>
      </trkpt>
      <trkpt lat="47.18737" lon="2.82005">
        <ele>165.4</ele>
        <time>2024-05-08T07:00:08Z</time>
      </trkpt>
      <trkpt lat="47.18743" lon="2.81995">
        <ele>165.2</ele>
        <time>2024-05-08T07:00:09Z</time>
      </trkpt>
      <trkpt lat="47.18762" lon="2.81965">
        <ele>164</ele>
        <time>2024-05-08T07:00:12Z</time>
      </trkpt>
      <trkpt lat="47.1878" lon="2.81937">
        <ele>162.8</ele>
        <time>2024-05-08T07:00:15Z</time>
      </trkpt>
      <trkpt lat="47.18791" lon="2.81918">
        <ele>162.4</ele>
        <time>2024-05-08T07:00:17Z</time>
      </trkpt>
      <trkpt lat="47.18815" lon="2.81881">
        <ele>161.8</ele>
        <time>2024-05-08T07:00:21Z</time>
      </trkpt>
      <trkpt lat="47.18843" lon="2.81837">
        <ele>161.4</ele>
        <time>2024-05-08T07:00:26Z</time>
      </trkpt>
      <trkpt lat="47.18861" lon="2.81813">
        <ele>161.2</ele>
        <time>2024-05-08T07:00:29Z</time>
      </trkpt>
      <trkpt lat="47.18867" lon="2.81807">
        <ele>161.2</ele>
        <time>2024-05-08T07:00:30Z</time>
      </trkpt>
      <trkpt lat="47.18895" lon="2.81786">
        <ele>161.2</ele>
        <time>2024-05-08T07:00:35Z</time>
      </trkpt>
      <trkpt lat="47.18928" lon="2.81769">
        <ele>161.8</ele>
        <time>2024-05-08T07:00:41Z</time>
      </trkpt>
      <trkpt lat="47.18935" lon="2.81766">
        <ele>162</ele>
        <time>2024-05-08T07:00:42Z</time>
      </trkpt>
      <trkpt lat="47.18951" lon="2.8176">
        <ele>162.2</ele>
        <time>2024-05-08T07:00:45Z</time>
      </trkpt>
      <trkpt lat="47.18963" lon="2.81754">
        <ele>162.6</ele>
        <time>2024-05-08T07:00:47Z</time>
      </trkpt>
      <trkpt lat="47.18986" lon="2.81746">
        <ele>162.8</ele>
        <time>2024-05-08T07:00:51Z</time>
      </trkpt>
      <trkpt lat="47.19019" lon="2.81733">
        <ele>163.8</ele>
        <time>2024-05-08T07:00:57Z</time>
      </trkpt>
      <trkpt lat="47.19024" lon="2.81732">
        <ele>164</ele>
        <time>2024-05-08T07:00:58Z</time>
      </trkpt>
      <trkpt lat="47.1906" lon="2.81719">
        <ele>164.6</ele>
        <time>2024-05-08T07:01:05Z</time>
      </trkpt>
      <trkpt lat="47.19072" lon="2.81715">
        <ele>165.2</ele>
        <time>2024-05-08T07:01:08Z</time>
      </trkpt>
      <trkpt lat="47.19082" lon="2.81711">
        <ele>165.6</ele>
        <time>2024-05-08T07:01:10Z</time>
      </trkpt>
      <trkpt lat="47.19094" lon="2.81707">
        <ele>166.4</ele>
        <time>2024-05-08T07:01:13Z</time>
      </trkpt>
      <trkpt lat="47.19099" lon="2.81705">
        <ele>166.6</ele>
        <time>2024-05-08T07:01:14Z</time>
      </trkpt>
      <trkpt lat="47.19114" lon="2.81698">
        <ele>167.4</ele>
        <time>2024-05-08T07:01:18Z</time>
      </trkpt>
      <trkpt lat="47.19119" lon="2.81696">
        <ele>167.4</ele>
        <time>2024-05-08T07:01:19Z</time>
      </trkpt>
      <trkpt lat="47.19135" lon="2.81691">
        <ele>168.4</ele>
        <time>2024-05-08T07:01:23Z</time>
      </trkpt>
      <trkpt lat="47.19138" lon="2.8169">
        <ele>168.6</ele>
        <time>2024-05-08T07:01:24Z</time>
      </trkpt>
      <trkpt lat="47.19154" lon="2.81685">
        <ele>169.8</ele>
        <time>2024-05-08T07:01:28Z</time>
      </trkpt>
      <trkpt lat="47.1917" lon="2.8168">
        <ele>170.6</ele>
        <time>2024-05-08T07:01:32Z</time>
      </trkpt>
      <trkpt lat="47.19174" lon="2.81678">
        <ele>170.8</ele>
        <time>2024-05-08T07:01:33Z</time>
      </trkpt>
      <trkpt lat="47.19193" lon="2.81671">
        <ele>172</ele>
        <time>2024-05-08T07:01:38Z</time>
      </trkpt>
      <trkpt lat="47.192" lon="2.81668">
        <ele>172.2</ele>
        <time>2024-05-08T07:01:40Z</time>
      </trkpt>
      <trkpt lat="47.19208" lon="2.81665">
        <ele>172.6</ele>
        <time>2024-05-08T07:01:42Z</time>
      </trkpt>
      <trkpt lat="47.19219" lon="2.8166">
        <ele>173</ele>
        <time>2024-05-08T07:01:45Z</time>
      </trkpt>
      <trkpt lat="47.19232" lon="2.81654">
        <ele>174</ele>
        <time>2024-05-08T07:01:48Z</time>
      </trkpt>
      <trkpt lat="47.19254" lon="2.81645">
        <ele>175.2</ele>
        <time>2024-05-08T07:01:54Z</time>
      </trkpt>
      <trkpt lat="47.19259" lon="2.81643">
        <ele>175.6</ele>
        <time>2024-05-08T07:01:55Z</time>
      </trkpt>
      <trkpt lat="47.19274" lon="2.81637">
        <ele>176.4</ele>
        <time>2024-05-08T07:01:59Z</time>
      </trkpt>
      <trkpt lat="47.19291" lon="2.81631">
        <ele>177.2</ele>
        <time>2024-05-08T07:02:03Z</time>
      </trkpt>
      <trkpt lat="47.19299" lon="2.81628">
        <ele>177.6</ele>
        <time>2024-05-08T07:02:05Z</time>
      </trkpt>
      <trkpt lat="47.19331" lon="2.81616">
        <ele>178.6</ele>
        <time>2024-05-08T07:02:12Z</time>
      </trkpt>
      <trkpt lat="47.19343" lon="2.81612">
        <ele>178.6</ele>
        <time>2024-05-08T07:02:14Z</time>
      </trkpt>
      <trkpt lat="47.19368" lon="2.81602">
        <ele>178.8</ele>
        <time>2024-05-08T07:02:19Z</time>
      </trkpt>
      <trkpt lat="47.19421" lon="2.81582">
        <ele>178.4</ele>
        <time>2024-05-08T07:02:28Z</time>
      </trkpt>
      <trkpt lat="47.19432" lon="2.81577">
        <ele>178.4</ele>
        <time>2024-05-08T07:02:30Z</time>
      </trkpt>
      <trkpt lat="47.19485" lon="2.81558">
        <ele>178</ele>
        <time>2024-05-08T07:02:39Z</time>
      </trkpt>
      <trkpt lat="47.19504" lon="2.81551">
        <ele>177.8</ele>
        <time>2024-05-08T07:02:42Z</time>
      </trkpt>
      <trkpt lat="47.19521" lon="2.81545">
        <ele>177.6</ele>
        <time>2024-05-08T07:02:45Z</time>
      </trkpt>
      <trkpt lat="47.19573" lon="2.81525">
        <ele>177.8</ele>
        <time>2024-05-08T07:02:54Z</time>
      </trkpt>
      <trkpt lat="47.1962" lon="2.81507">
        <ele>178.2</ele>
        <time>2024-05-08T07:03:02Z</time>
      </trkpt>
      <trkpt lat="47.19677" lon="2.81486">
        <ele>178.6</ele>
        <time>2024-05-08T07:03:12Z</time>
      </trkpt>
      <trkpt lat="47.19731" lon="2.81466">
        <ele>178.4</ele>
        <time>2024-05-08T07:03:21Z</time>
      </trkpt>
      <trkpt lat="47.19755" lon="2.81457">
        <ele>178.2</ele>
        <time>2024-05-08T07:03:25Z</time>
      </trkpt>
      <trkpt lat="47.19796" lon="2.81441">
        <ele>178.2</ele>
        <time>2024-05-08T07:03:32Z</time>
      </trkpt>
      <trkpt lat="47.19842" lon="2.81424">
        <ele>177.8</ele>
        <time>2024-05-08T07:03:39Z</time>
      </trkpt>
      <trkpt lat="47.19898" lon="2.81403">
        <ele>177.4</ele>
        <time>2024-05-08T07:03:48Z</time>
      </trkpt>
      <trkpt lat="47.19917" lon="2.81395">
        <ele>177</ele>
        <time>2024-05-08T07:03:51Z</time>
      </trkpt>
      <trkpt lat="47.19962" lon="2.81378">
        <ele>176.6</ele>
        <time>2024-05-08T07:03:58Z</time>
      </trkpt>
      <trkpt lat="47.19993" lon="2.81367">
        <ele>175.8</ele>
        <time>2024-05-08T07:04:03Z</time>
      </trkpt>
      <trkpt lat="47.20018" lon="2.81358">
        <ele>175.4</ele>
        <time>2024-05-08T07:04:07Z</time>
      </trkpt>
      <trkpt lat="47.20062" lon="2.81341">
        <ele>174.8</ele>
        <time>2024-05-08T07:04:14Z</time>
      </trkpt>
      <trkpt lat="47.20117" lon="2.8132">
        <ele>174.4</ele>
        <time>2024-05-08T07:04:23Z</time>
      </trkpt>
      <trkpt lat="47.20123" lon="2.81318">
        <ele>174.2</ele>
        <time>2024-05-08T07:04:24Z</time>
      </trkpt>
      <trkpt lat="47.2016" lon="2.81304">
        <ele>173.8</ele>
        <time>2024-05-08T07:04:30Z</time>
      </trkpt>
      <trkpt lat="47.20218" lon="2.81283">
        <ele>173.6</ele>
        <time>2024-05-08T07:04:39Z</time>
      </trkpt>
      <trkpt lat="47.20271" lon="2.81264">
        <ele>173.2</ele>
        <time>2024-05-08T07:04:48Z</time>
      </trkpt>
      <trkpt lat="47.20279" lon="2.81261">
        <ele>173.2</ele>
        <time>2024-05-08T07:04:49Z</time>
      </trkpt>
      <trkpt lat="47.2032" lon="2.81245">
        <ele>172</ele>
        <time>2024-05-08T07:04:55Z</time>
      </trkpt>
      <trkpt lat="47.20332" lon="2.8124">
        <ele>172</ele>
        <time>2024-05-08T07:04:57Z</time>
      </trkpt>
      <trkpt lat="47.20361" lon="2.81226">
        <ele>171</ele>
        <time>2024-05-08T07:05:01Z</time>
      </trkpt>
      <trkpt lat="47.2039" lon="2.81208">
        <ele>170</ele>
        <time>2024-05-08T07:05:05Z</time>
      </trkpt>
      <trkpt lat="47.20398" lon="2.81204">
        <ele>169.6</ele>
        <time>2024-05-08T07:05:06Z</time>
      </trkpt>
      <trkpt lat="47.20428" lon="2.81182">
        <ele>168.6</ele>
        <time>2024-05-08T07:05:10Z</time>
      </trkpt>
      <trkpt lat="47.20445" lon="2.81169">
        <ele>167.4</ele>
        <time>2024-05-08T07:05:12Z</time>
      </trkpt>
      <trkpt lat="47.20458" lon="2.81158">
        <ele>166.8</ele>
        <time>2024-05-08T07:05:14Z</time>
      </trkpt>
      <trkpt lat="47.2048" lon="2.81139">
        <ele>166.2</ele>
        <time>2024-05-08T07:05:17Z</time>
      </trkpt>
      <trkpt lat="47.20505" lon="2.81119">
        <ele>165.4</ele>
        <time>2024-05-08T07:05:21Z</time>
      </trkpt>
      <trkpt lat="47.20525" lon="2.81103">
        <ele>165.2</ele>
        <time>2024-05-08T07:05:24Z</time>
      </trkpt>
      <trkpt lat="47.20559" lon="2.81077">
        <ele>164.4</ele>
        <time>2024-05-08T07:05:29Z</time>
      </trkpt>
      <trkpt lat="47.20571" lon="2.81069">
        <ele>164.2</ele>
        <time>2024-05-08T07:05:31Z</time>
      </trkpt>
      <trkpt lat="47.2059" lon="2.81059">
        <ele>164</ele>
        <time>2024-05-08T07:05:34Z</time>
      </trkpt>
      <trkpt lat="47.20645" lon="2.81034">
        <ele>164</ele>
        <time>2024-05-08T07:05:43Z</time>
      </trkpt>
      <trkpt lat="47.20697" lon="2.81009">
        <ele>164.2</ele>
        <time>2024-05-08T07:05:52Z</time>
      </trkpt>
      <trkpt lat="47.20703" lon="2.81006">
        <ele>164.2</ele>
        <time>2024-05-08T07:05:53Z</time>
      </trkpt>
      <trkpt lat="47.20748" lon="2.80985">
        <ele>164.2</ele>
        <time>2024-05-08T07:06:01Z</time>
      </trkpt>
      <trkpt lat="47.20755" lon="2.80982">
        <ele>164.2</ele>
        <time>2024-05-08T07:06:02Z</time>
      </trkpt>
      <trkpt lat="47.20779" lon="2.80977">
        <ele>164.4</ele>
        <time>2024-05-08T07:06:06Z</time>
      </trkpt>
      <trkpt lat="47.20816" lon="2.80984">
        <ele>164.6</ele>
        <time>2024-05-08T07:06:12Z</time>
      </trkpt>
      <trkpt lat="47.20869" lon="2.81003">
        <ele>164.8</ele>
        <time>2024-05-08T07:06:22Z</time>
      </trkpt>
      <trkpt lat="47.20878" lon="2.81006">
        <ele>165.2</ele>
        <time>2024-05-08T07:06:24Z</time>
      </trkpt>
      <trkpt lat="47.20891" lon="2.8101">
        <ele>166.2</ele>
        <time>2024-05-08T07:06:27Z</time>
      </trkpt>
      <trkpt lat="47.209" lon="2.81013">
        <ele>166.6</ele>
        <time>2024-05-08T07:06:29Z</time>
      </trkpt>
      <trkpt lat="47.20914" lon="2.81014">
        <ele>167.2</ele>
        <time>2024-05-08T07:06:32Z</time>
      </trkpt>
      <trkpt lat="47.20922" lon="2.81008">
        <ele>167.6</ele>
        <time>2024-05-08T07:06:34Z</time>
      </trkpt>
      <trkpt lat="47.20927" lon="2.80999">
        <ele>168.6</ele>
        <time>2024-05-08T07:06:36Z</time>
      </trkpt>
      <trkpt lat="47.20931" lon="2.80986">
        <ele>169.2</ele>
        <time>2024-05-08T07:06:38Z</time>
      </trkpt>
      <trkpt lat="47.20933" lon="2.8098">
        <ele>169.6</ele>
        <time>2024-05-08T07:06:39Z</time>
      </trkpt>
      <trkpt lat="47.20943" lon="2.80956">
        <ele>170.6</ele>
        <time>2024-05-08T07:06:43Z</time>
      </trkpt>
      <trkpt lat="47.20951" lon="2.80938">
        <ele>171.2</ele>
        <time>2024-05-08T07:06:46Z</time>
      </trkpt>
      <trkpt lat="47.20953" lon="2.80932">
        <ele>171.4</ele>
        <time>2024-05-08T07:06:47Z</time>
      </trkpt>
      <trkpt lat="47.20955" lon="2.80927">
        <ele>171.8</ele>
        <time>2024-05-08T07:06:48Z</time>
      </trkpt>
      <trkpt lat="47.20967" lon="2.80903">
        <ele>172.2</ele>
        <time>2024-05-08T07:06:52Z</time>
      </trkpt>
      <trkpt lat="47.2097" lon="2.80895">
        <ele>172.6</ele>
        <time>2024-05-08T07:06:53Z</time>
      </trkpt>
      <trkpt lat="47.20972" lon="2.80889">
        <ele>173</ele>
        <time>2024-05-08T07:06:54Z</time>
      </trkpt>
      <trkpt lat="47.20974" lon="2.80882">
        <ele>173.2</ele>
        <time>2024-05-08T07:06:55Z</time>
      </trkpt>
      <trkpt lat="47.20975" lon="2.80874">
        <ele>173.4</ele>
        <time>2024-05-08T07:06:56Z</time>
      </trkpt>
      <trkpt lat="47.20978" lon="2.80813">
        <ele>173.8</ele>
        <time>2024-05-08T07:07:04Z</time>
      </trkpt>
      <trkpt lat="47.20979" lon="2.80783">
        <ele>174</ele>
        <time>2024-05-08T07:07:08Z</time>
      </trkpt>
      <trkpt lat="47.20979" lon="2.80775">
        <ele>174.2</ele>
        <time>2024-05-08T07:07:09Z</time>
      </trkpt>
      <trkpt lat="47.20981" lon="2.8075">
        <ele>174.4</ele>
        <time>2024-05-08T07:07:12Z</time>
      </trkpt>
      <trkpt lat="47.20989" lon="2.80697">
        <ele>174.4</ele>
        <time>2024-05-08T07:07:18Z</time>
      </trkpt>
      <trkpt lat="47.20993" lon="2.8068">
        <ele>174.4</ele>
        <time>2024-05-08T07:07:20Z</time>
      </trkpt>
      <trkpt lat="47.21002" lon="2.80649">
        <ele>174.2</ele>
        <time>2024-05-08T07:07:23Z</time>
      </trkpt>
      <trkpt lat="47.21018" lon="2.8059">
        <ele>173.8</ele>
        <time>2024-05-08T07:07:29Z</time>
      </trkpt>
      <trkpt lat="47.21035" lon="2.80524">
        <ele>173.2</ele>
        <time>2024-05-08T07:07:36Z</time>
      </trkpt>
      <trkpt lat="47.21047" lon="2.80476">
        <ele>173.4</ele>
        <time>2024-05-08T07:07:42Z</time>
      </trkpt>
      <trkpt lat="47.21064" lon="2.80417">
        <ele>174.2</ele>
        <time>2024-05-08T07:07:50Z</time>
      </trkpt>
      <trkpt lat="47.21076" lon="2.80384">
        <ele>175</ele>
        <time>2024-05-08T07:07:55Z</time>
      </trkpt>
      <trkpt lat="47.21082" lon="2.80371">
        <ele>175.4</ele>
        <time>2024-05-08T07:07:57Z</time>
      </trkpt>
      <trkpt lat="47.21093" lon="2.80346">
        <ele>176.6</ele>
        <time>2024-05-08T07:08:01Z</time>
      </trkpt>
      <trkpt lat="47.21103" lon="2.80329">
        <ele>177.2</ele>
        <time>2024-05-08T07:08:04Z</time>
      </trkpt>
      <trkpt lat="47.21113" lon="2.80312">
        <ele>177.6</ele>
        <time>2024-05-08T07:08:07Z</time>
      </trkpt>
      <trkpt lat="47.21141" lon="2.80264">
        <ele>178.6</ele>
        <time>2024-05-08T07:08:15Z</time>
      </trkpt>
      <trkpt lat="47.21173" lon="2.80219">
        <ele>178.4</ele>
        <time>2024-05-08T07:08:22Z</time>
      </trkpt>
      <trkpt lat="47.21205" lon="2.80179">
        <ele>177.8</ele>
        <time>2024-05-08T07:08:29Z</time>
      </trkpt>
      <trkpt lat="47.21219" lon="2.80165">
        <ele>177.6</ele>
        <time>2024-05-08T07:08:32Z</time>
      </trkpt>
      <trkpt lat="47.21224" lon="2.80158">
        <ele>177.4</ele>
        <time>2024-05-08T07:08:34Z</time>
      </trkpt>
      <trkpt lat="47.21239" lon="2.80146">
        <ele>177.2</ele>
        <time>2024-05-08T07:08:38Z</time>
      </trkpt>
      <trkpt lat="47.21243" lon="2.80142">
        <ele>177.2</ele>
        <time>2024-05-08T07:08:39Z</time>
      </trkpt>
      <trkpt lat="47.21273" lon="2.8012">
        <ele>177</ele>
        <time>2024-05-08T07:08:45Z</time>
      </trkpt>
      <trkpt lat="47.21311" lon="2.80093">
        <ele>176.8</ele>
        <time>2024-05-08T07:08:52Z</time>
      </trkpt>
      <trkpt lat="47.2133" lon="2.80081">
        <ele>176.6</ele>
        <time>2024-05-08T07:08:55Z</time>
      </trkpt>
      <trkpt lat="47.21361" lon="2.80062">
        <ele>175.8</ele>
        <time>2024-05-08T07:09:00Z</time>
      </trkpt>
      <trkpt lat="47.21375" lon="2.80052">
        <ele>175.4</ele>
        <time>2024-05-08T07:09:02Z</time>
      </trkpt>
      <trkpt lat="47.21402" lon="2.80035">
        <ele>174.4</ele>
        <time>2024-05-08T07:09:06Z</time>
      </trkpt>
      <trkpt lat="47.21434" lon="2.80015">
        <ele>173.6</ele>
        <time>2024-05-08T07:09:11Z</time>
      </trkpt>
      <trkpt lat="47.21446" lon="2.80007">
        <ele>173.2</ele>
        <time>2024-05-08T07:09:13Z</time>
      </trkpt>
      <trkpt lat="47.21489" lon="2.7998">
        <ele>172.8</ele>
        <time>2024-05-08T07:09:20Z</time>
      </trkpt>
      <trkpt lat="47.21527" lon="2.79956">
        <ele>172.2</ele>
        <time>2024-05-08T07:09:26Z</time>
      </trkpt>
      <trkpt lat="47.2155" lon="2.79941">
        <ele>171.8</ele>
        <time>2024-05-08T07:09:30Z</time>
      </trkpt>
      <trkpt lat="47.21594" lon="2.79912">
        <ele>171.8</ele>
        <time>2024-05-08T07:09:38Z</time>
      </trkpt>
      <trkpt lat="47.21645" lon="2.7988">
        <ele>171.8</ele>
        <time>2024-05-08T07:09:47Z</time>
      </trkpt>
      <trkpt lat="47.2165" lon="2.79876">
        <ele>172</ele>
        <time>2024-05-08T07:09:48Z</time>
      </trkpt>
      <trkpt lat="47.21674" lon="2.79859">
        <ele>172.6</ele>
        <time>2024-05-08T07:09:53Z</time>
      </trkpt>
      <trkpt lat="47.21679" lon="2.79857">
        <ele>172.6</ele>
        <time>2024-05-08T07:09:54Z</time>
      </trkpt>
      <trkpt lat="47.21699" lon="2.79845">
        <ele>173.4</ele>
        <time>2024-05-08T07:09:58Z</time>
      </trkpt>
      <trkpt lat="47.21711" lon="2.79837">
        <ele>173.8</ele>
        <time>2024-05-08T07:10:01Z</time>
      </trkpt>
      <trkpt lat="47.21721" lon="2.7983">
        <ele>174.4</ele>
        <time>2024-05-08T07:10:03Z</time>
      </trkpt>
      <trkpt lat="47.2174" lon="2.79821">
        <ele>175.4</ele>
        <time>2024-05-08T07:10:07Z</time>
      </trkpt>
      <trkpt lat="47.21754" lon="2.79812">
        <ele>176.6</ele>
        <time>2024-05-08T07:10:10Z</time>
      </trkpt>
      <trkpt lat="47.21765" lon="2.79802">
        <ele>177.6</ele>
        <time>2024-05-08T07:10:13Z</time>
      </trkpt>
      <trkpt lat="47.2177" lon="2.79799">
        <ele>177.8</ele>
        <time>2024-05-08T07:10:14Z</time>
      </trkpt>
      <trkpt lat="47.21783" lon="2.79792">
        <ele>178.8</ele>
        <time>2024-05-08T07:10:17Z</time>
      </trkpt>
      <trkpt lat="47.21795" lon="2.79784">
        <ele>180</ele>
        <time>2024-05-08T07:10:20Z</time>
      </trkpt>
      <trkpt lat="47.21813" lon="2.79771">
        <ele>181</ele>
        <time>2024-05-08T07:10:24Z</time>
      </trkpt>
      <trkpt lat="47.21829" lon="2.7976">
        <ele>181.4</ele>
        <time>2024-05-08T07:10:28Z</time>
      </trkpt>
      <trkpt lat="47.21867" lon="2.79732">
        <ele>182</ele>
        <time>2024-05-08T07:10:35Z</time>
      </trkpt>
      <trkpt lat="47.21913" lon="2.79697">
        <ele>181.4</ele>
        <time>2024-05-08T07:10:43Z</time>
      </trkpt>
      <trkpt lat="47.21957" lon="2.79662">
        <ele>180.6</ele>
        <time>2024-05-08T07:10:50Z</time>
      </trkpt>
      <trkpt lat="47.21976" lon="2.79647">
        <ele>179.6</ele>
        <time>2024-05-08T07:10:53Z</time>
      </trkpt>
      <trkpt lat="47.22008" lon="2.79623">
        <ele>178.4</ele>
        <time>2024-05-08T07:10:58Z</time>
      </trkpt>
      <trkpt lat="47.22034" lon="2.79603">
        <ele>178</ele>
        <time>2024-05-08T07:11:02Z</time>
      </trkpt>
      <trkpt lat="47.22054" lon="2.79587">
        <ele>177.4</ele>
        <time>2024-05-08T07:11:05Z</time>
      </trkpt>
      <trkpt lat="47.22086" lon="2.79561">
        <ele>176.2</ele>
        <time>2024-05-08T07:11:10Z</time>
      </trkpt>
      <trkpt lat="47.22092" lon="2.79557">
        <ele>176</ele>
        <time>2024-05-08T07:11:11Z</time>
      </trkpt>
      <trkpt lat="47.2214" lon="2.7952">
        <ele>175.4</ele>
        <time>2024-05-08T07:11:19Z</time>
      </trkpt>
      <trkpt lat="47.22179" lon="2.7949">
        <ele>175.8</ele>
        <time>2024-05-08T07:11:27Z</time>
      </trkpt>
      <trkpt lat="47.22204" lon="2.7947">
        <ele>176.6</ele>
        <time>2024-05-08T07:11:33Z</time>
      </trkpt>
      <trkpt lat="47.22212" lon="2.79464">
        <ele>177.2</ele>
        <time>2024-05-08T07:11:35Z</time>
      </trkpt>
      <trkpt lat="47.2223" lon="2.79451">
        <ele>178.2</ele>
        <time>2024-05-08T07:11:40Z</time>
      </trkpt>
      <trkpt lat="47.22233" lon="2.79449">
        <ele>178.4</ele>
        <time>2024-05-08T07:11:41Z</time>
      </trkpt>
      <trkpt lat="47.22248" lon="2.79434">
        <ele>179.4</ele>
        <time>2024-05-08T07:11:46Z</time>
      </trkpt>
      <trkpt lat="47.2226" lon="2.79422">
        <ele>180.4</ele>
        <time>2024-05-08T07:11:50Z</time>
      </trkpt>
      <trkpt lat="47.22273" lon="2.79406">
        <ele>181.4</ele>
        <time>2024-05-08T07:11:55Z</time>
      </trkpt>
      <trkpt lat="47.22275" lon="2.79403">
        <ele>181.6</ele>
        <time>2024-05-08T07:11:56Z</time>
      </trkpt>
      <trkpt lat="47.22281" lon="2.79394">
        <ele>183</ele>
        <time>2024-05-08T07:11:59Z</time>
      </trkpt>
      <trkpt lat="47.2229" lon="2.79385">
        <ele>184</ele>
        <time>2024-05-08T07:12:02Z</time>
      </trkpt>
      <trkpt lat="47.22293" lon="2.79383">
        <ele>184.2</ele>
        <time>2024-05-08T07:12:03Z</time>
      </trkpt>
      <trkpt lat="47.22305" lon="2.79373">
        <ele>185.2</ele>
        <time>2024-05-08T07:12:07Z</time>
      </trkpt>
      <trkpt lat="47.22316" lon="2.79363">
        <ele>186.4</ele>
        <time>2024-05-08T07:12:11Z</time>
      </trkpt>
      <trkpt lat="47.22322" lon="2.79358">
        <ele>187</ele>
        <time>2024-05-08T07:12:13Z</time>
      </trkpt>
      <trkpt lat="47.22329" lon="2.79355">
        <ele>187.6</ele>
        <time>2024-05-08T07:12:15Z</time>
      </trkpt>
      <trkpt lat="47.22345" lon="2.79351">
        <ele>188.6</ele>
        <time>2024-05-08T07:12:19Z</time>
      </trkpt>
      <trkpt lat="47.22349" lon="2.79351">
        <ele>188.8</ele>
        <time>2024-05-08T07:12:20Z</time>
      </trkpt>
      <trkpt lat="47.22372" lon="2.79343">
        <ele>189.8</ele>
        <time>2024-05-08T07:12:26Z</time>
      </trkpt>
      <trkpt lat="47.22396" lon="2.7933">
        <ele>190.4</ele>
        <time>2024-05-08T07:12:32Z</time>
      </trkpt>
      <trkpt lat="47.224" lon="2.79328">
        <ele>190.6</ele>
        <time>2024-05-08T07:12:33Z</time>
      </trkpt>
      <trkpt lat="47.22412" lon="2.79317">
        <ele>191</ele>
        <time>2024-05-08T07:12:36Z</time>
      </trkpt>
      <trkpt lat="47.22434" lon="2.79297">
        <ele>191.6</ele>
        <time>2024-05-08T07:12:41Z</time>
      </trkpt>
      <trkpt lat="47.22451" lon="2.79279">
        <ele>191.6</ele>
        <time>2024-05-08T07:12:45Z</time>
      </trkpt>
      <trkpt lat="47.22459" lon="2.7927">
        <ele>191.6</ele>
        <time>2024-05-08T07:12:47Z</time>
      </trkpt>
      <trkpt lat="47.22488" lon="2.79242">
        <ele>191.8</ele>
        <time>2024-05-08T07:12:53Z</time>
      </trkpt>
      <trkpt lat="47.22492" lon="2.79237">
        <ele>191.8</ele>
        <time>2024-05-08T07:12:54Z</time>
      </trkpt>
      <trkpt lat="47.22512" lon="2.79215">
        <ele>191.6</ele>
        <time>2024-05-08T07:12:58Z</time>
      </trkpt>
      <trkpt lat="47.22522" lon="2.79203">
        <ele>191.4</ele>
        <time>2024-05-08T07:13:00Z</time>
      </trkpt>
      <trkpt lat="47.22563" lon="2.79149">
        <ele>190</ele>
        <time>2024-05-08T07:13:08Z</time>
      </trkpt>
      <trkpt lat="47.22568" lon="2.79142">
        <ele>189.8</ele>
        <time>2024-05-08T07:13:09Z</time>
      </trkpt>
      <trkpt lat="47.22609" lon="2.79079">
        <ele>188.8</ele>
        <time>2024-05-08T07:13:18Z</time>
      </trkpt>
      <trkpt lat="47.22613" lon="2.79072">
        <ele>188.8</ele>
        <time>2024-05-08T07:13:19Z</time>
      </trkpt>
      <trkpt lat="47.22651" lon="2.79012">
        <ele>188.8</ele>
        <time>2024-05-08T07:13:28Z</time>
      </trkpt>
      <trkpt lat="47.22655" lon="2.79005">
        <ele>188.8</ele>
        <time>2024-05-08T07:13:29Z</time>
      </trkpt>
      <trkpt lat="47.22662" lon="2.78995">
        <ele>189</ele>
        <time>2024-05-08T07:13:31Z</time>
      </trkpt>
      <trkpt lat="47.22669" lon="2.78984">
        <ele>189.4</ele>
        <time>2024-05-08T07:13:33Z</time>
      </trkpt>
      <trkpt lat="47.22687" lon="2.78958">
        <ele>190.2</ele>
        <time>2024-05-08T07:13:38Z</time>
      </trkpt>
      <trkpt lat="47.22697" lon="2.78941">
        <ele>191</ele>
        <time>2024-05-08T07:13:41Z</time>
      </trkpt>
      <trkpt lat="47.22706" lon="2.78925">
        <ele>191.4</ele>
        <time>2024-05-08T07:13:44Z</time>
      </trkpt>
      <trkpt lat="47.22714" lon="2.78914">
        <ele>192</ele>
        <time>2024-05-08T07:13:46Z</time>
      </trkpt>
      <trkpt lat="47.22718" lon="2.7891">
        <ele>192.4</ele>
        <time>2024-05-08T07:13:47Z</time>
      </trkpt>
      <trkpt lat="47.22722" lon="2.78906">
        <ele>192.8</ele>
        <time>2024-05-08T07:13:48Z</time>
      </trkpt>
      <trkpt lat="47.22734" lon="2.78893">
        <ele>193.6</ele>
        <time>2024-05-08T07:13:51Z</time>
      </trkpt>
      <trkpt lat="47.22738" lon="2.78889">
        <ele>193.6</ele>
        <time>2024-05-08T07:13:52Z</time>
      </trkpt>
      <trkpt lat="47.22755" lon="2.78876">
        <ele>194.4</ele>
        <time>2024-05-08T07:13:56Z</time>
      </trkpt>
      <trkpt lat="47.22782" lon="2.7886">
        <ele>195.4</ele>
        <time>2024-05-08T07:14:02Z</time>
      </trkpt>
      <trkpt lat="47.22796" lon="2.78853">
        <ele>196</ele>
        <time>2024-05-08T07:14:05Z</time>
      </trkpt>
      <trkpt lat="47.22835" lon="2.78841">
        <ele>196.4</ele>
        <time>2024-05-08T07:14:12Z</time>
      </trkpt>
      <trkpt lat="47.22881" lon="2.7883">
        <ele>196.2</ele>
        <time>2024-05-08T07:14:19Z</time>
      </trkpt>
      <trkpt lat="47.22923" lon="2.78817">
        <ele>195.2</ele>
        <time>2024-05-08T07:14:25Z</time>
      </trkpt>
      <trkpt lat="47.22956" lon="2.78805">
        <ele>194</ele>
        <time>2024-05-08T07:14:29Z</time>
      </trkpt>
      <trkpt lat="47.22982" lon="2.78797">
        <ele>193.2</ele>
        <time>2024-05-08T07:14:32Z</time>
      </trkpt>
      <trkpt lat="47.22991" lon="2.78794">
        <ele>193</ele>
        <time>2024-05-08T07:14:33Z</time>
      </trkpt>
      <trkpt lat="47.23018" lon="2.78785">
        <ele>191.8</ele>
        <time>2024-05-08T07:14:36Z</time>
      </trkpt>
      <trkpt lat="47.23046" lon="2.78775">
        <ele>190.4</ele>
        <time>2024-05-08T07:14:39Z</time>
      </trkpt>
      <trkpt lat="47.23056" lon="2.78771">
        <ele>189.8</ele>
        <time>2024-05-08T07:14:40Z</time>
      </trkpt>
      <trkpt lat="47.23075" lon="2.78765">
        <ele>188.8</ele>
        <time>2024-05-08T07:14:42Z</time>
      </trkpt>
      <trkpt lat="47.23095" lon="2.78758">
        <ele>187.8</ele>
        <time>2024-05-08T07:14:44Z</time>
      </trkpt>
      <trkpt lat="47.23115" lon="2.78751">
        <ele>186.6</ele>
        <time>2024-05-08T07:14:46Z</time>
      </trkpt>
      <trkpt lat="47.23135" lon="2.78744">
        <ele>185.6</ele>
        <time>2024-05-08T07:14:48Z</time>
      </trkpt>
      <trkpt lat="47.23145" lon="2.78741">
        <ele>185</ele>
        <time>2024-05-08T07:14:49Z</time>
      </trkpt>
      <trkpt lat="47.23165" lon="2.78734">
        <ele>183.8</ele>
        <time>2024-05-08T07:14:51Z</time>
      </trkpt>
      <trkpt lat="47.23193" lon="2.78725">
        <ele>182.4</ele>
        <time>2024-05-08T07:14:54Z</time>
      </trkpt>
      <trkpt lat="47.23202" lon="2.78722">
        <ele>182.2</ele>
        <time>2024-05-08T07:14:55Z</time>
      </trkpt>
      <trkpt lat="47.23248" lon="2.78707">
        <ele>181.4</ele>
        <time>2024-05-08T07:15:01Z</time>
      </trkpt>
      <trkpt lat="47.23262" lon="2.78702">
        <ele>181.4</ele>
        <time>2024-05-08T07:15:03Z</time>
      </trkpt>
      <trkpt lat="47.23302" lon="2.78688">
        <ele>181.4</ele>
        <time>2024-05-08T07:15:09Z</time>
      </trkpt>
      <trkpt lat="47.23357" lon="2.78667">
        <ele>181.2</ele>
        <time>2024-05-08T07:15:17Z</time>
      </trkpt>
      <trkpt lat="47.23402" lon="2.78646">
        <ele>180.2</ele>
        <time>2024-05-08T07:15:23Z</time>
      </trkpt>
      <trkpt lat="47.2341" lon="2.78642">
        <ele>180</ele>
        <time>2024-05-08T07:15:24Z</time>
      </trkpt>
      <trkpt lat="47.23436" lon="2.7863">
        <ele>179</ele>
        <time>2024-05-08T07:15:27Z</time>
      </trkpt>
      <trkpt lat="47.23453" lon="2.78622">
        <ele>178.6</ele>
        <time>2024-05-08T07:15:29Z</time>
      </trkpt>
      <trkpt lat="47.23463" lon="2.78617">
        <ele>178</ele>
        <time>2024-05-08T07:15:30Z</time>
      </trkpt>
      <trkpt lat="47.23491" lon="2.78599">
        <ele>176.4</ele>
        <time>2024-05-08T07:15:33Z</time>
      </trkpt>
      <trkpt lat="47.23517" lon="2.78575">
        <ele>174.8</ele>
        <time>2024-05-08T07:15:36Z</time>
      </trkpt>
      <trkpt lat="47.23524" lon="2.78567">
        <ele>174</ele>
        <time>2024-05-08T07:15:37Z</time>
      </trkpt>
      <trkpt lat="47.23531" lon="2.78559">
        <ele>173.4</ele>
        <time>2024-05-08T07:15:38Z</time>
      </trkpt>
      <trkpt lat="47.23556" lon="2.78528">
        <ele>172.2</ele>
        <time>2024-05-08T07:15:42Z</time>
      </trkpt>
      <trkpt lat="47.23562" lon="2.78521">
        <ele>171.8</ele>
        <time>2024-05-08T07:15:43Z</time>
      </trkpt>
      <trkpt lat="47.23575" lon="2.78506">
        <ele>171.4</ele>
        <time>2024-05-08T07:15:46Z</time>
      </trkpt>
      <trkpt lat="47.23585" lon="2.78492">
        <ele>171</ele>
        <time>2024-05-08T07:15:49Z</time>
      </trkpt>
      <trkpt lat="47.23592" lon="2.78481">
        <ele>171.2</ele>
        <time>2024-05-08T07:15:51Z</time>
      </trkpt>
      <trkpt lat="47.23612" lon="2.78449">
        <ele>172.2</ele>
        <time>2024-05-08T07:15:57Z</time>
      </trkpt>
      <trkpt lat="47.23615" lon="2.78443">
        <ele>172.4</ele>
        <time>2024-05-08T07:15:58Z</time>
      </trkpt>
      <trkpt lat="47.23623" lon="2.78425">
        <ele>173</ele>
        <time>2024-05-08T07:16:01Z</time>
      </trkpt>
      <trkpt lat="47.23629" lon="2.78414">
        <ele>173.4</ele>
        <time>2024-05-08T07:16:03Z</time>
      </trkpt>
      <trkpt lat="47.23632" lon="2.7841">
        <ele>174.2</ele>
        <time>2024-05-08T07:16:04Z</time>
      </trkpt>
      <trkpt lat="47.23636" lon="2.78405">
        <ele>174.4</ele>
        <time>2024-05-08T07:16:05Z</time>
      </trkpt>
      <trkpt lat="47.23643" lon="2.78396">
        <ele>174.8</ele>
        <time>2024-05-08T07:16:07Z</time>
      </trkpt>
      <trkpt lat="47.23651" lon="2.78388">
        <ele>175.4</ele>
        <time>2024-05-08T07:16:09Z</time>
      </trkpt>
      <trkpt lat="47.23655" lon="2.78384">
        <ele>175.6</ele>
        <time>2024-05-08T07:16:10Z</time>
      </trkpt>
      <trkpt lat="47.23659" lon="2.7838">
        <ele>175.8</ele>
        <time>2024-05-08T07:16:11Z</time>
      </trkpt>
      <trkpt lat="47.23682" lon="2.78358">
        <ele>176.4</ele>
        <time>2024-05-08T07:16:16Z</time>
      </trkpt>
      <trkpt lat="47.23696" lon="2.78342">
        <ele>176.8</ele>
        <time>2024-05-08T07:16:19Z</time>
      </trkpt>
      <trkpt lat="47.23742" lon="2.7829">
        <ele>177.4</ele>
        <time>2024-05-08T07:16:29Z</time>
      </trkpt>
      <trkpt lat="47.23755" lon="2.78273">
        <ele>177.6</ele>
        <time>2024-05-08T07:16:32Z</time>
      </trkpt>
      <trkpt lat="47.23777" lon="2.78244">
        <ele>178.2</ele>
        <time>2024-05-08T07:16:37Z</time>
      </trkpt>
      <trkpt lat="47.2379" lon="2.78226">
        <ele>178.6</ele>
        <time>2024-05-08T07:16:40Z</time>
      </trkpt>
      <trkpt lat="47.23815" lon="2.78187">
        <ele>178.8</ele>
        <time>2024-05-08T07:16:46Z</time>
      </trkpt>
      <trkpt lat="47.23846" lon="2.78132">
        <ele>178.8</ele>
        <time>2024-05-08T07:16:54Z</time>
      </trkpt>
      <trkpt lat="47.2388" lon="2.78068">
        <ele>179</ele>
        <time>2024-05-08T07:17:03Z</time>
      </trkpt>
      <trkpt lat="47.23891" lon="2.78047">
        <ele>179.2</ele>
        <time>2024-05-08T07:17:06Z</time>
      </trkpt>
      <trkpt lat="47.23906" lon="2.78021">
        <ele>179.6</ele>
        <time>2024-05-08T07:17:10Z</time>
      </trkpt>
      <trkpt lat="47.23916" lon="2.78">
        <ele>180</ele>
        <time>2024-05-08T07:17:13Z</time>
      </trkpt>
      <trkpt lat="47.23934" lon="2.77965">
        <ele>180.6</ele>
        <time>2024-05-08T07:17:18Z</time>
      </trkpt>
      <trkpt lat="47.23938" lon="2.77958">
        <ele>180.6</ele>
        <time>2024-05-08T07:17:19Z</time>
      </trkpt>
      <trkpt lat="47.23964" lon="2.77916">
        <ele>181</ele>
        <time>2024-05-08T07:17:25Z</time>
      </trkpt>
      <trkpt lat="47.24005" lon="2.7786">
        <ele>181.4</ele>
        <time>2024-05-08T07:17:34Z</time>
      </trkpt>
      <trkpt lat="47.24009" lon="2.77854">
        <ele>181.4</ele>
        <time>2024-05-08T07:17:35Z</time>
      </trkpt>
      <trkpt lat="47.24023" lon="2.77836">
        <ele>181.6</ele>
        <time>2024-05-08T07:17:38Z</time>
      </trkpt>
      <trkpt lat="47.24047" lon="2.77798">
        <ele>182</ele>
        <time>2024-05-08T07:17:44Z</time>
      </trkpt>
      <trkpt lat="47.24084" lon="2.77735">
        <ele>182.4</ele>
        <time>2024-05-08T07:17:53Z</time>
      </trkpt>
      <trkpt lat="47.2412" lon="2.77668">
        <ele>181.8</ele>
        <time>2024-05-08T07:18:02Z</time>
      </trkpt>
      <trkpt lat="47.24127" lon="2.77652">
        <ele>181.8</ele>
        <time>2024-05-08T07:18:04Z</time>
      </trkpt>
      <trkpt lat="47.24147" lon="2.77596">
        <ele>182</ele>
        <time>2024-05-08T07:18:11Z</time>
      </trkpt>
      <trkpt lat="47.24166" lon="2.77532">
        <ele>182.6</ele>
        <time>2024-05-08T07:18:19Z</time>
      </trkpt>
      <trkpt lat="47.24172" lon="2.77517">
        <ele>183</ele>
        <time>2024-05-08T07:18:21Z</time>
      </trkpt>
      <trkpt lat="47.24183" lon="2.7749">
        <ele>183.8</ele>
        <time>2024-05-08T07:18:25Z</time>
      </trkpt>
      <trkpt lat="47.24191" lon="2.7747">
        <ele>184.6</ele>
        <time>2024-05-08T07:18:28Z</time>
      </trkpt>
      <trkpt lat="47.24197" lon="2.77456">
        <ele>185</ele>
        <time>2024-05-08T07:18:30Z</time>
      </trkpt>
      <trkpt lat="47.24212" lon="2.77415">
        <ele>186</ele>
        <time>2024-05-08T07:18:36Z</time>
      </trkpt>
      <trkpt lat="47.24217" lon="2.77402">
        <ele>186.4</ele>
        <time>2024-05-08T07:18:38Z</time>
      </trkpt>
      <trkpt lat="47.24239" lon="2.77352">
        <ele>187.2</ele>
        <time>2024-05-08T07:18:45Z</time>
      </trkpt>
      <trkpt lat="47.24246" lon="2.77337">
        <ele>187.4</ele>
        <time>2024-05-08T07:18:47Z</time>
      </trkpt>
      <trkpt lat="47.24272" lon="2.77286">
        <ele>188.4</ele>
        <time>2024-05-08T07:18:55Z</time>
      </trkpt>
      <trkpt lat="47.24308" lon="2.77223">
        <ele>189.4</ele>
        <time>2024-05-08T07:19:05Z</time>
      </trkpt>
      <trkpt lat="47.24315" lon="2.77211">
        <ele>189.6</ele>
        <time>2024-05-08T07:19:07Z</time>
      </trkpt>
      <trkpt lat="47.24349" lon="2.77155">
        <ele>190.4</ele>
        <time>2024-05-08T07:19:16Z</time>
      </trkpt>
      <trkpt lat="47.24353" lon="2.77149">
        <ele>190.4</ele>
        <time>2024-05-08T07:19:17Z</time>
      </trkpt>
      <trkpt lat="47.24389" lon="2.77089">
        <ele>190.8</ele>
        <time>2024-05-08T07:19:26Z</time>
      </trkpt>
      <trkpt lat="47.24393" lon="2.77082">
        <ele>190.8</ele>
        <time>2024-05-08T07:19:27Z</time>
      </trkpt>
      <trkpt lat="47.24414" lon="2.7705">
        <ele>191.4</ele>
        <time>2024-05-08T07:19:32Z</time>
      </trkpt>
      <trkpt lat="47.24429" lon="2.77025">
        <ele>192</ele>
        <time>2024-05-08T07:19:36Z</time>
      </trkpt>
      <trkpt lat="47.24437" lon="2.77013">
        <ele>192.4</ele>
        <time>2024-05-08T07:19:38Z</time>
      </trkpt>
      <trkpt lat="47.24448" lon="2.76995">
        <ele>193</ele>
        <time>2024-05-08T07:19:41Z</time>
      </trkpt>
      <trkpt lat="47.24452" lon="2.76989">
        <ele>193</ele>
        <time>2024-05-08T07:19:42Z</time>
      </trkpt>
      <trkpt lat="47.2447" lon="2.76959">
        <ele>193.6</ele>
        <time>2024-05-08T07:19:47Z</time>
      </trkpt>
      <trkpt lat="47.24475" lon="2.76952">
        <ele>194</ele>
        <time>2024-05-08T07:19:48Z</time>
      </trkpt>
      <trkpt lat="47.24486" lon="2.76936">
        <ele>194.6</ele>
        <time>2024-05-08T07:19:51Z</time>
      </trkpt>
      <trkpt lat="47.24504" lon="2.76907">
        <ele>195.2</ele>
        <time>2024-05-08T07:19:56Z</time>
      </trkpt>
      <trkpt lat="47.24515" lon="2.76889">
        <ele>195.4</ele>
        <time>2024-05-08T07:19:59Z</time>
      </trkpt>
      <trkpt lat="47.24524" lon="2.76874">
        <ele>196.2</ele>
        <time>2024-05-08T07:20:02Z</time>
      </trkpt>
      <trkpt lat="47.24532" lon="2.76862">
        <ele>196.6</ele>
        <time>2024-05-08T07:20:04Z</time>
      </trkpt>
      <trkpt lat="47.24543" lon="2.76847">
        <ele>197.2</ele>
        <time>2024-05-08T07:20:07Z</time>
      </trkpt>
      <trkpt lat="47.24553" lon="2.76831">
        <ele>197.6</ele>
        <time>2024-05-08T07:20:10Z</time>
      </trkpt>
      <trkpt lat="47.24566" lon="2.76809">
        <ele>198.4</ele>
        <time>2024-05-08T07:20:14Z</time>
      </trkpt>
      <trkpt lat="47.24575" lon="2.76792">
        <ele>198.8</ele>
        <time>2024-05-08T07:20:17Z</time>
      </trkpt>
      <trkpt lat="47.24596" lon="2.76755">
        <ele>199.6</ele>
        <time>2024-05-08T07:20:23Z</time>
      </trkpt>
      <trkpt lat="47.24606" lon="2.76737">
        <ele>200</ele>
        <time>2024-05-08T07:20:26Z</time>
      </trkpt>
      <trkpt lat="47.24625" lon="2.76703">
        <ele>201</ele>
        <time>2024-05-08T07:20:32Z</time>
      </trkpt>
      <trkpt lat="47.24628" lon="2.76698">
        <ele>201</ele>
        <time>2024-05-08T07:20:33Z</time>
      </trkpt>
      <trkpt lat="47.24648" lon="2.76665">
        <ele>201.8</ele>
        <time>2024-05-08T07:20:39Z</time>
      </trkpt>
      <trkpt lat="47.24652" lon="2.76658">
        <ele>202</ele>
        <time>2024-05-08T07:20:40Z</time>
      </trkpt>
      <trkpt lat="47.2467" lon="2.7663">
        <ele>203</ele>
        <time>2024-05-08T07:20:45Z</time>
      </trkpt>
      <trkpt lat="47.24689" lon="2.76601">
        <ele>203.2</ele>
        <time>2024-05-08T07:20:49Z</time>
      </trkpt>
      <trkpt lat="47.2472" lon="2.76555">
        <ele>202.6</ele>
        <time>2024-05-08T07:20:55Z</time>
      </trkpt>
      <trkpt lat="47.2475" lon="2.76513">
        <ele>202</ele>
        <time>2024-05-08T07:21:01Z</time>
      </trkpt>
      <trkpt lat="47.24759" lon="2.765">
        <ele>202</ele>
        <time>2024-05-08T07:21:03Z</time>
      </trkpt>
      <trkpt lat="47.24794" lon="2.76464">
        <ele>202.6</ele>
        <time>2024-05-08T07:21:10Z</time>
      </trkpt>
      <trkpt lat="47.24809" lon="2.7645">
        <ele>203</ele>
        <time>2024-05-08T07:21:13Z</time>
      </trkpt>
      <trkpt lat="47.24841" lon="2.7642">
        <ele>203.2</ele>
        <time>2024-05-08T07:21:19Z</time>
      </trkpt>
      <trkpt lat="47.24887" lon="2.76376">
        <ele>203.6</ele>
        <time>2024-05-08T07:21:28Z</time>
      </trkpt>
      <trkpt lat="47.24911" lon="2.76353">
        <ele>204</ele>
        <time>2024-05-08T07:21:33Z</time>
      </trkpt>
      <trkpt lat="47.24931" lon="2.76336">
        <ele>204.4</ele>
        <time>2024-05-08T07:21:37Z</time>
      </trkpt>
      <trkpt lat="47.24946" lon="2.76323">
        <ele>205.2</ele>
        <time>2024-05-08T07:21:40Z</time>
      </trkpt>
      <trkpt lat="47.24952" lon="2.76317">
        <ele>205.2</ele>
        <time>2024-05-08T07:21:41Z</time>
      </trkpt>
      <trkpt lat="47.24964" lon="2.76304">
        <ele>205.6</ele>
        <time>2024-05-08T07:21:44Z</time>
      </trkpt>
      <trkpt lat="47.24979" lon="2.7629">
        <ele>206.4</ele>
        <time>2024-05-08T07:21:47Z</time>
      </trkpt>
      <trkpt lat="47.24995" lon="2.76273">
        <ele>207</ele>
        <time>2024-05-08T07:21:51Z</time>
      </trkpt>
      <trkpt lat="47.25003" lon="2.76263">
        <ele>207.4</ele>
        <time>2024-05-08T07:21:53Z</time>
      </trkpt>
      <trkpt lat="47.25006" lon="2.76257">
        <ele>207.4</ele>
        <time>2024-05-08T07:21:54Z</time>
      </trkpt>
      <trkpt lat="47.2502" lon="2.76236">
        <ele>208</ele>
        <time>2024-05-08T07:21:58Z</time>
      </trkpt>
      <trkpt lat="47.25032" lon="2.76214">
        <ele>208.6</ele>
        <time>2024-05-08T07:22:02Z</time>
      </trkpt>
      <trkpt lat="47.25046" lon="2.76195">
        <ele>209</ele>
        <time>2024-05-08T07:22:05Z</time>
      </trkpt>
      <trkpt lat="47.2508" lon="2.76161">
        <ele>208.6</ele>
        <time>2024-05-08T07:22:11Z</time>
      </trkpt>
      <trkpt lat="47.25114" lon="2.76135">
        <ele>207.2</ele>
        <time>2024-05-08T07:22:16Z</time>
      </trkpt>
      <trkpt lat="47.25122" lon="2.7613">
        <ele>206.4</ele>
        <time>2024-05-08T07:22:17Z</time>
      </trkpt>
      <trkpt lat="47.25132" lon="2.76125">
        <ele>206</ele>
        <time>2024-05-08T07:22:18Z</time>
      </trkpt>
      <trkpt lat="47.25155" lon="2.7611">
        <ele>204.8</ele>
        <time>2024-05-08T07:22:21Z</time>
      </trkpt>
      <trkpt lat="47.25181" lon="2.76095">
        <ele>203.8</ele>
        <time>2024-05-08T07:22:24Z</time>
      </trkpt>
      <trkpt lat="47.25196" lon="2.76084">
        <ele>203</ele>
        <time>2024-05-08T07:22:26Z</time>
      </trkpt>
      <trkpt lat="47.25203" lon="2.76077">
        <ele>202.6</ele>
        <time>2024-05-08T07:22:27Z</time>
      </trkpt>
      <trkpt lat="47.25211" lon="2.76067">
        <ele>202.2</ele>
        <time>2024-05-08T07:22:28Z</time>
      </trkpt>
      <trkpt lat="47.25223" lon="2.76052">
        <ele>201.4</ele>
        <time>2024-05-08T07:22:30Z</time>
      </trkpt>
      <trkpt lat="47.2524" lon="2.76042">
        <ele>200.2</ele>
        <time>2024-05-08T07:22:32Z</time>
      </trkpt>
      <trkpt lat="47.2527" lon="2.76036">
        <ele>199.2</ele>
        <time>2024-05-08T07:22:36Z</time>
      </trkpt>
      <trkpt lat="47.25279" lon="2.76033">
        <ele>199</ele>
        <time>2024-05-08T07:22:37Z</time>
      </trkpt>
      <trkpt lat="47.25286" lon="2.76029">
        <ele>198.8</ele>
        <time>2024-05-08T07:22:38Z</time>
      </trkpt>
      <trkpt lat="47.25331" lon="2.75999">
        <ele>198.4</ele>
        <time>2024-05-08T07:22:45Z</time>
      </trkpt>
      <trkpt lat="47.25363" lon="2.75983">
        <ele>198.2</ele>
        <time>2024-05-08T07:22:50Z</time>
      </trkpt>
      <trkpt lat="47.25375" lon="2.75978">
        <ele>198.2</ele>
        <time>2024-05-08T07:22:52Z</time>
      </trkpt>
      <trkpt lat="47.25392" lon="2.75966">
        <ele>198.2</ele>
        <time>2024-05-08T07:22:55Z</time>
      </trkpt>
      <trkpt lat="47.25439" lon="2.75935">
        <ele>198.6</ele>
        <time>2024-05-08T07:23:03Z</time>
      </trkpt>
      <trkpt lat="47.2548" lon="2.7591">
        <ele>199</ele>
        <time>2024-05-08T07:23:10Z</time>
      </trkpt>
      <trkpt lat="47.25514" lon="2.75885">
        <ele>199.2</ele>
        <time>2024-05-08T07:23:17Z</time>
      </trkpt>
      <trkpt lat="47.2552" lon="2.75882">
        <ele>199.4</ele>
        <time>2024-05-08T07:23:18Z</time>
      </trkpt>
      <trkpt lat="47.25545" lon="2.75868">
        <ele>200</ele>
        <time>2024-05-08T07:23:23Z</time>
      </trkpt>
      <trkpt lat="47.25553" lon="2.75863">
        <ele>200.4</ele>
        <time>2024-05-08T07:23:25Z</time>
      </trkpt>
      <trkpt lat="47.25564" lon="2.75857">
        <ele>200.8</ele>
        <time>2024-05-08T07:23:27Z</time>
      </trkpt>
      <trkpt lat="47.25572" lon="2.75853">
        <ele>201.4</ele>
        <time>2024-05-08T07:23:29Z</time>
      </trkpt>
      <trkpt lat="47.25576" lon="2.7585">
        <ele>201.6</ele>
        <time>2024-05-08T07:23:30Z</time>
      </trkpt>
      <trkpt lat="47.25592" lon="2.75838">
        <ele>202.2</ele>
        <time>2024-05-08T07:23:34Z</time>
      </trkpt>
      <trkpt lat="47.25596" lon="2.75835">
        <ele>202.4</ele>
        <time>2024-05-08T07:23:35Z</time>
      </trkpt>
      <trkpt lat="47.25605" lon="2.75832">
        <ele>202.8</ele>
        <time>2024-05-08T07:23:37Z</time>
      </trkpt>
      <trkpt lat="47.25609" lon="2.75832">
        <ele>202.8</ele>
        <time>2024-05-08T07:23:38Z</time>
      </trkpt>
      <trkpt lat="47.25627" lon="2.75827">
        <ele>203.6</ele>
        <time>2024-05-08T07:23:42Z</time>
      </trkpt>
      <trkpt lat="47.25636" lon="2.75824">
        <ele>203.8</ele>
        <time>2024-05-08T07:23:44Z</time>
      </trkpt>
      <trkpt lat="47.25651" lon="2.75822">
        <ele>204.4</ele>
        <time>2024-05-08T07:23:47Z</time>
      </trkpt>
      <trkpt lat="47.25667" lon="2.75818">
        <ele>204.4</ele>
        <time>2024-05-08T07:23:50Z</time>
      </trkpt>
      <trkpt lat="47.25685" lon="2.75814">
        <ele>204.4</ele>
        <time>2024-05-08T07:23:53Z</time>
      </trkpt>
      <trkpt lat="47.25703" lon="2.75807">
        <ele>204</ele>
        <time>2024-05-08T07:23:56Z</time>
      </trkpt>
      <trkpt lat="47.25721" lon="2.758">
        <ele>202.4</ele>
        <time>2024-05-08T07:23:59Z</time>
      </trkpt>
      <trkpt lat="47.25728" lon="2.75796">
        <ele>202.4</ele>
        <time>2024-05-08T07:24:00Z</time>
      </trkpt>
      <trkpt lat="47.25735" lon="2.75791">
        <ele>201.8</ele>
        <time>2024-05-08T07:24:01Z</time>
      </trkpt>
      <trkpt lat="47.2574" lon="2.75787">
        <ele>201.4</ele>
        <time>2024-05-08T07:24:02Z</time>
      </trkpt>
      <trkpt lat="47.25762" lon="2.75766">
        <ele>200.2</ele>
        <time>2024-05-08T07:24:05Z</time>
      </trkpt>
      <trkpt lat="47.25769" lon="2.75757">
        <ele>199.6</ele>
        <time>2024-05-08T07:24:06Z</time>
      </trkpt>
      <trkpt lat="47.25781" lon="2.75741">
        <ele>198.8</ele>
        <time>2024-05-08T07:24:08Z</time>
      </trkpt>
      <trkpt lat="47.25794" lon="2.75721">
        <ele>197.6</ele>
        <time>2024-05-08T07:24:10Z</time>
      </trkpt>
      <trkpt lat="47.25804" lon="2.75705">
        <ele>196.6</ele>
        <time>2024-05-08T07:24:12Z</time>
      </trkpt>
      <trkpt lat="47.2581" lon="2.75697">
        <ele>196.2</ele>
        <time>2024-05-08T07:24:13Z</time>
      </trkpt>
      <trkpt lat="47.25837" lon="2.75658">
        <ele>195.6</ele>
        <time>2024-05-08T07:24:18Z</time>
      </trkpt>
      <trkpt lat="47.25841" lon="2.75651">
        <ele>195.6</ele>
        <time>2024-05-08T07:24:19Z</time>
      </trkpt>
      <trkpt lat="47.25847" lon="2.75642">
        <ele>195.6</ele>
        <time>2024-05-08T07:24:20Z</time>
      </trkpt>
      <trkpt lat="47.2586" lon="2.75624">
        <ele>195.4</ele>
        <time>2024-05-08T07:24:23Z</time>
      </trkpt>
      <trkpt lat="47.25883" lon="2.75589">
        <ele>195.8</ele>
        <time>2024-05-08T07:24:29Z</time>
      </trkpt>
      <trkpt lat="47.25898" lon="2.75557">
        <ele>196.6</ele>
        <time>2024-05-08T07:24:34Z</time>
      </trkpt>
      <trkpt lat="47.25901" lon="2.75551">
        <ele>196.6</ele>
        <time>2024-05-08T07:24:35Z</time>
      </trkpt>
      <trkpt lat="47.25904" lon="2.75544">
        <ele>196.8</ele>
        <time>2024-05-08T07:24:36Z</time>
      </trkpt>
      <trkpt lat="47.25915" lon="2.75523">
        <ele>197.2</ele>
        <time>2024-05-08T07:24:39Z</time>
      </trkpt>
      <trkpt lat="47.25918" lon="2.75518">
        <ele>197.2</ele>
        <time>2024-05-08T07:24:40Z</time>
      </trkpt>
      <trkpt lat="47.2593" lon="2.75499">
        <ele>197.8</ele>
        <time>2024-05-08T07:24:43Z</time>
      </trkpt>
      <trkpt lat="47.25933" lon="2.75494">
        <ele>198</ele>
        <time>2024-05-08T07:24:44Z</time>
      </trkpt>
      <trkpt lat="47.25963" lon="2.75448">
        <ele>198.4</ele>
        <time>2024-05-08T07:24:51Z</time>
      </trkpt>
      <trkpt lat="47.25992" lon="2.75403">
        <ele>198.4</ele>
        <time>2024-05-08T07:24:58Z</time>
      </trkpt>
      <trkpt lat="47.26017" lon="2.75367">
        <ele>198.4</ele>
        <time>2024-05-08T07:25:04Z</time>
      </trkpt>
      <trkpt lat="47.2604" lon="2.7533">
        <ele>198.6</ele>
        <time>2024-05-08T07:25:10Z</time>
      </trkpt>
      <trkpt lat="47.26045" lon="2.75323">
        <ele>198.6</ele>
        <time>2024-05-08T07:25:11Z</time>
      </trkpt>
      <trkpt lat="47.26064" lon="2.75291">
        <ele>198.8</ele>
        <time>2024-05-08T07:25:16Z</time>
      </trkpt>
      <trkpt lat="47.26071" lon="2.75281">
        <ele>198.8</ele>
        <time>2024-05-08T07:25:18Z</time>
      </trkpt>
      <trkpt lat="47.26105" lon="2.75229">
        <ele>199.6</ele>
        <time>2024-05-08T07:25:27Z</time>
      </trkpt>
      <trkpt lat="47.26113" lon="2.75216">
        <ele>199.8</ele>
        <time>2024-05-08T07:25:29Z</time>
      </trkpt>
      <trkpt lat="47.2614" lon="2.75178">
        <ele>200.6</ele>
        <time>2024-05-08T07:25:36Z</time>
      </trkpt>
      <trkpt lat="47.26147" lon="2.75167">
        <ele>200.8</ele>
        <time>2024-05-08T07:25:38Z</time>
      </trkpt>
      <trkpt lat="47.26172" lon="2.75133">
        <ele>201.4</ele>
        <time>2024-05-08T07:25:44Z</time>
      </trkpt>
      <trkpt lat="47.26193" lon="2.75104">
        <ele>201.8</ele>
        <time>2024-05-08T07:25:49Z</time>
      </trkpt>
      <trkpt lat="47.26197" lon="2.75099">
        <ele>201.8</ele>
        <time>2024-05-08T07:25:50Z</time>
      </trkpt>
      <trkpt lat="47.26235" lon="2.75043">
        <ele>202.4</ele>
        <time>2024-05-08T07:26:00Z</time>
      </trkpt>
      <trkpt lat="47.26259" lon="2.74999">
        <ele>202.8</ele>
        <time>2024-05-08T07:26:07Z</time>
      </trkpt>
      <trkpt lat="47.26269" lon="2.74977">
        <ele>202.8</ele>
        <time>2024-05-08T07:26:10Z</time>
      </trkpt>
      <trkpt lat="47.26285" lon="2.74935">
        <ele>203</ele>
        <time>2024-05-08T07:26:16Z</time>
      </trkpt>
      <trkpt lat="47.26299" lon="2.7487">
        <ele>203.2</ele>
        <time>2024-05-08T07:26:24Z</time>
      </trkpt>
      <trkpt lat="47.2631" lon="2.74815">
        <ele>203.2</ele>
        <time>2024-05-08T07:26:31Z</time>
      </trkpt>
      <trkpt lat="47.26316" lon="2.74746">
        <ele>203.4</ele>
        <time>2024-05-08T07:26:39Z</time>
      </trkpt>
      <trkpt lat="47.26314" lon="2.74668">
        <ele>203.6</ele>
        <time>2024-05-08T07:26:48Z</time>
      </trkpt>
      <trkpt lat="47.26314" lon="2.7466">
        <ele>203.8</ele>
        <time>2024-05-08T07:26:49Z</time>
      </trkpt>
      <trkpt lat="47.26318" lon="2.74634">
        <ele>204</ele>
        <time>2024-05-08T07:26:52Z</time>
      </trkpt>
      <trkpt lat="47.26321" lon="2.74626">
        <ele>204</ele>
        <time>2024-05-08T07:26:53Z</time>
      </trkpt>
      <trkpt lat="47.26342" lon="2.74587">
        <ele>204.4</ele>
        <time>2024-05-08T07:26:59Z</time>
      </trkpt>
      <trkpt lat="47.2637" lon="2.74537">
        <ele>204.4</ele>
        <time>2024-05-08T07:27:07Z</time>
      </trkpt>
      <trkpt lat="47.26374" lon="2.74531">
        <ele>204.4</ele>
        <time>2024-05-08T07:27:08Z</time>
      </trkpt>
      <trkpt lat="47.26394" lon="2.74492">
        <ele>205</ele>
        <time>2024-05-08T07:27:14Z</time>
      </trkpt>
      <trkpt lat="47.26403" lon="2.74464">
        <ele>205.6</ele>
        <time>2024-05-08T07:27:18Z</time>
      </trkpt>
      <trkpt lat="47.26408" lon="2.74443">
        <ele>206</ele>
        <time>2024-05-08T07:27:21Z</time>
      </trkpt>
      <trkpt lat="47.26411" lon="2.74429">
        <ele>206.8</ele>
        <time>2024-05-08T07:27:23Z</time>
      </trkpt>
      <trkpt lat="47.26422" lon="2.74382">
        <ele>207.8</ele>
        <time>2024-05-08T07:27:30Z</time>
      </trkpt>
      <trkpt lat="47.26437" lon="2.74352">
        <ele>209</ele>
        <time>2024-05-08T07:27:35Z</time>
      </trkpt>
      <trkpt lat="47.26447" lon="2.74335">
        <ele>209.4</ele>
        <time>2024-05-08T07:27:38Z</time>
      </trkpt>
      <trkpt lat="47.26459" lon="2.74313">
        <ele>210.2</ele>
        <time>2024-05-08T07:27:42Z</time>
      </trkpt>
      <trkpt lat="47.26472" lon="2.74292">
        <ele>210.8</ele>
        <time>2024-05-08T07:27:46Z</time>
      </trkpt>
      <trkpt lat="47.26486" lon="2.74271">
        <ele>211.4</ele>
        <time>2024-05-08T07:27:50Z</time>
      </trkpt>
      <trkpt lat="47.26508" lon="2.74241">
        <ele>212.2</ele>
        <time>2024-05-08T07:27:56Z</time>
      </trkpt>
      <trkpt lat="47.26511" lon="2.74237">
        <ele>212.4</ele>
        <time>2024-05-08T07:27:57Z</time>
      </trkpt>
      <trkpt lat="47.26531" lon="2.74217">
        <ele>213.4</ele>
        <time>2024-05-08T07:28:02Z</time>
      </trkpt>
      <trkpt lat="47.2654" lon="2.74212">
        <ele>213.8</ele>
        <time>2024-05-08T07:28:04Z</time>
      </trkpt>
      <trkpt lat="47.26553" lon="2.74205">
        <ele>214.6</ele>
        <time>2024-05-08T07:28:07Z</time>
      </trkpt>
      <trkpt lat="47.26572" lon="2.74199">
        <ele>215.4</ele>
        <time>2024-05-08T07:28:11Z</time>
      </trkpt>
      <trkpt lat="47.26587" lon="2.74193">
        <ele>215.8</ele>
        <time>2024-05-08T07:28:14Z</time>
      </trkpt>
      <trkpt lat="47.26602" lon="2.74186">
        <ele>215.8</ele>
        <time>2024-05-08T07:28:17Z</time>
      </trkpt>
      <trkpt lat="47.2662" lon="2.74178">
        <ele>215.8</ele>
        <time>2024-05-08T07:28:20Z</time>
      </trkpt>
      <trkpt lat="47.26632" lon="2.74172">
        <ele>215.8</ele>
        <time>2024-05-08T07:28:22Z</time>
      </trkpt>
      <trkpt lat="47.26654" lon="2.74153">
        <ele>215.2</ele>
        <time>2024-05-08T07:28:26Z</time>
      </trkpt>
      <trkpt lat="47.2666" lon="2.74148">
        <ele>215.2</ele>
        <time>2024-05-08T07:28:27Z</time>
      </trkpt>
      <trkpt lat="47.26689" lon="2.74112">
        <ele>214.6</ele>
        <time>2024-05-08T07:28:33Z</time>
      </trkpt>
      <trkpt lat="47.26694" lon="2.74106">
        <ele>214.6</ele>
        <time>2024-05-08T07:28:34Z</time>
      </trkpt>
      <trkpt lat="47.26718" lon="2.74078">
        <ele>214.8</ele>
        <time>2024-05-08T07:28:40Z</time>
      </trkpt>
      <trkpt lat="47.26722" lon="2.74073">
        <ele>215</ele>
        <time>2024-05-08T07:28:41Z</time>
      </trkpt>
      <trkpt lat="47.26734" lon="2.74062">
        <ele>215.4</ele>
        <time>2024-05-08T07:28:44Z</time>
      </trkpt>
      <trkpt lat="47.26743" lon="2.74056">
        <ele>215.8</ele>
        <time>2024-05-08T07:28:46Z</time>
      </trkpt>
      <trkpt lat="47.26766" lon="2.74043">
        <ele>216.8</ele>
        <time>2024-05-08T07:28:51Z</time>
      </trkpt>
      <trkpt lat="47.26771" lon="2.74042">
        <ele>216.8</ele>
        <time>2024-05-08T07:28:52Z</time>
      </trkpt>
      <trkpt lat="47.26794" lon="2.7404">
        <ele>217.6</ele>
        <time>2024-05-08T07:28:57Z</time>
      </trkpt>
      <trkpt lat="47.26817" lon="2.74037">
        <ele>218.8</ele>
        <time>2024-05-08T07:29:02Z</time>
      </trkpt>
      <trkpt lat="47.26822" lon="2.74036">
        <ele>219</ele>
        <time>2024-05-08T07:29:03Z</time>
      </trkpt>
      <trkpt lat="47.2683" lon="2.74034">
        <ele>219.6</ele>
        <time>2024-05-08T07:29:05Z</time>
      </trkpt>
      <trkpt lat="47.26835" lon="2.74032">
        <ele>219.6</ele>
        <time>2024-05-08T07:29:06Z</time>
      </trkpt>
      <trkpt lat="47.26839" lon="2.74031">
        <ele>219.8</ele>
        <time>2024-05-08T07:29:07Z</time>
      </trkpt>
      <trkpt lat="47.26844" lon="2.74029">
        <ele>220</ele>
        <time>2024-05-08T07:29:08Z</time>
      </trkpt>
      <trkpt lat="47.26849" lon="2.74028">
        <ele>220.2</ele>
        <time>2024-05-08T07:29:09Z</time>
      </trkpt>
      <trkpt lat="47.26863" lon="2.74021">
        <ele>221</ele>
        <time>2024-05-08T07:29:12Z</time>
      </trkpt>
      <trkpt lat="47.26875" lon="2.74012">
        <ele>221.8</ele>
        <time>2024-05-08T07:29:15Z</time>
      </trkpt>
      <trkpt lat="47.26881" lon="2.74004">
        <ele>222</ele>
        <time>2024-05-08T07:29:17Z</time>
      </trkpt>
      <trkpt lat="47.26885" lon="2.74">
        <ele>222.2</ele>
        <time>2024-05-08T07:29:18Z</time>
      </trkpt>
      <trkpt lat="47.26892" lon="2.73992">
        <ele>222.6</ele>
        <time>2024-05-08T07:29:20Z</time>
      </trkpt>
      <trkpt lat="47.26894" lon="2.73987">
        <ele>223</ele>
        <time>2024-05-08T07:29:21Z</time>
      </trkpt>
      <trkpt lat="47.26898" lon="2.73981">
        <ele>223.2</ele>
        <time>2024-05-08T07:29:22Z</time>
      </trkpt>
      <trkpt lat="47.26911" lon="2.73959">
        <ele>223.6</ele>
        <time>2024-05-08T07:29:26Z</time>
      </trkpt>
      <trkpt lat="47.26917" lon="2.73948">
        <ele>224</ele>
        <time>2024-05-08T07:29:28Z</time>
      </trkpt>
      <trkpt lat="47.26919" lon="2.73943">
        <ele>224.2</ele>
        <time>2024-05-08T07:29:29Z</time>
      </trkpt>
      <trkpt lat="47.26931" lon="2.73922">
        <ele>224.8</ele>
        <time>2024-05-08T07:29:33Z</time>
      </trkpt>
      <trkpt lat="47.26938" lon="2.73912">
        <ele>225.2</ele>
        <time>2024-05-08T07:29:35Z</time>
      </trkpt>
      <trkpt lat="47.26942" lon="2.73908">
        <ele>225.4</ele>
        <time>2024-05-08T07:29:36Z</time>
      </trkpt>
      <trkpt lat="47.26955" lon="2.73898">
        <ele>226</ele>
        <time>2024-05-08T07:29:39Z</time>
      </trkpt>
      <trkpt lat="47.26967" lon="2.73887">
        <ele>226.2</ele>
        <time>2024-05-08T07:29:42Z</time>
      </trkpt>
      <trkpt lat="47.26975" lon="2.7388">
        <ele>226.6</ele>
        <time>2024-05-08T07:29:44Z</time>
      </trkpt>
      <trkpt lat="47.26978" lon="2.73878">
        <ele>226.8</ele>
        <time>2024-05-08T07:29:45Z</time>
      </trkpt>
      <trkpt lat="47.26995" lon="2.73866">
        <ele>227.8</ele>
        <time>2024-05-08T07:29:49Z</time>
      </trkpt>
      <trkpt lat="47.27008" lon="2.73857">
        <ele>228.4</ele>
        <time>2024-05-08T07:29:52Z</time>
      </trkpt>
      <trkpt lat="47.27011" lon="2.73852">
        <ele>229</ele>
        <time>2024-05-08T07:29:53Z</time>
      </trkpt>
      <trkpt lat="47.27014" lon="2.73847">
        <ele>229.2</ele>
        <time>2024-05-08T07:29:54Z</time>
      </trkpt>
      <trkpt lat="47.27017" lon="2.73842">
        <ele>229.4</ele>
        <time>2024-05-08T07:29:55Z</time>
      </trkpt>
      <trkpt lat="47.27023" lon="2.73829">
        <ele>229.6</ele>
        <time>2024-05-08T07:29:57Z</time>
      </trkpt>
      <trkpt lat="47.27029" lon="2.7381">
        <ele>230</ele>
        <time>2024-05-08T07:30:00Z</time>
      </trkpt>
      <trkpt lat="47.27031" lon="2.73803">
        <ele>230.2</ele>
        <time>2024-05-08T07:30:01Z</time>
      </trkpt>
      <trkpt lat="47.27043" lon="2.73764">
        <ele>231.2</ele>
        <time>2024-05-08T07:30:07Z</time>
      </trkpt>
      <trkpt lat="47.2705" lon="2.73739">
        <ele>231.8</ele>
        <time>2024-05-08T07:30:11Z</time>
      </trkpt>
      <trkpt lat="47.27056" lon="2.73713">
        <ele>232.4</ele>
        <time>2024-05-08T07:30:15Z</time>
      </trkpt>
      <trkpt lat="47.27067" lon="2.73668">
        <ele>233.4</ele>
        <time>2024-05-08T07:30:22Z</time>
      </trkpt>
      <trkpt lat="47.27084" lon="2.73602">
        <ele>234.6</ele>
        <time>2024-05-08T07:30:32Z</time>
      </trkpt>
      <trkpt lat="47.27085" lon="2.73595">
        <ele>234.6</ele>
        <time>2024-05-08T07:30:33Z</time>
      </trkpt>
      <trkpt lat="47.2709" lon="2.73577">
        <ele>235.6</ele>
        <time>2024-05-08T07:30:36Z</time>
      </trkpt>
      <trkpt lat="47.27093" lon="2.73567">
        <ele>236.2</ele>
        <time>2024-05-08T07:30:39Z</time>
      </trkpt>
      <trkpt lat="47.27093" lon="2.73563">
        <ele>236.6</ele>
        <time>2024-05-08T07:30:41Z</time>
      </trkpt>
      <trkpt lat="47.27094" lon="2.73555">
        <ele>237</ele>
        <time>2024-05-08T07:30:45Z</time>
      </trkpt>
      <trkpt lat="47.27095" lon="2.73553">
        <ele>237.2</ele>
        <time>2024-05-08T07:30:48Z</time>
      </trkpt>
      <trkpt lat="47.27099" lon="2.73542">
        <ele>237.4</ele>
        <time>2024-05-08T07:30:58Z</time>
      </trkpt>
      <trkpt lat="47.27105" lon="2.73517">
        <ele>237.2</ele>
        <time>2024-05-08T07:31:02Z</time>
      </trkpt>
      <trkpt lat="47.2712" lon="2.73464">
        <ele>237.4</ele>
        <time>2024-05-08T07:31:10Z</time>
      </trkpt>
      <trkpt lat="47.27124" lon="2.73451">
        <ele>237.6</ele>
        <time>2024-05-08T07:31:12Z</time>
      </trkpt>
      <trkpt lat="47.27135" lon="2.73403">
        <ele>238.8</ele>
        <time>2024-05-08T07:31:19Z</time>
      </trkpt>
      <trkpt lat="47.27141" lon="2.73376">
        <ele>239.8</ele>
        <time>2024-05-08T07:31:23Z</time>
      </trkpt>
      <trkpt lat="47.27152" lon="2.73338">
        <ele>240.8</ele>
        <time>2024-05-08T07:31:29Z</time>
      </trkpt>
      <trkpt lat="47.27162" lon="2.733">
        <ele>242</ele>
        <time>2024-05-08T07:31:35Z</time>
      </trkpt>
      <trkpt lat="47.27169" lon="2.7328">
        <ele>242.6</ele>
        <time>2024-05-08T07:31:38Z</time>
      </trkpt>
      <trkpt lat="47.27186" lon="2.73253">
        <ele>243</ele>
        <time>2024-05-08T07:31:43Z</time>
      </trkpt>
      <trkpt lat="47.27189" lon="2.73249">
        <ele>243.2</ele>
        <time>2024-05-08T07:31:44Z</time>
      </trkpt>
      <trkpt lat="47.27209" lon="2.73225">
        <ele>244</ele>
        <time>2024-05-08T07:31:49Z</time>
      </trkpt>
      <trkpt lat="47.27229" lon="2.73197">
        <ele>244.6</ele>
        <time>2024-05-08T07:31:54Z</time>
      </trkpt>
      <trkpt lat="47.27265" lon="2.73152">
        <ele>245</ele>
        <time>2024-05-08T07:32:02Z</time>
      </trkpt>
      <trkpt lat="47.27298" lon="2.7311">
        <ele>244.6</ele>
        <time>2024-05-08T07:32:09Z</time>
      </trkpt>
      <trkpt lat="47.27343" lon="2.73053">
        <ele>244.6</ele>
        <time>2024-05-08T07:32:18Z</time>
      </trkpt>
      <trkpt lat="47.27377" lon="2.73007">
        <ele>244.6</ele>
        <time>2024-05-08T07:32:25Z</time>
      </trkpt>
      <trkpt lat="47.27381" lon="2.73">
        <ele>244.6</ele>
        <time>2024-05-08T07:32:26Z</time>
      </trkpt>
      <trkpt lat="47.27421" lon="2.72937">
        <ele>244.6</ele>
        <time>2024-05-08T07:32:35Z</time>
      </trkpt>
      <trkpt lat="47.27454" lon="2.72877">
        <ele>244.4</ele>
        <time>2024-05-08T07:32:43Z</time>
      </trkpt>
      <trkpt lat="47.27458" lon="2.72868">
        <ele>244.4</ele>
        <time>2024-05-08T07:32:44Z</time>
      </trkpt>
      <trkpt lat="47.27485" lon="2.72795">
        <ele>244</ele>
        <time>2024-05-08T07:32:53Z</time>
      </trkpt>
      <trkpt lat="47.27499" lon="2.72745">
        <ele>244.2</ele>
        <time>2024-05-08T07:32:59Z</time>
      </trkpt>
      <trkpt lat="47.27501" lon="2.72737">
        <ele>244.4</ele>
        <time>2024-05-08T07:33:00Z</time>
      </trkpt>
      <trkpt lat="47.27507" lon="2.72715">
        <ele>244.8</ele>
        <time>2024-05-08T07:33:03Z</time>
      </trkpt>
      <trkpt lat="47.27515" lon="2.72687">
        <ele>246</ele>
        <time>2024-05-08T07:33:07Z</time>
      </trkpt>
      <trkpt lat="47.27517" lon="2.7268">
        <ele>246.2</ele>
        <time>2024-05-08T07:33:08Z</time>
      </trkpt>
      <trkpt lat="47.27524" lon="2.72653">
        <ele>247</ele>
        <time>2024-05-08T07:33:12Z</time>
      </trkpt>
      <trkpt lat="47.27531" lon="2.72634">
        <ele>247.6</ele>
        <time>2024-05-08T07:33:15Z</time>
      </trkpt>
      <trkpt lat="47.27535" lon="2.72623">
        <ele>248</ele>
        <time>2024-05-08T07:33:17Z</time>
      </trkpt>
      <trkpt lat="47.27544" lon="2.72599">
        <ele>248.6</ele>
        <time>2024-05-08T07:33:21Z</time>
      </trkpt>
      <trkpt lat="47.27547" lon="2.72593">
        <ele>248.8</ele>
        <time>2024-05-08T07:33:22Z</time>
      </trkpt>
      <trkpt lat="47.27552" lon="2.72581">
        <ele>249</ele>
        <time>2024-05-08T07:33:24Z</time>
      </trkpt>
      <trkpt lat="47.27568" lon="2.72546">
        <ele>250</ele>
        <time>2024-05-08T07:33:30Z</time>
      </trkpt>
      <trkpt lat="47.27572" lon="2.72534">
        <ele>250.2</ele>
        <time>2024-05-08T07:33:32Z</time>
      </trkpt>
      <trkpt lat="47.27587" lon="2.72495">
        <ele>251.4</ele>
        <time>2024-05-08T07:33:39Z</time>
      </trkpt>
      <trkpt lat="47.27596" lon="2.72473">
        <ele>252.4</ele>
        <time>2024-05-08T07:33:43Z</time>
      </trkpt>
      <trkpt lat="47.27607" lon="2.72446">
        <ele>253.2</ele>
        <time>2024-05-08T07:33:48Z</time>
      </trkpt>
      <trkpt lat="47.27609" lon="2.7244">
        <ele>253.4</ele>
        <time>2024-05-08T07:33:49Z</time>
      </trkpt>
      <trkpt lat="47.27621" lon="2.72414">
        <ele>254.6</ele>
        <time>2024-05-08T07:33:54Z</time>
      </trkpt>
      <trkpt lat="47.27624" lon="2.72409">
        <ele>254.8</ele>
        <time>2024-05-08T07:33:55Z</time>
      </trkpt>
      <trkpt lat="47.27628" lon="2.72405">
        <ele>255.2</ele>
        <time>2024-05-08T07:33:56Z</time>
      </trkpt>
      <trkpt lat="47.27632" lon="2.72403">
        <ele>255.4</ele>
        <time>2024-05-08T07:33:57Z</time>
      </trkpt>
      <trkpt lat="47.27641" lon="2.72407">
        <ele>255.8</ele>
        <time>2024-05-08T07:33:59Z</time>
      </trkpt>
      <trkpt lat="47.27683" lon="2.72434">
        <ele>256.6</ele>
        <time>2024-05-08T07:34:08Z</time>
      </trkpt>
      <trkpt lat="47.27719" lon="2.72458">
        <ele>256.6</ele>
        <time>2024-05-08T07:34:16Z</time>
      </trkpt>
      <trkpt lat="47.27723" lon="2.7246">
        <ele>256.8</ele>
        <time>2024-05-08T07:34:17Z</time>
      </trkpt>
      <trkpt lat="47.27728" lon="2.72463">
        <ele>257</ele>
        <time>2024-05-08T07:34:18Z</time>
      </trkpt>
      <trkpt lat="47.27736" lon="2.72467">
        <ele>257.6</ele>
        <time>2024-05-08T07:34:20Z</time>
      </trkpt>
      <trkpt lat="47.27744" lon="2.72469">
        <ele>258</ele>
        <time>2024-05-08T07:34:22Z</time>
      </trkpt>
      <trkpt lat="47.27752" lon="2.72471">
        <ele>258.4</ele>
        <time>2024-05-08T07:34:24Z</time>
      </trkpt>
      <trkpt lat="47.2777" lon="2.72473">
        <ele>259.2</ele>
        <time>2024-05-08T07:34:28Z</time>
      </trkpt>
      <trkpt lat="47.27788" lon="2.72471">
        <ele>260</ele>
        <time>2024-05-08T07:34:32Z</time>
      </trkpt>
      <trkpt lat="47.27793" lon="2.7247">
        <ele>260.2</ele>
        <time>2024-05-08T07:34:33Z</time>
      </trkpt>
      <trkpt lat="47.27831" lon="2.72456">
        <ele>261</ele>
        <time>2024-05-08T07:34:41Z</time>
      </trkpt>
      <trkpt lat="47.2786" lon="2.72431">
        <ele>261.2</ele>
        <time>2024-05-08T07:34:47Z</time>
      </trkpt>
      <trkpt lat="47.2789" lon="2.72384">
        <ele>260.8</ele>
        <time>2024-05-08T07:34:54Z</time>
      </trkpt>
      <trkpt lat="47.27914" lon="2.72338">
        <ele>260</ele>
        <time>2024-05-08T07:35:00Z</time>
      </trkpt>
      <trkpt lat="47.27921" lon="2.72324">
        <ele>259.8</ele>
        <time>2024-05-08T07:35:02Z</time>
      </trkpt>
      <trkpt lat="47.27926" lon="2.72316">
        <ele>259.8</ele>
        <time>2024-05-08T07:35:03Z</time>
      </trkpt>
      <trkpt lat="47.27937" lon="2.72302">
        <ele>259.4</ele>
        <time>2024-05-08T07:35:05Z</time>
      </trkpt>
      <trkpt lat="47.27943" lon="2.72297">
        <ele>259.2</ele>
        <time>2024-05-08T07:35:06Z</time>
      </trkpt>
      <trkpt lat="47.27948" lon="2.72293">
        <ele>259</ele>
        <time>2024-05-08T07:35:07Z</time>
      </trkpt>
      <trkpt lat="47.27956" lon="2.72289">
        <ele>259</ele>
        <time>2024-05-08T07:35:08Z</time>
      </trkpt>
      <trkpt lat="47.27963" lon="2.72288">
        <ele>258.8</ele>
        <time>2024-05-08T07:35:09Z</time>
      </trkpt>
      <trkpt lat="47.2797" lon="2.72288">
        <ele>258.6</ele>
        <time>2024-05-08T07:35:10Z</time>
      </trkpt>
      <trkpt lat="47.27977" lon="2.72288">
        <ele>258.6</ele>
        <time>2024-05-08T07:35:11Z</time>
      </trkpt>
      <trkpt lat="47.27997" lon="2.72295">
        <ele>258</ele>
        <time>2024-05-08T07:35:14Z</time>
      </trkpt>
      <trkpt lat="47.28004" lon="2.72298">
        <ele>258</ele>
        <time>2024-05-08T07:35:15Z</time>
      </trkpt>
      <trkpt lat="47.28034" lon="2.7232">
        <ele>257.6</ele>
        <time>2024-05-08T07:35:20Z</time>
      </trkpt>
      <trkpt lat="47.28087" lon="2.72357">
        <ele>257</ele>
        <time>2024-05-08T07:35:29Z</time>
      </trkpt>
      <trkpt lat="47.28093" lon="2.72361">
        <ele>257</ele>
        <time>2024-05-08T07:35:30Z</time>
      </trkpt>
      <trkpt lat="47.28105" lon="2.72369">
        <ele>257</ele>
        <time>2024-05-08T07:35:32Z</time>
      </trkpt>
      <trkpt lat="47.28131" lon="2.72379">
        <ele>256.8</ele>
        <time>2024-05-08T07:35:36Z</time>
      </trkpt>
      <trkpt lat="47.28145" lon="2.7238">
        <ele>256.6</ele>
        <time>2024-05-08T07:35:38Z</time>
      </trkpt>
      <trkpt lat="47.28174" lon="2.72375">
        <ele>256.4</ele>
        <time>2024-05-08T07:35:42Z</time>
      </trkpt>
      <trkpt lat="47.28202" lon="2.72358">
        <ele>255.6</ele>
        <time>2024-05-08T07:35:46Z</time>
      </trkpt>
      <trkpt lat="47.28216" lon="2.72343">
        <ele>255</ele>
        <time>2024-05-08T07:35:48Z</time>
      </trkpt>
      <trkpt lat="47.28229" lon="2.72322">
        <ele>254.4</ele>
        <time>2024-05-08T07:35:50Z</time>
      </trkpt>
      <trkpt lat="47.28246" lon="2.7229">
        <ele>253</ele>
        <time>2024-05-08T07:35:53Z</time>
      </trkpt>
      <trkpt lat="47.28259" lon="2.7227">
        <ele>251.8</ele>
        <time>2024-05-08T07:35:55Z</time>
      </trkpt>
      <trkpt lat="47.28273" lon="2.72254">
        <ele>250.8</ele>
        <time>2024-05-08T07:35:57Z</time>
      </trkpt>
      <trkpt lat="47.28283" lon="2.72244">
        <ele>250</ele>
        <time>2024-05-08T07:35:58Z</time>
      </trkpt>
      <trkpt lat="47.28292" lon="2.72237">
        <ele>249.6</ele>
        <time>2024-05-08T07:35:59Z</time>
      </trkpt>
      <trkpt lat="47.2831" lon="2.72228">
        <ele>248</ele>
        <time>2024-05-08T07:36:01Z</time>
      </trkpt>
      <trkpt lat="47.2833" lon="2.72219">
        <ele>246.8</ele>
        <time>2024-05-08T07:36:03Z</time>
      </trkpt>
      <trkpt lat="47.28361" lon="2.72208">
        <ele>245</ele>
        <time>2024-05-08T07:36:06Z</time>
      </trkpt>
      <trkpt lat="47.28379" lon="2.72201">
        <ele>244</ele>
        <time>2024-05-08T07:36:08Z</time>
      </trkpt>
      <trkpt lat="47.28399" lon="2.72194">
        <ele>243.2</ele>
        <time>2024-05-08T07:36:10Z</time>
      </trkpt>
      <trkpt lat="47.28406" lon="2.72192">
        <ele>242.8</ele>
        <time>2024-05-08T07:36:11Z</time>
      </trkpt>
      <trkpt lat="47.28442" lon="2.72179">
        <ele>241.8</ele>
        <time>2024-05-08T07:36:15Z</time>
      </trkpt>
      <trkpt lat="47.28456" lon="2.72173">
        <ele>241.4</ele>
        <time>2024-05-08T07:36:17Z</time>
      </trkpt>
      <trkpt lat="47.28494" lon="2.7216">
        <ele>241</ele>
        <time>2024-05-08T07:36:22Z</time>
      </trkpt>
      <trkpt lat="47.28535" lon="2.72145">
        <ele>241</ele>
        <time>2024-05-08T07:36:28Z</time>
      </trkpt>
      <trkpt lat="47.28567" lon="2.72135">
        <ele>241.4</ele>
        <time>2024-05-08T07:36:33Z</time>
      </trkpt>
      <trkpt lat="47.28605" lon="2.7211">
        <ele>241.6</ele>
        <time>2024-05-08T07:36:39Z</time>
      </trkpt>
      <trkpt lat="47.28611" lon="2.72104">
        <ele>241.6</ele>
        <time>2024-05-08T07:36:40Z</time>
      </trkpt>
      <trkpt lat="47.28626" lon="2.72081">
        <ele>241.6</ele>
        <time>2024-05-08T07:36:43Z</time>
      </trkpt>
      <trkpt lat="47.28658" lon="2.72022">
        <ele>240.8</ele>
        <time>2024-05-08T07:36:50Z</time>
      </trkpt>
      <trkpt lat="47.28662" lon="2.72015">
        <ele>240.6</ele>
        <time>2024-05-08T07:36:51Z</time>
      </trkpt>
      <trkpt lat="47.28696" lon="2.71953">
        <ele>239.6</ele>
        <time>2024-05-08T07:36:58Z</time>
      </trkpt>
      <trkpt lat="47.28735" lon="2.71886">
        <ele>238.6</ele>
        <time>2024-05-08T07:37:06Z</time>
      </trkpt>
      <trkpt lat="47.2875" lon="2.71863">
        <ele>238.4</ele>
        <time>2024-05-08T07:37:09Z</time>
      </trkpt>
      <trkpt lat="47.28784" lon="2.71826">
        <ele>238.4</ele>
        <time>2024-05-08T07:37:15Z</time>
      </trkpt>
      <trkpt lat="47.28833" lon="2.71791">
        <ele>238.6</ele>
        <time>2024-05-08T07:37:23Z</time>
      </trkpt>
      <trkpt lat="47.28873" lon="2.71763">
        <ele>239.4</ele>
        <time>2024-05-08T07:37:30Z</time>
      </trkpt>
      <trkpt lat="47.28891" lon="2.71751">
        <ele>239.6</ele>
        <time>2024-05-08T07:37:33Z</time>
      </trkpt>
      <trkpt lat="47.28921" lon="2.71729">
        <ele>239.8</ele>
        <time>2024-05-08T07:37:38Z</time>
      </trkpt>
      <trkpt lat="47.28962" lon="2.71697">
        <ele>240</ele>
        <time>2024-05-08T07:37:45Z</time>
      </trkpt>
      <trkpt lat="47.29009" lon="2.71648">
        <ele>239.4</ele>
        <time>2024-05-08T07:37:53Z</time>
      </trkpt>
      <trkpt lat="47.29056" lon="2.716">
        <ele>238.2</ele>
        <time>2024-05-08T07:38:01Z</time>
      </trkpt>
      <trkpt lat="47.29103" lon="2.7155">
        <ele>237.6</ele>
        <time>2024-05-08T07:38:09Z</time>
      </trkpt>
      <trkpt lat="47.29142" lon="2.71507">
        <ele>237.6</ele>
        <time>2024-05-08T07:38:16Z</time>
      </trkpt>
      <trkpt lat="47.29188" lon="2.71453">
        <ele>237.8</ele>
        <time>2024-05-08T07:38:25Z</time>
      </trkpt>
      <trkpt lat="47.29227" lon="2.71409">
        <ele>238</ele>
        <time>2024-05-08T07:38:33Z</time>
      </trkpt>
      <trkpt lat="47.29269" lon="2.71357">
        <ele>238.2</ele>
        <time>2024-05-08T07:38:42Z</time>
      </trkpt>
      <trkpt lat="47.29317" lon="2.71302">
        <ele>238</ele>
        <time>2024-05-08T07:38:51Z</time>
      </trkpt>
      <trkpt lat="47.29356" lon="2.71255">
        <ele>237.2</ele>
        <time>2024-05-08T07:38:58Z</time>
      </trkpt>
      <trkpt lat="47.29367" lon="2.71242">
        <ele>236.8</ele>
        <time>2024-05-08T07:39:00Z</time>
      </trkpt>
      <trkpt lat="47.29397" lon="2.71208">
        <ele>236.2</ele>
        <time>2024-05-08T07:39:05Z</time>
      </trkpt>
      <trkpt lat="47.29409" lon="2.71193">
        <ele>236</ele>
        <time>2024-05-08T07:39:07Z</time>
      </trkpt>
      <trkpt lat="47.29437" lon="2.71161">
        <ele>235</ele>
        <time>2024-05-08T07:39:12Z</time>
      </trkpt>
      <trkpt lat="47.2946" lon="2.71132">
        <ele>234.6</ele>
        <time>2024-05-08T07:39:16Z</time>
      </trkpt>
      <trkpt lat="47.29483" lon="2.71106">
        <ele>233.8</ele>
        <time>2024-05-08T07:39:20Z</time>
      </trkpt>
      <trkpt lat="47.29501" lon="2.71085">
        <ele>233.4</ele>
        <time>2024-05-08T07:39:23Z</time>
      </trkpt>
      <trkpt lat="47.29525" lon="2.71057">
        <ele>232.8</ele>
        <time>2024-05-08T07:39:27Z</time>
      </trkpt>
      <trkpt lat="47.29543" lon="2.71038">
        <ele>232</ele>
        <time>2024-05-08T07:39:30Z</time>
      </trkpt>
      <trkpt lat="47.29554" lon="2.71026">
        <ele>231.6</ele>
        <time>2024-05-08T07:39:32Z</time>
      </trkpt>
      <trkpt lat="47.29559" lon="2.7102">
        <ele>231.6</ele>
        <time>2024-05-08T07:39:33Z</time>
      </trkpt>
      <trkpt lat="47.29571" lon="2.71005">
        <ele>231.4</ele>
        <time>2024-05-08T07:39:35Z</time>
      </trkpt>
      <trkpt lat="47.29605" lon="2.70966">
        <ele>231</ele>
        <time>2024-05-08T07:39:42Z</time>
      </trkpt>
      <trkpt lat="47.29641" lon="2.70919">
        <ele>231.6</ele>
        <time>2024-05-08T07:39:50Z</time>
      </trkpt>
      <trkpt lat="47.29664" lon="2.70881">
        <ele>232.4</ele>
        <time>2024-05-08T07:39:56Z</time>
      </trkpt>
      <trkpt lat="47.29666" lon="2.70874">
        <ele>232.4</ele>
        <time>2024-05-08T07:39:57Z</time>
      </trkpt>
      <trkpt lat="47.29675" lon="2.70853">
        <ele>232.8</ele>
        <time>2024-05-08T07:40:00Z</time>
      </trkpt>
      <trkpt lat="47.29686" lon="2.70823">
        <ele>233.4</ele>
        <time>2024-05-08T07:40:04Z</time>
      </trkpt>
      <trkpt lat="47.29688" lon="2.70818">
        <ele>233.4</ele>
        <time>2024-05-08T07:40:05Z</time>
      </trkpt>
      <trkpt lat="47.29694" lon="2.70793">
        <ele>233.8</ele>
        <time>2024-05-08T07:40:08Z</time>
      </trkpt>
      <trkpt lat="47.29701" lon="2.70754">
        <ele>234.2</ele>
        <time>2024-05-08T07:40:13Z</time>
      </trkpt>
      <trkpt lat="47.29703" lon="2.7073">
        <ele>235</ele>
        <time>2024-05-08T07:40:16Z</time>
      </trkpt>
      <trkpt lat="47.29705" lon="2.70707">
        <ele>235.2</ele>
        <time>2024-05-08T07:40:19Z</time>
      </trkpt>
      <trkpt lat="47.2971" lon="2.70631">
        <ele>236</ele>
        <time>2024-05-08T07:40:29Z</time>
      </trkpt>
      <trkpt lat="47.29711" lon="2.70622">
        <ele>236</ele>
        <time>2024-05-08T07:40:30Z</time>
      </trkpt>
      <trkpt lat="47.29715" lon="2.70549">
        <ele>237</ele>
        <time>2024-05-08T07:40:39Z</time>
      </trkpt>
      <trkpt lat="47.29716" lon="2.70543">
        <ele>237</ele>
        <time>2024-05-08T07:40:40Z</time>
      </trkpt>
      <trkpt lat="47.29721" lon="2.70461">
        <ele>237.4</ele>
        <time>2024-05-08T07:40:50Z</time>
      </trkpt>
      <trkpt lat="47.29725" lon="2.70406">
        <ele>238</ele>
        <time>2024-05-08T07:40:57Z</time>
      </trkpt>
      <trkpt lat="47.29735" lon="2.70323">
        <ele>238.6</ele>
        <time>2024-05-08T07:41:07Z</time>
      </trkpt>
      <trkpt lat="47.29754" lon="2.70244">
        <ele>239</ele>
        <time>2024-05-08T07:41:17Z</time>
      </trkpt>
      <trkpt lat="47.29756" lon="2.70238">
        <ele>239</ele>
        <time>2024-05-08T07:41:18Z</time>
      </trkpt>
      <trkpt lat="47.29772" lon="2.70188">
        <ele>239.4</ele>
        <time>2024-05-08T07:41:25Z</time>
      </trkpt>
      <trkpt lat="47.29781" lon="2.70162">
        <ele>240</ele>
        <time>2024-05-08T07:41:29Z</time>
      </trkpt>
      <trkpt lat="47.29799" lon="2.70117">
        <ele>241.2</ele>
        <time>2024-05-08T07:41:36Z</time>
      </trkpt>
      <trkpt lat="47.2982" lon="2.70065">
        <ele>242</ele>
        <time>2024-05-08T07:41:44Z</time>
      </trkpt>
      <trkpt lat="47.29831" lon="2.7004">
        <ele>242.2</ele>
        <time>2024-05-08T07:41:48Z</time>
      </trkpt>
      <trkpt lat="47.29856" lon="2.69985">
        <ele>243.2</ele>
        <time>2024-05-08T07:41:57Z</time>
      </trkpt>
      <trkpt lat="47.29859" lon="2.69979">
        <ele>243.4</ele>
        <time>2024-05-08T07:41:58Z</time>
      </trkpt>
      <trkpt lat="47.29871" lon="2.6995">
        <ele>243.8</ele>
        <time>2024-05-08T07:42:03Z</time>
      </trkpt>
      <trkpt lat="47.29878" lon="2.6994">
        <ele>243.8</ele>
        <time>2024-05-08T07:42:05Z</time>
      </trkpt>
      <trkpt lat="47.29889" lon="2.69929">
        <ele>244.4</ele>
        <time>2024-05-08T07:42:08Z</time>
      </trkpt>
      <trkpt lat="47.29905" lon="2.69913">
        <ele>244.6</ele>
        <time>2024-05-08T07:42:12Z</time>
      </trkpt>
      <trkpt lat="47.29917" lon="2.69895">
        <ele>244.8</ele>
        <time>2024-05-08T07:42:15Z</time>
      </trkpt>
      <trkpt lat="47.29926" lon="2.69878">
        <ele>244.8</ele>
        <time>2024-05-08T07:42:18Z</time>
      </trkpt>
      <trkpt lat="47.2993" lon="2.6987">
        <ele>244.8</ele>
        <time>2024-05-08T07:42:19Z</time>
      </trkpt>
      <trkpt lat="47.29944" lon="2.69836">
        <ele>245.2</ele>
        <time>2024-05-08T07:42:24Z</time>
      </trkpt>
      <trkpt lat="47.29946" lon="2.69829">
        <ele>245.2</ele>
        <time>2024-05-08T07:42:25Z</time>
      </trkpt>
      <trkpt lat="47.29949" lon="2.69816">
        <ele>245.6</ele>
        <time>2024-05-08T07:42:27Z</time>
      </trkpt>
      <trkpt lat="47.29953" lon="2.69799">
        <ele>245.8</ele>
        <time>2024-05-08T07:42:29Z</time>
      </trkpt>
      <trkpt lat="47.29955" lon="2.69793">
        <ele>245.8</ele>
        <time>2024-05-08T07:42:30Z</time>
      </trkpt>
      <trkpt lat="47.29965" lon="2.69754">
        <ele>246.2</ele>
        <time>2024-05-08T07:42:35Z</time>
      </trkpt>
      <trkpt lat="47.29976" lon="2.6969">
        <ele>246.4</ele>
        <time>2024-05-08T07:42:42Z</time>
      </trkpt>
      <trkpt lat="47.2998" lon="2.69628">
        <ele>245.6</ele>
        <time>2024-05-08T07:42:48Z</time>
      </trkpt>
      <trkpt lat="47.29979" lon="2.69574">
        <ele>244.6</ele>
        <time>2024-05-08T07:42:53Z</time>
      </trkpt>
      <trkpt lat="47.29979" lon="2.69562">
        <ele>244.2</ele>
        <time>2024-05-08T07:42:54Z</time>
      </trkpt>
      <trkpt lat="47.29977" lon="2.69537">
        <ele>243.2</ele>
        <time>2024-05-08T07:42:56Z</time>
      </trkpt>
      <trkpt lat="47.29974" lon="2.69511">
        <ele>242.4</ele>
        <time>2024-05-08T07:42:58Z</time>
      </trkpt>
      <trkpt lat="47.29973" lon="2.69498">
        <ele>242</ele>
        <time>2024-05-08T07:42:59Z</time>
      </trkpt>
      <trkpt lat="47.2997" lon="2.69446">
        <ele>241</ele>
        <time>2024-05-08T07:43:03Z</time>
      </trkpt>
      <trkpt lat="47.29969" lon="2.6942">
        <ele>240</ele>
        <time>2024-05-08T07:43:05Z</time>
      </trkpt>
      <trkpt lat="47.29969" lon="2.69404">
        <ele>239.4</ele>
        <time>2024-05-08T07:43:06Z</time>
      </trkpt>
      <trkpt lat="47.2997" lon="2.69381">
        <ele>238.6</ele>
        <time>2024-05-08T07:43:08Z</time>
      </trkpt>
      <trkpt lat="47.29972" lon="2.69366">
        <ele>238.4</ele>
        <time>2024-05-08T07:43:09Z</time>
      </trkpt>
      <trkpt lat="47.29981" lon="2.69333">
        <ele>237.4</ele>
        <time>2024-05-08T07:43:12Z</time>
      </trkpt>
      <trkpt lat="47.29984" lon="2.69322">
        <ele>237</ele>
        <time>2024-05-08T07:43:13Z</time>
      </trkpt>
      <trkpt lat="47.29989" lon="2.69312">
        <ele>236.6</ele>
        <time>2024-05-08T07:43:14Z</time>
      </trkpt>
      <trkpt lat="47.3001" lon="2.6926">
        <ele>236</ele>
        <time>2024-05-08T07:43:19Z</time>
      </trkpt>
      <trkpt lat="47.30013" lon="2.69253">
        <ele>235.8</ele>
        <time>2024-05-08T07:43:20Z</time>
      </trkpt>
      <trkpt lat="47.30025" lon="2.69225">
        <ele>235.8</ele>
        <time>2024-05-08T07:43:23Z</time>
      </trkpt>
      <trkpt lat="47.30033" lon="2.69208">
        <ele>235.8</ele>
        <time>2024-05-08T07:43:25Z</time>
      </trkpt>
      <trkpt lat="47.30051" lon="2.69165">
        <ele>236.4</ele>
        <time>2024-05-08T07:43:31Z</time>
      </trkpt>
      <trkpt lat="47.3006" lon="2.69138">
        <ele>237.2</ele>
        <time>2024-05-08T07:43:35Z</time>
      </trkpt>
      <trkpt lat="47.30062" lon="2.69132">
        <ele>237.2</ele>
        <time>2024-05-08T07:43:36Z</time>
      </trkpt>
      <trkpt lat="47.30065" lon="2.69125">
        <ele>237.6</ele>
        <time>2024-05-08T07:43:37Z</time>
      </trkpt>
      <trkpt lat="47.30073" lon="2.69103">
        <ele>238</ele>
        <time>2024-05-08T07:43:41Z</time>
      </trkpt>
      <trkpt lat="47.30075" lon="2.69096">
        <ele>238.4</ele>
        <time>2024-05-08T07:43:42Z</time>
      </trkpt>
      <trkpt lat="47.30077" lon="2.69089">
        <ele>238.6</ele>
        <time>2024-05-08T07:43:43Z</time>
      </trkpt>
      <trkpt lat="47.3008" lon="2.69077">
        <ele>239</ele>
        <time>2024-05-08T07:43:45Z</time>
      </trkpt>
      <trkpt lat="47.30089" lon="2.69035">
        <ele>240</ele>
        <time>2024-05-08T07:43:51Z</time>
      </trkpt>
      <trkpt lat="47.30092" lon="2.69026">
        <ele>240.2</ele>
        <time>2024-05-08T07:43:52Z</time>
      </trkpt>
      <trkpt lat="47.30098" lon="2.68999">
        <ele>240.8</ele>
        <time>2024-05-08T07:43:56Z</time>
      </trkpt>
      <trkpt lat="47.30101" lon="2.68986">
        <ele>241</ele>
        <time>2024-05-08T07:43:58Z</time>
      </trkpt>
      <trkpt lat="47.30103" lon="2.68979">
        <ele>241.4</ele>
        <time>2024-05-08T07:43:59Z</time>
      </trkpt>
      <trkpt lat="47.30109" lon="2.68947">
        <ele>242.4</ele>
        <time>2024-05-08T07:44:04Z</time>
      </trkpt>
      <trkpt lat="47.30113" lon="2.68932">
        <ele>243</ele>
        <time>2024-05-08T07:44:06Z</time>
      </trkpt>
      <trkpt lat="47.30121" lon="2.68909">
        <ele>243.6</ele>
        <time>2024-05-08T07:44:10Z</time>
      </trkpt>
      <trkpt lat="47.30128" lon="2.68891">
        <ele>244.2</ele>
        <time>2024-05-08T07:44:13Z</time>
      </trkpt>
      <trkpt lat="47.30136" lon="2.68873">
        <ele>244.8</ele>
        <time>2024-05-08T07:44:16Z</time>
      </trkpt>
      <trkpt lat="47.30143" lon="2.68856">
        <ele>245.2</ele>
        <time>2024-05-08T07:44:19Z</time>
      </trkpt>
      <trkpt lat="47.30146" lon="2.6885">
        <ele>245.2</ele>
        <time>2024-05-08T07:44:20Z</time>
      </trkpt>
      <trkpt lat="47.30156" lon="2.68829">
        <ele>246</ele>
        <time>2024-05-08T07:44:24Z</time>
      </trkpt>
      <trkpt lat="47.30169" lon="2.68807">
        <ele>246.4</ele>
        <time>2024-05-08T07:44:28Z</time>
      </trkpt>
      <trkpt lat="47.30172" lon="2.68802">
        <ele>246.6</ele>
        <time>2024-05-08T07:44:29Z</time>
      </trkpt>
      <trkpt lat="47.30189" lon="2.68774">
        <ele>247</ele>
        <time>2024-05-08T07:44:35Z</time>
      </trkpt>
      <trkpt lat="47.30192" lon="2.6877">
        <ele>247.2</ele>
        <time>2024-05-08T07:44:36Z</time>
      </trkpt>
      <trkpt lat="47.30201" lon="2.68754">
        <ele>247.8</ele>
        <time>2024-05-08T07:44:39Z</time>
      </trkpt>
      <trkpt lat="47.30206" lon="2.68744">
        <ele>248.2</ele>
        <time>2024-05-08T07:44:41Z</time>
      </trkpt>
      <trkpt lat="47.30214" lon="2.68737">
        <ele>248.4</ele>
        <time>2024-05-08T07:44:43Z</time>
      </trkpt>
      <trkpt lat="47.30222" lon="2.68734">
        <ele>248.6</ele>
        <time>2024-05-08T07:44:45Z</time>
      </trkpt>
      <trkpt lat="47.30252" lon="2.68725">
        <ele>248.8</ele>
        <time>2024-05-08T07:44:51Z</time>
      </trkpt>
      <trkpt lat="47.30274" lon="2.68718">
        <ele>248.8</ele>
        <time>2024-05-08T07:44:57Z</time>
      </trkpt>
      <trkpt lat="47.30274" lon="2.68716">
        <ele>248.4</ele>
        <time>2024-05-08T07:44:59Z</time>
      </trkpt>
      <trkpt lat="47.30273" lon="2.68716">
        <ele>248.2</ele>
        <time>2024-05-08T07:45:00Z</time>
      </trkpt>
      <trkpt lat="47.30261" lon="2.68719">
        <ele>247.8</ele>
        <time>2024-05-08T07:45:06Z</time>
      </trkpt>
      <trkpt lat="47.30242" lon="2.68724">
        <ele>247.8</ele>
        <time>2024-05-08T07:45:11Z</time>
      </trkpt>
      <trkpt lat="47.30224" lon="2.68726">
        <ele>248.2</ele>
        <time>2024-05-08T07:45:16Z</time>
      </trkpt>
      <trkpt lat="47.3022" lon="2.68719">
        <ele>248.4</ele>
        <time>2024-05-08T07:45:18Z</time>
      </trkpt>
      <trkpt lat="47.30222" lon="2.68713">
        <ele>248.4</ele>
        <time>2024-05-08T07:45:19Z</time>
      </trkpt>
      <trkpt lat="47.30223" lon="2.68708">
        <ele>248.6</ele>
        <time>2024-05-08T07:45:20Z</time>
      </trkpt>
      <trkpt lat="47.30229" lon="2.68695">
        <ele>249.4</ele>
        <time>2024-05-08T07:45:23Z</time>
      </trkpt>
      <trkpt lat="47.30234" lon="2.68674">
        <ele>250.4</ele>
        <time>2024-05-08T07:45:27Z</time>
      </trkpt>
      <trkpt lat="47.30237" lon="2.68657">
        <ele>251.2</ele>
        <time>2024-05-08T07:45:30Z</time>
      </trkpt>
      <trkpt lat="47.30237" lon="2.68652">
        <ele>251.4</ele>
        <time>2024-05-08T07:45:31Z</time>
      </trkpt>
      <trkpt lat="47.30238" lon="2.68643">
        <ele>252</ele>
        <time>2024-05-08T07:45:33Z</time>
      </trkpt>
      <trkpt lat="47.30237" lon="2.68639">
        <ele>252.4</ele>
        <time>2024-05-08T07:45:34Z</time>
      </trkpt>
      <trkpt lat="47.30236" lon="2.68634">
        <ele>253</ele>
        <time>2024-05-08T07:45:36Z</time>
      </trkpt>
      <trkpt lat="47.30236" lon="2.68632">
        <ele>253.4</ele>
        <time>2024-05-08T07:45:37Z</time>
      </trkpt>
      <trkpt lat="47.30238" lon="2.68631">
        <ele>253.6</ele>
        <time>2024-05-08T07:45:38Z</time>
      </trkpt>
      <trkpt lat="47.30251" lon="2.68632">
        <ele>254.6</ele>
        <time>2024-05-08T07:45:44Z</time>
      </trkpt>
      <trkpt lat="47.30258" lon="2.68633">
        <ele>254.6</ele>
        <time>2024-05-08T07:45:47Z</time>
      </trkpt>
      <trkpt lat="47.30264" lon="2.68632">
        <ele>254.8</ele>
        <time>2024-05-08T07:45:50Z</time>
      </trkpt>
      <trkpt lat="47.30271" lon="2.68618">
        <ele>255.4</ele>
        <time>2024-05-08T07:45:55Z</time>
      </trkpt>
      <trkpt lat="47.30269" lon="2.68613">
        <ele>255.6</ele>
        <time>2024-05-08T07:45:56Z</time>
      </trkpt>
      <trkpt lat="47.30263" lon="2.68598">
        <ele>256.2</ele>
        <time>2024-05-08T07:45:59Z</time>
      </trkpt>
      <trkpt lat="47.30256" lon="2.6859">
        <ele>256.4</ele>
        <time>2024-05-08T07:46:01Z</time>
      </trkpt>
      <trkpt lat="47.30254" lon="2.68587">
        <ele>256.6</ele>
        <time>2024-05-08T07:46:02Z</time>
      </trkpt>
      <trkpt lat="47.30251" lon="2.68583">
        <ele>256.6</ele>
        <time>2024-05-08T07:46:03Z</time>
      </trkpt>
      <trkpt lat="47.3024" lon="2.68573">
        <ele>257.2</ele>
        <time>2024-05-08T07:46:06Z</time>
      </trkpt>
      <trkpt lat="47.30236" lon="2.68571">
        <ele>257.6</ele>
        <time>2024-05-08T07:46:07Z</time>
      </trkpt>
      <trkpt lat="47.30231" lon="2.68568">
        <ele>257.8</ele>
        <time>2024-05-08T07:46:08Z</time>
      </trkpt>
      <trkpt lat="47.30224" lon="2.68562">
        <ele>258</ele>
        <time>2024-05-08T07:46:09Z</time>
      </trkpt>
      <trkpt lat="47.30215" lon="2.68554">
        <ele>258.2</ele>
        <time>2024-05-08T07:46:11Z</time>
      </trkpt>
      <trkpt lat="47.30208" lon="2.68551">
        <ele>258.4</ele>
        <time>2024-05-08T07:46:13Z</time>
      </trkpt>
      <trkpt lat="47.30198" lon="2.68534">
        <ele>258.4</ele>
        <time>2024-05-08T07:46:16Z</time>
      </trkpt>
      <trkpt lat="47.30187" lon="2.68517">
        <ele>258.6</ele>
        <time>2024-05-08T07:46:19Z</time>
      </trkpt>
      <trkpt lat="47.30171" lon="2.68483">
        <ele>259.4</ele>
        <time>2024-05-08T07:46:25Z</time>
      </trkpt>
      <trkpt lat="47.30169" lon="2.68479">
        <ele>259.8</ele>
        <time>2024-05-08T07:46:26Z</time>
      </trkpt>
      <trkpt lat="47.30159" lon="2.68461">
        <ele>261</ele>
        <time>2024-05-08T07:46:30Z</time>
      </trkpt>
      <trkpt lat="47.30156" lon="2.68455">
        <ele>261.2</ele>
        <time>2024-05-08T07:46:31Z</time>
      </trkpt>
      <trkpt lat="47.30149" lon="2.68439">
        <ele>262</ele>
        <time>2024-05-08T07:46:34Z</time>
      </trkpt>
      <trkpt lat="47.30142" lon="2.6842">
        <ele>263</ele>
        <time>2024-05-08T07:46:38Z</time>
      </trkpt>
      <trkpt lat="47.30141" lon="2.68417">
        <ele>263.2</ele>
        <time>2024-05-08T07:46:39Z</time>
      </trkpt>
      <trkpt lat="47.30132" lon="2.68394">
        <ele>264.4</ele>
        <time>2024-05-08T07:46:44Z</time>
      </trkpt>
      <trkpt lat="47.30131" lon="2.6839">
        <ele>264.6</ele>
        <time>2024-05-08T07:46:45Z</time>
      </trkpt>
      <trkpt lat="47.30129" lon="2.68386">
        <ele>265</ele>
        <time>2024-05-08T07:46:46Z</time>
      </trkpt>
      <trkpt lat="47.30125" lon="2.68382">
        <ele>265.4</ele>
        <time>2024-05-08T07:46:47Z</time>
      </trkpt>
      <trkpt lat="47.30123" lon="2.68379">
        <ele>265.8</ele>
        <time>2024-05-08T07:46:48Z</time>
      </trkpt>
      <trkpt lat="47.30113" lon="2.68352">
        <ele>266.6</ele>
        <time>2024-05-08T07:46:54Z</time>
      </trkpt>
      <trkpt lat="47.30106" lon="2.68319">
        <ele>267.6</ele>
        <time>2024-05-08T07:47:00Z</time>
      </trkpt>
      <trkpt lat="47.30105" lon="2.68314">
        <ele>267.8</ele>
        <time>2024-05-08T07:47:01Z</time>
      </trkpt>
      <trkpt lat="47.30099" lon="2.68294">
        <ele>268.6</ele>
        <time>2024-05-08T07:47:05Z</time>
      </trkpt>
      <trkpt lat="47.30094" lon="2.6828">
        <ele>269.2</ele>
        <time>2024-05-08T07:47:08Z</time>
      </trkpt>
      <trkpt lat="47.30089" lon="2.68266">
        <ele>269.8</ele>
        <time>2024-05-08T07:47:11Z</time>
      </trkpt>
      <trkpt lat="47.30086" lon="2.68256">
        <ele>270.2</ele>
        <time>2024-05-08T07:47:13Z</time>
      </trkpt>
      <trkpt lat="47.30085" lon="2.68248">
        <ele>271</ele>
        <time>2024-05-08T07:47:15Z</time>
      </trkpt>
      <trkpt lat="47.30081" lon="2.68234">
        <ele>271.6</ele>
        <time>2024-05-08T07:47:18Z</time>
      </trkpt>
      <trkpt lat="47.30077" lon="2.68223">
        <ele>272</ele>
        <time>2024-05-08T07:47:20Z</time>
      </trkpt>
      <trkpt lat="47.30072" lon="2.68208">
        <ele>273</ele>
        <time>2024-05-08T07:47:23Z</time>
      </trkpt>
      <trkpt lat="47.30067" lon="2.68195">
        <ele>274</ele>
        <time>2024-05-08T07:47:26Z</time>
      </trkpt>
      <trkpt lat="47.30065" lon="2.6819">
        <ele>274.2</ele>
        <time>2024-05-08T07:47:27Z</time>
      </trkpt>
      <trkpt lat="47.30057" lon="2.68167">
        <ele>275.2</ele>
        <time>2024-05-08T07:47:32Z</time>
      </trkpt>
      <trkpt lat="47.30054" lon="2.68158">
        <ele>275.4</ele>
        <time>2024-05-08T07:47:34Z</time>
      </trkpt>
      <trkpt lat="47.30048" lon="2.68145">
        <ele>276.2</ele>
        <time>2024-05-08T07:47:37Z</time>
      </trkpt>
      <trkpt lat="47.30039" lon="2.68128">
        <ele>277.2</ele>
        <time>2024-05-08T07:47:41Z</time>
      </trkpt>
      <trkpt lat="47.30036" lon="2.68123">
        <ele>277.4</ele>
        <time>2024-05-08T07:47:42Z</time>
      </trkpt>
      <trkpt lat="47.3003" lon="2.68107">
        <ele>278.6</ele>
        <time>2024-05-08T07:47:46Z</time>
      </trkpt>
      <trkpt lat="47.30025" lon="2.6809">
        <ele>279.4</ele>
        <time>2024-05-08T07:47:50Z</time>
      </trkpt>
      <trkpt lat="47.30023" lon="2.68086">
        <ele>279.8</ele>
        <time>2024-05-08T07:47:51Z</time>
      </trkpt>
      <trkpt lat="47.3002" lon="2.68076">
        <ele>280.6</ele>
        <time>2024-05-08T07:47:54Z</time>
      </trkpt>
      <trkpt lat="47.30013" lon="2.68058">
        <ele>281.6</ele>
        <time>2024-05-08T07:47:58Z</time>
      </trkpt>
      <trkpt lat="47.30012" lon="2.68053">
        <ele>281.8</ele>
        <time>2024-05-08T07:47:59Z</time>
      </trkpt>
      <trkpt lat="47.30007" lon="2.68035">
        <ele>282.8</ele>
        <time>2024-05-08T07:48:03Z</time>
      </trkpt>
      <trkpt lat="47.30005" lon="2.68031">
        <ele>282.8</ele>
        <time>2024-05-08T07:48:04Z</time>
      </trkpt>
      <trkpt lat="47.29988" lon="2.6799">
        <ele>283.6</ele>
        <time>2024-05-08T07:48:11Z</time>
      </trkpt>
      <trkpt lat="47.29987" lon="2.67982">
        <ele>284</ele>
        <time>2024-05-08T07:48:12Z</time>
      </trkpt>
      <trkpt lat="47.29967" lon="2.67944">
        <ele>284.6</ele>
        <time>2024-05-08T07:48:18Z</time>
      </trkpt>
      <trkpt lat="47.29967" lon="2.67937">
        <ele>284.8</ele>
        <time>2024-05-08T07:48:19Z</time>
      </trkpt>
      <trkpt lat="47.29967" lon="2.67934">
        <ele>284.8</ele>
        <time>2024-05-08T07:48:20Z</time>
      </trkpt>
      <trkpt lat="47.29968" lon="2.67929">
        <ele>285</ele>
        <time>2024-05-08T07:48:21Z</time>
      </trkpt>
      <trkpt lat="47.29972" lon="2.67913">
        <ele>285.4</ele>
        <time>2024-05-08T07:48:24Z</time>
      </trkpt>
      <trkpt lat="47.29972" lon="2.67902">
        <ele>286</ele>
        <time>2024-05-08T07:48:26Z</time>
      </trkpt>
      <trkpt lat="47.29979" lon="2.67878">
        <ele>287.2</ele>
        <time>2024-05-08T07:48:31Z</time>
      </trkpt>
      <trkpt lat="47.29981" lon="2.67843">
        <ele>288</ele>
        <time>2024-05-08T07:48:37Z</time>
      </trkpt>
      <trkpt lat="47.29982" lon="2.67835">
        <ele>288.2</ele>
        <time>2024-05-08T07:48:38Z</time>
      </trkpt>
      <trkpt lat="47.29982" lon="2.6783">
        <ele>288.2</ele>
        <time>2024-05-08T07:48:39Z</time>
      </trkpt>
      <trkpt lat="47.29983" lon="2.67815">
        <ele>288.2</ele>
        <time>2024-05-08T07:48:41Z</time>
      </trkpt>
      <trkpt lat="47.29982" lon="2.67797">
        <ele>288.6</ele>
        <time>2024-05-08T07:48:44Z</time>
      </trkpt>
      <trkpt lat="47.29981" lon="2.67782">
        <ele>288.8</ele>
        <time>2024-05-08T07:48:46Z</time>
      </trkpt>
      <trkpt lat="47.29979" lon="2.67771">
        <ele>289</ele>
        <time>2024-05-08T07:48:48Z</time>
      </trkpt>
      <trkpt lat="47.2998" lon="2.67765">
        <ele>289.2</ele>
        <time>2024-05-08T07:48:49Z</time>
      </trkpt>
      <trkpt lat="47.29981" lon="2.67757">
        <ele>289.4</ele>
        <time>2024-05-08T07:48:50Z</time>
      </trkpt>
      <trkpt lat="47.29982" lon="2.67728">
        <ele>290.2</ele>
        <time>2024-05-08T07:48:55Z</time>
      </trkpt>
      <trkpt lat="47.29988" lon="2.67699">
        <ele>291.2</ele>
        <time>2024-05-08T07:49:00Z</time>
      </trkpt>
      <trkpt lat="47.29988" lon="2.67681">
        <ele>292</ele>
        <time>2024-05-08T07:49:03Z</time>
      </trkpt>
      <trkpt lat="47.29987" lon="2.67673">
        <ele>292.4</ele>
        <time>2024-05-08T07:49:04Z</time>
      </trkpt>
      <trkpt lat="47.29985" lon="2.67655">
        <ele>293</ele>
        <time>2024-05-08T07:49:07Z</time>
      </trkpt>
      <trkpt lat="47.29985" lon="2.67642">
        <ele>293.4</ele>
        <time>2024-05-08T07:49:09Z</time>
      </trkpt>
      <trkpt lat="47.29986" lon="2.67636">
        <ele>293.4</ele>
        <time>2024-05-08T07:49:10Z</time>
      </trkpt>
      <trkpt lat="47.29987" lon="2.67631">
        <ele>293.6</ele>
        <time>2024-05-08T07:49:11Z</time>
      </trkpt>
      <trkpt lat="47.29992" lon="2.67621">
        <ele>293.8</ele>
        <time>2024-05-08T07:49:13Z</time>
      </trkpt>
      <trkpt lat="47.29995" lon="2.67615">
        <ele>294</ele>
        <time>2024-05-08T07:49:14Z</time>
      </trkpt>
      <trkpt lat="47.30005" lon="2.67603">
        <ele>294.2</ele>
        <time>2024-05-08T07:49:17Z</time>
      </trkpt>
      <trkpt lat="47.30009" lon="2.67596">
        <ele>294.6</ele>
        <time>2024-05-08T07:49:19Z</time>
      </trkpt>
      <trkpt lat="47.30015" lon="2.67588">
        <ele>295</ele>
        <time>2024-05-08T07:49:21Z</time>
      </trkpt>
      <trkpt lat="47.3002" lon="2.6758">
        <ele>295.6</ele>
        <time>2024-05-08T07:49:23Z</time>
      </trkpt>
      <trkpt lat="47.30023" lon="2.67576">
        <ele>295.6</ele>
        <time>2024-05-08T07:49:24Z</time>
      </trkpt>
      <trkpt lat="47.30027" lon="2.67573">
        <ele>295.8</ele>
        <time>2024-05-08T07:49:25Z</time>
      </trkpt>
      <trkpt lat="47.30042" lon="2.67546">
        <ele>296.8</ele>
        <time>2024-05-08T07:49:31Z</time>
      </trkpt>
      <trkpt lat="47.3006" lon="2.67515">
        <ele>298</ele>
        <time>2024-05-08T07:49:37Z</time>
      </trkpt>
      <trkpt lat="47.30086" lon="2.67465">
        <ele>299</ele>
        <time>2024-05-08T07:49:47Z</time>
      </trkpt>
      <trkpt lat="47.30108" lon="2.67423">
        <ele>299.4</ele>
        <time>2024-05-08T07:49:54Z</time>
      </trkpt>
      <trkpt lat="47.30127" lon="2.67387">
        <ele>299.2</ele>
        <time>2024-05-08T07:49:59Z</time>
      </trkpt>
      <trkpt lat="47.30149" lon="2.67346">
        <ele>298.4</ele>
        <time>2024-05-08T07:50:04Z</time>
      </trkpt>
      <trkpt lat="47.30163" lon="2.67321">
        <ele>297.8</ele>
        <time>2024-05-08T07:50:07Z</time>
      </trkpt>
      <trkpt lat="47.30173" lon="2.67306">
        <ele>297.6</ele>
        <time>2024-05-08T07:50:09Z</time>
      </trkpt>
      <trkpt lat="47.30198" lon="2.67277">
        <ele>298</ele>
        <time>2024-05-08T07:50:14Z</time>
      </trkpt>
      <trkpt lat="47.30229" lon="2.67245">
        <ele>298.8</ele>
        <time>2024-05-08T07:50:21Z</time>
      </trkpt>
      <trkpt lat="47.30237" lon="2.67235">
        <ele>299</ele>
        <time>2024-05-08T07:50:23Z</time>
      </trkpt>
      <trkpt lat="47.3025" lon="2.67219">
        <ele>299.4</ele>
        <time>2024-05-08T07:50:26Z</time>
      </trkpt>
      <trkpt lat="47.30261" lon="2.67202">
        <ele>299.8</ele>
        <time>2024-05-08T07:50:29Z</time>
      </trkpt>
      <trkpt lat="47.30277" lon="2.67179">
        <ele>300.8</ele>
        <time>2024-05-08T07:50:34Z</time>
      </trkpt>
      <trkpt lat="47.30285" lon="2.67168">
        <ele>301</ele>
        <time>2024-05-08T07:50:36Z</time>
      </trkpt>
      <trkpt lat="47.30289" lon="2.67162">
        <ele>301</ele>
        <time>2024-05-08T07:50:37Z</time>
      </trkpt>
      <trkpt lat="47.30296" lon="2.67152">
        <ele>301.4</ele>
        <time>2024-05-08T07:50:39Z</time>
      </trkpt>
      <trkpt lat="47.30328" lon="2.67114">
        <ele>301.8</ele>
        <time>2024-05-08T07:50:46Z</time>
      </trkpt>
      <trkpt lat="47.30366" lon="2.67075">
        <ele>301.6</ele>
        <time>2024-05-08T07:50:53Z</time>
      </trkpt>
      <trkpt lat="47.30405" lon="2.67038">
        <ele>301.2</ele>
        <time>2024-05-08T07:51:00Z</time>
      </trkpt>
      <trkpt lat="47.30449" lon="2.66999">
        <ele>300.6</ele>
        <time>2024-05-08T07:51:08Z</time>
      </trkpt>
      <trkpt lat="47.30492" lon="2.6698">
        <ele>300.8</ele>
        <time>2024-05-08T07:51:15Z</time>
      </trkpt>
      <trkpt lat="47.30547" lon="2.66965">
        <ele>300.6</ele>
        <time>2024-05-08T07:51:24Z</time>
      </trkpt>
      <trkpt lat="47.30557" lon="2.66962">
        <ele>300.6</ele>
        <time>2024-05-08T07:51:26Z</time>
      </trkpt>
      <trkpt lat="47.30564" lon="2.6696">
        <ele>300.6</ele>
        <time>2024-05-08T07:51:27Z</time>
      </trkpt>
      <trkpt lat="47.30584" lon="2.6695">
        <ele>300.8</ele>
        <time>2024-05-08T07:51:31Z</time>
      </trkpt>
      <trkpt lat="47.30607" lon="2.66929">
        <ele>301.2</ele>
        <time>2024-05-08T07:51:36Z</time>
      </trkpt>
      <trkpt lat="47.3064" lon="2.66893">
        <ele>302.4</ele>
        <time>2024-05-08T07:51:44Z</time>
      </trkpt>
      <trkpt lat="47.30648" lon="2.66885">
        <ele>302.6</ele>
        <time>2024-05-08T07:51:46Z</time>
      </trkpt>
      <trkpt lat="47.30673" lon="2.66853">
        <ele>303.6</ele>
        <time>2024-05-08T07:51:53Z</time>
      </trkpt>
      <trkpt lat="47.30676" lon="2.66848">
        <ele>303.8</ele>
        <time>2024-05-08T07:51:54Z</time>
      </trkpt>
      <trkpt lat="47.30679" lon="2.66842">
        <ele>304</ele>
        <time>2024-05-08T07:51:55Z</time>
      </trkpt>
      <trkpt lat="47.30681" lon="2.66837">
        <ele>304.4</ele>
        <time>2024-05-08T07:51:56Z</time>
      </trkpt>
      <trkpt lat="47.30684" lon="2.66825">
        <ele>304.8</ele>
        <time>2024-05-08T07:51:58Z</time>
      </trkpt>
      <trkpt lat="47.30686" lon="2.66813">
        <ele>305</ele>
        <time>2024-05-08T07:52:00Z</time>
      </trkpt>
      <trkpt lat="47.30687" lon="2.66806">
        <ele>305.2</ele>
        <time>2024-05-08T07:52:01Z</time>
      </trkpt>
      <trkpt lat="47.30685" lon="2.66786">
        <ele>305.6</ele>
        <time>2024-05-08T07:52:05Z</time>
      </trkpt>
      <trkpt lat="47.30685" lon="2.66781">
        <ele>305.8</ele>
        <time>2024-05-08T07:52:06Z</time>
      </trkpt>
      <trkpt lat="47.30681" lon="2.6676">
        <ele>307</ele>
        <time>2024-05-08T07:52:10Z</time>
      </trkpt>
      <trkpt lat="47.30676" lon="2.66745">
        <ele>307.8</ele>
        <time>2024-05-08T07:52:13Z</time>
      </trkpt>
      <trkpt lat="47.30673" lon="2.66734">
        <ele>308</ele>
        <time>2024-05-08T07:52:15Z</time>
      </trkpt>
      <trkpt lat="47.30668" lon="2.66717">
        <ele>308.8</ele>
        <time>2024-05-08T07:52:18Z</time>
      </trkpt>
      <trkpt lat="47.30663" lon="2.66703">
        <ele>309.2</ele>
        <time>2024-05-08T07:52:20Z</time>
      </trkpt>
      <trkpt lat="47.30656" lon="2.66681">
        <ele>309.8</ele>
        <time>2024-05-08T07:52:24Z</time>
      </trkpt>
      <trkpt lat="47.30652" lon="2.66669">
        <ele>310.2</ele>
        <time>2024-05-08T07:52:26Z</time>
      </trkpt>
      <trkpt lat="47.30646" lon="2.66653">
        <ele>311.2</ele>
        <time>2024-05-08T07:52:29Z</time>
      </trkpt>
      <trkpt lat="47.30638" lon="2.66632">
        <ele>312.2</ele>
        <time>2024-05-08T07:52:33Z</time>
      </trkpt>
      <trkpt lat="47.30634" lon="2.66619">
        <ele>312.2</ele>
        <time>2024-05-08T07:52:35Z</time>
      </trkpt>
      <trkpt lat="47.30631" lon="2.66597">
        <ele>312.8</ele>
        <time>2024-05-08T07:52:39Z</time>
      </trkpt>
      <trkpt lat="47.30628" lon="2.6658">
        <ele>313.4</ele>
        <time>2024-05-08T07:52:42Z</time>
      </trkpt>
      <trkpt lat="47.30628" lon="2.66563">
        <ele>314</ele>
        <time>2024-05-08T07:52:45Z</time>
      </trkpt>
      <trkpt lat="47.30628" lon="2.66539">
        <ele>314.8</ele>
        <time>2024-05-08T07:52:49Z</time>
      </trkpt>
      <trkpt lat="47.30629" lon="2.66526">
        <ele>315.4</ele>
        <time>2024-05-08T07:52:52Z</time>
      </trkpt>
      <trkpt lat="47.30629" lon="2.66516">
        <ele>315.8</ele>
        <time>2024-05-08T07:52:54Z</time>
      </trkpt>
      <trkpt lat="47.30629" lon="2.66509">
        <ele>316.6</ele>
        <time>2024-05-08T07:52:56Z</time>
      </trkpt>
      <trkpt lat="47.30629" lon="2.66499">
        <ele>316.8</ele>
        <time>2024-05-08T07:52:58Z</time>
      </trkpt>
      <trkpt lat="47.30626" lon="2.66478">
        <ele>317.8</ele>
        <time>2024-05-08T07:53:02Z</time>
      </trkpt>
      <trkpt lat="47.30626" lon="2.66473">
        <ele>318</ele>
        <time>2024-05-08T07:53:03Z</time>
      </trkpt>
      <trkpt lat="47.30625" lon="2.66452">
        <ele>319</ele>
        <time>2024-05-08T07:53:07Z</time>
      </trkpt>
      <trkpt lat="47.30626" lon="2.66423">
        <ele>320</ele>
        <time>2024-05-08T07:53:12Z</time>
      </trkpt>
      <trkpt lat="47.30635" lon="2.66396">
        <ele>320.6</ele>
        <time>2024-05-08T07:53:16Z</time>
      </trkpt>
      <trkpt lat="47.30638" lon="2.66383">
        <ele>321.2</ele>
        <time>2024-05-08T07:53:18Z</time>
      </trkpt>
      <trkpt lat="47.30641" lon="2.66368">
        <ele>322</ele>
        <time>2024-05-08T07:53:21Z</time>
      </trkpt>
      <trkpt lat="47.30644" lon="2.66363">
        <ele>322</ele>
        <time>2024-05-08T07:53:22Z</time>
      </trkpt>
      <trkpt lat="47.30645" lon="2.66359">
        <ele>322.2</ele>
        <time>2024-05-08T07:53:23Z</time>
      </trkpt>
      <trkpt lat="47.30645" lon="2.66346">
        <ele>322.6</ele>
        <time>2024-05-08T07:53:25Z</time>
      </trkpt>
      <trkpt lat="47.30648" lon="2.66322">
        <ele>323.6</ele>
        <time>2024-05-08T07:53:29Z</time>
      </trkpt>
      <trkpt lat="47.30654" lon="2.66297">
        <ele>324</ele>
        <time>2024-05-08T07:53:33Z</time>
      </trkpt>
      <trkpt lat="47.30656" lon="2.66287">
        <ele>324.4</ele>
        <time>2024-05-08T07:53:35Z</time>
      </trkpt>
      <trkpt lat="47.3066" lon="2.66278">
        <ele>324.4</ele>
        <time>2024-05-08T07:53:37Z</time>
      </trkpt>
      <trkpt lat="47.3067" lon="2.66255">
        <ele>325.4</ele>
        <time>2024-05-08T07:53:42Z</time>
      </trkpt>
      <trkpt lat="47.30673" lon="2.6625">
        <ele>325.8</ele>
        <time>2024-05-08T07:53:43Z</time>
      </trkpt>
      <trkpt lat="47.30682" lon="2.66238">
        <ele>326.6</ele>
        <time>2024-05-08T07:53:46Z</time>
      </trkpt>
      <trkpt lat="47.30693" lon="2.66225">
        <ele>327</ele>
        <time>2024-05-08T07:53:49Z</time>
      </trkpt>
      <trkpt lat="47.30707" lon="2.66215">
        <ele>327.6</ele>
        <time>2024-05-08T07:53:52Z</time>
      </trkpt>
      <trkpt lat="47.30714" lon="2.66209">
        <ele>328</ele>
        <time>2024-05-08T07:53:54Z</time>
      </trkpt>
      <trkpt lat="47.30736" lon="2.66192">
        <ele>329</ele>
        <time>2024-05-08T07:54:00Z</time>
      </trkpt>
      <trkpt lat="47.30744" lon="2.66188">
        <ele>329.2</ele>
        <time>2024-05-08T07:54:02Z</time>
      </trkpt>
      <trkpt lat="47.30761" lon="2.66175">
        <ele>330</ele>
        <time>2024-05-08T07:54:07Z</time>
      </trkpt>
      <trkpt lat="47.3078" lon="2.66162">
        <ele>330.8</ele>
        <time>2024-05-08T07:54:12Z</time>
      </trkpt>
      <trkpt lat="47.30791" lon="2.66155">
        <ele>331.2</ele>
        <time>2024-05-08T07:54:15Z</time>
      </trkpt>
      <trkpt lat="47.30814" lon="2.66142">
        <ele>332.2</ele>
        <time>2024-05-08T07:54:21Z</time>
      </trkpt>
      <trkpt lat="47.30817" lon="2.66139">
        <ele>332.4</ele>
        <time>2024-05-08T07:54:22Z</time>
      </trkpt>
      <trkpt lat="47.30829" lon="2.66131">
        <ele>333.4</ele>
        <time>2024-05-08T07:54:25Z</time>
      </trkpt>
      <trkpt lat="47.30849" lon="2.66118">
        <ele>334</ele>
        <time>2024-05-08T07:54:30Z</time>
      </trkpt>
      <trkpt lat="47.30865" lon="2.6611">
        <ele>334.6</ele>
        <time>2024-05-08T07:54:34Z</time>
      </trkpt>
      <trkpt lat="47.30884" lon="2.66101">
        <ele>335.4</ele>
        <time>2024-05-08T07:54:39Z</time>
      </trkpt>
      <trkpt lat="47.30892" lon="2.66099">
        <ele>335.8</ele>
        <time>2024-05-08T07:54:41Z</time>
      </trkpt>
      <trkpt lat="47.30903" lon="2.66097">
        <ele>337.2</ele>
        <time>2024-05-08T07:54:44Z</time>
      </trkpt>
      <trkpt lat="47.30915" lon="2.66094">
        <ele>337.8</ele>
        <time>2024-05-08T07:54:47Z</time>
      </trkpt>
      <trkpt lat="47.30922" lon="2.66093">
        <ele>338.2</ele>
        <time>2024-05-08T07:54:49Z</time>
      </trkpt>
      <trkpt lat="47.30951" lon="2.66085">
        <ele>339.2</ele>
        <time>2024-05-08T07:54:56Z</time>
      </trkpt>
      <trkpt lat="47.30955" lon="2.66084">
        <ele>339.4</ele>
        <time>2024-05-08T07:54:57Z</time>
      </trkpt>
      <trkpt lat="47.30975" lon="2.66073">
        <ele>340.4</ele>
        <time>2024-05-08T07:55:02Z</time>
      </trkpt>
      <trkpt lat="47.30979" lon="2.6607">
        <ele>340.8</ele>
        <time>2024-05-08T07:55:03Z</time>
      </trkpt>
      <trkpt lat="47.30982" lon="2.66067">
        <ele>340.8</ele>
        <time>2024-05-08T07:55:04Z</time>
      </trkpt>
      <trkpt lat="47.30989" lon="2.6606">
        <ele>341.4</ele>
        <time>2024-05-08T07:55:06Z</time>
      </trkpt>
      <trkpt lat="47.30996" lon="2.66052">
        <ele>341.8</ele>
        <time>2024-05-08T07:55:08Z</time>
      </trkpt>
      <trkpt lat="47.31002" lon="2.66044">
        <ele>342.2</ele>
        <time>2024-05-08T07:55:10Z</time>
      </trkpt>
      <trkpt lat="47.31008" lon="2.66036">
        <ele>342.4</ele>
        <time>2024-05-08T07:55:12Z</time>
      </trkpt>
      <trkpt lat="47.31011" lon="2.66031">
        <ele>342.4</ele>
        <time>2024-05-08T07:55:13Z</time>
      </trkpt>
      <trkpt lat="47.31014" lon="2.66027">
        <ele>342.4</ele>
        <time>2024-05-08T07:55:14Z</time>
      </trkpt>
      <trkpt lat="47.31023" lon="2.66015">
        <ele>343</ele>
        <time>2024-05-08T07:55:17Z</time>
      </trkpt>
      <trkpt lat="47.31029" lon="2.66006">
        <ele>343.4</ele>
        <time>2024-05-08T07:55:19Z</time>
      </trkpt>
      <trkpt lat="47.31044" lon="2.65975">
        <ele>344.2</ele>
        <time>2024-05-08T07:55:25Z</time>
      </trkpt>
      <trkpt lat="47.31048" lon="2.65963">
        <ele>344.4</ele>
        <time>2024-05-08T07:55:27Z</time>
      </trkpt>
      <trkpt lat="47.31049" lon="2.65957">
        <ele>344.6</ele>
        <time>2024-05-08T07:55:28Z</time>
      </trkpt>
      <trkpt lat="47.31052" lon="2.65947">
        <ele>344.8</ele>
        <time>2024-05-08T07:55:30Z</time>
      </trkpt>
      <trkpt lat="47.31057" lon="2.65924">
        <ele>345</ele>
        <time>2024-05-08T07:55:34Z</time>
      </trkpt>
      <trkpt lat="47.31058" lon="2.6592">
        <ele>345.2</ele>
        <time>2024-05-08T07:55:35Z</time>
      </trkpt>
      <trkpt lat="47.31061" lon="2.65894">
        <ele>345.6</ele>
        <time>2024-05-08T07:55:39Z</time>
      </trkpt>
      <trkpt lat="47.31065" lon="2.65856">
        <ele>346</ele>
        <time>2024-05-08T07:55:45Z</time>
      </trkpt>
      <trkpt lat="47.31067" lon="2.65843">
        <ele>346.2</ele>
        <time>2024-05-08T07:55:47Z</time>
      </trkpt>
      <trkpt lat="47.31074" lon="2.65832">
        <ele>346</ele>
        <time>2024-05-08T07:55:49Z</time>
      </trkpt>
      <trkpt lat="47.31077" lon="2.65827">
        <ele>346.2</ele>
        <time>2024-05-08T07:55:50Z</time>
      </trkpt>
      <trkpt lat="47.31079" lon="2.6582">
        <ele>346.4</ele>
        <time>2024-05-08T07:55:51Z</time>
      </trkpt>
      <trkpt lat="47.31082" lon="2.65806">
        <ele>346.6</ele>
        <time>2024-05-08T07:55:53Z</time>
      </trkpt>
      <trkpt lat="47.31091" lon="2.65765">
        <ele>347.4</ele>
        <time>2024-05-08T07:55:59Z</time>
      </trkpt>
      <trkpt lat="47.31092" lon="2.65759">
        <ele>347.6</ele>
        <time>2024-05-08T07:56:00Z</time>
      </trkpt>
      <trkpt lat="47.311" lon="2.65722">
        <ele>348.8</ele>
        <time>2024-05-08T07:56:06Z</time>
      </trkpt>
      <trkpt lat="47.31106" lon="2.65704">
        <ele>349.2</ele>
        <time>2024-05-08T07:56:09Z</time>
      </trkpt>
      <trkpt lat="47.31114" lon="2.65681">
        <ele>349.8</ele>
        <time>2024-05-08T07:56:13Z</time>
      </trkpt>
      <trkpt lat="47.31125" lon="2.65661">
        <ele>350.2</ele>
        <time>2024-05-08T07:56:17Z</time>
      </trkpt>
      <trkpt lat="47.31138" lon="2.65642">
        <ele>350.6</ele>
        <time>2024-05-08T07:56:21Z</time>
      </trkpt>
      <trkpt lat="47.31145" lon="2.65633">
        <ele>350.8</ele>
        <time>2024-05-08T07:56:23Z</time>
      </trkpt>
      <trkpt lat="47.31152" lon="2.65623">
        <ele>351</ele>
        <time>2024-05-08T07:56:25Z</time>
      </trkpt>
      <trkpt lat="47.31156" lon="2.65619">
        <ele>351</ele>
        <time>2024-05-08T07:56:26Z</time>
      </trkpt>
      <trkpt lat="47.31171" lon="2.65601">
        <ele>351.2</ele>
        <time>2024-05-08T07:56:29Z</time>
      </trkpt>
      <trkpt lat="47.31174" lon="2.65596">
        <ele>351.4</ele>
        <time>2024-05-08T07:56:31Z</time>
      </trkpt>
      <trkpt lat="47.31189" lon="2.65568">
        <ele>351.6</ele>
        <time>2024-05-08T07:56:35Z</time>
      </trkpt>
      <trkpt lat="47.31193" lon="2.65554">
        <ele>351.8</ele>
        <time>2024-05-08T07:56:38Z</time>
      </trkpt>
      <trkpt lat="47.312" lon="2.65534">
        <ele>351.8</ele>
        <time>2024-05-08T07:56:40Z</time>
      </trkpt>
      <trkpt lat="47.31205" lon="2.65519">
        <ele>351.4</ele>
        <time>2024-05-08T07:56:43Z</time>
      </trkpt>
      <trkpt lat="47.31217" lon="2.65485">
        <ele>351</ele>
        <time>2024-05-08T07:56:46Z</time>
      </trkpt>
      <trkpt lat="47.3122" lon="2.65475">
        <ele>350.6</ele>
        <time>2024-05-08T07:56:48Z</time>
      </trkpt>
      <trkpt lat="47.31232" lon="2.65435">
        <ele>349.8</ele>
        <time>2024-05-08T07:56:51Z</time>
      </trkpt>
      <trkpt lat="47.31239" lon="2.65413">
        <ele>348.6</ele>
        <time>2024-05-08T07:56:54Z</time>
      </trkpt>
      <trkpt lat="47.31244" lon="2.6539">
        <ele>348.2</ele>
        <time>2024-05-08T07:56:55Z</time>
      </trkpt>
      <trkpt lat="47.31249" lon="2.65368">
        <ele>347.8</ele>
        <time>2024-05-08T07:56:57Z</time>
      </trkpt>
      <trkpt lat="47.31251" lon="2.65359">
        <ele>347.4</ele>
        <time>2024-05-08T07:56:58Z</time>
      </trkpt>
      <trkpt lat="47.31253" lon="2.65333">
        <ele>346.6</ele>
        <time>2024-05-08T07:57:00Z</time>
      </trkpt>
      <trkpt lat="47.31253" lon="2.65333">
        <ele>346.4</ele>
        <time>2024-05-08T07:57:01Z</time>
      </trkpt>
      <trkpt lat="47.31256" lon="2.65304">
        <ele>345.2</ele>
        <time>2024-05-08T07:57:03Z</time>
      </trkpt>
      <trkpt lat="47.31259" lon="2.65275">
        <ele>344.2</ele>
        <time>2024-05-08T07:57:05Z</time>
      </trkpt>
      <trkpt lat="47.31265" lon="2.65217">
        <ele>343</ele>
        <time>2024-05-08T07:57:09Z</time>
      </trkpt>
      <trkpt lat="47.31268" lon="2.65189">
        <ele>341.8</ele>
        <time>2024-05-08T07:57:11Z</time>
      </trkpt>
      <trkpt lat="47.31274" lon="2.65132">
        <ele>340.2</ele>
        <time>2024-05-08T07:57:14Z</time>
      </trkpt>
      <trkpt lat="47.31277" lon="2.65091">
        <ele>339</ele>
        <time>2024-05-08T07:57:17Z</time>
      </trkpt>
      <trkpt lat="47.31281" lon="2.6505">
        <ele>338.2</ele>
        <time>2024-05-08T07:57:20Z</time>
      </trkpt>
      <trkpt lat="47.31284" lon="2.65024">
        <ele>337.6</ele>
        <time>2024-05-08T07:57:22Z</time>
      </trkpt>
      <trkpt lat="47.31288" lon="2.64971">
        <ele>336.6</ele>
        <time>2024-05-08T07:57:26Z</time>
      </trkpt>
      <trkpt lat="47.31289" lon="2.64958">
        <ele>336.4</ele>
        <time>2024-05-08T07:57:27Z</time>
      </trkpt>
      <trkpt lat="47.31292" lon="2.64932">
        <ele>335.6</ele>
        <time>2024-05-08T07:57:29Z</time>
      </trkpt>
      <trkpt lat="47.31294" lon="2.64919">
        <ele>335.2</ele>
        <time>2024-05-08T07:57:30Z</time>
      </trkpt>
      <trkpt lat="47.31296" lon="2.64907">
        <ele>335</ele>
        <time>2024-05-08T07:57:31Z</time>
      </trkpt>
      <trkpt lat="47.31306" lon="2.64844">
        <ele>334.2</ele>
        <time>2024-05-08T07:57:37Z</time>
      </trkpt>
      <trkpt lat="47.31325" lon="2.64778">
        <ele>333</ele>
        <time>2024-05-08T07:57:42Z</time>
      </trkpt>
      <trkpt lat="47.31328" lon="2.64768">
        <ele>333</ele>
        <time>2024-05-08T07:57:43Z</time>
      </trkpt>
      <trkpt lat="47.31332" lon="2.64758">
        <ele>332.8</ele>
        <time>2024-05-08T07:57:44Z</time>
      </trkpt>
      <trkpt lat="47.31355" lon="2.64713">
        <ele>332.2</ele>
        <time>2024-05-08T07:57:50Z</time>
      </trkpt>
      <trkpt lat="47.31365" lon="2.64697">
        <ele>332</ele>
        <time>2024-05-08T07:57:51Z</time>
      </trkpt>
      <trkpt lat="47.31402" lon="2.64638">
        <ele>331.2</ele>
        <time>2024-05-08T07:57:58Z</time>
      </trkpt>
      <trkpt lat="47.31424" lon="2.64605">
        <ele>331</ele>
        <time>2024-05-08T07:58:02Z</time>
      </trkpt>
      <trkpt lat="47.31435" lon="2.64589">
        <ele>330.8</ele>
        <time>2024-05-08T07:58:05Z</time>
      </trkpt>
      <trkpt lat="47.31449" lon="2.64576">
        <ele>330.8</ele>
        <time>2024-05-08T07:58:06Z</time>
      </trkpt>
      <trkpt lat="47.31465" lon="2.64567">
        <ele>330.6</ele>
        <time>2024-05-08T07:58:08Z</time>
      </trkpt>
      <trkpt lat="47.31481" lon="2.64564">
        <ele>330.4</ele>
        <time>2024-05-08T07:58:10Z</time>
      </trkpt>
      <trkpt lat="47.31481" lon="2.64564">
        <ele>329.8</ele>
        <time>2024-05-08T07:58:11Z</time>
      </trkpt>
      <trkpt lat="47.31506" lon="2.64564">
        <ele>329.2</ele>
        <time>2024-05-08T07:58:13Z</time>
      </trkpt>
      <trkpt lat="47.31523" lon="2.64563">
        <ele>328.8</ele>
        <time>2024-05-08T07:58:15Z</time>
      </trkpt>
      <trkpt lat="47.31556" lon="2.64557">
        <ele>327.8</ele>
        <time>2024-05-08T07:58:19Z</time>
      </trkpt>
      <trkpt lat="47.31564" lon="2.64554">
        <ele>327.4</ele>
        <time>2024-05-08T07:58:20Z</time>
      </trkpt>
      <trkpt lat="47.31593" lon="2.64537">
        <ele>326.6</ele>
        <time>2024-05-08T07:58:24Z</time>
      </trkpt>
      <trkpt lat="47.316" lon="2.6453">
        <ele>326.4</ele>
        <time>2024-05-08T07:58:25Z</time>
      </trkpt>
      <trkpt lat="47.316" lon="2.6453">
        <ele>326.4</ele>
        <time>2024-05-08T07:58:26Z</time>
      </trkpt>
      <trkpt lat="47.31618" lon="2.64507">
        <ele>326</ele>
        <time>2024-05-08T07:58:28Z</time>
      </trkpt>
      <trkpt lat="47.31633" lon="2.64479">
        <ele>325.6</ele>
        <time>2024-05-08T07:58:31Z</time>
      </trkpt>
      <trkpt lat="47.31639" lon="2.6447">
        <ele>325.2</ele>
        <time>2024-05-08T07:58:32Z</time>
      </trkpt>
      <trkpt lat="47.31657" lon="2.6443">
        <ele>324.2</ele>
        <time>2024-05-08T07:58:36Z</time>
      </trkpt>
      <trkpt lat="47.31665" lon="2.64408">
        <ele>323.4</ele>
        <time>2024-05-08T07:58:38Z</time>
      </trkpt>
      <trkpt lat="47.31671" lon="2.64384">
        <ele>323</ele>
        <time>2024-05-08T07:58:40Z</time>
      </trkpt>
      <trkpt lat="47.31681" lon="2.64348">
        <ele>321.8</ele>
        <time>2024-05-08T07:58:44Z</time>
      </trkpt>
      <trkpt lat="47.31702" lon="2.64273">
        <ele>320.6</ele>
        <time>2024-05-08T07:58:49Z</time>
      </trkpt>
      <trkpt lat="47.31709" lon="2.6425">
        <ele>319.4</ele>
        <time>2024-05-08T07:58:51Z</time>
      </trkpt>
      <trkpt lat="47.3172" lon="2.6421">
        <ele>318.4</ele>
        <time>2024-05-08T07:58:54Z</time>
      </trkpt>
      <trkpt lat="47.31737" lon="2.64151">
        <ele>317.2</ele>
        <time>2024-05-08T07:58:59Z</time>
      </trkpt>
      <trkpt lat="47.31749" lon="2.6411">
        <ele>315.8</ele>
        <time>2024-05-08T07:59:02Z</time>
      </trkpt>
      <trkpt lat="47.31754" lon="2.64087">
        <ele>315</ele>
        <time>2024-05-08T07:59:04Z</time>
      </trkpt>
      <trkpt lat="47.31761" lon="2.64061">
        <ele>314.4</ele>
        <time>2024-05-08T07:59:06Z</time>
      </trkpt>
      <trkpt lat="47.31773" lon="2.64023">
        <ele>313.4</ele>
        <time>2024-05-08T07:59:09Z</time>
      </trkpt>
      <trkpt lat="47.31783" lon="2.63997">
        <ele>312.8</ele>
        <time>2024-05-08T07:59:11Z</time>
      </trkpt>
      <trkpt lat="47.31793" lon="2.63978">
        <ele>312.2</ele>
        <time>2024-05-08T07:59:13Z</time>
      </trkpt>
      <trkpt lat="47.31806" lon="2.63958">
        <ele>311.8</ele>
        <time>2024-05-08T07:59:15Z</time>
      </trkpt>
      <trkpt lat="47.31813" lon="2.63951">
        <ele>311.4</ele>
        <time>2024-05-08T07:59:16Z</time>
      </trkpt>
      <trkpt lat="47.3182" lon="2.63944">
        <ele>311</ele>
        <time>2024-05-08T07:59:17Z</time>
      </trkpt>
      <trkpt lat="47.3185" lon="2.63922">
        <ele>310.4</ele>
        <time>2024-05-08T07:59:21Z</time>
      </trkpt>
      <trkpt lat="47.31862" lon="2.63915">
        <ele>310</ele>
        <time>2024-05-08T07:59:24Z</time>
      </trkpt>
      <trkpt lat="47.3189" lon="2.63898">
        <ele>310</ele>
        <time>2024-05-08T07:59:27Z</time>
      </trkpt>
      <trkpt lat="47.31938" lon="2.63869">
        <ele>309</ele>
        <time>2024-05-08T07:59:34Z</time>
      </trkpt>
      <trkpt lat="47.31955" lon="2.63858">
        <ele>309.2</ele>
        <time>2024-05-08T07:59:38Z</time>
      </trkpt>
      <trkpt lat="47.32005" lon="2.63827">
        <ele>308.6</ele>
        <time>2024-05-08T07:59:45Z</time>
      </trkpt>
      <trkpt lat="47.32037" lon="2.63807">
        <ele>308.2</ele>
        <time>2024-05-08T07:59:50Z</time>
      </trkpt>
      <trkpt lat="47.32086" lon="2.63773">
        <ele>307.4</ele>
        <time>2024-05-08T07:59:58Z</time>
      </trkpt>
      <trkpt lat="47.32111" lon="2.63759">
        <ele>307.2</ele>
        <time>2024-05-08T08:00:02Z</time>
      </trkpt>
      <trkpt lat="47.32123" lon="2.6375">
        <ele>307.2</ele>
        <time>2024-05-08T08:00:04Z</time>
      </trkpt>
      <trkpt lat="47.32137" lon="2.63741">
        <ele>307.2</ele>
        <time>2024-05-08T08:00:06Z</time>
      </trkpt>
      <trkpt lat="47.3218" lon="2.63709">
        <ele>306.8</ele>
        <time>2024-05-08T08:00:13Z</time>
      </trkpt>
      <trkpt lat="47.3223" lon="2.63672">
        <ele>306.2</ele>
        <time>2024-05-08T08:00:20Z</time>
      </trkpt>
      <trkpt lat="47.32237" lon="2.63668">
        <ele>306.2</ele>
        <time>2024-05-08T08:00:21Z</time>
      </trkpt>
      <trkpt lat="47.32267" lon="2.63649">
        <ele>305</ele>
        <time>2024-05-08T08:00:25Z</time>
      </trkpt>
      <trkpt lat="47.32303" lon="2.6363">
        <ele>304</ele>
        <time>2024-05-08T08:00:30Z</time>
      </trkpt>
      <trkpt lat="47.3231" lon="2.63626">
        <ele>303.8</ele>
        <time>2024-05-08T08:00:31Z</time>
      </trkpt>
      <trkpt lat="47.32341" lon="2.63609">
        <ele>303</ele>
        <time>2024-05-08T08:00:35Z</time>
      </trkpt>
      <trkpt lat="47.32362" lon="2.63597">
        <ele>302.2</ele>
        <time>2024-05-08T08:00:38Z</time>
      </trkpt>
      <trkpt lat="47.32369" lon="2.63594">
        <ele>301.8</ele>
        <time>2024-05-08T08:00:39Z</time>
      </trkpt>
      <trkpt lat="47.32378" lon="2.6359">
        <ele>301.6</ele>
        <time>2024-05-08T08:00:40Z</time>
      </trkpt>
      <trkpt lat="47.32409" lon="2.63579">
        <ele>300.8</ele>
        <time>2024-05-08T08:00:44Z</time>
      </trkpt>
      <trkpt lat="47.32449" lon="2.63571">
        <ele>300</ele>
        <time>2024-05-08T08:00:49Z</time>
      </trkpt>
      <trkpt lat="47.32466" lon="2.63567">
        <ele>299.4</ele>
        <time>2024-05-08T08:00:51Z</time>
      </trkpt>
      <trkpt lat="47.32496" lon="2.63561">
        <ele>298.4</ele>
        <time>2024-05-08T08:00:55Z</time>
      </trkpt>
      <trkpt lat="47.32504" lon="2.63558">
        <ele>298</ele>
        <time>2024-05-08T08:00:56Z</time>
      </trkpt>
      <trkpt lat="47.32547" lon="2.63542">
        <ele>297.4</ele>
        <time>2024-05-08T08:01:03Z</time>
      </trkpt>
      <trkpt lat="47.32559" lon="2.63536">
        <ele>297.4</ele>
        <time>2024-05-08T08:01:04Z</time>
      </trkpt>
      <trkpt lat="47.32588" lon="2.6352">
        <ele>297.6</ele>
        <time>2024-05-08T08:01:09Z</time>
      </trkpt>
      <trkpt lat="47.3264" lon="2.63492">
        <ele>297.8</ele>
        <time>2024-05-08T08:01:18Z</time>
      </trkpt>
      <trkpt lat="47.32683" lon="2.63478">
        <ele>298</ele>
        <time>2024-05-08T08:01:25Z</time>
      </trkpt>
      <trkpt lat="47.32732" lon="2.63473">
        <ele>298.2</ele>
        <time>2024-05-08T08:01:34Z</time>
      </trkpt>
      <trkpt lat="47.32745" lon="2.63472">
        <ele>298.2</ele>
        <time>2024-05-08T08:01:35Z</time>
      </trkpt>
      <trkpt lat="47.32805" lon="2.63467">
        <ele>298</ele>
        <time>2024-05-08T08:01:44Z</time>
      </trkpt>
      <trkpt lat="47.32817" lon="2.63466">
        <ele>297.8</ele>
        <time>2024-05-08T08:01:46Z</time>
      </trkpt>
      <trkpt lat="47.32866" lon="2.63467">
        <ele>297.4</ele>
        <time>2024-05-08T08:01:53Z</time>
      </trkpt>
      <trkpt lat="47.32918" lon="2.63473">
        <ele>296.2</ele>
        <time>2024-05-08T08:02:01Z</time>
      </trkpt>
      <trkpt lat="47.32918" lon="2.63473">
        <ele>296.2</ele>
        <time>2024-05-08T08:02:02Z</time>
      </trkpt>
      <trkpt lat="47.32975" lon="2.63479">
        <ele>295.4</ele>
        <time>2024-05-08T08:02:09Z</time>
      </trkpt>
      <trkpt lat="47.32983" lon="2.6348">
        <ele>295.2</ele>
        <time>2024-05-08T08:02:10Z</time>
      </trkpt>
      <trkpt lat="47.32991" lon="2.6348">
        <ele>295</ele>
        <time>2024-05-08T08:02:11Z</time>
      </trkpt>
      <trkpt lat="47.33021" lon="2.63476">
        <ele>294.2</ele>
        <time>2024-05-08T08:02:16Z</time>
      </trkpt>
      <trkpt lat="47.33036" lon="2.63471">
        <ele>294</ele>
        <time>2024-05-08T08:02:17Z</time>
      </trkpt>
      <trkpt lat="47.33065" lon="2.63455">
        <ele>294.2</ele>
        <time>2024-05-08T08:02:22Z</time>
      </trkpt>
      <trkpt lat="47.33087" lon="2.63436">
        <ele>295</ele>
        <time>2024-05-08T08:02:27Z</time>
      </trkpt>
      <trkpt lat="47.33094" lon="2.63429">
        <ele>295.6</ele>
        <time>2024-05-08T08:02:29Z</time>
      </trkpt>
      <trkpt lat="47.33106" lon="2.63415">
        <ele>296.2</ele>
        <time>2024-05-08T08:02:32Z</time>
      </trkpt>
      <trkpt lat="47.33106" lon="2.63415">
        <ele>296.6</ele>
        <time>2024-05-08T08:02:33Z</time>
      </trkpt>
      <trkpt lat="47.33111" lon="2.63406">
        <ele>297</ele>
        <time>2024-05-08T08:02:34Z</time>
      </trkpt>
      <trkpt lat="47.3312" lon="2.63393">
        <ele>297.6</ele>
        <time>2024-05-08T08:02:37Z</time>
      </trkpt>
      <trkpt lat="47.33136" lon="2.63371">
        <ele>298.8</ele>
        <time>2024-05-08T08:02:42Z</time>
      </trkpt>
      <trkpt lat="47.33139" lon="2.63367">
        <ele>299.4</ele>
        <time>2024-05-08T08:02:43Z</time>
      </trkpt>
      <trkpt lat="47.33148" lon="2.63353">
        <ele>300</ele>
        <time>2024-05-08T08:02:46Z</time>
      </trkpt>
      <trkpt lat="47.33151" lon="2.63349">
        <ele>300.2</ele>
        <time>2024-05-08T08:02:47Z</time>
      </trkpt>
      <trkpt lat="47.3316" lon="2.63336">
        <ele>301</ele>
        <time>2024-05-08T08:02:50Z</time>
      </trkpt>
      <trkpt lat="47.33166" lon="2.63327">
        <ele>301.6</ele>
        <time>2024-05-08T08:02:52Z</time>
      </trkpt>
      <trkpt lat="47.33175" lon="2.63315">
        <ele>302.4</ele>
        <time>2024-05-08T08:02:55Z</time>
      </trkpt>
      <trkpt lat="47.33192" lon="2.63292">
        <ele>303.8</ele>
        <time>2024-05-08T08:03:00Z</time>
      </trkpt>
      <trkpt lat="47.33199" lon="2.63282">
        <ele>304.2</ele>
        <time>2024-05-08T08:03:02Z</time>
      </trkpt>
      <trkpt lat="47.33209" lon="2.63268">
        <ele>304.8</ele>
        <time>2024-05-08T08:03:05Z</time>
      </trkpt>
      <trkpt lat="47.3323" lon="2.6324">
        <ele>306.2</ele>
        <time>2024-05-08T08:03:11Z</time>
      </trkpt>
      <trkpt lat="47.33256" lon="2.63204">
        <ele>307.4</ele>
        <time>2024-05-08T08:03:18Z</time>
      </trkpt>
      <trkpt lat="47.33264" lon="2.63194">
        <ele>307.6</ele>
        <time>2024-05-08T08:03:20Z</time>
      </trkpt>
      <trkpt lat="47.33296" lon="2.6315">
        <ele>307.8</ele>
        <time>2024-05-08T08:03:28Z</time>
      </trkpt>
      <trkpt lat="47.33324" lon="2.63111">
        <ele>307.4</ele>
        <time>2024-05-08T08:03:34Z</time>
      </trkpt>
      <trkpt lat="47.33356" lon="2.63065">
        <ele>306.8</ele>
        <time>2024-05-08T08:03:40Z</time>
      </trkpt>
      <trkpt lat="47.3338" lon="2.63033">
        <ele>306.2</ele>
        <time>2024-05-08T08:03:44Z</time>
      </trkpt>
      <trkpt lat="47.3341" lon="2.62991">
        <ele>305.4</ele>
        <time>2024-05-08T08:03:49Z</time>
      </trkpt>
      <trkpt lat="47.33417" lon="2.62982">
        <ele>305</ele>
        <time>2024-05-08T08:03:50Z</time>
      </trkpt>
      <trkpt lat="47.33429" lon="2.62965">
        <ele>303.8</ele>
        <time>2024-05-08T08:03:52Z</time>
      </trkpt>
      <trkpt lat="47.33458" lon="2.62925">
        <ele>303</ele>
        <time>2024-05-08T08:03:57Z</time>
      </trkpt>
      <trkpt lat="47.33481" lon="2.62894">
        <ele>303.4</ele>
        <time>2024-05-08T08:04:02Z</time>
      </trkpt>
      <trkpt lat="47.33501" lon="2.62866">
        <ele>305</ele>
        <time>2024-05-08T08:04:07Z</time>
      </trkpt>
      <trkpt lat="47.3352" lon="2.62837">
        <ele>306</ele>
        <time>2024-05-08T08:04:12Z</time>
      </trkpt>
      <trkpt lat="47.33528" lon="2.62827">
        <ele>306.4</ele>
        <time>2024-05-08T08:04:14Z</time>
      </trkpt>
      <trkpt lat="47.33548" lon="2.62799">
        <ele>307.2</ele>
        <time>2024-05-08T08:04:19Z</time>
      </trkpt>
      <trkpt lat="47.33569" lon="2.62769">
        <ele>307.6</ele>
        <time>2024-05-08T08:04:24Z</time>
      </trkpt>
      <trkpt lat="47.3361" lon="2.62712">
        <ele>307.8</ele>
        <time>2024-05-08T08:04:33Z</time>
      </trkpt>
      <trkpt lat="47.33655" lon="2.6265">
        <ele>306.6</ele>
        <time>2024-05-08T08:04:42Z</time>
      </trkpt>
      <trkpt lat="47.3366" lon="2.62643">
        <ele>306.6</ele>
        <time>2024-05-08T08:04:43Z</time>
      </trkpt>
      <trkpt lat="47.33682" lon="2.62612">
        <ele>305.8</ele>
        <time>2024-05-08T08:04:47Z</time>
      </trkpt>
      <trkpt lat="47.33704" lon="2.6258">
        <ele>304.8</ele>
        <time>2024-05-08T08:04:51Z</time>
      </trkpt>
      <trkpt lat="47.3371" lon="2.62571">
        <ele>304.4</ele>
        <time>2024-05-08T08:04:52Z</time>
      </trkpt>
      <trkpt lat="47.33729" lon="2.62546">
        <ele>303.6</ele>
        <time>2024-05-08T08:04:55Z</time>
      </trkpt>
      <trkpt lat="47.3375" lon="2.62523">
        <ele>302.6</ele>
        <time>2024-05-08T08:04:58Z</time>
      </trkpt>
      <trkpt lat="47.3375" lon="2.62523">
        <ele>302.4</ele>
        <time>2024-05-08T08:04:59Z</time>
      </trkpt>
      <trkpt lat="47.33766" lon="2.6251">
        <ele>302</ele>
        <time>2024-05-08T08:05:00Z</time>
      </trkpt>
      <trkpt lat="47.33775" lon="2.62505">
        <ele>301</ele>
        <time>2024-05-08T08:05:02Z</time>
      </trkpt>
      <trkpt lat="47.33792" lon="2.62496">
        <ele>300.8</ele>
        <time>2024-05-08T08:05:03Z</time>
      </trkpt>
      <trkpt lat="47.33801" lon="2.62492">
        <ele>299.8</ele>
        <time>2024-05-08T08:05:05Z</time>
      </trkpt>
      <trkpt lat="47.33819" lon="2.62487">
        <ele>299.6</ele>
        <time>2024-05-08T08:05:06Z</time>
      </trkpt>
      <trkpt lat="47.33838" lon="2.62485">
        <ele>299.2</ele>
        <time>2024-05-08T08:05:08Z</time>
      </trkpt>
      <trkpt lat="47.33847" lon="2.62485">
        <ele>298.8</ele>
        <time>2024-05-08T08:05:09Z</time>
      </trkpt>
      <trkpt lat="47.33883" lon="2.62486">
        <ele>297.6</ele>
        <time>2024-05-08T08:05:13Z</time>
      </trkpt>
      <trkpt lat="47.3391" lon="2.62487">
        <ele>296.6</ele>
        <time>2024-05-08T08:05:16Z</time>
      </trkpt>
      <trkpt lat="47.33922" lon="2.62486">
        <ele>296.2</ele>
        <time>2024-05-08T08:05:17Z</time>
      </trkpt>
      <trkpt lat="47.33929" lon="2.62484">
        <ele>296</ele>
        <time>2024-05-08T08:05:18Z</time>
      </trkpt>
      <trkpt lat="47.33948" lon="2.62476">
        <ele>295</ele>
        <time>2024-05-08T08:05:20Z</time>
      </trkpt>
      <trkpt lat="47.33963" lon="2.62462">
        <ele>294.2</ele>
        <time>2024-05-08T08:05:22Z</time>
      </trkpt>
      <trkpt lat="47.33969" lon="2.62453">
        <ele>293.8</ele>
        <time>2024-05-08T08:05:23Z</time>
      </trkpt>
      <trkpt lat="47.33978" lon="2.62436">
        <ele>293.6</ele>
        <time>2024-05-08T08:05:25Z</time>
      </trkpt>
      <trkpt lat="47.33981" lon="2.62428">
        <ele>293.6</ele>
        <time>2024-05-08T08:05:26Z</time>
      </trkpt>
      <trkpt lat="47.33992" lon="2.62394">
        <ele>294.8</ele>
        <time>2024-05-08T08:05:31Z</time>
      </trkpt>
      <trkpt lat="47.33993" lon="2.62389">
        <ele>295.4</ele>
        <time>2024-05-08T08:05:32Z</time>
      </trkpt>
      <trkpt lat="47.33996" lon="2.62376">
        <ele>296.4</ele>
        <time>2024-05-08T08:05:34Z</time>
      </trkpt>
      <trkpt lat="47.34001" lon="2.62358">
        <ele>297.6</ele>
        <time>2024-05-08T08:05:37Z</time>
      </trkpt>
      <trkpt lat="47.34005" lon="2.62347">
        <ele>298.6</ele>
        <time>2024-05-08T08:05:39Z</time>
      </trkpt>
      <trkpt lat="47.34008" lon="2.62341">
        <ele>298.8</ele>
        <time>2024-05-08T08:05:40Z</time>
      </trkpt>
      <trkpt lat="47.34013" lon="2.62334">
        <ele>299.4</ele>
        <time>2024-05-08T08:05:42Z</time>
      </trkpt>
      <trkpt lat="47.34016" lon="2.6233">
        <ele>299.8</ele>
        <time>2024-05-08T08:05:44Z</time>
      </trkpt>
      <trkpt lat="47.34022" lon="2.62324">
        <ele>300</ele>
        <time>2024-05-08T08:05:45Z</time>
      </trkpt>
      <trkpt lat="47.34025" lon="2.62321">
        <ele>300.2</ele>
        <time>2024-05-08T08:05:46Z</time>
      </trkpt>
      <trkpt lat="47.34035" lon="2.62312">
        <ele>301.2</ele>
        <time>2024-05-08T08:05:49Z</time>
      </trkpt>
      <trkpt lat="47.34044" lon="2.62306">
        <ele>301.6</ele>
        <time>2024-05-08T08:05:52Z</time>
      </trkpt>
      <trkpt lat="47.34053" lon="2.623">
        <ele>302.2</ele>
        <time>2024-05-08T08:05:55Z</time>
      </trkpt>
      <trkpt lat="47.34066" lon="2.62294">
        <ele>303.4</ele>
        <time>2024-05-08T08:06:00Z</time>
      </trkpt>
      <trkpt lat="47.34086" lon="2.62285">
        <ele>304.6</ele>
        <time>2024-05-08T08:06:05Z</time>
      </trkpt>
      <trkpt lat="47.34099" lon="2.62277">
        <ele>305.2</ele>
        <time>2024-05-08T08:06:09Z</time>
      </trkpt>
      <trkpt lat="47.34102" lon="2.62275">
        <ele>305.6</ele>
        <time>2024-05-08T08:06:10Z</time>
      </trkpt>
      <trkpt lat="47.34109" lon="2.62264">
        <ele>307</ele>
        <time>2024-05-08T08:06:13Z</time>
      </trkpt>
      <trkpt lat="47.34111" lon="2.6226">
        <ele>307.2</ele>
        <time>2024-05-08T08:06:14Z</time>
      </trkpt>
      <trkpt lat="47.34113" lon="2.62246">
        <ele>308.2</ele>
        <time>2024-05-08T08:06:17Z</time>
      </trkpt>
      <trkpt lat="47.34114" lon="2.62235">
        <ele>308.6</ele>
        <time>2024-05-08T08:06:19Z</time>
      </trkpt>
      <trkpt lat="47.34114" lon="2.62223">
        <ele>309.2</ele>
        <time>2024-05-08T08:06:21Z</time>
      </trkpt>
      <trkpt lat="47.34115" lon="2.62195">
        <ele>310.2</ele>
        <time>2024-05-08T08:06:27Z</time>
      </trkpt>
      <trkpt lat="47.34115" lon="2.62182">
        <ele>310.4</ele>
        <time>2024-05-08T08:06:28Z</time>
      </trkpt>
      <trkpt lat="47.34113" lon="2.62155">
        <ele>311</ele>
        <time>2024-05-08T08:06:32Z</time>
      </trkpt>
      <trkpt lat="47.34112" lon="2.62135">
        <ele>311.4</ele>
        <time>2024-05-08T08:06:35Z</time>
      </trkpt>
      <trkpt lat="47.34112" lon="2.62129">
        <ele>311.4</ele>
        <time>2024-05-08T08:06:36Z</time>
      </trkpt>
      <trkpt lat="47.34112" lon="2.62114">
        <ele>311.6</ele>
        <time>2024-05-08T08:06:38Z</time>
      </trkpt>
      <trkpt lat="47.34114" lon="2.62073">
        <ele>311.8</ele>
        <time>2024-05-08T08:06:43Z</time>
      </trkpt>
      <trkpt lat="47.3412" lon="2.62032">
        <ele>311.8</ele>
        <time>2024-05-08T08:06:48Z</time>
      </trkpt>
      <trkpt lat="47.34124" lon="2.62017">
        <ele>312</ele>
        <time>2024-05-08T08:06:50Z</time>
      </trkpt>
      <trkpt lat="47.34128" lon="2.62003">
        <ele>312</ele>
        <time>2024-05-08T08:06:52Z</time>
      </trkpt>
      <trkpt lat="47.34138" lon="2.61975">
        <ele>312.2</ele>
        <time>2024-05-08T08:06:56Z</time>
      </trkpt>
      <trkpt lat="47.34145" lon="2.61954">
        <ele>312.4</ele>
        <time>2024-05-08T08:06:59Z</time>
      </trkpt>
      <trkpt lat="47.34153" lon="2.61926">
        <ele>312.8</ele>
        <time>2024-05-08T08:07:03Z</time>
      </trkpt>
      <trkpt lat="47.34165" lon="2.61875">
        <ele>313</ele>
        <time>2024-05-08T08:07:10Z</time>
      </trkpt>
      <trkpt lat="47.34168" lon="2.61857">
        <ele>312.8</ele>
        <time>2024-05-08T08:07:12Z</time>
      </trkpt>
      <trkpt lat="47.34171" lon="2.61829">
        <ele>312.8</ele>
        <time>2024-05-08T08:07:15Z</time>
      </trkpt>
      <trkpt lat="47.34174" lon="2.61775">
        <ele>312</ele>
        <time>2024-05-08T08:07:21Z</time>
      </trkpt>
      <trkpt lat="47.34181" lon="2.61699">
        <ele>311.6</ele>
        <time>2024-05-08T08:07:29Z</time>
      </trkpt>
      <trkpt lat="47.34181" lon="2.6167">
        <ele>311.4</ele>
        <time>2024-05-08T08:07:32Z</time>
      </trkpt>
      <trkpt lat="47.3418" lon="2.61661">
        <ele>311.4</ele>
        <time>2024-05-08T08:07:33Z</time>
      </trkpt>
      <trkpt lat="47.3418" lon="2.61652">
        <ele>311.4</ele>
        <time>2024-05-08T08:07:34Z</time>
      </trkpt>
      <trkpt lat="47.3418" lon="2.61643">
        <ele>311.6</ele>
        <time>2024-05-08T08:07:35Z</time>
      </trkpt>
      <trkpt lat="47.34182" lon="2.61595">
        <ele>311.6</ele>
        <time>2024-05-08T08:07:40Z</time>
      </trkpt>
      <trkpt lat="47.34179" lon="2.61531">
        <ele>311.6</ele>
        <time>2024-05-08T08:07:47Z</time>
      </trkpt>
      <trkpt lat="47.34172" lon="2.61458">
        <ele>311.2</ele>
        <time>2024-05-08T08:07:55Z</time>
      </trkpt>
      <trkpt lat="47.34173" lon="2.61412">
        <ele>311</ele>
        <time>2024-05-08T08:08:00Z</time>
      </trkpt>
      <trkpt lat="47.34174" lon="2.61403">
        <ele>311</ele>
        <time>2024-05-08T08:08:01Z</time>
      </trkpt>
      <trkpt lat="47.34177" lon="2.61392">
        <ele>310.8</ele>
        <time>2024-05-08T08:08:02Z</time>
      </trkpt>
      <trkpt lat="47.34187" lon="2.6136">
        <ele>310.8</ele>
        <time>2024-05-08T08:08:06Z</time>
      </trkpt>
      <trkpt lat="47.3419" lon="2.61354">
        <ele>310.8</ele>
        <time>2024-05-08T08:08:07Z</time>
      </trkpt>
      <trkpt lat="47.34198" lon="2.61341">
        <ele>310.8</ele>
        <time>2024-05-08T08:08:09Z</time>
      </trkpt>
      <trkpt lat="47.34201" lon="2.61335">
        <ele>310.8</ele>
        <time>2024-05-08T08:08:10Z</time>
      </trkpt>
      <trkpt lat="47.34203" lon="2.61328">
        <ele>311</ele>
        <time>2024-05-08T08:08:11Z</time>
      </trkpt>
      <trkpt lat="47.34209" lon="2.6132">
        <ele>311</ele>
        <time>2024-05-08T08:08:13Z</time>
      </trkpt>
      <trkpt lat="47.34213" lon="2.61316">
        <ele>311</ele>
        <time>2024-05-08T08:08:14Z</time>
      </trkpt>
      <trkpt lat="47.34228" lon="2.613">
        <ele>311</ele>
        <time>2024-05-08T08:08:17Z</time>
      </trkpt>
      <trkpt lat="47.34242" lon="2.61273">
        <ele>311</ele>
        <time>2024-05-08T08:08:20Z</time>
      </trkpt>
      <trkpt lat="47.34255" lon="2.61235">
        <ele>310.8</ele>
        <time>2024-05-08T08:08:23Z</time>
      </trkpt>
      <trkpt lat="47.34263" lon="2.61196">
        <ele>310</ele>
        <time>2024-05-08T08:08:26Z</time>
      </trkpt>
      <trkpt lat="47.3427" lon="2.6117">
        <ele>309.4</ele>
        <time>2024-05-08T08:08:28Z</time>
      </trkpt>
      <trkpt lat="47.34275" lon="2.61159">
        <ele>309</ele>
        <time>2024-05-08T08:08:29Z</time>
      </trkpt>
      <trkpt lat="47.3429" lon="2.61122">
        <ele>307.8</ele>
        <time>2024-05-08T08:08:32Z</time>
      </trkpt>
      <trkpt lat="47.34297" lon="2.61111">
        <ele>306.8</ele>
        <time>2024-05-08T08:08:33Z</time>
      </trkpt>
      <trkpt lat="47.34305" lon="2.61102">
        <ele>306</ele>
        <time>2024-05-08T08:08:34Z</time>
      </trkpt>
      <trkpt lat="47.34321" lon="2.61086">
        <ele>305.2</ele>
        <time>2024-05-08T08:08:36Z</time>
      </trkpt>
      <trkpt lat="47.3433" lon="2.6108">
        <ele>304.8</ele>
        <time>2024-05-08T08:08:37Z</time>
      </trkpt>
      <trkpt lat="47.34366" lon="2.61062">
        <ele>302.8</ele>
        <time>2024-05-08T08:08:41Z</time>
      </trkpt>
      <trkpt lat="47.34384" lon="2.61054">
        <ele>301.2</ele>
        <time>2024-05-08T08:08:43Z</time>
      </trkpt>
      <trkpt lat="47.34412" lon="2.61042">
        <ele>299.6</ele>
        <time>2024-05-08T08:08:46Z</time>
      </trkpt>
      <trkpt lat="47.3444" lon="2.6103">
        <ele>298.6</ele>
        <time>2024-05-08T08:08:49Z</time>
      </trkpt>
      <trkpt lat="47.3446" lon="2.61022">
        <ele>297.4</ele>
        <time>2024-05-08T08:08:51Z</time>
      </trkpt>
      <trkpt lat="47.34491" lon="2.6101">
        <ele>296.2</ele>
        <time>2024-05-08T08:08:54Z</time>
      </trkpt>
      <trkpt lat="47.34508" lon="2.61003">
        <ele>295</ele>
        <time>2024-05-08T08:08:56Z</time>
      </trkpt>
      <trkpt lat="47.34546" lon="2.60988">
        <ele>293.6</ele>
        <time>2024-05-08T08:09:00Z</time>
      </trkpt>
      <trkpt lat="47.34556" lon="2.60984">
        <ele>293.4</ele>
        <time>2024-05-08T08:09:01Z</time>
      </trkpt>
      <trkpt lat="47.34575" lon="2.60975">
        <ele>292</ele>
        <time>2024-05-08T08:09:03Z</time>
      </trkpt>
      <trkpt lat="47.34603" lon="2.60958">
        <ele>291</ele>
        <time>2024-05-08T08:09:06Z</time>
      </trkpt>
      <trkpt lat="47.34612" lon="2.60951">
        <ele>290</ele>
        <time>2024-05-08T08:09:07Z</time>
      </trkpt>
      <trkpt lat="47.34622" lon="2.60942">
        <ele>289.2</ele>
        <time>2024-05-08T08:09:08Z</time>
      </trkpt>
      <trkpt lat="47.34644" lon="2.60916">
        <ele>288.4</ele>
        <time>2024-05-08T08:09:11Z</time>
      </trkpt>
      <trkpt lat="47.3465" lon="2.60905">
        <ele>287.6</ele>
        <time>2024-05-08T08:09:12Z</time>
      </trkpt>
      <trkpt lat="47.34662" lon="2.60882">
        <ele>286.8</ele>
        <time>2024-05-08T08:09:14Z</time>
      </trkpt>
      <trkpt lat="47.34667" lon="2.60871">
        <ele>286.4</ele>
        <time>2024-05-08T08:09:15Z</time>
      </trkpt>
      <trkpt lat="47.3467" lon="2.60859">
        <ele>286</ele>
        <time>2024-05-08T08:09:16Z</time>
      </trkpt>
      <trkpt lat="47.34681" lon="2.60815">
        <ele>285.2</ele>
        <time>2024-05-08T08:09:20Z</time>
      </trkpt>
      <trkpt lat="47.34682" lon="2.60805">
        <ele>285.2</ele>
        <time>2024-05-08T08:09:21Z</time>
      </trkpt>
      <trkpt lat="47.34694" lon="2.60751">
        <ele>286</ele>
        <time>2024-05-08T08:09:27Z</time>
      </trkpt>
      <trkpt lat="47.34697" lon="2.60735">
        <ele>286.4</ele>
        <time>2024-05-08T08:09:29Z</time>
      </trkpt>
      <trkpt lat="47.34703" lon="2.60706">
        <ele>287</ele>
        <time>2024-05-08T08:09:33Z</time>
      </trkpt>
      <trkpt lat="47.34706" lon="2.60683">
        <ele>287.8</ele>
        <time>2024-05-08T08:09:36Z</time>
      </trkpt>
      <trkpt lat="47.34707" lon="2.60678">
        <ele>288.2</ele>
        <time>2024-05-08T08:09:37Z</time>
      </trkpt>
      <trkpt lat="47.34708" lon="2.60672">
        <ele>288.4</ele>
        <time>2024-05-08T08:09:38Z</time>
      </trkpt>
      <trkpt lat="47.34709" lon="2.60664">
        <ele>288.6</ele>
        <time>2024-05-08T08:09:39Z</time>
      </trkpt>
      <trkpt lat="47.34712" lon="2.6065">
        <ele>288.8</ele>
        <time>2024-05-08T08:09:41Z</time>
      </trkpt>
      <trkpt lat="47.34718" lon="2.60631">
        <ele>289.8</ele>
        <time>2024-05-08T08:09:44Z</time>
      </trkpt>
      <trkpt lat="47.3472" lon="2.60625">
        <ele>290</ele>
        <time>2024-05-08T08:09:45Z</time>
      </trkpt>
      <trkpt lat="47.34722" lon="2.60619">
        <ele>290.2</ele>
        <time>2024-05-08T08:09:46Z</time>
      </trkpt>
      <trkpt lat="47.34725" lon="2.60606">
        <ele>290.6</ele>
        <time>2024-05-08T08:09:48Z</time>
      </trkpt>
      <trkpt lat="47.34728" lon="2.60601">
        <ele>290.8</ele>
        <time>2024-05-08T08:09:49Z</time>
      </trkpt>
      <trkpt lat="47.3473" lon="2.60594">
        <ele>291</ele>
        <time>2024-05-08T08:09:50Z</time>
      </trkpt>
      <trkpt lat="47.34733" lon="2.60589">
        <ele>291</ele>
        <time>2024-05-08T08:09:51Z</time>
      </trkpt>
      <trkpt lat="47.34735" lon="2.60584">
        <ele>291.2</ele>
        <time>2024-05-08T08:09:52Z</time>
      </trkpt>
      <trkpt lat="47.34737" lon="2.6058">
        <ele>291.4</ele>
        <time>2024-05-08T08:09:53Z</time>
      </trkpt>
      <trkpt lat="47.3474" lon="2.60575">
        <ele>291.6</ele>
        <time>2024-05-08T08:09:54Z</time>
      </trkpt>
      <trkpt lat="47.34741" lon="2.6056">
        <ele>291.8</ele>
        <time>2024-05-08T08:09:56Z</time>
      </trkpt>
      <trkpt lat="47.34743" lon="2.60554">
        <ele>291.8</ele>
        <time>2024-05-08T08:09:57Z</time>
      </trkpt>
      <trkpt lat="47.34743" lon="2.60545">
        <ele>292.2</ele>
        <time>2024-05-08T08:09:58Z</time>
      </trkpt>
      <trkpt lat="47.34743" lon="2.60531">
        <ele>292.6</ele>
        <time>2024-05-08T08:10:00Z</time>
      </trkpt>
      <trkpt lat="47.34745" lon="2.60517">
        <ele>293</ele>
        <time>2024-05-08T08:10:02Z</time>
      </trkpt>
      <trkpt lat="47.34747" lon="2.60504">
        <ele>293.6</ele>
        <time>2024-05-08T08:10:04Z</time>
      </trkpt>
      <trkpt lat="47.3475" lon="2.60482">
        <ele>294</ele>
        <time>2024-05-08T08:10:07Z</time>
      </trkpt>
      <trkpt lat="47.34755" lon="2.6046">
        <ele>294.8</ele>
        <time>2024-05-08T08:10:10Z</time>
      </trkpt>
      <trkpt lat="47.34758" lon="2.60444">
        <ele>295</ele>
        <time>2024-05-08T08:10:12Z</time>
      </trkpt>
      <trkpt lat="47.34765" lon="2.60417">
        <ele>295.6</ele>
        <time>2024-05-08T08:10:16Z</time>
      </trkpt>
      <trkpt lat="47.3477" lon="2.60396">
        <ele>296</ele>
        <time>2024-05-08T08:10:19Z</time>
      </trkpt>
      <trkpt lat="47.34771" lon="2.60389">
        <ele>296.2</ele>
        <time>2024-05-08T08:10:20Z</time>
      </trkpt>
      <trkpt lat="47.34774" lon="2.60376">
        <ele>296.6</ele>
        <time>2024-05-08T08:10:22Z</time>
      </trkpt>
      <trkpt lat="47.34776" lon="2.6037">
        <ele>297</ele>
        <time>2024-05-08T08:10:23Z</time>
      </trkpt>
      <trkpt lat="47.34783" lon="2.60347">
        <ele>297.8</ele>
        <time>2024-05-08T08:10:27Z</time>
      </trkpt>
      <trkpt lat="47.34787" lon="2.60334">
        <ele>298</ele>
        <time>2024-05-08T08:10:29Z</time>
      </trkpt>
      <trkpt lat="47.34795" lon="2.60303">
        <ele>299.2</ele>
        <time>2024-05-08T08:10:34Z</time>
      </trkpt>
      <trkpt lat="47.34801" lon="2.60278">
        <ele>300.4</ele>
        <time>2024-05-08T08:10:38Z</time>
      </trkpt>
      <trkpt lat="47.34802" lon="2.60272">
        <ele>300.4</ele>
        <time>2024-05-08T08:10:39Z</time>
      </trkpt>
      <trkpt lat="47.34804" lon="2.60265">
        <ele>300.6</ele>
        <time>2024-05-08T08:10:40Z</time>
      </trkpt>
      <trkpt lat="47.34806" lon="2.60252">
        <ele>300.8</ele>
        <time>2024-05-08T08:10:42Z</time>
      </trkpt>
      <trkpt lat="47.3481" lon="2.60235">
        <ele>301.6</ele>
        <time>2024-05-08T08:10:45Z</time>
      </trkpt>
      <trkpt lat="47.34814" lon="2.602">
        <ele>302.4</ele>
        <time>2024-05-08T08:10:50Z</time>
      </trkpt>
      <trkpt lat="47.34814" lon="2.60183">
        <ele>302.8</ele>
        <time>2024-05-08T08:10:52Z</time>
      </trkpt>
      <trkpt lat="47.34815" lon="2.60169">
        <ele>303.4</ele>
        <time>2024-05-08T08:10:54Z</time>
      </trkpt>
      <trkpt lat="47.34818" lon="2.60156">
        <ele>303.8</ele>
        <time>2024-05-08T08:10:56Z</time>
      </trkpt>
      <trkpt lat="47.34819" lon="2.60149">
        <ele>304</ele>
        <time>2024-05-08T08:10:57Z</time>
      </trkpt>
      <trkpt lat="47.34826" lon="2.60127">
        <ele>305</ele>
        <time>2024-05-08T08:11:01Z</time>
      </trkpt>
      <trkpt lat="47.34833" lon="2.60105">
        <ele>305.6</ele>
        <time>2024-05-08T08:11:05Z</time>
      </trkpt>
      <trkpt lat="47.34835" lon="2.60099">
        <ele>306</ele>
        <time>2024-05-08T08:11:06Z</time>
      </trkpt>
      <trkpt lat="47.34841" lon="2.60069">
        <ele>307</ele>
        <time>2024-05-08T08:11:11Z</time>
      </trkpt>
      <trkpt lat="47.34842" lon="2.60063">
        <ele>307.2</ele>
        <time>2024-05-08T08:11:12Z</time>
      </trkpt>
      <trkpt lat="47.34846" lon="2.60036">
        <ele>308.2</ele>
        <time>2024-05-08T08:11:16Z</time>
      </trkpt>
      <trkpt lat="47.34848" lon="2.60024">
        <ele>308.6</ele>
        <time>2024-05-08T08:11:18Z</time>
      </trkpt>
      <trkpt lat="47.34852" lon="2.60004">
        <ele>309.2</ele>
        <time>2024-05-08T08:11:21Z</time>
      </trkpt>
      <trkpt lat="47.34857" lon="2.59975">
        <ele>310</ele>
        <time>2024-05-08T08:11:25Z</time>
      </trkpt>
      <trkpt lat="47.34861" lon="2.59954">
        <ele>310.4</ele>
        <time>2024-05-08T08:11:28Z</time>
      </trkpt>
      <trkpt lat="47.3487" lon="2.59911">
        <ele>311.6</ele>
        <time>2024-05-08T08:11:34Z</time>
      </trkpt>
      <trkpt lat="47.34878" lon="2.59876">
        <ele>312.6</ele>
        <time>2024-05-08T08:11:39Z</time>
      </trkpt>
      <trkpt lat="47.34883" lon="2.59856">
        <ele>312.8</ele>
        <time>2024-05-08T08:11:42Z</time>
      </trkpt>
      <trkpt lat="47.34897" lon="2.59812">
        <ele>313.6</ele>
        <time>2024-05-08T08:11:49Z</time>
      </trkpt>
      <trkpt lat="47.34901" lon="2.59799">
        <ele>314.2</ele>
        <time>2024-05-08T08:11:51Z</time>
      </trkpt>
      <trkpt lat="47.34908" lon="2.59779">
        <ele>314.6</ele>
        <time>2024-05-08T08:11:54Z</time>
      </trkpt>
      <trkpt lat="47.3492" lon="2.59736">
        <ele>315.2</ele>
        <time>2024-05-08T08:12:00Z</time>
      </trkpt>
      <trkpt lat="47.34926" lon="2.59716">
        <ele>315.2</ele>
        <time>2024-05-08T08:12:03Z</time>
      </trkpt>
      <trkpt lat="47.34932" lon="2.59701">
        <ele>314.8</ele>
        <time>2024-05-08T08:12:05Z</time>
      </trkpt>
      <trkpt lat="47.34942" lon="2.5967">
        <ele>314.6</ele>
        <time>2024-05-08T08:12:09Z</time>
      </trkpt>
      <trkpt lat="47.34945" lon="2.5965">
        <ele>314.4</ele>
        <time>2024-05-08T08:12:11Z</time>
      </trkpt>
      <trkpt lat="47.34948" lon="2.5964">
        <ele>314.4</ele>
        <time>2024-05-08T08:12:12Z</time>
      </trkpt>
      <trkpt lat="47.34957" lon="2.59612">
        <ele>314</ele>
        <time>2024-05-08T08:12:15Z</time>
      </trkpt>
      <trkpt lat="47.34963" lon="2.59594">
        <ele>313.6</ele>
        <time>2024-05-08T08:12:17Z</time>
      </trkpt>
      <trkpt lat="47.34986" lon="2.59523">
        <ele>312.6</ele>
        <time>2024-05-08T08:12:24Z</time>
      </trkpt>
      <trkpt lat="47.34989" lon="2.59512">
        <ele>312.4</ele>
        <time>2024-05-08T08:12:25Z</time>
      </trkpt>
      <trkpt lat="47.34999" lon="2.5948">
        <ele>311.2</ele>
        <time>2024-05-08T08:12:28Z</time>
      </trkpt>
      <trkpt lat="47.35012" lon="2.59438">
        <ele>310.2</ele>
        <time>2024-05-08T08:12:32Z</time>
      </trkpt>
      <trkpt lat="47.35015" lon="2.59427">
        <ele>309.8</ele>
        <time>2024-05-08T08:12:33Z</time>
      </trkpt>
      <trkpt lat="47.35026" lon="2.59396">
        <ele>308.8</ele>
        <time>2024-05-08T08:12:36Z</time>
      </trkpt>
      <trkpt lat="47.3504" lon="2.59367">
        <ele>308</ele>
        <time>2024-05-08T08:12:39Z</time>
      </trkpt>
      <trkpt lat="47.35051" lon="2.59348">
        <ele>307.6</ele>
        <time>2024-05-08T08:12:41Z</time>
      </trkpt>
      <trkpt lat="47.35076" lon="2.59313">
        <ele>306.6</ele>
        <time>2024-05-08T08:12:45Z</time>
      </trkpt>
      <trkpt lat="47.35083" lon="2.59304">
        <ele>306</ele>
        <time>2024-05-08T08:12:46Z</time>
      </trkpt>
      <trkpt lat="47.35102" lon="2.59277">
        <ele>305</ele>
        <time>2024-05-08T08:12:49Z</time>
      </trkpt>
      <trkpt lat="47.35129" lon="2.59245">
        <ele>303.8</ele>
        <time>2024-05-08T08:12:53Z</time>
      </trkpt>
      <trkpt lat="47.35148" lon="2.59224">
        <ele>302.4</ele>
        <time>2024-05-08T08:12:56Z</time>
      </trkpt>
      <trkpt lat="47.35163" lon="2.59205">
        <ele>300.6</ele>
        <time>2024-05-08T08:12:59Z</time>
      </trkpt>
      <trkpt lat="47.35169" lon="2.59199">
        <ele>300.4</ele>
        <time>2024-05-08T08:13:00Z</time>
      </trkpt>
      <trkpt lat="47.35179" lon="2.59187">
        <ele>299.4</ele>
        <time>2024-05-08T08:13:02Z</time>
      </trkpt>
      <trkpt lat="47.35184" lon="2.59181">
        <ele>298.8</ele>
        <time>2024-05-08T08:13:03Z</time>
      </trkpt>
      <trkpt lat="47.35189" lon="2.59177">
        <ele>298.2</ele>
        <time>2024-05-08T08:13:04Z</time>
      </trkpt>
      <trkpt lat="47.35199" lon="2.59169">
        <ele>297.2</ele>
        <time>2024-05-08T08:13:06Z</time>
      </trkpt>
      <trkpt lat="47.35203" lon="2.59167">
        <ele>296.8</ele>
        <time>2024-05-08T08:13:07Z</time>
      </trkpt>
      <trkpt lat="47.35206" lon="2.59165">
        <ele>296.4</ele>
        <time>2024-05-08T08:13:08Z</time>
      </trkpt>
      <trkpt lat="47.35211" lon="2.59162">
        <ele>295.6</ele>
        <time>2024-05-08T08:13:11Z</time>
      </trkpt>
      <trkpt lat="47.35212" lon="2.59159">
        <ele>295.4</ele>
        <time>2024-05-08T08:13:12Z</time>
      </trkpt>
      <trkpt lat="47.35211" lon="2.5915">
        <ele>294.6</ele>
        <time>2024-05-08T08:13:14Z</time>
      </trkpt>
      <trkpt lat="47.35208" lon="2.59137">
        <ele>294.4</ele>
        <time>2024-05-08T08:13:16Z</time>
      </trkpt>
      <trkpt lat="47.35206" lon="2.59117">
        <ele>294</ele>
        <time>2024-05-08T08:13:19Z</time>
      </trkpt>
      <trkpt lat="47.35204" lon="2.59104">
        <ele>293.8</ele>
        <time>2024-05-08T08:13:21Z</time>
      </trkpt>
      <trkpt lat="47.35202" lon="2.59092">
        <ele>293.6</ele>
        <time>2024-05-08T08:13:23Z</time>
      </trkpt>
      <trkpt lat="47.35203" lon="2.59088">
        <ele>293.4</ele>
        <time>2024-05-08T08:13:24Z</time>
      </trkpt>
      <trkpt lat="47.35206" lon="2.59086">
        <ele>293.4</ele>
        <time>2024-05-08T08:13:25Z</time>
      </trkpt>
      <trkpt lat="47.35218" lon="2.59085">
        <ele>293</ele>
        <time>2024-05-08T08:13:28Z</time>
      </trkpt>
      <trkpt lat="47.35226" lon="2.59084">
        <ele>293</ele>
        <time>2024-05-08T08:13:30Z</time>
      </trkpt>
      <trkpt lat="47.35232" lon="2.59084">
        <ele>293</ele>
        <time>2024-05-08T08:13:31Z</time>
      </trkpt>
      <trkpt lat="47.35241" lon="2.59083">
        <ele>292.8</ele>
        <time>2024-05-08T08:13:33Z</time>
      </trkpt>
      <trkpt lat="47.35246" lon="2.59081">
        <ele>292.8</ele>
        <time>2024-05-08T08:13:34Z</time>
      </trkpt>
      <trkpt lat="47.35261" lon="2.59077">
        <ele>292.8</ele>
        <time>2024-05-08T08:13:37Z</time>
      </trkpt>
      <trkpt lat="47.35278" lon="2.59071">
        <ele>292.8</ele>
        <time>2024-05-08T08:13:40Z</time>
      </trkpt>
      <trkpt lat="47.35288" lon="2.59065">
        <ele>293</ele>
        <time>2024-05-08T08:13:42Z</time>
      </trkpt>
      <trkpt lat="47.35292" lon="2.59062">
        <ele>293</ele>
        <time>2024-05-08T08:13:43Z</time>
      </trkpt>
      <trkpt lat="47.35315" lon="2.59046">
        <ele>294.2</ele>
        <time>2024-05-08T08:13:48Z</time>
      </trkpt>
      <trkpt lat="47.35324" lon="2.59041">
        <ele>294.4</ele>
        <time>2024-05-08T08:13:50Z</time>
      </trkpt>
      <trkpt lat="47.35329" lon="2.59039">
        <ele>294.6</ele>
        <time>2024-05-08T08:13:51Z</time>
      </trkpt>
      <trkpt lat="47.35334" lon="2.59038">
        <ele>294.8</ele>
        <time>2024-05-08T08:13:52Z</time>
      </trkpt>
      <trkpt lat="47.35347" lon="2.59035">
        <ele>295.8</ele>
        <time>2024-05-08T08:13:55Z</time>
      </trkpt>
      <trkpt lat="47.35362" lon="2.59029">
        <ele>296.6</ele>
        <time>2024-05-08T08:13:58Z</time>
      </trkpt>
      <trkpt lat="47.35371" lon="2.59024">
        <ele>297</ele>
        <time>2024-05-08T08:14:00Z</time>
      </trkpt>
      <trkpt lat="47.35376" lon="2.59021">
        <ele>297.2</ele>
        <time>2024-05-08T08:14:01Z</time>
      </trkpt>
      <trkpt lat="47.35391" lon="2.59015">
        <ele>298.2</ele>
        <time>2024-05-08T08:14:05Z</time>
      </trkpt>
      <trkpt lat="47.354" lon="2.59013">
        <ele>298.2</ele>
        <time>2024-05-08T08:14:06Z</time>
      </trkpt>
      <trkpt lat="47.35405" lon="2.59012">
        <ele>298.6</ele>
        <time>2024-05-08T08:14:07Z</time>
      </trkpt>
      <trkpt lat="47.3541" lon="2.5901">
        <ele>298.8</ele>
        <time>2024-05-08T08:14:08Z</time>
      </trkpt>
      <trkpt lat="47.35419" lon="2.59006">
        <ele>299.4</ele>
        <time>2024-05-08T08:14:10Z</time>
      </trkpt>
      <trkpt lat="47.35434" lon="2.59">
        <ele>299.6</ele>
        <time>2024-05-08T08:14:13Z</time>
      </trkpt>
      <trkpt lat="47.3546" lon="2.58995">
        <ele>300.4</ele>
        <time>2024-05-08T08:14:18Z</time>
      </trkpt>
      <trkpt lat="47.35465" lon="2.58995">
        <ele>300.4</ele>
        <time>2024-05-08T08:14:19Z</time>
      </trkpt>
      <trkpt lat="47.3547" lon="2.58995">
        <ele>300.4</ele>
        <time>2024-05-08T08:14:20Z</time>
      </trkpt>
      <trkpt lat="47.35511" lon="2.58997">
        <ele>301</ele>
        <time>2024-05-08T08:14:27Z</time>
      </trkpt>
      <trkpt lat="47.35563" lon="2.59002">
        <ele>301</ele>
        <time>2024-05-08T08:14:35Z</time>
      </trkpt>
      <trkpt lat="47.35594" lon="2.59007">
        <ele>300.8</ele>
        <time>2024-05-08T08:14:40Z</time>
      </trkpt>
      <trkpt lat="47.35633" lon="2.59009">
        <ele>300.6</ele>
        <time>2024-05-08T08:14:46Z</time>
      </trkpt>
      <trkpt lat="47.35688" lon="2.59013">
        <ele>300.2</ele>
        <time>2024-05-08T08:14:54Z</time>
      </trkpt>
      <trkpt lat="47.35722" lon="2.59016">
        <ele>300</ele>
        <time>2024-05-08T08:15:00Z</time>
      </trkpt>
      <trkpt lat="47.35728" lon="2.59016">
        <ele>300</ele>
        <time>2024-05-08T08:15:01Z</time>
      </trkpt>
      <trkpt lat="47.35754" lon="2.59017">
        <ele>300.6</ele>
        <time>2024-05-08T08:15:06Z</time>
      </trkpt>
      <trkpt lat="47.3578" lon="2.59018">
        <ele>301.4</ele>
        <time>2024-05-08T08:15:11Z</time>
      </trkpt>
      <trkpt lat="47.35797" lon="2.59019">
        <ele>301.8</ele>
        <time>2024-05-08T08:15:14Z</time>
      </trkpt>
      <trkpt lat="47.35823" lon="2.59022">
        <ele>302.6</ele>
        <time>2024-05-08T08:15:20Z</time>
      </trkpt>
      <trkpt lat="47.35846" lon="2.59023">
        <ele>303.8</ele>
        <time>2024-05-08T08:15:25Z</time>
      </trkpt>
      <trkpt lat="47.3586" lon="2.59023">
        <ele>304.2</ele>
        <time>2024-05-08T08:15:28Z</time>
      </trkpt>
      <trkpt lat="47.35864" lon="2.59023">
        <ele>304.4</ele>
        <time>2024-05-08T08:15:29Z</time>
      </trkpt>
      <trkpt lat="47.35878" lon="2.59024">
        <ele>304.8</ele>
        <time>2024-05-08T08:15:32Z</time>
      </trkpt>
      <trkpt lat="47.35905" lon="2.59027">
        <ele>305.8</ele>
        <time>2024-05-08T08:15:38Z</time>
      </trkpt>
      <trkpt lat="47.35909" lon="2.59028">
        <ele>306</ele>
        <time>2024-05-08T08:15:39Z</time>
      </trkpt>
      <trkpt lat="47.35946" lon="2.59037">
        <ele>306.8</ele>
        <time>2024-05-08T08:15:47Z</time>
      </trkpt>
      <trkpt lat="47.35956" lon="2.59039">
        <ele>307</ele>
        <time>2024-05-08T08:15:49Z</time>
      </trkpt>
      <trkpt lat="47.3597" lon="2.59043">
        <ele>307.4</ele>
        <time>2024-05-08T08:15:52Z</time>
      </trkpt>
      <trkpt lat="47.35986" lon="2.59049">
        <ele>307.8</ele>
        <time>2024-05-08T08:15:56Z</time>
      </trkpt>
      <trkpt lat="47.35994" lon="2.59051">
        <ele>308.4</ele>
        <time>2024-05-08T08:15:58Z</time>
      </trkpt>
      <trkpt lat="47.3602" lon="2.59058">
        <ele>309.4</ele>
        <time>2024-05-08T08:16:04Z</time>
      </trkpt>
      <trkpt lat="47.36029" lon="2.5906">
        <ele>310</ele>
        <time>2024-05-08T08:16:06Z</time>
      </trkpt>
      <trkpt lat="47.36062" lon="2.59068">
        <ele>310.6</ele>
        <time>2024-05-08T08:16:13Z</time>
      </trkpt>
      <trkpt lat="47.36066" lon="2.59069">
        <ele>310.8</ele>
        <time>2024-05-08T08:16:14Z</time>
      </trkpt>
      <trkpt lat="47.36103" lon="2.59079">
        <ele>311.6</ele>
        <time>2024-05-08T08:16:22Z</time>
      </trkpt>
      <trkpt lat="47.36113" lon="2.59081">
        <ele>311.8</ele>
        <time>2024-05-08T08:16:24Z</time>
      </trkpt>
      <trkpt lat="47.36148" lon="2.5909">
        <ele>312.4</ele>
        <time>2024-05-08T08:16:31Z</time>
      </trkpt>
      <trkpt lat="47.3616" lon="2.59093">
        <ele>312.8</ele>
        <time>2024-05-08T08:16:33Z</time>
      </trkpt>
      <trkpt lat="47.36181" lon="2.59099">
        <ele>313</ele>
        <time>2024-05-08T08:16:37Z</time>
      </trkpt>
      <trkpt lat="47.36226" lon="2.5911">
        <ele>313.2</ele>
        <time>2024-05-08T08:16:45Z</time>
      </trkpt>
      <trkpt lat="47.36232" lon="2.59111">
        <ele>313.2</ele>
        <time>2024-05-08T08:16:46Z</time>
      </trkpt>
      <trkpt lat="47.3627" lon="2.59121">
        <ele>313.2</ele>
        <time>2024-05-08T08:16:53Z</time>
      </trkpt>
      <trkpt lat="47.36318" lon="2.59133">
        <ele>313.8</ele>
        <time>2024-05-08T08:17:02Z</time>
      </trkpt>
      <trkpt lat="47.36327" lon="2.59135">
        <ele>314</ele>
        <time>2024-05-08T08:17:04Z</time>
      </trkpt>
      <trkpt lat="47.36358" lon="2.59141">
        <ele>314.8</ele>
        <time>2024-05-08T08:17:10Z</time>
      </trkpt>
      <trkpt lat="47.36368" lon="2.59143">
        <ele>315</ele>
        <time>2024-05-08T08:17:12Z</time>
      </trkpt>
      <trkpt lat="47.36412" lon="2.59156">
        <ele>315.8</ele>
        <time>2024-05-08T08:17:20Z</time>
      </trkpt>
      <trkpt lat="47.36447" lon="2.59166">
        <ele>315.8</ele>
        <time>2024-05-08T08:17:26Z</time>
      </trkpt>
      <trkpt lat="47.36498" lon="2.59181">
        <ele>315</ele>
        <time>2024-05-08T08:17:34Z</time>
      </trkpt>
      <trkpt lat="47.36505" lon="2.59183">
        <ele>315</ele>
        <time>2024-05-08T08:17:35Z</time>
      </trkpt>
      <trkpt lat="47.36519" lon="2.59186">
        <ele>314.8</ele>
        <time>2024-05-08T08:17:37Z</time>
      </trkpt>
      <trkpt lat="47.36555" lon="2.59196">
        <ele>314.2</ele>
        <time>2024-05-08T08:17:42Z</time>
      </trkpt>
      <trkpt lat="47.36578" lon="2.59202">
        <ele>313.6</ele>
        <time>2024-05-08T08:17:45Z</time>
      </trkpt>
      <trkpt lat="47.36617" lon="2.59212">
        <ele>312.6</ele>
        <time>2024-05-08T08:17:50Z</time>
      </trkpt>
      <trkpt lat="47.36641" lon="2.59219">
        <ele>311.4</ele>
        <time>2024-05-08T08:17:53Z</time>
      </trkpt>
      <trkpt lat="47.36684" lon="2.5923">
        <ele>309.8</ele>
        <time>2024-05-08T08:17:58Z</time>
      </trkpt>
      <trkpt lat="47.36711" lon="2.59238">
        <ele>308.6</ele>
        <time>2024-05-08T08:18:01Z</time>
      </trkpt>
      <trkpt lat="47.36747" lon="2.59247">
        <ele>307.2</ele>
        <time>2024-05-08T08:18:05Z</time>
      </trkpt>
      <trkpt lat="47.36758" lon="2.5925">
        <ele>307</ele>
        <time>2024-05-08T08:18:06Z</time>
      </trkpt>
      <trkpt lat="47.36766" lon="2.59252">
        <ele>306.2</ele>
        <time>2024-05-08T08:18:07Z</time>
      </trkpt>
      <trkpt lat="47.36792" lon="2.59259">
        <ele>305</ele>
        <time>2024-05-08T08:18:10Z</time>
      </trkpt>
      <trkpt lat="47.36828" lon="2.59268">
        <ele>303.8</ele>
        <time>2024-05-08T08:18:14Z</time>
      </trkpt>
      <trkpt lat="47.36861" lon="2.59277">
        <ele>302.6</ele>
        <time>2024-05-08T08:18:18Z</time>
      </trkpt>
      <trkpt lat="47.36903" lon="2.59289">
        <ele>302.2</ele>
        <time>2024-05-08T08:18:24Z</time>
      </trkpt>
      <trkpt lat="47.36916" lon="2.59293">
        <ele>302.2</ele>
        <time>2024-05-08T08:18:26Z</time>
      </trkpt>
      <trkpt lat="47.36955" lon="2.59303">
        <ele>302.8</ele>
        <time>2024-05-08T08:18:32Z</time>
      </trkpt>
      <trkpt lat="47.37009" lon="2.59317">
        <ele>302.8</ele>
        <time>2024-05-08T08:18:41Z</time>
      </trkpt>
      <trkpt lat="47.37062" lon="2.59331">
        <ele>303</ele>
        <time>2024-05-08T08:18:50Z</time>
      </trkpt>
      <trkpt lat="47.3708" lon="2.59336">
        <ele>303</ele>
        <time>2024-05-08T08:18:53Z</time>
      </trkpt>
      <trkpt lat="47.37135" lon="2.59351">
        <ele>303</ele>
        <time>2024-05-08T08:19:02Z</time>
      </trkpt>
      <trkpt lat="47.37154" lon="2.59356">
        <ele>303</ele>
        <time>2024-05-08T08:19:05Z</time>
      </trkpt>
      <trkpt lat="47.37191" lon="2.59366">
        <ele>302.6</ele>
        <time>2024-05-08T08:19:10Z</time>
      </trkpt>
      <trkpt lat="47.37241" lon="2.59379">
        <ele>301.6</ele>
        <time>2024-05-08T08:19:16Z</time>
      </trkpt>
      <trkpt lat="47.3725" lon="2.59381">
        <ele>301.2</ele>
        <time>2024-05-08T08:19:17Z</time>
      </trkpt>
      <trkpt lat="47.37259" lon="2.59383">
        <ele>300.6</ele>
        <time>2024-05-08T08:19:18Z</time>
      </trkpt>
      <trkpt lat="47.37295" lon="2.59394">
        <ele>298.8</ele>
        <time>2024-05-08T08:19:22Z</time>
      </trkpt>
      <trkpt lat="47.3732" lon="2.59402">
        <ele>297.8</ele>
        <time>2024-05-08T08:19:25Z</time>
      </trkpt>
      <trkpt lat="47.37355" lon="2.59417">
        <ele>297.2</ele>
        <time>2024-05-08T08:19:30Z</time>
      </trkpt>
      <trkpt lat="47.37394" lon="2.59434">
        <ele>298.4</ele>
        <time>2024-05-08T08:19:37Z</time>
      </trkpt>
      <trkpt lat="47.37405" lon="2.59437">
        <ele>298.8</ele>
        <time>2024-05-08T08:19:39Z</time>
      </trkpt>
      <trkpt lat="47.37435" lon="2.59451">
        <ele>299.8</ele>
        <time>2024-05-08T08:19:45Z</time>
      </trkpt>
      <trkpt lat="47.3746" lon="2.59462">
        <ele>301.2</ele>
        <time>2024-05-08T08:19:51Z</time>
      </trkpt>
      <trkpt lat="47.37464" lon="2.59464">
        <ele>301.4</ele>
        <time>2024-05-08T08:19:52Z</time>
      </trkpt>
      <trkpt lat="47.37486" lon="2.59474">
        <ele>302.4</ele>
        <time>2024-05-08T08:19:57Z</time>
      </trkpt>
      <trkpt lat="47.37499" lon="2.59479">
        <ele>302.8</ele>
        <time>2024-05-08T08:20:00Z</time>
      </trkpt>
      <trkpt lat="47.37504" lon="2.59481">
        <ele>302.8</ele>
        <time>2024-05-08T08:20:01Z</time>
      </trkpt>
      <trkpt lat="47.37523" lon="2.59488">
        <ele>303.4</ele>
        <time>2024-05-08T08:20:05Z</time>
      </trkpt>
      <trkpt lat="47.37528" lon="2.5949">
        <ele>303.6</ele>
        <time>2024-05-08T08:20:06Z</time>
      </trkpt>
      <trkpt lat="47.37559" lon="2.59502">
        <ele>304.2</ele>
        <time>2024-05-08T08:20:13Z</time>
      </trkpt>
      <trkpt lat="47.37576" lon="2.59509">
        <ele>304.6</ele>
        <time>2024-05-08T08:20:17Z</time>
      </trkpt>
      <trkpt lat="47.3759" lon="2.59515">
        <ele>305.2</ele>
        <time>2024-05-08T08:20:20Z</time>
      </trkpt>
      <trkpt lat="47.37611" lon="2.59524">
        <ele>306</ele>
        <time>2024-05-08T08:20:25Z</time>
      </trkpt>
      <trkpt lat="47.37622" lon="2.59529">
        <ele>306.4</ele>
        <time>2024-05-08T08:20:27Z</time>
      </trkpt>
      <trkpt lat="47.37653" lon="2.59542">
        <ele>307</ele>
        <time>2024-05-08T08:20:34Z</time>
      </trkpt>
      <trkpt lat="47.37675" lon="2.59551">
        <ele>307.6</ele>
        <time>2024-05-08T08:20:39Z</time>
      </trkpt>
      <trkpt lat="47.37684" lon="2.59554">
        <ele>307.8</ele>
        <time>2024-05-08T08:20:41Z</time>
      </trkpt>
      <trkpt lat="47.37689" lon="2.59556">
        <ele>308.6</ele>
        <time>2024-05-08T08:20:43Z</time>
      </trkpt>
      <trkpt lat="47.37736" lon="2.59575">
        <ele>309.4</ele>
        <time>2024-05-08T08:20:54Z</time>
      </trkpt>
      <trkpt lat="47.37746" lon="2.59579">
        <ele>309.6</ele>
        <time>2024-05-08T08:20:55Z</time>
      </trkpt>
      <trkpt lat="47.37773" lon="2.5959">
        <ele>310.6</ele>
        <time>2024-05-08T08:21:01Z</time>
      </trkpt>
      <trkpt lat="47.37777" lon="2.59592">
        <ele>310.8</ele>
        <time>2024-05-08T08:21:02Z</time>
      </trkpt>
      <trkpt lat="47.37781" lon="2.59594">
        <ele>310.8</ele>
        <time>2024-05-08T08:21:03Z</time>
      </trkpt>
      <trkpt lat="47.37798" lon="2.59603">
        <ele>311.4</ele>
        <time>2024-05-08T08:21:07Z</time>
      </trkpt>
      <trkpt lat="47.37803" lon="2.59606">
        <ele>311.8</ele>
        <time>2024-05-08T08:21:08Z</time>
      </trkpt>
      <trkpt lat="47.37803" lon="2.59606">
        <ele>312.2</ele>
        <time>2024-05-08T08:21:09Z</time>
      </trkpt>
      <trkpt lat="47.37815" lon="2.59612">
        <ele>312.6</ele>
        <time>2024-05-08T08:21:11Z</time>
      </trkpt>
      <trkpt lat="47.37818" lon="2.59614">
        <ele>312.8</ele>
        <time>2024-05-08T08:21:12Z</time>
      </trkpt>
      <trkpt lat="47.37827" lon="2.59618">
        <ele>313.4</ele>
        <time>2024-05-08T08:21:14Z</time>
      </trkpt>
      <trkpt lat="47.3783" lon="2.5962">
        <ele>313.4</ele>
        <time>2024-05-08T08:21:15Z</time>
      </trkpt>
      <trkpt lat="47.37842" lon="2.59624">
        <ele>314.4</ele>
        <time>2024-05-08T08:21:18Z</time>
      </trkpt>
      <trkpt lat="47.37858" lon="2.5963">
        <ele>315.2</ele>
        <time>2024-05-08T08:21:22Z</time>
      </trkpt>
      <trkpt lat="47.37864" lon="2.59631">
        <ele>315.4</ele>
        <time>2024-05-08T08:21:23Z</time>
      </trkpt>
      <trkpt lat="47.37881" lon="2.59637">
        <ele>316.4</ele>
        <time>2024-05-08T08:21:27Z</time>
      </trkpt>
      <trkpt lat="47.37885" lon="2.59638">
        <ele>316.6</ele>
        <time>2024-05-08T08:21:28Z</time>
      </trkpt>
      <trkpt lat="47.37918" lon="2.59652">
        <ele>317.2</ele>
        <time>2024-05-08T08:21:35Z</time>
      </trkpt>
      <trkpt lat="47.37952" lon="2.59664">
        <ele>317</ele>
        <time>2024-05-08T08:21:42Z</time>
      </trkpt>
      <trkpt lat="47.37982" lon="2.59675">
        <ele>317</ele>
        <time>2024-05-08T08:21:48Z</time>
      </trkpt>
      <trkpt lat="47.37987" lon="2.59678">
        <ele>317</ele>
        <time>2024-05-08T08:21:49Z</time>
      </trkpt>
      <trkpt lat="47.38006" lon="2.59685">
        <ele>317.2</ele>
        <time>2024-05-08T08:21:53Z</time>
      </trkpt>
      <trkpt lat="47.38015" lon="2.59691">
        <ele>317.6</ele>
        <time>2024-05-08T08:21:55Z</time>
      </trkpt>
      <trkpt lat="47.38023" lon="2.59694">
        <ele>317.8</ele>
        <time>2024-05-08T08:21:57Z</time>
      </trkpt>
      <trkpt lat="47.38038" lon="2.59703">
        <ele>318.6</ele>
        <time>2024-05-08T08:22:01Z</time>
      </trkpt>
      <trkpt lat="47.38042" lon="2.59705">
        <ele>318.8</ele>
        <time>2024-05-08T08:22:02Z</time>
      </trkpt>
      <trkpt lat="47.3805" lon="2.59709">
        <ele>319.2</ele>
        <time>2024-05-08T08:22:04Z</time>
      </trkpt>
      <trkpt lat="47.38061" lon="2.59713">
        <ele>319.6</ele>
        <time>2024-05-08T08:22:06Z</time>
      </trkpt>
      <trkpt lat="47.38066" lon="2.59715">
        <ele>320</ele>
        <time>2024-05-08T08:22:07Z</time>
      </trkpt>
      <trkpt lat="47.38071" lon="2.59716">
        <ele>320</ele>
        <time>2024-05-08T08:22:08Z</time>
      </trkpt>
      <trkpt lat="47.38076" lon="2.59718">
        <ele>320.2</ele>
        <time>2024-05-08T08:22:09Z</time>
      </trkpt>
      <trkpt lat="47.3809" lon="2.59723">
        <ele>320.8</ele>
        <time>2024-05-08T08:22:12Z</time>
      </trkpt>
      <trkpt lat="47.381" lon="2.59727">
        <ele>321</ele>
        <time>2024-05-08T08:22:14Z</time>
      </trkpt>
      <trkpt lat="47.38123" lon="2.59736">
        <ele>321.4</ele>
        <time>2024-05-08T08:22:19Z</time>
      </trkpt>
      <trkpt lat="47.38148" lon="2.59745">
        <ele>322</ele>
        <time>2024-05-08T08:22:24Z</time>
      </trkpt>
      <trkpt lat="47.3817" lon="2.59754">
        <ele>322.6</ele>
        <time>2024-05-08T08:22:29Z</time>
      </trkpt>
      <trkpt lat="47.3819" lon="2.59763">
        <ele>323</ele>
        <time>2024-05-08T08:22:33Z</time>
      </trkpt>
      <trkpt lat="47.38209" lon="2.5977">
        <ele>323.2</ele>
        <time>2024-05-08T08:22:37Z</time>
      </trkpt>
      <trkpt lat="47.38247" lon="2.59785">
        <ele>323.8</ele>
        <time>2024-05-08T08:22:45Z</time>
      </trkpt>
      <trkpt lat="47.38252" lon="2.59787">
        <ele>323.8</ele>
        <time>2024-05-08T08:22:46Z</time>
      </trkpt>
      <trkpt lat="47.38264" lon="2.5979">
        <ele>324</ele>
        <time>2024-05-08T08:22:49Z</time>
      </trkpt>
      <trkpt lat="47.38268" lon="2.59791">
        <ele>324.2</ele>
        <time>2024-05-08T08:22:50Z</time>
      </trkpt>
      <trkpt lat="47.3828" lon="2.59794">
        <ele>325.2</ele>
        <time>2024-05-08T08:22:53Z</time>
      </trkpt>
      <trkpt lat="47.38297" lon="2.59796">
        <ele>326.2</ele>
        <time>2024-05-08T08:22:57Z</time>
      </trkpt>
      <trkpt lat="47.38301" lon="2.59796">
        <ele>326.4</ele>
        <time>2024-05-08T08:22:58Z</time>
      </trkpt>
      <trkpt lat="47.38319" lon="2.59794">
        <ele>327.4</ele>
        <time>2024-05-08T08:23:02Z</time>
      </trkpt>
      <trkpt lat="47.38339" lon="2.59789">
        <ele>328.2</ele>
        <time>2024-05-08T08:23:06Z</time>
      </trkpt>
      <trkpt lat="47.38339" lon="2.59789">
        <ele>328.4</ele>
        <time>2024-05-08T08:23:07Z</time>
      </trkpt>
      <trkpt lat="47.38365" lon="2.59779">
        <ele>329.4</ele>
        <time>2024-05-08T08:23:12Z</time>
      </trkpt>
      <trkpt lat="47.3837" lon="2.59778">
        <ele>329.6</ele>
        <time>2024-05-08T08:23:13Z</time>
      </trkpt>
      <trkpt lat="47.38379" lon="2.59775">
        <ele>329.8</ele>
        <time>2024-05-08T08:23:15Z</time>
      </trkpt>
      <trkpt lat="47.38401" lon="2.59767">
        <ele>330.6</ele>
        <time>2024-05-08T08:23:20Z</time>
      </trkpt>
      <trkpt lat="47.38409" lon="2.59764">
        <ele>330.8</ele>
        <time>2024-05-08T08:23:22Z</time>
      </trkpt>
      <trkpt lat="47.38431" lon="2.59757">
        <ele>331.6</ele>
        <time>2024-05-08T08:23:27Z</time>
      </trkpt>
      <trkpt lat="47.38458" lon="2.59748">
        <ele>332.6</ele>
        <time>2024-05-08T08:23:33Z</time>
      </trkpt>
      <trkpt lat="47.38463" lon="2.59747">
        <ele>332.8</ele>
        <time>2024-05-08T08:23:34Z</time>
      </trkpt>
      <trkpt lat="47.3848" lon="2.59742">
        <ele>333.4</ele>
        <time>2024-05-08T08:23:38Z</time>
      </trkpt>
      <trkpt lat="47.38489" lon="2.59738">
        <ele>333.8</ele>
        <time>2024-05-08T08:23:40Z</time>
      </trkpt>
      <trkpt lat="47.38508" lon="2.59732">
        <ele>335</ele>
        <time>2024-05-08T08:23:44Z</time>
      </trkpt>
      <trkpt lat="47.38535" lon="2.59722">
        <ele>335.8</ele>
        <time>2024-05-08T08:23:50Z</time>
      </trkpt>
      <trkpt lat="47.38563" lon="2.59713">
        <ele>337</ele>
        <time>2024-05-08T08:23:56Z</time>
      </trkpt>
      <trkpt lat="47.38571" lon="2.5971">
        <ele>337.4</ele>
        <time>2024-05-08T08:23:58Z</time>
      </trkpt>
      <trkpt lat="47.38595" lon="2.59703">
        <ele>338</ele>
        <time>2024-05-08T08:24:03Z</time>
      </trkpt>
      <trkpt lat="47.38627" lon="2.59691">
        <ele>338.8</ele>
        <time>2024-05-08T08:24:10Z</time>
      </trkpt>
      <trkpt lat="47.3864" lon="2.59686">
        <ele>339</ele>
        <time>2024-05-08T08:24:13Z</time>
      </trkpt>
      <trkpt lat="47.38673" lon="2.59675">
        <ele>339.6</ele>
        <time>2024-05-08T08:24:19Z</time>
      </trkpt>
      <trkpt lat="47.38679" lon="2.59673">
        <ele>339.8</ele>
        <time>2024-05-08T08:24:20Z</time>
      </trkpt>
      <trkpt lat="47.38694" lon="2.59668">
        <ele>340</ele>
        <time>2024-05-08T08:24:23Z</time>
      </trkpt>
      <trkpt lat="47.38706" lon="2.59663">
        <ele>340.2</ele>
        <time>2024-05-08T08:24:25Z</time>
      </trkpt>
      <trkpt lat="47.38762" lon="2.59645">
        <ele>340.6</ele>
        <time>2024-05-08T08:24:35Z</time>
      </trkpt>
      <trkpt lat="47.38768" lon="2.59643">
        <ele>340.6</ele>
        <time>2024-05-08T08:24:36Z</time>
      </trkpt>
      <trkpt lat="47.38815" lon="2.59626">
        <ele>340.8</ele>
        <time>2024-05-08T08:24:44Z</time>
      </trkpt>
      <trkpt lat="47.38868" lon="2.59608">
        <ele>340.8</ele>
        <time>2024-05-08T08:24:53Z</time>
      </trkpt>
      <trkpt lat="47.38908" lon="2.59594">
        <ele>340.4</ele>
        <time>2024-05-08T08:24:59Z</time>
      </trkpt>
      <trkpt lat="47.38964" lon="2.59575">
        <ele>340.4</ele>
        <time>2024-05-08T08:25:08Z</time>
      </trkpt>
      <trkpt lat="47.38969" lon="2.59573">
        <ele>340.4</ele>
        <time>2024-05-08T08:25:09Z</time>
      </trkpt>
      <trkpt lat="47.38991" lon="2.59566">
        <ele>340.6</ele>
        <time>2024-05-08T08:25:13Z</time>
      </trkpt>
      <trkpt lat="47.39031" lon="2.59552">
        <ele>340.8</ele>
        <time>2024-05-08T08:25:20Z</time>
      </trkpt>
      <trkpt lat="47.39036" lon="2.59551">
        <ele>341</ele>
        <time>2024-05-08T08:25:21Z</time>
      </trkpt>
      <trkpt lat="47.39082" lon="2.59535">
        <ele>341.4</ele>
        <time>2024-05-08T08:25:30Z</time>
      </trkpt>
      <trkpt lat="47.39108" lon="2.59527">
        <ele>342</ele>
        <time>2024-05-08T08:25:35Z</time>
      </trkpt>
      <trkpt lat="47.39128" lon="2.5952">
        <ele>342.4</ele>
        <time>2024-05-08T08:25:39Z</time>
      </trkpt>
      <trkpt lat="47.39158" lon="2.5951">
        <ele>342.8</ele>
        <time>2024-05-08T08:25:45Z</time>
      </trkpt>
      <trkpt lat="47.39205" lon="2.59495">
        <ele>343.4</ele>
        <time>2024-05-08T08:25:54Z</time>
      </trkpt>
      <trkpt lat="47.39235" lon="2.59485">
        <ele>343.8</ele>
        <time>2024-05-08T08:26:00Z</time>
      </trkpt>
      <trkpt lat="47.3925" lon="2.5948">
        <ele>344.2</ele>
        <time>2024-05-08T08:26:03Z</time>
      </trkpt>
      <trkpt lat="47.39299" lon="2.59464">
        <ele>344.6</ele>
        <time>2024-05-08T08:26:12Z</time>
      </trkpt>
      <trkpt lat="47.39356" lon="2.59445">
        <ele>344.6</ele>
        <time>2024-05-08T08:26:22Z</time>
      </trkpt>
      <trkpt lat="47.39393" lon="2.59433">
        <ele>344.6</ele>
        <time>2024-05-08T08:26:28Z</time>
      </trkpt>
      <trkpt lat="47.3943" lon="2.59422">
        <ele>343.6</ele>
        <time>2024-05-08T08:26:34Z</time>
      </trkpt>
      <trkpt lat="47.39436" lon="2.5942">
        <ele>343.4</ele>
        <time>2024-05-08T08:26:35Z</time>
      </trkpt>
      <trkpt lat="47.39448" lon="2.59417">
        <ele>343.4</ele>
        <time>2024-05-08T08:26:37Z</time>
      </trkpt>
      <trkpt lat="47.39454" lon="2.59416">
        <ele>343</ele>
        <time>2024-05-08T08:26:38Z</time>
      </trkpt>
      <trkpt lat="47.39459" lon="2.59414">
        <ele>342.8</ele>
        <time>2024-05-08T08:26:39Z</time>
      </trkpt>
      <trkpt lat="47.39463" lon="2.59414">
        <ele>342.6</ele>
        <time>2024-05-08T08:26:40Z</time>
      </trkpt>
      <trkpt lat="47.39468" lon="2.59413">
        <ele>342.6</ele>
        <time>2024-05-08T08:26:41Z</time>
      </trkpt>
      <trkpt lat="47.39473" lon="2.59412">
        <ele>342.6</ele>
        <time>2024-05-08T08:26:42Z</time>
      </trkpt>
      <trkpt lat="47.39484" lon="2.59406">
        <ele>342</ele>
        <time>2024-05-08T08:26:45Z</time>
      </trkpt>
      <trkpt lat="47.39497" lon="2.59403">
        <ele>341.6</ele>
        <time>2024-05-08T08:26:48Z</time>
      </trkpt>
      <trkpt lat="47.39501" lon="2.594">
        <ele>341.6</ele>
        <time>2024-05-08T08:26:49Z</time>
      </trkpt>
      <trkpt lat="47.39516" lon="2.59393">
        <ele>341</ele>
        <time>2024-05-08T08:26:51Z</time>
      </trkpt>
      <trkpt lat="47.39536" lon="2.59382">
        <ele>340.6</ele>
        <time>2024-05-08T08:26:53Z</time>
      </trkpt>
      <trkpt lat="47.39545" lon="2.59376">
        <ele>340.4</ele>
        <time>2024-05-08T08:26:54Z</time>
      </trkpt>
      <trkpt lat="47.39555" lon="2.59371">
        <ele>339.8</ele>
        <time>2024-05-08T08:26:55Z</time>
      </trkpt>
      <trkpt lat="47.39563" lon="2.59366">
        <ele>339.4</ele>
        <time>2024-05-08T08:26:56Z</time>
      </trkpt>
      <trkpt lat="47.39582" lon="2.59352">
        <ele>338.4</ele>
        <time>2024-05-08T08:26:58Z</time>
      </trkpt>
      <trkpt lat="47.39596" lon="2.59337">
        <ele>338</ele>
        <time>2024-05-08T08:27:00Z</time>
      </trkpt>
      <trkpt lat="47.39604" lon="2.5933">
        <ele>337.6</ele>
        <time>2024-05-08T08:27:01Z</time>
      </trkpt>
      <trkpt lat="47.39612" lon="2.59326">
        <ele>337.6</ele>
        <time>2024-05-08T08:27:02Z</time>
      </trkpt>
      <trkpt lat="47.39617" lon="2.59319">
        <ele>337.4</ele>
        <time>2024-05-08T08:27:03Z</time>
      </trkpt>
      <trkpt lat="47.39622" lon="2.59313">
        <ele>337.2</ele>
        <time>2024-05-08T08:27:04Z</time>
      </trkpt>
      <trkpt lat="47.39626" lon="2.59305">
        <ele>337.2</ele>
        <time>2024-05-08T08:27:05Z</time>
      </trkpt>
      <trkpt lat="47.39641" lon="2.59296">
        <ele>337.2</ele>
        <time>2024-05-08T08:27:07Z</time>
      </trkpt>
      <trkpt lat="47.39656" lon="2.59288">
        <ele>337.2</ele>
        <time>2024-05-08T08:27:09Z</time>
      </trkpt>
      <trkpt lat="47.39664" lon="2.59278">
        <ele>337.2</ele>
        <time>2024-05-08T08:27:11Z</time>
      </trkpt>
      <trkpt lat="47.39679" lon="2.5925">
        <ele>337</ele>
        <time>2024-05-08T08:27:14Z</time>
      </trkpt>
      <trkpt lat="47.39685" lon="2.59236">
        <ele>337</ele>
        <time>2024-05-08T08:27:16Z</time>
      </trkpt>
      <trkpt lat="47.39692" lon="2.59222">
        <ele>337</ele>
        <time>2024-05-08T08:27:18Z</time>
      </trkpt>
      <trkpt lat="47.39694" lon="2.59216">
        <ele>337</ele>
        <time>2024-05-08T08:27:19Z</time>
      </trkpt>
      <trkpt lat="47.39699" lon="2.59212">
        <ele>337</ele>
        <time>2024-05-08T08:27:20Z</time>
      </trkpt>
      <trkpt lat="47.39705" lon="2.59205">
        <ele>337</ele>
        <time>2024-05-08T08:27:21Z</time>
      </trkpt>
      <trkpt lat="47.3971" lon="2.592">
        <ele>337</ele>
        <time>2024-05-08T08:27:22Z</time>
      </trkpt>
      <trkpt lat="47.39723" lon="2.59188">
        <ele>337</ele>
        <time>2024-05-08T08:27:24Z</time>
      </trkpt>
      <trkpt lat="47.39731" lon="2.59181">
        <ele>337</ele>
        <time>2024-05-08T08:27:25Z</time>
      </trkpt>
      <trkpt lat="47.39734" lon="2.59176">
        <ele>337</ele>
        <time>2024-05-08T08:27:26Z</time>
      </trkpt>
      <trkpt lat="47.39739" lon="2.59171">
        <ele>336.8</ele>
        <time>2024-05-08T08:27:27Z</time>
      </trkpt>
      <trkpt lat="47.39745" lon="2.59166">
        <ele>336.8</ele>
        <time>2024-05-08T08:27:28Z</time>
      </trkpt>
      <trkpt lat="47.39762" lon="2.59151">
        <ele>336.6</ele>
        <time>2024-05-08T08:27:31Z</time>
      </trkpt>
      <trkpt lat="47.39774" lon="2.59138">
        <ele>336.4</ele>
        <time>2024-05-08T08:27:33Z</time>
      </trkpt>
      <trkpt lat="47.39794" lon="2.59114">
        <ele>336</ele>
        <time>2024-05-08T08:27:37Z</time>
      </trkpt>
      <trkpt lat="47.39812" lon="2.59096">
        <ele>335.8</ele>
        <time>2024-05-08T08:27:40Z</time>
      </trkpt>
      <trkpt lat="47.39823" lon="2.59083">
        <ele>335.6</ele>
        <time>2024-05-08T08:27:42Z</time>
      </trkpt>
      <trkpt lat="47.39845" lon="2.59055">
        <ele>335.4</ele>
        <time>2024-05-08T08:27:46Z</time>
      </trkpt>
      <trkpt lat="47.39849" lon="2.59048">
        <ele>335.4</ele>
        <time>2024-05-08T08:27:47Z</time>
      </trkpt>
      <trkpt lat="47.39853" lon="2.59042">
        <ele>335.4</ele>
        <time>2024-05-08T08:27:48Z</time>
      </trkpt>
      <trkpt lat="47.39866" lon="2.59031">
        <ele>335.4</ele>
        <time>2024-05-08T08:27:50Z</time>
      </trkpt>
      <trkpt lat="47.39879" lon="2.59026">
        <ele>335.2</ele>
        <time>2024-05-08T08:27:52Z</time>
      </trkpt>
      <trkpt lat="47.39887" lon="2.59012">
        <ele>335.2</ele>
        <time>2024-05-08T08:27:53Z</time>
      </trkpt>
      <trkpt lat="47.39893" lon="2.59004">
        <ele>335.2</ele>
        <time>2024-05-08T08:27:54Z</time>
      </trkpt>
      <trkpt lat="47.39903" lon="2.58988">
        <ele>334.8</ele>
        <time>2024-05-08T08:27:56Z</time>
      </trkpt>
      <trkpt lat="47.3991" lon="2.58979">
        <ele>334.8</ele>
        <time>2024-05-08T08:27:57Z</time>
      </trkpt>
      <trkpt lat="47.39916" lon="2.58972">
        <ele>334.4</ele>
        <time>2024-05-08T08:27:58Z</time>
      </trkpt>
      <trkpt lat="47.39928" lon="2.58959">
        <ele>334.2</ele>
        <time>2024-05-08T08:28:00Z</time>
      </trkpt>
      <trkpt lat="47.39941" lon="2.58945">
        <ele>333.6</ele>
        <time>2024-05-08T08:28:02Z</time>
      </trkpt>
      <trkpt lat="47.39953" lon="2.5893">
        <ele>333.4</ele>
        <time>2024-05-08T08:28:04Z</time>
      </trkpt>
      <trkpt lat="47.39977" lon="2.58901">
        <ele>332.8</ele>
        <time>2024-05-08T08:28:08Z</time>
      </trkpt>
      <trkpt lat="47.39989" lon="2.58888">
        <ele>332.6</ele>
        <time>2024-05-08T08:28:10Z</time>
      </trkpt>
      <trkpt lat="47.39994" lon="2.58883">
        <ele>332.2</ele>
        <time>2024-05-08T08:28:11Z</time>
      </trkpt>
      <trkpt lat="47.4" lon="2.58876">
        <ele>332.2</ele>
        <time>2024-05-08T08:28:12Z</time>
      </trkpt>
      <trkpt lat="47.40031" lon="2.58843">
        <ele>331.8</ele>
        <time>2024-05-08T08:28:17Z</time>
      </trkpt>
      <trkpt lat="47.40038" lon="2.58836">
        <ele>331.6</ele>
        <time>2024-05-08T08:28:18Z</time>
      </trkpt>
      <trkpt lat="47.40044" lon="2.58829">
        <ele>331.6</ele>
        <time>2024-05-08T08:28:19Z</time>
      </trkpt>
      <trkpt lat="47.40057" lon="2.58817">
        <ele>331.4</ele>
        <time>2024-05-08T08:28:21Z</time>
      </trkpt>
      <trkpt lat="47.40063" lon="2.58811">
        <ele>331.4</ele>
        <time>2024-05-08T08:28:22Z</time>
      </trkpt>
      <trkpt lat="47.40079" lon="2.58792">
        <ele>331.4</ele>
        <time>2024-05-08T08:28:25Z</time>
      </trkpt>
      <trkpt lat="47.40095" lon="2.58772">
        <ele>331.6</ele>
        <time>2024-05-08T08:28:28Z</time>
      </trkpt>
      <trkpt lat="47.40105" lon="2.58762">
        <ele>331.8</ele>
        <time>2024-05-08T08:28:30Z</time>
      </trkpt>
      <trkpt lat="47.40115" lon="2.58749">
        <ele>331.8</ele>
        <time>2024-05-08T08:28:32Z</time>
      </trkpt>
      <trkpt lat="47.40129" lon="2.58734">
        <ele>332.2</ele>
        <time>2024-05-08T08:28:35Z</time>
      </trkpt>
      <trkpt lat="47.40139" lon="2.58724">
        <ele>332.6</ele>
        <time>2024-05-08T08:28:37Z</time>
      </trkpt>
      <trkpt lat="47.40152" lon="2.58709">
        <ele>333</ele>
        <time>2024-05-08T08:28:40Z</time>
      </trkpt>
      <trkpt lat="47.4016" lon="2.58697">
        <ele>333.2</ele>
        <time>2024-05-08T08:28:42Z</time>
      </trkpt>
      <trkpt lat="47.4017" lon="2.58682">
        <ele>333.4</ele>
        <time>2024-05-08T08:28:44Z</time>
      </trkpt>
      <trkpt lat="47.40189" lon="2.58664">
        <ele>333.4</ele>
        <time>2024-05-08T08:28:48Z</time>
      </trkpt>
      <trkpt lat="47.40194" lon="2.58656">
        <ele>333.6</ele>
        <time>2024-05-08T08:28:49Z</time>
      </trkpt>
      <trkpt lat="47.40198" lon="2.58648">
        <ele>333.6</ele>
        <time>2024-05-08T08:28:51Z</time>
      </trkpt>
      <trkpt lat="47.40222" lon="2.58617">
        <ele>334</ele>
        <time>2024-05-08T08:28:56Z</time>
      </trkpt>
      <trkpt lat="47.40235" lon="2.58602">
        <ele>333.8</ele>
        <time>2024-05-08T08:28:58Z</time>
      </trkpt>
      <trkpt lat="47.40241" lon="2.58595">
        <ele>333.8</ele>
        <time>2024-05-08T08:28:59Z</time>
      </trkpt>
      <trkpt lat="47.4025" lon="2.58585">
        <ele>333.8</ele>
        <time>2024-05-08T08:29:01Z</time>
      </trkpt>
      <trkpt lat="47.40259" lon="2.58573">
        <ele>334</ele>
        <time>2024-05-08T08:29:03Z</time>
      </trkpt>
      <trkpt lat="47.40282" lon="2.58545">
        <ele>334</ele>
        <time>2024-05-08T08:29:08Z</time>
      </trkpt>
      <trkpt lat="47.40286" lon="2.5854">
        <ele>334</ele>
        <time>2024-05-08T08:29:10Z</time>
      </trkpt>
      <trkpt lat="47.4029" lon="2.58535">
        <ele>334</ele>
        <time>2024-05-08T08:29:12Z</time>
      </trkpt>
      <trkpt lat="47.40296" lon="2.58531">
        <ele>333.8</ele>
        <time>2024-05-08T08:29:14Z</time>
      </trkpt>
      <trkpt lat="47.40311" lon="2.58515">
        <ele>333.8</ele>
        <time>2024-05-08T08:29:18Z</time>
      </trkpt>
      <trkpt lat="47.4033" lon="2.58496">
        <ele>333.4</ele>
        <time>2024-05-08T08:29:22Z</time>
      </trkpt>
      <trkpt lat="47.40348" lon="2.58479">
        <ele>333</ele>
        <time>2024-05-08T08:29:25Z</time>
      </trkpt>
      <trkpt lat="47.40352" lon="2.58475">
        <ele>332.8</ele>
        <time>2024-05-08T08:29:26Z</time>
      </trkpt>
      <trkpt lat="47.40357" lon="2.5847">
        <ele>332.8</ele>
        <time>2024-05-08T08:29:27Z</time>
      </trkpt>
      <trkpt lat="47.40377" lon="2.58453">
        <ele>332.4</ele>
        <time>2024-05-08T08:29:30Z</time>
      </trkpt>
      <trkpt lat="47.40385" lon="2.58445">
        <ele>332</ele>
        <time>2024-05-08T08:29:31Z</time>
      </trkpt>
      <trkpt lat="47.40385" lon="2.58445">
        <ele>331.8</ele>
        <time>2024-05-08T08:29:32Z</time>
      </trkpt>
      <trkpt lat="47.40409" lon="2.58416">
        <ele>331.4</ele>
        <time>2024-05-08T08:29:34Z</time>
      </trkpt>
      <trkpt lat="47.40419" lon="2.58408">
        <ele>331.2</ele>
        <time>2024-05-08T08:29:35Z</time>
      </trkpt>
      <trkpt lat="47.40443" lon="2.58373">
        <ele>330.8</ele>
        <time>2024-05-08T08:29:38Z</time>
      </trkpt>
      <trkpt lat="47.40448" lon="2.58363">
        <ele>330.6</ele>
        <time>2024-05-08T08:29:39Z</time>
      </trkpt>
      <trkpt lat="47.40451" lon="2.58356">
        <ele>330.4</ele>
        <time>2024-05-08T08:29:40Z</time>
      </trkpt>
      <trkpt lat="47.40454" lon="2.58355">
        <ele>330.2</ele>
        <time>2024-05-08T08:29:41Z</time>
      </trkpt>
      <trkpt lat="47.40458" lon="2.5836">
        <ele>329.8</ele>
        <time>2024-05-08T08:29:43Z</time>
      </trkpt>
      <trkpt lat="47.40466" lon="2.58367">
        <ele>329.6</ele>
        <time>2024-05-08T08:29:46Z</time>
      </trkpt>
      <trkpt lat="47.40469" lon="2.58371">
        <ele>329.4</ele>
        <time>2024-05-08T08:29:48Z</time>
      </trkpt>
      <trkpt lat="47.40469" lon="2.58371">
        <ele>329.2</ele>
        <time>2024-05-08T08:29:51Z</time>
      </trkpt>
      <trkpt lat="47.40467" lon="2.58366">
        <ele>328.8</ele>
        <time>2024-05-08T08:34:37Z</time>
      </trkpt>
      <trkpt lat="47.40462" lon="2.58354">
        <ele>329</ele>
        <time>2024-05-08T08:34:41Z</time>
      </trkpt>
      <trkpt lat="47.40462" lon="2.58352">
        <ele>329</ele>
        <time>2024-05-08T08:34:42Z</time>
      </trkpt>
      <trkpt lat="47.40463" lon="2.58346">
        <ele>329</ele>
        <time>2024-05-08T08:34:44Z</time>
      </trkpt>
      <trkpt lat="47.40472" lon="2.58333">
        <ele>328.8</ele>
        <time>2024-05-08T08:34:48Z</time>
      </trkpt>
      <trkpt lat="47.40496" lon="2.583">
        <ele>328.4</ele>
        <time>2024-05-08T08:34:55Z</time>
      </trkpt>
      <trkpt lat="47.405" lon="2.58295">
        <ele>328.4</ele>
        <time>2024-05-08T08:34:56Z</time>
      </trkpt>
      <trkpt lat="47.40511" lon="2.58283">
        <ele>328.4</ele>
        <time>2024-05-08T08:34:58Z</time>
      </trkpt>
      <trkpt lat="47.40522" lon="2.58268">
        <ele>328.2</ele>
        <time>2024-05-08T08:35:00Z</time>
      </trkpt>
      <trkpt lat="47.40531" lon="2.58255">
        <ele>327.8</ele>
        <time>2024-05-08T08:35:02Z</time>
      </trkpt>
      <trkpt lat="47.4055" lon="2.58233">
        <ele>327.6</ele>
        <time>2024-05-08T08:35:05Z</time>
      </trkpt>
      <trkpt lat="47.40563" lon="2.58218">
        <ele>327.2</ele>
        <time>2024-05-08T08:35:07Z</time>
      </trkpt>
      <trkpt lat="47.40569" lon="2.58212">
        <ele>327</ele>
        <time>2024-05-08T08:35:08Z</time>
      </trkpt>
      <trkpt lat="47.40583" lon="2.58194">
        <ele>326.6</ele>
        <time>2024-05-08T08:35:10Z</time>
      </trkpt>
      <trkpt lat="47.40589" lon="2.58187">
        <ele>326.4</ele>
        <time>2024-05-08T08:35:11Z</time>
      </trkpt>
      <trkpt lat="47.40622" lon="2.58146">
        <ele>325.4</ele>
        <time>2024-05-08T08:35:16Z</time>
      </trkpt>
      <trkpt lat="47.40635" lon="2.58131">
        <ele>324.8</ele>
        <time>2024-05-08T08:35:18Z</time>
      </trkpt>
      <trkpt lat="47.40643" lon="2.58123">
        <ele>324.2</ele>
        <time>2024-05-08T08:35:19Z</time>
      </trkpt>
      <trkpt lat="47.40651" lon="2.58116">
        <ele>324</ele>
        <time>2024-05-08T08:35:20Z</time>
      </trkpt>
      <trkpt lat="47.40671" lon="2.58091">
        <ele>323.4</ele>
        <time>2024-05-08T08:35:23Z</time>
      </trkpt>
      <trkpt lat="47.40677" lon="2.58083">
        <ele>323.2</ele>
        <time>2024-05-08T08:35:24Z</time>
      </trkpt>
      <trkpt lat="47.40682" lon="2.58078">
        <ele>323.2</ele>
        <time>2024-05-08T08:35:25Z</time>
      </trkpt>
      <trkpt lat="47.40687" lon="2.58072">
        <ele>322.8</ele>
        <time>2024-05-08T08:35:26Z</time>
      </trkpt>
      <trkpt lat="47.40699" lon="2.5806">
        <ele>322.6</ele>
        <time>2024-05-08T08:35:28Z</time>
      </trkpt>
      <trkpt lat="47.40706" lon="2.58052">
        <ele>322.6</ele>
        <time>2024-05-08T08:35:29Z</time>
      </trkpt>
      <trkpt lat="47.40731" lon="2.58027">
        <ele>322</ele>
        <time>2024-05-08T08:35:33Z</time>
      </trkpt>
      <trkpt lat="47.40743" lon="2.58014">
        <ele>321.4</ele>
        <time>2024-05-08T08:35:35Z</time>
      </trkpt>
      <trkpt lat="47.40749" lon="2.58007">
        <ele>321.2</ele>
        <time>2024-05-08T08:35:36Z</time>
      </trkpt>
      <trkpt lat="47.40756" lon="2.58002">
        <ele>321</ele>
        <time>2024-05-08T08:35:37Z</time>
      </trkpt>
      <trkpt lat="47.40763" lon="2.57996">
        <ele>320.8</ele>
        <time>2024-05-08T08:35:38Z</time>
      </trkpt>
      <trkpt lat="47.40778" lon="2.57982">
        <ele>320.4</ele>
        <time>2024-05-08T08:35:40Z</time>
      </trkpt>
      <trkpt lat="47.40784" lon="2.57975">
        <ele>320</ele>
        <time>2024-05-08T08:35:41Z</time>
      </trkpt>
      <trkpt lat="47.40791" lon="2.57968">
        <ele>319.8</ele>
        <time>2024-05-08T08:35:42Z</time>
      </trkpt>
      <trkpt lat="47.40795" lon="2.57963">
        <ele>319.4</ele>
        <time>2024-05-08T08:35:43Z</time>
      </trkpt>
      <trkpt lat="47.40804" lon="2.57949">
        <ele>319</ele>
        <time>2024-05-08T08:35:45Z</time>
      </trkpt>
      <trkpt lat="47.40814" lon="2.57933">
        <ele>318.6</ele>
        <time>2024-05-08T08:35:47Z</time>
      </trkpt>
      <trkpt lat="47.4082" lon="2.57923">
        <ele>318.4</ele>
        <time>2024-05-08T08:35:48Z</time>
      </trkpt>
      <trkpt lat="47.40836" lon="2.579">
        <ele>317.8</ele>
        <time>2024-05-08T08:35:51Z</time>
      </trkpt>
      <trkpt lat="47.40846" lon="2.57884">
        <ele>317.6</ele>
        <time>2024-05-08T08:35:53Z</time>
      </trkpt>
      <trkpt lat="47.40866" lon="2.5786">
        <ele>317.4</ele>
        <time>2024-05-08T08:35:56Z</time>
      </trkpt>
      <trkpt lat="47.40869" lon="2.57854">
        <ele>317.2</ele>
        <time>2024-05-08T08:35:57Z</time>
      </trkpt>
      <trkpt lat="47.40878" lon="2.57844">
        <ele>317.2</ele>
        <time>2024-05-08T08:35:59Z</time>
      </trkpt>
      <trkpt lat="47.40885" lon="2.57838">
        <ele>317.2</ele>
        <time>2024-05-08T08:36:00Z</time>
      </trkpt>
      <trkpt lat="47.409" lon="2.57824">
        <ele>317.2</ele>
        <time>2024-05-08T08:36:02Z</time>
      </trkpt>
      <trkpt lat="47.4091" lon="2.57818">
        <ele>317.2</ele>
        <time>2024-05-08T08:36:03Z</time>
      </trkpt>
      <trkpt lat="47.40915" lon="2.57811">
        <ele>317.2</ele>
        <time>2024-05-08T08:36:04Z</time>
      </trkpt>
      <trkpt lat="47.40938" lon="2.57774">
        <ele>317.8</ele>
        <time>2024-05-08T08:36:09Z</time>
      </trkpt>
      <trkpt lat="47.40944" lon="2.5777">
        <ele>317.8</ele>
        <time>2024-05-08T08:36:10Z</time>
      </trkpt>
      <trkpt lat="47.40955" lon="2.57761">
        <ele>318</ele>
        <time>2024-05-08T08:36:12Z</time>
      </trkpt>
      <trkpt lat="47.40961" lon="2.57755">
        <ele>318</ele>
        <time>2024-05-08T08:36:13Z</time>
      </trkpt>
      <trkpt lat="47.40968" lon="2.57749">
        <ele>318</ele>
        <time>2024-05-08T08:36:14Z</time>
      </trkpt>
      <trkpt lat="47.40984" lon="2.57727">
        <ele>318.2</ele>
        <time>2024-05-08T08:36:17Z</time>
      </trkpt>
      <trkpt lat="47.41003" lon="2.57703">
        <ele>318.2</ele>
        <time>2024-05-08T08:36:21Z</time>
      </trkpt>
      <trkpt lat="47.41006" lon="2.57699">
        <ele>318.4</ele>
        <time>2024-05-08T08:36:22Z</time>
      </trkpt>
      <trkpt lat="47.41016" lon="2.57688">
        <ele>318.6</ele>
        <time>2024-05-08T08:36:24Z</time>
      </trkpt>
      <trkpt lat="47.41027" lon="2.5767">
        <ele>318.6</ele>
        <time>2024-05-08T08:36:27Z</time>
      </trkpt>
      <trkpt lat="47.41037" lon="2.5766">
        <ele>319</ele>
        <time>2024-05-08T08:36:29Z</time>
      </trkpt>
      <trkpt lat="47.41047" lon="2.57648">
        <ele>319.2</ele>
        <time>2024-05-08T08:36:31Z</time>
      </trkpt>
      <trkpt lat="47.41068" lon="2.57622">
        <ele>320</ele>
        <time>2024-05-08T08:36:36Z</time>
      </trkpt>
      <trkpt lat="47.41078" lon="2.57613">
        <ele>320.4</ele>
        <time>2024-05-08T08:36:38Z</time>
      </trkpt>
      <trkpt lat="47.41095" lon="2.57589">
        <ele>320.6</ele>
        <time>2024-05-08T08:36:42Z</time>
      </trkpt>
      <trkpt lat="47.41138" lon="2.5754">
        <ele>321</ele>
        <time>2024-05-08T08:36:51Z</time>
      </trkpt>
      <trkpt lat="47.41177" lon="2.57495">
        <ele>320.8</ele>
        <time>2024-05-08T08:36:58Z</time>
      </trkpt>
      <trkpt lat="47.41217" lon="2.57449">
        <ele>320.2</ele>
        <time>2024-05-08T08:37:05Z</time>
      </trkpt>
      <trkpt lat="47.41231" lon="2.57436">
        <ele>320</ele>
        <time>2024-05-08T08:37:07Z</time>
      </trkpt>
      <trkpt lat="47.41248" lon="2.57417">
        <ele>319.4</ele>
        <time>2024-05-08T08:37:10Z</time>
      </trkpt>
      <trkpt lat="47.41261" lon="2.57402">
        <ele>319.2</ele>
        <time>2024-05-08T08:37:12Z</time>
      </trkpt>
      <trkpt lat="47.41279" lon="2.57384">
        <ele>318.2</ele>
        <time>2024-05-08T08:37:15Z</time>
      </trkpt>
      <trkpt lat="47.41292" lon="2.57369">
        <ele>317.6</ele>
        <time>2024-05-08T08:37:17Z</time>
      </trkpt>
      <trkpt lat="47.41297" lon="2.57363">
        <ele>317.4</ele>
        <time>2024-05-08T08:37:18Z</time>
      </trkpt>
      <trkpt lat="47.4131" lon="2.57347">
        <ele>317.2</ele>
        <time>2024-05-08T08:37:20Z</time>
      </trkpt>
      <trkpt lat="47.41321" lon="2.57335">
        <ele>317</ele>
        <time>2024-05-08T08:37:22Z</time>
      </trkpt>
      <trkpt lat="47.41333" lon="2.57321">
        <ele>316.6</ele>
        <time>2024-05-08T08:37:24Z</time>
      </trkpt>
      <trkpt lat="47.4135" lon="2.57302">
        <ele>316.2</ele>
        <time>2024-05-08T08:37:27Z</time>
      </trkpt>
      <trkpt lat="47.41364" lon="2.57289">
        <ele>316</ele>
        <time>2024-05-08T08:37:29Z</time>
      </trkpt>
      <trkpt lat="47.4137" lon="2.57281">
        <ele>315.8</ele>
        <time>2024-05-08T08:37:30Z</time>
      </trkpt>
      <trkpt lat="47.41383" lon="2.57267">
        <ele>315.6</ele>
        <time>2024-05-08T08:37:32Z</time>
      </trkpt>
      <trkpt lat="47.41396" lon="2.5725">
        <ele>315.4</ele>
        <time>2024-05-08T08:37:34Z</time>
      </trkpt>
      <trkpt lat="47.41405" lon="2.57235">
        <ele>315</ele>
        <time>2024-05-08T08:37:36Z</time>
      </trkpt>
      <trkpt lat="47.41411" lon="2.57227">
        <ele>314.8</ele>
        <time>2024-05-08T08:37:37Z</time>
      </trkpt>
      <trkpt lat="47.41445" lon="2.57189">
        <ele>313.8</ele>
        <time>2024-05-08T08:37:42Z</time>
      </trkpt>
      <trkpt lat="47.41457" lon="2.57173">
        <ele>313.4</ele>
        <time>2024-05-08T08:37:44Z</time>
      </trkpt>
      <trkpt lat="47.41478" lon="2.57147">
        <ele>312.8</ele>
        <time>2024-05-08T08:37:47Z</time>
      </trkpt>
      <trkpt lat="47.41488" lon="2.57132">
        <ele>312.2</ele>
        <time>2024-05-08T08:37:49Z</time>
      </trkpt>
      <trkpt lat="47.4151" lon="2.57105">
        <ele>311.6</ele>
        <time>2024-05-08T08:37:53Z</time>
      </trkpt>
      <trkpt lat="47.4153" lon="2.57082">
        <ele>311.4</ele>
        <time>2024-05-08T08:37:56Z</time>
      </trkpt>
      <trkpt lat="47.41558" lon="2.57053">
        <ele>310.2</ele>
        <time>2024-05-08T08:38:00Z</time>
      </trkpt>
      <trkpt lat="47.4158" lon="2.57036">
        <ele>309.2</ele>
        <time>2024-05-08T08:38:03Z</time>
      </trkpt>
      <trkpt lat="47.41585" lon="2.57031">
        <ele>308.6</ele>
        <time>2024-05-08T08:38:04Z</time>
      </trkpt>
      <trkpt lat="47.41587" lon="2.57028">
        <ele>308.2</ele>
        <time>2024-05-08T08:38:05Z</time>
      </trkpt>
      <trkpt lat="47.4159" lon="2.57025">
        <ele>307.8</ele>
        <time>2024-05-08T08:38:06Z</time>
      </trkpt>
      <trkpt lat="47.41597" lon="2.57017">
        <ele>307.2</ele>
        <time>2024-05-08T08:38:08Z</time>
      </trkpt>
      <trkpt lat="47.41604" lon="2.57004">
        <ele>306.8</ele>
        <time>2024-05-08T08:38:10Z</time>
      </trkpt>
      <trkpt lat="47.41609" lon="2.56996">
        <ele>306.6</ele>
        <time>2024-05-08T08:38:11Z</time>
      </trkpt>
      <trkpt lat="47.41626" lon="2.56972">
        <ele>306.2</ele>
        <time>2024-05-08T08:38:15Z</time>
      </trkpt>
      <trkpt lat="47.4166" lon="2.56931">
        <ele>305.6</ele>
        <time>2024-05-08T08:38:21Z</time>
      </trkpt>
      <trkpt lat="47.41671" lon="2.56919">
        <ele>305.4</ele>
        <time>2024-05-08T08:38:23Z</time>
      </trkpt>
      <trkpt lat="47.41685" lon="2.56905">
        <ele>305.2</ele>
        <time>2024-05-08T08:38:25Z</time>
      </trkpt>
      <trkpt lat="47.41698" lon="2.56891">
        <ele>304.6</ele>
        <time>2024-05-08T08:38:27Z</time>
      </trkpt>
      <trkpt lat="47.41704" lon="2.56885">
        <ele>304.4</ele>
        <time>2024-05-08T08:38:28Z</time>
      </trkpt>
      <trkpt lat="47.4171" lon="2.56877">
        <ele>304.2</ele>
        <time>2024-05-08T08:38:29Z</time>
      </trkpt>
      <trkpt lat="47.41721" lon="2.56862">
        <ele>304</ele>
        <time>2024-05-08T08:38:31Z</time>
      </trkpt>
      <trkpt lat="47.41729" lon="2.56855">
        <ele>303.6</ele>
        <time>2024-05-08T08:38:32Z</time>
      </trkpt>
      <trkpt lat="47.41741" lon="2.56845">
        <ele>303.4</ele>
        <time>2024-05-08T08:38:34Z</time>
      </trkpt>
      <trkpt lat="47.41753" lon="2.56829">
        <ele>303</ele>
        <time>2024-05-08T08:38:36Z</time>
      </trkpt>
      <trkpt lat="47.41779" lon="2.56794">
        <ele>302.8</ele>
        <time>2024-05-08T08:38:41Z</time>
      </trkpt>
      <trkpt lat="47.41787" lon="2.5678">
        <ele>302.6</ele>
        <time>2024-05-08T08:38:43Z</time>
      </trkpt>
      <trkpt lat="47.41802" lon="2.56764">
        <ele>302.2</ele>
        <time>2024-05-08T08:38:45Z</time>
      </trkpt>
      <trkpt lat="47.41834" lon="2.56731">
        <ele>301.6</ele>
        <time>2024-05-08T08:38:50Z</time>
      </trkpt>
      <trkpt lat="47.41871" lon="2.56685">
        <ele>301.2</ele>
        <time>2024-05-08T08:38:56Z</time>
      </trkpt>
      <trkpt lat="47.41882" lon="2.56671">
        <ele>301</ele>
        <time>2024-05-08T08:38:58Z</time>
      </trkpt>
      <trkpt lat="47.41925" lon="2.56621">
        <ele>300.2</ele>
        <time>2024-05-08T08:39:05Z</time>
      </trkpt>
      <trkpt lat="47.41931" lon="2.56614">
        <ele>300.2</ele>
        <time>2024-05-08T08:39:06Z</time>
      </trkpt>
      <trkpt lat="47.41976" lon="2.5656">
        <ele>300</ele>
        <time>2024-05-08T08:39:14Z</time>
      </trkpt>
      <trkpt lat="47.41982" lon="2.56553">
        <ele>300</ele>
        <time>2024-05-08T08:39:15Z</time>
      </trkpt>
      <trkpt lat="47.42029" lon="2.56495">
        <ele>299.6</ele>
        <time>2024-05-08T08:39:23Z</time>
      </trkpt>
      <trkpt lat="47.42047" lon="2.56473">
        <ele>299.2</ele>
        <time>2024-05-08T08:39:26Z</time>
      </trkpt>
      <trkpt lat="47.42071" lon="2.56446">
        <ele>298.6</ele>
        <time>2024-05-08T08:39:30Z</time>
      </trkpt>
      <trkpt lat="47.42095" lon="2.56417">
        <ele>298</ele>
        <time>2024-05-08T08:39:34Z</time>
      </trkpt>
      <trkpt lat="47.42126" lon="2.56379">
        <ele>297.4</ele>
        <time>2024-05-08T08:39:39Z</time>
      </trkpt>
      <trkpt lat="47.42133" lon="2.5637">
        <ele>297</ele>
        <time>2024-05-08T08:39:40Z</time>
      </trkpt>
      <trkpt lat="47.42159" lon="2.5634">
        <ele>296.4</ele>
        <time>2024-05-08T08:39:44Z</time>
      </trkpt>
      <trkpt lat="47.42189" lon="2.56305">
        <ele>296</ele>
        <time>2024-05-08T08:39:49Z</time>
      </trkpt>
      <trkpt lat="47.42201" lon="2.5629">
        <ele>295.8</ele>
        <time>2024-05-08T08:39:51Z</time>
      </trkpt>
      <trkpt lat="47.42248" lon="2.56233">
        <ele>295.2</ele>
        <time>2024-05-08T08:39:59Z</time>
      </trkpt>
      <trkpt lat="47.42255" lon="2.56225">
        <ele>295.2</ele>
        <time>2024-05-08T08:40:00Z</time>
      </trkpt>
      <trkpt lat="47.42266" lon="2.56213">
        <ele>295</ele>
        <time>2024-05-08T08:40:02Z</time>
      </trkpt>
      <trkpt lat="47.42295" lon="2.5618">
        <ele>294.8</ele>
        <time>2024-05-08T08:40:07Z</time>
      </trkpt>
      <trkpt lat="47.42335" lon="2.56133">
        <ele>294.4</ele>
        <time>2024-05-08T08:40:15Z</time>
      </trkpt>
      <trkpt lat="47.42367" lon="2.56095">
        <ele>294.8</ele>
        <time>2024-05-08T08:40:22Z</time>
      </trkpt>
      <trkpt lat="47.42383" lon="2.56076">
        <ele>295.2</ele>
        <time>2024-05-08T08:40:26Z</time>
      </trkpt>
      <trkpt lat="47.42387" lon="2.56071">
        <ele>295.4</ele>
        <time>2024-05-08T08:40:27Z</time>
      </trkpt>
      <trkpt lat="47.42403" lon="2.56053">
        <ele>296</ele>
        <time>2024-05-08T08:40:31Z</time>
      </trkpt>
      <trkpt lat="47.42415" lon="2.5604">
        <ele>296.2</ele>
        <time>2024-05-08T08:40:34Z</time>
      </trkpt>
      <trkpt lat="47.42424" lon="2.56031">
        <ele>296.4</ele>
        <time>2024-05-08T08:40:36Z</time>
      </trkpt>
      <trkpt lat="47.42443" lon="2.56006">
        <ele>297</ele>
        <time>2024-05-08T08:40:41Z</time>
      </trkpt>
      <trkpt lat="47.42456" lon="2.55993">
        <ele>297.2</ele>
        <time>2024-05-08T08:40:44Z</time>
      </trkpt>
      <trkpt lat="47.42466" lon="2.5598">
        <ele>297.6</ele>
        <time>2024-05-08T08:40:47Z</time>
      </trkpt>
      <trkpt lat="47.42478" lon="2.55966">
        <ele>298.2</ele>
        <time>2024-05-08T08:40:50Z</time>
      </trkpt>
      <trkpt lat="47.42499" lon="2.5594">
        <ele>299.4</ele>
        <time>2024-05-08T08:40:56Z</time>
      </trkpt>
      <trkpt lat="47.42519" lon="2.55917">
        <ele>300.8</ele>
        <time>2024-05-08T08:41:01Z</time>
      </trkpt>
      <trkpt lat="47.42536" lon="2.55898">
        <ele>301.4</ele>
        <time>2024-05-08T08:41:05Z</time>
      </trkpt>
      <trkpt lat="47.42542" lon="2.5589">
        <ele>301.8</ele>
        <time>2024-05-08T08:41:07Z</time>
      </trkpt>
      <trkpt lat="47.42571" lon="2.55856">
        <ele>302.6</ele>
        <time>2024-05-08T08:41:14Z</time>
      </trkpt>
      <trkpt lat="47.42574" lon="2.55853">
        <ele>303</ele>
        <time>2024-05-08T08:41:15Z</time>
      </trkpt>
      <trkpt lat="47.4261" lon="2.55809">
        <ele>304</ele>
        <time>2024-05-08T08:41:24Z</time>
      </trkpt>
      <trkpt lat="47.42641" lon="2.55771">
        <ele>305</ele>
        <time>2024-05-08T08:41:32Z</time>
      </trkpt>
      <trkpt lat="47.42646" lon="2.55766">
        <ele>305.2</ele>
        <time>2024-05-08T08:41:33Z</time>
      </trkpt>
      <trkpt lat="47.42684" lon="2.55722">
        <ele>306</ele>
        <time>2024-05-08T08:41:42Z</time>
      </trkpt>
      <trkpt lat="47.42692" lon="2.55712">
        <ele>306</ele>
        <time>2024-05-08T08:41:44Z</time>
      </trkpt>
      <trkpt lat="47.42714" lon="2.55686">
        <ele>306.2</ele>
        <time>2024-05-08T08:41:49Z</time>
      </trkpt>
      <trkpt lat="47.42748" lon="2.55645">
        <ele>306.4</ele>
        <time>2024-05-08T08:41:56Z</time>
      </trkpt>
      <trkpt lat="47.42789" lon="2.55599">
        <ele>306.2</ele>
        <time>2024-05-08T08:42:04Z</time>
      </trkpt>
      <trkpt lat="47.42833" lon="2.55547">
        <ele>306</ele>
        <time>2024-05-08T08:42:13Z</time>
      </trkpt>
      <trkpt lat="47.42843" lon="2.55535">
        <ele>306</ele>
        <time>2024-05-08T08:42:15Z</time>
      </trkpt>
      <trkpt lat="47.42876" lon="2.55497">
        <ele>305.4</ele>
        <time>2024-05-08T08:42:21Z</time>
      </trkpt>
      <trkpt lat="47.42887" lon="2.55483">
        <ele>305</ele>
        <time>2024-05-08T08:42:23Z</time>
      </trkpt>
      <trkpt lat="47.42912" lon="2.55454">
        <ele>304.6</ele>
        <time>2024-05-08T08:42:27Z</time>
      </trkpt>
      <trkpt lat="47.42937" lon="2.55423">
        <ele>304</ele>
        <time>2024-05-08T08:42:31Z</time>
      </trkpt>
      <trkpt lat="47.42942" lon="2.55418">
        <ele>303.8</ele>
        <time>2024-05-08T08:42:32Z</time>
      </trkpt>
      <trkpt lat="47.42967" lon="2.5539">
        <ele>302.8</ele>
        <time>2024-05-08T08:42:36Z</time>
      </trkpt>
      <trkpt lat="47.42984" lon="2.55368">
        <ele>302.4</ele>
        <time>2024-05-08T08:42:39Z</time>
      </trkpt>
      <trkpt lat="47.43009" lon="2.5534">
        <ele>301.8</ele>
        <time>2024-05-08T08:42:43Z</time>
      </trkpt>
      <trkpt lat="47.43021" lon="2.55326">
        <ele>301.4</ele>
        <time>2024-05-08T08:42:45Z</time>
      </trkpt>
      <trkpt lat="47.43063" lon="2.55277">
        <ele>301</ele>
        <time>2024-05-08T08:42:52Z</time>
      </trkpt>
      <trkpt lat="47.4308" lon="2.55258">
        <ele>300.6</ele>
        <time>2024-05-08T08:42:55Z</time>
      </trkpt>
      <trkpt lat="47.43091" lon="2.55245">
        <ele>300.6</ele>
        <time>2024-05-08T08:42:57Z</time>
      </trkpt>
      <trkpt lat="47.43138" lon="2.55191">
        <ele>300.4</ele>
        <time>2024-05-08T08:43:05Z</time>
      </trkpt>
      <trkpt lat="47.43185" lon="2.55136">
        <ele>300.2</ele>
        <time>2024-05-08T08:43:13Z</time>
      </trkpt>
      <trkpt lat="47.43229" lon="2.55086">
        <ele>300</ele>
        <time>2024-05-08T08:43:21Z</time>
      </trkpt>
      <trkpt lat="47.43239" lon="2.55074">
        <ele>300.4</ele>
        <time>2024-05-08T08:43:23Z</time>
      </trkpt>
      <trkpt lat="47.4328" lon="2.55026">
        <ele>300.4</ele>
        <time>2024-05-08T08:43:31Z</time>
      </trkpt>
      <trkpt lat="47.43322" lon="2.54978">
        <ele>300.4</ele>
        <time>2024-05-08T08:43:38Z</time>
      </trkpt>
      <trkpt lat="47.4337" lon="2.54923">
        <ele>299.6</ele>
        <time>2024-05-08T08:43:46Z</time>
      </trkpt>
      <trkpt lat="47.43375" lon="2.54917">
        <ele>299.4</ele>
        <time>2024-05-08T08:43:47Z</time>
      </trkpt>
      <trkpt lat="47.43411" lon="2.54876">
        <ele>298.6</ele>
        <time>2024-05-08T08:43:53Z</time>
      </trkpt>
      <trkpt lat="47.43431" lon="2.54853">
        <ele>298.4</ele>
        <time>2024-05-08T08:43:56Z</time>
      </trkpt>
      <trkpt lat="47.43454" lon="2.54827">
        <ele>298.4</ele>
        <time>2024-05-08T08:44:00Z</time>
      </trkpt>
      <trkpt lat="47.43497" lon="2.54776">
        <ele>297.6</ele>
        <time>2024-05-08T08:44:07Z</time>
      </trkpt>
      <trkpt lat="47.43502" lon="2.54768">
        <ele>297.4</ele>
        <time>2024-05-08T08:44:08Z</time>
      </trkpt>
      <trkpt lat="47.43508" lon="2.54761">
        <ele>297.4</ele>
        <time>2024-05-08T08:44:09Z</time>
      </trkpt>
      <trkpt lat="47.43532" lon="2.54731">
        <ele>297</ele>
        <time>2024-05-08T08:44:13Z</time>
      </trkpt>
      <trkpt lat="47.43564" lon="2.54694">
        <ele>296.2</ele>
        <time>2024-05-08T08:44:18Z</time>
      </trkpt>
      <trkpt lat="47.43593" lon="2.5466">
        <ele>295.6</ele>
        <time>2024-05-08T08:44:23Z</time>
      </trkpt>
      <trkpt lat="47.43617" lon="2.54633">
        <ele>294.8</ele>
        <time>2024-05-08T08:44:27Z</time>
      </trkpt>
      <trkpt lat="47.43641" lon="2.54604">
        <ele>294.6</ele>
        <time>2024-05-08T08:44:31Z</time>
      </trkpt>
      <trkpt lat="47.43672" lon="2.54568">
        <ele>293.6</ele>
        <time>2024-05-08T08:44:36Z</time>
      </trkpt>
      <trkpt lat="47.43708" lon="2.54526">
        <ele>292.6</ele>
        <time>2024-05-08T08:44:42Z</time>
      </trkpt>
      <trkpt lat="47.43755" lon="2.5447">
        <ele>291.8</ele>
        <time>2024-05-08T08:44:50Z</time>
      </trkpt>
      <trkpt lat="47.43767" lon="2.54456">
        <ele>291.6</ele>
        <time>2024-05-08T08:44:52Z</time>
      </trkpt>
      <trkpt lat="47.43815" lon="2.54399">
        <ele>290.8</ele>
        <time>2024-05-08T08:45:00Z</time>
      </trkpt>
      <trkpt lat="47.43827" lon="2.54386">
        <ele>290.6</ele>
        <time>2024-05-08T08:45:02Z</time>
      </trkpt>
      <trkpt lat="47.43838" lon="2.54372">
        <ele>290.4</ele>
        <time>2024-05-08T08:45:04Z</time>
      </trkpt>
      <trkpt lat="47.43879" lon="2.54323">
        <ele>289.4</ele>
        <time>2024-05-08T08:45:11Z</time>
      </trkpt>
      <trkpt lat="47.43892" lon="2.54308">
        <ele>289</ele>
        <time>2024-05-08T08:45:13Z</time>
      </trkpt>
      <trkpt lat="47.43921" lon="2.54275">
        <ele>288.4</ele>
        <time>2024-05-08T08:45:18Z</time>
      </trkpt>
      <trkpt lat="47.43942" lon="2.54249">
        <ele>288.4</ele>
        <time>2024-05-08T08:45:22Z</time>
      </trkpt>
      <trkpt lat="47.43977" lon="2.54207">
        <ele>287.4</ele>
        <time>2024-05-08T08:45:28Z</time>
      </trkpt>
      <trkpt lat="47.44006" lon="2.54172">
        <ele>286.6</ele>
        <time>2024-05-08T08:45:33Z</time>
      </trkpt>
      <trkpt lat="47.44023" lon="2.54152">
        <ele>286.4</ele>
        <time>2024-05-08T08:45:36Z</time>
      </trkpt>
      <trkpt lat="47.4407" lon="2.54096">
        <ele>285.8</ele>
        <time>2024-05-08T08:45:44Z</time>
      </trkpt>
      <trkpt lat="47.44088" lon="2.54076">
        <ele>285.2</ele>
        <time>2024-05-08T08:45:47Z</time>
      </trkpt>
      <trkpt lat="47.44134" lon="2.54022">
        <ele>284.8</ele>
        <time>2024-05-08T08:45:55Z</time>
      </trkpt>
      <trkpt lat="47.4414" lon="2.54016">
        <ele>284.8</ele>
        <time>2024-05-08T08:45:56Z</time>
      </trkpt>
      <trkpt lat="47.44188" lon="2.5396">
        <ele>284.2</ele>
        <time>2024-05-08T08:46:04Z</time>
      </trkpt>
      <trkpt lat="47.442" lon="2.53946">
        <ele>284</ele>
        <time>2024-05-08T08:46:06Z</time>
      </trkpt>
      <trkpt lat="47.44243" lon="2.53897">
        <ele>283</ele>
        <time>2024-05-08T08:46:13Z</time>
      </trkpt>
      <trkpt lat="47.4425" lon="2.53891">
        <ele>283</ele>
        <time>2024-05-08T08:46:14Z</time>
      </trkpt>
      <trkpt lat="47.44256" lon="2.53884">
        <ele>283</ele>
        <time>2024-05-08T08:46:15Z</time>
      </trkpt>
      <trkpt lat="47.44304" lon="2.53827">
        <ele>282.4</ele>
        <time>2024-05-08T08:46:23Z</time>
      </trkpt>
      <trkpt lat="47.4431" lon="2.5382">
        <ele>282.4</ele>
        <time>2024-05-08T08:46:24Z</time>
      </trkpt>
      <trkpt lat="47.44346" lon="2.53778">
        <ele>281.8</ele>
        <time>2024-05-08T08:46:30Z</time>
      </trkpt>
      <trkpt lat="47.44376" lon="2.53743">
        <ele>281.4</ele>
        <time>2024-05-08T08:46:35Z</time>
      </trkpt>
      <trkpt lat="47.44424" lon="2.53686">
        <ele>280.8</ele>
        <time>2024-05-08T08:46:43Z</time>
      </trkpt>
      <trkpt lat="47.44441" lon="2.53665">
        <ele>280.4</ele>
        <time>2024-05-08T08:46:46Z</time>
      </trkpt>
      <trkpt lat="47.44488" lon="2.53611">
        <ele>280.2</ele>
        <time>2024-05-08T08:46:54Z</time>
      </trkpt>
      <trkpt lat="47.44506" lon="2.5359">
        <ele>280.2</ele>
        <time>2024-05-08T08:46:57Z</time>
      </trkpt>
      <trkpt lat="47.44524" lon="2.53569">
        <ele>279.6</ele>
        <time>2024-05-08T08:47:00Z</time>
      </trkpt>
      <trkpt lat="47.4457" lon="2.53513">
        <ele>278.8</ele>
        <time>2024-05-08T08:47:08Z</time>
      </trkpt>
      <trkpt lat="47.44582" lon="2.53499">
        <ele>278.4</ele>
        <time>2024-05-08T08:47:10Z</time>
      </trkpt>
      <trkpt lat="47.44629" lon="2.53444">
        <ele>278</ele>
        <time>2024-05-08T08:47:18Z</time>
      </trkpt>
      <trkpt lat="47.44647" lon="2.53423">
        <ele>277.6</ele>
        <time>2024-05-08T08:47:21Z</time>
      </trkpt>
      <trkpt lat="47.44693" lon="2.53369">
        <ele>276.8</ele>
        <time>2024-05-08T08:47:29Z</time>
      </trkpt>
      <trkpt lat="47.44704" lon="2.53355">
        <ele>276.6</ele>
        <time>2024-05-08T08:47:31Z</time>
      </trkpt>
      <trkpt lat="47.44751" lon="2.53301">
        <ele>275.6</ele>
        <time>2024-05-08T08:47:39Z</time>
      </trkpt>
      <trkpt lat="47.44763" lon="2.53287">
        <ele>275.6</ele>
        <time>2024-05-08T08:47:41Z</time>
      </trkpt>
      <trkpt lat="47.44768" lon="2.53281">
        <ele>275.4</ele>
        <time>2024-05-08T08:47:42Z</time>
      </trkpt>
      <trkpt lat="47.4481" lon="2.53232">
        <ele>274.4</ele>
        <time>2024-05-08T08:47:49Z</time>
      </trkpt>
      <trkpt lat="47.44828" lon="2.5321">
        <ele>274</ele>
        <time>2024-05-08T08:47:52Z</time>
      </trkpt>
      <trkpt lat="47.44871" lon="2.53159">
        <ele>273.4</ele>
        <time>2024-05-08T08:47:59Z</time>
      </trkpt>
      <trkpt lat="47.44891" lon="2.53137">
        <ele>273.4</ele>
        <time>2024-05-08T08:48:02Z</time>
      </trkpt>
      <trkpt lat="47.44897" lon="2.5313">
        <ele>273.2</ele>
        <time>2024-05-08T08:48:03Z</time>
      </trkpt>
      <trkpt lat="47.44928" lon="2.53093">
        <ele>272.4</ele>
        <time>2024-05-08T08:48:08Z</time>
      </trkpt>
      <trkpt lat="47.44958" lon="2.53058">
        <ele>272.2</ele>
        <time>2024-05-08T08:48:13Z</time>
      </trkpt>
      <trkpt lat="47.45005" lon="2.53003">
        <ele>272</ele>
        <time>2024-05-08T08:48:21Z</time>
      </trkpt>
      <trkpt lat="47.45016" lon="2.52989">
        <ele>272</ele>
        <time>2024-05-08T08:48:23Z</time>
      </trkpt>
      <trkpt lat="47.45057" lon="2.52941">
        <ele>271.6</ele>
        <time>2024-05-08T08:48:30Z</time>
      </trkpt>
      <trkpt lat="47.45102" lon="2.52889">
        <ele>271.4</ele>
        <time>2024-05-08T08:48:38Z</time>
      </trkpt>
      <trkpt lat="47.45107" lon="2.52883">
        <ele>271.4</ele>
        <time>2024-05-08T08:48:39Z</time>
      </trkpt>
      <trkpt lat="47.45154" lon="2.52827">
        <ele>271.6</ele>
        <time>2024-05-08T08:48:48Z</time>
      </trkpt>
      <trkpt lat="47.452" lon="2.52773">
        <ele>271.8</ele>
        <time>2024-05-08T08:48:57Z</time>
      </trkpt>
      <trkpt lat="47.4521" lon="2.52761">
        <ele>271.8</ele>
        <time>2024-05-08T08:48:59Z</time>
      </trkpt>
      <trkpt lat="47.45257" lon="2.52705">
        <ele>271.8</ele>
        <time>2024-05-08T08:49:08Z</time>
      </trkpt>
      <trkpt lat="47.45273" lon="2.52687">
        <ele>271.8</ele>
        <time>2024-05-08T08:49:11Z</time>
      </trkpt>
      <trkpt lat="47.45321" lon="2.52632">
        <ele>271.8</ele>
        <time>2024-05-08T08:49:20Z</time>
      </trkpt>
      <trkpt lat="47.45331" lon="2.5262">
        <ele>271.6</ele>
        <time>2024-05-08T08:49:22Z</time>
      </trkpt>
      <trkpt lat="47.4537" lon="2.52575">
        <ele>271.4</ele>
        <time>2024-05-08T08:49:29Z</time>
      </trkpt>
      <trkpt lat="47.45399" lon="2.52541">
        <ele>270.8</ele>
        <time>2024-05-08T08:49:34Z</time>
      </trkpt>
      <trkpt lat="47.45411" lon="2.52528">
        <ele>270.4</ele>
        <time>2024-05-08T08:49:36Z</time>
      </trkpt>
      <trkpt lat="47.45447" lon="2.52487">
        <ele>270</ele>
        <time>2024-05-08T08:49:42Z</time>
      </trkpt>
      <trkpt lat="47.45465" lon="2.52465">
        <ele>269.4</ele>
        <time>2024-05-08T08:49:45Z</time>
      </trkpt>
      <trkpt lat="47.45484" lon="2.52443">
        <ele>268.8</ele>
        <time>2024-05-08T08:49:48Z</time>
      </trkpt>
      <trkpt lat="47.45497" lon="2.52427">
        <ele>268.4</ele>
        <time>2024-05-08T08:49:50Z</time>
      </trkpt>
      <trkpt lat="47.45536" lon="2.52381">
        <ele>267.2</ele>
        <time>2024-05-08T08:49:56Z</time>
      </trkpt>
      <trkpt lat="47.45551" lon="2.52364">
        <ele>266.4</ele>
        <time>2024-05-08T08:49:58Z</time>
      </trkpt>
      <trkpt lat="47.45563" lon="2.52348">
        <ele>265.8</ele>
        <time>2024-05-08T08:50:00Z</time>
      </trkpt>
      <trkpt lat="47.45591" lon="2.52316">
        <ele>264.8</ele>
        <time>2024-05-08T08:50:04Z</time>
      </trkpt>
      <trkpt lat="47.45613" lon="2.52291">
        <ele>263.6</ele>
        <time>2024-05-08T08:50:07Z</time>
      </trkpt>
      <trkpt lat="47.45649" lon="2.52248">
        <ele>262.2</ele>
        <time>2024-05-08T08:50:12Z</time>
      </trkpt>
      <trkpt lat="47.45671" lon="2.52222">
        <ele>261</ele>
        <time>2024-05-08T08:50:15Z</time>
      </trkpt>
      <trkpt lat="47.45693" lon="2.52197">
        <ele>259.8</ele>
        <time>2024-05-08T08:50:18Z</time>
      </trkpt>
      <trkpt lat="47.45715" lon="2.52171">
        <ele>258.6</ele>
        <time>2024-05-08T08:50:21Z</time>
      </trkpt>
      <trkpt lat="47.45737" lon="2.52144">
        <ele>257.4</ele>
        <time>2024-05-08T08:50:24Z</time>
      </trkpt>
      <trkpt lat="47.4576" lon="2.52117">
        <ele>256</ele>
        <time>2024-05-08T08:50:27Z</time>
      </trkpt>
      <trkpt lat="47.45775" lon="2.521">
        <ele>255</ele>
        <time>2024-05-08T08:50:29Z</time>
      </trkpt>
      <trkpt lat="47.45797" lon="2.52073">
        <ele>253.8</ele>
        <time>2024-05-08T08:50:32Z</time>
      </trkpt>
      <trkpt lat="47.45819" lon="2.52047">
        <ele>252.6</ele>
        <time>2024-05-08T08:50:35Z</time>
      </trkpt>
      <trkpt lat="47.45841" lon="2.52021">
        <ele>251.2</ele>
        <time>2024-05-08T08:50:38Z</time>
      </trkpt>
      <trkpt lat="47.45856" lon="2.52003">
        <ele>250.2</ele>
        <time>2024-05-08T08:50:40Z</time>
      </trkpt>
      <trkpt lat="47.45878" lon="2.51978">
        <ele>249</ele>
        <time>2024-05-08T08:50:43Z</time>
      </trkpt>
      <trkpt lat="47.45884" lon="2.51969">
        <ele>248.8</ele>
        <time>2024-05-08T08:50:44Z</time>
      </trkpt>
      <trkpt lat="47.45912" lon="2.51937">
        <ele>248.2</ele>
        <time>2024-05-08T08:50:48Z</time>
      </trkpt>
      <trkpt lat="47.45947" lon="2.51896">
        <ele>247.4</ele>
        <time>2024-05-08T08:50:53Z</time>
      </trkpt>
      <trkpt lat="47.45961" lon="2.5188">
        <ele>246.6</ele>
        <time>2024-05-08T08:50:55Z</time>
      </trkpt>
      <trkpt lat="47.45998" lon="2.51837">
        <ele>245.2</ele>
        <time>2024-05-08T08:51:00Z</time>
      </trkpt>
      <trkpt lat="47.4602" lon="2.51811">
        <ele>243.8</ele>
        <time>2024-05-08T08:51:03Z</time>
      </trkpt>
      <trkpt lat="47.46027" lon="2.51802">
        <ele>243.6</ele>
        <time>2024-05-08T08:51:04Z</time>
      </trkpt>
      <trkpt lat="47.46042" lon="2.51785">
        <ele>242.4</ele>
        <time>2024-05-08T08:51:06Z</time>
      </trkpt>
      <trkpt lat="47.46065" lon="2.51759">
        <ele>241.2</ele>
        <time>2024-05-08T08:51:09Z</time>
      </trkpt>
      <trkpt lat="47.46095" lon="2.51723">
        <ele>239.8</ele>
        <time>2024-05-08T08:51:13Z</time>
      </trkpt>
      <trkpt lat="47.46102" lon="2.51714">
        <ele>239.6</ele>
        <time>2024-05-08T08:51:14Z</time>
      </trkpt>
      <trkpt lat="47.46124" lon="2.51689">
        <ele>238.6</ele>
        <time>2024-05-08T08:51:17Z</time>
      </trkpt>
      <trkpt lat="47.46154" lon="2.51654">
        <ele>237.4</ele>
        <time>2024-05-08T08:51:21Z</time>
      </trkpt>
      <trkpt lat="47.46182" lon="2.51619">
        <ele>235.8</ele>
        <time>2024-05-08T08:51:25Z</time>
      </trkpt>
      <trkpt lat="47.46209" lon="2.5157">
        <ele>235</ele>
        <time>2024-05-08T08:51:30Z</time>
      </trkpt>
      <trkpt lat="47.46225" lon="2.51531">
        <ele>234.8</ele>
        <time>2024-05-08T08:51:34Z</time>
      </trkpt>
      <trkpt lat="47.46231" lon="2.51512">
        <ele>234.8</ele>
        <time>2024-05-08T08:51:36Z</time>
      </trkpt>
      <trkpt lat="47.46248" lon="2.51445">
        <ele>234.8</ele>
        <time>2024-05-08T08:51:43Z</time>
      </trkpt>
      <trkpt lat="47.46259" lon="2.51382">
        <ele>235.2</ele>
        <time>2024-05-08T08:51:50Z</time>
      </trkpt>
      <trkpt lat="47.4627" lon="2.51326">
        <ele>235.8</ele>
        <time>2024-05-08T08:51:56Z</time>
      </trkpt>
      <trkpt lat="47.46275" lon="2.51299">
        <ele>236</ele>
        <time>2024-05-08T08:51:59Z</time>
      </trkpt>
      <trkpt lat="47.4628" lon="2.51281">
        <ele>236</ele>
        <time>2024-05-08T08:52:01Z</time>
      </trkpt>
      <trkpt lat="47.46284" lon="2.51264">
        <ele>236</ele>
        <time>2024-05-08T08:52:03Z</time>
      </trkpt>
      <trkpt lat="47.46294" lon="2.51215">
        <ele>236.6</ele>
        <time>2024-05-08T08:52:09Z</time>
      </trkpt>
      <trkpt lat="47.46297" lon="2.51198">
        <ele>237</ele>
        <time>2024-05-08T08:52:11Z</time>
      </trkpt>
      <trkpt lat="47.46303" lon="2.51175">
        <ele>237.4</ele>
        <time>2024-05-08T08:52:14Z</time>
      </trkpt>
      <trkpt lat="47.4631" lon="2.51139">
        <ele>238</ele>
        <time>2024-05-08T08:52:18Z</time>
      </trkpt>
      <trkpt lat="47.46315" lon="2.51115">
        <ele>238.4</ele>
        <time>2024-05-08T08:52:21Z</time>
      </trkpt>
      <trkpt lat="47.46319" lon="2.51089">
        <ele>238.8</ele>
        <time>2024-05-08T08:52:24Z</time>
      </trkpt>
      <trkpt lat="47.46322" lon="2.51072">
        <ele>239.2</ele>
        <time>2024-05-08T08:52:26Z</time>
      </trkpt>
      <trkpt lat="47.46323" lon="2.51064">
        <ele>239.2</ele>
        <time>2024-05-08T08:52:27Z</time>
      </trkpt>
      <trkpt lat="47.46333" lon="2.51013">
        <ele>240.2</ele>
        <time>2024-05-08T08:52:33Z</time>
      </trkpt>
      <trkpt lat="47.46336" lon="2.50996">
        <ele>240.4</ele>
        <time>2024-05-08T08:52:35Z</time>
      </trkpt>
      <trkpt lat="47.4635" lon="2.50923">
        <ele>240.6</ele>
        <time>2024-05-08T08:52:43Z</time>
      </trkpt>
      <trkpt lat="47.46365" lon="2.50854">
        <ele>240</ele>
        <time>2024-05-08T08:52:50Z</time>
      </trkpt>
      <trkpt lat="47.46367" lon="2.50843">
        <ele>240</ele>
        <time>2024-05-08T08:52:51Z</time>
      </trkpt>
      <trkpt lat="47.46376" lon="2.508">
        <ele>239.2</ele>
        <time>2024-05-08T08:52:55Z</time>
      </trkpt>
      <trkpt lat="47.46392" lon="2.50719">
        <ele>238</ele>
        <time>2024-05-08T08:53:02Z</time>
      </trkpt>
      <trkpt lat="47.46393" lon="2.50707">
        <ele>238</ele>
        <time>2024-05-08T08:53:03Z</time>
      </trkpt>
      <trkpt lat="47.46403" lon="2.50658">
        <ele>236.8</ele>
        <time>2024-05-08T08:53:07Z</time>
      </trkpt>
      <trkpt lat="47.46407" lon="2.50634">
        <ele>236.6</ele>
        <time>2024-05-08T08:53:09Z</time>
      </trkpt>
      <trkpt lat="47.46418" lon="2.50585">
        <ele>235.8</ele>
        <time>2024-05-08T08:53:13Z</time>
      </trkpt>
      <trkpt lat="47.46428" lon="2.50536">
        <ele>235</ele>
        <time>2024-05-08T08:53:17Z</time>
      </trkpt>
      <trkpt lat="47.46433" lon="2.50511">
        <ele>234.4</ele>
        <time>2024-05-08T08:53:19Z</time>
      </trkpt>
      <trkpt lat="47.46446" lon="2.50449">
        <ele>233.4</ele>
        <time>2024-05-08T08:53:24Z</time>
      </trkpt>
      <trkpt lat="47.46459" lon="2.50386">
        <ele>232.2</ele>
        <time>2024-05-08T08:53:29Z</time>
      </trkpt>
      <trkpt lat="47.46466" lon="2.50348">
        <ele>231.8</ele>
        <time>2024-05-08T08:53:32Z</time>
      </trkpt>
      <trkpt lat="47.46471" lon="2.50322">
        <ele>231.2</ele>
        <time>2024-05-08T08:53:34Z</time>
      </trkpt>
      <trkpt lat="47.46486" lon="2.5026">
        <ele>230</ele>
        <time>2024-05-08T08:53:39Z</time>
      </trkpt>
      <trkpt lat="47.46502" lon="2.502">
        <ele>228.8</ele>
        <time>2024-05-08T08:53:44Z</time>
      </trkpt>
      <trkpt lat="47.46504" lon="2.50188">
        <ele>228.6</ele>
        <time>2024-05-08T08:53:45Z</time>
      </trkpt>
      <trkpt lat="47.46512" lon="2.50149">
        <ele>227.6</ele>
        <time>2024-05-08T08:53:48Z</time>
      </trkpt>
      <trkpt lat="47.46519" lon="2.50093">
        <ele>226.4</ele>
        <time>2024-05-08T08:53:52Z</time>
      </trkpt>
      <trkpt lat="47.4652" lon="2.50079">
        <ele>225.8</ele>
        <time>2024-05-08T08:53:53Z</time>
      </trkpt>
      <trkpt lat="47.46523" lon="2.5005">
        <ele>225.2</ele>
        <time>2024-05-08T08:53:55Z</time>
      </trkpt>
      <trkpt lat="47.46525" lon="2.50006">
        <ele>224</ele>
        <time>2024-05-08T08:53:58Z</time>
      </trkpt>
      <trkpt lat="47.46526" lon="2.4999">
        <ele>223.8</ele>
        <time>2024-05-08T08:53:59Z</time>
      </trkpt>
      <trkpt lat="47.46529" lon="2.49943">
        <ele>222.8</ele>
        <time>2024-05-08T08:54:02Z</time>
      </trkpt>
      <trkpt lat="47.4653" lon="2.49913">
        <ele>221.4</ele>
        <time>2024-05-08T08:54:04Z</time>
      </trkpt>
      <trkpt lat="47.46531" lon="2.49882">
        <ele>220.4</ele>
        <time>2024-05-08T08:54:06Z</time>
      </trkpt>
      <trkpt lat="47.46532" lon="2.49868">
        <ele>219.6</ele>
        <time>2024-05-08T08:54:07Z</time>
      </trkpt>
      <trkpt lat="47.46532" lon="2.49853">
        <ele>219</ele>
        <time>2024-05-08T08:54:08Z</time>
      </trkpt>
      <trkpt lat="47.46534" lon="2.49798">
        <ele>218.2</ele>
        <time>2024-05-08T08:54:12Z</time>
      </trkpt>
      <trkpt lat="47.46537" lon="2.49727">
        <ele>218.2</ele>
        <time>2024-05-08T08:54:18Z</time>
      </trkpt>
      <trkpt lat="47.4654" lon="2.49655">
        <ele>219.2</ele>
        <time>2024-05-08T08:54:25Z</time>
      </trkpt>
      <trkpt lat="47.46542" lon="2.49599">
        <ele>220.2</ele>
        <time>2024-05-08T08:54:31Z</time>
      </trkpt>
      <trkpt lat="47.46543" lon="2.49545">
        <ele>221.2</ele>
        <time>2024-05-08T08:54:37Z</time>
      </trkpt>
      <trkpt lat="47.46543" lon="2.49536">
        <ele>221.2</ele>
        <time>2024-05-08T08:54:38Z</time>
      </trkpt>
      <trkpt lat="47.46546" lon="2.49486">
        <ele>222.2</ele>
        <time>2024-05-08T08:54:44Z</time>
      </trkpt>
      <trkpt lat="47.46546" lon="2.49478">
        <ele>222.4</ele>
        <time>2024-05-08T08:54:45Z</time>
      </trkpt>
      <trkpt lat="47.46547" lon="2.49426">
        <ele>223.2</ele>
        <time>2024-05-08T08:54:51Z</time>
      </trkpt>
      <trkpt lat="47.46547" lon="2.49409">
        <ele>223.4</ele>
        <time>2024-05-08T08:54:53Z</time>
      </trkpt>
      <trkpt lat="47.46549" lon="2.49365">
        <ele>224</ele>
        <time>2024-05-08T08:54:58Z</time>
      </trkpt>
      <trkpt lat="47.4655" lon="2.49337">
        <ele>224.4</ele>
        <time>2024-05-08T08:55:01Z</time>
      </trkpt>
      <trkpt lat="47.46553" lon="2.4929">
        <ele>224.6</ele>
        <time>2024-05-08T08:55:06Z</time>
      </trkpt>
      <trkpt lat="47.4656" lon="2.49222">
        <ele>224.2</ele>
        <time>2024-05-08T08:55:13Z</time>
      </trkpt>
      <trkpt lat="47.46568" lon="2.49153">
        <ele>224</ele>
        <time>2024-05-08T08:55:20Z</time>
      </trkpt>
      <trkpt lat="47.46577" lon="2.49069">
        <ele>223.6</ele>
        <time>2024-05-08T08:55:28Z</time>
      </trkpt>
      <trkpt lat="47.46582" lon="2.49025">
        <ele>223.2</ele>
        <time>2024-05-08T08:55:32Z</time>
      </trkpt>
      <trkpt lat="47.46592" lon="2.48937">
        <ele>222.6</ele>
        <time>2024-05-08T08:55:40Z</time>
      </trkpt>
      <trkpt lat="47.46595" lon="2.48915">
        <ele>222.4</ele>
        <time>2024-05-08T08:55:42Z</time>
      </trkpt>
      <trkpt lat="47.46605" lon="2.48828">
        <ele>221.6</ele>
        <time>2024-05-08T08:55:50Z</time>
      </trkpt>
      <trkpt lat="47.46608" lon="2.48806">
        <ele>221.4</ele>
        <time>2024-05-08T08:55:52Z</time>
      </trkpt>
      <trkpt lat="47.46612" lon="2.48785">
        <ele>221.2</ele>
        <time>2024-05-08T08:55:54Z</time>
      </trkpt>
      <trkpt lat="47.46628" lon="2.48724">
        <ele>221.2</ele>
        <time>2024-05-08T08:56:00Z</time>
      </trkpt>
      <trkpt lat="47.46659" lon="2.48648">
        <ele>220.4</ele>
        <time>2024-05-08T08:56:08Z</time>
      </trkpt>
      <trkpt lat="47.46668" lon="2.48628">
        <ele>220.2</ele>
        <time>2024-05-08T08:56:10Z</time>
      </trkpt>
      <trkpt lat="47.4669" lon="2.48574">
        <ele>219.2</ele>
        <time>2024-05-08T08:56:15Z</time>
      </trkpt>
      <trkpt lat="47.46694" lon="2.48563">
        <ele>219</ele>
        <time>2024-05-08T08:56:16Z</time>
      </trkpt>
      <trkpt lat="47.46709" lon="2.48529">
        <ele>217.8</ele>
        <time>2024-05-08T08:56:19Z</time>
      </trkpt>
      <trkpt lat="47.46728" lon="2.48481">
        <ele>216.4</ele>
        <time>2024-05-08T08:56:23Z</time>
      </trkpt>
      <trkpt lat="47.46754" lon="2.48417">
        <ele>214.4</ele>
        <time>2024-05-08T08:56:28Z</time>
      </trkpt>
      <trkpt lat="47.46766" lon="2.48392">
        <ele>213.2</ele>
        <time>2024-05-08T08:56:30Z</time>
      </trkpt>
      <trkpt lat="47.46779" lon="2.48368">
        <ele>211.8</ele>
        <time>2024-05-08T08:56:32Z</time>
      </trkpt>
      <trkpt lat="47.46792" lon="2.48346">
        <ele>210.6</ele>
        <time>2024-05-08T08:56:34Z</time>
      </trkpt>
      <trkpt lat="47.46806" lon="2.48323">
        <ele>209.4</ele>
        <time>2024-05-08T08:56:36Z</time>
      </trkpt>
      <trkpt lat="47.46819" lon="2.48301">
        <ele>208.4</ele>
        <time>2024-05-08T08:56:38Z</time>
      </trkpt>
      <trkpt lat="47.46846" lon="2.48258">
        <ele>207</ele>
        <time>2024-05-08T08:56:42Z</time>
      </trkpt>
      <trkpt lat="47.46872" lon="2.48216">
        <ele>205.8</ele>
        <time>2024-05-08T08:56:46Z</time>
      </trkpt>
      <trkpt lat="47.46891" lon="2.48185">
        <ele>204.6</ele>
        <time>2024-05-08T08:56:49Z</time>
      </trkpt>
      <trkpt lat="47.4692" lon="2.48134">
        <ele>203.6</ele>
        <time>2024-05-08T08:56:54Z</time>
      </trkpt>
      <trkpt lat="47.46932" lon="2.48113">
        <ele>203.2</ele>
        <time>2024-05-08T08:56:56Z</time>
      </trkpt>
      <trkpt lat="47.46942" lon="2.48091">
        <ele>202.4</ele>
        <time>2024-05-08T08:56:58Z</time>
      </trkpt>
      <trkpt lat="47.46971" lon="2.48024">
        <ele>201.8</ele>
        <time>2024-05-08T08:57:04Z</time>
      </trkpt>
      <trkpt lat="47.46976" lon="2.48014">
        <ele>201.4</ele>
        <time>2024-05-08T08:57:05Z</time>
      </trkpt>
      <trkpt lat="47.46999" lon="2.4796">
        <ele>200.2</ele>
        <time>2024-05-08T08:57:10Z</time>
      </trkpt>
      <trkpt lat="47.47013" lon="2.47928">
        <ele>199.6</ele>
        <time>2024-05-08T08:57:13Z</time>
      </trkpt>
      <trkpt lat="47.4704" lon="2.47864">
        <ele>199</ele>
        <time>2024-05-08T08:57:19Z</time>
      </trkpt>
      <trkpt lat="47.47054" lon="2.47834">
        <ele>198.4</ele>
        <time>2024-05-08T08:57:22Z</time>
      </trkpt>
      <trkpt lat="47.47071" lon="2.47792">
        <ele>198</ele>
        <time>2024-05-08T08:57:26Z</time>
      </trkpt>
      <trkpt lat="47.47083" lon="2.4776">
        <ele>197.4</ele>
        <time>2024-05-08T08:57:29Z</time>
      </trkpt>
      <trkpt lat="47.47109" lon="2.47697">
        <ele>196.8</ele>
        <time>2024-05-08T08:57:35Z</time>
      </trkpt>
      <trkpt lat="47.47125" lon="2.47654">
        <ele>196.4</ele>
        <time>2024-05-08T08:57:39Z</time>
      </trkpt>
      <trkpt lat="47.47142" lon="2.47612">
        <ele>195.8</ele>
        <time>2024-05-08T08:57:43Z</time>
      </trkpt>
      <trkpt lat="47.47171" lon="2.47538">
        <ele>195.2</ele>
        <time>2024-05-08T08:57:50Z</time>
      </trkpt>
      <trkpt lat="47.47175" lon="2.47528">
        <ele>195</ele>
        <time>2024-05-08T08:57:51Z</time>
      </trkpt>
      <trkpt lat="47.47191" lon="2.47485">
        <ele>194.8</ele>
        <time>2024-05-08T08:57:55Z</time>
      </trkpt>
      <trkpt lat="47.47219" lon="2.47412">
        <ele>194.2</ele>
        <time>2024-05-08T08:58:02Z</time>
      </trkpt>
      <trkpt lat="47.47238" lon="2.47362">
        <ele>193.6</ele>
        <time>2024-05-08T08:58:07Z</time>
      </trkpt>
      <trkpt lat="47.47251" lon="2.4733">
        <ele>193.2</ele>
        <time>2024-05-08T08:58:10Z</time>
      </trkpt>
      <trkpt lat="47.4728" lon="2.47251">
        <ele>192.6</ele>
        <time>2024-05-08T08:58:18Z</time>
      </trkpt>
      <trkpt lat="47.47284" lon="2.47241">
        <ele>192.6</ele>
        <time>2024-05-08T08:58:19Z</time>
      </trkpt>
      <trkpt lat="47.47288" lon="2.47231">
        <ele>192.6</ele>
        <time>2024-05-08T08:58:20Z</time>
      </trkpt>
      <trkpt lat="47.47315" lon="2.47161">
        <ele>192.2</ele>
        <time>2024-05-08T08:58:27Z</time>
      </trkpt>
      <trkpt lat="47.47323" lon="2.47141">
        <ele>192.2</ele>
        <time>2024-05-08T08:58:29Z</time>
      </trkpt>
      <trkpt lat="47.47352" lon="2.47074">
        <ele>191.6</ele>
        <time>2024-05-08T08:58:36Z</time>
      </trkpt>
      <trkpt lat="47.47361" lon="2.47056">
        <ele>191.4</ele>
        <time>2024-05-08T08:58:38Z</time>
      </trkpt>
      <trkpt lat="47.47393" lon="2.46983">
        <ele>191</ele>
        <time>2024-05-08T08:58:46Z</time>
      </trkpt>
      <trkpt lat="47.47427" lon="2.4691">
        <ele>191</ele>
        <time>2024-05-08T08:58:54Z</time>
      </trkpt>
      <trkpt lat="47.47439" lon="2.46882">
        <ele>191</ele>
        <time>2024-05-08T08:58:57Z</time>
      </trkpt>
      <trkpt lat="47.47465" lon="2.46825">
        <ele>190.4</ele>
        <time>2024-05-08T08:59:03Z</time>
      </trkpt>
      <trkpt lat="47.47486" lon="2.46779">
        <ele>189.6</ele>
        <time>2024-05-08T08:59:08Z</time>
      </trkpt>
      <trkpt lat="47.47502" lon="2.46741">
        <ele>189.4</ele>
        <time>2024-05-08T08:59:12Z</time>
      </trkpt>
      <trkpt lat="47.47526" lon="2.46685">
        <ele>188.8</ele>
        <time>2024-05-08T08:59:18Z</time>
      </trkpt>
      <trkpt lat="47.47559" lon="2.46608">
        <ele>188.4</ele>
        <time>2024-05-08T08:59:26Z</time>
      </trkpt>
      <trkpt lat="47.47562" lon="2.46599">
        <ele>188.2</ele>
        <time>2024-05-08T08:59:27Z</time>
      </trkpt>
      <trkpt lat="47.47593" lon="2.46525">
        <ele>187.6</ele>
        <time>2024-05-08T08:59:35Z</time>
      </trkpt>
      <trkpt lat="47.47597" lon="2.46516">
        <ele>187.6</ele>
        <time>2024-05-08T08:59:36Z</time>
      </trkpt>
      <trkpt lat="47.47623" lon="2.46451">
        <ele>187.2</ele>
        <time>2024-05-08T08:59:43Z</time>
      </trkpt>
      <trkpt lat="47.47628" lon="2.46441">
        <ele>187.2</ele>
        <time>2024-05-08T08:59:44Z</time>
      </trkpt>
      <trkpt lat="47.47632" lon="2.46432">
        <ele>187.2</ele>
        <time>2024-05-08T08:59:45Z</time>
      </trkpt>
      <trkpt lat="47.47662" lon="2.46362">
        <ele>186.6</ele>
        <time>2024-05-08T08:59:52Z</time>
      </trkpt>
      <trkpt lat="47.47674" lon="2.46331">
        <ele>186.2</ele>
        <time>2024-05-08T08:59:55Z</time>
      </trkpt>
      <trkpt lat="47.47678" lon="2.46321">
        <ele>186</ele>
        <time>2024-05-08T08:59:56Z</time>
      </trkpt>
      <trkpt lat="47.47708" lon="2.4625">
        <ele>185.4</ele>
        <time>2024-05-08T09:00:03Z</time>
      </trkpt>
      <trkpt lat="47.47716" lon="2.4623">
        <ele>185</ele>
        <time>2024-05-08T09:00:05Z</time>
      </trkpt>
      <trkpt lat="47.47746" lon="2.4616">
        <ele>184.2</ele>
        <time>2024-05-08T09:00:12Z</time>
      </trkpt>
      <trkpt lat="47.47751" lon="2.4615">
        <ele>184</ele>
        <time>2024-05-08T09:00:13Z</time>
      </trkpt>
      <trkpt lat="47.47782" lon="2.46078">
        <ele>182.8</ele>
        <time>2024-05-08T09:00:20Z</time>
      </trkpt>
      <trkpt lat="47.47795" lon="2.46047">
        <ele>182</ele>
        <time>2024-05-08T09:00:23Z</time>
      </trkpt>
      <trkpt lat="47.47799" lon="2.46037">
        <ele>181.8</ele>
        <time>2024-05-08T09:00:24Z</time>
      </trkpt>
      <trkpt lat="47.47829" lon="2.45967">
        <ele>181</ele>
        <time>2024-05-08T09:00:31Z</time>
      </trkpt>
      <trkpt lat="47.47838" lon="2.45948">
        <ele>180.8</ele>
        <time>2024-05-08T09:00:33Z</time>
      </trkpt>
      <trkpt lat="47.47855" lon="2.45909">
        <ele>180.4</ele>
        <time>2024-05-08T09:00:37Z</time>
      </trkpt>
      <trkpt lat="47.47884" lon="2.4584">
        <ele>179.8</ele>
        <time>2024-05-08T09:00:44Z</time>
      </trkpt>
      <trkpt lat="47.47893" lon="2.45819">
        <ele>179.8</ele>
        <time>2024-05-08T09:00:46Z</time>
      </trkpt>
      <trkpt lat="47.47921" lon="2.45755">
        <ele>179.4</ele>
        <time>2024-05-08T09:00:53Z</time>
      </trkpt>
      <trkpt lat="47.47952" lon="2.45681">
        <ele>179</ele>
        <time>2024-05-08T09:01:01Z</time>
      </trkpt>
      <trkpt lat="47.47965" lon="2.45652">
        <ele>178.8</ele>
        <time>2024-05-08T09:01:04Z</time>
      </trkpt>
      <trkpt lat="47.47978" lon="2.45623">
        <ele>178.6</ele>
        <time>2024-05-08T09:01:07Z</time>
      </trkpt>
      <trkpt lat="47.48007" lon="2.45555">
        <ele>178.4</ele>
        <time>2024-05-08T09:01:14Z</time>
      </trkpt>
      <trkpt lat="47.48015" lon="2.45536">
        <ele>178.2</ele>
        <time>2024-05-08T09:01:16Z</time>
      </trkpt>
      <trkpt lat="47.48034" lon="2.45476">
        <ele>177.6</ele>
        <time>2024-05-08T09:01:22Z</time>
      </trkpt>
      <trkpt lat="47.48037" lon="2.45466">
        <ele>177.4</ele>
        <time>2024-05-08T09:01:23Z</time>
      </trkpt>
      <trkpt lat="47.4806" lon="2.45385">
        <ele>177.2</ele>
        <time>2024-05-08T09:01:31Z</time>
      </trkpt>
      <trkpt lat="47.48063" lon="2.45375">
        <ele>177</ele>
        <time>2024-05-08T09:01:32Z</time>
      </trkpt>
      <trkpt lat="47.48083" lon="2.45304">
        <ele>176.4</ele>
        <time>2024-05-08T09:01:39Z</time>
      </trkpt>
      <trkpt lat="47.48092" lon="2.45274">
        <ele>176</ele>
        <time>2024-05-08T09:01:42Z</time>
      </trkpt>
      <trkpt lat="47.48113" lon="2.45199">
        <ele>175.2</ele>
        <time>2024-05-08T09:01:49Z</time>
      </trkpt>
      <trkpt lat="47.48123" lon="2.45167">
        <ele>174.8</ele>
        <time>2024-05-08T09:01:52Z</time>
      </trkpt>
      <trkpt lat="47.48139" lon="2.45115">
        <ele>174.2</ele>
        <time>2024-05-08T09:01:57Z</time>
      </trkpt>
      <trkpt lat="47.4815" lon="2.45084">
        <ele>173.8</ele>
        <time>2024-05-08T09:02:00Z</time>
      </trkpt>
      <trkpt lat="47.48166" lon="2.45046">
        <ele>173.2</ele>
        <time>2024-05-08T09:02:04Z</time>
      </trkpt>
      <trkpt lat="47.48175" lon="2.45028">
        <ele>172.8</ele>
        <time>2024-05-08T09:02:06Z</time>
      </trkpt>
      <trkpt lat="47.48189" lon="2.45004">
        <ele>172.2</ele>
        <time>2024-05-08T09:02:09Z</time>
      </trkpt>
      <trkpt lat="47.48205" lon="2.44982">
        <ele>172</ele>
        <time>2024-05-08T09:02:12Z</time>
      </trkpt>
      <trkpt lat="47.48246" lon="2.44941">
        <ele>171.6</ele>
        <time>2024-05-08T09:02:19Z</time>
      </trkpt>
      <trkpt lat="47.48288" lon="2.44912">
        <ele>171.6</ele>
        <time>2024-05-08T09:02:26Z</time>
      </trkpt>
      <trkpt lat="47.48294" lon="2.44908">
        <ele>171.6</ele>
        <time>2024-05-08T09:02:27Z</time>
      </trkpt>
      <trkpt lat="47.48347" lon="2.44878">
        <ele>172.2</ele>
        <time>2024-05-08T09:02:36Z</time>
      </trkpt>
      <trkpt lat="47.48386" lon="2.44853">
        <ele>172.6</ele>
        <time>2024-05-08T09:02:43Z</time>
      </trkpt>
      <trkpt lat="47.48423" lon="2.44823">
        <ele>172.8</ele>
        <time>2024-05-08T09:02:50Z</time>
      </trkpt>
      <trkpt lat="47.48465" lon="2.44787">
        <ele>173</ele>
        <time>2024-05-08T09:02:58Z</time>
      </trkpt>
      <trkpt lat="47.48501" lon="2.44753">
        <ele>173</ele>
        <time>2024-05-08T09:03:05Z</time>
      </trkpt>
      <trkpt lat="47.48509" lon="2.44739">
        <ele>173</ele>
        <time>2024-05-08T09:03:07Z</time>
      </trkpt>
      <trkpt lat="47.48513" lon="2.44722">
        <ele>172.8</ele>
        <time>2024-05-08T09:03:09Z</time>
      </trkpt>
      <trkpt lat="47.48519" lon="2.44668">
        <ele>172.8</ele>
        <time>2024-05-08T09:03:15Z</time>
      </trkpt>
      <trkpt lat="47.48529" lon="2.44584">
        <ele>172.4</ele>
        <time>2024-05-08T09:03:24Z</time>
      </trkpt>
      <trkpt lat="47.48545" lon="2.44529">
        <ele>172</ele>
        <time>2024-05-08T09:03:30Z</time>
      </trkpt>
      <trkpt lat="47.48573" lon="2.44472">
        <ele>172</ele>
        <time>2024-05-08T09:03:37Z</time>
      </trkpt>
      <trkpt lat="47.4861" lon="2.44415">
        <ele>172</ele>
        <time>2024-05-08T09:03:45Z</time>
      </trkpt>
      <trkpt lat="47.48629" lon="2.44388">
        <ele>171.8</ele>
        <time>2024-05-08T09:03:49Z</time>
      </trkpt>
      <trkpt lat="47.48638" lon="2.44376">
        <ele>171.6</ele>
        <time>2024-05-08T09:03:51Z</time>
      </trkpt>
      <trkpt lat="47.48655" lon="2.44348">
        <ele>171.4</ele>
        <time>2024-05-08T09:03:55Z</time>
      </trkpt>
      <trkpt lat="47.48665" lon="2.44336">
        <ele>171.2</ele>
        <time>2024-05-08T09:03:57Z</time>
      </trkpt>
      <trkpt lat="47.48698" lon="2.44303">
        <ele>171</ele>
        <time>2024-05-08T09:04:03Z</time>
      </trkpt>
      <trkpt lat="47.48715" lon="2.44288">
        <ele>170.8</ele>
        <time>2024-05-08T09:04:06Z</time>
      </trkpt>
      <trkpt lat="47.48753" lon="2.4425">
        <ele>170.6</ele>
        <time>2024-05-08T09:04:13Z</time>
      </trkpt>
      <trkpt lat="47.48797" lon="2.44193">
        <ele>170.8</ele>
        <time>2024-05-08T09:04:22Z</time>
      </trkpt>
      <trkpt lat="47.48802" lon="2.44187">
        <ele>170.8</ele>
        <time>2024-05-08T09:04:23Z</time>
      </trkpt>
      <trkpt lat="47.48814" lon="2.44171">
        <ele>170.2</ele>
        <time>2024-05-08T09:04:26Z</time>
      </trkpt>
      <trkpt lat="47.48817" lon="2.44167">
        <ele>170.2</ele>
        <time>2024-05-08T09:04:27Z</time>
      </trkpt>
      <trkpt lat="47.48821" lon="2.44163">
        <ele>170.2</ele>
        <time>2024-05-08T09:04:28Z</time>
      </trkpt>
      <trkpt lat="47.48829" lon="2.44152">
        <ele>170</ele>
        <time>2024-05-08T09:04:30Z</time>
      </trkpt>
      <trkpt lat="47.48833" lon="2.44146">
        <ele>169.8</ele>
        <time>2024-05-08T09:04:31Z</time>
      </trkpt>
      <trkpt lat="47.48837" lon="2.4414">
        <ele>169.8</ele>
        <time>2024-05-08T09:04:32Z</time>
      </trkpt>
      <trkpt lat="47.48846" lon="2.44117">
        <ele>169.6</ele>
        <time>2024-05-08T09:04:35Z</time>
      </trkpt>
      <trkpt lat="47.48865" lon="2.4409">
        <ele>169</ele>
        <time>2024-05-08T09:04:39Z</time>
      </trkpt>
      <trkpt lat="47.4887" lon="2.44083">
        <ele>168.8</ele>
        <time>2024-05-08T09:04:40Z</time>
      </trkpt>
      <trkpt lat="47.4888" lon="2.44068">
        <ele>168.2</ele>
        <time>2024-05-08T09:04:42Z</time>
      </trkpt>
      <trkpt lat="47.48887" lon="2.44059">
        <ele>167.6</ele>
        <time>2024-05-08T09:04:44Z</time>
      </trkpt>
      <trkpt lat="47.48894" lon="2.44055">
        <ele>167.2</ele>
        <time>2024-05-08T09:04:46Z</time>
      </trkpt>
      <trkpt lat="47.48906" lon="2.44053">
        <ele>166.4</ele>
        <time>2024-05-08T09:04:49Z</time>
      </trkpt>
      <trkpt lat="47.48911" lon="2.4405">
        <ele>166.4</ele>
        <time>2024-05-08T09:04:50Z</time>
      </trkpt>
      <trkpt lat="47.48921" lon="2.44044">
        <ele>166.2</ele>
        <time>2024-05-08T09:04:52Z</time>
      </trkpt>
      <trkpt lat="47.48926" lon="2.44042">
        <ele>166.2</ele>
        <time>2024-05-08T09:04:53Z</time>
      </trkpt>
      <trkpt lat="47.4895" lon="2.44032">
        <ele>166</ele>
        <time>2024-05-08T09:04:57Z</time>
      </trkpt>
      <trkpt lat="47.48975" lon="2.44024">
        <ele>166</ele>
        <time>2024-05-08T09:05:01Z</time>
      </trkpt>
      <trkpt lat="47.48987" lon="2.4402">
        <ele>166.2</ele>
        <time>2024-05-08T09:05:03Z</time>
      </trkpt>
      <trkpt lat="47.49023" lon="2.44007">
        <ele>166.4</ele>
        <time>2024-05-08T09:05:09Z</time>
      </trkpt>
      <trkpt lat="47.49064" lon="2.44003">
        <ele>166.2</ele>
        <time>2024-05-08T09:05:16Z</time>
      </trkpt>
      <trkpt lat="47.491" lon="2.44">
        <ele>166.2</ele>
        <time>2024-05-08T09:05:22Z</time>
      </trkpt>
      <trkpt lat="47.49109" lon="2.43997">
        <ele>166.2</ele>
        <time>2024-05-08T09:05:25Z</time>
      </trkpt>
      <trkpt lat="47.49109" lon="2.43997">
        <ele>166.2</ele>
        <time>2024-05-08T09:05:27Z</time>
      </trkpt>
      <trkpt lat="47.49116" lon="2.43997">
        <ele>165.8</ele>
        <time>2024-05-08T09:05:34Z</time>
      </trkpt>
      <trkpt lat="47.4912" lon="2.43996">
        <ele>165.8</ele>
        <time>2024-05-08T09:05:35Z</time>
      </trkpt>
      <trkpt lat="47.49124" lon="2.43993">
        <ele>165.6</ele>
        <time>2024-05-08T09:05:36Z</time>
      </trkpt>
      <trkpt lat="47.49134" lon="2.43986">
        <ele>165.6</ele>
        <time>2024-05-08T09:05:38Z</time>
      </trkpt>
      <trkpt lat="47.49139" lon="2.43983">
        <ele>165.6</ele>
        <time>2024-05-08T09:05:39Z</time>
      </trkpt>
      <trkpt lat="47.49146" lon="2.43981">
        <ele>165.4</ele>
        <time>2024-05-08T09:05:40Z</time>
      </trkpt>
      <trkpt lat="47.49182" lon="2.43965">
        <ele>165</ele>
        <time>2024-05-08T09:05:46Z</time>
      </trkpt>
      <trkpt lat="47.49237" lon="2.43938">
        <ele>164.6</ele>
        <time>2024-05-08T09:05:55Z</time>
      </trkpt>
      <trkpt lat="47.49281" lon="2.43916">
        <ele>164.4</ele>
        <time>2024-05-08T09:06:02Z</time>
      </trkpt>
      <trkpt lat="47.49293" lon="2.43912">
        <ele>164.4</ele>
        <time>2024-05-08T09:06:04Z</time>
      </trkpt>
      <trkpt lat="47.49318" lon="2.43909">
        <ele>164.4</ele>
        <time>2024-05-08T09:06:09Z</time>
      </trkpt>
      <trkpt lat="47.49323" lon="2.43909">
        <ele>164.4</ele>
        <time>2024-05-08T09:06:10Z</time>
      </trkpt>
      <trkpt lat="47.49332" lon="2.43903">
        <ele>164.4</ele>
        <time>2024-05-08T09:06:12Z</time>
      </trkpt>
      <trkpt lat="47.49335" lon="2.43898">
        <ele>164.4</ele>
        <time>2024-05-08T09:06:13Z</time>
      </trkpt>
      <trkpt lat="47.49338" lon="2.43894">
        <ele>164.4</ele>
        <time>2024-05-08T09:06:14Z</time>
      </trkpt>
      <trkpt lat="47.49353" lon="2.43883">
        <ele>164.4</ele>
        <time>2024-05-08T09:06:17Z</time>
      </trkpt>
      <trkpt lat="47.49397" lon="2.43864">
        <ele>164</ele>
        <time>2024-05-08T09:06:25Z</time>
      </trkpt>
      <trkpt lat="47.49452" lon="2.43839">
        <ele>164</ele>
        <time>2024-05-08T09:06:34Z</time>
      </trkpt>
      <trkpt lat="47.49509" lon="2.43814">
        <ele>164.2</ele>
        <time>2024-05-08T09:06:43Z</time>
      </trkpt>
      <trkpt lat="47.49526" lon="2.43806">
        <ele>164.4</ele>
        <time>2024-05-08T09:06:46Z</time>
      </trkpt>
      <trkpt lat="47.4957" lon="2.43784">
        <ele>164.2</ele>
        <time>2024-05-08T09:06:53Z</time>
      </trkpt>
      <trkpt lat="47.49575" lon="2.43778">
        <ele>164.2</ele>
        <time>2024-05-08T09:06:54Z</time>
      </trkpt>
      <trkpt lat="47.49578" lon="2.43773">
        <ele>164.2</ele>
        <time>2024-05-08T09:06:55Z</time>
      </trkpt>
      <trkpt lat="47.49592" lon="2.4375">
        <ele>164.4</ele>
        <time>2024-05-08T09:06:58Z</time>
      </trkpt>
      <trkpt lat="47.49601" lon="2.43739">
        <ele>164.4</ele>
        <time>2024-05-08T09:07:00Z</time>
      </trkpt>
      <trkpt lat="47.49607" lon="2.43736">
        <ele>164.4</ele>
        <time>2024-05-08T09:07:01Z</time>
      </trkpt>
      <trkpt lat="47.49641" lon="2.43719">
        <ele>163.8</ele>
        <time>2024-05-08T09:07:07Z</time>
      </trkpt>
      <trkpt lat="47.4965" lon="2.43715">
        <ele>163.8</ele>
        <time>2024-05-08T09:07:09Z</time>
      </trkpt>
      <trkpt lat="47.49656" lon="2.4371">
        <ele>163.8</ele>
        <time>2024-05-08T09:07:11Z</time>
      </trkpt>
      <trkpt lat="47.49659" lon="2.43706">
        <ele>163.8</ele>
        <time>2024-05-08T09:07:15Z</time>
      </trkpt>
      <trkpt lat="47.49659" lon="2.43706">
        <ele>163.6</ele>
        <time>2024-05-08T09:07:17Z</time>
      </trkpt>
      <trkpt lat="47.49664" lon="2.43697">
        <ele>163.4</ele>
        <time>2024-05-08T09:10:41Z</time>
      </trkpt>
      <trkpt lat="47.49666" lon="2.43694">
        <ele>163.4</ele>
        <time>2024-05-08T09:10:42Z</time>
      </trkpt>
      <trkpt lat="47.4968" lon="2.43671">
        <ele>163.4</ele>
        <time>2024-05-08T09:10:47Z</time>
      </trkpt>
      <trkpt lat="47.497" lon="2.43633">
        <ele>163.6</ele>
        <time>2024-05-08T09:10:53Z</time>
      </trkpt>
      <trkpt lat="47.4973" lon="2.43583">
        <ele>163.8</ele>
        <time>2024-05-08T09:11:00Z</time>
      </trkpt>
      <trkpt lat="47.49759" lon="2.43531">
        <ele>164</ele>
        <time>2024-05-08T09:11:07Z</time>
      </trkpt>
      <trkpt lat="47.49789" lon="2.43479">
        <ele>163.8</ele>
        <time>2024-05-08T09:11:14Z</time>
      </trkpt>
      <trkpt lat="47.49824" lon="2.43417">
        <ele>163.6</ele>
        <time>2024-05-08T09:11:22Z</time>
      </trkpt>
      <trkpt lat="47.49832" lon="2.43402">
        <ele>163.6</ele>
        <time>2024-05-08T09:11:24Z</time>
      </trkpt>
      <trkpt lat="47.49867" lon="2.43338">
        <ele>163.2</ele>
        <time>2024-05-08T09:11:32Z</time>
      </trkpt>
      <trkpt lat="47.49872" lon="2.4333">
        <ele>163</ele>
        <time>2024-05-08T09:11:33Z</time>
      </trkpt>
      <trkpt lat="47.49907" lon="2.43266">
        <ele>162.4</ele>
        <time>2024-05-08T09:11:41Z</time>
      </trkpt>
      <trkpt lat="47.49911" lon="2.43258">
        <ele>162.2</ele>
        <time>2024-05-08T09:11:42Z</time>
      </trkpt>
      <trkpt lat="47.49916" lon="2.4325">
        <ele>162.2</ele>
        <time>2024-05-08T09:11:43Z</time>
      </trkpt>
      <trkpt lat="47.4995" lon="2.43188">
        <ele>162</ele>
        <time>2024-05-08T09:11:51Z</time>
      </trkpt>
      <trkpt lat="47.49959" lon="2.43172">
        <ele>162</ele>
        <time>2024-05-08T09:11:53Z</time>
      </trkpt>
      <trkpt lat="47.49992" lon="2.43113">
        <ele>162</ele>
        <time>2024-05-08T09:12:01Z</time>
      </trkpt>
      <trkpt lat="47.50028" lon="2.43047">
        <ele>162.8</ele>
        <time>2024-05-08T09:12:10Z</time>
      </trkpt>
      <trkpt lat="47.50051" lon="2.43005">
        <ele>163.4</ele>
        <time>2024-05-08T09:12:16Z</time>
      </trkpt>
      <trkpt lat="47.50055" lon="2.42998">
        <ele>163.4</ele>
        <time>2024-05-08T09:12:17Z</time>
      </trkpt>
      <trkpt lat="47.5009" lon="2.42935">
        <ele>164.2</ele>
        <time>2024-05-08T09:12:26Z</time>
      </trkpt>
      <trkpt lat="47.50094" lon="2.42927">
        <ele>164.2</ele>
        <time>2024-05-08T09:12:27Z</time>
      </trkpt>
      <trkpt lat="47.50132" lon="2.42859">
        <ele>164</ele>
        <time>2024-05-08T09:12:36Z</time>
      </trkpt>
      <trkpt lat="47.50136" lon="2.42851">
        <ele>164</ele>
        <time>2024-05-08T09:12:37Z</time>
      </trkpt>
      <trkpt lat="47.50159" lon="2.42812">
        <ele>163.6</ele>
        <time>2024-05-08T09:12:42Z</time>
      </trkpt>
      <trkpt lat="47.50179" lon="2.42776">
        <ele>163.4</ele>
        <time>2024-05-08T09:12:47Z</time>
      </trkpt>
      <trkpt lat="47.50215" lon="2.4271">
        <ele>164.2</ele>
        <time>2024-05-08T09:12:56Z</time>
      </trkpt>
      <trkpt lat="47.50219" lon="2.42703">
        <ele>164.4</ele>
        <time>2024-05-08T09:12:57Z</time>
      </trkpt>
      <trkpt lat="47.50254" lon="2.42639">
        <ele>165.2</ele>
        <time>2024-05-08T09:13:06Z</time>
      </trkpt>
      <trkpt lat="47.50266" lon="2.42618">
        <ele>165.4</ele>
        <time>2024-05-08T09:13:09Z</time>
      </trkpt>
      <trkpt lat="47.50282" lon="2.42589">
        <ele>165.4</ele>
        <time>2024-05-08T09:13:13Z</time>
      </trkpt>
      <trkpt lat="47.50302" lon="2.42552">
        <ele>165.6</ele>
        <time>2024-05-08T09:13:18Z</time>
      </trkpt>
      <trkpt lat="47.50328" lon="2.42506">
        <ele>165.6</ele>
        <time>2024-05-08T09:13:24Z</time>
      </trkpt>
      <trkpt lat="47.50341" lon="2.42482">
        <ele>165.6</ele>
        <time>2024-05-08T09:13:27Z</time>
      </trkpt>
      <trkpt lat="47.50368" lon="2.42433">
        <ele>165.6</ele>
        <time>2024-05-08T09:13:34Z</time>
      </trkpt>
      <trkpt lat="47.50403" lon="2.42369">
        <ele>165.8</ele>
        <time>2024-05-08T09:13:43Z</time>
      </trkpt>
      <trkpt lat="47.50429" lon="2.42323">
        <ele>166.4</ele>
        <time>2024-05-08T09:13:50Z</time>
      </trkpt>
      <trkpt lat="47.50436" lon="2.42311">
        <ele>166.4</ele>
        <time>2024-05-08T09:13:52Z</time>
      </trkpt>
      <trkpt lat="47.50465" lon="2.42257">
        <ele>167.4</ele>
        <time>2024-05-08T09:14:00Z</time>
      </trkpt>
      <trkpt lat="47.50489" lon="2.42214">
        <ele>167.4</ele>
        <time>2024-05-08T09:14:06Z</time>
      </trkpt>
      <trkpt lat="47.50495" lon="2.42202">
        <ele>167.6</ele>
        <time>2024-05-08T09:14:08Z</time>
      </trkpt>
      <trkpt lat="47.50507" lon="2.42181">
        <ele>167.6</ele>
        <time>2024-05-08T09:14:11Z</time>
      </trkpt>
      <trkpt lat="47.5053" lon="2.42139">
        <ele>168</ele>
        <time>2024-05-08T09:14:17Z</time>
      </trkpt>
      <trkpt lat="47.50566" lon="2.42074">
        <ele>168.2</ele>
        <time>2024-05-08T09:14:26Z</time>
      </trkpt>
      <trkpt lat="47.50582" lon="2.42045">
        <ele>168</ele>
        <time>2024-05-08T09:14:30Z</time>
      </trkpt>
      <trkpt lat="47.50619" lon="2.41979">
        <ele>168.2</ele>
        <time>2024-05-08T09:14:39Z</time>
      </trkpt>
      <trkpt lat="47.50654" lon="2.41915">
        <ele>167.8</ele>
        <time>2024-05-08T09:14:47Z</time>
      </trkpt>
      <trkpt lat="47.50663" lon="2.41898">
        <ele>167.6</ele>
        <time>2024-05-08T09:14:49Z</time>
      </trkpt>
      <trkpt lat="47.507" lon="2.41831">
        <ele>166.6</ele>
        <time>2024-05-08T09:14:57Z</time>
      </trkpt>
      <trkpt lat="47.50709" lon="2.41815">
        <ele>166.4</ele>
        <time>2024-05-08T09:14:59Z</time>
      </trkpt>
      <trkpt lat="47.50747" lon="2.41746">
        <ele>165.8</ele>
        <time>2024-05-08T09:15:07Z</time>
      </trkpt>
      <trkpt lat="47.50756" lon="2.41729">
        <ele>165.6</ele>
        <time>2024-05-08T09:15:09Z</time>
      </trkpt>
      <trkpt lat="47.50761" lon="2.4172">
        <ele>165.4</ele>
        <time>2024-05-08T09:15:10Z</time>
      </trkpt>
      <trkpt lat="47.5077" lon="2.41704">
        <ele>165.2</ele>
        <time>2024-05-08T09:15:12Z</time>
      </trkpt>
      <trkpt lat="47.50792" lon="2.41664">
        <ele>165</ele>
        <time>2024-05-08T09:15:17Z</time>
      </trkpt>
      <trkpt lat="47.50821" lon="2.41612">
        <ele>165.4</ele>
        <time>2024-05-08T09:15:24Z</time>
      </trkpt>
      <trkpt lat="47.50855" lon="2.41549">
        <ele>165.6</ele>
        <time>2024-05-08T09:15:32Z</time>
      </trkpt>
      <trkpt lat="47.5086" lon="2.41539">
        <ele>165.4</ele>
        <time>2024-05-08T09:15:33Z</time>
      </trkpt>
      <trkpt lat="47.50896" lon="2.41477">
        <ele>165</ele>
        <time>2024-05-08T09:15:41Z</time>
      </trkpt>
      <trkpt lat="47.509" lon="2.41469">
        <ele>165</ele>
        <time>2024-05-08T09:15:42Z</time>
      </trkpt>
      <trkpt lat="47.50932" lon="2.41412">
        <ele>165.2</ele>
        <time>2024-05-08T09:15:50Z</time>
      </trkpt>
      <trkpt lat="47.50955" lon="2.41373">
        <ele>165.6</ele>
        <time>2024-05-08T09:15:56Z</time>
      </trkpt>
      <trkpt lat="47.50985" lon="2.41321">
        <ele>166.4</ele>
        <time>2024-05-08T09:16:04Z</time>
      </trkpt>
      <trkpt lat="47.50993" lon="2.41308">
        <ele>166.6</ele>
        <time>2024-05-08T09:16:06Z</time>
      </trkpt>
      <trkpt lat="47.51012" lon="2.41273">
        <ele>167</ele>
        <time>2024-05-08T09:16:11Z</time>
      </trkpt>
      <trkpt lat="47.51043" lon="2.41215">
        <ele>167.2</ele>
        <time>2024-05-08T09:16:19Z</time>
      </trkpt>
      <trkpt lat="47.5108" lon="2.41145">
        <ele>167</ele>
        <time>2024-05-08T09:16:28Z</time>
      </trkpt>
      <trkpt lat="47.51084" lon="2.41137">
        <ele>167</ele>
        <time>2024-05-08T09:16:29Z</time>
      </trkpt>
      <trkpt lat="47.5112" lon="2.41072">
        <ele>166.8</ele>
        <time>2024-05-08T09:16:37Z</time>
      </trkpt>
      <trkpt lat="47.51125" lon="2.41063">
        <ele>166.6</ele>
        <time>2024-05-08T09:16:38Z</time>
      </trkpt>
      <trkpt lat="47.51139" lon="2.4104">
        <ele>166.4</ele>
        <time>2024-05-08T09:16:41Z</time>
      </trkpt>
      <trkpt lat="47.51147" lon="2.41024">
        <ele>166.2</ele>
        <time>2024-05-08T09:16:43Z</time>
      </trkpt>
      <trkpt lat="47.51156" lon="2.41009">
        <ele>166</ele>
        <time>2024-05-08T09:16:45Z</time>
      </trkpt>
      <trkpt lat="47.51176" lon="2.40974">
        <ele>166</ele>
        <time>2024-05-08T09:16:50Z</time>
      </trkpt>
      <trkpt lat="47.51213" lon="2.40909">
        <ele>166.4</ele>
        <time>2024-05-08T09:16:59Z</time>
      </trkpt>
      <trkpt lat="47.51239" lon="2.40863">
        <ele>166.4</ele>
        <time>2024-05-08T09:17:05Z</time>
      </trkpt>
      <trkpt lat="47.51274" lon="2.408">
        <ele>166.2</ele>
        <time>2024-05-08T09:17:13Z</time>
      </trkpt>
      <trkpt lat="47.51308" lon="2.40736">
        <ele>166.4</ele>
        <time>2024-05-08T09:17:21Z</time>
      </trkpt>
      <trkpt lat="47.5134" lon="2.40674">
        <ele>166</ele>
        <time>2024-05-08T09:17:28Z</time>
      </trkpt>
      <trkpt lat="47.51358" lon="2.40641">
        <ele>165.2</ele>
        <time>2024-05-08T09:17:32Z</time>
      </trkpt>
      <trkpt lat="47.51377" lon="2.40607">
        <ele>164.4</ele>
        <time>2024-05-08T09:17:36Z</time>
      </trkpt>
      <trkpt lat="47.51387" lon="2.4059">
        <ele>164.2</ele>
        <time>2024-05-08T09:17:38Z</time>
      </trkpt>
      <trkpt lat="47.51424" lon="2.40523">
        <ele>163.8</ele>
        <time>2024-05-08T09:17:46Z</time>
      </trkpt>
      <trkpt lat="47.51433" lon="2.40508">
        <ele>163.8</ele>
        <time>2024-05-08T09:17:48Z</time>
      </trkpt>
      <trkpt lat="47.51468" lon="2.40446">
        <ele>163.6</ele>
        <time>2024-05-08T09:17:56Z</time>
      </trkpt>
      <trkpt lat="47.5148" lon="2.40423">
        <ele>163.6</ele>
        <time>2024-05-08T09:17:59Z</time>
      </trkpt>
      <trkpt lat="47.51515" lon="2.4036">
        <ele>163.4</ele>
        <time>2024-05-08T09:18:07Z</time>
      </trkpt>
      <trkpt lat="47.5155" lon="2.40296">
        <ele>163.2</ele>
        <time>2024-05-08T09:18:15Z</time>
      </trkpt>
      <trkpt lat="47.51554" lon="2.40288">
        <ele>163</ele>
        <time>2024-05-08T09:18:16Z</time>
      </trkpt>
      <trkpt lat="47.51589" lon="2.40224">
        <ele>162.4</ele>
        <time>2024-05-08T09:18:24Z</time>
      </trkpt>
      <trkpt lat="47.51626" lon="2.40158">
        <ele>162.2</ele>
        <time>2024-05-08T09:18:32Z</time>
      </trkpt>
      <trkpt lat="47.51645" lon="2.40125">
        <ele>161.8</ele>
        <time>2024-05-08T09:18:36Z</time>
      </trkpt>
      <trkpt lat="47.5165" lon="2.40117">
        <ele>161.8</ele>
        <time>2024-05-08T09:18:37Z</time>
      </trkpt>
      <trkpt lat="47.51675" lon="2.40075">
        <ele>161.2</ele>
        <time>2024-05-08T09:18:42Z</time>
      </trkpt>
      <trkpt lat="47.5168" lon="2.40066">
        <ele>160.8</ele>
        <time>2024-05-08T09:18:43Z</time>
      </trkpt>
      <trkpt lat="47.51711" lon="2.4001">
        <ele>160</ele>
        <time>2024-05-08T09:18:49Z</time>
      </trkpt>
      <trkpt lat="47.51716" lon="2.4">
        <ele>159.8</ele>
        <time>2024-05-08T09:18:50Z</time>
      </trkpt>
      <trkpt lat="47.51746" lon="2.39945">
        <ele>158.6</ele>
        <time>2024-05-08T09:18:56Z</time>
      </trkpt>
      <trkpt lat="47.51754" lon="2.39925">
        <ele>158.4</ele>
        <time>2024-05-08T09:18:58Z</time>
      </trkpt>
      <trkpt lat="47.51787" lon="2.39863">
        <ele>158.2</ele>
        <time>2024-05-08T09:19:05Z</time>
      </trkpt>
      <trkpt lat="47.51796" lon="2.39847">
        <ele>158.2</ele>
        <time>2024-05-08T09:19:07Z</time>
      </trkpt>
      <trkpt lat="47.51805" lon="2.3983">
        <ele>158.2</ele>
        <time>2024-05-08T09:19:09Z</time>
      </trkpt>
      <trkpt lat="47.51813" lon="2.39815">
        <ele>158.4</ele>
        <time>2024-05-08T09:19:11Z</time>
      </trkpt>
      <trkpt lat="47.51844" lon="2.39764">
        <ele>158.8</ele>
        <time>2024-05-08T09:19:18Z</time>
      </trkpt>
      <trkpt lat="47.51878" lon="2.39702">
        <ele>159</ele>
        <time>2024-05-08T09:19:26Z</time>
      </trkpt>
      <trkpt lat="47.51913" lon="2.39636">
        <ele>158.4</ele>
        <time>2024-05-08T09:19:34Z</time>
      </trkpt>
      <trkpt lat="47.51918" lon="2.39627">
        <ele>158.2</ele>
        <time>2024-05-08T09:19:35Z</time>
      </trkpt>
      <trkpt lat="47.51957" lon="2.39558">
        <ele>157.8</ele>
        <time>2024-05-08T09:19:44Z</time>
      </trkpt>
      <trkpt lat="47.51966" lon="2.39541">
        <ele>157.6</ele>
        <time>2024-05-08T09:19:46Z</time>
      </trkpt>
      <trkpt lat="47.52004" lon="2.39473">
        <ele>157.6</ele>
        <time>2024-05-08T09:19:55Z</time>
      </trkpt>
      <trkpt lat="47.52009" lon="2.39465">
        <ele>157.6</ele>
        <time>2024-05-08T09:19:56Z</time>
      </trkpt>
      <trkpt lat="47.52044" lon="2.394">
        <ele>157.6</ele>
        <time>2024-05-08T09:20:04Z</time>
      </trkpt>
      <trkpt lat="47.52058" lon="2.39376">
        <ele>157.6</ele>
        <time>2024-05-08T09:20:07Z</time>
      </trkpt>
      <trkpt lat="47.52092" lon="2.39313">
        <ele>157.6</ele>
        <time>2024-05-08T09:20:15Z</time>
      </trkpt>
      <trkpt lat="47.52096" lon="2.39306">
        <ele>157.6</ele>
        <time>2024-05-08T09:20:16Z</time>
      </trkpt>
      <trkpt lat="47.52132" lon="2.39244">
        <ele>157.6</ele>
        <time>2024-05-08T09:20:24Z</time>
      </trkpt>
      <trkpt lat="47.52136" lon="2.39236">
        <ele>157.6</ele>
        <time>2024-05-08T09:20:25Z</time>
      </trkpt>
      <trkpt lat="47.52149" lon="2.39212">
        <ele>157.4</ele>
        <time>2024-05-08T09:20:28Z</time>
      </trkpt>
      <trkpt lat="47.52175" lon="2.39164">
        <ele>157</ele>
        <time>2024-05-08T09:20:34Z</time>
      </trkpt>
      <trkpt lat="47.52205" lon="2.39107">
        <ele>156.4</ele>
        <time>2024-05-08T09:20:41Z</time>
      </trkpt>
      <trkpt lat="47.52224" lon="2.39073">
        <ele>156.2</ele>
        <time>2024-05-08T09:20:45Z</time>
      </trkpt>
      <trkpt lat="47.52258" lon="2.39012">
        <ele>155.4</ele>
        <time>2024-05-08T09:20:52Z</time>
      </trkpt>
      <trkpt lat="47.52282" lon="2.38969">
        <ele>155.2</ele>
        <time>2024-05-08T09:20:57Z</time>
      </trkpt>
      <trkpt lat="47.52301" lon="2.38933">
        <ele>155</ele>
        <time>2024-05-08T09:21:01Z</time>
      </trkpt>
      <trkpt lat="47.52336" lon="2.38871">
        <ele>154.2</ele>
        <time>2024-05-08T09:21:08Z</time>
      </trkpt>
      <trkpt lat="47.52341" lon="2.38862">
        <ele>154</ele>
        <time>2024-05-08T09:21:09Z</time>
      </trkpt>
      <trkpt lat="47.52378" lon="2.38796">
        <ele>153.4</ele>
        <time>2024-05-08T09:21:16Z</time>
      </trkpt>
      <trkpt lat="47.52383" lon="2.38786">
        <ele>153.2</ele>
        <time>2024-05-08T09:21:17Z</time>
      </trkpt>
      <trkpt lat="47.52393" lon="2.38768">
        <ele>153</ele>
        <time>2024-05-08T09:21:19Z</time>
      </trkpt>
      <trkpt lat="47.52428" lon="2.38704">
        <ele>152.6</ele>
        <time>2024-05-08T09:21:26Z</time>
      </trkpt>
      <trkpt lat="47.52437" lon="2.38686">
        <ele>152.2</ele>
        <time>2024-05-08T09:21:28Z</time>
      </trkpt>
      <trkpt lat="47.52457" lon="2.38649">
        <ele>152</ele>
        <time>2024-05-08T09:21:32Z</time>
      </trkpt>
      <trkpt lat="47.52481" lon="2.38604">
        <ele>151.6</ele>
        <time>2024-05-08T09:21:37Z</time>
      </trkpt>
      <trkpt lat="47.52511" lon="2.38551">
        <ele>151</ele>
        <time>2024-05-08T09:21:43Z</time>
      </trkpt>
      <trkpt lat="47.52516" lon="2.38542">
        <ele>151</ele>
        <time>2024-05-08T09:21:44Z</time>
      </trkpt>
      <trkpt lat="47.52552" lon="2.3848">
        <ele>150.4</ele>
        <time>2024-05-08T09:21:51Z</time>
      </trkpt>
      <trkpt lat="47.52558" lon="2.38471">
        <ele>150.4</ele>
        <time>2024-05-08T09:21:52Z</time>
      </trkpt>
      <trkpt lat="47.52587" lon="2.38416">
        <ele>150</ele>
        <time>2024-05-08T09:21:58Z</time>
      </trkpt>
      <trkpt lat="47.52592" lon="2.38407">
        <ele>149.8</ele>
        <time>2024-05-08T09:21:59Z</time>
      </trkpt>
      <trkpt lat="47.52629" lon="2.3834">
        <ele>150</ele>
        <time>2024-05-08T09:22:07Z</time>
      </trkpt>
      <trkpt lat="47.52634" lon="2.38331">
        <ele>150</ele>
        <time>2024-05-08T09:22:08Z</time>
      </trkpt>
      <trkpt lat="47.52665" lon="2.38276">
        <ele>149.8</ele>
        <time>2024-05-08T09:22:15Z</time>
      </trkpt>
      <trkpt lat="47.52698" lon="2.38218">
        <ele>149.2</ele>
        <time>2024-05-08T09:22:22Z</time>
      </trkpt>
      <trkpt lat="47.52712" lon="2.38191">
        <ele>148.8</ele>
        <time>2024-05-08T09:22:25Z</time>
      </trkpt>
      <trkpt lat="47.52726" lon="2.38164">
        <ele>148.4</ele>
        <time>2024-05-08T09:22:28Z</time>
      </trkpt>
      <trkpt lat="47.52761" lon="2.38101">
        <ele>147.4</ele>
        <time>2024-05-08T09:22:35Z</time>
      </trkpt>
      <trkpt lat="47.52766" lon="2.38093">
        <ele>147.4</ele>
        <time>2024-05-08T09:22:36Z</time>
      </trkpt>
      <trkpt lat="47.52802" lon="2.38027">
        <ele>147</ele>
        <time>2024-05-08T09:22:44Z</time>
      </trkpt>
      <trkpt lat="47.52806" lon="2.38018">
        <ele>147</ele>
        <time>2024-05-08T09:22:45Z</time>
      </trkpt>
      <trkpt lat="47.52843" lon="2.37949">
        <ele>147</ele>
        <time>2024-05-08T09:22:53Z</time>
      </trkpt>
      <trkpt lat="47.52858" lon="2.37924">
        <ele>147</ele>
        <time>2024-05-08T09:22:56Z</time>
      </trkpt>
      <trkpt lat="47.52896" lon="2.37855">
        <ele>147</ele>
        <time>2024-05-08T09:23:04Z</time>
      </trkpt>
      <trkpt lat="47.52915" lon="2.37821">
        <ele>147</ele>
        <time>2024-05-08T09:23:08Z</time>
      </trkpt>
      <trkpt lat="47.52952" lon="2.37753">
        <ele>146.8</ele>
        <time>2024-05-08T09:23:16Z</time>
      </trkpt>
      <trkpt lat="47.52967" lon="2.37727">
        <ele>146.8</ele>
        <time>2024-05-08T09:23:19Z</time>
      </trkpt>
      <trkpt lat="47.53" lon="2.37667">
        <ele>146.4</ele>
        <time>2024-05-08T09:23:26Z</time>
      </trkpt>
      <trkpt lat="47.53018" lon="2.37634">
        <ele>146.2</ele>
        <time>2024-05-08T09:23:30Z</time>
      </trkpt>
      <trkpt lat="47.53055" lon="2.37567">
        <ele>145.6</ele>
        <time>2024-05-08T09:23:38Z</time>
      </trkpt>
      <trkpt lat="47.5306" lon="2.37559">
        <ele>145.6</ele>
        <time>2024-05-08T09:23:39Z</time>
      </trkpt>
      <trkpt lat="47.53083" lon="2.37518">
        <ele>145.4</ele>
        <time>2024-05-08T09:23:44Z</time>
      </trkpt>
      <trkpt lat="47.53105" lon="2.37478">
        <ele>145.2</ele>
        <time>2024-05-08T09:23:49Z</time>
      </trkpt>
      <trkpt lat="47.53142" lon="2.37411">
        <ele>144.8</ele>
        <time>2024-05-08T09:23:57Z</time>
      </trkpt>
      <trkpt lat="47.53151" lon="2.37394">
        <ele>144.8</ele>
        <time>2024-05-08T09:23:59Z</time>
      </trkpt>
      <trkpt lat="47.53165" lon="2.37369">
        <ele>144.2</ele>
        <time>2024-05-08T09:24:02Z</time>
      </trkpt>
      <trkpt lat="47.53201" lon="2.37305">
        <ele>144.6</ele>
        <time>2024-05-08T09:24:10Z</time>
      </trkpt>
      <trkpt lat="47.53236" lon="2.3724">
        <ele>144.8</ele>
        <time>2024-05-08T09:24:18Z</time>
      </trkpt>
      <trkpt lat="47.53272" lon="2.37177">
        <ele>145.2</ele>
        <time>2024-05-08T09:24:26Z</time>
      </trkpt>
      <trkpt lat="47.53276" lon="2.37169">
        <ele>145.2</ele>
        <time>2024-05-08T09:24:27Z</time>
      </trkpt>
      <trkpt lat="47.53312" lon="2.37104">
        <ele>146</ele>
        <time>2024-05-08T09:24:35Z</time>
      </trkpt>
      <trkpt lat="47.53316" lon="2.37097">
        <ele>146</ele>
        <time>2024-05-08T09:24:36Z</time>
      </trkpt>
      <trkpt lat="47.5335" lon="2.37035">
        <ele>145.8</ele>
        <time>2024-05-08T09:24:44Z</time>
      </trkpt>
      <trkpt lat="47.53387" lon="2.36969">
        <ele>145.4</ele>
        <time>2024-05-08T09:24:53Z</time>
      </trkpt>
      <trkpt lat="47.53391" lon="2.36961">
        <ele>145.4</ele>
        <time>2024-05-08T09:24:54Z</time>
      </trkpt>
      <trkpt lat="47.53427" lon="2.36896">
        <ele>145.2</ele>
        <time>2024-05-08T09:25:03Z</time>
      </trkpt>
      <trkpt lat="47.53458" lon="2.36845">
        <ele>145.4</ele>
        <time>2024-05-08T09:25:10Z</time>
      </trkpt>
      <trkpt lat="47.53494" lon="2.36784">
        <ele>145.4</ele>
        <time>2024-05-08T09:25:18Z</time>
      </trkpt>
      <trkpt lat="47.53523" lon="2.3673">
        <ele>145.4</ele>
        <time>2024-05-08T09:25:25Z</time>
      </trkpt>
      <trkpt lat="47.53556" lon="2.36675">
        <ele>145</ele>
        <time>2024-05-08T09:25:32Z</time>
      </trkpt>
      <trkpt lat="47.53561" lon="2.36665">
        <ele>145</ele>
        <time>2024-05-08T09:25:33Z</time>
      </trkpt>
      <trkpt lat="47.53578" lon="2.36633">
        <ele>144.6</ele>
        <time>2024-05-08T09:25:37Z</time>
      </trkpt>
      <trkpt lat="47.53596" lon="2.36598">
        <ele>144.2</ele>
        <time>2024-05-08T09:25:41Z</time>
      </trkpt>
      <trkpt lat="47.53604" lon="2.36583">
        <ele>144</ele>
        <time>2024-05-08T09:25:43Z</time>
      </trkpt>
      <trkpt lat="47.53625" lon="2.36545">
        <ele>144</ele>
        <time>2024-05-08T09:25:48Z</time>
      </trkpt>
      <trkpt lat="47.53638" lon="2.36523">
        <ele>144.2</ele>
        <time>2024-05-08T09:25:51Z</time>
      </trkpt>
      <trkpt lat="47.53676" lon="2.36451">
        <ele>144.4</ele>
        <time>2024-05-08T09:26:00Z</time>
      </trkpt>
      <trkpt lat="47.5368" lon="2.36444">
        <ele>144.4</ele>
        <time>2024-05-08T09:26:01Z</time>
      </trkpt>
      <trkpt lat="47.53702" lon="2.36406">
        <ele>144.8</ele>
        <time>2024-05-08T09:26:06Z</time>
      </trkpt>
      <trkpt lat="47.53711" lon="2.36392">
        <ele>144.8</ele>
        <time>2024-05-08T09:26:08Z</time>
      </trkpt>
      <trkpt lat="47.53727" lon="2.36359">
        <ele>145</ele>
        <time>2024-05-08T09:26:12Z</time>
      </trkpt>
      <trkpt lat="47.53731" lon="2.36353">
        <ele>145</ele>
        <time>2024-05-08T09:26:13Z</time>
      </trkpt>
      <trkpt lat="47.53756" lon="2.36309">
        <ele>145.2</ele>
        <time>2024-05-08T09:26:19Z</time>
      </trkpt>
      <trkpt lat="47.53796" lon="2.36243">
        <ele>145.2</ele>
        <time>2024-05-08T09:26:28Z</time>
      </trkpt>
      <trkpt lat="47.5381" lon="2.36218">
        <ele>145</ele>
        <time>2024-05-08T09:26:31Z</time>
      </trkpt>
      <trkpt lat="47.53817" lon="2.36203">
        <ele>145</ele>
        <time>2024-05-08T09:26:33Z</time>
      </trkpt>
      <trkpt lat="47.53823" lon="2.36194">
        <ele>145</ele>
        <time>2024-05-08T09:26:34Z</time>
      </trkpt>
      <trkpt lat="47.5384" lon="2.36165">
        <ele>144.6</ele>
        <time>2024-05-08T09:26:38Z</time>
      </trkpt>
      <trkpt lat="47.53849" lon="2.3615">
        <ele>144.6</ele>
        <time>2024-05-08T09:26:40Z</time>
      </trkpt>
      <trkpt lat="47.53853" lon="2.36142">
        <ele>144.6</ele>
        <time>2024-05-08T09:26:41Z</time>
      </trkpt>
      <trkpt lat="47.53867" lon="2.36116">
        <ele>144.6</ele>
        <time>2024-05-08T09:26:44Z</time>
      </trkpt>
      <trkpt lat="47.53876" lon="2.361">
        <ele>144.6</ele>
        <time>2024-05-08T09:26:46Z</time>
      </trkpt>
      <trkpt lat="47.53892" lon="2.36067">
        <ele>144.2</ele>
        <time>2024-05-08T09:26:50Z</time>
      </trkpt>
      <trkpt lat="47.53922" lon="2.36011">
        <ele>144.2</ele>
        <time>2024-05-08T09:26:57Z</time>
      </trkpt>
      <trkpt lat="47.53944" lon="2.35973">
        <ele>143.8</ele>
        <time>2024-05-08T09:27:02Z</time>
      </trkpt>
      <trkpt lat="47.53958" lon="2.3595">
        <ele>143.6</ele>
        <time>2024-05-08T09:27:05Z</time>
      </trkpt>
      <trkpt lat="47.53983" lon="2.35902">
        <ele>143.6</ele>
        <time>2024-05-08T09:27:11Z</time>
      </trkpt>
      <trkpt lat="47.54008" lon="2.35856">
        <ele>143.8</ele>
        <time>2024-05-08T09:27:17Z</time>
      </trkpt>
      <trkpt lat="47.54028" lon="2.35817">
        <ele>144</ele>
        <time>2024-05-08T09:27:22Z</time>
      </trkpt>
      <trkpt lat="47.54048" lon="2.35778">
        <ele>144.2</ele>
        <time>2024-05-08T09:27:27Z</time>
      </trkpt>
      <trkpt lat="47.54072" lon="2.35736">
        <ele>144.2</ele>
        <time>2024-05-08T09:27:33Z</time>
      </trkpt>
      <trkpt lat="47.54099" lon="2.35685">
        <ele>144.2</ele>
        <time>2024-05-08T09:27:40Z</time>
      </trkpt>
      <trkpt lat="47.54136" lon="2.35617">
        <ele>144</ele>
        <time>2024-05-08T09:27:49Z</time>
      </trkpt>
      <trkpt lat="47.54149" lon="2.35594">
        <ele>143.8</ele>
        <time>2024-05-08T09:27:52Z</time>
      </trkpt>
      <trkpt lat="47.54182" lon="2.35531">
        <ele>143.4</ele>
        <time>2024-05-08T09:28:00Z</time>
      </trkpt>
      <trkpt lat="47.54187" lon="2.35524">
        <ele>143.4</ele>
        <time>2024-05-08T09:28:01Z</time>
      </trkpt>
      <trkpt lat="47.54216" lon="2.3547">
        <ele>143.4</ele>
        <time>2024-05-08T09:28:08Z</time>
      </trkpt>
      <trkpt lat="47.54255" lon="2.35399">
        <ele>143.2</ele>
        <time>2024-05-08T09:28:17Z</time>
      </trkpt>
      <trkpt lat="47.54291" lon="2.35333">
        <ele>142.8</ele>
        <time>2024-05-08T09:28:26Z</time>
      </trkpt>
      <trkpt lat="47.54303" lon="2.3531">
        <ele>142.6</ele>
        <time>2024-05-08T09:28:29Z</time>
      </trkpt>
      <trkpt lat="47.54312" lon="2.35293">
        <ele>142.6</ele>
        <time>2024-05-08T09:28:31Z</time>
      </trkpt>
      <trkpt lat="47.54324" lon="2.35271">
        <ele>142.6</ele>
        <time>2024-05-08T09:28:34Z</time>
      </trkpt>
      <trkpt lat="47.54345" lon="2.35233">
        <ele>142.6</ele>
        <time>2024-05-08T09:28:39Z</time>
      </trkpt>
      <trkpt lat="47.54381" lon="2.35172">
        <ele>142.4</ele>
        <time>2024-05-08T09:28:47Z</time>
      </trkpt>
      <trkpt lat="47.54415" lon="2.35109">
        <ele>142.4</ele>
        <time>2024-05-08T09:28:55Z</time>
      </trkpt>
      <trkpt lat="47.54451" lon="2.35044">
        <ele>142</ele>
        <time>2024-05-08T09:29:03Z</time>
      </trkpt>
      <trkpt lat="47.54456" lon="2.35035">
        <ele>142</ele>
        <time>2024-05-08T09:29:04Z</time>
      </trkpt>
      <trkpt lat="47.54482" lon="2.34984">
        <ele>141.6</ele>
        <time>2024-05-08T09:29:10Z</time>
      </trkpt>
      <trkpt lat="47.54519" lon="2.34917">
        <ele>141.4</ele>
        <time>2024-05-08T09:29:18Z</time>
      </trkpt>
      <trkpt lat="47.54531" lon="2.34895">
        <ele>141.4</ele>
        <time>2024-05-08T09:29:21Z</time>
      </trkpt>
      <trkpt lat="47.54541" lon="2.34878">
        <ele>141.2</ele>
        <time>2024-05-08T09:29:23Z</time>
      </trkpt>
      <trkpt lat="47.54564" lon="2.34836">
        <ele>141.2</ele>
        <time>2024-05-08T09:29:29Z</time>
      </trkpt>
      <trkpt lat="47.54589" lon="2.34793">
        <ele>141.4</ele>
        <time>2024-05-08T09:29:35Z</time>
      </trkpt>
      <trkpt lat="47.54627" lon="2.34723">
        <ele>141.6</ele>
        <time>2024-05-08T09:29:44Z</time>
      </trkpt>
      <trkpt lat="47.5463" lon="2.34717">
        <ele>141.6</ele>
        <time>2024-05-08T09:29:45Z</time>
      </trkpt>
      <trkpt lat="47.54666" lon="2.34653">
        <ele>141.6</ele>
        <time>2024-05-08T09:29:53Z</time>
      </trkpt>
      <trkpt lat="47.54674" lon="2.34637">
        <ele>141.4</ele>
        <time>2024-05-08T09:29:55Z</time>
      </trkpt>
      <trkpt lat="47.54709" lon="2.34576">
        <ele>141</ele>
        <time>2024-05-08T09:30:03Z</time>
      </trkpt>
      <trkpt lat="47.54713" lon="2.34569">
        <ele>141</ele>
        <time>2024-05-08T09:30:04Z</time>
      </trkpt>
      <trkpt lat="47.54747" lon="2.34508">
        <ele>140.6</ele>
        <time>2024-05-08T09:30:12Z</time>
      </trkpt>
      <trkpt lat="47.5478" lon="2.34449">
        <ele>140.4</ele>
        <time>2024-05-08T09:30:20Z</time>
      </trkpt>
      <trkpt lat="47.54816" lon="2.34386">
        <ele>140.2</ele>
        <time>2024-05-08T09:30:28Z</time>
      </trkpt>
      <trkpt lat="47.54852" lon="2.34321">
        <ele>140.2</ele>
        <time>2024-05-08T09:30:37Z</time>
      </trkpt>
      <trkpt lat="47.54886" lon="2.34258">
        <ele>140</ele>
        <time>2024-05-08T09:30:45Z</time>
      </trkpt>
      <trkpt lat="47.54896" lon="2.3424">
        <ele>140</ele>
        <time>2024-05-08T09:30:47Z</time>
      </trkpt>
      <trkpt lat="47.54931" lon="2.34175">
        <ele>139.8</ele>
        <time>2024-05-08T09:30:55Z</time>
      </trkpt>
      <trkpt lat="47.54949" lon="2.34143">
        <ele>139.8</ele>
        <time>2024-05-08T09:30:59Z</time>
      </trkpt>
      <trkpt lat="47.54985" lon="2.34075">
        <ele>139.2</ele>
        <time>2024-05-08T09:31:07Z</time>
      </trkpt>
      <trkpt lat="47.54989" lon="2.34069">
        <ele>139.2</ele>
        <time>2024-05-08T09:31:08Z</time>
      </trkpt>
      <trkpt lat="47.54997" lon="2.34052">
        <ele>139.2</ele>
        <time>2024-05-08T09:31:10Z</time>
      </trkpt>
      <trkpt lat="47.55026" lon="2.33982">
        <ele>138.6</ele>
        <time>2024-05-08T09:31:18Z</time>
      </trkpt>
      <trkpt lat="47.55036" lon="2.33955">
        <ele>138.2</ele>
        <time>2024-05-08T09:31:21Z</time>
      </trkpt>
      <trkpt lat="47.55054" lon="2.33909">
        <ele>137.8</ele>
        <time>2024-05-08T09:31:26Z</time>
      </trkpt>
      <trkpt lat="47.55082" lon="2.33838">
        <ele>137.6</ele>
        <time>2024-05-08T09:31:34Z</time>
      </trkpt>
      <trkpt lat="47.55085" lon="2.33829">
        <ele>137.4</ele>
        <time>2024-05-08T09:31:35Z</time>
      </trkpt>
      <trkpt lat="47.55113" lon="2.33759">
        <ele>137.2</ele>
        <time>2024-05-08T09:31:43Z</time>
      </trkpt>
      <trkpt lat="47.55124" lon="2.33731">
        <ele>137.2</ele>
        <time>2024-05-08T09:31:46Z</time>
      </trkpt>
      <trkpt lat="47.55143" lon="2.33685">
        <ele>136.8</ele>
        <time>2024-05-08T09:31:51Z</time>
      </trkpt>
      <trkpt lat="47.5516" lon="2.33637">
        <ele>136.8</ele>
        <time>2024-05-08T09:31:56Z</time>
      </trkpt>
      <trkpt lat="47.5518" lon="2.33591">
        <ele>136.2</ele>
        <time>2024-05-08T09:32:01Z</time>
      </trkpt>
      <trkpt lat="47.55188" lon="2.33574">
        <ele>135.8</ele>
        <time>2024-05-08T09:32:03Z</time>
      </trkpt>
      <trkpt lat="47.55195" lon="2.33557">
        <ele>135.8</ele>
        <time>2024-05-08T09:32:05Z</time>
      </trkpt>
      <trkpt lat="47.55206" lon="2.33531">
        <ele>135.6</ele>
        <time>2024-05-08T09:32:08Z</time>
      </trkpt>
      <trkpt lat="47.5521" lon="2.33522">
        <ele>135.6</ele>
        <time>2024-05-08T09:32:09Z</time>
      </trkpt>
      <trkpt lat="47.55228" lon="2.33465">
        <ele>135.4</ele>
        <time>2024-05-08T09:32:15Z</time>
      </trkpt>
      <trkpt lat="47.55255" lon="2.33393">
        <ele>135.8</ele>
        <time>2024-05-08T09:32:23Z</time>
      </trkpt>
      <trkpt lat="47.5528" lon="2.33331">
        <ele>136.2</ele>
        <time>2024-05-08T09:32:30Z</time>
      </trkpt>
      <trkpt lat="47.55305" lon="2.3327">
        <ele>136.2</ele>
        <time>2024-05-08T09:32:37Z</time>
      </trkpt>
      <trkpt lat="47.55331" lon="2.33197">
        <ele>136.2</ele>
        <time>2024-05-08T09:32:45Z</time>
      </trkpt>
      <trkpt lat="47.55335" lon="2.33189">
        <ele>136.2</ele>
        <time>2024-05-08T09:32:46Z</time>
      </trkpt>
      <trkpt lat="47.55346" lon="2.33162">
        <ele>136</ele>
        <time>2024-05-08T09:32:49Z</time>
      </trkpt>
      <trkpt lat="47.55365" lon="2.33107">
        <ele>135.8</ele>
        <time>2024-05-08T09:32:55Z</time>
      </trkpt>
      <trkpt lat="47.55393" lon="2.33038">
        <ele>135.6</ele>
        <time>2024-05-08T09:33:03Z</time>
      </trkpt>
      <trkpt lat="47.55413" lon="2.32987">
        <ele>135.8</ele>
        <time>2024-05-08T09:33:09Z</time>
      </trkpt>
      <trkpt lat="47.5542" lon="2.3297">
        <ele>135.8</ele>
        <time>2024-05-08T09:33:11Z</time>
      </trkpt>
      <trkpt lat="47.55443" lon="2.3291">
        <ele>135.4</ele>
        <time>2024-05-08T09:33:18Z</time>
      </trkpt>
      <trkpt lat="47.5546" lon="2.32866">
        <ele>135</ele>
        <time>2024-05-08T09:33:23Z</time>
      </trkpt>
      <trkpt lat="47.55474" lon="2.3283">
        <ele>134.4</ele>
        <time>2024-05-08T09:33:27Z</time>
      </trkpt>
      <trkpt lat="47.55485" lon="2.32803">
        <ele>133.8</ele>
        <time>2024-05-08T09:33:30Z</time>
      </trkpt>
      <trkpt lat="47.5551" lon="2.32738">
        <ele>133.2</ele>
        <time>2024-05-08T09:33:37Z</time>
      </trkpt>
      <trkpt lat="47.55516" lon="2.32723">
        <ele>133.2</ele>
        <time>2024-05-08T09:33:39Z</time>
      </trkpt>
      <trkpt lat="47.5553" lon="2.32689">
        <ele>133</ele>
        <time>2024-05-08T09:33:43Z</time>
      </trkpt>
      <trkpt lat="47.55549" lon="2.32645">
        <ele>133</ele>
        <time>2024-05-08T09:33:48Z</time>
      </trkpt>
      <trkpt lat="47.55558" lon="2.32628">
        <ele>133</ele>
        <time>2024-05-08T09:33:50Z</time>
      </trkpt>
      <trkpt lat="47.55571" lon="2.32591">
        <ele>132.8</ele>
        <time>2024-05-08T09:33:54Z</time>
      </trkpt>
      <trkpt lat="47.55582" lon="2.32564">
        <ele>132.6</ele>
        <time>2024-05-08T09:33:57Z</time>
      </trkpt>
      <trkpt lat="47.5561" lon="2.32492">
        <ele>132.4</ele>
        <time>2024-05-08T09:34:05Z</time>
      </trkpt>
      <trkpt lat="47.55613" lon="2.32483">
        <ele>132.4</ele>
        <time>2024-05-08T09:34:06Z</time>
      </trkpt>
      <trkpt lat="47.5564" lon="2.32411">
        <ele>132.2</ele>
        <time>2024-05-08T09:34:14Z</time>
      </trkpt>
      <trkpt lat="47.55645" lon="2.32401">
        <ele>132.2</ele>
        <time>2024-05-08T09:34:15Z</time>
      </trkpt>
      <trkpt lat="47.55663" lon="2.32357">
        <ele>131.8</ele>
        <time>2024-05-08T09:34:20Z</time>
      </trkpt>
      <trkpt lat="47.55675" lon="2.32322">
        <ele>131.4</ele>
        <time>2024-05-08T09:34:24Z</time>
      </trkpt>
      <trkpt lat="47.55703" lon="2.32249">
        <ele>131.2</ele>
        <time>2024-05-08T09:34:32Z</time>
      </trkpt>
      <trkpt lat="47.55731" lon="2.32178">
        <ele>130.6</ele>
        <time>2024-05-08T09:34:39Z</time>
      </trkpt>
      <trkpt lat="47.55748" lon="2.32135">
        <ele>129.4</ele>
        <time>2024-05-08T09:34:43Z</time>
      </trkpt>
      <trkpt lat="47.55758" lon="2.32112">
        <ele>129</ele>
        <time>2024-05-08T09:34:45Z</time>
      </trkpt>
      <trkpt lat="47.55767" lon="2.32088">
        <ele>128.2</ele>
        <time>2024-05-08T09:34:47Z</time>
      </trkpt>
      <trkpt lat="47.55781" lon="2.32051">
        <ele>126.8</ele>
        <time>2024-05-08T09:34:50Z</time>
      </trkpt>
      <trkpt lat="47.55786" lon="2.32039">
        <ele>126.2</ele>
        <time>2024-05-08T09:34:51Z</time>
      </trkpt>
      <trkpt lat="47.55795" lon="2.32015">
        <ele>125.4</ele>
        <time>2024-05-08T09:34:53Z</time>
      </trkpt>
      <trkpt lat="47.55817" lon="2.31957">
        <ele>124.2</ele>
        <time>2024-05-08T09:34:58Z</time>
      </trkpt>
      <trkpt lat="47.55822" lon="2.31946">
        <ele>124</ele>
        <time>2024-05-08T09:34:59Z</time>
      </trkpt>
      <trkpt lat="47.55842" lon="2.31892">
        <ele>123.6</ele>
        <time>2024-05-08T09:35:04Z</time>
      </trkpt>
      <trkpt lat="47.55869" lon="2.31823">
        <ele>123.2</ele>
        <time>2024-05-08T09:35:11Z</time>
      </trkpt>
      <trkpt lat="47.55872" lon="2.31813">
        <ele>123.2</ele>
        <time>2024-05-08T09:35:12Z</time>
      </trkpt>
      <trkpt lat="47.559" lon="2.3174">
        <ele>122.8</ele>
        <time>2024-05-08T09:35:20Z</time>
      </trkpt>
      <trkpt lat="47.55927" lon="2.3167">
        <ele>122.6</ele>
        <time>2024-05-08T09:35:28Z</time>
      </trkpt>
      <trkpt lat="47.55937" lon="2.31643">
        <ele>122.4</ele>
        <time>2024-05-08T09:35:31Z</time>
      </trkpt>
      <trkpt lat="47.55965" lon="2.31575">
        <ele>122.2</ele>
        <time>2024-05-08T09:35:39Z</time>
      </trkpt>
      <trkpt lat="47.55975" lon="2.31549">
        <ele>122</ele>
        <time>2024-05-08T09:35:42Z</time>
      </trkpt>
      <trkpt lat="47.55991" lon="2.31506">
        <ele>122</ele>
        <time>2024-05-08T09:35:47Z</time>
      </trkpt>
      <trkpt lat="47.56017" lon="2.31439">
        <ele>121.8</ele>
        <time>2024-05-08T09:35:55Z</time>
      </trkpt>
      <trkpt lat="47.56044" lon="2.3137">
        <ele>121.8</ele>
        <time>2024-05-08T09:36:03Z</time>
      </trkpt>
      <trkpt lat="47.56064" lon="2.31318">
        <ele>121.4</ele>
        <time>2024-05-08T09:36:09Z</time>
      </trkpt>
      <trkpt lat="47.56092" lon="2.31246">
        <ele>121</ele>
        <time>2024-05-08T09:36:17Z</time>
      </trkpt>
      <trkpt lat="47.56103" lon="2.3122">
        <ele>120.6</ele>
        <time>2024-05-08T09:36:20Z</time>
      </trkpt>
      <trkpt lat="47.56127" lon="2.31157">
        <ele>119.6</ele>
        <time>2024-05-08T09:36:27Z</time>
      </trkpt>
      <trkpt lat="47.56138" lon="2.3113">
        <ele>119.6</ele>
        <time>2024-05-08T09:36:30Z</time>
      </trkpt>
      <trkpt lat="47.56165" lon="2.31063">
        <ele>120</ele>
        <time>2024-05-08T09:36:38Z</time>
      </trkpt>
      <trkpt lat="47.56194" lon="2.30986">
        <ele>120</ele>
        <time>2024-05-08T09:36:47Z</time>
      </trkpt>
      <trkpt lat="47.56218" lon="2.30924">
        <ele>119.4</ele>
        <time>2024-05-08T09:36:54Z</time>
      </trkpt>
      <trkpt lat="47.56245" lon="2.30854">
        <ele>118.8</ele>
        <time>2024-05-08T09:37:02Z</time>
      </trkpt>
      <trkpt lat="47.56275" lon="2.30778">
        <ele>119.2</ele>
        <time>2024-05-08T09:37:11Z</time>
      </trkpt>
      <trkpt lat="47.56293" lon="2.3073">
        <ele>119.8</ele>
        <time>2024-05-08T09:37:17Z</time>
      </trkpt>
      <trkpt lat="47.56318" lon="2.30666">
        <ele>119.6</ele>
        <time>2024-05-08T09:37:24Z</time>
      </trkpt>
      <trkpt lat="47.56346" lon="2.30595">
        <ele>119</ele>
        <time>2024-05-08T09:37:32Z</time>
      </trkpt>
      <trkpt lat="47.5635" lon="2.30586">
        <ele>119</ele>
        <time>2024-05-08T09:37:33Z</time>
      </trkpt>
      <trkpt lat="47.56373" lon="2.30527">
        <ele>118.6</ele>
        <time>2024-05-08T09:37:40Z</time>
      </trkpt>
      <trkpt lat="47.56382" lon="2.30503">
        <ele>118.4</ele>
        <time>2024-05-08T09:37:43Z</time>
      </trkpt>
      <trkpt lat="47.56387" lon="2.30487">
        <ele>118.4</ele>
        <time>2024-05-08T09:37:45Z</time>
      </trkpt>
      <trkpt lat="47.56389" lon="2.30479">
        <ele>118.4</ele>
        <time>2024-05-08T09:37:46Z</time>
      </trkpt>
      <trkpt lat="47.5639" lon="2.3047">
        <ele>118.4</ele>
        <time>2024-05-08T09:37:47Z</time>
      </trkpt>
      <trkpt lat="47.56388" lon="2.30449">
        <ele>118.4</ele>
        <time>2024-05-08T09:37:49Z</time>
      </trkpt>
      <trkpt lat="47.56387" lon="2.30441">
        <ele>118.2</ele>
        <time>2024-05-08T09:37:50Z</time>
      </trkpt>
      <trkpt lat="47.56375" lon="2.30396">
        <ele>118</ele>
        <time>2024-05-08T09:37:55Z</time>
      </trkpt>
      <trkpt lat="47.56357" lon="2.30344">
        <ele>117.4</ele>
        <time>2024-05-08T09:38:01Z</time>
      </trkpt>
      <trkpt lat="47.56355" lon="2.30335">
        <ele>117.4</ele>
        <time>2024-05-08T09:38:02Z</time>
      </trkpt>
      <trkpt lat="47.5634" lon="2.30273">
        <ele>117</ele>
        <time>2024-05-08T09:38:09Z</time>
      </trkpt>
      <trkpt lat="47.56325" lon="2.30199">
        <ele>117.2</ele>
        <time>2024-05-08T09:38:17Z</time>
      </trkpt>
      <trkpt lat="47.56324" lon="2.30187">
        <ele>117.2</ele>
        <time>2024-05-08T09:38:18Z</time>
      </trkpt>
      <trkpt lat="47.56323" lon="2.30148">
        <ele>117.2</ele>
        <time>2024-05-08T09:38:22Z</time>
      </trkpt>
      <trkpt lat="47.56326" lon="2.30128">
        <ele>117.2</ele>
        <time>2024-05-08T09:38:24Z</time>
      </trkpt>
      <trkpt lat="47.56347" lon="2.30044">
        <ele>118</ele>
        <time>2024-05-08T09:38:33Z</time>
      </trkpt>
      <trkpt lat="47.56362" lon="2.29993">
        <ele>118.4</ele>
        <time>2024-05-08T09:38:39Z</time>
      </trkpt>
      <trkpt lat="47.56369" lon="2.29966">
        <ele>118.8</ele>
        <time>2024-05-08T09:38:42Z</time>
      </trkpt>
      <trkpt lat="47.56372" lon="2.29958">
        <ele>119</ele>
        <time>2024-05-08T09:38:43Z</time>
      </trkpt>
      <trkpt lat="47.56383" lon="2.29921">
        <ele>119</ele>
        <time>2024-05-08T09:38:47Z</time>
      </trkpt>
      <trkpt lat="47.56395" lon="2.29883">
        <ele>119</ele>
        <time>2024-05-08T09:38:51Z</time>
      </trkpt>
      <trkpt lat="47.56404" lon="2.29859">
        <ele>118.8</ele>
        <time>2024-05-08T09:38:54Z</time>
      </trkpt>
      <trkpt lat="47.56421" lon="2.29803">
        <ele>118.6</ele>
        <time>2024-05-08T09:39:00Z</time>
      </trkpt>
      <trkpt lat="47.56442" lon="2.29726">
        <ele>118.4</ele>
        <time>2024-05-08T09:39:08Z</time>
      </trkpt>
      <trkpt lat="47.56453" lon="2.29659">
        <ele>118.8</ele>
        <time>2024-05-08T09:39:15Z</time>
      </trkpt>
      <trkpt lat="47.56454" lon="2.29639">
        <ele>118.8</ele>
        <time>2024-05-08T09:39:17Z</time>
      </trkpt>
      <trkpt lat="47.5646" lon="2.2958">
        <ele>119</ele>
        <time>2024-05-08T09:39:23Z</time>
      </trkpt>
      <trkpt lat="47.56467" lon="2.29511">
        <ele>119</ele>
        <time>2024-05-08T09:39:30Z</time>
      </trkpt>
      <trkpt lat="47.56475" lon="2.29431">
        <ele>118.8</ele>
        <time>2024-05-08T09:39:38Z</time>
      </trkpt>
      <trkpt lat="47.56477" lon="2.29411">
        <ele>118.8</ele>
        <time>2024-05-08T09:39:40Z</time>
      </trkpt>
      <trkpt lat="47.56486" lon="2.29323">
        <ele>118.6</ele>
        <time>2024-05-08T09:39:49Z</time>
      </trkpt>
      <trkpt lat="47.56487" lon="2.29313">
        <ele>118.6</ele>
        <time>2024-05-08T09:39:50Z</time>
      </trkpt>
      <trkpt lat="47.56496" lon="2.29233">
        <ele>118.6</ele>
        <time>2024-05-08T09:39:58Z</time>
      </trkpt>
      <trkpt lat="47.56499" lon="2.29203">
        <ele>118.4</ele>
        <time>2024-05-08T09:40:01Z</time>
      </trkpt>
      <trkpt lat="47.56507" lon="2.29123">
        <ele>118.2</ele>
        <time>2024-05-08T09:40:09Z</time>
      </trkpt>
      <trkpt lat="47.56515" lon="2.29045">
        <ele>118.2</ele>
        <time>2024-05-08T09:40:17Z</time>
      </trkpt>
      <trkpt lat="47.56524" lon="2.28958">
        <ele>118.2</ele>
        <time>2024-05-08T09:40:26Z</time>
      </trkpt>
      <trkpt lat="47.56526" lon="2.28939">
        <ele>118.2</ele>
        <time>2024-05-08T09:40:28Z</time>
      </trkpt>
      <trkpt lat="47.56534" lon="2.28865">
        <ele>118.2</ele>
        <time>2024-05-08T09:40:36Z</time>
      </trkpt>
      <trkpt lat="47.56541" lon="2.2879">
        <ele>118.4</ele>
        <time>2024-05-08T09:40:44Z</time>
      </trkpt>
      <trkpt lat="47.56549" lon="2.28708">
        <ele>119.2</ele>
        <time>2024-05-08T09:40:52Z</time>
      </trkpt>
      <trkpt lat="47.5655" lon="2.28697">
        <ele>119.2</ele>
        <time>2024-05-08T09:40:53Z</time>
      </trkpt>
      <trkpt lat="47.56558" lon="2.28618">
        <ele>119.2</ele>
        <time>2024-05-08T09:41:01Z</time>
      </trkpt>
      <trkpt lat="47.56561" lon="2.28589">
        <ele>119.2</ele>
        <time>2024-05-08T09:41:04Z</time>
      </trkpt>
      <trkpt lat="47.56569" lon="2.28507">
        <ele>119.2</ele>
        <time>2024-05-08T09:41:12Z</time>
      </trkpt>
      <trkpt lat="47.56572" lon="2.28476">
        <ele>119.2</ele>
        <time>2024-05-08T09:41:15Z</time>
      </trkpt>
      <trkpt lat="47.5658" lon="2.28395">
        <ele>119.2</ele>
        <time>2024-05-08T09:41:23Z</time>
      </trkpt>
      <trkpt lat="47.56584" lon="2.28353">
        <ele>119.2</ele>
        <time>2024-05-08T09:41:27Z</time>
      </trkpt>
      <trkpt lat="47.56593" lon="2.28272">
        <ele>118.6</ele>
        <time>2024-05-08T09:41:35Z</time>
      </trkpt>
      <trkpt lat="47.56594" lon="2.28262">
        <ele>118.6</ele>
        <time>2024-05-08T09:41:36Z</time>
      </trkpt>
      <trkpt lat="47.56602" lon="2.2818">
        <ele>118.6</ele>
        <time>2024-05-08T09:41:44Z</time>
      </trkpt>
      <trkpt lat="47.56604" lon="2.2816">
        <ele>118.6</ele>
        <time>2024-05-08T09:41:46Z</time>
      </trkpt>
      <trkpt lat="47.56613" lon="2.28072">
        <ele>118.6</ele>
        <time>2024-05-08T09:41:55Z</time>
      </trkpt>
      <trkpt lat="47.56622" lon="2.27997">
        <ele>118.8</ele>
        <time>2024-05-08T09:42:03Z</time>
      </trkpt>
      <trkpt lat="47.56629" lon="2.27921">
        <ele>119</ele>
        <time>2024-05-08T09:42:11Z</time>
      </trkpt>
      <trkpt lat="47.56635" lon="2.27863">
        <ele>119.4</ele>
        <time>2024-05-08T09:42:17Z</time>
      </trkpt>
      <trkpt lat="47.56639" lon="2.27834">
        <ele>119.4</ele>
        <time>2024-05-08T09:42:20Z</time>
      </trkpt>
      <trkpt lat="47.56643" lon="2.27794">
        <ele>119.6</ele>
        <time>2024-05-08T09:42:24Z</time>
      </trkpt>
      <trkpt lat="47.56651" lon="2.27714">
        <ele>119.8</ele>
        <time>2024-05-08T09:42:32Z</time>
      </trkpt>
      <trkpt lat="47.56653" lon="2.27693">
        <ele>119.8</ele>
        <time>2024-05-08T09:42:34Z</time>
      </trkpt>
      <trkpt lat="47.56654" lon="2.27683">
        <ele>119.6</ele>
        <time>2024-05-08T09:42:35Z</time>
      </trkpt>
      <trkpt lat="47.56662" lon="2.27595">
        <ele>118.8</ele>
        <time>2024-05-08T09:42:43Z</time>
      </trkpt>
      <trkpt lat="47.56663" lon="2.27584">
        <ele>118.8</ele>
        <time>2024-05-08T09:42:44Z</time>
      </trkpt>
      <trkpt lat="47.56668" lon="2.27527">
        <ele>118.4</ele>
        <time>2024-05-08T09:42:49Z</time>
      </trkpt>
      <trkpt lat="47.56673" lon="2.27484">
        <ele>117.8</ele>
        <time>2024-05-08T09:42:53Z</time>
      </trkpt>
      <trkpt lat="47.56682" lon="2.27398">
        <ele>117.4</ele>
        <time>2024-05-08T09:43:01Z</time>
      </trkpt>
      <trkpt lat="47.56684" lon="2.27376">
        <ele>117.4</ele>
        <time>2024-05-08T09:43:03Z</time>
      </trkpt>
      <trkpt lat="47.56685" lon="2.27366">
        <ele>117.4</ele>
        <time>2024-05-08T09:43:04Z</time>
      </trkpt>
      <trkpt lat="47.56692" lon="2.27293">
        <ele>117.2</ele>
        <time>2024-05-08T09:43:11Z</time>
      </trkpt>
      <trkpt lat="47.56699" lon="2.27221">
        <ele>116.8</ele>
        <time>2024-05-08T09:43:18Z</time>
      </trkpt>
      <trkpt lat="47.56706" lon="2.27157">
        <ele>116.2</ele>
        <time>2024-05-08T09:43:24Z</time>
      </trkpt>
      <trkpt lat="47.56709" lon="2.27125">
        <ele>115.8</ele>
        <time>2024-05-08T09:43:27Z</time>
      </trkpt>
      <trkpt lat="47.56714" lon="2.27071">
        <ele>115.2</ele>
        <time>2024-05-08T09:43:32Z</time>
      </trkpt>
      <trkpt lat="47.56715" lon="2.27061">
        <ele>115</ele>
        <time>2024-05-08T09:43:33Z</time>
      </trkpt>
      <trkpt lat="47.56718" lon="2.26997">
        <ele>114.8</ele>
        <time>2024-05-08T09:43:39Z</time>
      </trkpt>
      <trkpt lat="47.56718" lon="2.26987">
        <ele>114.8</ele>
        <time>2024-05-08T09:43:40Z</time>
      </trkpt>
      <trkpt lat="47.56717" lon="2.26933">
        <ele>114.2</ele>
        <time>2024-05-08T09:43:45Z</time>
      </trkpt>
      <trkpt lat="47.56714" lon="2.26898">
        <ele>113.8</ele>
        <time>2024-05-08T09:43:48Z</time>
      </trkpt>
      <trkpt lat="47.56709" lon="2.26821">
        <ele>113.2</ele>
        <time>2024-05-08T09:43:55Z</time>
      </trkpt>
      <trkpt lat="47.56702" lon="2.26777">
        <ele>112.8</ele>
        <time>2024-05-08T09:43:59Z</time>
      </trkpt>
      <trkpt lat="47.56696" lon="2.26745">
        <ele>112.4</ele>
        <time>2024-05-08T09:44:02Z</time>
      </trkpt>
      <trkpt lat="47.56685" lon="2.26703">
        <ele>111.8</ele>
        <time>2024-05-08T09:44:06Z</time>
      </trkpt>
      <trkpt lat="47.5667" lon="2.2665">
        <ele>111.2</ele>
        <time>2024-05-08T09:44:11Z</time>
      </trkpt>
      <trkpt lat="47.56645" lon="2.2658">
        <ele>110.6</ele>
        <time>2024-05-08T09:44:18Z</time>
      </trkpt>
      <trkpt lat="47.56615" lon="2.26519">
        <ele>110.6</ele>
        <time>2024-05-08T09:44:25Z</time>
      </trkpt>
      <trkpt lat="47.56602" lon="2.26494">
        <ele>110.4</ele>
        <time>2024-05-08T09:44:28Z</time>
      </trkpt>
      <trkpt lat="47.5658" lon="2.26452">
        <ele>110.2</ele>
        <time>2024-05-08T09:44:33Z</time>
      </trkpt>
      <trkpt lat="47.56545" lon="2.26383">
        <ele>110</ele>
        <time>2024-05-08T09:44:41Z</time>
      </trkpt>
      <trkpt lat="47.56511" lon="2.26318">
        <ele>109.8</ele>
        <time>2024-05-08T09:44:49Z</time>
      </trkpt>
      <trkpt lat="47.56503" lon="2.26301">
        <ele>109.8</ele>
        <time>2024-05-08T09:44:51Z</time>
      </trkpt>
      <trkpt lat="47.56479" lon="2.26253">
        <ele>109.8</ele>
        <time>2024-05-08T09:44:57Z</time>
      </trkpt>
      <trkpt lat="47.56446" lon="2.26188">
        <ele>109.8</ele>
        <time>2024-05-08T09:45:05Z</time>
      </trkpt>
      <trkpt lat="47.56438" lon="2.26172">
        <ele>109.8</ele>
        <time>2024-05-08T09:45:07Z</time>
      </trkpt>
      <trkpt lat="47.56414" lon="2.26119">
        <ele>109.8</ele>
        <time>2024-05-08T09:45:13Z</time>
      </trkpt>
      <trkpt lat="47.56401" lon="2.26074">
        <ele>110</ele>
        <time>2024-05-08T09:45:18Z</time>
      </trkpt>
      <trkpt lat="47.56398" lon="2.26055">
        <ele>110</ele>
        <time>2024-05-08T09:45:20Z</time>
      </trkpt>
      <trkpt lat="47.56394" lon="2.26001">
        <ele>110.6</ele>
        <time>2024-05-08T09:45:26Z</time>
      </trkpt>
      <trkpt lat="47.56397" lon="2.2594">
        <ele>111.6</ele>
        <time>2024-05-08T09:45:33Z</time>
      </trkpt>
      <trkpt lat="47.56398" lon="2.25922">
        <ele>111.8</ele>
        <time>2024-05-08T09:45:35Z</time>
      </trkpt>
      <trkpt lat="47.56402" lon="2.25858">
        <ele>112.2</ele>
        <time>2024-05-08T09:45:42Z</time>
      </trkpt>
      <trkpt lat="47.56405" lon="2.25808">
        <ele>112.4</ele>
        <time>2024-05-08T09:45:48Z</time>
      </trkpt>
      <trkpt lat="47.56405" lon="2.25797">
        <ele>112.4</ele>
        <time>2024-05-08T09:45:49Z</time>
      </trkpt>
      <trkpt lat="47.56405" lon="2.25786">
        <ele>112.4</ele>
        <time>2024-05-08T09:45:50Z</time>
      </trkpt>
      <trkpt lat="47.56407" lon="2.2574">
        <ele>112.2</ele>
        <time>2024-05-08T09:45:54Z</time>
      </trkpt>
      <trkpt lat="47.56414" lon="2.25698">
        <ele>111.8</ele>
        <time>2024-05-08T09:45:58Z</time>
      </trkpt>
      <trkpt lat="47.56421" lon="2.25682">
        <ele>111.6</ele>
        <time>2024-05-08T09:46:00Z</time>
      </trkpt>
      <trkpt lat="47.56439" lon="2.25655">
        <ele>111.6</ele>
        <time>2024-05-08T09:46:04Z</time>
      </trkpt>
      <trkpt lat="47.56444" lon="2.25648">
        <ele>111.6</ele>
        <time>2024-05-08T09:46:05Z</time>
      </trkpt>
      <trkpt lat="47.56453" lon="2.25641">
        <ele>111.6</ele>
        <time>2024-05-08T09:46:07Z</time>
      </trkpt>
      <trkpt lat="47.56477" lon="2.25625">
        <ele>111.8</ele>
        <time>2024-05-08T09:46:12Z</time>
      </trkpt>
      <trkpt lat="47.56482" lon="2.25621">
        <ele>111.8</ele>
        <time>2024-05-08T09:46:13Z</time>
      </trkpt>
      <trkpt lat="47.56513" lon="2.25602">
        <ele>112</ele>
        <time>2024-05-08T09:46:19Z</time>
      </trkpt>
      <trkpt lat="47.56528" lon="2.25594">
        <ele>112.2</ele>
        <time>2024-05-08T09:46:22Z</time>
      </trkpt>
      <trkpt lat="47.56538" lon="2.25589">
        <ele>112.4</ele>
        <time>2024-05-08T09:46:24Z</time>
      </trkpt>
      <trkpt lat="47.56543" lon="2.25586">
        <ele>112.4</ele>
        <time>2024-05-08T09:46:25Z</time>
      </trkpt>
      <trkpt lat="47.56563" lon="2.25572">
        <ele>112.8</ele>
        <time>2024-05-08T09:46:29Z</time>
      </trkpt>
      <trkpt lat="47.56568" lon="2.25568">
        <ele>113</ele>
        <time>2024-05-08T09:46:30Z</time>
      </trkpt>
      <trkpt lat="47.56604" lon="2.2554">
        <ele>114</ele>
        <time>2024-05-08T09:46:37Z</time>
      </trkpt>
      <trkpt lat="47.56618" lon="2.25511">
        <ele>114.6</ele>
        <time>2024-05-08T09:46:41Z</time>
      </trkpt>
      <trkpt lat="47.5662" lon="2.25503">
        <ele>114.8</ele>
        <time>2024-05-08T09:46:42Z</time>
      </trkpt>
      <trkpt lat="47.56621" lon="2.25496">
        <ele>115</ele>
        <time>2024-05-08T09:46:43Z</time>
      </trkpt>
      <trkpt lat="47.56624" lon="2.2549">
        <ele>115</ele>
        <time>2024-05-08T09:46:44Z</time>
      </trkpt>
      <trkpt lat="47.56627" lon="2.25485">
        <ele>115.2</ele>
        <time>2024-05-08T09:46:45Z</time>
      </trkpt>
      <trkpt lat="47.56631" lon="2.2548">
        <ele>115.2</ele>
        <time>2024-05-08T09:46:46Z</time>
      </trkpt>
      <trkpt lat="47.56642" lon="2.25466">
        <ele>116.2</ele>
        <time>2024-05-08T09:46:49Z</time>
      </trkpt>
      <trkpt lat="47.56652" lon="2.25453">
        <ele>116.8</ele>
        <time>2024-05-08T09:46:52Z</time>
      </trkpt>
      <trkpt lat="47.56656" lon="2.25448">
        <ele>117.2</ele>
        <time>2024-05-08T09:46:53Z</time>
      </trkpt>
      <trkpt lat="47.56666" lon="2.25434">
        <ele>118.4</ele>
        <time>2024-05-08T09:46:56Z</time>
      </trkpt>
      <trkpt lat="47.5668" lon="2.25417">
        <ele>119</ele>
        <time>2024-05-08T09:47:00Z</time>
      </trkpt>
      <trkpt lat="47.56683" lon="2.25413">
        <ele>119.6</ele>
        <time>2024-05-08T09:47:01Z</time>
      </trkpt>
      <trkpt lat="47.56696" lon="2.25396">
        <ele>120.6</ele>
        <time>2024-05-08T09:47:05Z</time>
      </trkpt>
      <trkpt lat="47.56702" lon="2.25387">
        <ele>121.2</ele>
        <time>2024-05-08T09:47:07Z</time>
      </trkpt>
      <trkpt lat="47.56713" lon="2.25372">
        <ele>121.8</ele>
        <time>2024-05-08T09:47:10Z</time>
      </trkpt>
      <trkpt lat="47.56716" lon="2.25367">
        <ele>121.8</ele>
        <time>2024-05-08T09:47:11Z</time>
      </trkpt>
      <trkpt lat="47.5673" lon="2.25347">
        <ele>122.6</ele>
        <time>2024-05-08T09:47:15Z</time>
      </trkpt>
      <trkpt lat="47.56733" lon="2.25342">
        <ele>122.8</ele>
        <time>2024-05-08T09:47:16Z</time>
      </trkpt>
      <trkpt lat="47.56759" lon="2.25294">
        <ele>123.8</ele>
        <time>2024-05-08T09:47:24Z</time>
      </trkpt>
      <trkpt lat="47.56784" lon="2.25245">
        <ele>124.2</ele>
        <time>2024-05-08T09:47:32Z</time>
      </trkpt>
      <trkpt lat="47.56809" lon="2.25194">
        <ele>124.6</ele>
        <time>2024-05-08T09:47:40Z</time>
      </trkpt>
      <trkpt lat="47.56817" lon="2.25182">
        <ele>124.8</ele>
        <time>2024-05-08T09:47:42Z</time>
      </trkpt>
      <trkpt lat="47.56831" lon="2.25156">
        <ele>125</ele>
        <time>2024-05-08T09:47:46Z</time>
      </trkpt>
      <trkpt lat="47.56852" lon="2.25115">
        <ele>125</ele>
        <time>2024-05-08T09:47:52Z</time>
      </trkpt>
      <trkpt lat="47.56867" lon="2.25087">
        <ele>124.8</ele>
        <time>2024-05-08T09:47:56Z</time>
      </trkpt>
      <trkpt lat="47.569" lon="2.25024">
        <ele>125.4</ele>
        <time>2024-05-08T09:48:05Z</time>
      </trkpt>
      <trkpt lat="47.56927" lon="2.24971">
        <ele>126</ele>
        <time>2024-05-08T09:48:13Z</time>
      </trkpt>
      <trkpt lat="47.56931" lon="2.24964">
        <ele>126</ele>
        <time>2024-05-08T09:48:14Z</time>
      </trkpt>
      <trkpt lat="47.56968" lon="2.24894">
        <ele>126.4</ele>
        <time>2024-05-08T09:48:24Z</time>
      </trkpt>
      <trkpt lat="47.56995" lon="2.24843">
        <ele>126.8</ele>
        <time>2024-05-08T09:48:32Z</time>
      </trkpt>
      <trkpt lat="47.57003" lon="2.24829">
        <ele>127</ele>
        <time>2024-05-08T09:48:34Z</time>
      </trkpt>
      <trkpt lat="47.57006" lon="2.24823">
        <ele>127.2</ele>
        <time>2024-05-08T09:48:35Z</time>
      </trkpt>
      <trkpt lat="47.57016" lon="2.24804">
        <ele>127.6</ele>
        <time>2024-05-08T09:48:38Z</time>
      </trkpt>
      <trkpt lat="47.57033" lon="2.24773">
        <ele>128.2</ele>
        <time>2024-05-08T09:48:43Z</time>
      </trkpt>
      <trkpt lat="47.57042" lon="2.24754">
        <ele>128.6</ele>
        <time>2024-05-08T09:48:46Z</time>
      </trkpt>
      <trkpt lat="47.57065" lon="2.24706">
        <ele>129.2</ele>
        <time>2024-05-08T09:48:53Z</time>
      </trkpt>
      <trkpt lat="47.57074" lon="2.24685">
        <ele>129.4</ele>
        <time>2024-05-08T09:48:56Z</time>
      </trkpt>
      <trkpt lat="47.57093" lon="2.24631">
        <ele>130.2</ele>
        <time>2024-05-08T09:49:03Z</time>
      </trkpt>
      <trkpt lat="47.57095" lon="2.24626">
        <ele>130.2</ele>
        <time>2024-05-08T09:49:04Z</time>
      </trkpt>
      <trkpt lat="47.57119" lon="2.2456">
        <ele>131.2</ele>
        <time>2024-05-08T09:49:13Z</time>
      </trkpt>
      <trkpt lat="47.57121" lon="2.24554">
        <ele>131.4</ele>
        <time>2024-05-08T09:49:14Z</time>
      </trkpt>
      <trkpt lat="47.57145" lon="2.24488">
        <ele>132</ele>
        <time>2024-05-08T09:49:23Z</time>
      </trkpt>
      <trkpt lat="47.57163" lon="2.24439">
        <ele>132.2</ele>
        <time>2024-05-08T09:49:29Z</time>
      </trkpt>
      <trkpt lat="47.5717" lon="2.24417">
        <ele>132.4</ele>
        <time>2024-05-08T09:49:32Z</time>
      </trkpt>
      <trkpt lat="47.57197" lon="2.24344">
        <ele>133</ele>
        <time>2024-05-08T09:49:41Z</time>
      </trkpt>
      <trkpt lat="47.57218" lon="2.24289">
        <ele>133.2</ele>
        <time>2024-05-08T09:49:48Z</time>
      </trkpt>
      <trkpt lat="47.5722" lon="2.24281">
        <ele>133.2</ele>
        <time>2024-05-08T09:49:49Z</time>
      </trkpt>
      <trkpt lat="47.57229" lon="2.24257">
        <ele>133.6</ele>
        <time>2024-05-08T09:49:52Z</time>
      </trkpt>
      <trkpt lat="47.57236" lon="2.24243">
        <ele>133.8</ele>
        <time>2024-05-08T09:49:54Z</time>
      </trkpt>
      <trkpt lat="47.57242" lon="2.24228">
        <ele>134</ele>
        <time>2024-05-08T09:49:56Z</time>
      </trkpt>
      <trkpt lat="47.57248" lon="2.2421">
        <ele>134.2</ele>
        <time>2024-05-08T09:49:58Z</time>
      </trkpt>
      <trkpt lat="47.57274" lon="2.24138">
        <ele>134.6</ele>
        <time>2024-05-08T09:50:07Z</time>
      </trkpt>
      <trkpt lat="47.57277" lon="2.2413">
        <ele>134.8</ele>
        <time>2024-05-08T09:50:08Z</time>
      </trkpt>
      <trkpt lat="47.57296" lon="2.24075">
        <ele>135.4</ele>
        <time>2024-05-08T09:50:15Z</time>
      </trkpt>
      <trkpt lat="47.57311" lon="2.24037">
        <ele>135.8</ele>
        <time>2024-05-08T09:50:20Z</time>
      </trkpt>
      <trkpt lat="47.57318" lon="2.24022">
        <ele>135.8</ele>
        <time>2024-05-08T09:50:22Z</time>
      </trkpt>
      <trkpt lat="47.57333" lon="2.23983">
        <ele>136.6</ele>
        <time>2024-05-08T09:50:27Z</time>
      </trkpt>
      <trkpt lat="47.57355" lon="2.23921">
        <ele>137.2</ele>
        <time>2024-05-08T09:50:35Z</time>
      </trkpt>
      <trkpt lat="47.57371" lon="2.23875">
        <ele>137.6</ele>
        <time>2024-05-08T09:50:41Z</time>
      </trkpt>
      <trkpt lat="47.5738" lon="2.23849">
        <ele>137.8</ele>
        <time>2024-05-08T09:50:44Z</time>
      </trkpt>
      <trkpt lat="47.57403" lon="2.23784">
        <ele>138.2</ele>
        <time>2024-05-08T09:50:52Z</time>
      </trkpt>
      <trkpt lat="47.57427" lon="2.23718">
        <ele>138.4</ele>
        <time>2024-05-08T09:51:00Z</time>
      </trkpt>
      <trkpt lat="47.5745" lon="2.23659">
        <ele>138</ele>
        <time>2024-05-08T09:51:06Z</time>
      </trkpt>
      <trkpt lat="47.5748" lon="2.23576">
        <ele>136.6</ele>
        <time>2024-05-08T09:51:14Z</time>
      </trkpt>
      <trkpt lat="47.57497" lon="2.23525">
        <ele>135.4</ele>
        <time>2024-05-08T09:51:19Z</time>
      </trkpt>
      <trkpt lat="47.57512" lon="2.2348">
        <ele>134.6</ele>
        <time>2024-05-08T09:51:23Z</time>
      </trkpt>
      <trkpt lat="47.57514" lon="2.23469">
        <ele>134</ele>
        <time>2024-05-08T09:51:24Z</time>
      </trkpt>
      <trkpt lat="47.57528" lon="2.2341">
        <ele>132.8</ele>
        <time>2024-05-08T09:51:29Z</time>
      </trkpt>
      <trkpt lat="47.57533" lon="2.23387">
        <ele>132.6</ele>
        <time>2024-05-08T09:51:31Z</time>
      </trkpt>
      <trkpt lat="47.57539" lon="2.23337">
        <ele>131.8</ele>
        <time>2024-05-08T09:51:35Z</time>
      </trkpt>
      <trkpt lat="47.57541" lon="2.23325">
        <ele>131.4</ele>
        <time>2024-05-08T09:51:36Z</time>
      </trkpt>
      <trkpt lat="47.57543" lon="2.23287">
        <ele>130.4</ele>
        <time>2024-05-08T09:51:39Z</time>
      </trkpt>
      <trkpt lat="47.57545" lon="2.23249">
        <ele>130</ele>
        <time>2024-05-08T09:51:42Z</time>
      </trkpt>
      <trkpt lat="47.57546" lon="2.2321">
        <ele>129.2</ele>
        <time>2024-05-08T09:51:45Z</time>
      </trkpt>
      <trkpt lat="47.57547" lon="2.23173">
        <ele>128.8</ele>
        <time>2024-05-08T09:51:48Z</time>
      </trkpt>
      <trkpt lat="47.57549" lon="2.23101">
        <ele>128.6</ele>
        <time>2024-05-08T09:51:54Z</time>
      </trkpt>
      <trkpt lat="47.57549" lon="2.23092">
        <ele>128.6</ele>
        <time>2024-05-08T09:51:55Z</time>
      </trkpt>
      <trkpt lat="47.57552" lon="2.2305">
        <ele>128.6</ele>
        <time>2024-05-08T09:51:59Z</time>
      </trkpt>
      <trkpt lat="47.57552" lon="2.23031">
        <ele>128.6</ele>
        <time>2024-05-08T09:52:01Z</time>
      </trkpt>
      <trkpt lat="47.57552" lon="2.23013">
        <ele>128.8</ele>
        <time>2024-05-08T09:52:03Z</time>
      </trkpt>
      <trkpt lat="47.57555" lon="2.22965">
        <ele>130</ele>
        <time>2024-05-08T09:52:09Z</time>
      </trkpt>
      <trkpt lat="47.57556" lon="2.22956">
        <ele>130.4</ele>
        <time>2024-05-08T09:52:10Z</time>
      </trkpt>
      <trkpt lat="47.5756" lon="2.22939">
        <ele>130.8</ele>
        <time>2024-05-08T09:52:12Z</time>
      </trkpt>
      <trkpt lat="47.57564" lon="2.22922">
        <ele>131.2</ele>
        <time>2024-05-08T09:52:14Z</time>
      </trkpt>
      <trkpt lat="47.57569" lon="2.22906">
        <ele>131.4</ele>
        <time>2024-05-08T09:52:16Z</time>
      </trkpt>
      <trkpt lat="47.57572" lon="2.22898">
        <ele>131.4</ele>
        <time>2024-05-08T09:52:17Z</time>
      </trkpt>
      <trkpt lat="47.57583" lon="2.22875">
        <ele>131.4</ele>
        <time>2024-05-08T09:52:20Z</time>
      </trkpt>
      <trkpt lat="47.57591" lon="2.22863">
        <ele>131.4</ele>
        <time>2024-05-08T09:52:22Z</time>
      </trkpt>
      <trkpt lat="47.57614" lon="2.22828">
        <ele>131.2</ele>
        <time>2024-05-08T09:52:27Z</time>
      </trkpt>
      <trkpt lat="47.57656" lon="2.22769">
        <ele>130.2</ele>
        <time>2024-05-08T09:52:35Z</time>
      </trkpt>
      <trkpt lat="47.5766" lon="2.22763">
        <ele>130.2</ele>
        <time>2024-05-08T09:52:36Z</time>
      </trkpt>
      <trkpt lat="47.57702" lon="2.227">
        <ele>129</ele>
        <time>2024-05-08T09:52:44Z</time>
      </trkpt>
      <trkpt lat="47.57712" lon="2.22686">
        <ele>129</ele>
        <time>2024-05-08T09:52:46Z</time>
      </trkpt>
      <trkpt lat="47.57735" lon="2.22651">
        <ele>128.6</ele>
        <time>2024-05-08T09:52:51Z</time>
      </trkpt>
      <trkpt lat="47.57763" lon="2.22612">
        <ele>128.8</ele>
        <time>2024-05-08T09:52:57Z</time>
      </trkpt>
      <trkpt lat="47.57791" lon="2.22569">
        <ele>129.2</ele>
        <time>2024-05-08T09:53:04Z</time>
      </trkpt>
      <trkpt lat="47.57814" lon="2.22534">
        <ele>129.6</ele>
        <time>2024-05-08T09:53:09Z</time>
      </trkpt>
      <trkpt lat="47.57823" lon="2.22522">
        <ele>129.8</ele>
        <time>2024-05-08T09:53:11Z</time>
      </trkpt>
      <trkpt lat="47.57846" lon="2.22489">
        <ele>130</ele>
        <time>2024-05-08T09:53:16Z</time>
      </trkpt>
      <trkpt lat="47.5785" lon="2.22483">
        <ele>130</ele>
        <time>2024-05-08T09:53:17Z</time>
      </trkpt>
      <trkpt lat="47.57879" lon="2.22446">
        <ele>129.8</ele>
        <time>2024-05-08T09:53:22Z</time>
      </trkpt>
      <trkpt lat="47.57919" lon="2.22389">
        <ele>128.6</ele>
        <time>2024-05-08T09:53:29Z</time>
      </trkpt>
      <trkpt lat="47.57932" lon="2.22374">
        <ele>127.8</ele>
        <time>2024-05-08T09:53:31Z</time>
      </trkpt>
      <trkpt lat="47.5795" lon="2.22354">
        <ele>127.4</ele>
        <time>2024-05-08T09:53:34Z</time>
      </trkpt>
      <trkpt lat="47.57981" lon="2.22322">
        <ele>126.8</ele>
        <time>2024-05-08T09:53:39Z</time>
      </trkpt>
      <trkpt lat="47.57992" lon="2.2231">
        <ele>126.4</ele>
        <time>2024-05-08T09:53:41Z</time>
      </trkpt>
      <trkpt lat="47.5802" lon="2.22279">
        <ele>126</ele>
        <time>2024-05-08T09:53:46Z</time>
      </trkpt>
      <trkpt lat="47.58027" lon="2.22273">
        <ele>126</ele>
        <time>2024-05-08T09:53:47Z</time>
      </trkpt>
      <trkpt lat="47.58052" lon="2.22248">
        <ele>125.8</ele>
        <time>2024-05-08T09:53:51Z</time>
      </trkpt>
      <trkpt lat="47.58065" lon="2.22236">
        <ele>125.6</ele>
        <time>2024-05-08T09:53:53Z</time>
      </trkpt>
      <trkpt lat="47.58071" lon="2.2223">
        <ele>125.6</ele>
        <time>2024-05-08T09:53:54Z</time>
      </trkpt>
      <trkpt lat="47.58108" lon="2.22191">
        <ele>125.2</ele>
        <time>2024-05-08T09:54:00Z</time>
      </trkpt>
      <trkpt lat="47.58137" lon="2.22155">
        <ele>124.6</ele>
        <time>2024-05-08T09:54:05Z</time>
      </trkpt>
      <trkpt lat="47.58172" lon="2.22098">
        <ele>123.8</ele>
        <time>2024-05-08T09:54:12Z</time>
      </trkpt>
      <trkpt lat="47.58181" lon="2.2208">
        <ele>123.6</ele>
        <time>2024-05-08T09:54:14Z</time>
      </trkpt>
      <trkpt lat="47.58201" lon="2.22033">
        <ele>123.2</ele>
        <time>2024-05-08T09:54:19Z</time>
      </trkpt>
      <trkpt lat="47.58225" lon="2.21976">
        <ele>122.4</ele>
        <time>2024-05-08T09:54:25Z</time>
      </trkpt>
      <trkpt lat="47.58228" lon="2.21967">
        <ele>122</ele>
        <time>2024-05-08T09:54:26Z</time>
      </trkpt>
      <trkpt lat="47.58256" lon="2.21899">
        <ele>121.6</ele>
        <time>2024-05-08T09:54:33Z</time>
      </trkpt>
      <trkpt lat="47.58285" lon="2.21828">
        <ele>121.4</ele>
        <time>2024-05-08T09:54:41Z</time>
      </trkpt>
      <trkpt lat="47.58292" lon="2.21811">
        <ele>121.4</ele>
        <time>2024-05-08T09:54:43Z</time>
      </trkpt>
      <trkpt lat="47.58322" lon="2.21736">
        <ele>122</ele>
        <time>2024-05-08T09:54:52Z</time>
      </trkpt>
      <trkpt lat="47.58325" lon="2.21728">
        <ele>122</ele>
        <time>2024-05-08T09:54:53Z</time>
      </trkpt>
      <trkpt lat="47.5834" lon="2.21694">
        <ele>122</ele>
        <time>2024-05-08T09:54:57Z</time>
      </trkpt>
      <trkpt lat="47.58344" lon="2.21686">
        <ele>122</ele>
        <time>2024-05-08T09:54:58Z</time>
      </trkpt>
      <trkpt lat="47.58354" lon="2.21659">
        <ele>122.2</ele>
        <time>2024-05-08T09:55:01Z</time>
      </trkpt>
      <trkpt lat="47.58361" lon="2.21642">
        <ele>122.2</ele>
        <time>2024-05-08T09:55:03Z</time>
      </trkpt>
      <trkpt lat="47.58373" lon="2.21617">
        <ele>122.2</ele>
        <time>2024-05-08T09:55:06Z</time>
      </trkpt>
      <trkpt lat="47.58383" lon="2.21591">
        <ele>121.8</ele>
        <time>2024-05-08T09:55:09Z</time>
      </trkpt>
      <trkpt lat="47.58412" lon="2.21522">
        <ele>121.2</ele>
        <time>2024-05-08T09:55:17Z</time>
      </trkpt>
      <trkpt lat="47.58435" lon="2.21473">
        <ele>121</ele>
        <time>2024-05-08T09:55:23Z</time>
      </trkpt>
      <trkpt lat="47.58465" lon="2.21405">
        <ele>120.4</ele>
        <time>2024-05-08T09:55:31Z</time>
      </trkpt>
      <trkpt lat="47.5847" lon="2.21394">
        <ele>120.4</ele>
        <time>2024-05-08T09:55:32Z</time>
      </trkpt>
      <trkpt lat="47.58489" lon="2.21339">
        <ele>120.4</ele>
        <time>2024-05-08T09:55:38Z</time>
      </trkpt>
      <trkpt lat="47.58509" lon="2.21286">
        <ele>120.6</ele>
        <time>2024-05-08T09:55:44Z</time>
      </trkpt>
      <trkpt lat="47.58519" lon="2.2126">
        <ele>120.8</ele>
        <time>2024-05-08T09:55:47Z</time>
      </trkpt>
      <trkpt lat="47.58544" lon="2.21197">
        <ele>121.4</ele>
        <time>2024-05-08T09:55:55Z</time>
      </trkpt>
      <trkpt lat="47.58572" lon="2.21132">
        <ele>121.8</ele>
        <time>2024-05-08T09:56:04Z</time>
      </trkpt>
      <trkpt lat="47.58586" lon="2.21095">
        <ele>122</ele>
        <time>2024-05-08T09:56:09Z</time>
      </trkpt>
      <trkpt lat="47.58597" lon="2.21075">
        <ele>122.2</ele>
        <time>2024-05-08T09:56:12Z</time>
      </trkpt>
      <trkpt lat="47.58624" lon="2.21042">
        <ele>122.4</ele>
        <time>2024-05-08T09:56:18Z</time>
      </trkpt>
      <trkpt lat="47.58662" lon="2.2101">
        <ele>122.4</ele>
        <time>2024-05-08T09:56:25Z</time>
      </trkpt>
      <trkpt lat="47.58711" lon="2.20967">
        <ele>122</ele>
        <time>2024-05-08T09:56:33Z</time>
      </trkpt>
      <trkpt lat="47.58761" lon="2.20924">
        <ele>121.2</ele>
        <time>2024-05-08T09:56:41Z</time>
      </trkpt>
      <trkpt lat="47.58767" lon="2.20919">
        <ele>121.2</ele>
        <time>2024-05-08T09:56:42Z</time>
      </trkpt>
      <trkpt lat="47.58773" lon="2.20914">
        <ele>121</ele>
        <time>2024-05-08T09:56:43Z</time>
      </trkpt>
      <trkpt lat="47.58823" lon="2.20872">
        <ele>120.6</ele>
        <time>2024-05-08T09:56:51Z</time>
      </trkpt>
      <trkpt lat="47.58853" lon="2.20848">
        <ele>120.4</ele>
        <time>2024-05-08T09:56:56Z</time>
      </trkpt>
      <trkpt lat="47.58869" lon="2.20833">
        <ele>120.4</ele>
        <time>2024-05-08T09:56:59Z</time>
      </trkpt>
      <trkpt lat="47.58881" lon="2.20821">
        <ele>120.2</ele>
        <time>2024-05-08T09:57:01Z</time>
      </trkpt>
      <trkpt lat="47.58927" lon="2.20784">
        <ele>120</ele>
        <time>2024-05-08T09:57:08Z</time>
      </trkpt>
      <trkpt lat="47.58941" lon="2.2077">
        <ele>119.8</ele>
        <time>2024-05-08T09:57:10Z</time>
      </trkpt>
      <trkpt lat="47.58961" lon="2.20755">
        <ele>119.2</ele>
        <time>2024-05-08T09:57:13Z</time>
      </trkpt>
      <trkpt lat="47.58984" lon="2.20736">
        <ele>118.6</ele>
        <time>2024-05-08T09:57:16Z</time>
      </trkpt>
      <trkpt lat="47.59006" lon="2.20719">
        <ele>118.2</ele>
        <time>2024-05-08T09:57:19Z</time>
      </trkpt>
      <trkpt lat="47.5904" lon="2.20689">
        <ele>117.4</ele>
        <time>2024-05-08T09:57:24Z</time>
      </trkpt>
      <trkpt lat="47.59061" lon="2.20671">
        <ele>116.8</ele>
        <time>2024-05-08T09:57:27Z</time>
      </trkpt>
      <trkpt lat="47.59069" lon="2.20665">
        <ele>116.6</ele>
        <time>2024-05-08T09:57:28Z</time>
      </trkpt>
      <trkpt lat="47.59076" lon="2.20659">
        <ele>116.4</ele>
        <time>2024-05-08T09:57:29Z</time>
      </trkpt>
      <trkpt lat="47.59097" lon="2.2064">
        <ele>115.8</ele>
        <time>2024-05-08T09:57:32Z</time>
      </trkpt>
      <trkpt lat="47.59125" lon="2.20615">
        <ele>115.2</ele>
        <time>2024-05-08T09:57:36Z</time>
      </trkpt>
      <trkpt lat="47.59146" lon="2.20597">
        <ele>115.2</ele>
        <time>2024-05-08T09:57:39Z</time>
      </trkpt>
      <trkpt lat="47.59186" lon="2.20563">
        <ele>114.8</ele>
        <time>2024-05-08T09:57:45Z</time>
      </trkpt>
      <trkpt lat="47.59236" lon="2.20523">
        <ele>114.6</ele>
        <time>2024-05-08T09:57:52Z</time>
      </trkpt>
      <trkpt lat="47.59243" lon="2.20517">
        <ele>114.6</ele>
        <time>2024-05-08T09:57:53Z</time>
      </trkpt>
      <trkpt lat="47.5929" lon="2.20481">
        <ele>114.6</ele>
        <time>2024-05-08T09:58:00Z</time>
      </trkpt>
      <trkpt lat="47.59317" lon="2.20461">
        <ele>114.8</ele>
        <time>2024-05-08T09:58:04Z</time>
      </trkpt>
      <trkpt lat="47.59334" lon="2.20443">
        <ele>114.6</ele>
        <time>2024-05-08T09:58:07Z</time>
      </trkpt>
      <trkpt lat="47.59375" lon="2.20405">
        <ele>114</ele>
        <time>2024-05-08T09:58:14Z</time>
      </trkpt>
      <trkpt lat="47.59381" lon="2.204">
        <ele>114</ele>
        <time>2024-05-08T09:58:15Z</time>
      </trkpt>
      <trkpt lat="47.59424" lon="2.20362">
        <ele>113.4</ele>
        <time>2024-05-08T09:58:22Z</time>
      </trkpt>
      <trkpt lat="47.59448" lon="2.20339">
        <ele>113</ele>
        <time>2024-05-08T09:58:26Z</time>
      </trkpt>
      <trkpt lat="47.5946" lon="2.20328">
        <ele>112.8</ele>
        <time>2024-05-08T09:58:28Z</time>
      </trkpt>
      <trkpt lat="47.59507" lon="2.20289">
        <ele>112.2</ele>
        <time>2024-05-08T09:58:35Z</time>
      </trkpt>
      <trkpt lat="47.59519" lon="2.20277">
        <ele>111.8</ele>
        <time>2024-05-08T09:58:37Z</time>
      </trkpt>
      <trkpt lat="47.59525" lon="2.20272">
        <ele>111.8</ele>
        <time>2024-05-08T09:58:38Z</time>
      </trkpt>
      <trkpt lat="47.59549" lon="2.20256">
        <ele>111.2</ele>
        <time>2024-05-08T09:58:41Z</time>
      </trkpt>
      <trkpt lat="47.59594" lon="2.20218">
        <ele>111</ele>
        <time>2024-05-08T09:58:48Z</time>
      </trkpt>
      <trkpt lat="47.59639" lon="2.20184">
        <ele>111</ele>
        <time>2024-05-08T09:58:55Z</time>
      </trkpt>
      <trkpt lat="47.59681" lon="2.20148">
        <ele>110.8</ele>
        <time>2024-05-08T09:59:02Z</time>
      </trkpt>
      <trkpt lat="47.59725" lon="2.20112">
        <ele>110.2</ele>
        <time>2024-05-08T09:59:09Z</time>
      </trkpt>
      <trkpt lat="47.59767" lon="2.20074">
        <ele>110.2</ele>
        <time>2024-05-08T09:59:16Z</time>
      </trkpt>
      <trkpt lat="47.59779" lon="2.20063">
        <ele>110.2</ele>
        <time>2024-05-08T09:59:18Z</time>
      </trkpt>
      <trkpt lat="47.59797" lon="2.20049">
        <ele>110</ele>
        <time>2024-05-08T09:59:21Z</time>
      </trkpt>
      <trkpt lat="47.59848" lon="2.20007">
        <ele>110</ele>
        <time>2024-05-08T09:59:29Z</time>
      </trkpt>
      <trkpt lat="47.59897" lon="2.19965">
        <ele>110</ele>
        <time>2024-05-08T09:59:37Z</time>
      </trkpt>
      <trkpt lat="47.59946" lon="2.19923">
        <ele>110</ele>
        <time>2024-05-08T09:59:45Z</time>
      </trkpt>
      <trkpt lat="47.59952" lon="2.19918">
        <ele>110</ele>
        <time>2024-05-08T09:59:46Z</time>
      </trkpt>
      <trkpt lat="47.59994" lon="2.1988">
        <ele>109.8</ele>
        <time>2024-05-08T09:59:53Z</time>
      </trkpt>
      <trkpt lat="47.60005" lon="2.19868">
        <ele>109.8</ele>
        <time>2024-05-08T09:59:55Z</time>
      </trkpt>
      <trkpt lat="47.6005" lon="2.19814">
        <ele>109</ele>
        <time>2024-05-08T10:00:03Z</time>
      </trkpt>
      <trkpt lat="47.60055" lon="2.19806">
        <ele>109</ele>
        <time>2024-05-08T10:00:04Z</time>
      </trkpt>
      <trkpt lat="47.60093" lon="2.19748">
        <ele>108.6</ele>
        <time>2024-05-08T10:00:12Z</time>
      </trkpt>
      <trkpt lat="47.60098" lon="2.19741">
        <ele>108.6</ele>
        <time>2024-05-08T10:00:13Z</time>
      </trkpt>
      <trkpt lat="47.60124" lon="2.19698">
        <ele>109.2</ele>
        <time>2024-05-08T10:00:19Z</time>
      </trkpt>
      <trkpt lat="47.60155" lon="2.19641">
        <ele>109.8</ele>
        <time>2024-05-08T10:00:27Z</time>
      </trkpt>
      <trkpt lat="47.6018" lon="2.19595">
        <ele>109.4</ele>
        <time>2024-05-08T10:00:33Z</time>
      </trkpt>
      <trkpt lat="47.60215" lon="2.19534">
        <ele>109</ele>
        <time>2024-05-08T10:00:41Z</time>
      </trkpt>
      <trkpt lat="47.60249" lon="2.19473">
        <ele>108.8</ele>
        <time>2024-05-08T10:00:49Z</time>
      </trkpt>
      <trkpt lat="47.60283" lon="2.19411">
        <ele>108.6</ele>
        <time>2024-05-08T10:00:57Z</time>
      </trkpt>
      <trkpt lat="47.60319" lon="2.19351">
        <ele>108.4</ele>
        <time>2024-05-08T10:01:05Z</time>
      </trkpt>
      <trkpt lat="47.60358" lon="2.19285">
        <ele>108.2</ele>
        <time>2024-05-08T10:01:14Z</time>
      </trkpt>
      <trkpt lat="47.60362" lon="2.19278">
        <ele>108</ele>
        <time>2024-05-08T10:01:15Z</time>
      </trkpt>
      <trkpt lat="47.60386" lon="2.19232">
        <ele>107.8</ele>
        <time>2024-05-08T10:01:21Z</time>
      </trkpt>
      <trkpt lat="47.60408" lon="2.19194">
        <ele>107.6</ele>
        <time>2024-05-08T10:01:26Z</time>
      </trkpt>
      <trkpt lat="47.6043" lon="2.19154">
        <ele>107.2</ele>
        <time>2024-05-08T10:01:31Z</time>
      </trkpt>
      <trkpt lat="47.60457" lon="2.19107">
        <ele>106.6</ele>
        <time>2024-05-08T10:01:37Z</time>
      </trkpt>
      <trkpt lat="47.60462" lon="2.19099">
        <ele>106.4</ele>
        <time>2024-05-08T10:01:38Z</time>
      </trkpt>
      <trkpt lat="47.605" lon="2.19044">
        <ele>105.8</ele>
        <time>2024-05-08T10:01:46Z</time>
      </trkpt>
      <trkpt lat="47.60533" lon="2.19016">
        <ele>105.4</ele>
        <time>2024-05-08T10:01:52Z</time>
      </trkpt>
      <trkpt lat="47.60539" lon="2.19012">
        <ele>105.4</ele>
        <time>2024-05-08T10:01:53Z</time>
      </trkpt>
      <trkpt lat="47.60549" lon="2.19005">
        <ele>105.4</ele>
        <time>2024-05-08T10:01:55Z</time>
      </trkpt>
      <trkpt lat="47.60554" lon="2.19001">
        <ele>105.4</ele>
        <time>2024-05-08T10:01:56Z</time>
      </trkpt>
      <trkpt lat="47.60593" lon="2.18975">
        <ele>104.8</ele>
        <time>2024-05-08T10:02:02Z</time>
      </trkpt>
      <trkpt lat="47.60617" lon="2.18958">
        <ele>105</ele>
        <time>2024-05-08T10:02:06Z</time>
      </trkpt>
      <trkpt lat="47.6063" lon="2.1895">
        <ele>105.4</ele>
        <time>2024-05-08T10:02:08Z</time>
      </trkpt>
      <trkpt lat="47.60654" lon="2.18934">
        <ele>106.2</ele>
        <time>2024-05-08T10:02:12Z</time>
      </trkpt>
      <trkpt lat="47.60665" lon="2.18927">
        <ele>106.4</ele>
        <time>2024-05-08T10:02:14Z</time>
      </trkpt>
      <trkpt lat="47.60671" lon="2.18923">
        <ele>106.6</ele>
        <time>2024-05-08T10:02:15Z</time>
      </trkpt>
      <trkpt lat="47.60681" lon="2.18916">
        <ele>106.6</ele>
        <time>2024-05-08T10:02:17Z</time>
      </trkpt>
      <trkpt lat="47.60689" lon="2.18912">
        <ele>106.6</ele>
        <time>2024-05-08T10:02:18Z</time>
      </trkpt>
      <trkpt lat="47.60713" lon="2.18898">
        <ele>106.6</ele>
        <time>2024-05-08T10:02:21Z</time>
      </trkpt>
      <trkpt lat="47.60753" lon="2.18873">
        <ele>105.8</ele>
        <time>2024-05-08T10:02:27Z</time>
      </trkpt>
      <trkpt lat="47.608" lon="2.18842">
        <ele>105.6</ele>
        <time>2024-05-08T10:02:35Z</time>
      </trkpt>
      <trkpt lat="47.60848" lon="2.18808">
        <ele>105.8</ele>
        <time>2024-05-08T10:02:44Z</time>
      </trkpt>
      <trkpt lat="47.60871" lon="2.18781">
        <ele>106.2</ele>
        <time>2024-05-08T10:02:49Z</time>
      </trkpt>
      <trkpt lat="47.60875" lon="2.18775">
        <ele>106.4</ele>
        <time>2024-05-08T10:02:50Z</time>
      </trkpt>
      <trkpt lat="47.60886" lon="2.18755">
        <ele>106.6</ele>
        <time>2024-05-08T10:02:53Z</time>
      </trkpt>
      <trkpt lat="47.60892" lon="2.1874">
        <ele>106.6</ele>
        <time>2024-05-08T10:02:55Z</time>
      </trkpt>
      <trkpt lat="47.60895" lon="2.18732">
        <ele>106.8</ele>
        <time>2024-05-08T10:02:56Z</time>
      </trkpt>
      <trkpt lat="47.60911" lon="2.18664">
        <ele>106.6</ele>
        <time>2024-05-08T10:03:04Z</time>
      </trkpt>
      <trkpt lat="47.60917" lon="2.18638">
        <ele>106.6</ele>
        <time>2024-05-08T10:03:07Z</time>
      </trkpt>
      <trkpt lat="47.60921" lon="2.18622">
        <ele>106.4</ele>
        <time>2024-05-08T10:03:09Z</time>
      </trkpt>
      <trkpt lat="47.60924" lon="2.18605">
        <ele>106.4</ele>
        <time>2024-05-08T10:03:11Z</time>
      </trkpt>
      <trkpt lat="47.6093" lon="2.18579">
        <ele>106.6</ele>
        <time>2024-05-08T10:03:14Z</time>
      </trkpt>
      <trkpt lat="47.60937" lon="2.18545">
        <ele>106.6</ele>
        <time>2024-05-08T10:03:18Z</time>
      </trkpt>
      <trkpt lat="47.60952" lon="2.18474">
        <ele>106.8</ele>
        <time>2024-05-08T10:03:26Z</time>
      </trkpt>
      <trkpt lat="47.60966" lon="2.18412">
        <ele>106.8</ele>
        <time>2024-05-08T10:03:33Z</time>
      </trkpt>
      <trkpt lat="47.60977" lon="2.18356">
        <ele>106.6</ele>
        <time>2024-05-08T10:03:39Z</time>
      </trkpt>
      <trkpt lat="47.60996" lon="2.18272">
        <ele>106.6</ele>
        <time>2024-05-08T10:03:48Z</time>
      </trkpt>
      <trkpt lat="47.60997" lon="2.18265">
        <ele>106.6</ele>
        <time>2024-05-08T10:03:49Z</time>
      </trkpt>
      <trkpt lat="47.61001" lon="2.18245">
        <ele>106.4</ele>
        <time>2024-05-08T10:03:51Z</time>
      </trkpt>
      <trkpt lat="47.61009" lon="2.18208">
        <ele>106.2</ele>
        <time>2024-05-08T10:03:55Z</time>
      </trkpt>
      <trkpt lat="47.61022" lon="2.18145">
        <ele>106.4</ele>
        <time>2024-05-08T10:04:02Z</time>
      </trkpt>
      <trkpt lat="47.61035" lon="2.18082">
        <ele>106.4</ele>
        <time>2024-05-08T10:04:09Z</time>
      </trkpt>
      <trkpt lat="47.61048" lon="2.18021">
        <ele>106.8</ele>
        <time>2024-05-08T10:04:16Z</time>
      </trkpt>
      <trkpt lat="47.61051" lon="2.18007">
        <ele>107</ele>
        <time>2024-05-08T10:04:18Z</time>
      </trkpt>
      <trkpt lat="47.61054" lon="2.17994">
        <ele>107.2</ele>
        <time>2024-05-08T10:04:20Z</time>
      </trkpt>
      <trkpt lat="47.61062" lon="2.17979">
        <ele>107.2</ele>
        <time>2024-05-08T10:04:24Z</time>
      </trkpt>
      <trkpt lat="47.61063" lon="2.17972">
        <ele>107.2</ele>
        <time>2024-05-08T10:04:26Z</time>
      </trkpt>
      <trkpt lat="47.61062" lon="2.17965">
        <ele>107.2</ele>
        <time>2024-05-08T10:04:27Z</time>
      </trkpt>
      <trkpt lat="47.61056" lon="2.17931">
        <ele>107.2</ele>
        <time>2024-05-08T10:04:33Z</time>
      </trkpt>
      <trkpt lat="47.61047" lon="2.17898">
        <ele>107.2</ele>
        <time>2024-05-08T10:04:37Z</time>
      </trkpt>
      <trkpt lat="47.61044" lon="2.17889">
        <ele>107.2</ele>
        <time>2024-05-08T10:04:38Z</time>
      </trkpt>
      <trkpt lat="47.61036" lon="2.17851">
        <ele>107</ele>
        <time>2024-05-08T10:04:42Z</time>
      </trkpt>
      <trkpt lat="47.61023" lon="2.17782">
        <ele>106.8</ele>
        <time>2024-05-08T10:04:49Z</time>
      </trkpt>
      <trkpt lat="47.61007" lon="2.17704">
        <ele>106</ele>
        <time>2024-05-08T10:04:57Z</time>
      </trkpt>
      <trkpt lat="47.60998" lon="2.17666">
        <ele>105.4</ele>
        <time>2024-05-08T10:05:01Z</time>
      </trkpt>
      <trkpt lat="47.60984" lon="2.17632">
        <ele>105</ele>
        <time>2024-05-08T10:05:05Z</time>
      </trkpt>
      <trkpt lat="47.60957" lon="2.17591">
        <ele>104.4</ele>
        <time>2024-05-08T10:05:11Z</time>
      </trkpt>
      <trkpt lat="47.60938" lon="2.17567">
        <ele>104.6</ele>
        <time>2024-05-08T10:05:15Z</time>
      </trkpt>
      <trkpt lat="47.60929" lon="2.17556">
        <ele>104.6</ele>
        <time>2024-05-08T10:05:17Z</time>
      </trkpt>
      <trkpt lat="47.60909" lon="2.17521">
        <ele>104.6</ele>
        <time>2024-05-08T10:05:22Z</time>
      </trkpt>
      <trkpt lat="47.60901" lon="2.17507">
        <ele>104.2</ele>
        <time>2024-05-08T10:05:24Z</time>
      </trkpt>
      <trkpt lat="47.60895" lon="2.17481">
        <ele>104.2</ele>
        <time>2024-05-08T10:05:27Z</time>
      </trkpt>
      <trkpt lat="47.60887" lon="2.1742">
        <ele>104.2</ele>
        <time>2024-05-08T10:05:34Z</time>
      </trkpt>
      <trkpt lat="47.60879" lon="2.17377">
        <ele>104.4</ele>
        <time>2024-05-08T10:05:39Z</time>
      </trkpt>
      <trkpt lat="47.60875" lon="2.17361">
        <ele>104.4</ele>
        <time>2024-05-08T10:05:41Z</time>
      </trkpt>
      <trkpt lat="47.60873" lon="2.17353">
        <ele>104.4</ele>
        <time>2024-05-08T10:05:42Z</time>
      </trkpt>
      <trkpt lat="47.60865" lon="2.17312">
        <ele>104.4</ele>
        <time>2024-05-08T10:05:47Z</time>
      </trkpt>
      <trkpt lat="47.60861" lon="2.1729">
        <ele>104.4</ele>
        <time>2024-05-08T10:05:50Z</time>
      </trkpt>
      <trkpt lat="47.6086" lon="2.17276">
        <ele>104.4</ele>
        <time>2024-05-08T10:05:52Z</time>
      </trkpt>
      <trkpt lat="47.60861" lon="2.17269">
        <ele>104.4</ele>
        <time>2024-05-08T10:05:53Z</time>
      </trkpt>
      <trkpt lat="47.60865" lon="2.1725">
        <ele>104.6</ele>
        <time>2024-05-08T10:05:56Z</time>
      </trkpt>
      <trkpt lat="47.60869" lon="2.17244">
        <ele>104.8</ele>
        <time>2024-05-08T10:05:58Z</time>
      </trkpt>
      <trkpt lat="47.60871" lon="2.17242">
        <ele>104.8</ele>
        <time>2024-05-08T10:05:59Z</time>
      </trkpt>
      <trkpt lat="47.60875" lon="2.17241">
        <ele>104.8</ele>
        <time>2024-05-08T10:06:00Z</time>
      </trkpt>
      <trkpt lat="47.60897" lon="2.17237">
        <ele>105.2</ele>
        <time>2024-05-08T10:06:05Z</time>
      </trkpt>
      <trkpt lat="47.60907" lon="2.17234">
        <ele>105.4</ele>
        <time>2024-05-08T10:06:07Z</time>
      </trkpt>
      <trkpt lat="47.60926" lon="2.1723">
        <ele>105.6</ele>
        <time>2024-05-08T10:06:11Z</time>
      </trkpt>
      <trkpt lat="47.60961" lon="2.17221">
        <ele>105.8</ele>
        <time>2024-05-08T10:06:17Z</time>
      </trkpt>
      <trkpt lat="47.60989" lon="2.17212">
        <ele>106.4</ele>
        <time>2024-05-08T10:06:22Z</time>
      </trkpt>
      <trkpt lat="47.60995" lon="2.17211">
        <ele>106.4</ele>
        <time>2024-05-08T10:06:23Z</time>
      </trkpt>
      <trkpt lat="47.61046" lon="2.17199">
        <ele>106</ele>
        <time>2024-05-08T10:06:32Z</time>
      </trkpt>
      <trkpt lat="47.61069" lon="2.17191">
        <ele>106</ele>
        <time>2024-05-08T10:06:36Z</time>
      </trkpt>
      <trkpt lat="47.61087" lon="2.17188">
        <ele>106</ele>
        <time>2024-05-08T10:06:39Z</time>
      </trkpt>
      <trkpt lat="47.61121" lon="2.17179">
        <ele>106.2</ele>
        <time>2024-05-08T10:06:45Z</time>
      </trkpt>
      <trkpt lat="47.61179" lon="2.17163">
        <ele>106.4</ele>
        <time>2024-05-08T10:06:55Z</time>
      </trkpt>
      <trkpt lat="47.61185" lon="2.17161">
        <ele>106.4</ele>
        <time>2024-05-08T10:06:56Z</time>
      </trkpt>
      <trkpt lat="47.61234" lon="2.17149">
        <ele>106.8</ele>
        <time>2024-05-08T10:07:04Z</time>
      </trkpt>
      <trkpt lat="47.6124" lon="2.17147">
        <ele>106.8</ele>
        <time>2024-05-08T10:07:05Z</time>
      </trkpt>
      <trkpt lat="47.61277" lon="2.17137">
        <ele>107.2</ele>
        <time>2024-05-08T10:07:11Z</time>
      </trkpt>
      <trkpt lat="47.61318" lon="2.17126">
        <ele>107.6</ele>
        <time>2024-05-08T10:07:18Z</time>
      </trkpt>
      <trkpt lat="47.61334" lon="2.17122">
        <ele>107.8</ele>
        <time>2024-05-08T10:07:21Z</time>
      </trkpt>
      <trkpt lat="47.61369" lon="2.17113">
        <ele>108.6</ele>
        <time>2024-05-08T10:07:27Z</time>
      </trkpt>
      <trkpt lat="47.61419" lon="2.17101">
        <ele>109.4</ele>
        <time>2024-05-08T10:07:36Z</time>
      </trkpt>
      <trkpt lat="47.61434" lon="2.17095">
        <ele>109.8</ele>
        <time>2024-05-08T10:07:39Z</time>
      </trkpt>
      <trkpt lat="47.61464" lon="2.17087">
        <ele>110</ele>
        <time>2024-05-08T10:07:44Z</time>
      </trkpt>
      <trkpt lat="47.61517" lon="2.17073">
        <ele>110.4</ele>
        <time>2024-05-08T10:07:53Z</time>
      </trkpt>
      <trkpt lat="47.61565" lon="2.1706">
        <ele>110.4</ele>
        <time>2024-05-08T10:08:01Z</time>
      </trkpt>
      <trkpt lat="47.6162" lon="2.17045">
        <ele>110.6</ele>
        <time>2024-05-08T10:08:10Z</time>
      </trkpt>
      <trkpt lat="47.61631" lon="2.17042">
        <ele>110.6</ele>
        <time>2024-05-08T10:08:12Z</time>
      </trkpt>
      <trkpt lat="47.61644" lon="2.17037">
        <ele>110.6</ele>
        <time>2024-05-08T10:08:14Z</time>
      </trkpt>
      <trkpt lat="47.6165" lon="2.17035">
        <ele>110.8</ele>
        <time>2024-05-08T10:08:15Z</time>
      </trkpt>
      <trkpt lat="47.61656" lon="2.17033">
        <ele>110.8</ele>
        <time>2024-05-08T10:08:16Z</time>
      </trkpt>
      <trkpt lat="47.61668" lon="2.1703">
        <ele>110.8</ele>
        <time>2024-05-08T10:08:18Z</time>
      </trkpt>
      <trkpt lat="47.61726" lon="2.17016">
        <ele>111.4</ele>
        <time>2024-05-08T10:08:28Z</time>
      </trkpt>
      <trkpt lat="47.61733" lon="2.17014">
        <ele>111.4</ele>
        <time>2024-05-08T10:08:29Z</time>
      </trkpt>
      <trkpt lat="47.61759" lon="2.17008">
        <ele>111.8</ele>
        <time>2024-05-08T10:08:34Z</time>
      </trkpt>
      <trkpt lat="47.61769" lon="2.17007">
        <ele>111.8</ele>
        <time>2024-05-08T10:08:36Z</time>
      </trkpt>
      <trkpt lat="47.61807" lon="2.16996">
        <ele>112</ele>
        <time>2024-05-08T10:08:43Z</time>
      </trkpt>
      <trkpt lat="47.61847" lon="2.16987">
        <ele>112.2</ele>
        <time>2024-05-08T10:08:50Z</time>
      </trkpt>
      <trkpt lat="47.61893" lon="2.16975">
        <ele>112.4</ele>
        <time>2024-05-08T10:08:58Z</time>
      </trkpt>
      <trkpt lat="47.61932" lon="2.16964">
        <ele>112.6</ele>
        <time>2024-05-08T10:09:05Z</time>
      </trkpt>
      <trkpt lat="47.61983" lon="2.16951">
        <ele>112.8</ele>
        <time>2024-05-08T10:09:14Z</time>
      </trkpt>
      <trkpt lat="47.61994" lon="2.16948">
        <ele>113</ele>
        <time>2024-05-08T10:09:16Z</time>
      </trkpt>
      <trkpt lat="47.62043" lon="2.16936">
        <ele>113.2</ele>
        <time>2024-05-08T10:09:25Z</time>
      </trkpt>
      <trkpt lat="47.62092" lon="2.16923">
        <ele>113.8</ele>
        <time>2024-05-08T10:09:34Z</time>
      </trkpt>
      <trkpt lat="47.62102" lon="2.16921">
        <ele>114</ele>
        <time>2024-05-08T10:09:36Z</time>
      </trkpt>
      <trkpt lat="47.62147" lon="2.16909">
        <ele>114.8</ele>
        <time>2024-05-08T10:09:44Z</time>
      </trkpt>
      <trkpt lat="47.62158" lon="2.16907">
        <ele>115</ele>
        <time>2024-05-08T10:09:46Z</time>
      </trkpt>
      <trkpt lat="47.62185" lon="2.169">
        <ele>115.2</ele>
        <time>2024-05-08T10:09:51Z</time>
      </trkpt>
      <trkpt lat="47.62195" lon="2.16898">
        <ele>115.4</ele>
        <time>2024-05-08T10:09:53Z</time>
      </trkpt>
      <trkpt lat="47.62225" lon="2.1689">
        <ele>115.8</ele>
        <time>2024-05-08T10:09:59Z</time>
      </trkpt>
      <trkpt lat="47.62242" lon="2.16888">
        <ele>116</ele>
        <time>2024-05-08T10:10:02Z</time>
      </trkpt>
      <trkpt lat="47.62267" lon="2.16882">
        <ele>116.2</ele>
        <time>2024-05-08T10:10:06Z</time>
      </trkpt>
      <trkpt lat="47.62308" lon="2.1687">
        <ele>116</ele>
        <time>2024-05-08T10:10:12Z</time>
      </trkpt>
      <trkpt lat="47.62361" lon="2.16855">
        <ele>116.2</ele>
        <time>2024-05-08T10:10:21Z</time>
      </trkpt>
      <trkpt lat="47.62367" lon="2.16853">
        <ele>116.4</ele>
        <time>2024-05-08T10:10:22Z</time>
      </trkpt>
      <trkpt lat="47.62413" lon="2.1684">
        <ele>116.4</ele>
        <time>2024-05-08T10:10:30Z</time>
      </trkpt>
      <trkpt lat="47.62436" lon="2.16833">
        <ele>116.6</ele>
        <time>2024-05-08T10:10:34Z</time>
      </trkpt>
      <trkpt lat="47.62468" lon="2.16824">
        <ele>116.6</ele>
        <time>2024-05-08T10:10:39Z</time>
      </trkpt>
      <trkpt lat="47.6248" lon="2.1682">
        <ele>116.8</ele>
        <time>2024-05-08T10:10:41Z</time>
      </trkpt>
      <trkpt lat="47.62486" lon="2.16818">
        <ele>116.8</ele>
        <time>2024-05-08T10:10:42Z</time>
      </trkpt>
      <trkpt lat="47.62511" lon="2.16812">
        <ele>117</ele>
        <time>2024-05-08T10:10:46Z</time>
      </trkpt>
      <trkpt lat="47.62517" lon="2.16809">
        <ele>117</ele>
        <time>2024-05-08T10:10:47Z</time>
      </trkpt>
      <trkpt lat="47.62529" lon="2.16807">
        <ele>117</ele>
        <time>2024-05-08T10:10:49Z</time>
      </trkpt>
      <trkpt lat="47.62553" lon="2.168">
        <ele>117</ele>
        <time>2024-05-08T10:10:53Z</time>
      </trkpt>
      <trkpt lat="47.62598" lon="2.16784">
        <ele>117.2</ele>
        <time>2024-05-08T10:11:01Z</time>
      </trkpt>
      <trkpt lat="47.62639" lon="2.16773">
        <ele>117.4</ele>
        <time>2024-05-08T10:11:08Z</time>
      </trkpt>
      <trkpt lat="47.62675" lon="2.16763">
        <ele>117.4</ele>
        <time>2024-05-08T10:11:14Z</time>
      </trkpt>
      <trkpt lat="47.62702" lon="2.16754">
        <ele>117.4</ele>
        <time>2024-05-08T10:11:19Z</time>
      </trkpt>
      <trkpt lat="47.62707" lon="2.16751">
        <ele>117.4</ele>
        <time>2024-05-08T10:11:20Z</time>
      </trkpt>
      <trkpt lat="47.62731" lon="2.16745">
        <ele>117.4</ele>
        <time>2024-05-08T10:11:24Z</time>
      </trkpt>
      <trkpt lat="47.62738" lon="2.16744">
        <ele>117.4</ele>
        <time>2024-05-08T10:11:25Z</time>
      </trkpt>
      <trkpt lat="47.62764" lon="2.16738">
        <ele>117.4</ele>
        <time>2024-05-08T10:11:29Z</time>
      </trkpt>
      <trkpt lat="47.62793" lon="2.16726">
        <ele>118</ele>
        <time>2024-05-08T10:11:34Z</time>
      </trkpt>
      <trkpt lat="47.62799" lon="2.16725">
        <ele>118</ele>
        <time>2024-05-08T10:11:35Z</time>
      </trkpt>
      <trkpt lat="47.62804" lon="2.16724">
        <ele>118</ele>
        <time>2024-05-08T10:11:36Z</time>
      </trkpt>
      <trkpt lat="47.62813" lon="2.1672">
        <ele>118</ele>
        <time>2024-05-08T10:11:38Z</time>
      </trkpt>
      <trkpt lat="47.6282" lon="2.16718">
        <ele>118.2</ele>
        <time>2024-05-08T10:11:39Z</time>
      </trkpt>
      <trkpt lat="47.62834" lon="2.16713">
        <ele>118.2</ele>
        <time>2024-05-08T10:11:42Z</time>
      </trkpt>
      <trkpt lat="47.6285" lon="2.16708">
        <ele>118.2</ele>
        <time>2024-05-08T10:11:45Z</time>
      </trkpt>
      <trkpt lat="47.62855" lon="2.16707">
        <ele>118.4</ele>
        <time>2024-05-08T10:11:46Z</time>
      </trkpt>
      <trkpt lat="47.62866" lon="2.16706">
        <ele>118.6</ele>
        <time>2024-05-08T10:11:48Z</time>
      </trkpt>
      <trkpt lat="47.62874" lon="2.16702">
        <ele>118.8</ele>
        <time>2024-05-08T10:11:50Z</time>
      </trkpt>
      <trkpt lat="47.62879" lon="2.167">
        <ele>118.8</ele>
        <time>2024-05-08T10:11:51Z</time>
      </trkpt>
      <trkpt lat="47.62899" lon="2.16697">
        <ele>119.2</ele>
        <time>2024-05-08T10:11:55Z</time>
      </trkpt>
      <trkpt lat="47.62917" lon="2.16692">
        <ele>119.6</ele>
        <time>2024-05-08T10:12:00Z</time>
      </trkpt>
      <trkpt lat="47.62921" lon="2.16691">
        <ele>119.8</ele>
        <time>2024-05-08T10:12:01Z</time>
      </trkpt>
      <trkpt lat="47.62937" lon="2.16687">
        <ele>119.8</ele>
        <time>2024-05-08T10:12:05Z</time>
      </trkpt>
      <trkpt lat="47.6297" lon="2.16688">
        <ele>120.4</ele>
        <time>2024-05-08T10:12:10Z</time>
      </trkpt>
      <trkpt lat="47.62986" lon="2.16688">
        <ele>120.6</ele>
        <time>2024-05-08T10:12:13Z</time>
      </trkpt>
      <trkpt lat="47.62992" lon="2.16687">
        <ele>120.8</ele>
        <time>2024-05-08T10:12:14Z</time>
      </trkpt>
      <trkpt lat="47.63004" lon="2.16685">
        <ele>121</ele>
        <time>2024-05-08T10:12:16Z</time>
      </trkpt>
      <trkpt lat="47.63051" lon="2.16681">
        <ele>121.2</ele>
        <time>2024-05-08T10:12:24Z</time>
      </trkpt>
      <trkpt lat="47.6309" lon="2.16674">
        <ele>121.4</ele>
        <time>2024-05-08T10:12:31Z</time>
      </trkpt>
      <trkpt lat="47.63137" lon="2.16667">
        <ele>121.4</ele>
        <time>2024-05-08T10:12:39Z</time>
      </trkpt>
      <trkpt lat="47.63175" lon="2.16658">
        <ele>121.8</ele>
        <time>2024-05-08T10:12:46Z</time>
      </trkpt>
      <trkpt lat="47.63191" lon="2.16654">
        <ele>121.8</ele>
        <time>2024-05-08T10:12:49Z</time>
      </trkpt>
      <trkpt lat="47.63223" lon="2.16647">
        <ele>122.2</ele>
        <time>2024-05-08T10:12:55Z</time>
      </trkpt>
      <trkpt lat="47.63265" lon="2.16636">
        <ele>122.4</ele>
        <time>2024-05-08T10:13:03Z</time>
      </trkpt>
      <trkpt lat="47.63313" lon="2.16626">
        <ele>122.6</ele>
        <time>2024-05-08T10:13:12Z</time>
      </trkpt>
      <trkpt lat="47.63357" lon="2.16616">
        <ele>122.8</ele>
        <time>2024-05-08T10:13:20Z</time>
      </trkpt>
      <trkpt lat="47.63411" lon="2.16606">
        <ele>122.8</ele>
        <time>2024-05-08T10:13:30Z</time>
      </trkpt>
      <trkpt lat="47.63423" lon="2.16603">
        <ele>122.8</ele>
        <time>2024-05-08T10:13:32Z</time>
      </trkpt>
      <trkpt lat="47.63455" lon="2.16596">
        <ele>123</ele>
        <time>2024-05-08T10:13:38Z</time>
      </trkpt>
      <trkpt lat="47.63482" lon="2.1659">
        <ele>123.2</ele>
        <time>2024-05-08T10:13:43Z</time>
      </trkpt>
      <trkpt lat="47.63527" lon="2.16579">
        <ele>124.2</ele>
        <time>2024-05-08T10:13:52Z</time>
      </trkpt>
      <trkpt lat="47.63532" lon="2.16578">
        <ele>124.2</ele>
        <time>2024-05-08T10:13:53Z</time>
      </trkpt>
      <trkpt lat="47.63568" lon="2.16569">
        <ele>124.8</ele>
        <time>2024-05-08T10:14:00Z</time>
      </trkpt>
      <trkpt lat="47.63574" lon="2.16568">
        <ele>124.8</ele>
        <time>2024-05-08T10:14:01Z</time>
      </trkpt>
      <trkpt lat="47.63611" lon="2.16561">
        <ele>125</ele>
        <time>2024-05-08T10:14:08Z</time>
      </trkpt>
      <trkpt lat="47.63667" lon="2.16549">
        <ele>124.8</ele>
        <time>2024-05-08T10:14:19Z</time>
      </trkpt>
      <trkpt lat="47.63673" lon="2.16549">
        <ele>124.8</ele>
        <time>2024-05-08T10:14:20Z</time>
      </trkpt>
      <trkpt lat="47.63703" lon="2.16543">
        <ele>124.2</ele>
        <time>2024-05-08T10:14:25Z</time>
      </trkpt>
      <trkpt lat="47.63748" lon="2.16536">
        <ele>124</ele>
        <time>2024-05-08T10:14:32Z</time>
      </trkpt>
      <trkpt lat="47.63799" lon="2.16529">
        <ele>123.6</ele>
        <time>2024-05-08T10:14:40Z</time>
      </trkpt>
      <trkpt lat="47.63825" lon="2.16525">
        <ele>123.2</ele>
        <time>2024-05-08T10:14:44Z</time>
      </trkpt>
      <trkpt lat="47.63844" lon="2.16521">
        <ele>122.8</ele>
        <time>2024-05-08T10:14:47Z</time>
      </trkpt>
      <trkpt lat="47.6387" lon="2.16518">
        <ele>122</ele>
        <time>2024-05-08T10:14:51Z</time>
      </trkpt>
      <trkpt lat="47.63907" lon="2.16512">
        <ele>121.6</ele>
        <time>2024-05-08T10:14:57Z</time>
      </trkpt>
      <trkpt lat="47.63928" lon="2.16509">
        <ele>121.4</ele>
        <time>2024-05-08T10:15:01Z</time>
      </trkpt>
      <trkpt lat="47.63971" lon="2.16502">
        <ele>121.2</ele>
        <time>2024-05-08T10:15:08Z</time>
      </trkpt>
      <trkpt lat="47.64019" lon="2.16496">
        <ele>121.6</ele>
        <time>2024-05-08T10:15:16Z</time>
      </trkpt>
      <trkpt lat="47.64056" lon="2.16491">
        <ele>121.2</ele>
        <time>2024-05-08T10:15:23Z</time>
      </trkpt>
      <trkpt lat="47.64087" lon="2.16489">
        <ele>121</ele>
        <time>2024-05-08T10:15:28Z</time>
      </trkpt>
      <trkpt lat="47.64102" lon="2.16484">
        <ele>120.8</ele>
        <time>2024-05-08T10:15:31Z</time>
      </trkpt>
      <trkpt lat="47.64112" lon="2.16478">
        <ele>120.6</ele>
        <time>2024-05-08T10:15:33Z</time>
      </trkpt>
      <trkpt lat="47.64133" lon="2.16465">
        <ele>120.2</ele>
        <time>2024-05-08T10:15:38Z</time>
      </trkpt>
      <trkpt lat="47.64139" lon="2.1646">
        <ele>120.2</ele>
        <time>2024-05-08T10:15:40Z</time>
      </trkpt>
      <trkpt lat="47.64152" lon="2.1645">
        <ele>119.8</ele>
        <time>2024-05-08T10:15:45Z</time>
      </trkpt>
      <trkpt lat="47.64153" lon="2.16449">
        <ele>119.8</ele>
        <time>2024-05-08T10:15:46Z</time>
      </trkpt>
      <trkpt lat="47.64153" lon="2.16449">
        <ele>119.6</ele>
        <time>2024-05-08T10:15:49Z</time>
      </trkpt>
      <trkpt lat="47.64151" lon="2.1645">
        <ele>118.2</ele>
        <time>2024-05-08T10:17:26Z</time>
      </trkpt>
      <trkpt lat="47.64145" lon="2.16455">
        <ele>117.8</ele>
        <time>2024-05-08T10:17:29Z</time>
      </trkpt>
      <trkpt lat="47.64141" lon="2.16459">
        <ele>118</ele>
        <time>2024-05-08T10:17:31Z</time>
      </trkpt>
      <trkpt lat="47.6414" lon="2.16461">
        <ele>118</ele>
        <time>2024-05-08T10:17:32Z</time>
      </trkpt>
      <trkpt lat="47.64139" lon="2.16464">
        <ele>117.8</ele>
        <time>2024-05-08T10:17:33Z</time>
      </trkpt>
      <trkpt lat="47.64141" lon="2.16467">
        <ele>117.8</ele>
        <time>2024-05-08T10:17:35Z</time>
      </trkpt>
      <trkpt lat="47.64145" lon="2.16468">
        <ele>117.8</ele>
        <time>2024-05-08T10:17:37Z</time>
      </trkpt>
      <trkpt lat="47.64152" lon="2.16462">
        <ele>117.8</ele>
        <time>2024-05-08T10:17:40Z</time>
      </trkpt>
      <trkpt lat="47.64163" lon="2.16457">
        <ele>118.2</ele>
        <time>2024-05-08T10:17:46Z</time>
      </trkpt>
      <trkpt lat="47.64164" lon="2.16456">
        <ele>118.4</ele>
        <time>2024-05-08T10:17:47Z</time>
      </trkpt>
      <trkpt lat="47.64164" lon="2.16456">
        <ele>118.6</ele>
        <time>2024-05-08T10:17:50Z</time>
      </trkpt>
      <trkpt lat="47.6416" lon="2.16452">
        <ele>118.4</ele>
        <time>2024-05-08T10:40:43Z</time>
      </trkpt>
      <trkpt lat="47.64155" lon="2.16456">
        <ele>118.4</ele>
        <time>2024-05-08T10:40:45Z</time>
      </trkpt>
      <trkpt lat="47.64141" lon="2.16471">
        <ele>118.4</ele>
        <time>2024-05-08T10:40:51Z</time>
      </trkpt>
      <trkpt lat="47.64137" lon="2.16469">
        <ele>118.4</ele>
        <time>2024-05-08T10:40:53Z</time>
      </trkpt>
      <trkpt lat="47.64136" lon="2.16466">
        <ele>118.4</ele>
        <time>2024-05-08T10:40:54Z</time>
      </trkpt>
      <trkpt lat="47.64136" lon="2.16463">
        <ele>118.4</ele>
        <time>2024-05-08T10:40:55Z</time>
      </trkpt>
      <trkpt lat="47.64138" lon="2.16457">
        <ele>118.4</ele>
        <time>2024-05-08T10:40:57Z</time>
      </trkpt>
      <trkpt lat="47.64151" lon="2.16447">
        <ele>118.4</ele>
        <time>2024-05-08T10:41:01Z</time>
      </trkpt>
      <trkpt lat="47.64159" lon="2.16441">
        <ele>118.4</ele>
        <time>2024-05-08T10:41:03Z</time>
      </trkpt>
      <trkpt lat="47.6418" lon="2.16423">
        <ele>118.6</ele>
        <time>2024-05-08T10:41:08Z</time>
      </trkpt>
      <trkpt lat="47.64207" lon="2.16396">
        <ele>118.8</ele>
        <time>2024-05-08T10:41:15Z</time>
      </trkpt>
      <trkpt lat="47.64241" lon="2.16367">
        <ele>119.4</ele>
        <time>2024-05-08T10:41:24Z</time>
      </trkpt>
      <trkpt lat="47.64244" lon="2.16363">
        <ele>119.4</ele>
        <time>2024-05-08T10:41:25Z</time>
      </trkpt>
      <trkpt lat="47.64266" lon="2.16345">
        <ele>119.8</ele>
        <time>2024-05-08T10:41:31Z</time>
      </trkpt>
      <trkpt lat="47.64274" lon="2.16341">
        <ele>120.2</ele>
        <time>2024-05-08T10:41:33Z</time>
      </trkpt>
      <trkpt lat="47.64286" lon="2.16337">
        <ele>120.4</ele>
        <time>2024-05-08T10:41:36Z</time>
      </trkpt>
      <trkpt lat="47.64299" lon="2.16333">
        <ele>120.4</ele>
        <time>2024-05-08T10:41:39Z</time>
      </trkpt>
      <trkpt lat="47.64312" lon="2.16332">
        <ele>120.6</ele>
        <time>2024-05-08T10:41:42Z</time>
      </trkpt>
      <trkpt lat="47.64321" lon="2.1633">
        <ele>120.6</ele>
        <time>2024-05-08T10:41:44Z</time>
      </trkpt>
      <trkpt lat="47.64343" lon="2.16327">
        <ele>121</ele>
        <time>2024-05-08T10:41:49Z</time>
      </trkpt>
      <trkpt lat="47.64356" lon="2.16324">
        <ele>121</ele>
        <time>2024-05-08T10:41:52Z</time>
      </trkpt>
      <trkpt lat="47.64364" lon="2.16322">
        <ele>121</ele>
        <time>2024-05-08T10:41:54Z</time>
      </trkpt>
      <trkpt lat="47.64367" lon="2.16319">
        <ele>121</ele>
        <time>2024-05-08T10:41:55Z</time>
      </trkpt>
      <trkpt lat="47.64369" lon="2.16315">
        <ele>121</ele>
        <time>2024-05-08T10:41:56Z</time>
      </trkpt>
      <trkpt lat="47.64369" lon="2.16303">
        <ele>120.8</ele>
        <time>2024-05-08T10:41:58Z</time>
      </trkpt>
      <trkpt lat="47.64363" lon="2.16264">
        <ele>120.2</ele>
        <time>2024-05-08T10:42:04Z</time>
      </trkpt>
      <trkpt lat="47.6436" lon="2.1625">
        <ele>120</ele>
        <time>2024-05-08T10:42:06Z</time>
      </trkpt>
      <trkpt lat="47.64355" lon="2.16226">
        <ele>119.2</ele>
        <time>2024-05-08T10:42:09Z</time>
      </trkpt>
      <trkpt lat="47.6435" lon="2.16202">
        <ele>118.6</ele>
        <time>2024-05-08T10:42:12Z</time>
      </trkpt>
      <trkpt lat="47.64341" lon="2.16165">
        <ele>118</ele>
        <time>2024-05-08T10:42:16Z</time>
      </trkpt>
      <trkpt lat="47.64337" lon="2.16149">
        <ele>117.8</ele>
        <time>2024-05-08T10:42:18Z</time>
      </trkpt>
      <trkpt lat="47.64324" lon="2.16113">
        <ele>117.4</ele>
        <time>2024-05-08T10:42:23Z</time>
      </trkpt>
      <trkpt lat="47.64307" lon="2.16079">
        <ele>117</ele>
        <time>2024-05-08T10:42:28Z</time>
      </trkpt>
      <trkpt lat="47.64303" lon="2.16075">
        <ele>117</ele>
        <time>2024-05-08T10:42:29Z</time>
      </trkpt>
      <trkpt lat="47.64289" lon="2.16064">
        <ele>117</ele>
        <time>2024-05-08T10:42:32Z</time>
      </trkpt>
      <trkpt lat="47.64273" lon="2.16045">
        <ele>116.8</ele>
        <time>2024-05-08T10:42:36Z</time>
      </trkpt>
      <trkpt lat="47.64261" lon="2.1603">
        <ele>116.8</ele>
        <time>2024-05-08T10:42:39Z</time>
      </trkpt>
      <trkpt lat="47.64225" lon="2.15986">
        <ele>117.2</ele>
        <time>2024-05-08T10:42:47Z</time>
      </trkpt>
      <trkpt lat="47.64185" lon="2.15936">
        <ele>117.8</ele>
        <time>2024-05-08T10:42:56Z</time>
      </trkpt>
      <trkpt lat="47.64168" lon="2.15913">
        <ele>118</ele>
        <time>2024-05-08T10:43:00Z</time>
      </trkpt>
      <trkpt lat="47.64154" lon="2.15896">
        <ele>118</ele>
        <time>2024-05-08T10:43:03Z</time>
      </trkpt>
      <trkpt lat="47.64136" lon="2.15875">
        <ele>118.2</ele>
        <time>2024-05-08T10:43:07Z</time>
      </trkpt>
      <trkpt lat="47.64119" lon="2.15853">
        <ele>118.8</ele>
        <time>2024-05-08T10:43:11Z</time>
      </trkpt>
      <trkpt lat="47.6411" lon="2.15842">
        <ele>119</ele>
        <time>2024-05-08T10:43:13Z</time>
      </trkpt>
      <trkpt lat="47.64075" lon="2.15798">
        <ele>119.4</ele>
        <time>2024-05-08T10:43:21Z</time>
      </trkpt>
      <trkpt lat="47.64033" lon="2.15742">
        <ele>119.6</ele>
        <time>2024-05-08T10:43:31Z</time>
      </trkpt>
      <trkpt lat="47.64005" lon="2.15695">
        <ele>119.8</ele>
        <time>2024-05-08T10:43:38Z</time>
      </trkpt>
      <trkpt lat="47.6397" lon="2.15623">
        <ele>120</ele>
        <time>2024-05-08T10:43:47Z</time>
      </trkpt>
      <trkpt lat="47.63941" lon="2.15565">
        <ele>119.2</ele>
        <time>2024-05-08T10:43:54Z</time>
      </trkpt>
      <trkpt lat="47.63933" lon="2.15549">
        <ele>119</ele>
        <time>2024-05-08T10:43:56Z</time>
      </trkpt>
      <trkpt lat="47.63902" lon="2.15485">
        <ele>118.6</ele>
        <time>2024-05-08T10:44:04Z</time>
      </trkpt>
      <trkpt lat="47.6387" lon="2.15418">
        <ele>118.2</ele>
        <time>2024-05-08T10:44:12Z</time>
      </trkpt>
      <trkpt lat="47.63854" lon="2.15385">
        <ele>118</ele>
        <time>2024-05-08T10:44:16Z</time>
      </trkpt>
      <trkpt lat="47.63845" lon="2.15369">
        <ele>117.8</ele>
        <time>2024-05-08T10:44:18Z</time>
      </trkpt>
      <trkpt lat="47.63834" lon="2.15344">
        <ele>117.6</ele>
        <time>2024-05-08T10:44:21Z</time>
      </trkpt>
      <trkpt lat="47.63812" lon="2.15286">
        <ele>117.2</ele>
        <time>2024-05-08T10:44:28Z</time>
      </trkpt>
      <trkpt lat="47.63799" lon="2.15235">
        <ele>117.2</ele>
        <time>2024-05-08T10:44:34Z</time>
      </trkpt>
      <trkpt lat="47.6378" lon="2.15151">
        <ele>118</ele>
        <time>2024-05-08T10:44:44Z</time>
      </trkpt>
      <trkpt lat="47.63768" lon="2.15103">
        <ele>118.4</ele>
        <time>2024-05-08T10:44:50Z</time>
      </trkpt>
      <trkpt lat="47.63766" lon="2.15095">
        <ele>118.6</ele>
        <time>2024-05-08T10:44:51Z</time>
      </trkpt>
      <trkpt lat="47.63763" lon="2.15085">
        <ele>118.6</ele>
        <time>2024-05-08T10:44:52Z</time>
      </trkpt>
      <trkpt lat="47.63756" lon="2.15053">
        <ele>119</ele>
        <time>2024-05-08T10:44:56Z</time>
      </trkpt>
      <trkpt lat="47.63753" lon="2.15045">
        <ele>119</ele>
        <time>2024-05-08T10:44:57Z</time>
      </trkpt>
      <trkpt lat="47.63739" lon="2.14989">
        <ele>119.8</ele>
        <time>2024-05-08T10:45:04Z</time>
      </trkpt>
      <trkpt lat="47.63728" lon="2.14943">
        <ele>120</ele>
        <time>2024-05-08T10:45:10Z</time>
      </trkpt>
      <trkpt lat="47.63725" lon="2.14936">
        <ele>120</ele>
        <time>2024-05-08T10:45:11Z</time>
      </trkpt>
      <trkpt lat="47.63721" lon="2.14921">
        <ele>120</ele>
        <time>2024-05-08T10:45:13Z</time>
      </trkpt>
      <trkpt lat="47.63716" lon="2.14905">
        <ele>120</ele>
        <time>2024-05-08T10:45:15Z</time>
      </trkpt>
      <trkpt lat="47.63711" lon="2.14889">
        <ele>120.2</ele>
        <time>2024-05-08T10:45:17Z</time>
      </trkpt>
      <trkpt lat="47.63704" lon="2.1484">
        <ele>120.6</ele>
        <time>2024-05-08T10:45:23Z</time>
      </trkpt>
      <trkpt lat="47.637" lon="2.14823">
        <ele>120.6</ele>
        <time>2024-05-08T10:45:25Z</time>
      </trkpt>
      <trkpt lat="47.63694" lon="2.14799">
        <ele>121</ele>
        <time>2024-05-08T10:45:28Z</time>
      </trkpt>
      <trkpt lat="47.63692" lon="2.1479">
        <ele>121</ele>
        <time>2024-05-08T10:45:29Z</time>
      </trkpt>
      <trkpt lat="47.63686" lon="2.14772">
        <ele>121.2</ele>
        <time>2024-05-08T10:45:31Z</time>
      </trkpt>
      <trkpt lat="47.63674" lon="2.14704">
        <ele>122</ele>
        <time>2024-05-08T10:45:39Z</time>
      </trkpt>
      <trkpt lat="47.6366" lon="2.14638">
        <ele>122.4</ele>
        <time>2024-05-08T10:45:47Z</time>
      </trkpt>
      <trkpt lat="47.63656" lon="2.14621">
        <ele>122.6</ele>
        <time>2024-05-08T10:45:49Z</time>
      </trkpt>
      <trkpt lat="47.63646" lon="2.14579">
        <ele>123.2</ele>
        <time>2024-05-08T10:45:54Z</time>
      </trkpt>
      <trkpt lat="47.63634" lon="2.1453">
        <ele>123.4</ele>
        <time>2024-05-08T10:46:00Z</time>
      </trkpt>
      <trkpt lat="47.63616" lon="2.14455">
        <ele>124</ele>
        <time>2024-05-08T10:46:09Z</time>
      </trkpt>
      <trkpt lat="47.6361" lon="2.1443">
        <ele>124.2</ele>
        <time>2024-05-08T10:46:12Z</time>
      </trkpt>
      <trkpt lat="47.63597" lon="2.14374">
        <ele>124.6</ele>
        <time>2024-05-08T10:46:19Z</time>
      </trkpt>
      <trkpt lat="47.63595" lon="2.14366">
        <ele>124.6</ele>
        <time>2024-05-08T10:46:20Z</time>
      </trkpt>
      <trkpt lat="47.63581" lon="2.14309">
        <ele>125</ele>
        <time>2024-05-08T10:46:27Z</time>
      </trkpt>
      <trkpt lat="47.63577" lon="2.14294">
        <ele>125.2</ele>
        <time>2024-05-08T10:46:29Z</time>
      </trkpt>
      <trkpt lat="47.63559" lon="2.14218">
        <ele>125.6</ele>
        <time>2024-05-08T10:46:38Z</time>
      </trkpt>
      <trkpt lat="47.63539" lon="2.14136">
        <ele>125.6</ele>
        <time>2024-05-08T10:46:47Z</time>
      </trkpt>
      <trkpt lat="47.63521" lon="2.1406">
        <ele>125.2</ele>
        <time>2024-05-08T10:46:55Z</time>
      </trkpt>
      <trkpt lat="47.63514" lon="2.14031">
        <ele>125.2</ele>
        <time>2024-05-08T10:46:58Z</time>
      </trkpt>
      <trkpt lat="47.63495" lon="2.13954">
        <ele>125.2</ele>
        <time>2024-05-08T10:47:06Z</time>
      </trkpt>
      <trkpt lat="47.63486" lon="2.13915">
        <ele>125</ele>
        <time>2024-05-08T10:47:10Z</time>
      </trkpt>
      <trkpt lat="47.63469" lon="2.13846">
        <ele>125.2</ele>
        <time>2024-05-08T10:47:17Z</time>
      </trkpt>
      <trkpt lat="47.63451" lon="2.13769">
        <ele>125.2</ele>
        <time>2024-05-08T10:47:25Z</time>
      </trkpt>
      <trkpt lat="47.63432" lon="2.13692">
        <ele>125</ele>
        <time>2024-05-08T10:47:33Z</time>
      </trkpt>
      <trkpt lat="47.6343" lon="2.13682">
        <ele>124.8</ele>
        <time>2024-05-08T10:47:34Z</time>
      </trkpt>
      <trkpt lat="47.63417" lon="2.13625">
        <ele>124.4</ele>
        <time>2024-05-08T10:47:40Z</time>
      </trkpt>
      <trkpt lat="47.63412" lon="2.13606">
        <ele>124.4</ele>
        <time>2024-05-08T10:47:42Z</time>
      </trkpt>
      <trkpt lat="47.63392" lon="2.13521">
        <ele>124.4</ele>
        <time>2024-05-08T10:47:51Z</time>
      </trkpt>
      <trkpt lat="47.63385" lon="2.13494">
        <ele>124.2</ele>
        <time>2024-05-08T10:47:54Z</time>
      </trkpt>
      <trkpt lat="47.63366" lon="2.13413">
        <ele>124.2</ele>
        <time>2024-05-08T10:48:03Z</time>
      </trkpt>
      <trkpt lat="47.63364" lon="2.13405">
        <ele>124.2</ele>
        <time>2024-05-08T10:48:04Z</time>
      </trkpt>
      <trkpt lat="47.63345" lon="2.13325">
        <ele>124.6</ele>
        <time>2024-05-08T10:48:13Z</time>
      </trkpt>
      <trkpt lat="47.63334" lon="2.13281">
        <ele>124.6</ele>
        <time>2024-05-08T10:48:18Z</time>
      </trkpt>
      <trkpt lat="47.63315" lon="2.13199">
        <ele>124.6</ele>
        <time>2024-05-08T10:48:27Z</time>
      </trkpt>
      <trkpt lat="47.63296" lon="2.13125">
        <ele>124.6</ele>
        <time>2024-05-08T10:48:35Z</time>
      </trkpt>
      <trkpt lat="47.63286" lon="2.13079">
        <ele>124.4</ele>
        <time>2024-05-08T10:48:40Z</time>
      </trkpt>
      <trkpt lat="47.6327" lon="2.13008">
        <ele>124.2</ele>
        <time>2024-05-08T10:48:48Z</time>
      </trkpt>
      <trkpt lat="47.63266" lon="2.1299">
        <ele>124.2</ele>
        <time>2024-05-08T10:48:50Z</time>
      </trkpt>
      <trkpt lat="47.63247" lon="2.12912">
        <ele>124</ele>
        <time>2024-05-08T10:48:58Z</time>
      </trkpt>
      <trkpt lat="47.63228" lon="2.12835">
        <ele>124</ele>
        <time>2024-05-08T10:49:06Z</time>
      </trkpt>
      <trkpt lat="47.63221" lon="2.12807">
        <ele>124</ele>
        <time>2024-05-08T10:49:09Z</time>
      </trkpt>
      <trkpt lat="47.63205" lon="2.12743">
        <ele>123.4</ele>
        <time>2024-05-08T10:49:15Z</time>
      </trkpt>
      <trkpt lat="47.63203" lon="2.12734">
        <ele>123.2</ele>
        <time>2024-05-08T10:49:16Z</time>
      </trkpt>
      <trkpt lat="47.63197" lon="2.1271">
        <ele>122.8</ele>
        <time>2024-05-08T10:49:18Z</time>
      </trkpt>
      <trkpt lat="47.63189" lon="2.12674">
        <ele>122.2</ele>
        <time>2024-05-08T10:49:21Z</time>
      </trkpt>
      <trkpt lat="47.63179" lon="2.12635">
        <ele>121.2</ele>
        <time>2024-05-08T10:49:24Z</time>
      </trkpt>
      <trkpt lat="47.63176" lon="2.12622">
        <ele>120.8</ele>
        <time>2024-05-08T10:49:25Z</time>
      </trkpt>
      <trkpt lat="47.63169" lon="2.12596">
        <ele>119.8</ele>
        <time>2024-05-08T10:49:27Z</time>
      </trkpt>
      <trkpt lat="47.63161" lon="2.12558">
        <ele>118.8</ele>
        <time>2024-05-08T10:49:30Z</time>
      </trkpt>
      <trkpt lat="47.63155" lon="2.12534">
        <ele>118.4</ele>
        <time>2024-05-08T10:49:32Z</time>
      </trkpt>
      <trkpt lat="47.63143" lon="2.12482">
        <ele>118</ele>
        <time>2024-05-08T10:49:37Z</time>
      </trkpt>
      <trkpt lat="47.63131" lon="2.12434">
        <ele>118.2</ele>
        <time>2024-05-08T10:49:42Z</time>
      </trkpt>
      <trkpt lat="47.63116" lon="2.12366">
        <ele>119.4</ele>
        <time>2024-05-08T10:49:49Z</time>
      </trkpt>
      <trkpt lat="47.63109" lon="2.12338">
        <ele>119.6</ele>
        <time>2024-05-08T10:49:52Z</time>
      </trkpt>
      <trkpt lat="47.63104" lon="2.12318">
        <ele>120</ele>
        <time>2024-05-08T10:49:54Z</time>
      </trkpt>
      <trkpt lat="47.63099" lon="2.12299">
        <ele>120</ele>
        <time>2024-05-08T10:49:56Z</time>
      </trkpt>
      <trkpt lat="47.63083" lon="2.12233">
        <ele>120.6</ele>
        <time>2024-05-08T10:50:03Z</time>
      </trkpt>
      <trkpt lat="47.63074" lon="2.12198">
        <ele>121</ele>
        <time>2024-05-08T10:50:07Z</time>
      </trkpt>
      <trkpt lat="47.6306" lon="2.12146">
        <ele>121.2</ele>
        <time>2024-05-08T10:50:13Z</time>
      </trkpt>
      <trkpt lat="47.63052" lon="2.12104">
        <ele>121.8</ele>
        <time>2024-05-08T10:50:18Z</time>
      </trkpt>
      <trkpt lat="47.6305" lon="2.12095">
        <ele>122</ele>
        <time>2024-05-08T10:50:19Z</time>
      </trkpt>
      <trkpt lat="47.63034" lon="2.12028">
        <ele>122</ele>
        <time>2024-05-08T10:50:27Z</time>
      </trkpt>
      <trkpt lat="47.63032" lon="2.12021">
        <ele>122</ele>
        <time>2024-05-08T10:50:28Z</time>
      </trkpt>
      <trkpt lat="47.63018" lon="2.11956">
        <ele>121.6</ele>
        <time>2024-05-08T10:50:36Z</time>
      </trkpt>
      <trkpt lat="47.63005" lon="2.11901">
        <ele>121.2</ele>
        <time>2024-05-08T10:50:42Z</time>
      </trkpt>
      <trkpt lat="47.63" lon="2.11882">
        <ele>121.2</ele>
        <time>2024-05-08T10:50:44Z</time>
      </trkpt>
      <trkpt lat="47.62984" lon="2.11818">
        <ele>121.4</ele>
        <time>2024-05-08T10:50:51Z</time>
      </trkpt>
      <trkpt lat="47.62962" lon="2.11733">
        <ele>121.8</ele>
        <time>2024-05-08T10:51:00Z</time>
      </trkpt>
      <trkpt lat="47.6296" lon="2.11726">
        <ele>121.8</ele>
        <time>2024-05-08T10:51:01Z</time>
      </trkpt>
      <trkpt lat="47.62941" lon="2.11642">
        <ele>121.2</ele>
        <time>2024-05-08T10:51:10Z</time>
      </trkpt>
      <trkpt lat="47.62933" lon="2.11614">
        <ele>120.8</ele>
        <time>2024-05-08T10:51:13Z</time>
      </trkpt>
      <trkpt lat="47.62933" lon="2.11614">
        <ele>120.6</ele>
        <time>2024-05-08T10:51:14Z</time>
      </trkpt>
      <trkpt lat="47.62915" lon="2.11537">
        <ele>120.2</ele>
        <time>2024-05-08T10:51:21Z</time>
      </trkpt>
      <trkpt lat="47.62908" lon="2.11509">
        <ele>120</ele>
        <time>2024-05-08T10:51:24Z</time>
      </trkpt>
      <trkpt lat="47.62898" lon="2.11469">
        <ele>119.6</ele>
        <time>2024-05-08T10:51:28Z</time>
      </trkpt>
      <trkpt lat="47.62893" lon="2.11449">
        <ele>119.4</ele>
        <time>2024-05-08T10:51:30Z</time>
      </trkpt>
      <trkpt lat="47.62875" lon="2.11374">
        <ele>119</ele>
        <time>2024-05-08T10:51:38Z</time>
      </trkpt>
      <trkpt lat="47.62864" lon="2.11322">
        <ele>119</ele>
        <time>2024-05-08T10:51:44Z</time>
      </trkpt>
      <trkpt lat="47.62846" lon="2.11246">
        <ele>119.4</ele>
        <time>2024-05-08T10:51:52Z</time>
      </trkpt>
      <trkpt lat="47.62834" lon="2.11193">
        <ele>119.8</ele>
        <time>2024-05-08T10:51:58Z</time>
      </trkpt>
      <trkpt lat="47.62815" lon="2.11115">
        <ele>120.6</ele>
        <time>2024-05-08T10:52:06Z</time>
      </trkpt>
      <trkpt lat="47.62813" lon="2.11106">
        <ele>120.6</ele>
        <time>2024-05-08T10:52:07Z</time>
      </trkpt>
      <trkpt lat="47.62796" lon="2.11035">
        <ele>120.6</ele>
        <time>2024-05-08T10:52:15Z</time>
      </trkpt>
      <trkpt lat="47.62788" lon="2.11">
        <ele>120.8</ele>
        <time>2024-05-08T10:52:19Z</time>
      </trkpt>
      <trkpt lat="47.62768" lon="2.10921">
        <ele>121</ele>
        <time>2024-05-08T10:52:28Z</time>
      </trkpt>
      <trkpt lat="47.62748" lon="2.10836">
        <ele>121.2</ele>
        <time>2024-05-08T10:52:38Z</time>
      </trkpt>
      <trkpt lat="47.62746" lon="2.10827">
        <ele>121.2</ele>
        <time>2024-05-08T10:52:39Z</time>
      </trkpt>
      <trkpt lat="47.62742" lon="2.1081">
        <ele>121.2</ele>
        <time>2024-05-08T10:52:41Z</time>
      </trkpt>
      <trkpt lat="47.62722" lon="2.10733">
        <ele>121.4</ele>
        <time>2024-05-08T10:52:50Z</time>
      </trkpt>
      <trkpt lat="47.62706" lon="2.10663">
        <ele>121.4</ele>
        <time>2024-05-08T10:52:59Z</time>
      </trkpt>
      <trkpt lat="47.62702" lon="2.10643">
        <ele>121.4</ele>
        <time>2024-05-08T10:53:02Z</time>
      </trkpt>
      <trkpt lat="47.62698" lon="2.10629">
        <ele>121.4</ele>
        <time>2024-05-08T10:53:05Z</time>
      </trkpt>
      <trkpt lat="47.62695" lon="2.10603">
        <ele>121.6</ele>
        <time>2024-05-08T10:53:10Z</time>
      </trkpt>
      <trkpt lat="47.62694" lon="2.10591">
        <ele>121.8</ele>
        <time>2024-05-08T10:53:12Z</time>
      </trkpt>
      <trkpt lat="47.62693" lon="2.10584">
        <ele>121.8</ele>
        <time>2024-05-08T10:53:13Z</time>
      </trkpt>
      <trkpt lat="47.62692" lon="2.10562">
        <ele>122</ele>
        <time>2024-05-08T10:53:16Z</time>
      </trkpt>
      <trkpt lat="47.6269" lon="2.10502">
        <ele>122.4</ele>
        <time>2024-05-08T10:53:23Z</time>
      </trkpt>
      <trkpt lat="47.62688" lon="2.10456">
        <ele>122.8</ele>
        <time>2024-05-08T10:53:28Z</time>
      </trkpt>
      <trkpt lat="47.62688" lon="2.10447">
        <ele>122.8</ele>
        <time>2024-05-08T10:53:29Z</time>
      </trkpt>
      <trkpt lat="47.62686" lon="2.10381">
        <ele>123</ele>
        <time>2024-05-08T10:53:36Z</time>
      </trkpt>
      <trkpt lat="47.62686" lon="2.10325">
        <ele>122.8</ele>
        <time>2024-05-08T10:53:42Z</time>
      </trkpt>
      <trkpt lat="47.62682" lon="2.10256">
        <ele>122.8</ele>
        <time>2024-05-08T10:53:49Z</time>
      </trkpt>
      <trkpt lat="47.62682" lon="2.10246">
        <ele>122.8</ele>
        <time>2024-05-08T10:53:50Z</time>
      </trkpt>
      <trkpt lat="47.62679" lon="2.10178">
        <ele>122.4</ele>
        <time>2024-05-08T10:53:57Z</time>
      </trkpt>
      <trkpt lat="47.62676" lon="2.10082">
        <ele>122.8</ele>
        <time>2024-05-08T10:54:07Z</time>
      </trkpt>
      <trkpt lat="47.62673" lon="2.10024">
        <ele>123.2</ele>
        <time>2024-05-08T10:54:13Z</time>
      </trkpt>
      <trkpt lat="47.6267" lon="2.09942">
        <ele>122.8</ele>
        <time>2024-05-08T10:54:21Z</time>
      </trkpt>
      <trkpt lat="47.62666" lon="2.09856">
        <ele>122.2</ele>
        <time>2024-05-08T10:54:29Z</time>
      </trkpt>
      <trkpt lat="47.62665" lon="2.09846">
        <ele>122</ele>
        <time>2024-05-08T10:54:30Z</time>
      </trkpt>
      <trkpt lat="47.62663" lon="2.09784">
        <ele>121.6</ele>
        <time>2024-05-08T10:54:36Z</time>
      </trkpt>
      <trkpt lat="47.62663" lon="2.09774">
        <ele>121.6</ele>
        <time>2024-05-08T10:54:37Z</time>
      </trkpt>
      <trkpt lat="47.6266" lon="2.09694">
        <ele>121.4</ele>
        <time>2024-05-08T10:54:45Z</time>
      </trkpt>
      <trkpt lat="47.62656" lon="2.09615">
        <ele>121.2</ele>
        <time>2024-05-08T10:54:53Z</time>
      </trkpt>
      <trkpt lat="47.62652" lon="2.09549">
        <ele>121.2</ele>
        <time>2024-05-08T10:55:00Z</time>
      </trkpt>
      <trkpt lat="47.6265" lon="2.0954">
        <ele>121.2</ele>
        <time>2024-05-08T10:55:01Z</time>
      </trkpt>
      <trkpt lat="47.62649" lon="2.0953">
        <ele>121.4</ele>
        <time>2024-05-08T10:55:02Z</time>
      </trkpt>
      <trkpt lat="47.62648" lon="2.09493">
        <ele>121.4</ele>
        <time>2024-05-08T10:55:06Z</time>
      </trkpt>
      <trkpt lat="47.62646" lon="2.09426">
        <ele>121.8</ele>
        <time>2024-05-08T10:55:13Z</time>
      </trkpt>
      <trkpt lat="47.62643" lon="2.0935">
        <ele>122.2</ele>
        <time>2024-05-08T10:55:21Z</time>
      </trkpt>
      <trkpt lat="47.6264" lon="2.09273">
        <ele>122.4</ele>
        <time>2024-05-08T10:55:29Z</time>
      </trkpt>
      <trkpt lat="47.62638" lon="2.09234">
        <ele>122.6</ele>
        <time>2024-05-08T10:55:34Z</time>
      </trkpt>
      <trkpt lat="47.62636" lon="2.09196">
        <ele>122.6</ele>
        <time>2024-05-08T10:55:37Z</time>
      </trkpt>
      <trkpt lat="47.62625" lon="2.09114">
        <ele>122.8</ele>
        <time>2024-05-08T10:55:46Z</time>
      </trkpt>
      <trkpt lat="47.62622" lon="2.09096">
        <ele>122.8</ele>
        <time>2024-05-08T10:55:48Z</time>
      </trkpt>
      <trkpt lat="47.62602" lon="2.09017">
        <ele>122.8</ele>
        <time>2024-05-08T10:55:57Z</time>
      </trkpt>
      <trkpt lat="47.6258" lon="2.08945">
        <ele>122.8</ele>
        <time>2024-05-08T10:56:05Z</time>
      </trkpt>
      <trkpt lat="47.62556" lon="2.08863">
        <ele>123.2</ele>
        <time>2024-05-08T10:56:14Z</time>
      </trkpt>
      <trkpt lat="47.62548" lon="2.08836">
        <ele>123.2</ele>
        <time>2024-05-08T10:56:17Z</time>
      </trkpt>
      <trkpt lat="47.62527" lon="2.08761">
        <ele>123</ele>
        <time>2024-05-08T10:56:25Z</time>
      </trkpt>
      <trkpt lat="47.62515" lon="2.08724">
        <ele>123</ele>
        <time>2024-05-08T10:56:29Z</time>
      </trkpt>
      <trkpt lat="47.62494" lon="2.08649">
        <ele>123.2</ele>
        <time>2024-05-08T10:56:37Z</time>
      </trkpt>
      <trkpt lat="47.62491" lon="2.0864">
        <ele>123</ele>
        <time>2024-05-08T10:56:38Z</time>
      </trkpt>
      <trkpt lat="47.6247" lon="2.08567">
        <ele>123.4</ele>
        <time>2024-05-08T10:56:46Z</time>
      </trkpt>
      <trkpt lat="47.62467" lon="2.08557">
        <ele>123.4</ele>
        <time>2024-05-08T10:56:47Z</time>
      </trkpt>
      <trkpt lat="47.62444" lon="2.08478">
        <ele>122.8</ele>
        <time>2024-05-08T10:56:56Z</time>
      </trkpt>
      <trkpt lat="47.62442" lon="2.08468">
        <ele>123</ele>
        <time>2024-05-08T10:56:57Z</time>
      </trkpt>
      <trkpt lat="47.62414" lon="2.08378">
        <ele>123</ele>
        <time>2024-05-08T10:57:07Z</time>
      </trkpt>
      <trkpt lat="47.62409" lon="2.08361">
        <ele>123</ele>
        <time>2024-05-08T10:57:09Z</time>
      </trkpt>
      <trkpt lat="47.62395" lon="2.08312">
        <ele>123.2</ele>
        <time>2024-05-08T10:57:15Z</time>
      </trkpt>
      <trkpt lat="47.6238" lon="2.08263">
        <ele>123.4</ele>
        <time>2024-05-08T10:57:21Z</time>
      </trkpt>
      <trkpt lat="47.62376" lon="2.08248">
        <ele>123.4</ele>
        <time>2024-05-08T10:57:23Z</time>
      </trkpt>
      <trkpt lat="47.62363" lon="2.08206">
        <ele>123.6</ele>
        <time>2024-05-08T10:57:28Z</time>
      </trkpt>
      <trkpt lat="47.62356" lon="2.08178">
        <ele>123.6</ele>
        <time>2024-05-08T10:57:31Z</time>
      </trkpt>
      <trkpt lat="47.62347" lon="2.08149">
        <ele>123.6</ele>
        <time>2024-05-08T10:57:34Z</time>
      </trkpt>
      <trkpt lat="47.62331" lon="2.08094">
        <ele>123.8</ele>
        <time>2024-05-08T10:57:40Z</time>
      </trkpt>
      <trkpt lat="47.62325" lon="2.08077">
        <ele>123.8</ele>
        <time>2024-05-08T10:57:42Z</time>
      </trkpt>
      <trkpt lat="47.62306" lon="2.08015">
        <ele>124.2</ele>
        <time>2024-05-08T10:57:49Z</time>
      </trkpt>
      <trkpt lat="47.62282" lon="2.07935">
        <ele>124</ele>
        <time>2024-05-08T10:57:58Z</time>
      </trkpt>
      <trkpt lat="47.6228" lon="2.07926">
        <ele>124</ele>
        <time>2024-05-08T10:57:59Z</time>
      </trkpt>
      <trkpt lat="47.6227" lon="2.07893">
        <ele>124</ele>
        <time>2024-05-08T10:58:03Z</time>
      </trkpt>
      <trkpt lat="47.62265" lon="2.07878">
        <ele>124</ele>
        <time>2024-05-08T10:58:05Z</time>
      </trkpt>
      <trkpt lat="47.62262" lon="2.07868">
        <ele>124.2</ele>
        <time>2024-05-08T10:58:06Z</time>
      </trkpt>
      <trkpt lat="47.6225" lon="2.07828">
        <ele>124.2</ele>
        <time>2024-05-08T10:58:11Z</time>
      </trkpt>
      <trkpt lat="47.62231" lon="2.07762">
        <ele>124.6</ele>
        <time>2024-05-08T10:58:19Z</time>
      </trkpt>
      <trkpt lat="47.6221" lon="2.07686">
        <ele>124.4</ele>
        <time>2024-05-08T10:58:27Z</time>
      </trkpt>
      <trkpt lat="47.62187" lon="2.07608">
        <ele>124.6</ele>
        <time>2024-05-08T10:58:35Z</time>
      </trkpt>
      <trkpt lat="47.62178" lon="2.07579">
        <ele>124.4</ele>
        <time>2024-05-08T10:58:38Z</time>
      </trkpt>
      <trkpt lat="47.62162" lon="2.07524">
        <ele>124.4</ele>
        <time>2024-05-08T10:58:44Z</time>
      </trkpt>
      <trkpt lat="47.62141" lon="2.07451">
        <ele>124.2</ele>
        <time>2024-05-08T10:58:52Z</time>
      </trkpt>
      <trkpt lat="47.62123" lon="2.07387">
        <ele>124</ele>
        <time>2024-05-08T10:58:59Z</time>
      </trkpt>
      <trkpt lat="47.62102" lon="2.07314">
        <ele>124.2</ele>
        <time>2024-05-08T10:59:07Z</time>
      </trkpt>
      <trkpt lat="47.62082" lon="2.07249">
        <ele>124.4</ele>
        <time>2024-05-08T10:59:14Z</time>
      </trkpt>
      <trkpt lat="47.6207" lon="2.07207">
        <ele>124.2</ele>
        <time>2024-05-08T10:59:19Z</time>
      </trkpt>
      <trkpt lat="47.62059" lon="2.07169">
        <ele>124.2</ele>
        <time>2024-05-08T10:59:24Z</time>
      </trkpt>
      <trkpt lat="47.62054" lon="2.07151">
        <ele>124</ele>
        <time>2024-05-08T10:59:25Z</time>
      </trkpt>
      <trkpt lat="47.62046" lon="2.07124">
        <ele>124</ele>
        <time>2024-05-08T10:59:28Z</time>
      </trkpt>
      <trkpt lat="47.62022" lon="2.07043">
        <ele>124</ele>
        <time>2024-05-08T10:59:37Z</time>
      </trkpt>
      <trkpt lat="47.62019" lon="2.07033">
        <ele>124</ele>
        <time>2024-05-08T10:59:38Z</time>
      </trkpt>
      <trkpt lat="47.62001" lon="2.06971">
        <ele>124.2</ele>
        <time>2024-05-08T10:59:45Z</time>
      </trkpt>
      <trkpt lat="47.61999" lon="2.06964">
        <ele>124.2</ele>
        <time>2024-05-08T10:59:46Z</time>
      </trkpt>
      <trkpt lat="47.61987" lon="2.06922">
        <ele>123.8</ele>
        <time>2024-05-08T10:59:51Z</time>
      </trkpt>
      <trkpt lat="47.61965" lon="2.06847">
        <ele>123.6</ele>
        <time>2024-05-08T10:59:59Z</time>
      </trkpt>
      <trkpt lat="47.61941" lon="2.06767">
        <ele>123.4</ele>
        <time>2024-05-08T11:00:07Z</time>
      </trkpt>
      <trkpt lat="47.61927" lon="2.06721">
        <ele>123</ele>
        <time>2024-05-08T11:00:12Z</time>
      </trkpt>
      <trkpt lat="47.61924" lon="2.06711">
        <ele>122.8</ele>
        <time>2024-05-08T11:00:13Z</time>
      </trkpt>
      <trkpt lat="47.61903" lon="2.06636">
        <ele>122.4</ele>
        <time>2024-05-08T11:00:21Z</time>
      </trkpt>
      <trkpt lat="47.61886" lon="2.0658">
        <ele>121.8</ele>
        <time>2024-05-08T11:00:27Z</time>
      </trkpt>
      <trkpt lat="47.61872" lon="2.06533">
        <ele>121.6</ele>
        <time>2024-05-08T11:00:32Z</time>
      </trkpt>
      <trkpt lat="47.61854" lon="2.0647">
        <ele>121.6</ele>
        <time>2024-05-08T11:00:39Z</time>
      </trkpt>
      <trkpt lat="47.61832" lon="2.06396">
        <ele>121.4</ele>
        <time>2024-05-08T11:00:47Z</time>
      </trkpt>
      <trkpt lat="47.61829" lon="2.06386">
        <ele>121.4</ele>
        <time>2024-05-08T11:00:48Z</time>
      </trkpt>
      <trkpt lat="47.61807" lon="2.0631">
        <ele>121.4</ele>
        <time>2024-05-08T11:00:56Z</time>
      </trkpt>
      <trkpt lat="47.61791" lon="2.06254">
        <ele>121.4</ele>
        <time>2024-05-08T11:01:02Z</time>
      </trkpt>
      <trkpt lat="47.61768" lon="2.06176">
        <ele>121.2</ele>
        <time>2024-05-08T11:01:10Z</time>
      </trkpt>
      <trkpt lat="47.6176" lon="2.06147">
        <ele>121.2</ele>
        <time>2024-05-08T11:01:13Z</time>
      </trkpt>
      <trkpt lat="47.61743" lon="2.06088">
        <ele>121.2</ele>
        <time>2024-05-08T11:01:19Z</time>
      </trkpt>
      <trkpt lat="47.6172" lon="2.06013">
        <ele>121.4</ele>
        <time>2024-05-08T11:01:27Z</time>
      </trkpt>
      <trkpt lat="47.61715" lon="2.05994">
        <ele>121.4</ele>
        <time>2024-05-08T11:01:29Z</time>
      </trkpt>
      <trkpt lat="47.61693" lon="2.0592">
        <ele>121.2</ele>
        <time>2024-05-08T11:01:37Z</time>
      </trkpt>
      <trkpt lat="47.61679" lon="2.05873">
        <ele>120.8</ele>
        <time>2024-05-08T11:01:42Z</time>
      </trkpt>
      <trkpt lat="47.61676" lon="2.05865">
        <ele>120.8</ele>
        <time>2024-05-08T11:01:43Z</time>
      </trkpt>
      <trkpt lat="47.61663" lon="2.05823">
        <ele>120.6</ele>
        <time>2024-05-08T11:01:48Z</time>
      </trkpt>
      <trkpt lat="47.61656" lon="2.05805">
        <ele>120.6</ele>
        <time>2024-05-08T11:01:50Z</time>
      </trkpt>
      <trkpt lat="47.61645" lon="2.0578">
        <ele>120.6</ele>
        <time>2024-05-08T11:01:53Z</time>
      </trkpt>
      <trkpt lat="47.61625" lon="2.05735">
        <ele>120.6</ele>
        <time>2024-05-08T11:01:58Z</time>
      </trkpt>
      <trkpt lat="47.6159" lon="2.05668">
        <ele>120.2</ele>
        <time>2024-05-08T11:02:06Z</time>
      </trkpt>
      <trkpt lat="47.61568" lon="2.05625">
        <ele>120</ele>
        <time>2024-05-08T11:02:12Z</time>
      </trkpt>
      <trkpt lat="47.61531" lon="2.05559">
        <ele>120</ele>
        <time>2024-05-08T11:02:19Z</time>
      </trkpt>
      <trkpt lat="47.61523" lon="2.05544">
        <ele>120</ele>
        <time>2024-05-08T11:02:21Z</time>
      </trkpt>
      <trkpt lat="47.61485" lon="2.05474">
        <ele>119.8</ele>
        <time>2024-05-08T11:02:29Z</time>
      </trkpt>
      <trkpt lat="47.6148" lon="2.05465">
        <ele>119.8</ele>
        <time>2024-05-08T11:02:30Z</time>
      </trkpt>
      <trkpt lat="47.61443" lon="2.05396">
        <ele>120.4</ele>
        <time>2024-05-08T11:02:38Z</time>
      </trkpt>
      <trkpt lat="47.61434" lon="2.05379">
        <ele>120.4</ele>
        <time>2024-05-08T11:02:40Z</time>
      </trkpt>
      <trkpt lat="47.614" lon="2.05315">
        <ele>121</ele>
        <time>2024-05-08T11:02:48Z</time>
      </trkpt>
      <trkpt lat="47.61364" lon="2.05248">
        <ele>121</ele>
        <time>2024-05-08T11:02:57Z</time>
      </trkpt>
      <trkpt lat="47.61358" lon="2.05239">
        <ele>121</ele>
        <time>2024-05-08T11:02:58Z</time>
      </trkpt>
      <trkpt lat="47.61337" lon="2.05199">
        <ele>121</ele>
        <time>2024-05-08T11:03:04Z</time>
      </trkpt>
      <trkpt lat="47.613" lon="2.0513">
        <ele>120.4</ele>
        <time>2024-05-08T11:03:11Z</time>
      </trkpt>
      <trkpt lat="47.61295" lon="2.0512">
        <ele>120.2</ele>
        <time>2024-05-08T11:03:12Z</time>
      </trkpt>
      <trkpt lat="47.61288" lon="2.05108">
        <ele>119.6</ele>
        <time>2024-05-08T11:03:13Z</time>
      </trkpt>
      <trkpt lat="47.61256" lon="2.05049">
        <ele>118.6</ele>
        <time>2024-05-08T11:03:19Z</time>
      </trkpt>
      <trkpt lat="47.6125" lon="2.05038">
        <ele>117.8</ele>
        <time>2024-05-08T11:03:20Z</time>
      </trkpt>
      <trkpt lat="47.61244" lon="2.05027">
        <ele>117.6</ele>
        <time>2024-05-08T11:03:21Z</time>
      </trkpt>
      <trkpt lat="47.61226" lon="2.04993">
        <ele>116.4</ele>
        <time>2024-05-08T11:03:25Z</time>
      </trkpt>
      <trkpt lat="47.61202" lon="2.0495">
        <ele>115.6</ele>
        <time>2024-05-08T11:03:28Z</time>
      </trkpt>
      <trkpt lat="47.61191" lon="2.04928">
        <ele>115.2</ele>
        <time>2024-05-08T11:03:30Z</time>
      </trkpt>
      <trkpt lat="47.61155" lon="2.04863">
        <ele>114.2</ele>
        <time>2024-05-08T11:03:36Z</time>
      </trkpt>
      <trkpt lat="47.61137" lon="2.0483">
        <ele>113</ele>
        <time>2024-05-08T11:03:39Z</time>
      </trkpt>
      <trkpt lat="47.61108" lon="2.04775">
        <ele>112</ele>
        <time>2024-05-08T11:03:44Z</time>
      </trkpt>
      <trkpt lat="47.6109" lon="2.04742">
        <ele>110.4</ele>
        <time>2024-05-08T11:03:47Z</time>
      </trkpt>
      <trkpt lat="47.61084" lon="2.04731">
        <ele>110.2</ele>
        <time>2024-05-08T11:03:48Z</time>
      </trkpt>
      <trkpt lat="47.61067" lon="2.04699">
        <ele>109.2</ele>
        <time>2024-05-08T11:03:51Z</time>
      </trkpt>
      <trkpt lat="47.61044" lon="2.04657">
        <ele>108.4</ele>
        <time>2024-05-08T11:03:55Z</time>
      </trkpt>
      <trkpt lat="47.61038" lon="2.04647">
        <ele>107.8</ele>
        <time>2024-05-08T11:03:56Z</time>
      </trkpt>
      <trkpt lat="47.61033" lon="2.04636">
        <ele>107.8</ele>
        <time>2024-05-08T11:03:57Z</time>
      </trkpt>
      <trkpt lat="47.61016" lon="2.04606">
        <ele>106.8</ele>
        <time>2024-05-08T11:04:00Z</time>
      </trkpt>
      <trkpt lat="47.60995" lon="2.04567">
        <ele>106</ele>
        <time>2024-05-08T11:04:04Z</time>
      </trkpt>
      <trkpt lat="47.60985" lon="2.04547">
        <ele>106</ele>
        <time>2024-05-08T11:04:06Z</time>
      </trkpt>
      <trkpt lat="47.60959" lon="2.04499">
        <ele>105.8</ele>
        <time>2024-05-08T11:04:12Z</time>
      </trkpt>
      <trkpt lat="47.60923" lon="2.04431">
        <ele>105.2</ele>
        <time>2024-05-08T11:04:18Z</time>
      </trkpt>
      <trkpt lat="47.60912" lon="2.04411">
        <ele>104.8</ele>
        <time>2024-05-08T11:04:20Z</time>
      </trkpt>
      <trkpt lat="47.60875" lon="2.04343">
        <ele>104</ele>
        <time>2024-05-08T11:04:27Z</time>
      </trkpt>
      <trkpt lat="47.60871" lon="2.04336">
        <ele>103.8</ele>
        <time>2024-05-08T11:04:28Z</time>
      </trkpt>
      <trkpt lat="47.60865" lon="2.04324">
        <ele>103.8</ele>
        <time>2024-05-08T11:04:29Z</time>
      </trkpt>
      <trkpt lat="47.60827" lon="2.04256">
        <ele>103.2</ele>
        <time>2024-05-08T11:04:36Z</time>
      </trkpt>
      <trkpt lat="47.60805" lon="2.04216">
        <ele>102.4</ele>
        <time>2024-05-08T11:04:40Z</time>
      </trkpt>
      <trkpt lat="47.60783" lon="2.04177">
        <ele>101.6</ele>
        <time>2024-05-08T11:04:44Z</time>
      </trkpt>
      <trkpt lat="47.60778" lon="2.04167">
        <ele>101.4</ele>
        <time>2024-05-08T11:04:45Z</time>
      </trkpt>
      <trkpt lat="47.60746" lon="2.04107">
        <ele>100.8</ele>
        <time>2024-05-08T11:04:51Z</time>
      </trkpt>
      <trkpt lat="47.60715" lon="2.04052">
        <ele>100.4</ele>
        <time>2024-05-08T11:04:57Z</time>
      </trkpt>
      <trkpt lat="47.60704" lon="2.0403">
        <ele>100.2</ele>
        <time>2024-05-08T11:04:59Z</time>
      </trkpt>
      <trkpt lat="47.60699" lon="2.0402">
        <ele>100</ele>
        <time>2024-05-08T11:05:00Z</time>
      </trkpt>
      <trkpt lat="47.60669" lon="2.03965">
        <ele>99.2</ele>
        <time>2024-05-08T11:05:07Z</time>
      </trkpt>
      <trkpt lat="47.60659" lon="2.03947">
        <ele>99</ele>
        <time>2024-05-08T11:05:08Z</time>
      </trkpt>
      <trkpt lat="47.60625" lon="2.03885">
        <ele>98.4</ele>
        <time>2024-05-08T11:05:15Z</time>
      </trkpt>
      <trkpt lat="47.60588" lon="2.03816">
        <ele>98.2</ele>
        <time>2024-05-08T11:05:23Z</time>
      </trkpt>
      <trkpt lat="47.60583" lon="2.03808">
        <ele>98.2</ele>
        <time>2024-05-08T11:05:24Z</time>
      </trkpt>
      <trkpt lat="47.60575" lon="2.03792">
        <ele>98.2</ele>
        <time>2024-05-08T11:05:26Z</time>
      </trkpt>
      <trkpt lat="47.60565" lon="2.03772">
        <ele>98</ele>
        <time>2024-05-08T11:05:28Z</time>
      </trkpt>
      <trkpt lat="47.6056" lon="2.03764">
        <ele>98</ele>
        <time>2024-05-08T11:05:29Z</time>
      </trkpt>
      <trkpt lat="47.60525" lon="2.03697">
        <ele>97.6</ele>
        <time>2024-05-08T11:05:37Z</time>
      </trkpt>
      <trkpt lat="47.60514" lon="2.03679">
        <ele>97.6</ele>
        <time>2024-05-08T11:05:39Z</time>
      </trkpt>
      <trkpt lat="47.60482" lon="2.03611">
        <ele>97</ele>
        <time>2024-05-08T11:05:47Z</time>
      </trkpt>
      <trkpt lat="47.60478" lon="2.036">
        <ele>97</ele>
        <time>2024-05-08T11:05:48Z</time>
      </trkpt>
      <trkpt lat="47.60475" lon="2.03591">
        <ele>97</ele>
        <time>2024-05-08T11:05:49Z</time>
      </trkpt>
      <trkpt lat="47.60454" lon="2.03524">
        <ele>96.8</ele>
        <time>2024-05-08T11:05:56Z</time>
      </trkpt>
      <trkpt lat="47.60454" lon="2.03524">
        <ele>96.8</ele>
        <time>2024-05-08T11:05:57Z</time>
      </trkpt>
      <trkpt lat="47.60436" lon="2.03446">
        <ele>96.2</ele>
        <time>2024-05-08T11:06:04Z</time>
      </trkpt>
      <trkpt lat="47.6043" lon="2.03415">
        <ele>96</ele>
        <time>2024-05-08T11:06:07Z</time>
      </trkpt>
      <trkpt lat="47.60422" lon="2.03378">
        <ele>95.8</ele>
        <time>2024-05-08T11:06:11Z</time>
      </trkpt>
      <trkpt lat="47.60406" lon="2.03309">
        <ele>95.2</ele>
        <time>2024-05-08T11:06:18Z</time>
      </trkpt>
      <trkpt lat="47.60396" lon="2.0326">
        <ele>95</ele>
        <time>2024-05-08T11:06:23Z</time>
      </trkpt>
      <trkpt lat="47.6039" lon="2.03233">
        <ele>94.6</ele>
        <time>2024-05-08T11:06:26Z</time>
      </trkpt>
      <trkpt lat="47.60372" lon="2.03154">
        <ele>94.6</ele>
        <time>2024-05-08T11:06:34Z</time>
      </trkpt>
      <trkpt lat="47.60368" lon="2.03137">
        <ele>94.6</ele>
        <time>2024-05-08T11:06:36Z</time>
      </trkpt>
      <trkpt lat="47.60365" lon="2.03126">
        <ele>94.6</ele>
        <time>2024-05-08T11:06:37Z</time>
      </trkpt>
      <trkpt lat="47.6036" lon="2.031">
        <ele>94.6</ele>
        <time>2024-05-08T11:06:40Z</time>
      </trkpt>
      <trkpt lat="47.60358" lon="2.03089">
        <ele>94.6</ele>
        <time>2024-05-08T11:06:41Z</time>
      </trkpt>
      <trkpt lat="47.60348" lon="2.03043">
        <ele>94.6</ele>
        <time>2024-05-08T11:06:46Z</time>
      </trkpt>
      <trkpt lat="47.60342" lon="2.03015">
        <ele>94.6</ele>
        <time>2024-05-08T11:06:49Z</time>
      </trkpt>
      <trkpt lat="47.60326" lon="2.02942">
        <ele>94.8</ele>
        <time>2024-05-08T11:06:57Z</time>
      </trkpt>
      <trkpt lat="47.60311" lon="2.02876">
        <ele>94.8</ele>
        <time>2024-05-08T11:07:04Z</time>
      </trkpt>
      <trkpt lat="47.60302" lon="2.02812">
        <ele>94.6</ele>
        <time>2024-05-08T11:07:11Z</time>
      </trkpt>
      <trkpt lat="47.60301" lon="2.02793">
        <ele>95</ele>
        <time>2024-05-08T11:07:13Z</time>
      </trkpt>
      <trkpt lat="47.60302" lon="2.02764">
        <ele>95</ele>
        <time>2024-05-08T11:07:16Z</time>
      </trkpt>
      <trkpt lat="47.60304" lon="2.02745">
        <ele>94.8</ele>
        <time>2024-05-08T11:07:18Z</time>
      </trkpt>
      <trkpt lat="47.60306" lon="2.02736">
        <ele>94.6</ele>
        <time>2024-05-08T11:07:19Z</time>
      </trkpt>
      <trkpt lat="47.60308" lon="2.02726">
        <ele>94.6</ele>
        <time>2024-05-08T11:07:20Z</time>
      </trkpt>
      <trkpt lat="47.60316" lon="2.02658">
        <ele>94.4</ele>
        <time>2024-05-08T11:07:27Z</time>
      </trkpt>
      <trkpt lat="47.60326" lon="2.02588">
        <ele>94</ele>
        <time>2024-05-08T11:07:35Z</time>
      </trkpt>
      <trkpt lat="47.60328" lon="2.0257">
        <ele>93.8</ele>
        <time>2024-05-08T11:07:38Z</time>
      </trkpt>
      <trkpt lat="47.60328" lon="2.02566">
        <ele>94</ele>
        <time>2024-05-08T11:07:39Z</time>
      </trkpt>
      <trkpt lat="47.60328" lon="2.02561">
        <ele>93.8</ele>
        <time>2024-05-08T11:07:43Z</time>
      </trkpt>
      <trkpt lat="47.60328" lon="2.02557">
        <ele>93.6</ele>
        <time>2024-05-08T11:07:46Z</time>
      </trkpt>
      <trkpt lat="47.60323" lon="2.02553">
        <ele>93.6</ele>
        <time>2024-05-08T11:07:48Z</time>
      </trkpt>
      <trkpt lat="47.60306" lon="2.02549">
        <ele>93.4</ele>
        <time>2024-05-08T11:07:52Z</time>
      </trkpt>
      <trkpt lat="47.60289" lon="2.02547">
        <ele>93.4</ele>
        <time>2024-05-08T11:07:55Z</time>
      </trkpt>
      <trkpt lat="47.60277" lon="2.02545">
        <ele>93.4</ele>
        <time>2024-05-08T11:07:57Z</time>
      </trkpt>
      <trkpt lat="47.60265" lon="2.02542">
        <ele>93.2</ele>
        <time>2024-05-08T11:07:59Z</time>
      </trkpt>
      <trkpt lat="47.60249" lon="2.02537">
        <ele>93.2</ele>
        <time>2024-05-08T11:08:02Z</time>
      </trkpt>
      <trkpt lat="47.60228" lon="2.02529">
        <ele>93</ele>
        <time>2024-05-08T11:08:06Z</time>
      </trkpt>
      <trkpt lat="47.60224" lon="2.02527">
        <ele>93</ele>
        <time>2024-05-08T11:08:07Z</time>
      </trkpt>
      <trkpt lat="47.60198" lon="2.02514">
        <ele>92.4</ele>
        <time>2024-05-08T11:08:14Z</time>
      </trkpt>
      <trkpt lat="47.60189" lon="2.02509">
        <ele>92.6</ele>
        <time>2024-05-08T11:08:16Z</time>
      </trkpt>
      <trkpt lat="47.60161" lon="2.02492">
        <ele>92.2</ele>
        <time>2024-05-08T11:08:22Z</time>
      </trkpt>
      <trkpt lat="47.60121" lon="2.02469">
        <ele>92</ele>
        <time>2024-05-08T11:08:30Z</time>
      </trkpt>
      <trkpt lat="47.6011" lon="2.02462">
        <ele>92</ele>
        <time>2024-05-08T11:08:32Z</time>
      </trkpt>
      <trkpt lat="47.60081" lon="2.02445">
        <ele>91.8</ele>
        <time>2024-05-08T11:08:37Z</time>
      </trkpt>
      <trkpt lat="47.60069" lon="2.02438">
        <ele>91.8</ele>
        <time>2024-05-08T11:08:39Z</time>
      </trkpt>
      <trkpt lat="47.6003" lon="2.02414">
        <ele>91.6</ele>
        <time>2024-05-08T11:08:46Z</time>
      </trkpt>
      <trkpt lat="47.60001" lon="2.02395">
        <ele>91.4</ele>
        <time>2024-05-08T11:08:52Z</time>
      </trkpt>
      <trkpt lat="47.59962" lon="2.02369">
        <ele>91.2</ele>
        <time>2024-05-08T11:08:59Z</time>
      </trkpt>
      <trkpt lat="47.59914" lon="2.02337">
        <ele>91</ele>
        <time>2024-05-08T11:09:07Z</time>
      </trkpt>
      <trkpt lat="47.59908" lon="2.02334">
        <ele>91</ele>
        <time>2024-05-08T11:09:08Z</time>
      </trkpt>
      <trkpt lat="47.59858" lon="2.02303">
        <ele>91</ele>
        <time>2024-05-08T11:09:16Z</time>
      </trkpt>
      <trkpt lat="47.59851" lon="2.02299">
        <ele>91</ele>
        <time>2024-05-08T11:09:17Z</time>
      </trkpt>
      <trkpt lat="47.598" lon="2.02267">
        <ele>91</ele>
        <time>2024-05-08T11:09:25Z</time>
      </trkpt>
      <trkpt lat="47.59774" lon="2.0225">
        <ele>91.2</ele>
        <time>2024-05-08T11:09:29Z</time>
      </trkpt>
      <trkpt lat="47.59767" lon="2.02247">
        <ele>91.2</ele>
        <time>2024-05-08T11:09:30Z</time>
      </trkpt>
      <trkpt lat="47.59741" lon="2.02238">
        <ele>91.2</ele>
        <time>2024-05-08T11:09:34Z</time>
      </trkpt>
      <trkpt lat="47.59732" lon="2.02229">
        <ele>91.2</ele>
        <time>2024-05-08T11:09:36Z</time>
      </trkpt>
      <trkpt lat="47.5973" lon="2.02222">
        <ele>91.2</ele>
        <time>2024-05-08T11:09:37Z</time>
      </trkpt>
      <trkpt lat="47.59729" lon="2.02213">
        <ele>91.2</ele>
        <time>2024-05-08T11:09:38Z</time>
      </trkpt>
      <trkpt lat="47.5973" lon="2.02196">
        <ele>91</ele>
        <time>2024-05-08T11:09:40Z</time>
      </trkpt>
      <trkpt lat="47.59731" lon="2.02186">
        <ele>91</ele>
        <time>2024-05-08T11:09:41Z</time>
      </trkpt>
      <trkpt lat="47.59728" lon="2.02149">
        <ele>90.8</ele>
        <time>2024-05-08T11:09:45Z</time>
      </trkpt>
      <trkpt lat="47.59717" lon="2.02093">
        <ele>90.4</ele>
        <time>2024-05-08T11:09:51Z</time>
      </trkpt>
      <trkpt lat="47.59699" lon="2.02042">
        <ele>90.4</ele>
        <time>2024-05-08T11:09:57Z</time>
      </trkpt>
      <trkpt lat="47.59695" lon="2.02034">
        <ele>90.4</ele>
        <time>2024-05-08T11:09:58Z</time>
      </trkpt>
      <trkpt lat="47.5967" lon="2.0199">
        <ele>90.6</ele>
        <time>2024-05-08T11:10:04Z</time>
      </trkpt>
      <trkpt lat="47.59632" lon="2.01922">
        <ele>91.2</ele>
        <time>2024-05-08T11:10:13Z</time>
      </trkpt>
      <trkpt lat="47.59628" lon="2.01915">
        <ele>91.2</ele>
        <time>2024-05-08T11:10:14Z</time>
      </trkpt>
      <trkpt lat="47.5959" lon="2.01847">
        <ele>91.8</ele>
        <time>2024-05-08T11:10:23Z</time>
      </trkpt>
      <trkpt lat="47.59578" lon="2.01825">
        <ele>91.8</ele>
        <time>2024-05-08T11:10:26Z</time>
      </trkpt>
      <trkpt lat="47.59573" lon="2.01818">
        <ele>92</ele>
        <time>2024-05-08T11:10:27Z</time>
      </trkpt>
      <trkpt lat="47.59536" lon="2.01752">
        <ele>92.6</ele>
        <time>2024-05-08T11:10:36Z</time>
      </trkpt>
      <trkpt lat="47.59525" lon="2.01731">
        <ele>93</ele>
        <time>2024-05-08T11:10:39Z</time>
      </trkpt>
      <trkpt lat="47.59502" lon="2.01691">
        <ele>94.2</ele>
        <time>2024-05-08T11:10:45Z</time>
      </trkpt>
      <trkpt lat="47.5948" lon="2.01652">
        <ele>95</ele>
        <time>2024-05-08T11:10:51Z</time>
      </trkpt>
      <trkpt lat="47.59477" lon="2.01645">
        <ele>95.6</ele>
        <time>2024-05-08T11:10:52Z</time>
      </trkpt>
      <trkpt lat="47.59464" lon="2.01617">
        <ele>96.4</ele>
        <time>2024-05-08T11:10:56Z</time>
      </trkpt>
      <trkpt lat="47.59464" lon="2.01609">
        <ele>96.6</ele>
        <time>2024-05-08T11:10:57Z</time>
      </trkpt>
      <trkpt lat="47.59464" lon="2.01592">
        <ele>97</ele>
        <time>2024-05-08T11:10:59Z</time>
      </trkpt>
      <trkpt lat="47.59462" lon="2.01572">
        <ele>97.4</ele>
        <time>2024-05-08T11:11:01Z</time>
      </trkpt>
      <trkpt lat="47.5946" lon="2.01566">
        <ele>97.6</ele>
        <time>2024-05-08T11:11:02Z</time>
      </trkpt>
      <trkpt lat="47.59456" lon="2.01559">
        <ele>97.8</ele>
        <time>2024-05-08T11:11:03Z</time>
      </trkpt>
      <trkpt lat="47.59446" lon="2.01548">
        <ele>98</ele>
        <time>2024-05-08T11:11:05Z</time>
      </trkpt>
      <trkpt lat="47.59433" lon="2.01543">
        <ele>98</ele>
        <time>2024-05-08T11:11:07Z</time>
      </trkpt>
      <trkpt lat="47.59421" lon="2.01539">
        <ele>98</ele>
        <time>2024-05-08T11:11:09Z</time>
      </trkpt>
      <trkpt lat="47.5941" lon="2.01529">
        <ele>98.2</ele>
        <time>2024-05-08T11:11:11Z</time>
      </trkpt>
      <trkpt lat="47.59405" lon="2.01522">
        <ele>98.2</ele>
        <time>2024-05-08T11:11:12Z</time>
      </trkpt>
      <trkpt lat="47.59384" lon="2.01485">
        <ele>98.6</ele>
        <time>2024-05-08T11:11:17Z</time>
      </trkpt>
      <trkpt lat="47.59371" lon="2.01465">
        <ele>99</ele>
        <time>2024-05-08T11:11:20Z</time>
      </trkpt>
      <trkpt lat="47.59327" lon="2.01409">
        <ele>99.2</ele>
        <time>2024-05-08T11:11:29Z</time>
      </trkpt>
      <trkpt lat="47.59288" lon="2.01364">
        <ele>99</ele>
        <time>2024-05-08T11:11:37Z</time>
      </trkpt>
      <trkpt lat="47.59273" lon="2.01347">
        <ele>99.2</ele>
        <time>2024-05-08T11:11:40Z</time>
      </trkpt>
      <trkpt lat="47.59244" lon="2.01309">
        <ele>99.6</ele>
        <time>2024-05-08T11:11:46Z</time>
      </trkpt>
      <trkpt lat="47.59227" lon="2.01282">
        <ele>100</ele>
        <time>2024-05-08T11:11:50Z</time>
      </trkpt>
      <trkpt lat="47.59195" lon="2.01217">
        <ele>100.2</ele>
        <time>2024-05-08T11:11:58Z</time>
      </trkpt>
      <trkpt lat="47.59189" lon="2.01199">
        <ele>100</ele>
        <time>2024-05-08T11:12:00Z</time>
      </trkpt>
      <trkpt lat="47.59168" lon="2.01123">
        <ele>99.8</ele>
        <time>2024-05-08T11:12:08Z</time>
      </trkpt>
      <trkpt lat="47.59165" lon="2.01114">
        <ele>99.6</ele>
        <time>2024-05-08T11:12:09Z</time>
      </trkpt>
      <trkpt lat="47.59146" lon="2.01037">
        <ele>99.6</ele>
        <time>2024-05-08T11:12:17Z</time>
      </trkpt>
      <trkpt lat="47.59124" lon="2.00954">
        <ele>100.2</ele>
        <time>2024-05-08T11:12:26Z</time>
      </trkpt>
      <trkpt lat="47.59105" lon="2.00877">
        <ele>100.2</ele>
        <time>2024-05-08T11:12:34Z</time>
      </trkpt>
      <trkpt lat="47.59102" lon="2.00867">
        <ele>100.2</ele>
        <time>2024-05-08T11:12:35Z</time>
      </trkpt>
      <trkpt lat="47.59084" lon="2.0079">
        <ele>99.8</ele>
        <time>2024-05-08T11:12:43Z</time>
      </trkpt>
      <trkpt lat="47.59075" lon="2.00754">
        <ele>99.8</ele>
        <time>2024-05-08T11:12:47Z</time>
      </trkpt>
      <trkpt lat="47.59057" lon="2.00678">
        <ele>99.8</ele>
        <time>2024-05-08T11:12:55Z</time>
      </trkpt>
      <trkpt lat="47.59055" lon="2.00669">
        <ele>99.8</ele>
        <time>2024-05-08T11:12:56Z</time>
      </trkpt>
      <trkpt lat="47.59034" lon="2.00594">
        <ele>100</ele>
        <time>2024-05-08T11:13:04Z</time>
      </trkpt>
      <trkpt lat="47.59018" lon="2.00536">
        <ele>99.6</ele>
        <time>2024-05-08T11:13:10Z</time>
      </trkpt>
      <trkpt lat="47.58998" lon="2.00452">
        <ele>98.6</ele>
        <time>2024-05-08T11:13:18Z</time>
      </trkpt>
      <trkpt lat="47.58996" lon="2.00442">
        <ele>98.4</ele>
        <time>2024-05-08T11:13:19Z</time>
      </trkpt>
      <trkpt lat="47.58978" lon="2.00359">
        <ele>98</ele>
        <time>2024-05-08T11:13:27Z</time>
      </trkpt>
      <trkpt lat="47.58971" lon="2.00329">
        <ele>98</ele>
        <time>2024-05-08T11:13:30Z</time>
      </trkpt>
      <trkpt lat="47.58952" lon="2.0025">
        <ele>98</ele>
        <time>2024-05-08T11:13:38Z</time>
      </trkpt>
      <trkpt lat="47.58945" lon="2.00221">
        <ele>98</ele>
        <time>2024-05-08T11:13:41Z</time>
      </trkpt>
      <trkpt lat="47.58926" lon="2.00143">
        <ele>98</ele>
        <time>2024-05-08T11:13:49Z</time>
      </trkpt>
      <trkpt lat="47.58919" lon="2.00114">
        <ele>97.8</ele>
        <time>2024-05-08T11:13:52Z</time>
      </trkpt>
      <trkpt lat="47.58905" lon="2.00056">
        <ele>97.6</ele>
        <time>2024-05-08T11:13:58Z</time>
      </trkpt>
      <trkpt lat="47.58891" lon="1.99996">
        <ele>97.2</ele>
        <time>2024-05-08T11:14:04Z</time>
      </trkpt>
      <trkpt lat="47.58881" lon="1.99957">
        <ele>97.2</ele>
        <time>2024-05-08T11:14:08Z</time>
      </trkpt>
      <trkpt lat="47.58862" lon="1.99876">
        <ele>96.6</ele>
        <time>2024-05-08T11:14:16Z</time>
      </trkpt>
      <trkpt lat="47.58859" lon="1.99865">
        <ele>96.6</ele>
        <time>2024-05-08T11:14:17Z</time>
      </trkpt>
      <trkpt lat="47.58841" lon="1.99794">
        <ele>96.2</ele>
        <time>2024-05-08T11:14:24Z</time>
      </trkpt>
      <trkpt lat="47.5882" lon="1.9971">
        <ele>96</ele>
        <time>2024-05-08T11:14:32Z</time>
      </trkpt>
      <trkpt lat="47.58812" lon="1.99679">
        <ele>95.8</ele>
        <time>2024-05-08T11:14:35Z</time>
      </trkpt>
      <trkpt lat="47.5881" lon="1.9967">
        <ele>95.8</ele>
        <time>2024-05-08T11:14:36Z</time>
      </trkpt>
      <trkpt lat="47.58802" lon="1.99643">
        <ele>95.8</ele>
        <time>2024-05-08T11:14:39Z</time>
      </trkpt>
      <trkpt lat="47.58782" lon="1.99587">
        <ele>95.6</ele>
        <time>2024-05-08T11:14:45Z</time>
      </trkpt>
      <trkpt lat="47.5875" lon="1.99517">
        <ele>95.6</ele>
        <time>2024-05-08T11:14:53Z</time>
      </trkpt>
      <trkpt lat="47.58718" lon="1.99459">
        <ele>95.4</ele>
        <time>2024-05-08T11:15:00Z</time>
      </trkpt>
      <trkpt lat="47.587" lon="1.99425">
        <ele>95.2</ele>
        <time>2024-05-08T11:15:04Z</time>
      </trkpt>
      <trkpt lat="47.58688" lon="1.99401">
        <ele>95.2</ele>
        <time>2024-05-08T11:15:07Z</time>
      </trkpt>
      <trkpt lat="47.58654" lon="1.99337">
        <ele>94.8</ele>
        <time>2024-05-08T11:15:15Z</time>
      </trkpt>
      <trkpt lat="47.58645" lon="1.99323">
        <ele>94.8</ele>
        <time>2024-05-08T11:15:17Z</time>
      </trkpt>
      <trkpt lat="47.58624" lon="1.99286">
        <ele>94.4</ele>
        <time>2024-05-08T11:15:22Z</time>
      </trkpt>
      <trkpt lat="47.58596" lon="1.99232">
        <ele>93.8</ele>
        <time>2024-05-08T11:15:28Z</time>
      </trkpt>
      <trkpt lat="47.58586" lon="1.99213">
        <ele>93.6</ele>
        <time>2024-05-08T11:15:30Z</time>
      </trkpt>
      <trkpt lat="47.58578" lon="1.99198">
        <ele>93.2</ele>
        <time>2024-05-08T11:15:32Z</time>
      </trkpt>
      <trkpt lat="47.58573" lon="1.99187">
        <ele>93.2</ele>
        <time>2024-05-08T11:15:33Z</time>
      </trkpt>
      <trkpt lat="47.5856" lon="1.99162">
        <ele>92.8</ele>
        <time>2024-05-08T11:15:36Z</time>
      </trkpt>
      <trkpt lat="47.58533" lon="1.99109">
        <ele>92.4</ele>
        <time>2024-05-08T11:15:42Z</time>
      </trkpt>
      <trkpt lat="47.58499" lon="1.99041">
        <ele>92.2</ele>
        <time>2024-05-08T11:15:50Z</time>
      </trkpt>
      <trkpt lat="47.5849" lon="1.99022">
        <ele>92.4</ele>
        <time>2024-05-08T11:15:52Z</time>
      </trkpt>
      <trkpt lat="47.58453" lon="1.98951">
        <ele>92.4</ele>
        <time>2024-05-08T11:16:01Z</time>
      </trkpt>
      <trkpt lat="47.5844" lon="1.98927">
        <ele>92.4</ele>
        <time>2024-05-08T11:16:04Z</time>
      </trkpt>
      <trkpt lat="47.58406" lon="1.98862">
        <ele>92.4</ele>
        <time>2024-05-08T11:16:12Z</time>
      </trkpt>
      <trkpt lat="47.58393" lon="1.98837">
        <ele>92.4</ele>
        <time>2024-05-08T11:16:15Z</time>
      </trkpt>
      <trkpt lat="47.58355" lon="1.98765">
        <ele>92.8</ele>
        <time>2024-05-08T11:16:24Z</time>
      </trkpt>
      <trkpt lat="47.58343" lon="1.98743">
        <ele>93</ele>
        <time>2024-05-08T11:16:27Z</time>
      </trkpt>
      <trkpt lat="47.58306" lon="1.98672">
        <ele>93.2</ele>
        <time>2024-05-08T11:16:36Z</time>
      </trkpt>
      <trkpt lat="47.58298" lon="1.98656">
        <ele>93.4</ele>
        <time>2024-05-08T11:16:38Z</time>
      </trkpt>
      <trkpt lat="47.5827" lon="1.98605">
        <ele>93.8</ele>
        <time>2024-05-08T11:16:45Z</time>
      </trkpt>
      <trkpt lat="47.58261" lon="1.98588">
        <ele>93.8</ele>
        <time>2024-05-08T11:16:47Z</time>
      </trkpt>
      <trkpt lat="47.58225" lon="1.98519">
        <ele>94.2</ele>
        <time>2024-05-08T11:16:56Z</time>
      </trkpt>
      <trkpt lat="47.58205" lon="1.98483">
        <ele>94.4</ele>
        <time>2024-05-08T11:17:01Z</time>
      </trkpt>
      <trkpt lat="47.58197" lon="1.98467">
        <ele>94.4</ele>
        <time>2024-05-08T11:17:03Z</time>
      </trkpt>
      <trkpt lat="47.58161" lon="1.98398">
        <ele>94.8</ele>
        <time>2024-05-08T11:17:12Z</time>
      </trkpt>
      <trkpt lat="47.58152" lon="1.98381">
        <ele>95</ele>
        <time>2024-05-08T11:17:14Z</time>
      </trkpt>
      <trkpt lat="47.58114" lon="1.98312">
        <ele>95.8</ele>
        <time>2024-05-08T11:17:23Z</time>
      </trkpt>
      <trkpt lat="47.58111" lon="1.98306">
        <ele>95.8</ele>
        <time>2024-05-08T11:17:24Z</time>
      </trkpt>
      <trkpt lat="47.58077" lon="1.98245">
        <ele>96.6</ele>
        <time>2024-05-08T11:17:32Z</time>
      </trkpt>
      <trkpt lat="47.58066" lon="1.98225">
        <ele>97.2</ele>
        <time>2024-05-08T11:17:35Z</time>
      </trkpt>
      <trkpt lat="47.5805" lon="1.98195">
        <ele>97.4</ele>
        <time>2024-05-08T11:17:39Z</time>
      </trkpt>
      <trkpt lat="47.58014" lon="1.98128">
        <ele>98.2</ele>
        <time>2024-05-08T11:17:48Z</time>
      </trkpt>
      <trkpt lat="47.5798" lon="1.98061">
        <ele>98.6</ele>
        <time>2024-05-08T11:17:57Z</time>
      </trkpt>
      <trkpt lat="47.57964" lon="1.98032">
        <ele>99</ele>
        <time>2024-05-08T11:18:01Z</time>
      </trkpt>
      <trkpt lat="47.57933" lon="1.97972">
        <ele>99.2</ele>
        <time>2024-05-08T11:18:09Z</time>
      </trkpt>
      <trkpt lat="47.57927" lon="1.97959">
        <ele>99.4</ele>
        <time>2024-05-08T11:18:11Z</time>
      </trkpt>
      <trkpt lat="47.57898" lon="1.97905">
        <ele>99.6</ele>
        <time>2024-05-08T11:18:18Z</time>
      </trkpt>
      <trkpt lat="47.57862" lon="1.97835">
        <ele>99</ele>
        <time>2024-05-08T11:18:27Z</time>
      </trkpt>
      <trkpt lat="47.57854" lon="1.9782">
        <ele>98.8</ele>
        <time>2024-05-08T11:18:29Z</time>
      </trkpt>
      <trkpt lat="47.57819" lon="1.97755">
        <ele>98.2</ele>
        <time>2024-05-08T11:18:37Z</time>
      </trkpt>
      <trkpt lat="47.57811" lon="1.9774">
        <ele>98.2</ele>
        <time>2024-05-08T11:18:39Z</time>
      </trkpt>
      <trkpt lat="47.57802" lon="1.97722">
        <ele>98.2</ele>
        <time>2024-05-08T11:18:41Z</time>
      </trkpt>
      <trkpt lat="47.57778" lon="1.97686">
        <ele>98</ele>
        <time>2024-05-08T11:18:46Z</time>
      </trkpt>
      <trkpt lat="47.57767" lon="1.97678">
        <ele>98.2</ele>
        <time>2024-05-08T11:18:48Z</time>
      </trkpt>
      <trkpt lat="47.57759" lon="1.97676">
        <ele>98.2</ele>
        <time>2024-05-08T11:18:49Z</time>
      </trkpt>
      <trkpt lat="47.57741" lon="1.97674">
        <ele>98.6</ele>
        <time>2024-05-08T11:18:52Z</time>
      </trkpt>
      <trkpt lat="47.57728" lon="1.97669">
        <ele>98.8</ele>
        <time>2024-05-08T11:18:54Z</time>
      </trkpt>
      <trkpt lat="47.57711" lon="1.97659">
        <ele>99.2</ele>
        <time>2024-05-08T11:18:57Z</time>
      </trkpt>
      <trkpt lat="47.57704" lon="1.97656">
        <ele>99.4</ele>
        <time>2024-05-08T11:18:58Z</time>
      </trkpt>
      <trkpt lat="47.57694" lon="1.97651">
        <ele>100</ele>
        <time>2024-05-08T11:19:00Z</time>
      </trkpt>
      <trkpt lat="47.57682" lon="1.97644">
        <ele>100.4</ele>
        <time>2024-05-08T11:19:02Z</time>
      </trkpt>
      <trkpt lat="47.57667" lon="1.97635">
        <ele>101.4</ele>
        <time>2024-05-08T11:19:05Z</time>
      </trkpt>
      <trkpt lat="47.57662" lon="1.97632">
        <ele>101.6</ele>
        <time>2024-05-08T11:19:06Z</time>
      </trkpt>
      <trkpt lat="47.57631" lon="1.97614">
        <ele>102.8</ele>
        <time>2024-05-08T11:19:12Z</time>
      </trkpt>
      <trkpt lat="47.57616" lon="1.97606">
        <ele>103.4</ele>
        <time>2024-05-08T11:19:15Z</time>
      </trkpt>
      <trkpt lat="47.57601" lon="1.97597">
        <ele>104</ele>
        <time>2024-05-08T11:19:18Z</time>
      </trkpt>
      <trkpt lat="47.57577" lon="1.97583">
        <ele>104.4</ele>
        <time>2024-05-08T11:19:23Z</time>
      </trkpt>
      <trkpt lat="47.57549" lon="1.97568">
        <ele>105.2</ele>
        <time>2024-05-08T11:19:29Z</time>
      </trkpt>
      <trkpt lat="47.57535" lon="1.9756">
        <ele>105.4</ele>
        <time>2024-05-08T11:19:32Z</time>
      </trkpt>
      <trkpt lat="47.57507" lon="1.97544">
        <ele>106.2</ele>
        <time>2024-05-08T11:19:38Z</time>
      </trkpt>
      <trkpt lat="47.57497" lon="1.97539">
        <ele>106.4</ele>
        <time>2024-05-08T11:19:40Z</time>
      </trkpt>
      <trkpt lat="47.57464" lon="1.9752">
        <ele>107.2</ele>
        <time>2024-05-08T11:19:47Z</time>
      </trkpt>
      <trkpt lat="47.57459" lon="1.97518">
        <ele>107.2</ele>
        <time>2024-05-08T11:19:48Z</time>
      </trkpt>
      <trkpt lat="47.57454" lon="1.97515">
        <ele>107.4</ele>
        <time>2024-05-08T11:19:49Z</time>
      </trkpt>
      <trkpt lat="47.57403" lon="1.97485">
        <ele>108.2</ele>
        <time>2024-05-08T11:19:59Z</time>
      </trkpt>
      <trkpt lat="47.57392" lon="1.97479">
        <ele>108.4</ele>
        <time>2024-05-08T11:20:01Z</time>
      </trkpt>
      <trkpt lat="47.57354" lon="1.97458">
        <ele>108.8</ele>
        <time>2024-05-08T11:20:08Z</time>
      </trkpt>
      <trkpt lat="47.57303" lon="1.97429">
        <ele>109.4</ele>
        <time>2024-05-08T11:20:17Z</time>
      </trkpt>
      <trkpt lat="47.57253" lon="1.974">
        <ele>109</ele>
        <time>2024-05-08T11:20:25Z</time>
      </trkpt>
      <trkpt lat="47.57246" lon="1.97396">
        <ele>109</ele>
        <time>2024-05-08T11:20:26Z</time>
      </trkpt>
      <trkpt lat="47.57195" lon="1.97368">
        <ele>108.6</ele>
        <time>2024-05-08T11:20:33Z</time>
      </trkpt>
      <trkpt lat="47.57188" lon="1.97363">
        <ele>108.4</ele>
        <time>2024-05-08T11:20:34Z</time>
      </trkpt>
      <trkpt lat="47.57149" lon="1.97342">
        <ele>107.4</ele>
        <time>2024-05-08T11:20:40Z</time>
      </trkpt>
      <trkpt lat="47.57145" lon="1.97339">
        <ele>107.2</ele>
        <time>2024-05-08T11:20:41Z</time>
      </trkpt>
      <trkpt lat="47.57139" lon="1.97333">
        <ele>106.8</ele>
        <time>2024-05-08T11:20:43Z</time>
      </trkpt>
      <trkpt lat="47.57136" lon="1.9733">
        <ele>106</ele>
        <time>2024-05-08T11:20:45Z</time>
      </trkpt>
      <trkpt lat="47.57135" lon="1.97328">
        <ele>105.4</ele>
        <time>2024-05-08T11:20:47Z</time>
      </trkpt>
      <trkpt lat="47.57135" lon="1.97328">
        <ele>105.2</ele>
        <time>2024-05-08T11:20:48Z</time>
      </trkpt>
      <trkpt lat="47.5713" lon="1.97328">
        <ele>104.2</ele>
        <time>2024-05-08T11:22:47Z</time>
      </trkpt>
      <trkpt lat="47.57124" lon="1.97325">
        <ele>104.2</ele>
        <time>2024-05-08T11:22:49Z</time>
      </trkpt>
      <trkpt lat="47.571" lon="1.97313">
        <ele>104</ele>
        <time>2024-05-08T11:22:54Z</time>
      </trkpt>
      <trkpt lat="47.57072" lon="1.97296">
        <ele>103.6</ele>
        <time>2024-05-08T11:22:58Z</time>
      </trkpt>
      <trkpt lat="47.57031" lon="1.97274">
        <ele>102.8</ele>
        <time>2024-05-08T11:23:03Z</time>
      </trkpt>
      <trkpt lat="47.57021" lon="1.97267">
        <ele>102.6</ele>
        <time>2024-05-08T11:23:04Z</time>
      </trkpt>
      <trkpt lat="47.56986" lon="1.97249">
        <ele>101.8</ele>
        <time>2024-05-08T11:23:08Z</time>
      </trkpt>
      <trkpt lat="47.5695" lon="1.97228">
        <ele>101</ele>
        <time>2024-05-08T11:23:12Z</time>
      </trkpt>
      <trkpt lat="47.56939" lon="1.97221">
        <ele>100.6</ele>
        <time>2024-05-08T11:23:13Z</time>
      </trkpt>
      <trkpt lat="47.56884" lon="1.97191">
        <ele>99.6</ele>
        <time>2024-05-08T11:23:19Z</time>
      </trkpt>
      <trkpt lat="47.56856" lon="1.97175">
        <ele>99</ele>
        <time>2024-05-08T11:23:22Z</time>
      </trkpt>
      <trkpt lat="47.56822" lon="1.97156">
        <ele>98.4</ele>
        <time>2024-05-08T11:23:26Z</time>
      </trkpt>
      <trkpt lat="47.56786" lon="1.97136">
        <ele>97.6</ele>
        <time>2024-05-08T11:23:30Z</time>
      </trkpt>
      <trkpt lat="47.56758" lon="1.9712">
        <ele>97.2</ele>
        <time>2024-05-08T11:23:33Z</time>
      </trkpt>
      <trkpt lat="47.56705" lon="1.97092">
        <ele>96.4</ele>
        <time>2024-05-08T11:23:39Z</time>
      </trkpt>
      <trkpt lat="47.56696" lon="1.97087">
        <ele>96.4</ele>
        <time>2024-05-08T11:23:40Z</time>
      </trkpt>
      <trkpt lat="47.56687" lon="1.97082">
        <ele>96.2</ele>
        <time>2024-05-08T11:23:41Z</time>
      </trkpt>
      <trkpt lat="47.56633" lon="1.97052">
        <ele>95.6</ele>
        <time>2024-05-08T11:23:47Z</time>
      </trkpt>
      <trkpt lat="47.56607" lon="1.97036">
        <ele>95.4</ele>
        <time>2024-05-08T11:23:50Z</time>
      </trkpt>
      <trkpt lat="47.56588" lon="1.97026">
        <ele>95.2</ele>
        <time>2024-05-08T11:23:52Z</time>
      </trkpt>
      <trkpt lat="47.56529" lon="1.96993">
        <ele>94.6</ele>
        <time>2024-05-08T11:23:59Z</time>
      </trkpt>
      <trkpt lat="47.56506" lon="1.96981">
        <ele>94</ele>
        <time>2024-05-08T11:24:02Z</time>
      </trkpt>
      <trkpt lat="47.56465" lon="1.96957">
        <ele>94</ele>
        <time>2024-05-08T11:24:07Z</time>
      </trkpt>
      <trkpt lat="47.56408" lon="1.96925">
        <ele>94</ele>
        <time>2024-05-08T11:24:14Z</time>
      </trkpt>
      <trkpt lat="47.56386" lon="1.96912">
        <ele>94</ele>
        <time>2024-05-08T11:24:17Z</time>
      </trkpt>
      <trkpt lat="47.56333" lon="1.96881">
        <ele>94.2</ele>
        <time>2024-05-08T11:24:24Z</time>
      </trkpt>
      <trkpt lat="47.56327" lon="1.96878">
        <ele>94.2</ele>
        <time>2024-05-08T11:24:25Z</time>
      </trkpt>
      <trkpt lat="47.56275" lon="1.96848">
        <ele>94.4</ele>
        <time>2024-05-08T11:24:32Z</time>
      </trkpt>
      <trkpt lat="47.56262" lon="1.96841">
        <ele>94.4</ele>
        <time>2024-05-08T11:24:34Z</time>
      </trkpt>
      <trkpt lat="47.56209" lon="1.96812">
        <ele>94.4</ele>
        <time>2024-05-08T11:24:41Z</time>
      </trkpt>
      <trkpt lat="47.56159" lon="1.96784">
        <ele>94</ele>
        <time>2024-05-08T11:24:48Z</time>
      </trkpt>
      <trkpt lat="47.56103" lon="1.96752">
        <ele>93.2</ele>
        <time>2024-05-08T11:24:55Z</time>
      </trkpt>
      <trkpt lat="47.56095" lon="1.96748">
        <ele>93</ele>
        <time>2024-05-08T11:24:56Z</time>
      </trkpt>
      <trkpt lat="47.56073" lon="1.96734">
        <ele>92.6</ele>
        <time>2024-05-08T11:24:59Z</time>
      </trkpt>
      <trkpt lat="47.5602" lon="1.96705">
        <ele>92.2</ele>
        <time>2024-05-08T11:25:06Z</time>
      </trkpt>
      <trkpt lat="47.56013" lon="1.967">
        <ele>92.2</ele>
        <time>2024-05-08T11:25:07Z</time>
      </trkpt>
      <trkpt lat="47.5596" lon="1.9667">
        <ele>92.2</ele>
        <time>2024-05-08T11:25:14Z</time>
      </trkpt>
      <trkpt lat="47.55954" lon="1.96667">
        <ele>92.2</ele>
        <time>2024-05-08T11:25:15Z</time>
      </trkpt>
      <trkpt lat="47.55903" lon="1.96638">
        <ele>92</ele>
        <time>2024-05-08T11:25:22Z</time>
      </trkpt>
      <trkpt lat="47.55881" lon="1.96626">
        <ele>91.8</ele>
        <time>2024-05-08T11:25:25Z</time>
      </trkpt>
      <trkpt lat="47.55859" lon="1.96614">
        <ele>91.6</ele>
        <time>2024-05-08T11:25:28Z</time>
      </trkpt>
      <trkpt lat="47.55845" lon="1.96606">
        <ele>91.6</ele>
        <time>2024-05-08T11:25:30Z</time>
      </trkpt>
      <trkpt lat="47.5579" lon="1.96576">
        <ele>91</ele>
        <time>2024-05-08T11:25:37Z</time>
      </trkpt>
      <trkpt lat="47.55784" lon="1.96573">
        <ele>90.8</ele>
        <time>2024-05-08T11:25:38Z</time>
      </trkpt>
      <trkpt lat="47.55729" lon="1.96545">
        <ele>90.4</ele>
        <time>2024-05-08T11:25:45Z</time>
      </trkpt>
      <trkpt lat="47.557" lon="1.96532">
        <ele>90.4</ele>
        <time>2024-05-08T11:25:49Z</time>
      </trkpt>
      <trkpt lat="47.55646" lon="1.96512">
        <ele>90.6</ele>
        <time>2024-05-08T11:25:56Z</time>
      </trkpt>
      <trkpt lat="47.55593" lon="1.96493">
        <ele>90.4</ele>
        <time>2024-05-08T11:26:03Z</time>
      </trkpt>
      <trkpt lat="47.55569" lon="1.96484">
        <ele>90</ele>
        <time>2024-05-08T11:26:06Z</time>
      </trkpt>
      <trkpt lat="47.55514" lon="1.96464">
        <ele>89.4</ele>
        <time>2024-05-08T11:26:13Z</time>
      </trkpt>
      <trkpt lat="47.55473" lon="1.9645">
        <ele>88.8</ele>
        <time>2024-05-08T11:26:18Z</time>
      </trkpt>
      <trkpt lat="47.55439" lon="1.96437">
        <ele>88.4</ele>
        <time>2024-05-08T11:26:22Z</time>
      </trkpt>
      <trkpt lat="47.55399" lon="1.96423">
        <ele>88</ele>
        <time>2024-05-08T11:26:27Z</time>
      </trkpt>
      <trkpt lat="47.55352" lon="1.96406">
        <ele>87.8</ele>
        <time>2024-05-08T11:26:33Z</time>
      </trkpt>
      <trkpt lat="47.55319" lon="1.96395">
        <ele>87.4</ele>
        <time>2024-05-08T11:26:37Z</time>
      </trkpt>
      <trkpt lat="47.55264" lon="1.96373">
        <ele>86.8</ele>
        <time>2024-05-08T11:26:44Z</time>
      </trkpt>
      <trkpt lat="47.55246" lon="1.96367">
        <ele>86.8</ele>
        <time>2024-05-08T11:26:46Z</time>
      </trkpt>
      <trkpt lat="47.55192" lon="1.96347">
        <ele>86.6</ele>
        <time>2024-05-08T11:26:53Z</time>
      </trkpt>
      <trkpt lat="47.55183" lon="1.96344">
        <ele>86.8</ele>
        <time>2024-05-08T11:26:54Z</time>
      </trkpt>
      <trkpt lat="47.55132" lon="1.96325">
        <ele>86.2</ele>
        <time>2024-05-08T11:27:01Z</time>
      </trkpt>
      <trkpt lat="47.55086" lon="1.9631">
        <ele>85.8</ele>
        <time>2024-05-08T11:27:07Z</time>
      </trkpt>
      <trkpt lat="47.55061" lon="1.96305">
        <ele>85.4</ele>
        <time>2024-05-08T11:27:10Z</time>
      </trkpt>
      <trkpt lat="47.55011" lon="1.96306">
        <ele>85</ele>
        <time>2024-05-08T11:27:16Z</time>
      </trkpt>
      <trkpt lat="47.5496" lon="1.96317">
        <ele>84.6</ele>
        <time>2024-05-08T11:27:22Z</time>
      </trkpt>
      <trkpt lat="47.54943" lon="1.96321">
        <ele>84.4</ele>
        <time>2024-05-08T11:27:24Z</time>
      </trkpt>
      <trkpt lat="47.54902" lon="1.9633">
        <ele>83.4</ele>
        <time>2024-05-08T11:27:29Z</time>
      </trkpt>
      <trkpt lat="47.54871" lon="1.96336">
        <ele>83</ele>
        <time>2024-05-08T11:27:33Z</time>
      </trkpt>
      <trkpt lat="47.54818" lon="1.96347">
        <ele>82.8</ele>
        <time>2024-05-08T11:27:40Z</time>
      </trkpt>
      <trkpt lat="47.54764" lon="1.96358">
        <ele>82.8</ele>
        <time>2024-05-08T11:27:47Z</time>
      </trkpt>
      <trkpt lat="47.54756" lon="1.9636">
        <ele>83</ele>
        <time>2024-05-08T11:27:48Z</time>
      </trkpt>
      <trkpt lat="47.5471" lon="1.9637">
        <ele>83</ele>
        <time>2024-05-08T11:27:54Z</time>
      </trkpt>
      <trkpt lat="47.54666" lon="1.96381">
        <ele>83.6</ele>
        <time>2024-05-08T11:28:00Z</time>
      </trkpt>
      <trkpt lat="47.5466" lon="1.96382">
        <ele>83.6</ele>
        <time>2024-05-08T11:28:01Z</time>
      </trkpt>
      <trkpt lat="47.54637" lon="1.96385">
        <ele>84.2</ele>
        <time>2024-05-08T11:28:04Z</time>
      </trkpt>
      <trkpt lat="47.54624" lon="1.96387">
        <ele>84.4</ele>
        <time>2024-05-08T11:28:06Z</time>
      </trkpt>
      <trkpt lat="47.54616" lon="1.96389">
        <ele>84.8</ele>
        <time>2024-05-08T11:28:07Z</time>
      </trkpt>
      <trkpt lat="47.54582" lon="1.96394">
        <ele>85.2</ele>
        <time>2024-05-08T11:28:12Z</time>
      </trkpt>
      <trkpt lat="47.54575" lon="1.96395">
        <ele>85.4</ele>
        <time>2024-05-08T11:28:13Z</time>
      </trkpt>
      <trkpt lat="47.54562" lon="1.96395">
        <ele>85.6</ele>
        <time>2024-05-08T11:28:15Z</time>
      </trkpt>
      <trkpt lat="47.54528" lon="1.9639">
        <ele>86.2</ele>
        <time>2024-05-08T11:28:20Z</time>
      </trkpt>
      <trkpt lat="47.5448" lon="1.96367">
        <ele>86.4</ele>
        <time>2024-05-08T11:28:27Z</time>
      </trkpt>
      <trkpt lat="47.54438" lon="1.96334">
        <ele>86.6</ele>
        <time>2024-05-08T11:28:34Z</time>
      </trkpt>
      <trkpt lat="47.54431" lon="1.96328">
        <ele>86.8</ele>
        <time>2024-05-08T11:28:35Z</time>
      </trkpt>
      <trkpt lat="47.54381" lon="1.9629">
        <ele>87</ele>
        <time>2024-05-08T11:28:43Z</time>
      </trkpt>
      <trkpt lat="47.54328" lon="1.96247">
        <ele>86.8</ele>
        <time>2024-05-08T11:28:51Z</time>
      </trkpt>
      <trkpt lat="47.54323" lon="1.96242">
        <ele>86.8</ele>
        <time>2024-05-08T11:28:52Z</time>
      </trkpt>
      <trkpt lat="47.54273" lon="1.96202">
        <ele>87.2</ele>
        <time>2024-05-08T11:29:00Z</time>
      </trkpt>
      <trkpt lat="47.54262" lon="1.96193">
        <ele>87.4</ele>
        <time>2024-05-08T11:29:02Z</time>
      </trkpt>
      <trkpt lat="47.54245" lon="1.96179">
        <ele>88.2</ele>
        <time>2024-05-08T11:29:05Z</time>
      </trkpt>
      <trkpt lat="47.54217" lon="1.96157">
        <ele>88.6</ele>
        <time>2024-05-08T11:29:10Z</time>
      </trkpt>
      <trkpt lat="47.54173" lon="1.9612">
        <ele>89.2</ele>
        <time>2024-05-08T11:29:18Z</time>
      </trkpt>
      <trkpt lat="47.54136" lon="1.96091">
        <ele>90.2</ele>
        <time>2024-05-08T11:29:25Z</time>
      </trkpt>
      <trkpt lat="47.54129" lon="1.96086">
        <ele>90.2</ele>
        <time>2024-05-08T11:29:26Z</time>
      </trkpt>
      <trkpt lat="47.54118" lon="1.96077">
        <ele>90.2</ele>
        <time>2024-05-08T11:29:28Z</time>
      </trkpt>
      <trkpt lat="47.54103" lon="1.96063">
        <ele>90.4</ele>
        <time>2024-05-08T11:29:31Z</time>
      </trkpt>
      <trkpt lat="47.54058" lon="1.96025">
        <ele>91</ele>
        <time>2024-05-08T11:29:39Z</time>
      </trkpt>
      <trkpt lat="47.5404" lon="1.9601">
        <ele>91.4</ele>
        <time>2024-05-08T11:29:42Z</time>
      </trkpt>
      <trkpt lat="47.54019" lon="1.95995">
        <ele>91.8</ele>
        <time>2024-05-08T11:29:46Z</time>
      </trkpt>
      <trkpt lat="47.53984" lon="1.95974">
        <ele>92.2</ele>
        <time>2024-05-08T11:29:52Z</time>
      </trkpt>
      <trkpt lat="47.53964" lon="1.95962">
        <ele>92.6</ele>
        <time>2024-05-08T11:29:55Z</time>
      </trkpt>
      <trkpt lat="47.53933" lon="1.95944">
        <ele>93</ele>
        <time>2024-05-08T11:30:00Z</time>
      </trkpt>
      <trkpt lat="47.53894" lon="1.95922">
        <ele>93.4</ele>
        <time>2024-05-08T11:30:06Z</time>
      </trkpt>
      <trkpt lat="47.53838" lon="1.95891">
        <ele>93.4</ele>
        <time>2024-05-08T11:30:15Z</time>
      </trkpt>
      <trkpt lat="47.53782" lon="1.95861">
        <ele>93.4</ele>
        <time>2024-05-08T11:30:24Z</time>
      </trkpt>
      <trkpt lat="47.53778" lon="1.95857">
        <ele>93.6</ele>
        <time>2024-05-08T11:30:25Z</time>
      </trkpt>
      <trkpt lat="47.53772" lon="1.95854">
        <ele>93.6</ele>
        <time>2024-05-08T11:30:26Z</time>
      </trkpt>
      <trkpt lat="47.53736" lon="1.95833">
        <ele>94.6</ele>
        <time>2024-05-08T11:30:32Z</time>
      </trkpt>
      <trkpt lat="47.53719" lon="1.95824">
        <ele>95</ele>
        <time>2024-05-08T11:30:35Z</time>
      </trkpt>
      <trkpt lat="47.53668" lon="1.95794">
        <ele>95.4</ele>
        <time>2024-05-08T11:30:44Z</time>
      </trkpt>
      <trkpt lat="47.53637" lon="1.95778">
        <ele>95.8</ele>
        <time>2024-05-08T11:30:49Z</time>
      </trkpt>
      <trkpt lat="47.53619" lon="1.95767">
        <ele>96</ele>
        <time>2024-05-08T11:30:52Z</time>
      </trkpt>
      <trkpt lat="47.53578" lon="1.95743">
        <ele>96.8</ele>
        <time>2024-05-08T11:30:59Z</time>
      </trkpt>
      <trkpt lat="47.53564" lon="1.95735">
        <ele>97</ele>
        <time>2024-05-08T11:31:01Z</time>
      </trkpt>
      <trkpt lat="47.53521" lon="1.95709">
        <ele>97</ele>
        <time>2024-05-08T11:31:08Z</time>
      </trkpt>
      <trkpt lat="47.53467" lon="1.95678">
        <ele>96.4</ele>
        <time>2024-05-08T11:31:16Z</time>
      </trkpt>
      <trkpt lat="47.53416" lon="1.95648">
        <ele>96</ele>
        <time>2024-05-08T11:31:23Z</time>
      </trkpt>
      <trkpt lat="47.53402" lon="1.9564">
        <ele>95.6</ele>
        <time>2024-05-08T11:31:25Z</time>
      </trkpt>
      <trkpt lat="47.53361" lon="1.95616">
        <ele>94.8</ele>
        <time>2024-05-08T11:31:30Z</time>
      </trkpt>
      <trkpt lat="47.53335" lon="1.956">
        <ele>93.8</ele>
        <time>2024-05-08T11:31:33Z</time>
      </trkpt>
      <trkpt lat="47.53328" lon="1.95596">
        <ele>93.6</ele>
        <time>2024-05-08T11:31:34Z</time>
      </trkpt>
      <trkpt lat="47.533" lon="1.95579">
        <ele>92.8</ele>
        <time>2024-05-08T11:31:37Z</time>
      </trkpt>
      <trkpt lat="47.53255" lon="1.95554">
        <ele>91.6</ele>
        <time>2024-05-08T11:31:42Z</time>
      </trkpt>
      <trkpt lat="47.53248" lon="1.9555">
        <ele>91.4</ele>
        <time>2024-05-08T11:31:43Z</time>
      </trkpt>
      <trkpt lat="47.53219" lon="1.95532">
        <ele>90.6</ele>
        <time>2024-05-08T11:31:46Z</time>
      </trkpt>
      <trkpt lat="47.53175" lon="1.95506">
        <ele>89.4</ele>
        <time>2024-05-08T11:31:51Z</time>
      </trkpt>
      <trkpt lat="47.5316" lon="1.95496">
        <ele>89.2</ele>
        <time>2024-05-08T11:31:53Z</time>
      </trkpt>
      <trkpt lat="47.53101" lon="1.95461">
        <ele>88.6</ele>
        <time>2024-05-08T11:32:00Z</time>
      </trkpt>
      <trkpt lat="47.53093" lon="1.95456">
        <ele>88.6</ele>
        <time>2024-05-08T11:32:01Z</time>
      </trkpt>
      <trkpt lat="47.53077" lon="1.95447">
        <ele>88.2</ele>
        <time>2024-05-08T11:32:03Z</time>
      </trkpt>
      <trkpt lat="47.53038" lon="1.95425">
        <ele>87.8</ele>
        <time>2024-05-08T11:32:08Z</time>
      </trkpt>
      <trkpt lat="47.52988" lon="1.95396">
        <ele>87.6</ele>
        <time>2024-05-08T11:32:15Z</time>
      </trkpt>
      <trkpt lat="47.52967" lon="1.95384">
        <ele>87.6</ele>
        <time>2024-05-08T11:32:18Z</time>
      </trkpt>
      <trkpt lat="47.52954" lon="1.95376">
        <ele>87.2</ele>
        <time>2024-05-08T11:32:20Z</time>
      </trkpt>
      <trkpt lat="47.52935" lon="1.95367">
        <ele>87.2</ele>
        <time>2024-05-08T11:32:23Z</time>
      </trkpt>
      <trkpt lat="47.52929" lon="1.95365">
        <ele>87.2</ele>
        <time>2024-05-08T11:32:24Z</time>
      </trkpt>
      <trkpt lat="47.52926" lon="1.95362">
        <ele>87.2</ele>
        <time>2024-05-08T11:32:25Z</time>
      </trkpt>
      <trkpt lat="47.5292" lon="1.95352">
        <ele>87</ele>
        <time>2024-05-08T11:32:27Z</time>
      </trkpt>
      <trkpt lat="47.52914" lon="1.95304">
        <ele>86.6</ele>
        <time>2024-05-08T11:32:33Z</time>
      </trkpt>
      <trkpt lat="47.5291" lon="1.95274">
        <ele>86.4</ele>
        <time>2024-05-08T11:32:36Z</time>
      </trkpt>
      <trkpt lat="47.52907" lon="1.95253">
        <ele>86.4</ele>
        <time>2024-05-08T11:32:38Z</time>
      </trkpt>
      <trkpt lat="47.52896" lon="1.95188">
        <ele>86.6</ele>
        <time>2024-05-08T11:32:44Z</time>
      </trkpt>
      <trkpt lat="47.52883" lon="1.95102">
        <ele>86.6</ele>
        <time>2024-05-08T11:32:52Z</time>
      </trkpt>
      <trkpt lat="47.5288" lon="1.95081">
        <ele>86.4</ele>
        <time>2024-05-08T11:32:54Z</time>
      </trkpt>
      <trkpt lat="47.52867" lon="1.95004">
        <ele>85.8</ele>
        <time>2024-05-08T11:33:01Z</time>
      </trkpt>
      <trkpt lat="47.52861" lon="1.9497">
        <ele>85.4</ele>
        <time>2024-05-08T11:33:04Z</time>
      </trkpt>
      <trkpt lat="47.52854" lon="1.94925">
        <ele>85.2</ele>
        <time>2024-05-08T11:33:08Z</time>
      </trkpt>
      <trkpt lat="47.52841" lon="1.9484">
        <ele>85</ele>
        <time>2024-05-08T11:33:16Z</time>
      </trkpt>
      <trkpt lat="47.52837" lon="1.94819">
        <ele>85</ele>
        <time>2024-05-08T11:33:18Z</time>
      </trkpt>
      <trkpt lat="47.52823" lon="1.94734">
        <ele>84.6</ele>
        <time>2024-05-08T11:33:26Z</time>
      </trkpt>
      <trkpt lat="47.52818" lon="1.947">
        <ele>84.4</ele>
        <time>2024-05-08T11:33:29Z</time>
      </trkpt>
      <trkpt lat="47.52809" lon="1.94649">
        <ele>84.2</ele>
        <time>2024-05-08T11:33:34Z</time>
      </trkpt>
      <trkpt lat="47.52796" lon="1.94565">
        <ele>84</ele>
        <time>2024-05-08T11:33:42Z</time>
      </trkpt>
      <trkpt lat="47.52789" lon="1.94524">
        <ele>83.8</ele>
        <time>2024-05-08T11:33:46Z</time>
      </trkpt>
      <trkpt lat="47.52776" lon="1.94438">
        <ele>83.6</ele>
        <time>2024-05-08T11:33:54Z</time>
      </trkpt>
      <trkpt lat="47.52774" lon="1.94428">
        <ele>83.6</ele>
        <time>2024-05-08T11:33:55Z</time>
      </trkpt>
      <trkpt lat="47.5276" lon="1.94343">
        <ele>84.2</ele>
        <time>2024-05-08T11:34:03Z</time>
      </trkpt>
      <trkpt lat="47.52758" lon="1.94333">
        <ele>84.4</ele>
        <time>2024-05-08T11:34:04Z</time>
      </trkpt>
      <trkpt lat="47.52746" lon="1.94252">
        <ele>84.8</ele>
        <time>2024-05-08T11:34:12Z</time>
      </trkpt>
      <trkpt lat="47.52742" lon="1.94222">
        <ele>85</ele>
        <time>2024-05-08T11:34:15Z</time>
      </trkpt>
      <trkpt lat="47.52729" lon="1.94152">
        <ele>85</ele>
        <time>2024-05-08T11:34:22Z</time>
      </trkpt>
      <trkpt lat="47.52715" lon="1.94073">
        <ele>85</ele>
        <time>2024-05-08T11:34:30Z</time>
      </trkpt>
      <trkpt lat="47.52711" lon="1.94053">
        <ele>85</ele>
        <time>2024-05-08T11:34:32Z</time>
      </trkpt>
      <trkpt lat="47.52708" lon="1.94034">
        <ele>85.2</ele>
        <time>2024-05-08T11:34:34Z</time>
      </trkpt>
      <trkpt lat="47.52698" lon="1.93977">
        <ele>85.4</ele>
        <time>2024-05-08T11:34:40Z</time>
      </trkpt>
      <trkpt lat="47.5269" lon="1.93928">
        <ele>85.6</ele>
        <time>2024-05-08T11:34:45Z</time>
      </trkpt>
      <trkpt lat="47.52685" lon="1.93888">
        <ele>85.8</ele>
        <time>2024-05-08T11:34:49Z</time>
      </trkpt>
      <trkpt lat="47.52672" lon="1.93805">
        <ele>85.8</ele>
        <time>2024-05-08T11:34:57Z</time>
      </trkpt>
      <trkpt lat="47.52671" lon="1.93797">
        <ele>85.8</ele>
        <time>2024-05-08T11:34:58Z</time>
      </trkpt>
      <trkpt lat="47.52659" lon="1.93715">
        <ele>85.6</ele>
        <time>2024-05-08T11:35:06Z</time>
      </trkpt>
      <trkpt lat="47.52653" lon="1.93688">
        <ele>85.6</ele>
        <time>2024-05-08T11:35:09Z</time>
      </trkpt>
      <trkpt lat="47.52633" lon="1.93622">
        <ele>85.6</ele>
        <time>2024-05-08T11:35:16Z</time>
      </trkpt>
      <trkpt lat="47.52603" lon="1.93555">
        <ele>85.6</ele>
        <time>2024-05-08T11:35:24Z</time>
      </trkpt>
      <trkpt lat="47.52575" lon="1.93486">
        <ele>86.4</ele>
        <time>2024-05-08T11:35:32Z</time>
      </trkpt>
      <trkpt lat="47.52572" lon="1.93478">
        <ele>86.6</ele>
        <time>2024-05-08T11:35:33Z</time>
      </trkpt>
      <trkpt lat="47.52568" lon="1.93469">
        <ele>86.6</ele>
        <time>2024-05-08T11:35:34Z</time>
      </trkpt>
      <trkpt lat="47.52547" lon="1.93421">
        <ele>87.2</ele>
        <time>2024-05-08T11:35:40Z</time>
      </trkpt>
      <trkpt lat="47.52541" lon="1.93407">
        <ele>87.6</ele>
        <time>2024-05-08T11:35:42Z</time>
      </trkpt>
      <trkpt lat="47.52537" lon="1.93399">
        <ele>87.8</ele>
        <time>2024-05-08T11:35:43Z</time>
      </trkpt>
      <trkpt lat="47.52535" lon="1.93394">
        <ele>88</ele>
        <time>2024-05-08T11:35:44Z</time>
      </trkpt>
      <trkpt lat="47.52523" lon="1.93377">
        <ele>88.2</ele>
        <time>2024-05-08T11:35:47Z</time>
      </trkpt>
      <trkpt lat="47.52517" lon="1.93366">
        <ele>88.2</ele>
        <time>2024-05-08T11:35:49Z</time>
      </trkpt>
      <trkpt lat="47.52512" lon="1.93354">
        <ele>88.4</ele>
        <time>2024-05-08T11:35:52Z</time>
      </trkpt>
      <trkpt lat="47.52505" lon="1.93352">
        <ele>88.4</ele>
        <time>2024-05-08T11:35:54Z</time>
      </trkpt>
      <trkpt lat="47.525" lon="1.93352">
        <ele>88.4</ele>
        <time>2024-05-08T11:35:55Z</time>
      </trkpt>
      <trkpt lat="47.52488" lon="1.93354">
        <ele>88.4</ele>
        <time>2024-05-08T11:35:57Z</time>
      </trkpt>
      <trkpt lat="47.52477" lon="1.93353">
        <ele>88.4</ele>
        <time>2024-05-08T11:35:59Z</time>
      </trkpt>
      <trkpt lat="47.52471" lon="1.93353">
        <ele>88.4</ele>
        <time>2024-05-08T11:36:00Z</time>
      </trkpt>
      <trkpt lat="47.52433" lon="1.93357">
        <ele>88.6</ele>
        <time>2024-05-08T11:36:06Z</time>
      </trkpt>
      <trkpt lat="47.52419" lon="1.93358">
        <ele>88.6</ele>
        <time>2024-05-08T11:36:09Z</time>
      </trkpt>
      <trkpt lat="47.52414" lon="1.9336">
        <ele>88.6</ele>
        <time>2024-05-08T11:36:10Z</time>
      </trkpt>
      <trkpt lat="47.5241" lon="1.93361">
        <ele>88.6</ele>
        <time>2024-05-08T11:36:11Z</time>
      </trkpt>
      <trkpt lat="47.52392" lon="1.93362">
        <ele>88.6</ele>
        <time>2024-05-08T11:36:14Z</time>
      </trkpt>
      <trkpt lat="47.52385" lon="1.93362">
        <ele>88.6</ele>
        <time>2024-05-08T11:36:15Z</time>
      </trkpt>
      <trkpt lat="47.5236" lon="1.93364">
        <ele>88.4</ele>
        <time>2024-05-08T11:36:19Z</time>
      </trkpt>
      <trkpt lat="47.52353" lon="1.93364">
        <ele>88.4</ele>
        <time>2024-05-08T11:36:20Z</time>
      </trkpt>
      <trkpt lat="47.52335" lon="1.93359">
        <ele>88.4</ele>
        <time>2024-05-08T11:36:23Z</time>
      </trkpt>
      <trkpt lat="47.52313" lon="1.93349">
        <ele>88.2</ele>
        <time>2024-05-08T11:36:27Z</time>
      </trkpt>
      <trkpt lat="47.5231" lon="1.93345">
        <ele>88.2</ele>
        <time>2024-05-08T11:36:28Z</time>
      </trkpt>
      <trkpt lat="47.52306" lon="1.93338">
        <ele>88.2</ele>
        <time>2024-05-08T11:36:31Z</time>
      </trkpt>
      <trkpt lat="47.52306" lon="1.93337">
        <ele>88.2</ele>
        <time>2024-05-08T11:36:33Z</time>
      </trkpt>
      <trkpt lat="47.52306" lon="1.93337">
        <ele>88.2</ele>
        <time>2024-05-08T11:36:34Z</time>
      </trkpt>
      <trkpt lat="47.52306" lon="1.93337">
        <ele>88.2</ele>
        <time>2024-05-08T11:36:35Z</time>
      </trkpt>
      <trkpt lat="47.52308" lon="1.93336">
        <ele>90</ele>
        <time>2024-05-08T12:23:15Z</time>
      </trkpt>
      <trkpt lat="47.52306" lon="1.93332">
        <ele>90</ele>
        <time>2024-05-08T12:23:17Z</time>
      </trkpt>
      <trkpt lat="47.52305" lon="1.93331">
        <ele>90.2</ele>
        <time>2024-05-08T12:23:20Z</time>
      </trkpt>
      <trkpt lat="47.52303" lon="1.93331">
        <ele>90.2</ele>
        <time>2024-05-08T12:23:21Z</time>
      </trkpt>
      <trkpt lat="47.52288" lon="1.93323">
        <ele>90.2</ele>
        <time>2024-05-08T12:23:27Z</time>
      </trkpt>
      <trkpt lat="47.52271" lon="1.93311">
        <ele>90.2</ele>
        <time>2024-05-08T12:23:34Z</time>
      </trkpt>
      <trkpt lat="47.52248" lon="1.93297">
        <ele>90.6</ele>
        <time>2024-05-08T12:23:42Z</time>
      </trkpt>
      <trkpt lat="47.52225" lon="1.93287">
        <ele>90.6</ele>
        <time>2024-05-08T12:23:49Z</time>
      </trkpt>
      <trkpt lat="47.5221" lon="1.93278">
        <ele>90.4</ele>
        <time>2024-05-08T12:23:55Z</time>
      </trkpt>
      <trkpt lat="47.52186" lon="1.93269">
        <ele>90.6</ele>
        <time>2024-05-08T12:24:03Z</time>
      </trkpt>
      <trkpt lat="47.52163" lon="1.9326">
        <ele>91</ele>
        <time>2024-05-08T12:24:10Z</time>
      </trkpt>
      <trkpt lat="47.52143" lon="1.93251">
        <ele>91.2</ele>
        <time>2024-05-08T12:24:16Z</time>
      </trkpt>
      <trkpt lat="47.52115" lon="1.93235">
        <ele>91.4</ele>
        <time>2024-05-08T12:24:24Z</time>
      </trkpt>
      <trkpt lat="47.52094" lon="1.93216">
        <ele>91.4</ele>
        <time>2024-05-08T12:24:30Z</time>
      </trkpt>
      <trkpt lat="47.5209" lon="1.93213">
        <ele>91.4</ele>
        <time>2024-05-08T12:24:31Z</time>
      </trkpt>
      <trkpt lat="47.52069" lon="1.9319">
        <ele>91.4</ele>
        <time>2024-05-08T12:24:38Z</time>
      </trkpt>
      <trkpt lat="47.52047" lon="1.93167">
        <ele>91.4</ele>
        <time>2024-05-08T12:24:45Z</time>
      </trkpt>
      <trkpt lat="47.52021" lon="1.93141">
        <ele>91.6</ele>
        <time>2024-05-08T12:24:53Z</time>
      </trkpt>
      <trkpt lat="47.52013" lon="1.93134">
        <ele>91.8</ele>
        <time>2024-05-08T12:24:55Z</time>
      </trkpt>
      <trkpt lat="47.51995" lon="1.93117">
        <ele>92</ele>
        <time>2024-05-08T12:25:00Z</time>
      </trkpt>
      <trkpt lat="47.51972" lon="1.93096">
        <ele>92.2</ele>
        <time>2024-05-08T12:25:06Z</time>
      </trkpt>
      <trkpt lat="47.51961" lon="1.93086">
        <ele>92.4</ele>
        <time>2024-05-08T12:25:09Z</time>
      </trkpt>
      <trkpt lat="47.51945" lon="1.93068">
        <ele>92.6</ele>
        <time>2024-05-08T12:25:14Z</time>
      </trkpt>
      <trkpt lat="47.51919" lon="1.93042">
        <ele>92.6</ele>
        <time>2024-05-08T12:25:22Z</time>
      </trkpt>
      <trkpt lat="47.51913" lon="1.93036">
        <ele>92.6</ele>
        <time>2024-05-08T12:25:24Z</time>
      </trkpt>
      <trkpt lat="47.51894" lon="1.93017">
        <ele>92.6</ele>
        <time>2024-05-08T12:25:30Z</time>
      </trkpt>
      <trkpt lat="47.51864" lon="1.92992">
        <ele>92.6</ele>
        <time>2024-05-08T12:25:38Z</time>
      </trkpt>
      <trkpt lat="47.51857" lon="1.92986">
        <ele>92.6</ele>
        <time>2024-05-08T12:25:40Z</time>
      </trkpt>
      <trkpt lat="47.5185" lon="1.92981">
        <ele>92.6</ele>
        <time>2024-05-08T12:25:42Z</time>
      </trkpt>
      <trkpt lat="47.51828" lon="1.92968">
        <ele>92.6</ele>
        <time>2024-05-08T12:25:47Z</time>
      </trkpt>
      <trkpt lat="47.51797" lon="1.92952">
        <ele>92.6</ele>
        <time>2024-05-08T12:25:54Z</time>
      </trkpt>
      <trkpt lat="47.51792" lon="1.92949">
        <ele>92.6</ele>
        <time>2024-05-08T12:25:55Z</time>
      </trkpt>
      <trkpt lat="47.51745" lon="1.92927">
        <ele>93</ele>
        <time>2024-05-08T12:26:05Z</time>
      </trkpt>
      <trkpt lat="47.5174" lon="1.92925">
        <ele>93</ele>
        <time>2024-05-08T12:26:06Z</time>
      </trkpt>
      <trkpt lat="47.51715" lon="1.92916">
        <ele>93.4</ele>
        <time>2024-05-08T12:26:11Z</time>
      </trkpt>
      <trkpt lat="47.5171" lon="1.92915">
        <ele>93.2</ele>
        <time>2024-05-08T12:26:12Z</time>
      </trkpt>
      <trkpt lat="47.51664" lon="1.92902">
        <ele>93.4</ele>
        <time>2024-05-08T12:26:21Z</time>
      </trkpt>
      <trkpt lat="47.51629" lon="1.92892">
        <ele>94</ele>
        <time>2024-05-08T12:26:28Z</time>
      </trkpt>
      <trkpt lat="47.51616" lon="1.92889">
        <ele>94</ele>
        <time>2024-05-08T12:26:31Z</time>
      </trkpt>
      <trkpt lat="47.51611" lon="1.92888">
        <ele>94</ele>
        <time>2024-05-08T12:26:32Z</time>
      </trkpt>
      <trkpt lat="47.51606" lon="1.92886">
        <ele>94</ele>
        <time>2024-05-08T12:26:33Z</time>
      </trkpt>
      <trkpt lat="47.51589" lon="1.92881">
        <ele>94.4</ele>
        <time>2024-05-08T12:26:37Z</time>
      </trkpt>
      <trkpt lat="47.51546" lon="1.9287">
        <ele>95.2</ele>
        <time>2024-05-08T12:26:46Z</time>
      </trkpt>
      <trkpt lat="47.51536" lon="1.92867">
        <ele>95.2</ele>
        <time>2024-05-08T12:26:48Z</time>
      </trkpt>
      <trkpt lat="47.51516" lon="1.92862">
        <ele>95.4</ele>
        <time>2024-05-08T12:26:52Z</time>
      </trkpt>
      <trkpt lat="47.515" lon="1.9286">
        <ele>95.4</ele>
        <time>2024-05-08T12:26:55Z</time>
      </trkpt>
      <trkpt lat="47.51455" lon="1.92847">
        <ele>95.2</ele>
        <time>2024-05-08T12:27:03Z</time>
      </trkpt>
      <trkpt lat="47.51443" lon="1.92843">
        <ele>94.8</ele>
        <time>2024-05-08T12:27:05Z</time>
      </trkpt>
      <trkpt lat="47.51425" lon="1.92836">
        <ele>94.6</ele>
        <time>2024-05-08T12:27:08Z</time>
      </trkpt>
      <trkpt lat="47.51407" lon="1.92831">
        <ele>94.2</ele>
        <time>2024-05-08T12:27:11Z</time>
      </trkpt>
      <trkpt lat="47.51376" lon="1.92824">
        <ele>93.8</ele>
        <time>2024-05-08T12:27:16Z</time>
      </trkpt>
      <trkpt lat="47.51328" lon="1.9281">
        <ele>93.6</ele>
        <time>2024-05-08T12:27:24Z</time>
      </trkpt>
      <trkpt lat="47.51315" lon="1.92807">
        <ele>93.4</ele>
        <time>2024-05-08T12:27:26Z</time>
      </trkpt>
      <trkpt lat="47.5129" lon="1.928">
        <ele>93.2</ele>
        <time>2024-05-08T12:27:30Z</time>
      </trkpt>
      <trkpt lat="47.51262" lon="1.92792">
        <ele>93</ele>
        <time>2024-05-08T12:27:34Z</time>
      </trkpt>
      <trkpt lat="47.51221" lon="1.92781">
        <ele>92.6</ele>
        <time>2024-05-08T12:27:40Z</time>
      </trkpt>
      <trkpt lat="47.51208" lon="1.92777">
        <ele>92.4</ele>
        <time>2024-05-08T12:27:42Z</time>
      </trkpt>
      <trkpt lat="47.5118" lon="1.9277">
        <ele>92.2</ele>
        <time>2024-05-08T12:27:46Z</time>
      </trkpt>
      <trkpt lat="47.51173" lon="1.92768">
        <ele>92</ele>
        <time>2024-05-08T12:27:47Z</time>
      </trkpt>
      <trkpt lat="47.51146" lon="1.92761">
        <ele>91</ele>
        <time>2024-05-08T12:27:51Z</time>
      </trkpt>
      <trkpt lat="47.51114" lon="1.92753">
        <ele>90.6</ele>
        <time>2024-05-08T12:27:56Z</time>
      </trkpt>
      <trkpt lat="47.5109" lon="1.92749">
        <ele>90.6</ele>
        <time>2024-05-08T12:28:00Z</time>
      </trkpt>
      <trkpt lat="47.51077" lon="1.92745">
        <ele>90.4</ele>
        <time>2024-05-08T12:28:02Z</time>
      </trkpt>
      <trkpt lat="47.51036" lon="1.92734">
        <ele>90.2</ele>
        <time>2024-05-08T12:28:09Z</time>
      </trkpt>
      <trkpt lat="47.51031" lon="1.92734">
        <ele>90</ele>
        <time>2024-05-08T12:28:10Z</time>
      </trkpt>
      <trkpt lat="47.51025" lon="1.92732">
        <ele>90</ele>
        <time>2024-05-08T12:28:11Z</time>
      </trkpt>
      <trkpt lat="47.51007" lon="1.92727">
        <ele>90</ele>
        <time>2024-05-08T12:28:14Z</time>
      </trkpt>
      <trkpt lat="47.50989" lon="1.92722">
        <ele>90</ele>
        <time>2024-05-08T12:28:17Z</time>
      </trkpt>
      <trkpt lat="47.50983" lon="1.92721">
        <ele>90</ele>
        <time>2024-05-08T12:28:18Z</time>
      </trkpt>
      <trkpt lat="47.50966" lon="1.92715">
        <ele>90</ele>
        <time>2024-05-08T12:28:21Z</time>
      </trkpt>
      <trkpt lat="47.50911" lon="1.92697">
        <ele>90.4</ele>
        <time>2024-05-08T12:28:31Z</time>
      </trkpt>
      <trkpt lat="47.5089" lon="1.92688">
        <ele>90.6</ele>
        <time>2024-05-08T12:28:35Z</time>
      </trkpt>
      <trkpt lat="47.5088" lon="1.92681">
        <ele>90.6</ele>
        <time>2024-05-08T12:28:37Z</time>
      </trkpt>
      <trkpt lat="47.50837" lon="1.92652">
        <ele>90.8</ele>
        <time>2024-05-08T12:28:45Z</time>
      </trkpt>
      <trkpt lat="47.50807" lon="1.92624">
        <ele>91.2</ele>
        <time>2024-05-08T12:28:51Z</time>
      </trkpt>
      <trkpt lat="47.50802" lon="1.92619">
        <ele>91.2</ele>
        <time>2024-05-08T12:28:52Z</time>
      </trkpt>
      <trkpt lat="47.50798" lon="1.92614">
        <ele>91.2</ele>
        <time>2024-05-08T12:28:53Z</time>
      </trkpt>
      <trkpt lat="47.50763" lon="1.92582">
        <ele>91.2</ele>
        <time>2024-05-08T12:29:00Z</time>
      </trkpt>
      <trkpt lat="47.5074" lon="1.9256">
        <ele>90.8</ele>
        <time>2024-05-08T12:29:06Z</time>
      </trkpt>
      <trkpt lat="47.50732" lon="1.92553">
        <ele>90.8</ele>
        <time>2024-05-08T12:29:07Z</time>
      </trkpt>
      <trkpt lat="47.50715" lon="1.92539">
        <ele>90.6</ele>
        <time>2024-05-08T12:29:10Z</time>
      </trkpt>
      <trkpt lat="47.50681" lon="1.92506">
        <ele>90.2</ele>
        <time>2024-05-08T12:29:16Z</time>
      </trkpt>
      <trkpt lat="47.50676" lon="1.92501">
        <ele>90</ele>
        <time>2024-05-08T12:29:17Z</time>
      </trkpt>
      <trkpt lat="47.50641" lon="1.92467">
        <ele>89.6</ele>
        <time>2024-05-08T12:29:23Z</time>
      </trkpt>
      <trkpt lat="47.50614" lon="1.9244">
        <ele>89.2</ele>
        <time>2024-05-08T12:29:28Z</time>
      </trkpt>
      <trkpt lat="47.50597" lon="1.92424">
        <ele>89</ele>
        <time>2024-05-08T12:29:31Z</time>
      </trkpt>
      <trkpt lat="47.50597" lon="1.92424">
        <ele>89</ele>
        <time>2024-05-08T12:29:32Z</time>
      </trkpt>
      <trkpt lat="47.50555" lon="1.92383">
        <ele>88.8</ele>
        <time>2024-05-08T12:29:39Z</time>
      </trkpt>
      <trkpt lat="47.50505" lon="1.92336">
        <ele>88.8</ele>
        <time>2024-05-08T12:29:48Z</time>
      </trkpt>
      <trkpt lat="47.505" lon="1.92331">
        <ele>88.8</ele>
        <time>2024-05-08T12:29:49Z</time>
      </trkpt>
      <trkpt lat="47.50453" lon="1.92286">
        <ele>88.8</ele>
        <time>2024-05-08T12:29:58Z</time>
      </trkpt>
      <trkpt lat="47.50447" lon="1.92281">
        <ele>88.4</ele>
        <time>2024-05-08T12:29:59Z</time>
      </trkpt>
      <trkpt lat="47.50426" lon="1.92261">
        <ele>88</ele>
        <time>2024-05-08T12:30:03Z</time>
      </trkpt>
      <trkpt lat="47.504" lon="1.92235">
        <ele>87.8</ele>
        <time>2024-05-08T12:30:08Z</time>
      </trkpt>
      <trkpt lat="47.50378" lon="1.92215">
        <ele>88</ele>
        <time>2024-05-08T12:30:12Z</time>
      </trkpt>
      <trkpt lat="47.50332" lon="1.92171">
        <ele>88.6</ele>
        <time>2024-05-08T12:30:21Z</time>
      </trkpt>
      <trkpt lat="47.50317" lon="1.92157">
        <ele>88.8</ele>
        <time>2024-05-08T12:30:24Z</time>
      </trkpt>
      <trkpt lat="47.50286" lon="1.92128">
        <ele>89</ele>
        <time>2024-05-08T12:30:30Z</time>
      </trkpt>
      <trkpt lat="47.50281" lon="1.92123">
        <ele>89</ele>
        <time>2024-05-08T12:30:31Z</time>
      </trkpt>
      <trkpt lat="47.50237" lon="1.92081">
        <ele>88.8</ele>
        <time>2024-05-08T12:30:40Z</time>
      </trkpt>
      <trkpt lat="47.50196" lon="1.92041">
        <ele>88.6</ele>
        <time>2024-05-08T12:30:49Z</time>
      </trkpt>
      <trkpt lat="47.5017" lon="1.92018">
        <ele>89</ele>
        <time>2024-05-08T12:30:55Z</time>
      </trkpt>
      <trkpt lat="47.50166" lon="1.92014">
        <ele>89.2</ele>
        <time>2024-05-08T12:30:56Z</time>
      </trkpt>
      <trkpt lat="47.50153" lon="1.92002">
        <ele>89.4</ele>
        <time>2024-05-08T12:30:59Z</time>
      </trkpt>
      <trkpt lat="47.50124" lon="1.91976">
        <ele>90.2</ele>
        <time>2024-05-08T12:31:06Z</time>
      </trkpt>
      <trkpt lat="47.50116" lon="1.91968">
        <ele>90.6</ele>
        <time>2024-05-08T12:31:08Z</time>
      </trkpt>
      <trkpt lat="47.50086" lon="1.9194">
        <ele>91.4</ele>
        <time>2024-05-08T12:31:15Z</time>
      </trkpt>
      <trkpt lat="47.50079" lon="1.91933">
        <ele>91.6</ele>
        <time>2024-05-08T12:31:17Z</time>
      </trkpt>
      <trkpt lat="47.50051" lon="1.91905">
        <ele>92.4</ele>
        <time>2024-05-08T12:31:24Z</time>
      </trkpt>
      <trkpt lat="47.5004" lon="1.91896">
        <ele>93.2</ele>
        <time>2024-05-08T12:31:28Z</time>
      </trkpt>
      <trkpt lat="47.50033" lon="1.91889">
        <ele>93.4</ele>
        <time>2024-05-08T12:31:29Z</time>
      </trkpt>
      <trkpt lat="47.5003" lon="1.91886">
        <ele>93.6</ele>
        <time>2024-05-08T12:31:30Z</time>
      </trkpt>
      <trkpt lat="47.5002" lon="1.91878">
        <ele>94</ele>
        <time>2024-05-08T12:31:33Z</time>
      </trkpt>
      <trkpt lat="47.5001" lon="1.91868">
        <ele>94.6</ele>
        <time>2024-05-08T12:31:36Z</time>
      </trkpt>
      <trkpt lat="47.49999" lon="1.91858">
        <ele>94.8</ele>
        <time>2024-05-08T12:31:39Z</time>
      </trkpt>
      <trkpt lat="47.49986" lon="1.91846">
        <ele>95.6</ele>
        <time>2024-05-08T12:31:43Z</time>
      </trkpt>
      <trkpt lat="47.49979" lon="1.91841">
        <ele>96</ele>
        <time>2024-05-08T12:31:45Z</time>
      </trkpt>
      <trkpt lat="47.49962" lon="1.91826">
        <ele>96.8</ele>
        <time>2024-05-08T12:31:50Z</time>
      </trkpt>
      <trkpt lat="47.49945" lon="1.91809">
        <ele>97.6</ele>
        <time>2024-05-08T12:31:55Z</time>
      </trkpt>
      <trkpt lat="47.49933" lon="1.91797">
        <ele>98</ele>
        <time>2024-05-08T12:31:59Z</time>
      </trkpt>
      <trkpt lat="47.49928" lon="1.91793">
        <ele>98</ele>
        <time>2024-05-08T12:32:00Z</time>
      </trkpt>
      <trkpt lat="47.49907" lon="1.91776">
        <ele>99</ele>
        <time>2024-05-08T12:32:05Z</time>
      </trkpt>
      <trkpt lat="47.49901" lon="1.9177">
        <ele>99.4</ele>
        <time>2024-05-08T12:32:07Z</time>
      </trkpt>
      <trkpt lat="47.49897" lon="1.91765">
        <ele>99.6</ele>
        <time>2024-05-08T12:32:08Z</time>
      </trkpt>
      <trkpt lat="47.49882" lon="1.91751">
        <ele>100</ele>
        <time>2024-05-08T12:32:12Z</time>
      </trkpt>
      <trkpt lat="47.49878" lon="1.91745">
        <ele>100</ele>
        <time>2024-05-08T12:32:13Z</time>
      </trkpt>
      <trkpt lat="47.49864" lon="1.91731">
        <ele>100.2</ele>
        <time>2024-05-08T12:32:17Z</time>
      </trkpt>
      <trkpt lat="47.49831" lon="1.91698">
        <ele>100.6</ele>
        <time>2024-05-08T12:32:26Z</time>
      </trkpt>
      <trkpt lat="47.49819" lon="1.91687">
        <ele>101</ele>
        <time>2024-05-08T12:32:29Z</time>
      </trkpt>
      <trkpt lat="47.498" lon="1.91668">
        <ele>101.2</ele>
        <time>2024-05-08T12:32:34Z</time>
      </trkpt>
      <trkpt lat="47.49767" lon="1.91636">
        <ele>101.8</ele>
        <time>2024-05-08T12:32:43Z</time>
      </trkpt>
      <trkpt lat="47.49763" lon="1.91633">
        <ele>102</ele>
        <time>2024-05-08T12:32:44Z</time>
      </trkpt>
      <trkpt lat="47.49748" lon="1.91618">
        <ele>102.2</ele>
        <time>2024-05-08T12:32:48Z</time>
      </trkpt>
      <trkpt lat="47.49726" lon="1.91597">
        <ele>102.6</ele>
        <time>2024-05-08T12:32:54Z</time>
      </trkpt>
      <trkpt lat="47.49705" lon="1.91577">
        <ele>103</ele>
        <time>2024-05-08T12:33:00Z</time>
      </trkpt>
      <trkpt lat="47.49694" lon="1.91567">
        <ele>103.2</ele>
        <time>2024-05-08T12:33:03Z</time>
      </trkpt>
      <trkpt lat="47.4969" lon="1.91563">
        <ele>103.4</ele>
        <time>2024-05-08T12:33:04Z</time>
      </trkpt>
      <trkpt lat="47.49678" lon="1.91552">
        <ele>103.6</ele>
        <time>2024-05-08T12:33:07Z</time>
      </trkpt>
      <trkpt lat="47.49641" lon="1.91516">
        <ele>103.6</ele>
        <time>2024-05-08T12:33:16Z</time>
      </trkpt>
      <trkpt lat="47.49594" lon="1.91471">
        <ele>103.4</ele>
        <time>2024-05-08T12:33:27Z</time>
      </trkpt>
      <trkpt lat="47.49574" lon="1.91453">
        <ele>103</ele>
        <time>2024-05-08T12:33:31Z</time>
      </trkpt>
      <trkpt lat="47.49564" lon="1.91444">
        <ele>103</ele>
        <time>2024-05-08T12:33:33Z</time>
      </trkpt>
      <trkpt lat="47.4953" lon="1.91413">
        <ele>102.6</ele>
        <time>2024-05-08T12:33:40Z</time>
      </trkpt>
      <trkpt lat="47.49496" lon="1.9138">
        <ele>102.2</ele>
        <time>2024-05-08T12:33:47Z</time>
      </trkpt>
      <trkpt lat="47.49481" lon="1.91366">
        <ele>101.8</ele>
        <time>2024-05-08T12:33:51Z</time>
      </trkpt>
      <trkpt lat="47.49457" lon="1.91342">
        <ele>101.4</ele>
        <time>2024-05-08T12:33:55Z</time>
      </trkpt>
      <trkpt lat="47.49429" lon="1.91314">
        <ele>101</ele>
        <time>2024-05-08T12:34:01Z</time>
      </trkpt>
      <trkpt lat="47.49399" lon="1.91287">
        <ele>100.6</ele>
        <time>2024-05-08T12:34:06Z</time>
      </trkpt>
      <trkpt lat="47.49393" lon="1.91282">
        <ele>100.4</ele>
        <time>2024-05-08T12:34:07Z</time>
      </trkpt>
      <trkpt lat="47.49344" lon="1.91236">
        <ele>100.2</ele>
        <time>2024-05-08T12:34:16Z</time>
      </trkpt>
      <trkpt lat="47.49295" lon="1.91188">
        <ele>100</ele>
        <time>2024-05-08T12:34:26Z</time>
      </trkpt>
      <trkpt lat="47.4929" lon="1.91183">
        <ele>100</ele>
        <time>2024-05-08T12:34:27Z</time>
      </trkpt>
      <trkpt lat="47.49271" lon="1.91165">
        <ele>99.8</ele>
        <time>2024-05-08T12:34:31Z</time>
      </trkpt>
      <trkpt lat="47.49257" lon="1.91151">
        <ele>99.6</ele>
        <time>2024-05-08T12:34:34Z</time>
      </trkpt>
      <trkpt lat="47.49233" lon="1.91129">
        <ele>99.2</ele>
        <time>2024-05-08T12:34:39Z</time>
      </trkpt>
      <trkpt lat="47.49186" lon="1.91083">
        <ele>98.8</ele>
        <time>2024-05-08T12:34:49Z</time>
      </trkpt>
      <trkpt lat="47.49181" lon="1.91079">
        <ele>98.8</ele>
        <time>2024-05-08T12:34:50Z</time>
      </trkpt>
      <trkpt lat="47.49155" lon="1.91055">
        <ele>98.6</ele>
        <time>2024-05-08T12:34:55Z</time>
      </trkpt>
      <trkpt lat="47.49144" lon="1.91045">
        <ele>98.6</ele>
        <time>2024-05-08T12:34:57Z</time>
      </trkpt>
      <trkpt lat="47.49119" lon="1.91021">
        <ele>98.2</ele>
        <time>2024-05-08T12:35:02Z</time>
      </trkpt>
      <trkpt lat="47.49089" lon="1.90992">
        <ele>97.4</ele>
        <time>2024-05-08T12:35:07Z</time>
      </trkpt>
      <trkpt lat="47.4907" lon="1.90975">
        <ele>96.8</ele>
        <time>2024-05-08T12:35:10Z</time>
      </trkpt>
      <trkpt lat="47.49046" lon="1.90952">
        <ele>96.2</ele>
        <time>2024-05-08T12:35:14Z</time>
      </trkpt>
      <trkpt lat="47.49022" lon="1.90929">
        <ele>95.6</ele>
        <time>2024-05-08T12:35:18Z</time>
      </trkpt>
      <trkpt lat="47.49011" lon="1.90918">
        <ele>95.2</ele>
        <time>2024-05-08T12:35:20Z</time>
      </trkpt>
      <trkpt lat="47.48984" lon="1.90891">
        <ele>94</ele>
        <time>2024-05-08T12:35:25Z</time>
      </trkpt>
      <trkpt lat="47.48978" lon="1.90886">
        <ele>93.8</ele>
        <time>2024-05-08T12:35:26Z</time>
      </trkpt>
      <trkpt lat="47.48945" lon="1.90855">
        <ele>92.8</ele>
        <time>2024-05-08T12:35:32Z</time>
      </trkpt>
      <trkpt lat="47.48934" lon="1.90844">
        <ele>92.6</ele>
        <time>2024-05-08T12:35:34Z</time>
      </trkpt>
      <trkpt lat="47.48905" lon="1.90816">
        <ele>91.8</ele>
        <time>2024-05-08T12:35:40Z</time>
      </trkpt>
      <trkpt lat="47.489" lon="1.90811">
        <ele>91.6</ele>
        <time>2024-05-08T12:35:41Z</time>
      </trkpt>
      <trkpt lat="47.48859" lon="1.90772">
        <ele>91.4</ele>
        <time>2024-05-08T12:35:50Z</time>
      </trkpt>
      <trkpt lat="47.48823" lon="1.90738">
        <ele>91.4</ele>
        <time>2024-05-08T12:35:58Z</time>
      </trkpt>
      <trkpt lat="47.488" lon="1.90716">
        <ele>91.4</ele>
        <time>2024-05-08T12:36:03Z</time>
      </trkpt>
      <trkpt lat="47.48759" lon="1.90678">
        <ele>91.8</ele>
        <time>2024-05-08T12:36:12Z</time>
      </trkpt>
      <trkpt lat="47.48751" lon="1.9067">
        <ele>91.8</ele>
        <time>2024-05-08T12:36:14Z</time>
      </trkpt>
      <trkpt lat="47.48735" lon="1.90648">
        <ele>91.8</ele>
        <time>2024-05-08T12:36:18Z</time>
      </trkpt>
      <trkpt lat="47.48709" lon="1.90611">
        <ele>91.8</ele>
        <time>2024-05-08T12:36:25Z</time>
      </trkpt>
      <trkpt lat="47.48682" lon="1.90561">
        <ele>92</ele>
        <time>2024-05-08T12:36:33Z</time>
      </trkpt>
      <trkpt lat="47.48649" lon="1.90502">
        <ele>92.8</ele>
        <time>2024-05-08T12:36:43Z</time>
      </trkpt>
      <trkpt lat="47.48643" lon="1.90491">
        <ele>93</ele>
        <time>2024-05-08T12:36:45Z</time>
      </trkpt>
      <trkpt lat="47.48616" lon="1.90444">
        <ele>93.2</ele>
        <time>2024-05-08T12:36:53Z</time>
      </trkpt>
      <trkpt lat="47.48588" lon="1.9039">
        <ele>93.8</ele>
        <time>2024-05-08T12:37:02Z</time>
      </trkpt>
      <trkpt lat="47.48582" lon="1.90379">
        <ele>94</ele>
        <time>2024-05-08T12:37:04Z</time>
      </trkpt>
      <trkpt lat="47.48552" lon="1.90321">
        <ele>94.8</ele>
        <time>2024-05-08T12:37:14Z</time>
      </trkpt>
      <trkpt lat="47.48545" lon="1.9031">
        <ele>95</ele>
        <time>2024-05-08T12:37:16Z</time>
      </trkpt>
      <trkpt lat="47.48524" lon="1.90271">
        <ele>95.6</ele>
        <time>2024-05-08T12:37:23Z</time>
      </trkpt>
      <trkpt lat="47.4852" lon="1.90266">
        <ele>95.6</ele>
        <time>2024-05-08T12:37:24Z</time>
      </trkpt>
      <trkpt lat="47.48497" lon="1.9022">
        <ele>96.2</ele>
        <time>2024-05-08T12:37:32Z</time>
      </trkpt>
      <trkpt lat="47.48494" lon="1.90214">
        <ele>96.2</ele>
        <time>2024-05-08T12:37:33Z</time>
      </trkpt>
      <trkpt lat="47.48458" lon="1.90145">
        <ele>96.6</ele>
        <time>2024-05-08T12:37:44Z</time>
      </trkpt>
      <trkpt lat="47.48428" lon="1.90091">
        <ele>96.8</ele>
        <time>2024-05-08T12:37:52Z</time>
      </trkpt>
      <trkpt lat="47.48425" lon="1.90084">
        <ele>96.8</ele>
        <time>2024-05-08T12:37:53Z</time>
      </trkpt>
      <trkpt lat="47.48409" lon="1.90055">
        <ele>97</ele>
        <time>2024-05-08T12:37:57Z</time>
      </trkpt>
      <trkpt lat="47.48397" lon="1.90033">
        <ele>97.4</ele>
        <time>2024-05-08T12:38:00Z</time>
      </trkpt>
      <trkpt lat="47.48363" lon="1.8997">
        <ele>98</ele>
        <time>2024-05-08T12:38:09Z</time>
      </trkpt>
      <trkpt lat="47.48359" lon="1.89963">
        <ele>98</ele>
        <time>2024-05-08T12:38:10Z</time>
      </trkpt>
      <trkpt lat="47.48321" lon="1.89893">
        <ele>97.8</ele>
        <time>2024-05-08T12:38:20Z</time>
      </trkpt>
      <trkpt lat="47.48313" lon="1.89879">
        <ele>98</ele>
        <time>2024-05-08T12:38:22Z</time>
      </trkpt>
      <trkpt lat="47.48305" lon="1.89865">
        <ele>98</ele>
        <time>2024-05-08T12:38:24Z</time>
      </trkpt>
      <trkpt lat="47.48283" lon="1.89823">
        <ele>97.8</ele>
        <time>2024-05-08T12:38:30Z</time>
      </trkpt>
      <trkpt lat="47.48246" lon="1.89754">
        <ele>98.2</ele>
        <time>2024-05-08T12:38:40Z</time>
      </trkpt>
      <trkpt lat="47.48242" lon="1.89748">
        <ele>98.2</ele>
        <time>2024-05-08T12:38:41Z</time>
      </trkpt>
      <trkpt lat="47.48232" lon="1.89729">
        <ele>98.2</ele>
        <time>2024-05-08T12:38:44Z</time>
      </trkpt>
      <trkpt lat="47.48201" lon="1.8967">
        <ele>98.2</ele>
        <time>2024-05-08T12:38:53Z</time>
      </trkpt>
      <trkpt lat="47.48167" lon="1.89606">
        <ele>98.6</ele>
        <time>2024-05-08T12:39:02Z</time>
      </trkpt>
      <trkpt lat="47.48137" lon="1.89551">
        <ele>98.6</ele>
        <time>2024-05-08T12:39:10Z</time>
      </trkpt>
      <trkpt lat="47.48132" lon="1.89542">
        <ele>98.6</ele>
        <time>2024-05-08T12:39:11Z</time>
      </trkpt>
      <trkpt lat="47.48101" lon="1.89486">
        <ele>98.4</ele>
        <time>2024-05-08T12:39:19Z</time>
      </trkpt>
      <trkpt lat="47.4807" lon="1.89429">
        <ele>98.2</ele>
        <time>2024-05-08T12:39:27Z</time>
      </trkpt>
      <trkpt lat="47.48035" lon="1.89365">
        <ele>98</ele>
        <time>2024-05-08T12:39:36Z</time>
      </trkpt>
      <trkpt lat="47.48028" lon="1.89351">
        <ele>97.8</ele>
        <time>2024-05-08T12:39:38Z</time>
      </trkpt>
      <trkpt lat="47.47994" lon="1.89288">
        <ele>97.6</ele>
        <time>2024-05-08T12:39:47Z</time>
      </trkpt>
      <trkpt lat="47.47986" lon="1.89274">
        <ele>97.6</ele>
        <time>2024-05-08T12:39:49Z</time>
      </trkpt>
      <trkpt lat="47.47951" lon="1.89209">
        <ele>97.4</ele>
        <time>2024-05-08T12:39:58Z</time>
      </trkpt>
      <trkpt lat="47.47944" lon="1.89196">
        <ele>97.2</ele>
        <time>2024-05-08T12:40:00Z</time>
      </trkpt>
      <trkpt lat="47.47912" lon="1.89134">
        <ele>96.2</ele>
        <time>2024-05-08T12:40:08Z</time>
      </trkpt>
      <trkpt lat="47.47908" lon="1.89126">
        <ele>96</ele>
        <time>2024-05-08T12:40:09Z</time>
      </trkpt>
      <trkpt lat="47.47879" lon="1.89072">
        <ele>95</ele>
        <time>2024-05-08T12:40:16Z</time>
      </trkpt>
      <trkpt lat="47.47862" lon="1.8904">
        <ele>94.4</ele>
        <time>2024-05-08T12:40:20Z</time>
      </trkpt>
      <trkpt lat="47.47844" lon="1.89008">
        <ele>94</ele>
        <time>2024-05-08T12:40:24Z</time>
      </trkpt>
      <trkpt lat="47.47814" lon="1.88951">
        <ele>93.2</ele>
        <time>2024-05-08T12:40:31Z</time>
      </trkpt>
      <trkpt lat="47.47809" lon="1.88943">
        <ele>93</ele>
        <time>2024-05-08T12:40:32Z</time>
      </trkpt>
      <trkpt lat="47.47772" lon="1.88873">
        <ele>92</ele>
        <time>2024-05-08T12:40:40Z</time>
      </trkpt>
      <trkpt lat="47.47767" lon="1.88864">
        <ele>91.6</ele>
        <time>2024-05-08T12:40:41Z</time>
      </trkpt>
      <trkpt lat="47.47752" lon="1.88837">
        <ele>90.8</ele>
        <time>2024-05-08T12:40:44Z</time>
      </trkpt>
      <trkpt lat="47.47727" lon="1.8879">
        <ele>89.8</ele>
        <time>2024-05-08T12:40:49Z</time>
      </trkpt>
      <trkpt lat="47.47712" lon="1.88763">
        <ele>89.2</ele>
        <time>2024-05-08T12:40:52Z</time>
      </trkpt>
      <trkpt lat="47.47701" lon="1.88746">
        <ele>88.8</ele>
        <time>2024-05-08T12:40:54Z</time>
      </trkpt>
      <trkpt lat="47.47697" lon="1.88737">
        <ele>88.4</ele>
        <time>2024-05-08T12:40:55Z</time>
      </trkpt>
      <trkpt lat="47.47682" lon="1.88709">
        <ele>87.8</ele>
        <time>2024-05-08T12:40:58Z</time>
      </trkpt>
      <trkpt lat="47.47673" lon="1.88693">
        <ele>87.4</ele>
        <time>2024-05-08T12:41:00Z</time>
      </trkpt>
      <trkpt lat="47.47668" lon="1.88684">
        <ele>87.4</ele>
        <time>2024-05-08T12:41:01Z</time>
      </trkpt>
      <trkpt lat="47.47651" lon="1.88651">
        <ele>87</ele>
        <time>2024-05-08T12:41:05Z</time>
      </trkpt>
      <trkpt lat="47.47641" lon="1.88631">
        <ele>87</ele>
        <time>2024-05-08T12:41:08Z</time>
      </trkpt>
      <trkpt lat="47.47635" lon="1.88619">
        <ele>87</ele>
        <time>2024-05-08T12:41:10Z</time>
      </trkpt>
      <trkpt lat="47.47614" lon="1.88581">
        <ele>87.2</ele>
        <time>2024-05-08T12:41:16Z</time>
      </trkpt>
      <trkpt lat="47.47612" lon="1.88575">
        <ele>87.2</ele>
        <time>2024-05-08T12:41:17Z</time>
      </trkpt>
      <trkpt lat="47.47601" lon="1.88555">
        <ele>87.6</ele>
        <time>2024-05-08T12:41:20Z</time>
      </trkpt>
      <trkpt lat="47.47596" lon="1.88544">
        <ele>87.8</ele>
        <time>2024-05-08T12:41:22Z</time>
      </trkpt>
      <trkpt lat="47.47583" lon="1.88527">
        <ele>88.4</ele>
        <time>2024-05-08T12:41:26Z</time>
      </trkpt>
      <trkpt lat="47.47561" lon="1.88502">
        <ele>88.8</ele>
        <time>2024-05-08T12:41:30Z</time>
      </trkpt>
      <trkpt lat="47.47527" lon="1.88459">
        <ele>89.2</ele>
        <time>2024-05-08T12:41:36Z</time>
      </trkpt>
      <trkpt lat="47.47513" lon="1.88441">
        <ele>89.6</ele>
        <time>2024-05-08T12:41:39Z</time>
      </trkpt>
      <trkpt lat="47.47484" lon="1.88409">
        <ele>90</ele>
        <time>2024-05-08T12:41:45Z</time>
      </trkpt>
      <trkpt lat="47.47456" lon="1.8838">
        <ele>90.2</ele>
        <time>2024-05-08T12:41:52Z</time>
      </trkpt>
      <trkpt lat="47.47439" lon="1.88363">
        <ele>90.6</ele>
        <time>2024-05-08T12:41:56Z</time>
      </trkpt>
      <trkpt lat="47.47409" lon="1.88333">
        <ele>91.2</ele>
        <time>2024-05-08T12:42:03Z</time>
      </trkpt>
      <trkpt lat="47.47386" lon="1.88309">
        <ele>91.6</ele>
        <time>2024-05-08T12:42:08Z</time>
      </trkpt>
      <trkpt lat="47.47368" lon="1.8829">
        <ele>91.8</ele>
        <time>2024-05-08T12:42:12Z</time>
      </trkpt>
      <trkpt lat="47.47327" lon="1.88249">
        <ele>92.2</ele>
        <time>2024-05-08T12:42:21Z</time>
      </trkpt>
      <trkpt lat="47.47294" lon="1.88216">
        <ele>92.4</ele>
        <time>2024-05-08T12:42:28Z</time>
      </trkpt>
      <trkpt lat="47.47245" lon="1.88169">
        <ele>92.4</ele>
        <time>2024-05-08T12:42:38Z</time>
      </trkpt>
      <trkpt lat="47.47235" lon="1.88159">
        <ele>92.4</ele>
        <time>2024-05-08T12:42:40Z</time>
      </trkpt>
      <trkpt lat="47.47185" lon="1.88109">
        <ele>92.4</ele>
        <time>2024-05-08T12:42:50Z</time>
      </trkpt>
      <trkpt lat="47.47165" lon="1.88089">
        <ele>92.6</ele>
        <time>2024-05-08T12:42:54Z</time>
      </trkpt>
      <trkpt lat="47.4713" lon="1.88054">
        <ele>92.8</ele>
        <time>2024-05-08T12:43:01Z</time>
      </trkpt>
      <trkpt lat="47.47125" lon="1.88048">
        <ele>92.8</ele>
        <time>2024-05-08T12:43:02Z</time>
      </trkpt>
      <trkpt lat="47.47078" lon="1.88003">
        <ele>92.8</ele>
        <time>2024-05-08T12:43:11Z</time>
      </trkpt>
      <trkpt lat="47.47063" lon="1.87988">
        <ele>92.8</ele>
        <time>2024-05-08T12:43:14Z</time>
      </trkpt>
      <trkpt lat="47.47011" lon="1.87947">
        <ele>93.4</ele>
        <time>2024-05-08T12:43:24Z</time>
      </trkpt>
      <trkpt lat="47.46967" lon="1.87918">
        <ele>93.6</ele>
        <time>2024-05-08T12:43:32Z</time>
      </trkpt>
      <trkpt lat="47.46957" lon="1.87912">
        <ele>93.6</ele>
        <time>2024-05-08T12:43:34Z</time>
      </trkpt>
      <trkpt lat="47.46906" lon="1.87879">
        <ele>94</ele>
        <time>2024-05-08T12:43:43Z</time>
      </trkpt>
      <trkpt lat="47.469" lon="1.87875">
        <ele>94</ele>
        <time>2024-05-08T12:43:44Z</time>
      </trkpt>
      <trkpt lat="47.46849" lon="1.87842">
        <ele>94.4</ele>
        <time>2024-05-08T12:43:53Z</time>
      </trkpt>
      <trkpt lat="47.46799" lon="1.8781">
        <ele>94.6</ele>
        <time>2024-05-08T12:44:02Z</time>
      </trkpt>
      <trkpt lat="47.46794" lon="1.87806">
        <ele>95</ele>
        <time>2024-05-08T12:44:03Z</time>
      </trkpt>
      <trkpt lat="47.46783" lon="1.87799">
        <ele>95</ele>
        <time>2024-05-08T12:44:05Z</time>
      </trkpt>
      <trkpt lat="47.46737" lon="1.8777">
        <ele>95.6</ele>
        <time>2024-05-08T12:44:14Z</time>
      </trkpt>
      <trkpt lat="47.46711" lon="1.87752">
        <ele>96</ele>
        <time>2024-05-08T12:44:19Z</time>
      </trkpt>
      <trkpt lat="47.4668" lon="1.8773">
        <ele>96.4</ele>
        <time>2024-05-08T12:44:25Z</time>
      </trkpt>
      <trkpt lat="47.4667" lon="1.87722">
        <ele>96.6</ele>
        <time>2024-05-08T12:44:27Z</time>
      </trkpt>
      <trkpt lat="47.46657" lon="1.87706">
        <ele>96.8</ele>
        <time>2024-05-08T12:44:30Z</time>
      </trkpt>
      <trkpt lat="47.46654" lon="1.87699">
        <ele>97</ele>
        <time>2024-05-08T12:44:31Z</time>
      </trkpt>
      <trkpt lat="47.46647" lon="1.87686">
        <ele>97.2</ele>
        <time>2024-05-08T12:44:33Z</time>
      </trkpt>
      <trkpt lat="47.46639" lon="1.87664">
        <ele>97.4</ele>
        <time>2024-05-08T12:44:36Z</time>
      </trkpt>
      <trkpt lat="47.46632" lon="1.87632">
        <ele>98</ele>
        <time>2024-05-08T12:44:40Z</time>
      </trkpt>
      <trkpt lat="47.46629" lon="1.8761">
        <ele>98.6</ele>
        <time>2024-05-08T12:44:43Z</time>
      </trkpt>
      <trkpt lat="47.46623" lon="1.87569">
        <ele>98.8</ele>
        <time>2024-05-08T12:44:49Z</time>
      </trkpt>
      <trkpt lat="47.46622" lon="1.87552">
        <ele>99</ele>
        <time>2024-05-08T12:44:53Z</time>
      </trkpt>
      <trkpt lat="47.46618" lon="1.87535">
        <ele>99</ele>
        <time>2024-05-08T12:44:56Z</time>
      </trkpt>
      <trkpt lat="47.46617" lon="1.87529">
        <ele>99.2</ele>
        <time>2024-05-08T12:44:57Z</time>
      </trkpt>
      <trkpt lat="47.46609" lon="1.87481">
        <ele>99.8</ele>
        <time>2024-05-08T12:45:04Z</time>
      </trkpt>
      <trkpt lat="47.46604" lon="1.8744">
        <ele>100.2</ele>
        <time>2024-05-08T12:45:10Z</time>
      </trkpt>
      <trkpt lat="47.46602" lon="1.87425">
        <ele>100.2</ele>
        <time>2024-05-08T12:45:12Z</time>
      </trkpt>
      <trkpt lat="47.46599" lon="1.87398">
        <ele>100.4</ele>
        <time>2024-05-08T12:45:17Z</time>
      </trkpt>
      <trkpt lat="47.46596" lon="1.87375">
        <ele>100.4</ele>
        <time>2024-05-08T12:45:22Z</time>
      </trkpt>
      <trkpt lat="47.46585" lon="1.8734">
        <ele>100.6</ele>
        <time>2024-05-08T12:45:30Z</time>
      </trkpt>
      <trkpt lat="47.46572" lon="1.87312">
        <ele>100.6</ele>
        <time>2024-05-08T12:45:36Z</time>
      </trkpt>
      <trkpt lat="47.46553" lon="1.87294">
        <ele>100.4</ele>
        <time>2024-05-08T12:45:41Z</time>
      </trkpt>
      <trkpt lat="47.46549" lon="1.87291">
        <ele>100.2</ele>
        <time>2024-05-08T12:45:42Z</time>
      </trkpt>
      <trkpt lat="47.46518" lon="1.87267">
        <ele>99.8</ele>
        <time>2024-05-08T12:45:50Z</time>
      </trkpt>
      <trkpt lat="47.46511" lon="1.87259">
        <ele>99.6</ele>
        <time>2024-05-08T12:45:52Z</time>
      </trkpt>
      <trkpt lat="47.46498" lon="1.8724">
        <ele>99.4</ele>
        <time>2024-05-08T12:45:56Z</time>
      </trkpt>
      <trkpt lat="47.46487" lon="1.87225">
        <ele>99.2</ele>
        <time>2024-05-08T12:45:59Z</time>
      </trkpt>
      <trkpt lat="47.46483" lon="1.87219">
        <ele>99.2</ele>
        <time>2024-05-08T12:46:00Z</time>
      </trkpt>
      <trkpt lat="47.46471" lon="1.87203">
        <ele>99</ele>
        <time>2024-05-08T12:46:03Z</time>
      </trkpt>
      <trkpt lat="47.46467" lon="1.87197">
        <ele>99</ele>
        <time>2024-05-08T12:46:04Z</time>
      </trkpt>
      <trkpt lat="47.46451" lon="1.87177">
        <ele>98.6</ele>
        <time>2024-05-08T12:46:08Z</time>
      </trkpt>
      <trkpt lat="47.46448" lon="1.87176">
        <ele>98.6</ele>
        <time>2024-05-08T12:46:09Z</time>
      </trkpt>
      <trkpt lat="47.46446" lon="1.87178">
        <ele>98.6</ele>
        <time>2024-05-08T12:46:10Z</time>
      </trkpt>
      <trkpt lat="47.46442" lon="1.87184">
        <ele>98.4</ele>
        <time>2024-05-08T12:46:12Z</time>
      </trkpt>
      <trkpt lat="47.46429" lon="1.87196">
        <ele>98.4</ele>
        <time>2024-05-08T12:46:16Z</time>
      </trkpt>
      <trkpt lat="47.46401" lon="1.87217">
        <ele>98.8</ele>
        <time>2024-05-08T12:46:23Z</time>
      </trkpt>
      <trkpt lat="47.46392" lon="1.87221">
        <ele>98.8</ele>
        <time>2024-05-08T12:46:25Z</time>
      </trkpt>
      <trkpt lat="47.46379" lon="1.87225">
        <ele>98.8</ele>
        <time>2024-05-08T12:46:28Z</time>
      </trkpt>
      <trkpt lat="47.46374" lon="1.87225">
        <ele>98.8</ele>
        <time>2024-05-08T12:46:29Z</time>
      </trkpt>
      <trkpt lat="47.4637" lon="1.87224">
        <ele>98.6</ele>
        <time>2024-05-08T12:46:30Z</time>
      </trkpt>
      <trkpt lat="47.46349" lon="1.87215">
        <ele>98.4</ele>
        <time>2024-05-08T12:46:34Z</time>
      </trkpt>
      <trkpt lat="47.46329" lon="1.87206">
        <ele>98.2</ele>
        <time>2024-05-08T12:46:38Z</time>
      </trkpt>
      <trkpt lat="47.4631" lon="1.87199">
        <ele>98</ele>
        <time>2024-05-08T12:46:42Z</time>
      </trkpt>
      <trkpt lat="47.46303" lon="1.87197">
        <ele>98</ele>
        <time>2024-05-08T12:46:43Z</time>
      </trkpt>
      <trkpt lat="47.46271" lon="1.87187">
        <ele>97.8</ele>
        <time>2024-05-08T12:46:49Z</time>
      </trkpt>
      <trkpt lat="47.46228" lon="1.87177">
        <ele>97.6</ele>
        <time>2024-05-08T12:46:56Z</time>
      </trkpt>
      <trkpt lat="47.46172" lon="1.87173">
        <ele>97.6</ele>
        <time>2024-05-08T12:47:05Z</time>
      </trkpt>
      <trkpt lat="47.46161" lon="1.87173">
        <ele>97.6</ele>
        <time>2024-05-08T12:47:07Z</time>
      </trkpt>
      <trkpt lat="47.46138" lon="1.87172">
        <ele>97.4</ele>
        <time>2024-05-08T12:47:11Z</time>
      </trkpt>
      <trkpt lat="47.46121" lon="1.8717">
        <ele>97.2</ele>
        <time>2024-05-08T12:47:14Z</time>
      </trkpt>
      <trkpt lat="47.46097" lon="1.87168">
        <ele>97.2</ele>
        <time>2024-05-08T12:47:18Z</time>
      </trkpt>
      <trkpt lat="47.46069" lon="1.87162">
        <ele>96.8</ele>
        <time>2024-05-08T12:47:23Z</time>
      </trkpt>
      <trkpt lat="47.46031" lon="1.87139">
        <ele>96.6</ele>
        <time>2024-05-08T12:47:30Z</time>
      </trkpt>
      <trkpt lat="47.45999" lon="1.87108">
        <ele>96.6</ele>
        <time>2024-05-08T12:47:37Z</time>
      </trkpt>
      <trkpt lat="47.45957" lon="1.87067">
        <ele>96.2</ele>
        <time>2024-05-08T12:47:45Z</time>
      </trkpt>
      <trkpt lat="47.45942" lon="1.87052">
        <ele>96</ele>
        <time>2024-05-08T12:47:48Z</time>
      </trkpt>
      <trkpt lat="47.45902" lon="1.87012">
        <ele>95.6</ele>
        <time>2024-05-08T12:47:56Z</time>
      </trkpt>
      <trkpt lat="47.45886" lon="1.86996">
        <ele>95.2</ele>
        <time>2024-05-08T12:47:59Z</time>
      </trkpt>
      <trkpt lat="47.4586" lon="1.8697">
        <ele>95</ele>
        <time>2024-05-08T12:48:04Z</time>
      </trkpt>
      <trkpt lat="47.45825" lon="1.86937">
        <ele>94.8</ele>
        <time>2024-05-08T12:48:11Z</time>
      </trkpt>
      <trkpt lat="47.45796" lon="1.86912">
        <ele>95.2</ele>
        <time>2024-05-08T12:48:17Z</time>
      </trkpt>
      <trkpt lat="47.45767" lon="1.86895">
        <ele>95.4</ele>
        <time>2024-05-08T12:48:23Z</time>
      </trkpt>
      <trkpt lat="47.45722" lon="1.86876">
        <ele>95.8</ele>
        <time>2024-05-08T12:48:31Z</time>
      </trkpt>
      <trkpt lat="47.45671" lon="1.86859">
        <ele>96</ele>
        <time>2024-05-08T12:48:40Z</time>
      </trkpt>
      <trkpt lat="47.45652" lon="1.86853">
        <ele>96.2</ele>
        <time>2024-05-08T12:48:43Z</time>
      </trkpt>
      <trkpt lat="47.45642" lon="1.8685">
        <ele>96.4</ele>
        <time>2024-05-08T12:48:45Z</time>
      </trkpt>
      <trkpt lat="47.45627" lon="1.86845">
        <ele>96.4</ele>
        <time>2024-05-08T12:48:47Z</time>
      </trkpt>
      <trkpt lat="47.45566" lon="1.86825">
        <ele>96</ele>
        <time>2024-05-08T12:48:56Z</time>
      </trkpt>
      <trkpt lat="47.45524" lon="1.86811">
        <ele>95.2</ele>
        <time>2024-05-08T12:49:02Z</time>
      </trkpt>
      <trkpt lat="47.45509" lon="1.86806">
        <ele>95.2</ele>
        <time>2024-05-08T12:49:04Z</time>
      </trkpt>
      <trkpt lat="47.4545" lon="1.86786">
        <ele>94.2</ele>
        <time>2024-05-08T12:49:12Z</time>
      </trkpt>
      <trkpt lat="47.45442" lon="1.86783">
        <ele>94</ele>
        <time>2024-05-08T12:49:13Z</time>
      </trkpt>
      <trkpt lat="47.45428" lon="1.8678">
        <ele>94</ele>
        <time>2024-05-08T12:49:15Z</time>
      </trkpt>
      <trkpt lat="47.45383" lon="1.86763">
        <ele>93.4</ele>
        <time>2024-05-08T12:49:22Z</time>
      </trkpt>
      <trkpt lat="47.45337" lon="1.86746">
        <ele>94</ele>
        <time>2024-05-08T12:49:30Z</time>
      </trkpt>
      <trkpt lat="47.45329" lon="1.86744">
        <ele>94.2</ele>
        <time>2024-05-08T12:49:31Z</time>
      </trkpt>
      <trkpt lat="47.45313" lon="1.86739">
        <ele>94.4</ele>
        <time>2024-05-08T12:49:34Z</time>
      </trkpt>
      <trkpt lat="47.45258" lon="1.86718">
        <ele>95.2</ele>
        <time>2024-05-08T12:49:43Z</time>
      </trkpt>
      <trkpt lat="47.45244" lon="1.86713">
        <ele>95.4</ele>
        <time>2024-05-08T12:49:45Z</time>
      </trkpt>
      <trkpt lat="47.45189" lon="1.86693">
        <ele>95.6</ele>
        <time>2024-05-08T12:49:54Z</time>
      </trkpt>
      <trkpt lat="47.4514" lon="1.86676">
        <ele>96.4</ele>
        <time>2024-05-08T12:50:02Z</time>
      </trkpt>
      <trkpt lat="47.45134" lon="1.86674">
        <ele>96.4</ele>
        <time>2024-05-08T12:50:03Z</time>
      </trkpt>
      <trkpt lat="47.45081" lon="1.86655">
        <ele>97</ele>
        <time>2024-05-08T12:50:12Z</time>
      </trkpt>
      <trkpt lat="47.45075" lon="1.86653">
        <ele>97</ele>
        <time>2024-05-08T12:50:13Z</time>
      </trkpt>
      <trkpt lat="47.45029" lon="1.86636">
        <ele>97</ele>
        <time>2024-05-08T12:50:20Z</time>
      </trkpt>
      <trkpt lat="47.44976" lon="1.86618">
        <ele>96.6</ele>
        <time>2024-05-08T12:50:28Z</time>
      </trkpt>
      <trkpt lat="47.44969" lon="1.86615">
        <ele>96.4</ele>
        <time>2024-05-08T12:50:29Z</time>
      </trkpt>
      <trkpt lat="47.44912" lon="1.86596">
        <ele>95.6</ele>
        <time>2024-05-08T12:50:37Z</time>
      </trkpt>
      <trkpt lat="47.44898" lon="1.86592">
        <ele>95.4</ele>
        <time>2024-05-08T12:50:39Z</time>
      </trkpt>
      <trkpt lat="47.44844" lon="1.86573">
        <ele>95.2</ele>
        <time>2024-05-08T12:50:47Z</time>
      </trkpt>
      <trkpt lat="47.44833" lon="1.8657">
        <ele>95.2</ele>
        <time>2024-05-08T12:50:49Z</time>
      </trkpt>
      <trkpt lat="47.44827" lon="1.86568">
        <ele>95.2</ele>
        <time>2024-05-08T12:50:50Z</time>
      </trkpt>
      <trkpt lat="47.44774" lon="1.86549">
        <ele>95.4</ele>
        <time>2024-05-08T12:50:59Z</time>
      </trkpt>
      <trkpt lat="47.44768" lon="1.86547">
        <ele>95.4</ele>
        <time>2024-05-08T12:51:00Z</time>
      </trkpt>
      <trkpt lat="47.44712" lon="1.86528">
        <ele>95.6</ele>
        <time>2024-05-08T12:51:10Z</time>
      </trkpt>
      <trkpt lat="47.44696" lon="1.86523">
        <ele>95.8</ele>
        <time>2024-05-08T12:51:13Z</time>
      </trkpt>
      <trkpt lat="47.44671" lon="1.86515">
        <ele>96.2</ele>
        <time>2024-05-08T12:51:18Z</time>
      </trkpt>
      <trkpt lat="47.44662" lon="1.86512">
        <ele>96.4</ele>
        <time>2024-05-08T12:51:20Z</time>
      </trkpt>
      <trkpt lat="47.44637" lon="1.86504">
        <ele>96.6</ele>
        <time>2024-05-08T12:51:25Z</time>
      </trkpt>
      <trkpt lat="47.44615" lon="1.86495">
        <ele>97.4</ele>
        <time>2024-05-08T12:51:30Z</time>
      </trkpt>
      <trkpt lat="47.44607" lon="1.86492">
        <ele>97.6</ele>
        <time>2024-05-08T12:51:32Z</time>
      </trkpt>
      <trkpt lat="47.44589" lon="1.86486">
        <ele>98.2</ele>
        <time>2024-05-08T12:51:36Z</time>
      </trkpt>
      <trkpt lat="47.4458" lon="1.86483">
        <ele>98.4</ele>
        <time>2024-05-08T12:51:38Z</time>
      </trkpt>
      <trkpt lat="47.44556" lon="1.86475">
        <ele>99.4</ele>
        <time>2024-05-08T12:51:43Z</time>
      </trkpt>
      <trkpt lat="47.44552" lon="1.86473">
        <ele>99.4</ele>
        <time>2024-05-08T12:51:44Z</time>
      </trkpt>
      <trkpt lat="47.44525" lon="1.86464">
        <ele>100.6</ele>
        <time>2024-05-08T12:51:50Z</time>
      </trkpt>
      <trkpt lat="47.44511" lon="1.8646">
        <ele>101</ele>
        <time>2024-05-08T12:51:53Z</time>
      </trkpt>
      <trkpt lat="47.44503" lon="1.86457">
        <ele>101.8</ele>
        <time>2024-05-08T12:51:55Z</time>
      </trkpt>
      <trkpt lat="47.44494" lon="1.86454">
        <ele>102.2</ele>
        <time>2024-05-08T12:51:57Z</time>
      </trkpt>
      <trkpt lat="47.44476" lon="1.8645">
        <ele>103</ele>
        <time>2024-05-08T12:52:01Z</time>
      </trkpt>
      <trkpt lat="47.44472" lon="1.8645">
        <ele>103.2</ele>
        <time>2024-05-08T12:52:02Z</time>
      </trkpt>
      <trkpt lat="47.44443" lon="1.86448">
        <ele>104</ele>
        <time>2024-05-08T12:52:08Z</time>
      </trkpt>
      <trkpt lat="47.44428" lon="1.86447">
        <ele>104.4</ele>
        <time>2024-05-08T12:52:11Z</time>
      </trkpt>
      <trkpt lat="47.44407" lon="1.86449">
        <ele>105</ele>
        <time>2024-05-08T12:52:15Z</time>
      </trkpt>
      <trkpt lat="47.44391" lon="1.86451">
        <ele>105.2</ele>
        <time>2024-05-08T12:52:18Z</time>
      </trkpt>
      <trkpt lat="47.44385" lon="1.86451">
        <ele>105.2</ele>
        <time>2024-05-08T12:52:19Z</time>
      </trkpt>
      <trkpt lat="47.44342" lon="1.86458">
        <ele>105.8</ele>
        <time>2024-05-08T12:52:27Z</time>
      </trkpt>
      <trkpt lat="47.44315" lon="1.86461">
        <ele>106.2</ele>
        <time>2024-05-08T12:52:32Z</time>
      </trkpt>
      <trkpt lat="47.44299" lon="1.86463">
        <ele>106.2</ele>
        <time>2024-05-08T12:52:35Z</time>
      </trkpt>
      <trkpt lat="47.44261" lon="1.86465">
        <ele>106.6</ele>
        <time>2024-05-08T12:52:42Z</time>
      </trkpt>
      <trkpt lat="47.44256" lon="1.86464">
        <ele>106.6</ele>
        <time>2024-05-08T12:52:43Z</time>
      </trkpt>
      <trkpt lat="47.4425" lon="1.86462">
        <ele>106.6</ele>
        <time>2024-05-08T12:52:44Z</time>
      </trkpt>
      <trkpt lat="47.44221" lon="1.86445">
        <ele>107</ele>
        <time>2024-05-08T12:52:50Z</time>
      </trkpt>
      <trkpt lat="47.44212" lon="1.86435">
        <ele>107.2</ele>
        <time>2024-05-08T12:52:52Z</time>
      </trkpt>
      <trkpt lat="47.44207" lon="1.8643">
        <ele>107.4</ele>
        <time>2024-05-08T12:52:53Z</time>
      </trkpt>
      <trkpt lat="47.44198" lon="1.86414">
        <ele>107.4</ele>
        <time>2024-05-08T12:52:56Z</time>
      </trkpt>
      <trkpt lat="47.44172" lon="1.86365">
        <ele>108</ele>
        <time>2024-05-08T12:53:04Z</time>
      </trkpt>
      <trkpt lat="47.44158" lon="1.86338">
        <ele>108.4</ele>
        <time>2024-05-08T12:53:08Z</time>
      </trkpt>
      <trkpt lat="47.44148" lon="1.86317">
        <ele>108.4</ele>
        <time>2024-05-08T12:53:11Z</time>
      </trkpt>
      <trkpt lat="47.44141" lon="1.86302">
        <ele>108.4</ele>
        <time>2024-05-08T12:53:13Z</time>
      </trkpt>
      <trkpt lat="47.44117" lon="1.86248">
        <ele>108.2</ele>
        <time>2024-05-08T12:53:20Z</time>
      </trkpt>
      <trkpt lat="47.44094" lon="1.86191">
        <ele>108.2</ele>
        <time>2024-05-08T12:53:27Z</time>
      </trkpt>
      <trkpt lat="47.44065" lon="1.86144">
        <ele>108</ele>
        <time>2024-05-08T12:53:34Z</time>
      </trkpt>
      <trkpt lat="47.4404" lon="1.86105">
        <ele>107.6</ele>
        <time>2024-05-08T12:53:40Z</time>
      </trkpt>
      <trkpt lat="47.44024" lon="1.86079">
        <ele>107.8</ele>
        <time>2024-05-08T12:53:44Z</time>
      </trkpt>
      <trkpt lat="47.43984" lon="1.86026">
        <ele>108</ele>
        <time>2024-05-08T12:53:53Z</time>
      </trkpt>
      <trkpt lat="47.43959" lon="1.86">
        <ele>108.4</ele>
        <time>2024-05-08T12:53:58Z</time>
      </trkpt>
      <trkpt lat="47.43948" lon="1.85991">
        <ele>108.4</ele>
        <time>2024-05-08T12:54:00Z</time>
      </trkpt>
      <trkpt lat="47.43903" lon="1.85964">
        <ele>108.8</ele>
        <time>2024-05-08T12:54:08Z</time>
      </trkpt>
      <trkpt lat="47.43867" lon="1.8595">
        <ele>108.8</ele>
        <time>2024-05-08T12:54:14Z</time>
      </trkpt>
      <trkpt lat="47.43854" lon="1.85947">
        <ele>108.8</ele>
        <time>2024-05-08T12:54:16Z</time>
      </trkpt>
      <trkpt lat="47.43807" lon="1.85935">
        <ele>108.4</ele>
        <time>2024-05-08T12:54:23Z</time>
      </trkpt>
      <trkpt lat="47.4375" lon="1.85923">
        <ele>107.8</ele>
        <time>2024-05-08T12:54:31Z</time>
      </trkpt>
      <trkpt lat="47.43729" lon="1.85918">
        <ele>107.8</ele>
        <time>2024-05-08T12:54:34Z</time>
      </trkpt>
      <trkpt lat="47.43674" lon="1.85904">
        <ele>107.6</ele>
        <time>2024-05-08T12:54:42Z</time>
      </trkpt>
      <trkpt lat="47.43667" lon="1.85903">
        <ele>107.6</ele>
        <time>2024-05-08T12:54:43Z</time>
      </trkpt>
      <trkpt lat="47.43634" lon="1.85896">
        <ele>108</ele>
        <time>2024-05-08T12:54:48Z</time>
      </trkpt>
      <trkpt lat="47.43614" lon="1.8589">
        <ele>108.2</ele>
        <time>2024-05-08T12:54:51Z</time>
      </trkpt>
      <trkpt lat="47.43561" lon="1.85874">
        <ele>108.6</ele>
        <time>2024-05-08T12:54:59Z</time>
      </trkpt>
      <trkpt lat="47.43525" lon="1.85848">
        <ele>108.6</ele>
        <time>2024-05-08T12:55:05Z</time>
      </trkpt>
      <trkpt lat="47.43486" lon="1.85809">
        <ele>108.2</ele>
        <time>2024-05-08T12:55:12Z</time>
      </trkpt>
      <trkpt lat="47.43439" lon="1.85767">
        <ele>107.6</ele>
        <time>2024-05-08T12:55:20Z</time>
      </trkpt>
      <trkpt lat="47.43421" lon="1.85753">
        <ele>107.6</ele>
        <time>2024-05-08T12:55:23Z</time>
      </trkpt>
      <trkpt lat="47.43395" lon="1.85739">
        <ele>107.2</ele>
        <time>2024-05-08T12:55:27Z</time>
      </trkpt>
      <trkpt lat="47.43387" lon="1.85737">
        <ele>107.2</ele>
        <time>2024-05-08T12:55:28Z</time>
      </trkpt>
      <trkpt lat="47.43335" lon="1.85734">
        <ele>106.8</ele>
        <time>2024-05-08T12:55:35Z</time>
      </trkpt>
      <trkpt lat="47.43281" lon="1.85734">
        <ele>106.6</ele>
        <time>2024-05-08T12:55:42Z</time>
      </trkpt>
      <trkpt lat="47.43257" lon="1.85734">
        <ele>106.4</ele>
        <time>2024-05-08T12:55:45Z</time>
      </trkpt>
      <trkpt lat="47.43232" lon="1.85734">
        <ele>106.2</ele>
        <time>2024-05-08T12:55:48Z</time>
      </trkpt>
      <trkpt lat="47.43189" lon="1.85734">
        <ele>105.2</ele>
        <time>2024-05-08T12:55:53Z</time>
      </trkpt>
      <trkpt lat="47.43181" lon="1.85733">
        <ele>105</ele>
        <time>2024-05-08T12:55:54Z</time>
      </trkpt>
      <trkpt lat="47.43147" lon="1.85733">
        <ele>104.2</ele>
        <time>2024-05-08T12:55:58Z</time>
      </trkpt>
      <trkpt lat="47.43106" lon="1.85734">
        <ele>104</ele>
        <time>2024-05-08T12:56:03Z</time>
      </trkpt>
      <trkpt lat="47.43052" lon="1.8573">
        <ele>104.2</ele>
        <time>2024-05-08T12:56:10Z</time>
      </trkpt>
      <trkpt lat="47.43045" lon="1.85729">
        <ele>104.2</ele>
        <time>2024-05-08T12:56:11Z</time>
      </trkpt>
      <trkpt lat="47.43021" lon="1.85722">
        <ele>104</ele>
        <time>2024-05-08T12:56:14Z</time>
      </trkpt>
      <trkpt lat="47.42981" lon="1.85706">
        <ele>103.2</ele>
        <time>2024-05-08T12:56:19Z</time>
      </trkpt>
      <trkpt lat="47.42946" lon="1.85691">
        <ele>102.2</ele>
        <time>2024-05-08T12:56:23Z</time>
      </trkpt>
      <trkpt lat="47.42927" lon="1.85683">
        <ele>101</ele>
        <time>2024-05-08T12:56:25Z</time>
      </trkpt>
      <trkpt lat="47.42886" lon="1.85664">
        <ele>99.6</ele>
        <time>2024-05-08T12:56:30Z</time>
      </trkpt>
      <trkpt lat="47.4286" lon="1.85653">
        <ele>98.6</ele>
        <time>2024-05-08T12:56:33Z</time>
      </trkpt>
      <trkpt lat="47.42843" lon="1.85645">
        <ele>98.4</ele>
        <time>2024-05-08T12:56:35Z</time>
      </trkpt>
      <trkpt lat="47.42795" lon="1.85623">
        <ele>98.4</ele>
        <time>2024-05-08T12:56:41Z</time>
      </trkpt>
      <trkpt lat="47.4274" lon="1.85598">
        <ele>98.6</ele>
        <time>2024-05-08T12:56:48Z</time>
      </trkpt>
      <trkpt lat="47.42725" lon="1.85592">
        <ele>98.6</ele>
        <time>2024-05-08T12:56:50Z</time>
      </trkpt>
      <trkpt lat="47.4267" lon="1.85568">
        <ele>98.4</ele>
        <time>2024-05-08T12:56:57Z</time>
      </trkpt>
      <trkpt lat="47.42648" lon="1.85557">
        <ele>98.4</ele>
        <time>2024-05-08T12:57:00Z</time>
      </trkpt>
      <trkpt lat="47.42594" lon="1.85533">
        <ele>98.6</ele>
        <time>2024-05-08T12:57:07Z</time>
      </trkpt>
      <trkpt lat="47.42574" lon="1.85524">
        <ele>98.6</ele>
        <time>2024-05-08T12:57:10Z</time>
      </trkpt>
      <trkpt lat="47.42517" lon="1.85498">
        <ele>98.8</ele>
        <time>2024-05-08T12:57:18Z</time>
      </trkpt>
      <trkpt lat="47.4251" lon="1.85495">
        <ele>98.8</ele>
        <time>2024-05-08T12:57:19Z</time>
      </trkpt>
      <trkpt lat="47.42451" lon="1.85469">
        <ele>99</ele>
        <time>2024-05-08T12:57:27Z</time>
      </trkpt>
      <trkpt lat="47.42436" lon="1.85462">
        <ele>99</ele>
        <time>2024-05-08T12:57:29Z</time>
      </trkpt>
      <trkpt lat="47.42382" lon="1.85439">
        <ele>98.6</ele>
        <time>2024-05-08T12:57:36Z</time>
      </trkpt>
      <trkpt lat="47.42358" lon="1.85428">
        <ele>98.2</ele>
        <time>2024-05-08T12:57:39Z</time>
      </trkpt>
      <trkpt lat="47.42298" lon="1.85402">
        <ele>97.8</ele>
        <time>2024-05-08T12:57:46Z</time>
      </trkpt>
      <trkpt lat="47.42281" lon="1.85394">
        <ele>97.8</ele>
        <time>2024-05-08T12:57:48Z</time>
      </trkpt>
      <trkpt lat="47.42264" lon="1.85386">
        <ele>97.6</ele>
        <time>2024-05-08T12:57:50Z</time>
      </trkpt>
      <trkpt lat="47.42216" lon="1.85362">
        <ele>97.6</ele>
        <time>2024-05-08T12:57:56Z</time>
      </trkpt>
      <trkpt lat="47.42186" lon="1.8534">
        <ele>97.4</ele>
        <time>2024-05-08T12:58:00Z</time>
      </trkpt>
      <trkpt lat="47.42172" lon="1.85328">
        <ele>97</ele>
        <time>2024-05-08T12:58:02Z</time>
      </trkpt>
      <trkpt lat="47.42145" lon="1.85302">
        <ele>96.6</ele>
        <time>2024-05-08T12:58:06Z</time>
      </trkpt>
      <trkpt lat="47.42131" lon="1.85288">
        <ele>96.6</ele>
        <time>2024-05-08T12:58:08Z</time>
      </trkpt>
      <trkpt lat="47.42081" lon="1.85239">
        <ele>96.4</ele>
        <time>2024-05-08T12:58:15Z</time>
      </trkpt>
      <trkpt lat="47.42033" lon="1.85191">
        <ele>95.8</ele>
        <time>2024-05-08T12:58:22Z</time>
      </trkpt>
      <trkpt lat="47.42018" lon="1.85177">
        <ele>95.8</ele>
        <time>2024-05-08T12:58:24Z</time>
      </trkpt>
      <trkpt lat="47.41967" lon="1.85126">
        <ele>95.6</ele>
        <time>2024-05-08T12:58:32Z</time>
      </trkpt>
      <trkpt lat="47.41941" lon="1.85101">
        <ele>95.4</ele>
        <time>2024-05-08T12:58:36Z</time>
      </trkpt>
      <trkpt lat="47.4189" lon="1.85051">
        <ele>95</ele>
        <time>2024-05-08T12:58:44Z</time>
      </trkpt>
      <trkpt lat="47.41865" lon="1.85025">
        <ele>94.8</ele>
        <time>2024-05-08T12:58:48Z</time>
      </trkpt>
      <trkpt lat="47.41827" lon="1.84989">
        <ele>95.2</ele>
        <time>2024-05-08T12:58:54Z</time>
      </trkpt>
      <trkpt lat="47.4181" lon="1.84972">
        <ele>95.4</ele>
        <time>2024-05-08T12:58:57Z</time>
      </trkpt>
      <trkpt lat="47.41765" lon="1.84926">
        <ele>95.6</ele>
        <time>2024-05-08T12:59:04Z</time>
      </trkpt>
      <trkpt lat="47.41739" lon="1.84901">
        <ele>95.6</ele>
        <time>2024-05-08T12:59:08Z</time>
      </trkpt>
      <trkpt lat="47.41689" lon="1.8485">
        <ele>96</ele>
        <time>2024-05-08T12:59:16Z</time>
      </trkpt>
      <trkpt lat="47.41669" lon="1.84832">
        <ele>96.2</ele>
        <time>2024-05-08T12:59:19Z</time>
      </trkpt>
      <trkpt lat="47.41627" lon="1.84804">
        <ele>96.4</ele>
        <time>2024-05-08T12:59:25Z</time>
      </trkpt>
      <trkpt lat="47.41612" lon="1.84799">
        <ele>96.4</ele>
        <time>2024-05-08T12:59:27Z</time>
      </trkpt>
      <trkpt lat="47.4158" lon="1.84792">
        <ele>96.4</ele>
        <time>2024-05-08T12:59:31Z</time>
      </trkpt>
      <trkpt lat="47.41549" lon="1.84793">
        <ele>96</ele>
        <time>2024-05-08T12:59:35Z</time>
      </trkpt>
      <trkpt lat="47.41533" lon="1.84798">
        <ele>95.8</ele>
        <time>2024-05-08T12:59:37Z</time>
      </trkpt>
      <trkpt lat="47.41495" lon="1.84817">
        <ele>95.8</ele>
        <time>2024-05-08T12:59:42Z</time>
      </trkpt>
      <trkpt lat="47.41445" lon="1.84853">
        <ele>96.2</ele>
        <time>2024-05-08T12:59:49Z</time>
      </trkpt>
      <trkpt lat="47.41432" lon="1.84863">
        <ele>96.2</ele>
        <time>2024-05-08T12:59:51Z</time>
      </trkpt>
      <trkpt lat="47.41401" lon="1.84887">
        <ele>96.6</ele>
        <time>2024-05-08T12:59:56Z</time>
      </trkpt>
      <trkpt lat="47.41354" lon="1.84921">
        <ele>97</ele>
        <time>2024-05-08T13:00:03Z</time>
      </trkpt>
      <trkpt lat="47.41309" lon="1.84955">
        <ele>96</ele>
        <time>2024-05-08T13:00:09Z</time>
      </trkpt>
      <trkpt lat="47.41293" lon="1.84966">
        <ele>95.4</ele>
        <time>2024-05-08T13:00:11Z</time>
      </trkpt>
      <trkpt lat="47.41285" lon="1.84971">
        <ele>95.4</ele>
        <time>2024-05-08T13:00:12Z</time>
      </trkpt>
      <trkpt lat="47.41243" lon="1.84986">
        <ele>94.6</ele>
        <time>2024-05-08T13:00:17Z</time>
      </trkpt>
      <trkpt lat="47.41218" lon="1.84986">
        <ele>94.4</ele>
        <time>2024-05-08T13:00:20Z</time>
      </trkpt>
      <trkpt lat="47.41201" lon="1.84984">
        <ele>94.2</ele>
        <time>2024-05-08T13:00:22Z</time>
      </trkpt>
      <trkpt lat="47.41169" lon="1.84973">
        <ele>94.2</ele>
        <time>2024-05-08T13:00:26Z</time>
      </trkpt>
      <trkpt lat="47.41115" lon="1.84956">
        <ele>94</ele>
        <time>2024-05-08T13:00:33Z</time>
      </trkpt>
      <trkpt lat="47.411" lon="1.84951">
        <ele>94</ele>
        <time>2024-05-08T13:00:36Z</time>
      </trkpt>
      <trkpt lat="47.41039" lon="1.84932">
        <ele>93.6</ele>
        <time>2024-05-08T13:00:43Z</time>
      </trkpt>
      <trkpt lat="47.41024" lon="1.84927">
        <ele>93.6</ele>
        <time>2024-05-08T13:00:45Z</time>
      </trkpt>
      <trkpt lat="47.40994" lon="1.84916">
        <ele>93.4</ele>
        <time>2024-05-08T13:00:49Z</time>
      </trkpt>
      <trkpt lat="47.40949" lon="1.84895">
        <ele>93.2</ele>
        <time>2024-05-08T13:00:55Z</time>
      </trkpt>
      <trkpt lat="47.40907" lon="1.84859">
        <ele>93.2</ele>
        <time>2024-05-08T13:01:01Z</time>
      </trkpt>
      <trkpt lat="47.40895" lon="1.84843">
        <ele>93.2</ele>
        <time>2024-05-08T13:01:03Z</time>
      </trkpt>
      <trkpt lat="47.40878" lon="1.84817">
        <ele>93.2</ele>
        <time>2024-05-08T13:01:06Z</time>
      </trkpt>
      <trkpt lat="47.4084" lon="1.84753">
        <ele>92.6</ele>
        <time>2024-05-08T13:01:13Z</time>
      </trkpt>
      <trkpt lat="47.40829" lon="1.84735">
        <ele>92.4</ele>
        <time>2024-05-08T13:01:15Z</time>
      </trkpt>
      <trkpt lat="47.40824" lon="1.84726">
        <ele>92.4</ele>
        <time>2024-05-08T13:01:16Z</time>
      </trkpt>
      <trkpt lat="47.40808" lon="1.84699">
        <ele>92</ele>
        <time>2024-05-08T13:01:19Z</time>
      </trkpt>
      <trkpt lat="47.40775" lon="1.84645">
        <ele>91.4</ele>
        <time>2024-05-08T13:01:25Z</time>
      </trkpt>
      <trkpt lat="47.40769" lon="1.84636">
        <ele>91.2</ele>
        <time>2024-05-08T13:01:26Z</time>
      </trkpt>
      <trkpt lat="47.40731" lon="1.84573">
        <ele>90.2</ele>
        <time>2024-05-08T13:01:33Z</time>
      </trkpt>
      <trkpt lat="47.40691" lon="1.84507">
        <ele>89.6</ele>
        <time>2024-05-08T13:01:40Z</time>
      </trkpt>
      <trkpt lat="47.40663" lon="1.84463">
        <ele>89.6</ele>
        <time>2024-05-08T13:01:45Z</time>
      </trkpt>
      <trkpt lat="47.40641" lon="1.84429">
        <ele>89.2</ele>
        <time>2024-05-08T13:01:49Z</time>
      </trkpt>
      <trkpt lat="47.40626" lon="1.84405">
        <ele>88.6</ele>
        <time>2024-05-08T13:01:52Z</time>
      </trkpt>
      <trkpt lat="47.40609" lon="1.84378">
        <ele>88.2</ele>
        <time>2024-05-08T13:01:55Z</time>
      </trkpt>
      <trkpt lat="47.40589" lon="1.84344">
        <ele>88</ele>
        <time>2024-05-08T13:01:59Z</time>
      </trkpt>
      <trkpt lat="47.40557" lon="1.84291">
        <ele>87.2</ele>
        <time>2024-05-08T13:02:05Z</time>
      </trkpt>
      <trkpt lat="47.40546" lon="1.84275">
        <ele>87</ele>
        <time>2024-05-08T13:02:07Z</time>
      </trkpt>
      <trkpt lat="47.4051" lon="1.84215">
        <ele>86.4</ele>
        <time>2024-05-08T13:02:14Z</time>
      </trkpt>
      <trkpt lat="47.40505" lon="1.84207">
        <ele>86.4</ele>
        <time>2024-05-08T13:02:15Z</time>
      </trkpt>
      <trkpt lat="47.4049" lon="1.84183">
        <ele>86.2</ele>
        <time>2024-05-08T13:02:18Z</time>
      </trkpt>
      <trkpt lat="47.40458" lon="1.84131">
        <ele>86</ele>
        <time>2024-05-08T13:02:24Z</time>
      </trkpt>
      <trkpt lat="47.40418" lon="1.84065">
        <ele>86</ele>
        <time>2024-05-08T13:02:32Z</time>
      </trkpt>
      <trkpt lat="47.40398" lon="1.84031">
        <ele>86</ele>
        <time>2024-05-08T13:02:36Z</time>
      </trkpt>
      <trkpt lat="47.40356" lon="1.83962">
        <ele>86.6</ele>
        <time>2024-05-08T13:02:44Z</time>
      </trkpt>
      <trkpt lat="47.40347" lon="1.83948">
        <ele>86.8</ele>
        <time>2024-05-08T13:02:46Z</time>
      </trkpt>
      <trkpt lat="47.40336" lon="1.83933">
        <ele>87</ele>
        <time>2024-05-08T13:02:48Z</time>
      </trkpt>
      <trkpt lat="47.40329" lon="1.83925">
        <ele>87.2</ele>
        <time>2024-05-08T13:02:49Z</time>
      </trkpt>
      <trkpt lat="47.40315" lon="1.83915">
        <ele>87.4</ele>
        <time>2024-05-08T13:02:51Z</time>
      </trkpt>
      <trkpt lat="47.40265" lon="1.83889">
        <ele>87.6</ele>
        <time>2024-05-08T13:02:58Z</time>
      </trkpt>
      <trkpt lat="47.40222" lon="1.83858">
        <ele>86.6</ele>
        <time>2024-05-08T13:03:04Z</time>
      </trkpt>
      <trkpt lat="47.40181" lon="1.83822">
        <ele>86</ele>
        <time>2024-05-08T13:03:10Z</time>
      </trkpt>
      <trkpt lat="47.40169" lon="1.83811">
        <ele>85.8</ele>
        <time>2024-05-08T13:03:12Z</time>
      </trkpt>
      <trkpt lat="47.40121" lon="1.83769">
        <ele>85.2</ele>
        <time>2024-05-08T13:03:19Z</time>
      </trkpt>
      <trkpt lat="47.40113" lon="1.83763">
        <ele>85</ele>
        <time>2024-05-08T13:03:20Z</time>
      </trkpt>
      <trkpt lat="47.40094" lon="1.83745">
        <ele>84.6</ele>
        <time>2024-05-08T13:03:23Z</time>
      </trkpt>
      <trkpt lat="47.40076" lon="1.83722">
        <ele>83.6</ele>
        <time>2024-05-08T13:03:26Z</time>
      </trkpt>
      <trkpt lat="47.40058" lon="1.83695">
        <ele>82.6</ele>
        <time>2024-05-08T13:03:29Z</time>
      </trkpt>
      <trkpt lat="47.40049" lon="1.83678">
        <ele>82.4</ele>
        <time>2024-05-08T13:03:31Z</time>
      </trkpt>
      <trkpt lat="47.40039" lon="1.8366">
        <ele>82.2</ele>
        <time>2024-05-08T13:03:33Z</time>
      </trkpt>
      <trkpt lat="47.40014" lon="1.83616">
        <ele>81.6</ele>
        <time>2024-05-08T13:03:38Z</time>
      </trkpt>
      <trkpt lat="47.40003" lon="1.83598">
        <ele>81.4</ele>
        <time>2024-05-08T13:03:40Z</time>
      </trkpt>
      <trkpt lat="47.39992" lon="1.83586">
        <ele>81.2</ele>
        <time>2024-05-08T13:03:42Z</time>
      </trkpt>
      <trkpt lat="47.39964" lon="1.83573">
        <ele>80.6</ele>
        <time>2024-05-08T13:03:46Z</time>
      </trkpt>
      <trkpt lat="47.39957" lon="1.83571">
        <ele>80.4</ele>
        <time>2024-05-08T13:03:47Z</time>
      </trkpt>
      <trkpt lat="47.39951" lon="1.83567">
        <ele>80.4</ele>
        <time>2024-05-08T13:03:48Z</time>
      </trkpt>
      <trkpt lat="47.3994" lon="1.83558">
        <ele>80.4</ele>
        <time>2024-05-08T13:03:50Z</time>
      </trkpt>
      <trkpt lat="47.39929" lon="1.83538">
        <ele>80</ele>
        <time>2024-05-08T13:03:53Z</time>
      </trkpt>
      <trkpt lat="47.39927" lon="1.83531">
        <ele>80</ele>
        <time>2024-05-08T13:03:54Z</time>
      </trkpt>
      <trkpt lat="47.39924" lon="1.83524">
        <ele>80</ele>
        <time>2024-05-08T13:03:55Z</time>
      </trkpt>
      <trkpt lat="47.39915" lon="1.83497">
        <ele>80</ele>
        <time>2024-05-08T13:03:59Z</time>
      </trkpt>
      <trkpt lat="47.39901" lon="1.83442">
        <ele>80</ele>
        <time>2024-05-08T13:04:07Z</time>
      </trkpt>
      <trkpt lat="47.39894" lon="1.83384">
        <ele>80</ele>
        <time>2024-05-08T13:04:16Z</time>
      </trkpt>
      <trkpt lat="47.39892" lon="1.83364">
        <ele>80</ele>
        <time>2024-05-08T13:04:20Z</time>
      </trkpt>
      <trkpt lat="47.39887" lon="1.83318">
        <ele>80.2</ele>
        <time>2024-05-08T13:04:28Z</time>
      </trkpt>
      <trkpt lat="47.39885" lon="1.8328">
        <ele>80.6</ele>
        <time>2024-05-08T13:04:35Z</time>
      </trkpt>
      <trkpt lat="47.39885" lon="1.83259">
        <ele>81</ele>
        <time>2024-05-08T13:04:40Z</time>
      </trkpt>
      <trkpt lat="47.39885" lon="1.83252">
        <ele>81.2</ele>
        <time>2024-05-08T13:04:42Z</time>
      </trkpt>
      <trkpt lat="47.39886" lon="1.83246">
        <ele>81.2</ele>
        <time>2024-05-08T13:04:44Z</time>
      </trkpt>
      <trkpt lat="47.39886" lon="1.83241">
        <ele>81.4</ele>
        <time>2024-05-08T13:04:49Z</time>
      </trkpt>
      <trkpt lat="47.39886" lon="1.83236">
        <ele>81.6</ele>
        <time>2024-05-08T13:05:19Z</time>
      </trkpt>
      <trkpt lat="47.39885" lon="1.83228">
        <ele>81.6</ele>
        <time>2024-05-08T13:05:22Z</time>
      </trkpt>
      <trkpt lat="47.39884" lon="1.83208">
        <ele>81.6</ele>
        <time>2024-05-08T13:05:28Z</time>
      </trkpt>
      <trkpt lat="47.39883" lon="1.83185">
        <ele>81.6</ele>
        <time>2024-05-08T13:05:34Z</time>
      </trkpt>
      <trkpt lat="47.39882" lon="1.83156">
        <ele>82.2</ele>
        <time>2024-05-08T13:05:41Z</time>
      </trkpt>
      <trkpt lat="47.39881" lon="1.83138">
        <ele>82.6</ele>
        <time>2024-05-08T13:05:45Z</time>
      </trkpt>
      <trkpt lat="47.39879" lon="1.83126">
        <ele>82.8</ele>
        <time>2024-05-08T13:05:48Z</time>
      </trkpt>
      <trkpt lat="47.39875" lon="1.83085">
        <ele>83.2</ele>
        <time>2024-05-08T13:05:56Z</time>
      </trkpt>
      <trkpt lat="47.39872" lon="1.83058">
        <ele>83.6</ele>
        <time>2024-05-08T13:06:01Z</time>
      </trkpt>
      <trkpt lat="47.39872" lon="1.83052">
        <ele>83.6</ele>
        <time>2024-05-08T13:06:02Z</time>
      </trkpt>
      <trkpt lat="47.3987" lon="1.83036">
        <ele>84.2</ele>
        <time>2024-05-08T13:06:05Z</time>
      </trkpt>
      <trkpt lat="47.39864" lon="1.82999">
        <ele>84.6</ele>
        <time>2024-05-08T13:06:12Z</time>
      </trkpt>
      <trkpt lat="47.39863" lon="1.82985">
        <ele>84.8</ele>
        <time>2024-05-08T13:06:15Z</time>
      </trkpt>
      <trkpt lat="47.39857" lon="1.82937">
        <ele>85</ele>
        <time>2024-05-08T13:06:24Z</time>
      </trkpt>
      <trkpt lat="47.39856" lon="1.82933">
        <ele>85</ele>
        <time>2024-05-08T13:06:25Z</time>
      </trkpt>
      <trkpt lat="47.39854" lon="1.82892">
        <ele>85</ele>
        <time>2024-05-08T13:06:32Z</time>
      </trkpt>
      <trkpt lat="47.39856" lon="1.82849">
        <ele>85</ele>
        <time>2024-05-08T13:06:39Z</time>
      </trkpt>
      <trkpt lat="47.39864" lon="1.82804">
        <ele>84.8</ele>
        <time>2024-05-08T13:06:46Z</time>
      </trkpt>
      <trkpt lat="47.39867" lon="1.82791">
        <ele>85</ele>
        <time>2024-05-08T13:06:48Z</time>
      </trkpt>
      <trkpt lat="47.39879" lon="1.82736">
        <ele>85</ele>
        <time>2024-05-08T13:06:56Z</time>
      </trkpt>
      <trkpt lat="47.3988" lon="1.82729">
        <ele>85</ele>
        <time>2024-05-08T13:06:57Z</time>
      </trkpt>
      <trkpt lat="47.39878" lon="1.82667">
        <ele>85.2</ele>
        <time>2024-05-08T13:07:06Z</time>
      </trkpt>
      <trkpt lat="47.3987" lon="1.82622">
        <ele>85.4</ele>
        <time>2024-05-08T13:07:13Z</time>
      </trkpt>
      <trkpt lat="47.39859" lon="1.8259">
        <ele>85.4</ele>
        <time>2024-05-08T13:07:18Z</time>
      </trkpt>
      <trkpt lat="47.39849" lon="1.82572">
        <ele>85.4</ele>
        <time>2024-05-08T13:07:21Z</time>
      </trkpt>
      <trkpt lat="47.39837" lon="1.82547">
        <ele>85.2</ele>
        <time>2024-05-08T13:07:25Z</time>
      </trkpt>
      <trkpt lat="47.3983" lon="1.82535">
        <ele>85.2</ele>
        <time>2024-05-08T13:07:27Z</time>
      </trkpt>
      <trkpt lat="47.39803" lon="1.82479">
        <ele>84.8</ele>
        <time>2024-05-08T13:07:37Z</time>
      </trkpt>
      <trkpt lat="47.3977" lon="1.82407">
        <ele>85</ele>
        <time>2024-05-08T13:07:49Z</time>
      </trkpt>
      <trkpt lat="47.39749" lon="1.82372">
        <ele>85.6</ele>
        <time>2024-05-08T13:07:55Z</time>
      </trkpt>
      <trkpt lat="47.39742" lon="1.82359">
        <ele>85.6</ele>
        <time>2024-05-08T13:07:57Z</time>
      </trkpt>
      <trkpt lat="47.39731" lon="1.82331">
        <ele>85.6</ele>
        <time>2024-05-08T13:08:01Z</time>
      </trkpt>
      <trkpt lat="47.39721" lon="1.82311">
        <ele>85.8</ele>
        <time>2024-05-08T13:08:04Z</time>
      </trkpt>
      <trkpt lat="47.39693" lon="1.82252">
        <ele>86.2</ele>
        <time>2024-05-08T13:08:13Z</time>
      </trkpt>
      <trkpt lat="47.39666" lon="1.82198">
        <ele>86.4</ele>
        <time>2024-05-08T13:08:22Z</time>
      </trkpt>
      <trkpt lat="47.39643" lon="1.82151">
        <ele>86.4</ele>
        <time>2024-05-08T13:08:30Z</time>
      </trkpt>
      <trkpt lat="47.3963" lon="1.82117">
        <ele>86.8</ele>
        <time>2024-05-08T13:08:35Z</time>
      </trkpt>
      <trkpt lat="47.39626" lon="1.82102">
        <ele>86.8</ele>
        <time>2024-05-08T13:08:37Z</time>
      </trkpt>
      <trkpt lat="47.39618" lon="1.82046">
        <ele>86.8</ele>
        <time>2024-05-08T13:08:44Z</time>
      </trkpt>
      <trkpt lat="47.39611" lon="1.81977">
        <ele>87</ele>
        <time>2024-05-08T13:08:52Z</time>
      </trkpt>
      <trkpt lat="47.39602" lon="1.81932">
        <ele>87</ele>
        <time>2024-05-08T13:08:58Z</time>
      </trkpt>
      <trkpt lat="47.396" lon="1.81925">
        <ele>87</ele>
        <time>2024-05-08T13:08:59Z</time>
      </trkpt>
      <trkpt lat="47.3958" lon="1.81889">
        <ele>87.6</ele>
        <time>2024-05-08T13:09:05Z</time>
      </trkpt>
      <trkpt lat="47.39565" lon="1.81869">
        <ele>87.8</ele>
        <time>2024-05-08T13:09:09Z</time>
      </trkpt>
      <trkpt lat="47.39548" lon="1.81849">
        <ele>87.8</ele>
        <time>2024-05-08T13:09:13Z</time>
      </trkpt>
      <trkpt lat="47.39518" lon="1.81814">
        <ele>88</ele>
        <time>2024-05-08T13:09:20Z</time>
      </trkpt>
      <trkpt lat="47.39492" lon="1.81773">
        <ele>88.4</ele>
        <time>2024-05-08T13:09:27Z</time>
      </trkpt>
      <trkpt lat="47.39479" lon="1.81737">
        <ele>88.8</ele>
        <time>2024-05-08T13:09:32Z</time>
      </trkpt>
      <trkpt lat="47.39475" lon="1.81723">
        <ele>88.8</ele>
        <time>2024-05-08T13:09:34Z</time>
      </trkpt>
      <trkpt lat="47.39457" lon="1.81648">
        <ele>89.6</ele>
        <time>2024-05-08T13:09:44Z</time>
      </trkpt>
      <trkpt lat="47.39454" lon="1.81633">
        <ele>89.8</ele>
        <time>2024-05-08T13:09:46Z</time>
      </trkpt>
      <trkpt lat="47.39437" lon="1.81563">
        <ele>90.6</ele>
        <time>2024-05-08T13:09:55Z</time>
      </trkpt>
      <trkpt lat="47.39432" lon="1.8154">
        <ele>90.8</ele>
        <time>2024-05-08T13:09:58Z</time>
      </trkpt>
      <trkpt lat="47.39424" lon="1.81492">
        <ele>91.2</ele>
        <time>2024-05-08T13:10:04Z</time>
      </trkpt>
      <trkpt lat="47.39417" lon="1.81418">
        <ele>91.6</ele>
        <time>2024-05-08T13:10:13Z</time>
      </trkpt>
      <trkpt lat="47.39404" lon="1.81364">
        <ele>91.8</ele>
        <time>2024-05-08T13:10:20Z</time>
      </trkpt>
      <trkpt lat="47.39384" lon="1.81332">
        <ele>91.8</ele>
        <time>2024-05-08T13:10:25Z</time>
      </trkpt>
      <trkpt lat="47.39379" lon="1.81326">
        <ele>92</ele>
        <time>2024-05-08T13:10:26Z</time>
      </trkpt>
      <trkpt lat="47.39354" lon="1.81297">
        <ele>92.2</ele>
        <time>2024-05-08T13:10:32Z</time>
      </trkpt>
      <trkpt lat="47.39346" lon="1.81286">
        <ele>92</ele>
        <time>2024-05-08T13:10:34Z</time>
      </trkpt>
      <trkpt lat="47.39334" lon="1.81274">
        <ele>92</ele>
        <time>2024-05-08T13:10:36Z</time>
      </trkpt>
      <trkpt lat="47.3933" lon="1.8127">
        <ele>92</ele>
        <time>2024-05-08T13:10:37Z</time>
      </trkpt>
      <trkpt lat="47.39303" lon="1.81247">
        <ele>91.8</ele>
        <time>2024-05-08T13:10:42Z</time>
      </trkpt>
      <trkpt lat="47.39256" lon="1.81202">
        <ele>92</ele>
        <time>2024-05-08T13:10:50Z</time>
      </trkpt>
      <trkpt lat="47.39212" lon="1.81153">
        <ele>91.6</ele>
        <time>2024-05-08T13:10:59Z</time>
      </trkpt>
      <trkpt lat="47.39165" lon="1.811">
        <ele>92.2</ele>
        <time>2024-05-08T13:11:09Z</time>
      </trkpt>
      <trkpt lat="47.3916" lon="1.81096">
        <ele>92.2</ele>
        <time>2024-05-08T13:11:10Z</time>
      </trkpt>
      <trkpt lat="47.39112" lon="1.81044">
        <ele>92.4</ele>
        <time>2024-05-08T13:11:20Z</time>
      </trkpt>
      <trkpt lat="47.39107" lon="1.81038">
        <ele>92.4</ele>
        <time>2024-05-08T13:11:21Z</time>
      </trkpt>
      <trkpt lat="47.39058" lon="1.80987">
        <ele>92.8</ele>
        <time>2024-05-08T13:11:31Z</time>
      </trkpt>
      <trkpt lat="47.39049" lon="1.80978">
        <ele>92.8</ele>
        <time>2024-05-08T13:11:33Z</time>
      </trkpt>
      <trkpt lat="47.39045" lon="1.80972">
        <ele>92.8</ele>
        <time>2024-05-08T13:11:34Z</time>
      </trkpt>
      <trkpt lat="47.3904" lon="1.80967">
        <ele>92.8</ele>
        <time>2024-05-08T13:11:35Z</time>
      </trkpt>
      <trkpt lat="47.39025" lon="1.80951">
        <ele>92.6</ele>
        <time>2024-05-08T13:11:38Z</time>
      </trkpt>
      <trkpt lat="47.38995" lon="1.80921">
        <ele>92.4</ele>
        <time>2024-05-08T13:11:44Z</time>
      </trkpt>
      <trkpt lat="47.38958" lon="1.80882">
        <ele>92.6</ele>
        <time>2024-05-08T13:11:52Z</time>
      </trkpt>
      <trkpt lat="47.38916" lon="1.80835">
        <ele>92.6</ele>
        <time>2024-05-08T13:12:01Z</time>
      </trkpt>
      <trkpt lat="47.3888" lon="1.80799">
        <ele>92.8</ele>
        <time>2024-05-08T13:12:08Z</time>
      </trkpt>
      <trkpt lat="47.38875" lon="1.80793">
        <ele>92.8</ele>
        <time>2024-05-08T13:12:09Z</time>
      </trkpt>
      <trkpt lat="47.38848" lon="1.80769">
        <ele>92.8</ele>
        <time>2024-05-08T13:12:14Z</time>
      </trkpt>
      <trkpt lat="47.38843" lon="1.80764">
        <ele>92.8</ele>
        <time>2024-05-08T13:12:15Z</time>
      </trkpt>
      <trkpt lat="47.38832" lon="1.80751">
        <ele>92.8</ele>
        <time>2024-05-08T13:12:17Z</time>
      </trkpt>
      <trkpt lat="47.38819" lon="1.80736">
        <ele>92.8</ele>
        <time>2024-05-08T13:12:20Z</time>
      </trkpt>
      <trkpt lat="47.38773" lon="1.80687">
        <ele>92.8</ele>
        <time>2024-05-08T13:12:29Z</time>
      </trkpt>
      <trkpt lat="47.38748" lon="1.80657">
        <ele>93.2</ele>
        <time>2024-05-08T13:12:35Z</time>
      </trkpt>
      <trkpt lat="47.3872" lon="1.80629">
        <ele>93.4</ele>
        <time>2024-05-08T13:12:41Z</time>
      </trkpt>
      <trkpt lat="47.38712" lon="1.80619">
        <ele>93.4</ele>
        <time>2024-05-08T13:12:43Z</time>
      </trkpt>
      <trkpt lat="47.38703" lon="1.80611">
        <ele>93.6</ele>
        <time>2024-05-08T13:12:45Z</time>
      </trkpt>
      <trkpt lat="47.38698" lon="1.80606">
        <ele>93.6</ele>
        <time>2024-05-08T13:12:46Z</time>
      </trkpt>
      <trkpt lat="47.38682" lon="1.8059">
        <ele>93.8</ele>
        <time>2024-05-08T13:12:49Z</time>
      </trkpt>
      <trkpt lat="47.38664" lon="1.80568">
        <ele>93.8</ele>
        <time>2024-05-08T13:12:53Z</time>
      </trkpt>
      <trkpt lat="47.38631" lon="1.8053">
        <ele>93.6</ele>
        <time>2024-05-08T13:12:59Z</time>
      </trkpt>
      <trkpt lat="47.38596" lon="1.80481">
        <ele>93</ele>
        <time>2024-05-08T13:13:06Z</time>
      </trkpt>
      <trkpt lat="47.38588" lon="1.80468">
        <ele>92.8</ele>
        <time>2024-05-08T13:13:08Z</time>
      </trkpt>
      <trkpt lat="47.38583" lon="1.80462">
        <ele>92.6</ele>
        <time>2024-05-08T13:13:09Z</time>
      </trkpt>
      <trkpt lat="47.38573" lon="1.80449">
        <ele>92.4</ele>
        <time>2024-05-08T13:13:11Z</time>
      </trkpt>
      <trkpt lat="47.3854" lon="1.80402">
        <ele>91.6</ele>
        <time>2024-05-08T13:13:18Z</time>
      </trkpt>
      <trkpt lat="47.38502" lon="1.80352">
        <ele>91</ele>
        <time>2024-05-08T13:13:25Z</time>
      </trkpt>
      <trkpt lat="47.38477" lon="1.80319">
        <ele>90.4</ele>
        <time>2024-05-08T13:13:30Z</time>
      </trkpt>
      <trkpt lat="47.38471" lon="1.8031">
        <ele>90.4</ele>
        <time>2024-05-08T13:13:31Z</time>
      </trkpt>
      <trkpt lat="47.3843" lon="1.80257">
        <ele>89.4</ele>
        <time>2024-05-08T13:13:39Z</time>
      </trkpt>
      <trkpt lat="47.38424" lon="1.80248">
        <ele>89.4</ele>
        <time>2024-05-08T13:13:40Z</time>
      </trkpt>
      <trkpt lat="47.3839" lon="1.80196">
        <ele>88.8</ele>
        <time>2024-05-08T13:13:47Z</time>
      </trkpt>
      <trkpt lat="47.38374" lon="1.80172">
        <ele>88.2</ele>
        <time>2024-05-08T13:13:50Z</time>
      </trkpt>
      <trkpt lat="47.38363" lon="1.80156">
        <ele>88.2</ele>
        <time>2024-05-08T13:13:52Z</time>
      </trkpt>
      <trkpt lat="47.38355" lon="1.8014">
        <ele>87.8</ele>
        <time>2024-05-08T13:13:54Z</time>
      </trkpt>
      <trkpt lat="47.38338" lon="1.80114">
        <ele>87.2</ele>
        <time>2024-05-08T13:13:57Z</time>
      </trkpt>
      <trkpt lat="47.38332" lon="1.80106">
        <ele>87</ele>
        <time>2024-05-08T13:13:58Z</time>
      </trkpt>
      <trkpt lat="47.38312" lon="1.80073">
        <ele>86.6</ele>
        <time>2024-05-08T13:14:02Z</time>
      </trkpt>
      <trkpt lat="47.38293" lon="1.80042">
        <ele>86.2</ele>
        <time>2024-05-08T13:14:06Z</time>
      </trkpt>
      <trkpt lat="47.38275" lon="1.80014">
        <ele>85.8</ele>
        <time>2024-05-08T13:14:10Z</time>
      </trkpt>
      <trkpt lat="47.38238" lon="1.79953">
        <ele>85.2</ele>
        <time>2024-05-08T13:14:18Z</time>
      </trkpt>
      <trkpt lat="47.38228" lon="1.79938">
        <ele>85.2</ele>
        <time>2024-05-08T13:14:20Z</time>
      </trkpt>
      <trkpt lat="47.38195" lon="1.79886">
        <ele>85.2</ele>
        <time>2024-05-08T13:14:27Z</time>
      </trkpt>
      <trkpt lat="47.38171" lon="1.79846">
        <ele>85.2</ele>
        <time>2024-05-08T13:14:33Z</time>
      </trkpt>
      <trkpt lat="47.38167" lon="1.79839">
        <ele>85.4</ele>
        <time>2024-05-08T13:14:34Z</time>
      </trkpt>
      <trkpt lat="47.38148" lon="1.79807">
        <ele>85.8</ele>
        <time>2024-05-08T13:14:39Z</time>
      </trkpt>
      <trkpt lat="47.38115" lon="1.79751">
        <ele>86.6</ele>
        <time>2024-05-08T13:14:48Z</time>
      </trkpt>
      <trkpt lat="47.38076" lon="1.7969">
        <ele>87</ele>
        <time>2024-05-08T13:14:57Z</time>
      </trkpt>
      <trkpt lat="47.38071" lon="1.79684">
        <ele>87</ele>
        <time>2024-05-08T13:14:58Z</time>
      </trkpt>
      <trkpt lat="47.38037" lon="1.79629">
        <ele>86.8</ele>
        <time>2024-05-08T13:15:06Z</time>
      </trkpt>
      <trkpt lat="47.38019" lon="1.79598">
        <ele>87</ele>
        <time>2024-05-08T13:15:11Z</time>
      </trkpt>
      <trkpt lat="47.38015" lon="1.79592">
        <ele>87</ele>
        <time>2024-05-08T13:15:12Z</time>
      </trkpt>
      <trkpt lat="47.38001" lon="1.79566">
        <ele>87.2</ele>
        <time>2024-05-08T13:15:16Z</time>
      </trkpt>
      <trkpt lat="47.37997" lon="1.79561">
        <ele>87.4</ele>
        <time>2024-05-08T13:15:17Z</time>
      </trkpt>
      <trkpt lat="47.37993" lon="1.79555">
        <ele>87.4</ele>
        <time>2024-05-08T13:15:18Z</time>
      </trkpt>
      <trkpt lat="47.37963" lon="1.79499">
        <ele>87.8</ele>
        <time>2024-05-08T13:15:26Z</time>
      </trkpt>
      <trkpt lat="47.37935" lon="1.79439">
        <ele>87</ele>
        <time>2024-05-08T13:15:33Z</time>
      </trkpt>
      <trkpt lat="47.37909" lon="1.79387">
        <ele>86.4</ele>
        <time>2024-05-08T13:15:39Z</time>
      </trkpt>
      <trkpt lat="47.37902" lon="1.79371">
        <ele>86.2</ele>
        <time>2024-05-08T13:15:41Z</time>
      </trkpt>
      <trkpt lat="47.37882" lon="1.7933">
        <ele>85.8</ele>
        <time>2024-05-08T13:15:46Z</time>
      </trkpt>
      <trkpt lat="47.37855" lon="1.79273">
        <ele>85</ele>
        <time>2024-05-08T13:15:53Z</time>
      </trkpt>
      <trkpt lat="47.37852" lon="1.79266">
        <ele>85</ele>
        <time>2024-05-08T13:15:54Z</time>
      </trkpt>
      <trkpt lat="47.37823" lon="1.79206">
        <ele>84.6</ele>
        <time>2024-05-08T13:16:01Z</time>
      </trkpt>
      <trkpt lat="47.37788" lon="1.7915">
        <ele>83.8</ele>
        <time>2024-05-08T13:16:09Z</time>
      </trkpt>
      <trkpt lat="47.37783" lon="1.79144">
        <ele>83.8</ele>
        <time>2024-05-08T13:16:10Z</time>
      </trkpt>
      <trkpt lat="47.37758" lon="1.79123">
        <ele>83.6</ele>
        <time>2024-05-08T13:16:14Z</time>
      </trkpt>
      <trkpt lat="47.37711" lon="1.79094">
        <ele>83.4</ele>
        <time>2024-05-08T13:16:21Z</time>
      </trkpt>
      <trkpt lat="47.37661" lon="1.79063">
        <ele>82.8</ele>
        <time>2024-05-08T13:16:29Z</time>
      </trkpt>
      <trkpt lat="47.37632" lon="1.79045">
        <ele>82.2</ele>
        <time>2024-05-08T13:16:34Z</time>
      </trkpt>
      <trkpt lat="47.37602" lon="1.7902">
        <ele>81.8</ele>
        <time>2024-05-08T13:16:40Z</time>
      </trkpt>
      <trkpt lat="47.37562" lon="1.78971">
        <ele>81.8</ele>
        <time>2024-05-08T13:16:48Z</time>
      </trkpt>
      <trkpt lat="47.37555" lon="1.78958">
        <ele>81.8</ele>
        <time>2024-05-08T13:16:50Z</time>
      </trkpt>
      <trkpt lat="47.37537" lon="1.7893">
        <ele>81.6</ele>
        <time>2024-05-08T13:16:54Z</time>
      </trkpt>
      <trkpt lat="47.37528" lon="1.78915">
        <ele>81.4</ele>
        <time>2024-05-08T13:16:56Z</time>
      </trkpt>
      <trkpt lat="47.37511" lon="1.78898">
        <ele>81.4</ele>
        <time>2024-05-08T13:16:59Z</time>
      </trkpt>
      <trkpt lat="47.37464" lon="1.78853">
        <ele>81</ele>
        <time>2024-05-08T13:17:07Z</time>
      </trkpt>
      <trkpt lat="47.37459" lon="1.78849">
        <ele>81</ele>
        <time>2024-05-08T13:17:08Z</time>
      </trkpt>
      <trkpt lat="47.37445" lon="1.78835">
        <ele>81</ele>
        <time>2024-05-08T13:17:11Z</time>
      </trkpt>
      <trkpt lat="47.37431" lon="1.78821">
        <ele>81</ele>
        <time>2024-05-08T13:17:14Z</time>
      </trkpt>
      <trkpt lat="47.37415" lon="1.78808">
        <ele>81</ele>
        <time>2024-05-08T13:17:17Z</time>
      </trkpt>
      <trkpt lat="47.37392" lon="1.78787">
        <ele>81.4</ele>
        <time>2024-05-08T13:17:22Z</time>
      </trkpt>
      <trkpt lat="47.3738" lon="1.78776">
        <ele>81.6</ele>
        <time>2024-05-08T13:17:25Z</time>
      </trkpt>
      <trkpt lat="47.3737" lon="1.78767">
        <ele>81.8</ele>
        <time>2024-05-08T13:17:27Z</time>
      </trkpt>
      <trkpt lat="47.37338" lon="1.78734">
        <ele>82.4</ele>
        <time>2024-05-08T13:17:34Z</time>
      </trkpt>
      <trkpt lat="47.37334" lon="1.78728">
        <ele>82.6</ele>
        <time>2024-05-08T13:17:35Z</time>
      </trkpt>
      <trkpt lat="47.3733" lon="1.78722">
        <ele>83</ele>
        <time>2024-05-08T13:17:36Z</time>
      </trkpt>
      <trkpt lat="47.37317" lon="1.78706">
        <ele>83.2</ele>
        <time>2024-05-08T13:17:39Z</time>
      </trkpt>
      <trkpt lat="47.37303" lon="1.78686">
        <ele>83.4</ele>
        <time>2024-05-08T13:17:42Z</time>
      </trkpt>
      <trkpt lat="47.37289" lon="1.78666">
        <ele>83.4</ele>
        <time>2024-05-08T13:17:45Z</time>
      </trkpt>
      <trkpt lat="47.37263" lon="1.78625">
        <ele>84</ele>
        <time>2024-05-08T13:17:51Z</time>
      </trkpt>
      <trkpt lat="47.37257" lon="1.78616">
        <ele>84</ele>
        <time>2024-05-08T13:17:52Z</time>
      </trkpt>
      <trkpt lat="47.37229" lon="1.78574">
        <ele>84.2</ele>
        <time>2024-05-08T13:17:58Z</time>
      </trkpt>
      <trkpt lat="47.37207" lon="1.78536">
        <ele>83.6</ele>
        <time>2024-05-08T13:18:03Z</time>
      </trkpt>
      <trkpt lat="47.37203" lon="1.78528">
        <ele>83.6</ele>
        <time>2024-05-08T13:18:04Z</time>
      </trkpt>
      <trkpt lat="47.37174" lon="1.78477">
        <ele>83.4</ele>
        <time>2024-05-08T13:18:11Z</time>
      </trkpt>
      <trkpt lat="47.37164" lon="1.78461">
        <ele>83.2</ele>
        <time>2024-05-08T13:18:13Z</time>
      </trkpt>
      <trkpt lat="47.37124" lon="1.78395">
        <ele>83</ele>
        <time>2024-05-08T13:18:22Z</time>
      </trkpt>
      <trkpt lat="47.37114" lon="1.78378">
        <ele>83</ele>
        <time>2024-05-08T13:18:24Z</time>
      </trkpt>
      <trkpt lat="47.37101" lon="1.78356">
        <ele>82.8</ele>
        <time>2024-05-08T13:18:27Z</time>
      </trkpt>
      <trkpt lat="47.37074" lon="1.7831">
        <ele>82.6</ele>
        <time>2024-05-08T13:18:33Z</time>
      </trkpt>
      <trkpt lat="47.3704" lon="1.78252">
        <ele>82</ele>
        <time>2024-05-08T13:18:41Z</time>
      </trkpt>
      <trkpt lat="47.37021" lon="1.78222">
        <ele>81.8</ele>
        <time>2024-05-08T13:18:45Z</time>
      </trkpt>
      <trkpt lat="47.36994" lon="1.78178">
        <ele>81.8</ele>
        <time>2024-05-08T13:18:51Z</time>
      </trkpt>
      <trkpt lat="47.36964" lon="1.78127">
        <ele>82.6</ele>
        <time>2024-05-08T13:18:58Z</time>
      </trkpt>
      <trkpt lat="47.36941" lon="1.78091">
        <ele>83</ele>
        <time>2024-05-08T13:19:03Z</time>
      </trkpt>
      <trkpt lat="47.36932" lon="1.7808">
        <ele>83.2</ele>
        <time>2024-05-08T13:19:05Z</time>
      </trkpt>
      <trkpt lat="47.36927" lon="1.78073">
        <ele>83.4</ele>
        <time>2024-05-08T13:19:06Z</time>
      </trkpt>
      <trkpt lat="47.36914" lon="1.78052">
        <ele>83.6</ele>
        <time>2024-05-08T13:19:09Z</time>
      </trkpt>
      <trkpt lat="47.369" lon="1.78026">
        <ele>84.2</ele>
        <time>2024-05-08T13:19:13Z</time>
      </trkpt>
      <trkpt lat="47.36896" lon="1.7802">
        <ele>84.2</ele>
        <time>2024-05-08T13:19:14Z</time>
      </trkpt>
      <trkpt lat="47.36883" lon="1.77986">
        <ele>84.6</ele>
        <time>2024-05-08T13:19:19Z</time>
      </trkpt>
      <trkpt lat="47.36878" lon="1.77974">
        <ele>84.6</ele>
        <time>2024-05-08T13:19:21Z</time>
      </trkpt>
      <trkpt lat="47.36867" lon="1.77946">
        <ele>85</ele>
        <time>2024-05-08T13:19:25Z</time>
      </trkpt>
      <trkpt lat="47.36861" lon="1.77932">
        <ele>85</ele>
        <time>2024-05-08T13:19:27Z</time>
      </trkpt>
      <trkpt lat="47.36858" lon="1.77924">
        <ele>85</ele>
        <time>2024-05-08T13:19:28Z</time>
      </trkpt>
      <trkpt lat="47.36856" lon="1.77917">
        <ele>85.2</ele>
        <time>2024-05-08T13:19:29Z</time>
      </trkpt>
      <trkpt lat="47.36841" lon="1.7788">
        <ele>85.6</ele>
        <time>2024-05-08T13:19:34Z</time>
      </trkpt>
      <trkpt lat="47.36828" lon="1.77826">
        <ele>86.4</ele>
        <time>2024-05-08T13:19:41Z</time>
      </trkpt>
      <trkpt lat="47.36825" lon="1.77811">
        <ele>86.4</ele>
        <time>2024-05-08T13:19:43Z</time>
      </trkpt>
      <trkpt lat="47.3681" lon="1.77728">
        <ele>86.8</ele>
        <time>2024-05-08T13:19:53Z</time>
      </trkpt>
      <trkpt lat="47.36803" lon="1.77648">
        <ele>86.8</ele>
        <time>2024-05-08T13:20:02Z</time>
      </trkpt>
      <trkpt lat="47.36802" lon="1.77602">
        <ele>86.8</ele>
        <time>2024-05-08T13:20:07Z</time>
      </trkpt>
      <trkpt lat="47.36801" lon="1.77573">
        <ele>86.8</ele>
        <time>2024-05-08T13:20:10Z</time>
      </trkpt>
      <trkpt lat="47.36797" lon="1.77488">
        <ele>87</ele>
        <time>2024-05-08T13:20:19Z</time>
      </trkpt>
      <trkpt lat="47.36796" lon="1.77479">
        <ele>87.2</ele>
        <time>2024-05-08T13:20:20Z</time>
      </trkpt>
      <trkpt lat="47.36793" lon="1.77424">
        <ele>87.4</ele>
        <time>2024-05-08T13:20:26Z</time>
      </trkpt>
      <trkpt lat="47.36792" lon="1.77397">
        <ele>87.6</ele>
        <time>2024-05-08T13:20:29Z</time>
      </trkpt>
      <trkpt lat="47.36789" lon="1.77333">
        <ele>87.8</ele>
        <time>2024-05-08T13:20:36Z</time>
      </trkpt>
      <trkpt lat="47.36785" lon="1.77247">
        <ele>87.8</ele>
        <time>2024-05-08T13:20:45Z</time>
      </trkpt>
      <trkpt lat="47.36783" lon="1.77174">
        <ele>87.6</ele>
        <time>2024-05-08T13:20:53Z</time>
      </trkpt>
      <trkpt lat="47.36779" lon="1.77107">
        <ele>87.4</ele>
        <time>2024-05-08T13:21:00Z</time>
      </trkpt>
      <trkpt lat="47.36776" lon="1.77033">
        <ele>87.2</ele>
        <time>2024-05-08T13:21:08Z</time>
      </trkpt>
      <trkpt lat="47.36776" lon="1.77">
        <ele>87.4</ele>
        <time>2024-05-08T13:21:11Z</time>
      </trkpt>
      <trkpt lat="47.36777" lon="1.76926">
        <ele>87.6</ele>
        <time>2024-05-08T13:21:19Z</time>
      </trkpt>
      <trkpt lat="47.36776" lon="1.76908">
        <ele>87.6</ele>
        <time>2024-05-08T13:21:21Z</time>
      </trkpt>
      <trkpt lat="47.36773" lon="1.76893">
        <ele>87.4</ele>
        <time>2024-05-08T13:21:23Z</time>
      </trkpt>
      <trkpt lat="47.36755" lon="1.76854">
        <ele>87.4</ele>
        <time>2024-05-08T13:21:28Z</time>
      </trkpt>
      <trkpt lat="47.36751" lon="1.76844">
        <ele>87.4</ele>
        <time>2024-05-08T13:21:29Z</time>
      </trkpt>
      <trkpt lat="47.36744" lon="1.76818">
        <ele>87.2</ele>
        <time>2024-05-08T13:21:32Z</time>
      </trkpt>
      <trkpt lat="47.36735" lon="1.76779">
        <ele>87</ele>
        <time>2024-05-08T13:21:36Z</time>
      </trkpt>
      <trkpt lat="47.36725" lon="1.76735">
        <ele>87</ele>
        <time>2024-05-08T13:21:41Z</time>
      </trkpt>
      <trkpt lat="47.36707" lon="1.76659">
        <ele>87.2</ele>
        <time>2024-05-08T13:21:50Z</time>
      </trkpt>
      <trkpt lat="47.36689" lon="1.76599">
        <ele>87.2</ele>
        <time>2024-05-08T13:21:58Z</time>
      </trkpt>
      <trkpt lat="47.36687" lon="1.76592">
        <ele>87.2</ele>
        <time>2024-05-08T13:21:59Z</time>
      </trkpt>
      <trkpt lat="47.36668" lon="1.76535">
        <ele>87.6</ele>
        <time>2024-05-08T13:22:07Z</time>
      </trkpt>
      <trkpt lat="47.36658" lon="1.76508">
        <ele>88</ele>
        <time>2024-05-08T13:22:11Z</time>
      </trkpt>
      <trkpt lat="47.36649" lon="1.7648">
        <ele>88.6</ele>
        <time>2024-05-08T13:22:15Z</time>
      </trkpt>
      <trkpt lat="47.36646" lon="1.76473">
        <ele>88.6</ele>
        <time>2024-05-08T13:22:16Z</time>
      </trkpt>
      <trkpt lat="47.36632" lon="1.7643">
        <ele>89.6</ele>
        <time>2024-05-08T13:22:22Z</time>
      </trkpt>
      <trkpt lat="47.36627" lon="1.76415">
        <ele>90</ele>
        <time>2024-05-08T13:22:24Z</time>
      </trkpt>
      <trkpt lat="47.36612" lon="1.76369">
        <ele>90.8</ele>
        <time>2024-05-08T13:22:30Z</time>
      </trkpt>
      <trkpt lat="47.36609" lon="1.76361">
        <ele>91</ele>
        <time>2024-05-08T13:22:31Z</time>
      </trkpt>
      <trkpt lat="47.36592" lon="1.76298">
        <ele>91.8</ele>
        <time>2024-05-08T13:22:39Z</time>
      </trkpt>
      <trkpt lat="47.36588" lon="1.76283">
        <ele>92.2</ele>
        <time>2024-05-08T13:22:41Z</time>
      </trkpt>
      <trkpt lat="47.36565" lon="1.76222">
        <ele>92.8</ele>
        <time>2024-05-08T13:22:49Z</time>
      </trkpt>
      <trkpt lat="47.36562" lon="1.76215">
        <ele>92.6</ele>
        <time>2024-05-08T13:22:50Z</time>
      </trkpt>
      <trkpt lat="47.36539" lon="1.76163">
        <ele>91.6</ele>
        <time>2024-05-08T13:22:57Z</time>
      </trkpt>
      <trkpt lat="47.3651" lon="1.76097">
        <ele>90.8</ele>
        <time>2024-05-08T13:23:05Z</time>
      </trkpt>
      <trkpt lat="47.36486" lon="1.76042">
        <ele>89.8</ele>
        <time>2024-05-08T13:23:11Z</time>
      </trkpt>
      <trkpt lat="47.36477" lon="1.76024">
        <ele>89.4</ele>
        <time>2024-05-08T13:23:13Z</time>
      </trkpt>
      <trkpt lat="47.36465" lon="1.75997">
        <ele>88.8</ele>
        <time>2024-05-08T13:23:16Z</time>
      </trkpt>
      <trkpt lat="47.36448" lon="1.75961">
        <ele>87.8</ele>
        <time>2024-05-08T13:23:20Z</time>
      </trkpt>
      <trkpt lat="47.36443" lon="1.75953">
        <ele>87.6</ele>
        <time>2024-05-08T13:23:21Z</time>
      </trkpt>
      <trkpt lat="47.36418" lon="1.75903">
        <ele>86.8</ele>
        <time>2024-05-08T13:23:27Z</time>
      </trkpt>
      <trkpt lat="47.36406" lon="1.75878">
        <ele>86.4</ele>
        <time>2024-05-08T13:23:30Z</time>
      </trkpt>
      <trkpt lat="47.36376" lon="1.75817">
        <ele>86</ele>
        <time>2024-05-08T13:23:38Z</time>
      </trkpt>
      <trkpt lat="47.36364" lon="1.75795">
        <ele>85.8</ele>
        <time>2024-05-08T13:23:41Z</time>
      </trkpt>
      <trkpt lat="47.36347" lon="1.75764">
        <ele>85.6</ele>
        <time>2024-05-08T13:23:45Z</time>
      </trkpt>
      <trkpt lat="47.36315" lon="1.7571">
        <ele>85.2</ele>
        <time>2024-05-08T13:23:52Z</time>
      </trkpt>
      <trkpt lat="47.36311" lon="1.75703">
        <ele>85.2</ele>
        <time>2024-05-08T13:23:53Z</time>
      </trkpt>
      <trkpt lat="47.36294" lon="1.75674">
        <ele>85</ele>
        <time>2024-05-08T13:23:57Z</time>
      </trkpt>
      <trkpt lat="47.36286" lon="1.7566">
        <ele>84.8</ele>
        <time>2024-05-08T13:23:59Z</time>
      </trkpt>
      <trkpt lat="47.36282" lon="1.75653">
        <ele>84.6</ele>
        <time>2024-05-08T13:24:00Z</time>
      </trkpt>
      <trkpt lat="47.36252" lon="1.75602">
        <ele>84.4</ele>
        <time>2024-05-08T13:24:08Z</time>
      </trkpt>
      <trkpt lat="47.36235" lon="1.75573">
        <ele>83.6</ele>
        <time>2024-05-08T13:24:14Z</time>
      </trkpt>
      <trkpt lat="47.36229" lon="1.75569">
        <ele>83.6</ele>
        <time>2024-05-08T13:24:16Z</time>
      </trkpt>
      <trkpt lat="47.36225" lon="1.75569">
        <ele>83.4</ele>
        <time>2024-05-08T13:24:17Z</time>
      </trkpt>
      <trkpt lat="47.36221" lon="1.7557">
        <ele>83.4</ele>
        <time>2024-05-08T13:24:18Z</time>
      </trkpt>
      <trkpt lat="47.36202" lon="1.75581">
        <ele>83.2</ele>
        <time>2024-05-08T13:24:22Z</time>
      </trkpt>
      <trkpt lat="47.36176" lon="1.75597">
        <ele>82.6</ele>
        <time>2024-05-08T13:24:28Z</time>
      </trkpt>
      <trkpt lat="47.36171" lon="1.756">
        <ele>82.6</ele>
        <time>2024-05-08T13:24:29Z</time>
      </trkpt>
      <trkpt lat="47.36166" lon="1.75602">
        <ele>82.4</ele>
        <time>2024-05-08T13:24:30Z</time>
      </trkpt>
      <trkpt lat="47.36139" lon="1.75616">
        <ele>82</ele>
        <time>2024-05-08T13:24:35Z</time>
      </trkpt>
      <trkpt lat="47.36103" lon="1.75636">
        <ele>81.6</ele>
        <time>2024-05-08T13:24:41Z</time>
      </trkpt>
      <trkpt lat="47.36097" lon="1.75639">
        <ele>81.4</ele>
        <time>2024-05-08T13:24:42Z</time>
      </trkpt>
      <trkpt lat="47.36046" lon="1.75663">
        <ele>80.6</ele>
        <time>2024-05-08T13:24:50Z</time>
      </trkpt>
      <trkpt lat="47.3604" lon="1.75667">
        <ele>80.4</ele>
        <time>2024-05-08T13:24:51Z</time>
      </trkpt>
      <trkpt lat="47.36008" lon="1.75681">
        <ele>79.8</ele>
        <time>2024-05-08T13:24:56Z</time>
      </trkpt>
      <trkpt lat="47.35969" lon="1.75698">
        <ele>79.4</ele>
        <time>2024-05-08T13:25:02Z</time>
      </trkpt>
      <trkpt lat="47.35943" lon="1.7571">
        <ele>79</ele>
        <time>2024-05-08T13:25:06Z</time>
      </trkpt>
      <trkpt lat="47.35931" lon="1.75715">
        <ele>79</ele>
        <time>2024-05-08T13:25:08Z</time>
      </trkpt>
      <trkpt lat="47.35918" lon="1.75715">
        <ele>78.8</ele>
        <time>2024-05-08T13:25:10Z</time>
      </trkpt>
      <trkpt lat="47.35887" lon="1.75709">
        <ele>78.6</ele>
        <time>2024-05-08T13:25:15Z</time>
      </trkpt>
      <trkpt lat="47.35881" lon="1.75708">
        <ele>78.4</ele>
        <time>2024-05-08T13:25:16Z</time>
      </trkpt>
      <trkpt lat="47.35857" lon="1.75703">
        <ele>78.4</ele>
        <time>2024-05-08T13:25:20Z</time>
      </trkpt>
      <trkpt lat="47.35851" lon="1.75702">
        <ele>78.2</ele>
        <time>2024-05-08T13:25:21Z</time>
      </trkpt>
      <trkpt lat="47.35839" lon="1.75698">
        <ele>78.2</ele>
        <time>2024-05-08T13:25:23Z</time>
      </trkpt>
      <trkpt lat="47.35806" lon="1.75689">
        <ele>77.6</ele>
        <time>2024-05-08T13:25:29Z</time>
      </trkpt>
      <trkpt lat="47.35795" lon="1.75684">
        <ele>77.4</ele>
        <time>2024-05-08T13:25:31Z</time>
      </trkpt>
      <trkpt lat="47.35784" lon="1.75678">
        <ele>77.2</ele>
        <time>2024-05-08T13:25:33Z</time>
      </trkpt>
      <trkpt lat="47.35751" lon="1.75661">
        <ele>76.6</ele>
        <time>2024-05-08T13:25:39Z</time>
      </trkpt>
      <trkpt lat="47.35746" lon="1.75657">
        <ele>76.4</ele>
        <time>2024-05-08T13:25:40Z</time>
      </trkpt>
      <trkpt lat="47.35725" lon="1.75642">
        <ele>76.2</ele>
        <time>2024-05-08T13:25:45Z</time>
      </trkpt>
      <trkpt lat="47.35716" lon="1.75634">
        <ele>76</ele>
        <time>2024-05-08T13:25:49Z</time>
      </trkpt>
      <trkpt lat="47.35713" lon="1.75636">
        <ele>76</ele>
        <time>2024-05-08T13:25:50Z</time>
      </trkpt>
      <trkpt lat="47.35704" lon="1.75649">
        <ele>76</ele>
        <time>2024-05-08T13:25:54Z</time>
      </trkpt>
      <trkpt lat="47.357" lon="1.7565">
        <ele>76</ele>
        <time>2024-05-08T13:25:55Z</time>
      </trkpt>
      <trkpt lat="47.35692" lon="1.75647">
        <ele>76</ele>
        <time>2024-05-08T13:25:57Z</time>
      </trkpt>
      <trkpt lat="47.35682" lon="1.75642">
        <ele>76</ele>
        <time>2024-05-08T13:25:59Z</time>
      </trkpt>
      <trkpt lat="47.35667" lon="1.75632">
        <ele>75.8</ele>
        <time>2024-05-08T13:26:02Z</time>
      </trkpt>
      <trkpt lat="47.35634" lon="1.75616">
        <ele>75.2</ele>
        <time>2024-05-08T13:26:08Z</time>
      </trkpt>
      <trkpt lat="47.35623" lon="1.75611">
        <ele>75</ele>
        <time>2024-05-08T13:26:10Z</time>
      </trkpt>
      <trkpt lat="47.35575" lon="1.75587">
        <ele>74.4</ele>
        <time>2024-05-08T13:26:19Z</time>
      </trkpt>
      <trkpt lat="47.35569" lon="1.75585">
        <ele>74.4</ele>
        <time>2024-05-08T13:26:20Z</time>
      </trkpt>
      <trkpt lat="47.35553" lon="1.75577">
        <ele>74</ele>
        <time>2024-05-08T13:26:23Z</time>
      </trkpt>
      <trkpt lat="47.35533" lon="1.75568">
        <ele>73.8</ele>
        <time>2024-05-08T13:26:27Z</time>
      </trkpt>
      <trkpt lat="47.35516" lon="1.7556">
        <ele>72.8</ele>
        <time>2024-05-08T13:26:32Z</time>
      </trkpt>
      <trkpt lat="47.35497" lon="1.75563">
        <ele>72.4</ele>
        <time>2024-05-08T13:26:40Z</time>
      </trkpt>
      <trkpt lat="47.35493" lon="1.75564">
        <ele>72.2</ele>
        <time>2024-05-08T13:26:42Z</time>
      </trkpt>
      <trkpt lat="47.35491" lon="1.75563">
        <ele>72.2</ele>
        <time>2024-05-08T13:26:44Z</time>
      </trkpt>
      <trkpt lat="47.35489" lon="1.75561">
        <ele>72.2</ele>
        <time>2024-05-08T13:26:46Z</time>
      </trkpt>
      <trkpt lat="47.35488" lon="1.75562">
        <ele>72</ele>
        <time>2024-05-08T13:26:48Z</time>
      </trkpt>
      <trkpt lat="47.35487" lon="1.75564">
        <ele>72</ele>
        <time>2024-05-08T13:26:49Z</time>
      </trkpt>
      <trkpt lat="47.35484" lon="1.7557">
        <ele>71.8</ele>
        <time>2024-05-08T13:26:53Z</time>
      </trkpt>
      <trkpt lat="47.35483" lon="1.75571">
        <ele>71.8</ele>
        <time>2024-05-08T13:26:56Z</time>
      </trkpt>
    </trkseg>
  </trk>
</gpx>